<?xml version="1.0" encoding="UTF-8" standalone="no" ?>
<gpx xmlns="http://www.topografix.com/GPX/1/1" xmlns:xsi="http://www.w3.org/2001/XMLSchema-instance" xsi:schemaLocation="http://www.topografix.com/GPX/1/1 http://www.topografix.com/GPX/1/1/gpx.xsd" version="1.1" creator="VisuGPX - https://www.visugpx.com">
  <metadata>
    <name>Dolomites jour 7</name>
    <desc><![CDATA[De Vigo di Fassa à Bormio, par le Stelvio pass ]]></desc>
  </metadata>
  <trk>
    <name><![CDATA[Jour 7 - 02/08/2012]]></name>
    <trkseg>
      <trkpt lat="46.43514" lon="11.68917">
        <ele>1306.09</ele>
        <time>2012-08-02T07:21:36Z</time>
      </trkpt>
      <trkpt lat="46.43515" lon="11.68916">
        <ele>1306.09</ele>
        <time>2012-08-02T07:21:37Z</time>
      </trkpt>
      <trkpt lat="46.43522" lon="11.68916">
        <ele>1307.05</ele>
        <time>2012-08-02T07:22:01Z</time>
      </trkpt>
      <trkpt lat="46.43523" lon="11.68916">
        <ele>1300.8</ele>
        <time>2012-08-02T07:22:04Z</time>
      </trkpt>
      <trkpt lat="46.43523" lon="11.68916">
        <ele>1300.8</ele>
        <time>2012-08-02T07:22:05Z</time>
      </trkpt>
      <trkpt lat="46.43524" lon="11.68916">
        <ele>1307.05</ele>
        <time>2012-08-02T07:22:06Z</time>
      </trkpt>
      <trkpt lat="46.43525" lon="11.68922">
        <ele>1307.53</ele>
        <time>2012-08-02T07:22:17Z</time>
      </trkpt>
      <trkpt lat="46.43527" lon="11.68925">
        <ele>1304.65</ele>
        <time>2012-08-02T07:22:20Z</time>
      </trkpt>
      <trkpt lat="46.43527" lon="11.68928">
        <ele>1305.61</ele>
        <time>2012-08-02T07:22:23Z</time>
      </trkpt>
      <trkpt lat="46.43528" lon="11.6893">
        <ele>1307.05</ele>
        <time>2012-08-02T07:22:25Z</time>
      </trkpt>
      <trkpt lat="46.43523" lon="11.68934">
        <ele>1307.05</ele>
        <time>2012-08-02T07:22:48Z</time>
      </trkpt>
      <trkpt lat="46.43516" lon="11.68916">
        <ele>1307.05</ele>
        <time>2012-08-02T07:23:14Z</time>
      </trkpt>
      <trkpt lat="46.43517" lon="11.68916">
        <ele>1305.61</ele>
        <time>2012-08-02T07:23:19Z</time>
      </trkpt>
      <trkpt lat="46.43533" lon="11.68954">
        <ele>1306.57</ele>
        <time>2012-08-02T07:23:45Z</time>
      </trkpt>
      <trkpt lat="46.4354" lon="11.68958">
        <ele>1307.05</ele>
        <time>2012-08-02T07:24:09Z</time>
      </trkpt>
      <trkpt lat="46.43539" lon="11.68952">
        <ele>1307.05</ele>
        <time>2012-08-02T07:24:35Z</time>
      </trkpt>
      <trkpt lat="46.43536" lon="11.6895">
        <ele>1307.05</ele>
        <time>2012-08-02T07:25:06Z</time>
      </trkpt>
      <trkpt lat="46.43535" lon="11.68949">
        <ele>1307.05</ele>
        <time>2012-08-02T07:25:32Z</time>
      </trkpt>
      <trkpt lat="46.43531" lon="11.68954">
        <ele>1307.53</ele>
        <time>2012-08-02T07:25:53Z</time>
      </trkpt>
      <trkpt lat="46.4353" lon="11.6894">
        <ele>1308.01</ele>
        <time>2012-08-02T07:26:19Z</time>
      </trkpt>
      <trkpt lat="46.43531" lon="11.68939">
        <ele>1308.01</ele>
        <time>2012-08-02T07:26:47Z</time>
      </trkpt>
      <trkpt lat="46.43532" lon="11.68944">
        <ele>1307.53</ele>
        <time>2012-08-02T07:27:18Z</time>
      </trkpt>
      <trkpt lat="46.43532" lon="11.68945">
        <ele>1307.53</ele>
        <time>2012-08-02T07:27:44Z</time>
      </trkpt>
      <trkpt lat="46.43526" lon="11.68941">
        <ele>1310.41</ele>
        <time>2012-08-02T07:28:05Z</time>
      </trkpt>
      <trkpt lat="46.43524" lon="11.68942">
        <ele>1311.38</ele>
        <time>2012-08-02T07:28:12Z</time>
      </trkpt>
      <trkpt lat="46.43522" lon="11.68943">
        <ele>1313.78</ele>
        <time>2012-08-02T07:28:18Z</time>
      </trkpt>
      <trkpt lat="46.43518" lon="11.68938">
        <ele>1316.66</ele>
        <time>2012-08-02T07:28:29Z</time>
      </trkpt>
      <trkpt lat="46.43516" lon="11.68934">
        <ele>1320.03</ele>
        <time>2012-08-02T07:28:38Z</time>
      </trkpt>
      <trkpt lat="46.43516" lon="11.68934">
        <ele>1320.03</ele>
        <time>2012-08-02T07:28:39Z</time>
      </trkpt>
      <trkpt lat="46.43516" lon="11.68931">
        <ele>1323.39</ele>
        <time>2012-08-02T07:28:55Z</time>
      </trkpt>
      <trkpt lat="46.43517" lon="11.68932">
        <ele>1322.91</ele>
        <time>2012-08-02T07:29:24Z</time>
      </trkpt>
      <trkpt lat="46.43515" lon="11.68931">
        <ele>1322.91</ele>
        <time>2012-08-02T07:29:58Z</time>
      </trkpt>
      <trkpt lat="46.43516" lon="11.6893">
        <ele>1324.35</ele>
        <time>2012-08-02T07:30:24Z</time>
      </trkpt>
      <trkpt lat="46.43516" lon="11.68929">
        <ele>1327.72</ele>
        <time>2012-08-02T07:30:31Z</time>
      </trkpt>
      <trkpt lat="46.43516" lon="11.68929">
        <ele>1328.2</ele>
        <time>2012-08-02T07:30:33Z</time>
      </trkpt>
      <trkpt lat="46.43516" lon="11.6893">
        <ele>1331.56</ele>
        <time>2012-08-02T07:30:46Z</time>
      </trkpt>
      <trkpt lat="46.43515" lon="11.68929">
        <ele>1334.45</ele>
        <time>2012-08-02T07:31:01Z</time>
      </trkpt>
      <trkpt lat="46.43514" lon="11.68928">
        <ele>1336.85</ele>
        <time>2012-08-02T07:31:28Z</time>
      </trkpt>
      <trkpt lat="46.43513" lon="11.68927">
        <ele>1336.85</ele>
        <time>2012-08-02T07:32:01Z</time>
      </trkpt>
      <trkpt lat="46.43513" lon="11.68927">
        <ele>1337.33</ele>
        <time>2012-08-02T07:32:39Z</time>
      </trkpt>
      <trkpt lat="46.43512" lon="11.68927">
        <ele>1336.85</ele>
        <time>2012-08-02T07:33:11Z</time>
      </trkpt>
      <trkpt lat="46.43513" lon="11.68928">
        <ele>1336.85</ele>
        <time>2012-08-02T07:33:43Z</time>
      </trkpt>
      <trkpt lat="46.43513" lon="11.68925">
        <ele>1336.85</ele>
        <time>2012-08-02T07:34:22Z</time>
      </trkpt>
      <trkpt lat="46.43508" lon="11.6891">
        <ele>1336.85</ele>
        <time>2012-08-02T07:34:51Z</time>
      </trkpt>
      <trkpt lat="46.43507" lon="11.68905">
        <ele>1337.33</ele>
        <time>2012-08-02T07:35:09Z</time>
      </trkpt>
      <trkpt lat="46.4349" lon="11.68865">
        <ele>1336.37</ele>
        <time>2012-08-02T07:36:12Z</time>
      </trkpt>
      <trkpt lat="46.4349" lon="11.68874">
        <ele>1337.33</ele>
        <time>2012-08-02T07:36:32Z</time>
      </trkpt>
      <trkpt lat="46.43492" lon="11.68881">
        <ele>1336.37</ele>
        <time>2012-08-02T07:36:49Z</time>
      </trkpt>
      <trkpt lat="46.43499" lon="11.68895">
        <ele>1333.49</ele>
        <time>2012-08-02T07:37:24Z</time>
      </trkpt>
      <trkpt lat="46.43552" lon="11.68936">
        <ele>1330.6</ele>
        <time>2012-08-02T07:38:07Z</time>
      </trkpt>
      <trkpt lat="46.43539" lon="11.68928">
        <ele>1331.56</ele>
        <time>2012-08-02T07:38:19Z</time>
      </trkpt>
      <trkpt lat="46.43537" lon="11.68933">
        <ele>1331.08</ele>
        <time>2012-08-02T07:38:35Z</time>
      </trkpt>
      <trkpt lat="46.43536" lon="11.68933">
        <ele>1331.56</ele>
        <time>2012-08-02T07:38:53Z</time>
      </trkpt>
      <trkpt lat="46.43537" lon="11.68932">
        <ele>1323.39</ele>
        <time>2012-08-02T07:39:00Z</time>
      </trkpt>
      <trkpt lat="46.43537" lon="11.68932">
        <ele>1334.45</ele>
        <time>2012-08-02T07:39:01Z</time>
      </trkpt>
      <trkpt lat="46.43536" lon="11.68932">
        <ele>1331.08</ele>
        <time>2012-08-02T07:39:02Z</time>
      </trkpt>
      <trkpt lat="46.43548" lon="11.68932">
        <ele>1331.08</ele>
        <time>2012-08-02T07:39:28Z</time>
      </trkpt>
      <trkpt lat="46.4356" lon="11.68933">
        <ele>1330.6</ele>
        <time>2012-08-02T07:39:50Z</time>
      </trkpt>
      <trkpt lat="46.43562" lon="11.68931">
        <ele>1332.52</ele>
        <time>2012-08-02T07:39:56Z</time>
      </trkpt>
      <trkpt lat="46.43551" lon="11.68938">
        <ele>1331.08</ele>
        <time>2012-08-02T07:40:24Z</time>
      </trkpt>
      <trkpt lat="46.43552" lon="11.68936">
        <ele>1331.56</ele>
        <time>2012-08-02T07:40:58Z</time>
      </trkpt>
      <trkpt lat="46.43547" lon="11.68935">
        <ele>1331.08</ele>
        <time>2012-08-02T07:41:34Z</time>
      </trkpt>
      <trkpt lat="46.43548" lon="11.68936">
        <ele>1331.56</ele>
        <time>2012-08-02T07:42:06Z</time>
      </trkpt>
      <trkpt lat="46.43547" lon="11.68934">
        <ele>1330.6</ele>
        <time>2012-08-02T07:42:37Z</time>
      </trkpt>
      <trkpt lat="46.43549" lon="11.68938">
        <ele>1331.56</ele>
        <time>2012-08-02T07:43:12Z</time>
      </trkpt>
      <trkpt lat="46.43548" lon="11.68938">
        <ele>1331.08</ele>
        <time>2012-08-02T07:43:48Z</time>
      </trkpt>
      <trkpt lat="46.43548" lon="11.68939">
        <ele>1330.6</ele>
        <time>2012-08-02T07:44:18Z</time>
      </trkpt>
      <trkpt lat="46.43549" lon="11.68939">
        <ele>1330.6</ele>
        <time>2012-08-02T07:44:51Z</time>
      </trkpt>
      <trkpt lat="46.43549" lon="11.68939">
        <ele>1330.12</ele>
        <time>2012-08-02T07:45:20Z</time>
      </trkpt>
      <trkpt lat="46.43568" lon="11.68934">
        <ele>1329.64</ele>
        <time>2012-08-02T07:55:19Z</time>
      </trkpt>
      <trkpt lat="46.43567" lon="11.68933">
        <ele>1329.16</ele>
        <time>2012-08-02T07:55:20Z</time>
      </trkpt>
      <trkpt lat="46.43563" lon="11.68935">
        <ele>1334.93</ele>
        <time>2012-08-02T07:55:26Z</time>
      </trkpt>
      <trkpt lat="46.43563" lon="11.68935">
        <ele>1331.56</ele>
        <time>2012-08-02T07:55:27Z</time>
      </trkpt>
      <trkpt lat="46.43565" lon="11.68935">
        <ele>1329.64</ele>
        <time>2012-08-02T07:55:29Z</time>
      </trkpt>
      <trkpt lat="46.43564" lon="11.68935">
        <ele>1331.56</ele>
        <time>2012-08-02T07:55:53Z</time>
      </trkpt>
      <trkpt lat="46.43564" lon="11.68934">
        <ele>1331.56</ele>
        <time>2012-08-02T07:55:59Z</time>
      </trkpt>
      <trkpt lat="46.43558" lon="11.68936">
        <ele>1334.93</ele>
        <time>2012-08-02T07:56:13Z</time>
      </trkpt>
      <trkpt lat="46.43551" lon="11.68939">
        <ele>1333.49</ele>
        <time>2012-08-02T07:56:46Z</time>
      </trkpt>
      <trkpt lat="46.43549" lon="11.68935">
        <ele>1333.01</ele>
        <time>2012-08-02T07:57:14Z</time>
      </trkpt>
      <trkpt lat="46.43549" lon="11.68937">
        <ele>1333.01</ele>
        <time>2012-08-02T07:57:39Z</time>
      </trkpt>
      <trkpt lat="46.4355" lon="11.68938">
        <ele>1333.01</ele>
        <time>2012-08-02T07:57:57Z</time>
      </trkpt>
      <trkpt lat="46.43551" lon="11.6894">
        <ele>1333.01</ele>
        <time>2012-08-02T07:58:26Z</time>
      </trkpt>
      <trkpt lat="46.43552" lon="11.6894">
        <ele>1332.52</ele>
        <time>2012-08-02T07:58:54Z</time>
      </trkpt>
      <trkpt lat="46.43547" lon="11.6894">
        <ele>1332.52</ele>
        <time>2012-08-02T08:00:00Z</time>
      </trkpt>
      <trkpt lat="46.43553" lon="11.68937">
        <ele>1332.04</ele>
        <time>2012-08-02T08:00:02Z</time>
      </trkpt>
      <trkpt lat="46.43559" lon="11.68936">
        <ele>1333.49</ele>
        <time>2012-08-02T08:00:30Z</time>
      </trkpt>
      <trkpt lat="46.43559" lon="11.68933">
        <ele>1333.97</ele>
        <time>2012-08-02T08:00:57Z</time>
      </trkpt>
      <trkpt lat="46.43551" lon="11.68936">
        <ele>1333.97</ele>
        <time>2012-08-02T08:01:20Z</time>
      </trkpt>
      <trkpt lat="46.43554" lon="11.68935">
        <ele>1333.97</ele>
        <time>2012-08-02T08:01:46Z</time>
      </trkpt>
      <trkpt lat="46.43551" lon="11.68937">
        <ele>1333.49</ele>
        <time>2012-08-02T08:02:00Z</time>
      </trkpt>
      <trkpt lat="46.43551" lon="11.68937">
        <ele>1333.97</ele>
        <time>2012-08-02T08:02:03Z</time>
      </trkpt>
      <trkpt lat="46.43544" lon="11.6893">
        <ele>1334.45</ele>
        <time>2012-08-02T08:02:07Z</time>
      </trkpt>
      <trkpt lat="46.43529" lon="11.68918">
        <ele>1333.97</ele>
        <time>2012-08-02T08:02:11Z</time>
      </trkpt>
      <trkpt lat="46.43525" lon="11.68918">
        <ele>1334.45</ele>
        <time>2012-08-02T08:02:12Z</time>
      </trkpt>
      <trkpt lat="46.43514" lon="11.68938">
        <ele>1333.49</ele>
        <time>2012-08-02T08:02:16Z</time>
      </trkpt>
      <trkpt lat="46.43506" lon="11.68953">
        <ele>1333.01</ele>
        <time>2012-08-02T08:02:24Z</time>
      </trkpt>
      <trkpt lat="46.43506" lon="11.68952">
        <ele>1333.01</ele>
        <time>2012-08-02T08:02:31Z</time>
      </trkpt>
      <trkpt lat="46.43498" lon="11.68947">
        <ele>1333.01</ele>
        <time>2012-08-02T08:02:34Z</time>
      </trkpt>
      <trkpt lat="46.43445" lon="11.68885">
        <ele>1333.49</ele>
        <time>2012-08-02T08:02:42Z</time>
      </trkpt>
      <trkpt lat="46.43355" lon="11.6877">
        <ele>1332.04</ele>
        <time>2012-08-02T08:02:54Z</time>
      </trkpt>
      <trkpt lat="46.43331" lon="11.68747">
        <ele>1330.6</ele>
        <time>2012-08-02T08:03:01Z</time>
      </trkpt>
      <trkpt lat="46.43329" lon="11.68745">
        <ele>1330.12</ele>
        <time>2012-08-02T08:03:14Z</time>
      </trkpt>
      <trkpt lat="46.43301" lon="11.68726">
        <ele>1330.6</ele>
        <time>2012-08-02T08:03:21Z</time>
      </trkpt>
      <trkpt lat="46.4321" lon="11.68663">
        <ele>1330.6</ele>
        <time>2012-08-02T08:03:32Z</time>
      </trkpt>
      <trkpt lat="46.43117" lon="11.68602">
        <ele>1328.68</ele>
        <time>2012-08-02T08:03:43Z</time>
      </trkpt>
      <trkpt lat="46.43047" lon="11.68567">
        <ele>1328.2</ele>
        <time>2012-08-02T08:03:54Z</time>
      </trkpt>
      <trkpt lat="46.43036" lon="11.68567">
        <ele>1328.2</ele>
        <time>2012-08-02T08:04:05Z</time>
      </trkpt>
      <trkpt lat="46.43029" lon="11.68565">
        <ele>1328.2</ele>
        <time>2012-08-02T08:04:07Z</time>
      </trkpt>
      <trkpt lat="46.43023" lon="11.68565">
        <ele>1329.16</ele>
        <time>2012-08-02T08:04:08Z</time>
      </trkpt>
      <trkpt lat="46.43017" lon="11.68567">
        <ele>1328.68</ele>
        <time>2012-08-02T08:04:09Z</time>
      </trkpt>
      <trkpt lat="46.42976" lon="11.6857">
        <ele>1328.2</ele>
        <time>2012-08-02T08:04:15Z</time>
      </trkpt>
      <trkpt lat="46.42969" lon="11.68568">
        <ele>1327.24</ele>
        <time>2012-08-02T08:04:16Z</time>
      </trkpt>
      <trkpt lat="46.42963" lon="11.68566">
        <ele>1327.24</ele>
        <time>2012-08-02T08:04:17Z</time>
      </trkpt>
      <trkpt lat="46.42957" lon="11.68562">
        <ele>1327.24</ele>
        <time>2012-08-02T08:04:18Z</time>
      </trkpt>
      <trkpt lat="46.4295" lon="11.68558">
        <ele>1327.24</ele>
        <time>2012-08-02T08:04:19Z</time>
      </trkpt>
      <trkpt lat="46.42874" lon="11.68494">
        <ele>1327.24</ele>
        <time>2012-08-02T08:04:29Z</time>
      </trkpt>
      <trkpt lat="46.42861" lon="11.68475">
        <ele>1326.76</ele>
        <time>2012-08-02T08:04:31Z</time>
      </trkpt>
      <trkpt lat="46.42857" lon="11.68466">
        <ele>1326.76</ele>
        <time>2012-08-02T08:04:32Z</time>
      </trkpt>
      <trkpt lat="46.42826" lon="11.68397">
        <ele>1326.28</ele>
        <time>2012-08-02T08:04:42Z</time>
      </trkpt>
      <trkpt lat="46.42817" lon="11.6838">
        <ele>1326.28</ele>
        <time>2012-08-02T08:04:52Z</time>
      </trkpt>
      <trkpt lat="46.42818" lon="11.68379">
        <ele>1325.8</ele>
        <time>2012-08-02T08:05:22Z</time>
      </trkpt>
      <trkpt lat="46.42813" lon="11.68371">
        <ele>1325.8</ele>
        <time>2012-08-02T08:05:43Z</time>
      </trkpt>
      <trkpt lat="46.42786" lon="11.68326">
        <ele>1326.28</ele>
        <time>2012-08-02T08:05:53Z</time>
      </trkpt>
      <trkpt lat="46.42772" lon="11.68305">
        <ele>1326.28</ele>
        <time>2012-08-02T08:05:57Z</time>
      </trkpt>
      <trkpt lat="46.42767" lon="11.683">
        <ele>1326.28</ele>
        <time>2012-08-02T08:05:58Z</time>
      </trkpt>
      <trkpt lat="46.42761" lon="11.68296">
        <ele>1326.76</ele>
        <time>2012-08-02T08:05:59Z</time>
      </trkpt>
      <trkpt lat="46.42755" lon="11.68292">
        <ele>1327.24</ele>
        <time>2012-08-02T08:06:00Z</time>
      </trkpt>
      <trkpt lat="46.42749" lon="11.6829">
        <ele>1327.24</ele>
        <time>2012-08-02T08:06:01Z</time>
      </trkpt>
      <trkpt lat="46.42742" lon="11.68288">
        <ele>1327.24</ele>
        <time>2012-08-02T08:06:02Z</time>
      </trkpt>
      <trkpt lat="46.42736" lon="11.68287">
        <ele>1327.24</ele>
        <time>2012-08-02T08:06:03Z</time>
      </trkpt>
      <trkpt lat="46.42729" lon="11.68287">
        <ele>1327.24</ele>
        <time>2012-08-02T08:06:04Z</time>
      </trkpt>
      <trkpt lat="46.42695" lon="11.68276">
        <ele>1327.72</ele>
        <time>2012-08-02T08:06:09Z</time>
      </trkpt>
      <trkpt lat="46.42688" lon="11.68272">
        <ele>1327.72</ele>
        <time>2012-08-02T08:06:10Z</time>
      </trkpt>
      <trkpt lat="46.4268" lon="11.68269">
        <ele>1328.2</ele>
        <time>2012-08-02T08:06:11Z</time>
      </trkpt>
      <trkpt lat="46.426" lon="11.68267">
        <ele>1331.56</ele>
        <time>2012-08-02T08:06:21Z</time>
      </trkpt>
      <trkpt lat="46.42523" lon="11.68278">
        <ele>1334.45</ele>
        <time>2012-08-02T08:06:31Z</time>
      </trkpt>
      <trkpt lat="46.42516" lon="11.68279">
        <ele>1334.93</ele>
        <time>2012-08-02T08:06:32Z</time>
      </trkpt>
      <trkpt lat="46.42467" lon="11.68278">
        <ele>1337.81</ele>
        <time>2012-08-02T08:06:37Z</time>
      </trkpt>
      <trkpt lat="46.4237" lon="11.68265">
        <ele>1339.25</ele>
        <time>2012-08-02T08:06:47Z</time>
      </trkpt>
      <trkpt lat="46.42277" lon="11.68252">
        <ele>1342.14</ele>
        <time>2012-08-02T08:06:56Z</time>
      </trkpt>
      <trkpt lat="46.42187" lon="11.68238">
        <ele>1342.14</ele>
        <time>2012-08-02T08:07:07Z</time>
      </trkpt>
      <trkpt lat="46.42173" lon="11.68235">
        <ele>1341.18</ele>
        <time>2012-08-02T08:07:16Z</time>
      </trkpt>
      <trkpt lat="46.42138" lon="11.68221">
        <ele>1342.14</ele>
        <time>2012-08-02T08:07:25Z</time>
      </trkpt>
      <trkpt lat="46.4208" lon="11.68175">
        <ele>1343.1</ele>
        <time>2012-08-02T08:07:35Z</time>
      </trkpt>
      <trkpt lat="46.42076" lon="11.6817">
        <ele>1343.1</ele>
        <time>2012-08-02T08:07:36Z</time>
      </trkpt>
      <trkpt lat="46.42075" lon="11.68165">
        <ele>1343.1</ele>
        <time>2012-08-02T08:07:37Z</time>
      </trkpt>
      <trkpt lat="46.42077" lon="11.68159">
        <ele>1343.1</ele>
        <time>2012-08-02T08:07:38Z</time>
      </trkpt>
      <trkpt lat="46.4208" lon="11.68155">
        <ele>1344.06</ele>
        <time>2012-08-02T08:07:39Z</time>
      </trkpt>
      <trkpt lat="46.42085" lon="11.68152">
        <ele>1344.06</ele>
        <time>2012-08-02T08:07:40Z</time>
      </trkpt>
      <trkpt lat="46.42089" lon="11.6815">
        <ele>1344.54</ele>
        <time>2012-08-02T08:07:41Z</time>
      </trkpt>
      <trkpt lat="46.42096" lon="11.6815">
        <ele>1345.98</ele>
        <time>2012-08-02T08:07:42Z</time>
      </trkpt>
      <trkpt lat="46.42103" lon="11.68151">
        <ele>1346.94</ele>
        <time>2012-08-02T08:07:43Z</time>
      </trkpt>
      <trkpt lat="46.4211" lon="11.68151">
        <ele>1347.43</ele>
        <time>2012-08-02T08:07:44Z</time>
      </trkpt>
      <trkpt lat="46.42119" lon="11.68151">
        <ele>1347.91</ele>
        <time>2012-08-02T08:07:45Z</time>
      </trkpt>
      <trkpt lat="46.42128" lon="11.68152">
        <ele>1348.39</ele>
        <time>2012-08-02T08:07:46Z</time>
      </trkpt>
      <trkpt lat="46.42157" lon="11.68149">
        <ele>1351.27</ele>
        <time>2012-08-02T08:07:49Z</time>
      </trkpt>
      <trkpt lat="46.42166" lon="11.68146">
        <ele>1351.27</ele>
        <time>2012-08-02T08:07:50Z</time>
      </trkpt>
      <trkpt lat="46.42175" lon="11.68142">
        <ele>1351.75</ele>
        <time>2012-08-02T08:07:51Z</time>
      </trkpt>
      <trkpt lat="46.42184" lon="11.68136">
        <ele>1352.71</ele>
        <time>2012-08-02T08:07:52Z</time>
      </trkpt>
      <trkpt lat="46.42193" lon="11.68129">
        <ele>1353.19</ele>
        <time>2012-08-02T08:07:53Z</time>
      </trkpt>
      <trkpt lat="46.42202" lon="11.68121">
        <ele>1354.63</ele>
        <time>2012-08-02T08:07:54Z</time>
      </trkpt>
      <trkpt lat="46.42244" lon="11.68082">
        <ele>1357.52</ele>
        <time>2012-08-02T08:07:59Z</time>
      </trkpt>
      <trkpt lat="46.42252" lon="11.68074">
        <ele>1358</ele>
        <time>2012-08-02T08:08:00Z</time>
      </trkpt>
      <trkpt lat="46.42296" lon="11.68031">
        <ele>1361.36</ele>
        <time>2012-08-02T08:08:06Z</time>
      </trkpt>
      <trkpt lat="46.42304" lon="11.68025">
        <ele>1361.84</ele>
        <time>2012-08-02T08:08:07Z</time>
      </trkpt>
      <trkpt lat="46.42334" lon="11.67995">
        <ele>1365.21</ele>
        <time>2012-08-02T08:08:11Z</time>
      </trkpt>
      <trkpt lat="46.42359" lon="11.67969">
        <ele>1366.65</ele>
        <time>2012-08-02T08:08:14Z</time>
      </trkpt>
      <trkpt lat="46.42374" lon="11.67948">
        <ele>1368.09</ele>
        <time>2012-08-02T08:08:16Z</time>
      </trkpt>
      <trkpt lat="46.42403" lon="11.67904">
        <ele>1370.98</ele>
        <time>2012-08-02T08:08:20Z</time>
      </trkpt>
      <trkpt lat="46.42429" lon="11.67862">
        <ele>1374.82</ele>
        <time>2012-08-02T08:08:24Z</time>
      </trkpt>
      <trkpt lat="46.42434" lon="11.6785">
        <ele>1375.78</ele>
        <time>2012-08-02T08:08:25Z</time>
      </trkpt>
      <trkpt lat="46.42436" lon="11.67838">
        <ele>1376.75</ele>
        <time>2012-08-02T08:08:26Z</time>
      </trkpt>
      <trkpt lat="46.42435" lon="11.67826">
        <ele>1377.23</ele>
        <time>2012-08-02T08:08:27Z</time>
      </trkpt>
      <trkpt lat="46.42431" lon="11.67814">
        <ele>1377.71</ele>
        <time>2012-08-02T08:08:28Z</time>
      </trkpt>
      <trkpt lat="46.42425" lon="11.67804">
        <ele>1378.67</ele>
        <time>2012-08-02T08:08:29Z</time>
      </trkpt>
      <trkpt lat="46.42417" lon="11.67797">
        <ele>1379.15</ele>
        <time>2012-08-02T08:08:30Z</time>
      </trkpt>
      <trkpt lat="46.42408" lon="11.67793">
        <ele>1380.11</ele>
        <time>2012-08-02T08:08:31Z</time>
      </trkpt>
      <trkpt lat="46.42398" lon="11.67789">
        <ele>1381.07</ele>
        <time>2012-08-02T08:08:32Z</time>
      </trkpt>
      <trkpt lat="46.42387" lon="11.67786">
        <ele>1382.51</ele>
        <time>2012-08-02T08:08:33Z</time>
      </trkpt>
      <trkpt lat="46.42354" lon="11.67776">
        <ele>1385.88</ele>
        <time>2012-08-02T08:08:36Z</time>
      </trkpt>
      <trkpt lat="46.4231" lon="11.67761">
        <ele>1389.24</ele>
        <time>2012-08-02T08:08:40Z</time>
      </trkpt>
      <trkpt lat="46.4229" lon="11.67749">
        <ele>1390.68</ele>
        <time>2012-08-02T08:08:42Z</time>
      </trkpt>
      <trkpt lat="46.42249" lon="11.67717">
        <ele>1394.53</ele>
        <time>2012-08-02T08:08:46Z</time>
      </trkpt>
      <trkpt lat="46.42223" lon="11.67691">
        <ele>1396.93</ele>
        <time>2012-08-02T08:08:49Z</time>
      </trkpt>
      <trkpt lat="46.42215" lon="11.67681">
        <ele>1396.93</ele>
        <time>2012-08-02T08:08:50Z</time>
      </trkpt>
      <trkpt lat="46.4221" lon="11.67671">
        <ele>1397.41</ele>
        <time>2012-08-02T08:08:51Z</time>
      </trkpt>
      <trkpt lat="46.42201" lon="11.67653">
        <ele>1398.37</ele>
        <time>2012-08-02T08:08:53Z</time>
      </trkpt>
      <trkpt lat="46.42194" lon="11.67646">
        <ele>1399.34</ele>
        <time>2012-08-02T08:08:54Z</time>
      </trkpt>
      <trkpt lat="46.42187" lon="11.67641">
        <ele>1399.82</ele>
        <time>2012-08-02T08:08:55Z</time>
      </trkpt>
      <trkpt lat="46.42179" lon="11.67637">
        <ele>1398.86</ele>
        <time>2012-08-02T08:08:56Z</time>
      </trkpt>
      <trkpt lat="46.4217" lon="11.67635">
        <ele>1399.34</ele>
        <time>2012-08-02T08:08:57Z</time>
      </trkpt>
      <trkpt lat="46.42162" lon="11.67634">
        <ele>1399.34</ele>
        <time>2012-08-02T08:08:58Z</time>
      </trkpt>
      <trkpt lat="46.42155" lon="11.67632">
        <ele>1398.86</ele>
        <time>2012-08-02T08:08:59Z</time>
      </trkpt>
      <trkpt lat="46.4211" lon="11.67621">
        <ele>1397.41</ele>
        <time>2012-08-02T08:09:04Z</time>
      </trkpt>
      <trkpt lat="46.42093" lon="11.67614">
        <ele>1395.97</ele>
        <time>2012-08-02T08:09:06Z</time>
      </trkpt>
      <trkpt lat="46.42085" lon="11.6761">
        <ele>1391.65</ele>
        <time>2012-08-02T08:09:07Z</time>
      </trkpt>
      <trkpt lat="46.42076" lon="11.67605">
        <ele>1395.01</ele>
        <time>2012-08-02T08:09:08Z</time>
      </trkpt>
      <trkpt lat="46.42024" lon="11.67578">
        <ele>1391.65</ele>
        <time>2012-08-02T08:09:14Z</time>
      </trkpt>
      <trkpt lat="46.41981" lon="11.67555">
        <ele>1388.28</ele>
        <time>2012-08-02T08:09:19Z</time>
      </trkpt>
      <trkpt lat="46.41938" lon="11.67531">
        <ele>1384.92</ele>
        <time>2012-08-02T08:09:24Z</time>
      </trkpt>
      <trkpt lat="46.41929" lon="11.67526">
        <ele>1384.92</ele>
        <time>2012-08-02T08:09:25Z</time>
      </trkpt>
      <trkpt lat="46.41895" lon="11.67507">
        <ele>1381.55</ele>
        <time>2012-08-02T08:09:29Z</time>
      </trkpt>
      <trkpt lat="46.41886" lon="11.67502">
        <ele>1380.59</ele>
        <time>2012-08-02T08:09:30Z</time>
      </trkpt>
      <trkpt lat="46.4188" lon="11.67498">
        <ele>1380.11</ele>
        <time>2012-08-02T08:09:31Z</time>
      </trkpt>
      <trkpt lat="46.41875" lon="11.67492">
        <ele>1379.15</ele>
        <time>2012-08-02T08:09:32Z</time>
      </trkpt>
      <trkpt lat="46.41872" lon="11.67486">
        <ele>1378.67</ele>
        <time>2012-08-02T08:09:33Z</time>
      </trkpt>
      <trkpt lat="46.41871" lon="11.67479">
        <ele>1378.19</ele>
        <time>2012-08-02T08:09:34Z</time>
      </trkpt>
      <trkpt lat="46.41866" lon="11.67465">
        <ele>1379.15</ele>
        <time>2012-08-02T08:09:36Z</time>
      </trkpt>
      <trkpt lat="46.41863" lon="11.67457">
        <ele>1380.11</ele>
        <time>2012-08-02T08:09:42Z</time>
      </trkpt>
      <trkpt lat="46.41863" lon="11.67457">
        <ele>1375.78</ele>
        <time>2012-08-02T08:09:43Z</time>
      </trkpt>
      <trkpt lat="46.41863" lon="11.67457">
        <ele>1379.63</ele>
        <time>2012-08-02T08:09:46Z</time>
      </trkpt>
      <trkpt lat="46.41865" lon="11.67457">
        <ele>1379.63</ele>
        <time>2012-08-02T08:10:13Z</time>
      </trkpt>
      <trkpt lat="46.41865" lon="11.67455">
        <ele>1379.63</ele>
        <time>2012-08-02T08:10:14Z</time>
      </trkpt>
      <trkpt lat="46.41866" lon="11.67454">
        <ele>1379.15</ele>
        <time>2012-08-02T08:10:15Z</time>
      </trkpt>
      <trkpt lat="46.41867" lon="11.67455">
        <ele>1379.15</ele>
        <time>2012-08-02T08:10:16Z</time>
      </trkpt>
      <trkpt lat="46.41868" lon="11.67457">
        <ele>1379.15</ele>
        <time>2012-08-02T08:10:17Z</time>
      </trkpt>
      <trkpt lat="46.41869" lon="11.6746">
        <ele>1379.15</ele>
        <time>2012-08-02T08:10:18Z</time>
      </trkpt>
      <trkpt lat="46.41869" lon="11.67464">
        <ele>1378.67</ele>
        <time>2012-08-02T08:10:19Z</time>
      </trkpt>
      <trkpt lat="46.4187" lon="11.67469">
        <ele>1378.67</ele>
        <time>2012-08-02T08:10:20Z</time>
      </trkpt>
      <trkpt lat="46.4187" lon="11.6748">
        <ele>1378.19</ele>
        <time>2012-08-02T08:10:23Z</time>
      </trkpt>
      <trkpt lat="46.41869" lon="11.67482">
        <ele>1377.71</ele>
        <time>2012-08-02T08:10:36Z</time>
      </trkpt>
      <trkpt lat="46.41867" lon="11.67483">
        <ele>1377.23</ele>
        <time>2012-08-02T08:10:37Z</time>
      </trkpt>
      <trkpt lat="46.41863" lon="11.67482">
        <ele>1376.75</ele>
        <time>2012-08-02T08:10:38Z</time>
      </trkpt>
      <trkpt lat="46.41833" lon="11.67467">
        <ele>1373.86</ele>
        <time>2012-08-02T08:10:43Z</time>
      </trkpt>
      <trkpt lat="46.41814" lon="11.67457">
        <ele>1371.94</ele>
        <time>2012-08-02T08:10:47Z</time>
      </trkpt>
      <trkpt lat="46.4181" lon="11.67451">
        <ele>1371.94</ele>
        <time>2012-08-02T08:10:48Z</time>
      </trkpt>
      <trkpt lat="46.41806" lon="11.67444">
        <ele>1371.94</ele>
        <time>2012-08-02T08:10:49Z</time>
      </trkpt>
      <trkpt lat="46.41803" lon="11.67436">
        <ele>1372.42</ele>
        <time>2012-08-02T08:10:50Z</time>
      </trkpt>
      <trkpt lat="46.41812" lon="11.67391">
        <ele>1373.38</ele>
        <time>2012-08-02T08:10:54Z</time>
      </trkpt>
      <trkpt lat="46.41816" lon="11.67378">
        <ele>1374.34</ele>
        <time>2012-08-02T08:10:55Z</time>
      </trkpt>
      <trkpt lat="46.41817" lon="11.67366">
        <ele>1376.26</ele>
        <time>2012-08-02T08:10:56Z</time>
      </trkpt>
      <trkpt lat="46.41817" lon="11.67353">
        <ele>1376.75</ele>
        <time>2012-08-02T08:10:57Z</time>
      </trkpt>
      <trkpt lat="46.41816" lon="11.67341">
        <ele>1377.71</ele>
        <time>2012-08-02T08:10:58Z</time>
      </trkpt>
      <trkpt lat="46.41812" lon="11.67328">
        <ele>1378.19</ele>
        <time>2012-08-02T08:10:59Z</time>
      </trkpt>
      <trkpt lat="46.41808" lon="11.67316">
        <ele>1379.63</ele>
        <time>2012-08-02T08:11:00Z</time>
      </trkpt>
      <trkpt lat="46.41802" lon="11.67305">
        <ele>1380.59</ele>
        <time>2012-08-02T08:11:01Z</time>
      </trkpt>
      <trkpt lat="46.41772" lon="11.67244">
        <ele>1384.44</ele>
        <time>2012-08-02T08:11:06Z</time>
      </trkpt>
      <trkpt lat="46.41755" lon="11.6721">
        <ele>1387.32</ele>
        <time>2012-08-02T08:11:09Z</time>
      </trkpt>
      <trkpt lat="46.41746" lon="11.67187">
        <ele>1389.24</ele>
        <time>2012-08-02T08:11:11Z</time>
      </trkpt>
      <trkpt lat="46.41736" lon="11.67148">
        <ele>1392.61</ele>
        <time>2012-08-02T08:11:14Z</time>
      </trkpt>
      <trkpt lat="46.41716" lon="11.67172">
        <ele>1394.05</ele>
        <time>2012-08-02T08:11:16Z</time>
      </trkpt>
      <trkpt lat="46.41722" lon="11.67062">
        <ele>1396.93</ele>
        <time>2012-08-02T08:11:21Z</time>
      </trkpt>
      <trkpt lat="46.41728" lon="11.67058">
        <ele>1397.41</ele>
        <time>2012-08-02T08:11:22Z</time>
      </trkpt>
      <trkpt lat="46.4174" lon="11.67061">
        <ele>1397.89</ele>
        <time>2012-08-02T08:11:23Z</time>
      </trkpt>
      <trkpt lat="46.41802" lon="11.67087">
        <ele>1399.82</ele>
        <time>2012-08-02T08:11:26Z</time>
      </trkpt>
      <trkpt lat="46.4184" lon="11.67104">
        <ele>1401.26</ele>
        <time>2012-08-02T08:11:28Z</time>
      </trkpt>
      <trkpt lat="46.41853" lon="11.67106">
        <ele>1401.26</ele>
        <time>2012-08-02T08:11:29Z</time>
      </trkpt>
      <trkpt lat="46.41864" lon="11.67104">
        <ele>1401.74</ele>
        <time>2012-08-02T08:11:30Z</time>
      </trkpt>
      <trkpt lat="46.41874" lon="11.67099">
        <ele>1403.18</ele>
        <time>2012-08-02T08:11:31Z</time>
      </trkpt>
      <trkpt lat="46.41882" lon="11.67093">
        <ele>1404.14</ele>
        <time>2012-08-02T08:11:32Z</time>
      </trkpt>
      <trkpt lat="46.4189" lon="11.67085">
        <ele>1404.62</ele>
        <time>2012-08-02T08:11:33Z</time>
      </trkpt>
      <trkpt lat="46.41896" lon="11.67076">
        <ele>1405.1</ele>
        <time>2012-08-02T08:11:34Z</time>
      </trkpt>
      <trkpt lat="46.41902" lon="11.67067">
        <ele>1406.07</ele>
        <time>2012-08-02T08:11:35Z</time>
      </trkpt>
      <trkpt lat="46.41917" lon="11.6703">
        <ele>1408.95</ele>
        <time>2012-08-02T08:11:40Z</time>
      </trkpt>
      <trkpt lat="46.41925" lon="11.67007">
        <ele>1411.83</ele>
        <time>2012-08-02T08:11:44Z</time>
      </trkpt>
      <trkpt lat="46.4194" lon="11.6697">
        <ele>1414.72</ele>
        <time>2012-08-02T08:11:47Z</time>
      </trkpt>
      <trkpt lat="46.41944" lon="11.66956">
        <ele>1414.72</ele>
        <time>2012-08-02T08:11:48Z</time>
      </trkpt>
      <trkpt lat="46.41947" lon="11.66944">
        <ele>1415.68</ele>
        <time>2012-08-02T08:11:49Z</time>
      </trkpt>
      <trkpt lat="46.41948" lon="11.66932">
        <ele>1416.16</ele>
        <time>2012-08-02T08:11:50Z</time>
      </trkpt>
      <trkpt lat="46.41946" lon="11.66921">
        <ele>1416.64</ele>
        <time>2012-08-02T08:11:51Z</time>
      </trkpt>
      <trkpt lat="46.41941" lon="11.66911">
        <ele>1417.12</ele>
        <time>2012-08-02T08:11:52Z</time>
      </trkpt>
      <trkpt lat="46.41934" lon="11.66903">
        <ele>1417.6</ele>
        <time>2012-08-02T08:11:53Z</time>
      </trkpt>
      <trkpt lat="46.41925" lon="11.66896">
        <ele>1418.08</ele>
        <time>2012-08-02T08:11:54Z</time>
      </trkpt>
      <trkpt lat="46.41885" lon="11.6687">
        <ele>1419.52</ele>
        <time>2012-08-02T08:11:58Z</time>
      </trkpt>
      <trkpt lat="46.41874" lon="11.66867">
        <ele>1419.52</ele>
        <time>2012-08-02T08:11:59Z</time>
      </trkpt>
      <trkpt lat="46.41863" lon="11.66866">
        <ele>1420</ele>
        <time>2012-08-02T08:12:00Z</time>
      </trkpt>
      <trkpt lat="46.41851" lon="11.66868">
        <ele>1420.49</ele>
        <time>2012-08-02T08:12:01Z</time>
      </trkpt>
      <trkpt lat="46.4184" lon="11.66871">
        <ele>1421.45</ele>
        <time>2012-08-02T08:12:02Z</time>
      </trkpt>
      <trkpt lat="46.41829" lon="11.66878">
        <ele>1420.97</ele>
        <time>2012-08-02T08:12:03Z</time>
      </trkpt>
      <trkpt lat="46.41818" lon="11.66888">
        <ele>1421.93</ele>
        <time>2012-08-02T08:12:04Z</time>
      </trkpt>
      <trkpt lat="46.41742" lon="11.66975">
        <ele>1423.37</ele>
        <time>2012-08-02T08:12:11Z</time>
      </trkpt>
      <trkpt lat="46.41732" lon="11.66981">
        <ele>1423.85</ele>
        <time>2012-08-02T08:12:12Z</time>
      </trkpt>
      <trkpt lat="46.41719" lon="11.66982">
        <ele>1424.33</ele>
        <time>2012-08-02T08:12:13Z</time>
      </trkpt>
      <trkpt lat="46.41706" lon="11.66981">
        <ele>1425.77</ele>
        <time>2012-08-02T08:12:14Z</time>
      </trkpt>
      <trkpt lat="46.41693" lon="11.66978">
        <ele>1426.73</ele>
        <time>2012-08-02T08:12:15Z</time>
      </trkpt>
      <trkpt lat="46.41653" lon="11.66969">
        <ele>1430.1</ele>
        <time>2012-08-02T08:12:18Z</time>
      </trkpt>
      <trkpt lat="46.41627" lon="11.66957">
        <ele>1432.02</ele>
        <time>2012-08-02T08:12:20Z</time>
      </trkpt>
      <trkpt lat="46.41616" lon="11.66948">
        <ele>1432.98</ele>
        <time>2012-08-02T08:12:21Z</time>
      </trkpt>
      <trkpt lat="46.41605" lon="11.6694">
        <ele>1432.98</ele>
        <time>2012-08-02T08:12:22Z</time>
      </trkpt>
      <trkpt lat="46.41574" lon="11.66915">
        <ele>1435.87</ele>
        <time>2012-08-02T08:12:25Z</time>
      </trkpt>
      <trkpt lat="46.41541" lon="11.6689">
        <ele>1439.71</ele>
        <time>2012-08-02T08:12:28Z</time>
      </trkpt>
      <trkpt lat="46.41497" lon="11.66853">
        <ele>1443.56</ele>
        <time>2012-08-02T08:12:32Z</time>
      </trkpt>
      <trkpt lat="46.41454" lon="11.66809">
        <ele>1447.88</ele>
        <time>2012-08-02T08:12:36Z</time>
      </trkpt>
      <trkpt lat="46.41422" lon="11.66777">
        <ele>1451.73</ele>
        <time>2012-08-02T08:12:39Z</time>
      </trkpt>
      <trkpt lat="46.41389" lon="11.66744">
        <ele>1454.61</ele>
        <time>2012-08-02T08:12:42Z</time>
      </trkpt>
      <trkpt lat="46.41356" lon="11.6671">
        <ele>1458.46</ele>
        <time>2012-08-02T08:12:45Z</time>
      </trkpt>
      <trkpt lat="46.41324" lon="11.66677">
        <ele>1461.34</ele>
        <time>2012-08-02T08:12:48Z</time>
      </trkpt>
      <trkpt lat="46.41292" lon="11.66641">
        <ele>1464.71</ele>
        <time>2012-08-02T08:12:51Z</time>
      </trkpt>
      <trkpt lat="46.41263" lon="11.66596">
        <ele>1468.07</ele>
        <time>2012-08-02T08:12:54Z</time>
      </trkpt>
      <trkpt lat="46.41236" lon="11.66546">
        <ele>1471.92</ele>
        <time>2012-08-02T08:12:57Z</time>
      </trkpt>
      <trkpt lat="46.41211" lon="11.66498">
        <ele>1475.28</ele>
        <time>2012-08-02T08:13:00Z</time>
      </trkpt>
      <trkpt lat="46.41197" lon="11.66469">
        <ele>1476.24</ele>
        <time>2012-08-02T08:13:02Z</time>
      </trkpt>
      <trkpt lat="46.41194" lon="11.66453">
        <ele>1477.2</ele>
        <time>2012-08-02T08:13:03Z</time>
      </trkpt>
      <trkpt lat="46.41194" lon="11.66436">
        <ele>1478.65</ele>
        <time>2012-08-02T08:13:04Z</time>
      </trkpt>
      <trkpt lat="46.41198" lon="11.6642">
        <ele>1479.61</ele>
        <time>2012-08-02T08:13:05Z</time>
      </trkpt>
      <trkpt lat="46.41205" lon="11.66405">
        <ele>1481.05</ele>
        <time>2012-08-02T08:13:06Z</time>
      </trkpt>
      <trkpt lat="46.41214" lon="11.66391">
        <ele>1482.49</ele>
        <time>2012-08-02T08:13:07Z</time>
      </trkpt>
      <trkpt lat="46.41235" lon="11.66358">
        <ele>1483.93</ele>
        <time>2012-08-02T08:13:10Z</time>
      </trkpt>
      <trkpt lat="46.41257" lon="11.66316">
        <ele>1487.78</ele>
        <time>2012-08-02T08:13:14Z</time>
      </trkpt>
      <trkpt lat="46.41262" lon="11.66302">
        <ele>1488.74</ele>
        <time>2012-08-02T08:13:15Z</time>
      </trkpt>
      <trkpt lat="46.41266" lon="11.66287">
        <ele>1490.18</ele>
        <time>2012-08-02T08:13:16Z</time>
      </trkpt>
      <trkpt lat="46.41269" lon="11.6627">
        <ele>1491.14</ele>
        <time>2012-08-02T08:13:17Z</time>
      </trkpt>
      <trkpt lat="46.41271" lon="11.66253">
        <ele>1492.1</ele>
        <time>2012-08-02T08:13:18Z</time>
      </trkpt>
      <trkpt lat="46.4127" lon="11.66235">
        <ele>1493.55</ele>
        <time>2012-08-02T08:13:19Z</time>
      </trkpt>
      <trkpt lat="46.41268" lon="11.66217">
        <ele>1494.51</ele>
        <time>2012-08-02T08:13:20Z</time>
      </trkpt>
      <trkpt lat="46.41264" lon="11.66198">
        <ele>1495.95</ele>
        <time>2012-08-02T08:13:21Z</time>
      </trkpt>
      <trkpt lat="46.41255" lon="11.66142">
        <ele>1499.31</ele>
        <time>2012-08-02T08:13:24Z</time>
      </trkpt>
      <trkpt lat="46.41247" lon="11.66106">
        <ele>1501.24</ele>
        <time>2012-08-02T08:13:26Z</time>
      </trkpt>
      <trkpt lat="46.4124" lon="11.6609">
        <ele>1502.2</ele>
        <time>2012-08-02T08:13:27Z</time>
      </trkpt>
      <trkpt lat="46.41233" lon="11.66075">
        <ele>1503.64</ele>
        <time>2012-08-02T08:13:28Z</time>
      </trkpt>
      <trkpt lat="46.41223" lon="11.66061">
        <ele>1504.6</ele>
        <time>2012-08-02T08:13:29Z</time>
      </trkpt>
      <trkpt lat="46.41213" lon="11.66049">
        <ele>1506.04</ele>
        <time>2012-08-02T08:13:30Z</time>
      </trkpt>
      <trkpt lat="46.41203" lon="11.66038">
        <ele>1506.52</ele>
        <time>2012-08-02T08:13:31Z</time>
      </trkpt>
      <trkpt lat="46.41155" lon="11.65989">
        <ele>1508.45</ele>
        <time>2012-08-02T08:13:36Z</time>
      </trkpt>
      <trkpt lat="46.4115" lon="11.65978">
        <ele>1509.41</ele>
        <time>2012-08-02T08:13:37Z</time>
      </trkpt>
      <trkpt lat="46.41146" lon="11.65965">
        <ele>1509.89</ele>
        <time>2012-08-02T08:13:38Z</time>
      </trkpt>
      <trkpt lat="46.41146" lon="11.65953">
        <ele>1510.37</ele>
        <time>2012-08-02T08:13:39Z</time>
      </trkpt>
      <trkpt lat="46.41149" lon="11.65941">
        <ele>1511.81</ele>
        <time>2012-08-02T08:13:40Z</time>
      </trkpt>
      <trkpt lat="46.41155" lon="11.65929">
        <ele>1513.25</ele>
        <time>2012-08-02T08:13:41Z</time>
      </trkpt>
      <trkpt lat="46.41163" lon="11.65918">
        <ele>1513.73</ele>
        <time>2012-08-02T08:13:42Z</time>
      </trkpt>
      <trkpt lat="46.41171" lon="11.65908">
        <ele>1514.69</ele>
        <time>2012-08-02T08:13:43Z</time>
      </trkpt>
      <trkpt lat="46.41177" lon="11.65897">
        <ele>1514.69</ele>
        <time>2012-08-02T08:13:44Z</time>
      </trkpt>
      <trkpt lat="46.41181" lon="11.65886">
        <ele>1516.14</ele>
        <time>2012-08-02T08:13:45Z</time>
      </trkpt>
      <trkpt lat="46.41181" lon="11.65874">
        <ele>1516.62</ele>
        <time>2012-08-02T08:13:46Z</time>
      </trkpt>
      <trkpt lat="46.41176" lon="11.65862">
        <ele>1518.06</ele>
        <time>2012-08-02T08:13:47Z</time>
      </trkpt>
      <trkpt lat="46.41169" lon="11.65851">
        <ele>1519.02</ele>
        <time>2012-08-02T08:13:48Z</time>
      </trkpt>
      <trkpt lat="46.41162" lon="11.65838">
        <ele>1519.5</ele>
        <time>2012-08-02T08:13:49Z</time>
      </trkpt>
      <trkpt lat="46.41158" lon="11.65826">
        <ele>1520.46</ele>
        <time>2012-08-02T08:13:50Z</time>
      </trkpt>
      <trkpt lat="46.41159" lon="11.65813">
        <ele>1520.94</ele>
        <time>2012-08-02T08:13:51Z</time>
      </trkpt>
      <trkpt lat="46.41163" lon="11.65801">
        <ele>1521.42</ele>
        <time>2012-08-02T08:13:52Z</time>
      </trkpt>
      <trkpt lat="46.41169" lon="11.65789">
        <ele>1522.87</ele>
        <time>2012-08-02T08:13:53Z</time>
      </trkpt>
      <trkpt lat="46.41177" lon="11.65777">
        <ele>1524.31</ele>
        <time>2012-08-02T08:13:54Z</time>
      </trkpt>
      <trkpt lat="46.41186" lon="11.65766">
        <ele>1525.27</ele>
        <time>2012-08-02T08:13:55Z</time>
      </trkpt>
      <trkpt lat="46.41211" lon="11.65726">
        <ele>1529.59</ele>
        <time>2012-08-02T08:13:58Z</time>
      </trkpt>
      <trkpt lat="46.41218" lon="11.65709">
        <ele>1530.56</ele>
        <time>2012-08-02T08:13:59Z</time>
      </trkpt>
      <trkpt lat="46.41223" lon="11.65691">
        <ele>1532.96</ele>
        <time>2012-08-02T08:14:00Z</time>
      </trkpt>
      <trkpt lat="46.41226" lon="11.65671">
        <ele>1533.44</ele>
        <time>2012-08-02T08:14:01Z</time>
      </trkpt>
      <trkpt lat="46.41228" lon="11.65652">
        <ele>1534.4</ele>
        <time>2012-08-02T08:14:02Z</time>
      </trkpt>
      <trkpt lat="46.41233" lon="11.65617">
        <ele>1535.84</ele>
        <time>2012-08-02T08:14:04Z</time>
      </trkpt>
      <trkpt lat="46.41239" lon="11.65602">
        <ele>1536.32</ele>
        <time>2012-08-02T08:14:05Z</time>
      </trkpt>
      <trkpt lat="46.41246" lon="11.65588">
        <ele>1538.25</ele>
        <time>2012-08-02T08:14:06Z</time>
      </trkpt>
      <trkpt lat="46.41262" lon="11.65565">
        <ele>1540.17</ele>
        <time>2012-08-02T08:14:08Z</time>
      </trkpt>
      <trkpt lat="46.41268" lon="11.65553">
        <ele>1540.65</ele>
        <time>2012-08-02T08:14:09Z</time>
      </trkpt>
      <trkpt lat="46.41271" lon="11.65539">
        <ele>1541.61</ele>
        <time>2012-08-02T08:14:10Z</time>
      </trkpt>
      <trkpt lat="46.41272" lon="11.65523">
        <ele>1541.61</ele>
        <time>2012-08-02T08:14:11Z</time>
      </trkpt>
      <trkpt lat="46.41268" lon="11.65506">
        <ele>1544.5</ele>
        <time>2012-08-02T08:14:12Z</time>
      </trkpt>
      <trkpt lat="46.41263" lon="11.6549">
        <ele>1545.46</ele>
        <time>2012-08-02T08:14:13Z</time>
      </trkpt>
      <trkpt lat="46.41258" lon="11.65476">
        <ele>1545.46</ele>
        <time>2012-08-02T08:14:14Z</time>
      </trkpt>
      <trkpt lat="46.4125" lon="11.6545">
        <ele>1546.42</ele>
        <time>2012-08-02T08:14:16Z</time>
      </trkpt>
      <trkpt lat="46.4125" lon="11.65438">
        <ele>1547.38</ele>
        <time>2012-08-02T08:14:17Z</time>
      </trkpt>
      <trkpt lat="46.41253" lon="11.65427">
        <ele>1548.34</ele>
        <time>2012-08-02T08:14:18Z</time>
      </trkpt>
      <trkpt lat="46.41258" lon="11.65418">
        <ele>1549.3</ele>
        <time>2012-08-02T08:14:19Z</time>
      </trkpt>
      <trkpt lat="46.41264" lon="11.6541">
        <ele>1550.26</ele>
        <time>2012-08-02T08:14:20Z</time>
      </trkpt>
      <trkpt lat="46.41272" lon="11.65404">
        <ele>1551.22</ele>
        <time>2012-08-02T08:14:21Z</time>
      </trkpt>
      <trkpt lat="46.41284" lon="11.65393">
        <ele>1552.19</ele>
        <time>2012-08-02T08:14:23Z</time>
      </trkpt>
      <trkpt lat="46.41289" lon="11.65387">
        <ele>1553.15</ele>
        <time>2012-08-02T08:14:24Z</time>
      </trkpt>
      <trkpt lat="46.41292" lon="11.65381">
        <ele>1553.63</ele>
        <time>2012-08-02T08:14:25Z</time>
      </trkpt>
      <trkpt lat="46.41292" lon="11.65372">
        <ele>1554.11</ele>
        <time>2012-08-02T08:14:26Z</time>
      </trkpt>
      <trkpt lat="46.41288" lon="11.65362">
        <ele>1554.59</ele>
        <time>2012-08-02T08:14:27Z</time>
      </trkpt>
      <trkpt lat="46.41282" lon="11.65355">
        <ele>1555.07</ele>
        <time>2012-08-02T08:14:28Z</time>
      </trkpt>
      <trkpt lat="46.41274" lon="11.65351">
        <ele>1555.55</ele>
        <time>2012-08-02T08:14:29Z</time>
      </trkpt>
      <trkpt lat="46.41265" lon="11.65346">
        <ele>1556.99</ele>
        <time>2012-08-02T08:14:30Z</time>
      </trkpt>
      <trkpt lat="46.41214" lon="11.65321">
        <ele>1560.84</ele>
        <time>2012-08-02T08:14:35Z</time>
      </trkpt>
      <trkpt lat="46.41205" lon="11.65315">
        <ele>1561.32</ele>
        <time>2012-08-02T08:14:36Z</time>
      </trkpt>
      <trkpt lat="46.41198" lon="11.65308">
        <ele>1561.8</ele>
        <time>2012-08-02T08:14:37Z</time>
      </trkpt>
      <trkpt lat="46.41192" lon="11.653">
        <ele>1562.28</ele>
        <time>2012-08-02T08:14:38Z</time>
      </trkpt>
      <trkpt lat="46.4119" lon="11.6529">
        <ele>1563.24</ele>
        <time>2012-08-02T08:14:39Z</time>
      </trkpt>
      <trkpt lat="46.41189" lon="11.6528">
        <ele>1563.72</ele>
        <time>2012-08-02T08:14:40Z</time>
      </trkpt>
      <trkpt lat="46.4119" lon="11.6527">
        <ele>1564.68</ele>
        <time>2012-08-02T08:14:41Z</time>
      </trkpt>
      <trkpt lat="46.41192" lon="11.65259">
        <ele>1565.16</ele>
        <time>2012-08-02T08:14:42Z</time>
      </trkpt>
      <trkpt lat="46.412" lon="11.65221">
        <ele>1568.53</ele>
        <time>2012-08-02T08:14:45Z</time>
      </trkpt>
      <trkpt lat="46.41201" lon="11.65208">
        <ele>1569.49</ele>
        <time>2012-08-02T08:14:46Z</time>
      </trkpt>
      <trkpt lat="46.41201" lon="11.65196">
        <ele>1569.97</ele>
        <time>2012-08-02T08:14:47Z</time>
      </trkpt>
      <trkpt lat="46.41198" lon="11.65185">
        <ele>1569.97</ele>
        <time>2012-08-02T08:14:48Z</time>
      </trkpt>
      <trkpt lat="46.41194" lon="11.65176">
        <ele>1570.45</ele>
        <time>2012-08-02T08:14:49Z</time>
      </trkpt>
      <trkpt lat="46.41188" lon="11.65169">
        <ele>1570.93</ele>
        <time>2012-08-02T08:14:50Z</time>
      </trkpt>
      <trkpt lat="46.4118" lon="11.65166">
        <ele>1571.41</ele>
        <time>2012-08-02T08:14:51Z</time>
      </trkpt>
      <trkpt lat="46.41172" lon="11.65168">
        <ele>1571.89</ele>
        <time>2012-08-02T08:14:52Z</time>
      </trkpt>
      <trkpt lat="46.41164" lon="11.65176">
        <ele>1571.89</ele>
        <time>2012-08-02T08:14:53Z</time>
      </trkpt>
      <trkpt lat="46.41156" lon="11.65188">
        <ele>1574.3</ele>
        <time>2012-08-02T08:14:54Z</time>
      </trkpt>
      <trkpt lat="46.41136" lon="11.65216">
        <ele>1577.66</ele>
        <time>2012-08-02T08:14:56Z</time>
      </trkpt>
      <trkpt lat="46.41088" lon="11.6528">
        <ele>1582.47</ele>
        <time>2012-08-02T08:15:01Z</time>
      </trkpt>
      <trkpt lat="46.41061" lon="11.65305">
        <ele>1586.31</ele>
        <time>2012-08-02T08:15:03Z</time>
      </trkpt>
      <trkpt lat="46.41032" lon="11.65332">
        <ele>1589.68</ele>
        <time>2012-08-02T08:15:05Z</time>
      </trkpt>
      <trkpt lat="46.41006" lon="11.65351">
        <ele>1590.64</ele>
        <time>2012-08-02T08:15:07Z</time>
      </trkpt>
      <trkpt lat="46.40995" lon="11.65353">
        <ele>1591.12</ele>
        <time>2012-08-02T08:15:08Z</time>
      </trkpt>
      <trkpt lat="46.40983" lon="11.65351">
        <ele>1592.56</ele>
        <time>2012-08-02T08:15:09Z</time>
      </trkpt>
      <trkpt lat="46.40956" lon="11.65337">
        <ele>1595.93</ele>
        <time>2012-08-02T08:15:11Z</time>
      </trkpt>
      <trkpt lat="46.40915" lon="11.65309">
        <ele>1599.29</ele>
        <time>2012-08-02T08:15:14Z</time>
      </trkpt>
      <trkpt lat="46.40903" lon="11.65298">
        <ele>1600.25</ele>
        <time>2012-08-02T08:15:15Z</time>
      </trkpt>
      <trkpt lat="46.40892" lon="11.65284">
        <ele>1602.17</ele>
        <time>2012-08-02T08:15:16Z</time>
      </trkpt>
      <trkpt lat="46.40881" lon="11.65268">
        <ele>1603.62</ele>
        <time>2012-08-02T08:15:17Z</time>
      </trkpt>
      <trkpt lat="46.40854" lon="11.65213">
        <ele>1607.46</ele>
        <time>2012-08-02T08:15:20Z</time>
      </trkpt>
      <trkpt lat="46.40835" lon="11.65176">
        <ele>1610.83</ele>
        <time>2012-08-02T08:15:22Z</time>
      </trkpt>
      <trkpt lat="46.40819" lon="11.65146">
        <ele>1611.31</ele>
        <time>2012-08-02T08:15:24Z</time>
      </trkpt>
      <trkpt lat="46.40809" lon="11.6512">
        <ele>1611.79</ele>
        <time>2012-08-02T08:15:26Z</time>
      </trkpt>
      <trkpt lat="46.40808" lon="11.65106">
        <ele>1611.79</ele>
        <time>2012-08-02T08:15:27Z</time>
      </trkpt>
      <trkpt lat="46.4081" lon="11.65091">
        <ele>1613.23</ele>
        <time>2012-08-02T08:15:28Z</time>
      </trkpt>
      <trkpt lat="46.40815" lon="11.65075">
        <ele>1614.19</ele>
        <time>2012-08-02T08:15:29Z</time>
      </trkpt>
      <trkpt lat="46.4082" lon="11.65059">
        <ele>1615.15</ele>
        <time>2012-08-02T08:15:30Z</time>
      </trkpt>
      <trkpt lat="46.40827" lon="11.65031">
        <ele>1616.59</ele>
        <time>2012-08-02T08:15:32Z</time>
      </trkpt>
      <trkpt lat="46.40827" lon="11.65019">
        <ele>1616.59</ele>
        <time>2012-08-02T08:15:33Z</time>
      </trkpt>
      <trkpt lat="46.40822" lon="11.65008">
        <ele>1617.56</ele>
        <time>2012-08-02T08:15:34Z</time>
      </trkpt>
      <trkpt lat="46.40814" lon="11.65">
        <ele>1618.52</ele>
        <time>2012-08-02T08:15:35Z</time>
      </trkpt>
      <trkpt lat="46.40804" lon="11.64992">
        <ele>1619.96</ele>
        <time>2012-08-02T08:15:36Z</time>
      </trkpt>
      <trkpt lat="46.40792" lon="11.64985">
        <ele>1621.4</ele>
        <time>2012-08-02T08:15:37Z</time>
      </trkpt>
      <trkpt lat="46.40755" lon="11.64965">
        <ele>1623.8</ele>
        <time>2012-08-02T08:15:40Z</time>
      </trkpt>
      <trkpt lat="46.40744" lon="11.64961">
        <ele>1624.28</ele>
        <time>2012-08-02T08:15:41Z</time>
      </trkpt>
      <trkpt lat="46.40734" lon="11.64961">
        <ele>1624.77</ele>
        <time>2012-08-02T08:15:42Z</time>
      </trkpt>
      <trkpt lat="46.40725" lon="11.64965">
        <ele>1626.21</ele>
        <time>2012-08-02T08:15:43Z</time>
      </trkpt>
      <trkpt lat="46.40715" lon="11.64974">
        <ele>1627.65</ele>
        <time>2012-08-02T08:15:44Z</time>
      </trkpt>
      <trkpt lat="46.40707" lon="11.64987">
        <ele>1629.09</ele>
        <time>2012-08-02T08:15:45Z</time>
      </trkpt>
      <trkpt lat="46.40683" lon="11.65024">
        <ele>1631.01</ele>
        <time>2012-08-02T08:15:48Z</time>
      </trkpt>
      <trkpt lat="46.40674" lon="11.65032">
        <ele>1631.98</ele>
        <time>2012-08-02T08:15:49Z</time>
      </trkpt>
      <trkpt lat="46.40663" lon="11.65035">
        <ele>1632.94</ele>
        <time>2012-08-02T08:15:50Z</time>
      </trkpt>
      <trkpt lat="46.40652" lon="11.65034">
        <ele>1633.9</ele>
        <time>2012-08-02T08:15:51Z</time>
      </trkpt>
      <trkpt lat="46.40641" lon="11.65027">
        <ele>1634.86</ele>
        <time>2012-08-02T08:15:52Z</time>
      </trkpt>
      <trkpt lat="46.40631" lon="11.65019">
        <ele>1635.82</ele>
        <time>2012-08-02T08:15:53Z</time>
      </trkpt>
      <trkpt lat="46.406" lon="11.64992">
        <ele>1638.22</ele>
        <time>2012-08-02T08:15:56Z</time>
      </trkpt>
      <trkpt lat="46.40592" lon="11.64981">
        <ele>1639.67</ele>
        <time>2012-08-02T08:15:57Z</time>
      </trkpt>
      <trkpt lat="46.40586" lon="11.64967">
        <ele>1640.63</ele>
        <time>2012-08-02T08:15:58Z</time>
      </trkpt>
      <trkpt lat="46.40582" lon="11.64951">
        <ele>1641.59</ele>
        <time>2012-08-02T08:15:59Z</time>
      </trkpt>
      <trkpt lat="46.4058" lon="11.64933">
        <ele>1643.03</ele>
        <time>2012-08-02T08:16:00Z</time>
      </trkpt>
      <trkpt lat="46.40578" lon="11.64914">
        <ele>1643.99</ele>
        <time>2012-08-02T08:16:01Z</time>
      </trkpt>
      <trkpt lat="46.40573" lon="11.64853">
        <ele>1647.36</ele>
        <time>2012-08-02T08:16:04Z</time>
      </trkpt>
      <trkpt lat="46.40567" lon="11.64792">
        <ele>1650.72</ele>
        <time>2012-08-02T08:16:07Z</time>
      </trkpt>
      <trkpt lat="46.40568" lon="11.64772">
        <ele>1651.2</ele>
        <time>2012-08-02T08:16:08Z</time>
      </trkpt>
      <trkpt lat="46.40573" lon="11.64754">
        <ele>1652.16</ele>
        <time>2012-08-02T08:16:09Z</time>
      </trkpt>
      <trkpt lat="46.4058" lon="11.64738">
        <ele>1653.12</ele>
        <time>2012-08-02T08:16:10Z</time>
      </trkpt>
      <trkpt lat="46.40589" lon="11.64725">
        <ele>1654.09</ele>
        <time>2012-08-02T08:16:11Z</time>
      </trkpt>
      <trkpt lat="46.40641" lon="11.64141">
        <ele>1729.07</ele>
        <time>2012-08-02T08:20:53Z</time>
      </trkpt>
      <trkpt lat="46.4064" lon="11.64141">
        <ele>1728.59</ele>
        <time>2012-08-02T08:20:54Z</time>
      </trkpt>
      <trkpt lat="46.40646" lon="11.6414">
        <ele>1728.59</ele>
        <time>2012-08-02T08:21:06Z</time>
      </trkpt>
      <trkpt lat="46.40667" lon="11.64139">
        <ele>1730.03</ele>
        <time>2012-08-02T08:21:12Z</time>
      </trkpt>
      <trkpt lat="46.40674" lon="11.64143">
        <ele>1730.99</ele>
        <time>2012-08-02T08:21:13Z</time>
      </trkpt>
      <trkpt lat="46.40684" lon="11.64147">
        <ele>1731.95</ele>
        <time>2012-08-02T08:21:14Z</time>
      </trkpt>
      <trkpt lat="46.40694" lon="11.64152">
        <ele>1732.91</ele>
        <time>2012-08-02T08:21:15Z</time>
      </trkpt>
      <trkpt lat="46.40713" lon="11.64156">
        <ele>1733.39</ele>
        <time>2012-08-02T08:21:17Z</time>
      </trkpt>
      <trkpt lat="46.40722" lon="11.64153">
        <ele>1733.39</ele>
        <time>2012-08-02T08:21:18Z</time>
      </trkpt>
      <trkpt lat="46.4073" lon="11.64145">
        <ele>1733.39</ele>
        <time>2012-08-02T08:21:19Z</time>
      </trkpt>
      <trkpt lat="46.40734" lon="11.64135">
        <ele>1734.36</ele>
        <time>2012-08-02T08:21:20Z</time>
      </trkpt>
      <trkpt lat="46.40736" lon="11.64122">
        <ele>1734.84</ele>
        <time>2012-08-02T08:21:21Z</time>
      </trkpt>
      <trkpt lat="46.40735" lon="11.64108">
        <ele>1734.84</ele>
        <time>2012-08-02T08:21:22Z</time>
      </trkpt>
      <trkpt lat="46.40732" lon="11.64093">
        <ele>1736.28</ele>
        <time>2012-08-02T08:21:23Z</time>
      </trkpt>
      <trkpt lat="46.40721" lon="11.64009">
        <ele>1737.24</ele>
        <time>2012-08-02T08:21:28Z</time>
      </trkpt>
      <trkpt lat="46.40723" lon="11.63991">
        <ele>1737.72</ele>
        <time>2012-08-02T08:21:29Z</time>
      </trkpt>
      <trkpt lat="46.40728" lon="11.63974">
        <ele>1738.2</ele>
        <time>2012-08-02T08:21:30Z</time>
      </trkpt>
      <trkpt lat="46.40736" lon="11.63957">
        <ele>1738.68</ele>
        <time>2012-08-02T08:21:31Z</time>
      </trkpt>
      <trkpt lat="46.40745" lon="11.6394">
        <ele>1739.64</ele>
        <time>2012-08-02T08:21:32Z</time>
      </trkpt>
      <trkpt lat="46.40754" lon="11.63924">
        <ele>1735.8</ele>
        <time>2012-08-02T08:21:33Z</time>
      </trkpt>
      <trkpt lat="46.40763" lon="11.63908">
        <ele>1740.12</ele>
        <time>2012-08-02T08:21:34Z</time>
      </trkpt>
      <trkpt lat="46.40783" lon="11.63859">
        <ele>1739.16</ele>
        <time>2012-08-02T08:21:37Z</time>
      </trkpt>
      <trkpt lat="46.40785" lon="11.63841">
        <ele>1738.68</ele>
        <time>2012-08-02T08:21:38Z</time>
      </trkpt>
      <trkpt lat="46.40786" lon="11.63821">
        <ele>1738.68</ele>
        <time>2012-08-02T08:21:39Z</time>
      </trkpt>
      <trkpt lat="46.40784" lon="11.63804">
        <ele>1738.2</ele>
        <time>2012-08-02T08:21:40Z</time>
      </trkpt>
      <trkpt lat="46.4078" lon="11.63789">
        <ele>1738.68</ele>
        <time>2012-08-02T08:21:41Z</time>
      </trkpt>
      <trkpt lat="46.40774" lon="11.63776">
        <ele>1738.68</ele>
        <time>2012-08-02T08:21:42Z</time>
      </trkpt>
      <trkpt lat="46.40766" lon="11.63766">
        <ele>1739.64</ele>
        <time>2012-08-02T08:21:43Z</time>
      </trkpt>
      <trkpt lat="46.40754" lon="11.63759">
        <ele>1740.6</ele>
        <time>2012-08-02T08:21:44Z</time>
      </trkpt>
      <trkpt lat="46.40739" lon="11.63756">
        <ele>1741.08</ele>
        <time>2012-08-02T08:21:45Z</time>
      </trkpt>
      <trkpt lat="46.40693" lon="11.6375">
        <ele>1742.05</ele>
        <time>2012-08-02T08:21:48Z</time>
      </trkpt>
      <trkpt lat="46.40681" lon="11.63745">
        <ele>1740.6</ele>
        <time>2012-08-02T08:21:49Z</time>
      </trkpt>
      <trkpt lat="46.40672" lon="11.63736">
        <ele>1740.12</ele>
        <time>2012-08-02T08:21:50Z</time>
      </trkpt>
      <trkpt lat="46.40666" lon="11.63723">
        <ele>1739.64</ele>
        <time>2012-08-02T08:21:51Z</time>
      </trkpt>
      <trkpt lat="46.40664" lon="11.63707">
        <ele>1740.12</ele>
        <time>2012-08-02T08:21:52Z</time>
      </trkpt>
      <trkpt lat="46.40668" lon="11.63691">
        <ele>1740.6</ele>
        <time>2012-08-02T08:21:53Z</time>
      </trkpt>
      <trkpt lat="46.40674" lon="11.63675">
        <ele>1741.57</ele>
        <time>2012-08-02T08:21:54Z</time>
      </trkpt>
      <trkpt lat="46.40684" lon="11.63644">
        <ele>1740.6</ele>
        <time>2012-08-02T08:21:56Z</time>
      </trkpt>
      <trkpt lat="46.40685" lon="11.6363">
        <ele>1739.64</ele>
        <time>2012-08-02T08:21:57Z</time>
      </trkpt>
      <trkpt lat="46.40682" lon="11.63616">
        <ele>1740.12</ele>
        <time>2012-08-02T08:21:58Z</time>
      </trkpt>
      <trkpt lat="46.40675" lon="11.63605">
        <ele>1740.6</ele>
        <time>2012-08-02T08:21:59Z</time>
      </trkpt>
      <trkpt lat="46.40665" lon="11.63597">
        <ele>1741.57</ele>
        <time>2012-08-02T08:22:00Z</time>
      </trkpt>
      <trkpt lat="46.40653" lon="11.63591">
        <ele>1742.05</ele>
        <time>2012-08-02T08:22:01Z</time>
      </trkpt>
      <trkpt lat="46.4064" lon="11.63588">
        <ele>1742.05</ele>
        <time>2012-08-02T08:22:02Z</time>
      </trkpt>
      <trkpt lat="46.40625" lon="11.63585">
        <ele>1742.05</ele>
        <time>2012-08-02T08:22:03Z</time>
      </trkpt>
      <trkpt lat="46.40594" lon="11.63582">
        <ele>1743.01</ele>
        <time>2012-08-02T08:22:05Z</time>
      </trkpt>
      <trkpt lat="46.40578" lon="11.63584">
        <ele>1743.97</ele>
        <time>2012-08-02T08:22:06Z</time>
      </trkpt>
      <trkpt lat="46.40562" lon="11.6359">
        <ele>1743.97</ele>
        <time>2012-08-02T08:22:07Z</time>
      </trkpt>
      <trkpt lat="46.40505" lon="11.63617">
        <ele>1742.05</ele>
        <time>2012-08-02T08:22:11Z</time>
      </trkpt>
      <trkpt lat="46.40492" lon="11.63616">
        <ele>1742.05</ele>
        <time>2012-08-02T08:22:12Z</time>
      </trkpt>
      <trkpt lat="46.404" lon="11.63571">
        <ele>1744.93</ele>
        <time>2012-08-02T08:22:18Z</time>
      </trkpt>
      <trkpt lat="46.40363" lon="11.6355">
        <ele>1742.05</ele>
        <time>2012-08-02T08:22:21Z</time>
      </trkpt>
      <trkpt lat="46.40354" lon="11.63539">
        <ele>1742.53</ele>
        <time>2012-08-02T08:22:22Z</time>
      </trkpt>
      <trkpt lat="46.40346" lon="11.63525">
        <ele>1743.01</ele>
        <time>2012-08-02T08:22:23Z</time>
      </trkpt>
      <trkpt lat="46.4034" lon="11.63509">
        <ele>1743.01</ele>
        <time>2012-08-02T08:22:24Z</time>
      </trkpt>
      <trkpt lat="46.40336" lon="11.63492">
        <ele>1743.49</ele>
        <time>2012-08-02T08:22:25Z</time>
      </trkpt>
      <trkpt lat="46.40335" lon="11.63474">
        <ele>1743.01</ele>
        <time>2012-08-02T08:22:26Z</time>
      </trkpt>
      <trkpt lat="46.40335" lon="11.63455">
        <ele>1743.01</ele>
        <time>2012-08-02T08:22:27Z</time>
      </trkpt>
      <trkpt lat="46.40337" lon="11.63437">
        <ele>1742.53</ele>
        <time>2012-08-02T08:22:28Z</time>
      </trkpt>
      <trkpt lat="46.4034" lon="11.6342">
        <ele>1742.53</ele>
        <time>2012-08-02T08:22:29Z</time>
      </trkpt>
      <trkpt lat="46.40347" lon="11.63355">
        <ele>1743.01</ele>
        <time>2012-08-02T08:22:33Z</time>
      </trkpt>
      <trkpt lat="46.40347" lon="11.63339">
        <ele>1743.01</ele>
        <time>2012-08-02T08:22:34Z</time>
      </trkpt>
      <trkpt lat="46.40345" lon="11.63324">
        <ele>1743.49</ele>
        <time>2012-08-02T08:22:35Z</time>
      </trkpt>
      <trkpt lat="46.40341" lon="11.6331">
        <ele>1743.01</ele>
        <time>2012-08-02T08:22:36Z</time>
      </trkpt>
      <trkpt lat="46.40335" lon="11.63296">
        <ele>1743.49</ele>
        <time>2012-08-02T08:22:37Z</time>
      </trkpt>
      <trkpt lat="46.40328" lon="11.63284">
        <ele>1743.49</ele>
        <time>2012-08-02T08:22:38Z</time>
      </trkpt>
      <trkpt lat="46.40318" lon="11.63271">
        <ele>1745.41</ele>
        <time>2012-08-02T08:22:39Z</time>
      </trkpt>
      <trkpt lat="46.40307" lon="11.63258">
        <ele>1746.85</ele>
        <time>2012-08-02T08:22:40Z</time>
      </trkpt>
      <trkpt lat="46.40296" lon="11.63241">
        <ele>1747.33</ele>
        <time>2012-08-02T08:22:41Z</time>
      </trkpt>
      <trkpt lat="46.40224" lon="11.63129">
        <ele>1748.29</ele>
        <time>2012-08-02T08:22:47Z</time>
      </trkpt>
      <trkpt lat="46.40216" lon="11.63109">
        <ele>1748.29</ele>
        <time>2012-08-02T08:22:48Z</time>
      </trkpt>
      <trkpt lat="46.4021" lon="11.63088">
        <ele>1748.78</ele>
        <time>2012-08-02T08:22:49Z</time>
      </trkpt>
      <trkpt lat="46.40207" lon="11.63068">
        <ele>1748.78</ele>
        <time>2012-08-02T08:22:50Z</time>
      </trkpt>
      <trkpt lat="46.40206" lon="11.63048">
        <ele>1748.78</ele>
        <time>2012-08-02T08:22:51Z</time>
      </trkpt>
      <trkpt lat="46.40206" lon="11.63029">
        <ele>1747.33</ele>
        <time>2012-08-02T08:22:52Z</time>
      </trkpt>
      <trkpt lat="46.40208" lon="11.6301">
        <ele>1748.29</ele>
        <time>2012-08-02T08:22:53Z</time>
      </trkpt>
      <trkpt lat="46.40214" lon="11.62992">
        <ele>1747.81</ele>
        <time>2012-08-02T08:22:54Z</time>
      </trkpt>
      <trkpt lat="46.4022" lon="11.62976">
        <ele>1747.33</ele>
        <time>2012-08-02T08:22:55Z</time>
      </trkpt>
      <trkpt lat="46.40265" lon="11.62874">
        <ele>1747.81</ele>
        <time>2012-08-02T08:23:01Z</time>
      </trkpt>
      <trkpt lat="46.40274" lon="11.6286">
        <ele>1747.33</ele>
        <time>2012-08-02T08:23:02Z</time>
      </trkpt>
      <trkpt lat="46.40284" lon="11.62849">
        <ele>1746.85</ele>
        <time>2012-08-02T08:23:03Z</time>
      </trkpt>
      <trkpt lat="46.40293" lon="11.62837">
        <ele>1746.85</ele>
        <time>2012-08-02T08:23:04Z</time>
      </trkpt>
      <trkpt lat="46.403" lon="11.62824">
        <ele>1746.37</ele>
        <time>2012-08-02T08:23:05Z</time>
      </trkpt>
      <trkpt lat="46.40304" lon="11.6281">
        <ele>1747.33</ele>
        <time>2012-08-02T08:23:06Z</time>
      </trkpt>
      <trkpt lat="46.40306" lon="11.62793">
        <ele>1747.33</ele>
        <time>2012-08-02T08:23:07Z</time>
      </trkpt>
      <trkpt lat="46.40307" lon="11.62778">
        <ele>1747.33</ele>
        <time>2012-08-02T08:23:08Z</time>
      </trkpt>
      <trkpt lat="46.4031" lon="11.62684">
        <ele>1746.37</ele>
        <time>2012-08-02T08:23:15Z</time>
      </trkpt>
      <trkpt lat="46.40308" lon="11.62674">
        <ele>1746.85</ele>
        <time>2012-08-02T08:23:16Z</time>
      </trkpt>
      <trkpt lat="46.40303" lon="11.62666">
        <ele>1746.85</ele>
        <time>2012-08-02T08:23:17Z</time>
      </trkpt>
      <trkpt lat="46.40295" lon="11.62659">
        <ele>1747.33</ele>
        <time>2012-08-02T08:23:18Z</time>
      </trkpt>
      <trkpt lat="46.40287" lon="11.62657">
        <ele>1747.81</ele>
        <time>2012-08-02T08:23:19Z</time>
      </trkpt>
      <trkpt lat="46.40278" lon="11.62658">
        <ele>1747.81</ele>
        <time>2012-08-02T08:23:20Z</time>
      </trkpt>
      <trkpt lat="46.40269" lon="11.6266">
        <ele>1747.81</ele>
        <time>2012-08-02T08:23:21Z</time>
      </trkpt>
      <trkpt lat="46.4023" lon="11.62662">
        <ele>1748.29</ele>
        <time>2012-08-02T08:23:25Z</time>
      </trkpt>
      <trkpt lat="46.40221" lon="11.6266">
        <ele>1747.81</ele>
        <time>2012-08-02T08:23:26Z</time>
      </trkpt>
      <trkpt lat="46.40213" lon="11.62655">
        <ele>1747.33</ele>
        <time>2012-08-02T08:23:27Z</time>
      </trkpt>
      <trkpt lat="46.40207" lon="11.62648">
        <ele>1747.33</ele>
        <time>2012-08-02T08:23:28Z</time>
      </trkpt>
      <trkpt lat="46.40201" lon="11.62638">
        <ele>1747.81</ele>
        <time>2012-08-02T08:23:29Z</time>
      </trkpt>
      <trkpt lat="46.40197" lon="11.62627">
        <ele>1747.33</ele>
        <time>2012-08-02T08:23:30Z</time>
      </trkpt>
      <trkpt lat="46.40195" lon="11.62614">
        <ele>1747.81</ele>
        <time>2012-08-02T08:23:31Z</time>
      </trkpt>
      <trkpt lat="46.40195" lon="11.62601">
        <ele>1747.81</ele>
        <time>2012-08-02T08:23:32Z</time>
      </trkpt>
      <trkpt lat="46.40197" lon="11.62586">
        <ele>1748.29</ele>
        <time>2012-08-02T08:23:33Z</time>
      </trkpt>
      <trkpt lat="46.402" lon="11.6257">
        <ele>1748.78</ele>
        <time>2012-08-02T08:23:34Z</time>
      </trkpt>
      <trkpt lat="46.40203" lon="11.62553">
        <ele>1749.74</ele>
        <time>2012-08-02T08:23:35Z</time>
      </trkpt>
      <trkpt lat="46.4021" lon="11.62515">
        <ele>1750.22</ele>
        <time>2012-08-02T08:23:37Z</time>
      </trkpt>
      <trkpt lat="46.4023" lon="11.62395">
        <ele>1748.78</ele>
        <time>2012-08-02T08:23:44Z</time>
      </trkpt>
      <trkpt lat="46.40234" lon="11.62384">
        <ele>1748.78</ele>
        <time>2012-08-02T08:23:45Z</time>
      </trkpt>
      <trkpt lat="46.40239" lon="11.62376">
        <ele>1748.29</ele>
        <time>2012-08-02T08:23:46Z</time>
      </trkpt>
      <trkpt lat="46.40245" lon="11.62371">
        <ele>1748.29</ele>
        <time>2012-08-02T08:23:47Z</time>
      </trkpt>
      <trkpt lat="46.40251" lon="11.62367">
        <ele>1748.29</ele>
        <time>2012-08-02T08:23:48Z</time>
      </trkpt>
      <trkpt lat="46.40258" lon="11.62363">
        <ele>1748.78</ele>
        <time>2012-08-02T08:23:49Z</time>
      </trkpt>
      <trkpt lat="46.40265" lon="11.62358">
        <ele>1748.78</ele>
        <time>2012-08-02T08:23:50Z</time>
      </trkpt>
      <trkpt lat="46.40274" lon="11.62352">
        <ele>1749.26</ele>
        <time>2012-08-02T08:23:51Z</time>
      </trkpt>
      <trkpt lat="46.40282" lon="11.62344">
        <ele>1749.26</ele>
        <time>2012-08-02T08:23:52Z</time>
      </trkpt>
      <trkpt lat="46.40289" lon="11.62335">
        <ele>1749.74</ele>
        <time>2012-08-02T08:23:53Z</time>
      </trkpt>
      <trkpt lat="46.40295" lon="11.62325">
        <ele>1749.26</ele>
        <time>2012-08-02T08:23:54Z</time>
      </trkpt>
      <trkpt lat="46.40302" lon="11.62315">
        <ele>1749.26</ele>
        <time>2012-08-02T08:23:55Z</time>
      </trkpt>
      <trkpt lat="46.40308" lon="11.62306">
        <ele>1749.74</ele>
        <time>2012-08-02T08:23:56Z</time>
      </trkpt>
      <trkpt lat="46.40316" lon="11.62298">
        <ele>1749.74</ele>
        <time>2012-08-02T08:23:57Z</time>
      </trkpt>
      <trkpt lat="46.40325" lon="11.62292">
        <ele>1749.74</ele>
        <time>2012-08-02T08:23:58Z</time>
      </trkpt>
      <trkpt lat="46.40334" lon="11.62287">
        <ele>1750.22</ele>
        <time>2012-08-02T08:23:59Z</time>
      </trkpt>
      <trkpt lat="46.40371" lon="11.62267">
        <ele>1750.22</ele>
        <time>2012-08-02T08:24:03Z</time>
      </trkpt>
      <trkpt lat="46.40381" lon="11.62259">
        <ele>1750.7</ele>
        <time>2012-08-02T08:24:04Z</time>
      </trkpt>
      <trkpt lat="46.40389" lon="11.62249">
        <ele>1750.7</ele>
        <time>2012-08-02T08:24:05Z</time>
      </trkpt>
      <trkpt lat="46.40395" lon="11.62237">
        <ele>1750.22</ele>
        <time>2012-08-02T08:24:06Z</time>
      </trkpt>
      <trkpt lat="46.40399" lon="11.62224">
        <ele>1750.7</ele>
        <time>2012-08-02T08:24:07Z</time>
      </trkpt>
      <trkpt lat="46.40401" lon="11.6221">
        <ele>1750.7</ele>
        <time>2012-08-02T08:24:08Z</time>
      </trkpt>
      <trkpt lat="46.40402" lon="11.62195">
        <ele>1750.7</ele>
        <time>2012-08-02T08:24:09Z</time>
      </trkpt>
      <trkpt lat="46.40401" lon="11.62179">
        <ele>1751.18</ele>
        <time>2012-08-02T08:24:10Z</time>
      </trkpt>
      <trkpt lat="46.40399" lon="11.62163">
        <ele>1751.18</ele>
        <time>2012-08-02T08:24:11Z</time>
      </trkpt>
      <trkpt lat="46.40393" lon="11.62132">
        <ele>1751.18</ele>
        <time>2012-08-02T08:24:13Z</time>
      </trkpt>
      <trkpt lat="46.40389" lon="11.62118">
        <ele>1751.18</ele>
        <time>2012-08-02T08:24:14Z</time>
      </trkpt>
      <trkpt lat="46.40382" lon="11.62104">
        <ele>1751.66</ele>
        <time>2012-08-02T08:24:15Z</time>
      </trkpt>
      <trkpt lat="46.40375" lon="11.62092">
        <ele>1752.14</ele>
        <time>2012-08-02T08:24:16Z</time>
      </trkpt>
      <trkpt lat="46.40366" lon="11.62081">
        <ele>1751.66</ele>
        <time>2012-08-02T08:24:17Z</time>
      </trkpt>
      <trkpt lat="46.40356" lon="11.62071">
        <ele>1751.18</ele>
        <time>2012-08-02T08:24:18Z</time>
      </trkpt>
      <trkpt lat="46.40346" lon="11.62064">
        <ele>1751.18</ele>
        <time>2012-08-02T08:24:19Z</time>
      </trkpt>
      <trkpt lat="46.40336" lon="11.62059">
        <ele>1751.18</ele>
        <time>2012-08-02T08:24:20Z</time>
      </trkpt>
      <trkpt lat="46.40326" lon="11.62056">
        <ele>1751.66</ele>
        <time>2012-08-02T08:24:21Z</time>
      </trkpt>
      <trkpt lat="46.40316" lon="11.62056">
        <ele>1751.66</ele>
        <time>2012-08-02T08:24:22Z</time>
      </trkpt>
      <trkpt lat="46.4028" lon="11.62055">
        <ele>1751.66</ele>
        <time>2012-08-02T08:24:26Z</time>
      </trkpt>
      <trkpt lat="46.40273" lon="11.62052">
        <ele>1751.66</ele>
        <time>2012-08-02T08:24:27Z</time>
      </trkpt>
      <trkpt lat="46.40266" lon="11.62047">
        <ele>1751.18</ele>
        <time>2012-08-02T08:24:28Z</time>
      </trkpt>
      <trkpt lat="46.40261" lon="11.62039">
        <ele>1751.66</ele>
        <time>2012-08-02T08:24:29Z</time>
      </trkpt>
      <trkpt lat="46.40257" lon="11.62028">
        <ele>1751.18</ele>
        <time>2012-08-02T08:24:30Z</time>
      </trkpt>
      <trkpt lat="46.40254" lon="11.62014">
        <ele>1752.14</ele>
        <time>2012-08-02T08:24:31Z</time>
      </trkpt>
      <trkpt lat="46.40254" lon="11.61998">
        <ele>1752.62</ele>
        <time>2012-08-02T08:24:32Z</time>
      </trkpt>
      <trkpt lat="46.40255" lon="11.61981">
        <ele>1753.1</ele>
        <time>2012-08-02T08:24:33Z</time>
      </trkpt>
      <trkpt lat="46.40256" lon="11.61964">
        <ele>1753.1</ele>
        <time>2012-08-02T08:24:34Z</time>
      </trkpt>
      <trkpt lat="46.4027" lon="11.61767">
        <ele>1753.58</ele>
        <time>2012-08-02T08:24:45Z</time>
      </trkpt>
      <trkpt lat="46.40276" lon="11.61702">
        <ele>1754.06</ele>
        <time>2012-08-02T08:24:49Z</time>
      </trkpt>
      <trkpt lat="46.4028" lon="11.61688">
        <ele>1754.54</ele>
        <time>2012-08-02T08:24:50Z</time>
      </trkpt>
      <trkpt lat="46.40286" lon="11.61676">
        <ele>1754.06</ele>
        <time>2012-08-02T08:24:51Z</time>
      </trkpt>
      <trkpt lat="46.40295" lon="11.61666">
        <ele>1754.06</ele>
        <time>2012-08-02T08:24:52Z</time>
      </trkpt>
      <trkpt lat="46.40305" lon="11.61658">
        <ele>1754.54</ele>
        <time>2012-08-02T08:24:53Z</time>
      </trkpt>
      <trkpt lat="46.40317" lon="11.6165">
        <ele>1755.02</ele>
        <time>2012-08-02T08:24:54Z</time>
      </trkpt>
      <trkpt lat="46.40342" lon="11.61632">
        <ele>1755.99</ele>
        <time>2012-08-02T08:24:56Z</time>
      </trkpt>
      <trkpt lat="46.4041" lon="11.61577">
        <ele>1755.02</ele>
        <time>2012-08-02T08:25:03Z</time>
      </trkpt>
      <trkpt lat="46.40439" lon="11.61547">
        <ele>1755.5</ele>
        <time>2012-08-02T08:25:10Z</time>
      </trkpt>
      <trkpt lat="46.40457" lon="11.61513">
        <ele>1756.95</ele>
        <time>2012-08-02T08:25:16Z</time>
      </trkpt>
      <trkpt lat="46.40459" lon="11.61506">
        <ele>1756.47</ele>
        <time>2012-08-02T08:25:17Z</time>
      </trkpt>
      <trkpt lat="46.40462" lon="11.61492">
        <ele>1756.95</ele>
        <time>2012-08-02T08:25:19Z</time>
      </trkpt>
      <trkpt lat="46.40463" lon="11.61485">
        <ele>1756.95</ele>
        <time>2012-08-02T08:25:20Z</time>
      </trkpt>
      <trkpt lat="46.40464" lon="11.61477">
        <ele>1756.47</ele>
        <time>2012-08-02T08:25:21Z</time>
      </trkpt>
      <trkpt lat="46.40463" lon="11.6147">
        <ele>1756.95</ele>
        <time>2012-08-02T08:25:22Z</time>
      </trkpt>
      <trkpt lat="46.40463" lon="11.61462">
        <ele>1757.43</ele>
        <time>2012-08-02T08:25:23Z</time>
      </trkpt>
      <trkpt lat="46.40459" lon="11.61437">
        <ele>1757.43</ele>
        <time>2012-08-02T08:25:27Z</time>
      </trkpt>
      <trkpt lat="46.40434" lon="11.61363">
        <ele>1759.35</ele>
        <time>2012-08-02T08:25:35Z</time>
      </trkpt>
      <trkpt lat="46.40418" lon="11.61309">
        <ele>1756.47</ele>
        <time>2012-08-02T08:25:40Z</time>
      </trkpt>
      <trkpt lat="46.40401" lon="11.61229">
        <ele>1756.47</ele>
        <time>2012-08-02T08:25:48Z</time>
      </trkpt>
      <trkpt lat="46.40401" lon="11.61216">
        <ele>1755.99</ele>
        <time>2012-08-02T08:25:49Z</time>
      </trkpt>
      <trkpt lat="46.40402" lon="11.61203">
        <ele>1755.99</ele>
        <time>2012-08-02T08:25:50Z</time>
      </trkpt>
      <trkpt lat="46.40416" lon="11.61031">
        <ele>1755.5</ele>
        <time>2012-08-02T08:26:01Z</time>
      </trkpt>
      <trkpt lat="46.40421" lon="11.60962">
        <ele>1754.06</ele>
        <time>2012-08-02T08:26:06Z</time>
      </trkpt>
      <trkpt lat="46.40426" lon="11.60911">
        <ele>1754.06</ele>
        <time>2012-08-02T08:26:10Z</time>
      </trkpt>
      <trkpt lat="46.40429" lon="11.609">
        <ele>1754.06</ele>
        <time>2012-08-02T08:26:11Z</time>
      </trkpt>
      <trkpt lat="46.4044" lon="11.60865">
        <ele>1752.14</ele>
        <time>2012-08-02T08:26:15Z</time>
      </trkpt>
      <trkpt lat="46.40484" lon="11.60779">
        <ele>1751.66</ele>
        <time>2012-08-02T08:26:23Z</time>
      </trkpt>
      <trkpt lat="46.40506" lon="11.60744">
        <ele>1751.18</ele>
        <time>2012-08-02T08:26:26Z</time>
      </trkpt>
      <trkpt lat="46.40515" lon="11.60735">
        <ele>1749.74</ele>
        <time>2012-08-02T08:26:27Z</time>
      </trkpt>
      <trkpt lat="46.40525" lon="11.60727">
        <ele>1748.29</ele>
        <time>2012-08-02T08:26:28Z</time>
      </trkpt>
      <trkpt lat="46.40557" lon="11.60705">
        <ele>1745.89</ele>
        <time>2012-08-02T08:26:31Z</time>
      </trkpt>
      <trkpt lat="46.40567" lon="11.60693">
        <ele>1745.89</ele>
        <time>2012-08-02T08:26:32Z</time>
      </trkpt>
      <trkpt lat="46.40576" lon="11.60679">
        <ele>1744.93</ele>
        <time>2012-08-02T08:26:33Z</time>
      </trkpt>
      <trkpt lat="46.40583" lon="11.60663">
        <ele>1743.97</ele>
        <time>2012-08-02T08:26:34Z</time>
      </trkpt>
      <trkpt lat="46.4059" lon="11.60647">
        <ele>1743.01</ele>
        <time>2012-08-02T08:26:35Z</time>
      </trkpt>
      <trkpt lat="46.40606" lon="11.60617">
        <ele>1740.6</ele>
        <time>2012-08-02T08:26:37Z</time>
      </trkpt>
      <trkpt lat="46.40616" lon="11.60603">
        <ele>1739.64</ele>
        <time>2012-08-02T08:26:38Z</time>
      </trkpt>
      <trkpt lat="46.40627" lon="11.60593">
        <ele>1738.2</ele>
        <time>2012-08-02T08:26:39Z</time>
      </trkpt>
      <trkpt lat="46.40638" lon="11.60585">
        <ele>1736.76</ele>
        <time>2012-08-02T08:26:40Z</time>
      </trkpt>
      <trkpt lat="46.4065" lon="11.60578">
        <ele>1735.8</ele>
        <time>2012-08-02T08:26:41Z</time>
      </trkpt>
      <trkpt lat="46.40681" lon="11.60555">
        <ele>1733.39</ele>
        <time>2012-08-02T08:26:44Z</time>
      </trkpt>
      <trkpt lat="46.40689" lon="11.60546">
        <ele>1732.43</ele>
        <time>2012-08-02T08:26:45Z</time>
      </trkpt>
      <trkpt lat="46.40694" lon="11.60534">
        <ele>1731.47</ele>
        <time>2012-08-02T08:26:46Z</time>
      </trkpt>
      <trkpt lat="46.40697" lon="11.6052">
        <ele>1731.47</ele>
        <time>2012-08-02T08:26:47Z</time>
      </trkpt>
      <trkpt lat="46.40697" lon="11.60506">
        <ele>1730.03</ele>
        <time>2012-08-02T08:26:48Z</time>
      </trkpt>
      <trkpt lat="46.40692" lon="11.60492">
        <ele>1729.55</ele>
        <time>2012-08-02T08:26:49Z</time>
      </trkpt>
      <trkpt lat="46.40683" lon="11.6048">
        <ele>1729.07</ele>
        <time>2012-08-02T08:26:50Z</time>
      </trkpt>
      <trkpt lat="46.40673" lon="11.60471">
        <ele>1727.63</ele>
        <time>2012-08-02T08:26:51Z</time>
      </trkpt>
      <trkpt lat="46.40662" lon="11.60462">
        <ele>1726.67</ele>
        <time>2012-08-02T08:26:52Z</time>
      </trkpt>
      <trkpt lat="46.40652" lon="11.60454">
        <ele>1725.7</ele>
        <time>2012-08-02T08:26:53Z</time>
      </trkpt>
      <trkpt lat="46.40643" lon="11.60446">
        <ele>1724.26</ele>
        <time>2012-08-02T08:26:54Z</time>
      </trkpt>
      <trkpt lat="46.40635" lon="11.60436">
        <ele>1723.3</ele>
        <time>2012-08-02T08:26:55Z</time>
      </trkpt>
      <trkpt lat="46.4063" lon="11.60423">
        <ele>1722.34</ele>
        <time>2012-08-02T08:26:56Z</time>
      </trkpt>
      <trkpt lat="46.40629" lon="11.60409">
        <ele>1721.38</ele>
        <time>2012-08-02T08:26:57Z</time>
      </trkpt>
      <trkpt lat="46.40632" lon="11.60396">
        <ele>1720.9</ele>
        <time>2012-08-02T08:26:58Z</time>
      </trkpt>
      <trkpt lat="46.40638" lon="11.60384">
        <ele>1719.46</ele>
        <time>2012-08-02T08:26:59Z</time>
      </trkpt>
      <trkpt lat="46.40647" lon="11.60375">
        <ele>1719.46</ele>
        <time>2012-08-02T08:27:00Z</time>
      </trkpt>
      <trkpt lat="46.40658" lon="11.60368">
        <ele>1718.97</ele>
        <time>2012-08-02T08:27:01Z</time>
      </trkpt>
      <trkpt lat="46.407" lon="11.60339">
        <ele>1715.61</ele>
        <time>2012-08-02T08:27:05Z</time>
      </trkpt>
      <trkpt lat="46.4074" lon="11.6031">
        <ele>1712.25</ele>
        <time>2012-08-02T08:27:09Z</time>
      </trkpt>
      <trkpt lat="46.4075" lon="11.60302">
        <ele>1712.25</ele>
        <time>2012-08-02T08:27:10Z</time>
      </trkpt>
      <trkpt lat="46.40769" lon="11.60283">
        <ele>1710.8</ele>
        <time>2012-08-02T08:27:12Z</time>
      </trkpt>
      <trkpt lat="46.40778" lon="11.60271">
        <ele>1711.76</ele>
        <time>2012-08-02T08:27:13Z</time>
      </trkpt>
      <trkpt lat="46.40787" lon="11.60257">
        <ele>1711.76</ele>
        <time>2012-08-02T08:27:14Z</time>
      </trkpt>
      <trkpt lat="46.40814" lon="11.60211">
        <ele>1713.69</ele>
        <time>2012-08-02T08:27:17Z</time>
      </trkpt>
      <trkpt lat="46.40852" lon="11.60159">
        <ele>1714.65</ele>
        <time>2012-08-02T08:27:21Z</time>
      </trkpt>
      <trkpt lat="46.40864" lon="11.60149">
        <ele>1715.13</ele>
        <time>2012-08-02T08:27:22Z</time>
      </trkpt>
      <trkpt lat="46.40878" lon="11.6014">
        <ele>1715.61</ele>
        <time>2012-08-02T08:27:23Z</time>
      </trkpt>
      <trkpt lat="46.40892" lon="11.60134">
        <ele>1716.09</ele>
        <time>2012-08-02T08:27:24Z</time>
      </trkpt>
      <trkpt lat="46.40907" lon="11.60128">
        <ele>1717.05</ele>
        <time>2012-08-02T08:27:25Z</time>
      </trkpt>
      <trkpt lat="46.40976" lon="11.60106">
        <ele>1718.01</ele>
        <time>2012-08-02T08:27:30Z</time>
      </trkpt>
      <trkpt lat="46.40988" lon="11.60098">
        <ele>1718.49</ele>
        <time>2012-08-02T08:27:31Z</time>
      </trkpt>
      <trkpt lat="46.40999" lon="11.60086">
        <ele>1719.94</ele>
        <time>2012-08-02T08:27:32Z</time>
      </trkpt>
      <trkpt lat="46.41009" lon="11.6007">
        <ele>1720.42</ele>
        <time>2012-08-02T08:27:33Z</time>
      </trkpt>
      <trkpt lat="46.41018" lon="11.60052">
        <ele>1720.9</ele>
        <time>2012-08-02T08:27:34Z</time>
      </trkpt>
      <trkpt lat="46.41026" lon="11.60035">
        <ele>1720.9</ele>
        <time>2012-08-02T08:27:35Z</time>
      </trkpt>
      <trkpt lat="46.41041" lon="11.60005">
        <ele>1721.38</ele>
        <time>2012-08-02T08:27:37Z</time>
      </trkpt>
      <trkpt lat="46.41051" lon="11.59993">
        <ele>1721.38</ele>
        <time>2012-08-02T08:27:38Z</time>
      </trkpt>
      <trkpt lat="46.41063" lon="11.59984">
        <ele>1722.34</ele>
        <time>2012-08-02T08:27:39Z</time>
      </trkpt>
      <trkpt lat="46.41076" lon="11.59979">
        <ele>1722.82</ele>
        <time>2012-08-02T08:27:40Z</time>
      </trkpt>
      <trkpt lat="46.4109" lon="11.59974">
        <ele>1723.78</ele>
        <time>2012-08-02T08:27:41Z</time>
      </trkpt>
      <trkpt lat="46.41103" lon="11.59968">
        <ele>1723.78</ele>
        <time>2012-08-02T08:27:42Z</time>
      </trkpt>
      <trkpt lat="46.41116" lon="11.59958">
        <ele>1724.74</ele>
        <time>2012-08-02T08:27:43Z</time>
      </trkpt>
      <trkpt lat="46.41128" lon="11.59945">
        <ele>1725.7</ele>
        <time>2012-08-02T08:27:44Z</time>
      </trkpt>
      <trkpt lat="46.41139" lon="11.5993">
        <ele>1726.18</ele>
        <time>2012-08-02T08:27:45Z</time>
      </trkpt>
      <trkpt lat="46.4115" lon="11.59914">
        <ele>1727.15</ele>
        <time>2012-08-02T08:27:46Z</time>
      </trkpt>
      <trkpt lat="46.41193" lon="11.59844">
        <ele>1730.03</ele>
        <time>2012-08-02T08:27:50Z</time>
      </trkpt>
      <trkpt lat="46.41205" lon="11.59828">
        <ele>1730.51</ele>
        <time>2012-08-02T08:27:51Z</time>
      </trkpt>
      <trkpt lat="46.41218" lon="11.59814">
        <ele>1730.99</ele>
        <time>2012-08-02T08:27:52Z</time>
      </trkpt>
      <trkpt lat="46.41232" lon="11.59801">
        <ele>1731.47</ele>
        <time>2012-08-02T08:27:53Z</time>
      </trkpt>
      <trkpt lat="46.41247" lon="11.59789">
        <ele>1731.95</ele>
        <time>2012-08-02T08:27:54Z</time>
      </trkpt>
      <trkpt lat="46.41263" lon="11.59779">
        <ele>1732.43</ele>
        <time>2012-08-02T08:27:55Z</time>
      </trkpt>
      <trkpt lat="46.41279" lon="11.59772">
        <ele>1731.95</ele>
        <time>2012-08-02T08:27:56Z</time>
      </trkpt>
      <trkpt lat="46.41295" lon="11.59767">
        <ele>1732.91</ele>
        <time>2012-08-02T08:27:57Z</time>
      </trkpt>
      <trkpt lat="46.4131" lon="11.59763">
        <ele>1732.91</ele>
        <time>2012-08-02T08:27:58Z</time>
      </trkpt>
      <trkpt lat="46.41325" lon="11.5976">
        <ele>1733.39</ele>
        <time>2012-08-02T08:27:59Z</time>
      </trkpt>
      <trkpt lat="46.41339" lon="11.59762">
        <ele>1733.88</ele>
        <time>2012-08-02T08:28:00Z</time>
      </trkpt>
      <trkpt lat="46.41353" lon="11.59768">
        <ele>1734.36</ele>
        <time>2012-08-02T08:28:01Z</time>
      </trkpt>
      <trkpt lat="46.41365" lon="11.59779">
        <ele>1734.84</ele>
        <time>2012-08-02T08:28:02Z</time>
      </trkpt>
      <trkpt lat="46.41376" lon="11.59795">
        <ele>1735.8</ele>
        <time>2012-08-02T08:28:03Z</time>
      </trkpt>
      <trkpt lat="46.41386" lon="11.59813">
        <ele>1736.76</ele>
        <time>2012-08-02T08:28:04Z</time>
      </trkpt>
      <trkpt lat="46.41418" lon="11.59865">
        <ele>1737.24</ele>
        <time>2012-08-02T08:28:07Z</time>
      </trkpt>
      <trkpt lat="46.41431" lon="11.59882">
        <ele>1737.72</ele>
        <time>2012-08-02T08:28:08Z</time>
      </trkpt>
      <trkpt lat="46.41509" lon="11.59967">
        <ele>1738.68</ele>
        <time>2012-08-02T08:28:14Z</time>
      </trkpt>
      <trkpt lat="46.41519" lon="11.59976">
        <ele>1738.68</ele>
        <time>2012-08-02T08:28:15Z</time>
      </trkpt>
      <trkpt lat="46.41529" lon="11.59982">
        <ele>1738.2</ele>
        <time>2012-08-02T08:28:16Z</time>
      </trkpt>
      <trkpt lat="46.41538" lon="11.59982">
        <ele>1738.2</ele>
        <time>2012-08-02T08:28:17Z</time>
      </trkpt>
      <trkpt lat="46.41547" lon="11.59976">
        <ele>1738.68</ele>
        <time>2012-08-02T08:28:18Z</time>
      </trkpt>
      <trkpt lat="46.41554" lon="11.59964">
        <ele>1739.16</ele>
        <time>2012-08-02T08:28:19Z</time>
      </trkpt>
      <trkpt lat="46.4156" lon="11.5995">
        <ele>1739.64</ele>
        <time>2012-08-02T08:28:20Z</time>
      </trkpt>
      <trkpt lat="46.41567" lon="11.59939">
        <ele>1739.64</ele>
        <time>2012-08-02T08:28:21Z</time>
      </trkpt>
      <trkpt lat="46.41577" lon="11.59933">
        <ele>1739.64</ele>
        <time>2012-08-02T08:28:22Z</time>
      </trkpt>
      <trkpt lat="46.41587" lon="11.59933">
        <ele>1739.64</ele>
        <time>2012-08-02T08:28:23Z</time>
      </trkpt>
      <trkpt lat="46.41596" lon="11.59939">
        <ele>1740.6</ele>
        <time>2012-08-02T08:28:24Z</time>
      </trkpt>
      <trkpt lat="46.41607" lon="11.59949">
        <ele>1742.05</ele>
        <time>2012-08-02T08:28:25Z</time>
      </trkpt>
      <trkpt lat="46.4164" lon="11.59984">
        <ele>1742.53</ele>
        <time>2012-08-02T08:28:28Z</time>
      </trkpt>
      <trkpt lat="46.41648" lon="11.60001">
        <ele>1743.01</ele>
        <time>2012-08-02T08:28:29Z</time>
      </trkpt>
      <trkpt lat="46.41653" lon="11.6002">
        <ele>1743.97</ele>
        <time>2012-08-02T08:28:30Z</time>
      </trkpt>
      <trkpt lat="46.41656" lon="11.60039">
        <ele>1743.97</ele>
        <time>2012-08-02T08:28:31Z</time>
      </trkpt>
      <trkpt lat="46.41659" lon="11.60056">
        <ele>1743.49</ele>
        <time>2012-08-02T08:28:32Z</time>
      </trkpt>
      <trkpt lat="46.41665" lon="11.60069">
        <ele>1743.01</ele>
        <time>2012-08-02T08:28:33Z</time>
      </trkpt>
      <trkpt lat="46.41673" lon="11.60078">
        <ele>1743.01</ele>
        <time>2012-08-02T08:28:34Z</time>
      </trkpt>
      <trkpt lat="46.41683" lon="11.60081">
        <ele>1743.01</ele>
        <time>2012-08-02T08:28:35Z</time>
      </trkpt>
      <trkpt lat="46.41695" lon="11.6008">
        <ele>1744.93</ele>
        <time>2012-08-02T08:28:36Z</time>
      </trkpt>
      <trkpt lat="46.41707" lon="11.60075">
        <ele>1745.41</ele>
        <time>2012-08-02T08:28:37Z</time>
      </trkpt>
      <trkpt lat="46.41719" lon="11.60069">
        <ele>1745.41</ele>
        <time>2012-08-02T08:28:38Z</time>
      </trkpt>
      <trkpt lat="46.41732" lon="11.60065">
        <ele>1745.89</ele>
        <time>2012-08-02T08:28:39Z</time>
      </trkpt>
      <trkpt lat="46.41746" lon="11.60065">
        <ele>1746.37</ele>
        <time>2012-08-02T08:28:40Z</time>
      </trkpt>
      <trkpt lat="46.4176" lon="11.60069">
        <ele>1747.81</ele>
        <time>2012-08-02T08:28:41Z</time>
      </trkpt>
      <trkpt lat="46.41802" lon="11.60092">
        <ele>1747.81</ele>
        <time>2012-08-02T08:28:44Z</time>
      </trkpt>
      <trkpt lat="46.41818" lon="11.60095">
        <ele>1749.26</ele>
        <time>2012-08-02T08:28:45Z</time>
      </trkpt>
      <trkpt lat="46.41834" lon="11.60093">
        <ele>1749.26</ele>
        <time>2012-08-02T08:28:46Z</time>
      </trkpt>
      <trkpt lat="46.41909" lon="11.60072">
        <ele>1749.26</ele>
        <time>2012-08-02T08:28:51Z</time>
      </trkpt>
      <trkpt lat="46.42456" lon="11.59639">
        <ele>1763.2</ele>
        <time>2012-08-02T08:37:23Z</time>
      </trkpt>
      <trkpt lat="46.42457" lon="11.59636">
        <ele>1763.2</ele>
        <time>2012-08-02T08:37:24Z</time>
      </trkpt>
      <trkpt lat="46.42478" lon="11.59657">
        <ele>1766.08</ele>
        <time>2012-08-02T08:37:30Z</time>
      </trkpt>
      <trkpt lat="46.42546" lon="11.59706">
        <ele>1769.92</ele>
        <time>2012-08-02T08:37:36Z</time>
      </trkpt>
      <trkpt lat="46.42574" lon="11.59725">
        <ele>1773.29</ele>
        <time>2012-08-02T08:37:38Z</time>
      </trkpt>
      <trkpt lat="46.42588" lon="11.59734">
        <ele>1772.33</ele>
        <time>2012-08-02T08:37:39Z</time>
      </trkpt>
      <trkpt lat="46.42628" lon="11.59757">
        <ele>1773.77</ele>
        <time>2012-08-02T08:37:42Z</time>
      </trkpt>
      <trkpt lat="46.42643" lon="11.5976">
        <ele>1774.25</ele>
        <time>2012-08-02T08:37:43Z</time>
      </trkpt>
      <trkpt lat="46.42658" lon="11.59761">
        <ele>1775.21</ele>
        <time>2012-08-02T08:37:44Z</time>
      </trkpt>
      <trkpt lat="46.42722" lon="11.59757">
        <ele>1774.25</ele>
        <time>2012-08-02T08:37:49Z</time>
      </trkpt>
      <trkpt lat="46.42733" lon="11.59759">
        <ele>1774.25</ele>
        <time>2012-08-02T08:37:50Z</time>
      </trkpt>
      <trkpt lat="46.42743" lon="11.59765">
        <ele>1774.73</ele>
        <time>2012-08-02T08:37:51Z</time>
      </trkpt>
      <trkpt lat="46.42753" lon="11.59773">
        <ele>1775.69</ele>
        <time>2012-08-02T08:37:52Z</time>
      </trkpt>
      <trkpt lat="46.42761" lon="11.59782">
        <ele>1775.21</ele>
        <time>2012-08-02T08:37:53Z</time>
      </trkpt>
      <trkpt lat="46.42768" lon="11.59792">
        <ele>1775.69</ele>
        <time>2012-08-02T08:37:54Z</time>
      </trkpt>
      <trkpt lat="46.42775" lon="11.59801">
        <ele>1775.69</ele>
        <time>2012-08-02T08:37:55Z</time>
      </trkpt>
      <trkpt lat="46.42781" lon="11.59813">
        <ele>1776.17</ele>
        <time>2012-08-02T08:37:56Z</time>
      </trkpt>
      <trkpt lat="46.42785" lon="11.59824">
        <ele>1776.17</ele>
        <time>2012-08-02T08:37:57Z</time>
      </trkpt>
      <trkpt lat="46.42788" lon="11.59835">
        <ele>1776.65</ele>
        <time>2012-08-02T08:37:58Z</time>
      </trkpt>
      <trkpt lat="46.42793" lon="11.59845">
        <ele>1777.13</ele>
        <time>2012-08-02T08:37:59Z</time>
      </trkpt>
      <trkpt lat="46.42799" lon="11.59854">
        <ele>1777.13</ele>
        <time>2012-08-02T08:38:00Z</time>
      </trkpt>
      <trkpt lat="46.42808" lon="11.59861">
        <ele>1778.1</ele>
        <time>2012-08-02T08:38:01Z</time>
      </trkpt>
      <trkpt lat="46.42819" lon="11.59865">
        <ele>1778.58</ele>
        <time>2012-08-02T08:38:02Z</time>
      </trkpt>
      <trkpt lat="46.4283" lon="11.59868">
        <ele>1779.06</ele>
        <time>2012-08-02T08:38:03Z</time>
      </trkpt>
      <trkpt lat="46.42873" lon="11.59875">
        <ele>1779.06</ele>
        <time>2012-08-02T08:38:07Z</time>
      </trkpt>
      <trkpt lat="46.42884" lon="11.59872">
        <ele>1778.58</ele>
        <time>2012-08-02T08:38:08Z</time>
      </trkpt>
      <trkpt lat="46.4293" lon="11.59856">
        <ele>1778.58</ele>
        <time>2012-08-02T08:38:12Z</time>
      </trkpt>
      <trkpt lat="46.42942" lon="11.59855">
        <ele>1778.58</ele>
        <time>2012-08-02T08:38:13Z</time>
      </trkpt>
      <trkpt lat="46.42954" lon="11.59857">
        <ele>1779.06</ele>
        <time>2012-08-02T08:38:14Z</time>
      </trkpt>
      <trkpt lat="46.42967" lon="11.59859">
        <ele>1779.06</ele>
        <time>2012-08-02T08:38:15Z</time>
      </trkpt>
      <trkpt lat="46.42979" lon="11.59863">
        <ele>1779.06</ele>
        <time>2012-08-02T08:38:16Z</time>
      </trkpt>
      <trkpt lat="46.43036" lon="11.59877">
        <ele>1778.1</ele>
        <time>2012-08-02T08:38:21Z</time>
      </trkpt>
      <trkpt lat="46.43047" lon="11.59877">
        <ele>1779.54</ele>
        <time>2012-08-02T08:38:22Z</time>
      </trkpt>
      <trkpt lat="46.43059" lon="11.59872">
        <ele>1779.54</ele>
        <time>2012-08-02T08:38:23Z</time>
      </trkpt>
      <trkpt lat="46.4307" lon="11.59861">
        <ele>1780.5</ele>
        <time>2012-08-02T08:38:24Z</time>
      </trkpt>
      <trkpt lat="46.43083" lon="11.59849">
        <ele>1781.46</ele>
        <time>2012-08-02T08:38:25Z</time>
      </trkpt>
      <trkpt lat="46.43097" lon="11.59837">
        <ele>1781.94</ele>
        <time>2012-08-02T08:38:26Z</time>
      </trkpt>
      <trkpt lat="46.43112" lon="11.59827">
        <ele>1781.46</ele>
        <time>2012-08-02T08:38:27Z</time>
      </trkpt>
      <trkpt lat="46.43173" lon="11.59796">
        <ele>1780.02</ele>
        <time>2012-08-02T08:38:31Z</time>
      </trkpt>
      <trkpt lat="46.43186" lon="11.59782">
        <ele>1780.5</ele>
        <time>2012-08-02T08:38:32Z</time>
      </trkpt>
      <trkpt lat="46.43197" lon="11.59764">
        <ele>1780.98</ele>
        <time>2012-08-02T08:38:33Z</time>
      </trkpt>
      <trkpt lat="46.43238" lon="11.59696">
        <ele>1778.58</ele>
        <time>2012-08-02T08:38:37Z</time>
      </trkpt>
      <trkpt lat="46.4325" lon="11.59681">
        <ele>1778.58</ele>
        <time>2012-08-02T08:38:38Z</time>
      </trkpt>
      <trkpt lat="46.43264" lon="11.59667">
        <ele>1778.58</ele>
        <time>2012-08-02T08:38:39Z</time>
      </trkpt>
      <trkpt lat="46.43279" lon="11.59654">
        <ele>1778.58</ele>
        <time>2012-08-02T08:38:40Z</time>
      </trkpt>
      <trkpt lat="46.43351" lon="11.59599">
        <ele>1775.21</ele>
        <time>2012-08-02T08:38:45Z</time>
      </trkpt>
      <trkpt lat="46.43361" lon="11.59589">
        <ele>1774.73</ele>
        <time>2012-08-02T08:38:46Z</time>
      </trkpt>
      <trkpt lat="46.43369" lon="11.59578">
        <ele>1774.25</ele>
        <time>2012-08-02T08:38:47Z</time>
      </trkpt>
      <trkpt lat="46.43374" lon="11.59565">
        <ele>1774.25</ele>
        <time>2012-08-02T08:38:48Z</time>
      </trkpt>
      <trkpt lat="46.43375" lon="11.5955">
        <ele>1774.25</ele>
        <time>2012-08-02T08:38:49Z</time>
      </trkpt>
      <trkpt lat="46.43373" lon="11.59533">
        <ele>1774.25</ele>
        <time>2012-08-02T08:38:50Z</time>
      </trkpt>
      <trkpt lat="46.43369" lon="11.59515">
        <ele>1775.21</ele>
        <time>2012-08-02T08:38:51Z</time>
      </trkpt>
      <trkpt lat="46.43363" lon="11.59496">
        <ele>1776.17</ele>
        <time>2012-08-02T08:38:52Z</time>
      </trkpt>
      <trkpt lat="46.43332" lon="11.59388">
        <ele>1779.54</ele>
        <time>2012-08-02T08:38:57Z</time>
      </trkpt>
      <trkpt lat="46.43314" lon="11.59342">
        <ele>1780.5</ele>
        <time>2012-08-02T08:38:59Z</time>
      </trkpt>
      <trkpt lat="46.43252" lon="11.59153">
        <ele>1781.46</ele>
        <time>2012-08-02T08:39:07Z</time>
      </trkpt>
      <trkpt lat="46.43241" lon="11.59089">
        <ele>1780.98</ele>
        <time>2012-08-02T08:39:10Z</time>
      </trkpt>
      <trkpt lat="46.43241" lon="11.59066">
        <ele>1781.94</ele>
        <time>2012-08-02T08:39:11Z</time>
      </trkpt>
      <trkpt lat="46.43243" lon="11.59044">
        <ele>1782.42</ele>
        <time>2012-08-02T08:39:12Z</time>
      </trkpt>
      <trkpt lat="46.43245" lon="11.59022">
        <ele>1782.9</ele>
        <time>2012-08-02T08:39:13Z</time>
      </trkpt>
      <trkpt lat="46.43248" lon="11.59003">
        <ele>1782.9</ele>
        <time>2012-08-02T08:39:14Z</time>
      </trkpt>
      <trkpt lat="46.43253" lon="11.58984">
        <ele>1782.9</ele>
        <time>2012-08-02T08:39:15Z</time>
      </trkpt>
      <trkpt lat="46.43259" lon="11.58967">
        <ele>1782.42</ele>
        <time>2012-08-02T08:39:16Z</time>
      </trkpt>
      <trkpt lat="46.43267" lon="11.58952">
        <ele>1781.94</ele>
        <time>2012-08-02T08:39:17Z</time>
      </trkpt>
      <trkpt lat="46.43279" lon="11.58939">
        <ele>1782.42</ele>
        <time>2012-08-02T08:39:18Z</time>
      </trkpt>
      <trkpt lat="46.43292" lon="11.58929">
        <ele>1782.42</ele>
        <time>2012-08-02T08:39:19Z</time>
      </trkpt>
      <trkpt lat="46.43307" lon="11.58923">
        <ele>1781.94</ele>
        <time>2012-08-02T08:39:20Z</time>
      </trkpt>
      <trkpt lat="46.43323" lon="11.5892">
        <ele>1781.94</ele>
        <time>2012-08-02T08:39:21Z</time>
      </trkpt>
      <trkpt lat="46.4334" lon="11.58918">
        <ele>1782.42</ele>
        <time>2012-08-02T08:39:22Z</time>
      </trkpt>
      <trkpt lat="46.4342" lon="11.58914">
        <ele>1779.54</ele>
        <time>2012-08-02T08:39:27Z</time>
      </trkpt>
      <trkpt lat="46.43433" lon="11.58917">
        <ele>1779.06</ele>
        <time>2012-08-02T08:39:28Z</time>
      </trkpt>
      <trkpt lat="46.43447" lon="11.58922">
        <ele>1778.1</ele>
        <time>2012-08-02T08:39:29Z</time>
      </trkpt>
      <trkpt lat="46.43459" lon="11.58931">
        <ele>1778.1</ele>
        <time>2012-08-02T08:39:30Z</time>
      </trkpt>
      <trkpt lat="46.43469" lon="11.58943">
        <ele>1777.61</ele>
        <time>2012-08-02T08:39:31Z</time>
      </trkpt>
      <trkpt lat="46.43477" lon="11.58957">
        <ele>1777.13</ele>
        <time>2012-08-02T08:39:32Z</time>
      </trkpt>
      <trkpt lat="46.43485" lon="11.58968">
        <ele>1775.69</ele>
        <time>2012-08-02T08:39:33Z</time>
      </trkpt>
      <trkpt lat="46.43495" lon="11.58973">
        <ele>1775.69</ele>
        <time>2012-08-02T08:39:34Z</time>
      </trkpt>
      <trkpt lat="46.43506" lon="11.58971">
        <ele>1775.69</ele>
        <time>2012-08-02T08:39:35Z</time>
      </trkpt>
      <trkpt lat="46.43516" lon="11.58965">
        <ele>1775.21</ele>
        <time>2012-08-02T08:39:36Z</time>
      </trkpt>
      <trkpt lat="46.43524" lon="11.58958">
        <ele>1775.21</ele>
        <time>2012-08-02T08:39:37Z</time>
      </trkpt>
      <trkpt lat="46.43534" lon="11.58954">
        <ele>1775.21</ele>
        <time>2012-08-02T08:39:38Z</time>
      </trkpt>
      <trkpt lat="46.43543" lon="11.58955">
        <ele>1774.73</ele>
        <time>2012-08-02T08:39:39Z</time>
      </trkpt>
      <trkpt lat="46.43551" lon="11.58963">
        <ele>1774.73</ele>
        <time>2012-08-02T08:39:40Z</time>
      </trkpt>
      <trkpt lat="46.43558" lon="11.58976">
        <ele>1775.21</ele>
        <time>2012-08-02T08:39:41Z</time>
      </trkpt>
      <trkpt lat="46.43566" lon="11.58991">
        <ele>1775.21</ele>
        <time>2012-08-02T08:39:42Z</time>
      </trkpt>
      <trkpt lat="46.43574" lon="11.59004">
        <ele>1773.77</ele>
        <time>2012-08-02T08:39:43Z</time>
      </trkpt>
      <trkpt lat="46.43582" lon="11.59014">
        <ele>1773.29</ele>
        <time>2012-08-02T08:39:44Z</time>
      </trkpt>
      <trkpt lat="46.43591" lon="11.59018">
        <ele>1772.81</ele>
        <time>2012-08-02T08:39:45Z</time>
      </trkpt>
      <trkpt lat="46.43601" lon="11.59015">
        <ele>1772.81</ele>
        <time>2012-08-02T08:39:46Z</time>
      </trkpt>
      <trkpt lat="46.4361" lon="11.59006">
        <ele>1773.77</ele>
        <time>2012-08-02T08:39:47Z</time>
      </trkpt>
      <trkpt lat="46.43618" lon="11.58993">
        <ele>1773.77</ele>
        <time>2012-08-02T08:39:48Z</time>
      </trkpt>
      <trkpt lat="46.43702" lon="11.58861">
        <ele>1773.29</ele>
        <time>2012-08-02T08:39:56Z</time>
      </trkpt>
      <trkpt lat="46.4373" lon="11.588">
        <ele>1769.92</ele>
        <time>2012-08-02T08:40:00Z</time>
      </trkpt>
      <trkpt lat="46.43737" lon="11.5879">
        <ele>1768.96</ele>
        <time>2012-08-02T08:40:01Z</time>
      </trkpt>
      <trkpt lat="46.43746" lon="11.58784">
        <ele>1768.48</ele>
        <time>2012-08-02T08:40:02Z</time>
      </trkpt>
      <trkpt lat="46.43756" lon="11.58781">
        <ele>1768.48</ele>
        <time>2012-08-02T08:40:03Z</time>
      </trkpt>
      <trkpt lat="46.43767" lon="11.58782">
        <ele>1768.48</ele>
        <time>2012-08-02T08:40:04Z</time>
      </trkpt>
      <trkpt lat="46.43778" lon="11.58788">
        <ele>1768.96</ele>
        <time>2012-08-02T08:40:05Z</time>
      </trkpt>
      <trkpt lat="46.43788" lon="11.58795">
        <ele>1768.96</ele>
        <time>2012-08-02T08:40:06Z</time>
      </trkpt>
      <trkpt lat="46.438" lon="11.58796">
        <ele>1768.96</ele>
        <time>2012-08-02T08:40:07Z</time>
      </trkpt>
      <trkpt lat="46.43813" lon="11.58796">
        <ele>1768</ele>
        <time>2012-08-02T08:40:08Z</time>
      </trkpt>
      <trkpt lat="46.43826" lon="11.58796">
        <ele>1767.52</ele>
        <time>2012-08-02T08:40:09Z</time>
      </trkpt>
      <trkpt lat="46.43837" lon="11.588">
        <ele>1767.52</ele>
        <time>2012-08-02T08:40:10Z</time>
      </trkpt>
      <trkpt lat="46.43848" lon="11.58806">
        <ele>1767.04</ele>
        <time>2012-08-02T08:40:11Z</time>
      </trkpt>
      <trkpt lat="46.43859" lon="11.58817">
        <ele>1767.04</ele>
        <time>2012-08-02T08:40:12Z</time>
      </trkpt>
      <trkpt lat="46.4387" lon="11.5883">
        <ele>1767.52</ele>
        <time>2012-08-02T08:40:13Z</time>
      </trkpt>
      <trkpt lat="46.43899" lon="11.58868">
        <ele>1764.64</ele>
        <time>2012-08-02T08:40:16Z</time>
      </trkpt>
      <trkpt lat="46.43905" lon="11.58884">
        <ele>1764.16</ele>
        <time>2012-08-02T08:40:17Z</time>
      </trkpt>
      <trkpt lat="46.4391" lon="11.58902">
        <ele>1765.12</ele>
        <time>2012-08-02T08:40:18Z</time>
      </trkpt>
      <trkpt lat="46.43914" lon="11.58919">
        <ele>1763.68</ele>
        <time>2012-08-02T08:40:19Z</time>
      </trkpt>
      <trkpt lat="46.43919" lon="11.58935">
        <ele>1763.68</ele>
        <time>2012-08-02T08:40:20Z</time>
      </trkpt>
      <trkpt lat="46.43927" lon="11.58949">
        <ele>1763.2</ele>
        <time>2012-08-02T08:40:21Z</time>
      </trkpt>
      <trkpt lat="46.43937" lon="11.58961">
        <ele>1762.71</ele>
        <time>2012-08-02T08:40:22Z</time>
      </trkpt>
      <trkpt lat="46.4395" lon="11.58968">
        <ele>1763.2</ele>
        <time>2012-08-02T08:40:23Z</time>
      </trkpt>
      <trkpt lat="46.43964" lon="11.5897">
        <ele>1763.2</ele>
        <time>2012-08-02T08:40:24Z</time>
      </trkpt>
      <trkpt lat="46.4398" lon="11.58967">
        <ele>1763.2</ele>
        <time>2012-08-02T08:40:25Z</time>
      </trkpt>
      <trkpt lat="46.43994" lon="11.58957">
        <ele>1762.71</ele>
        <time>2012-08-02T08:40:26Z</time>
      </trkpt>
      <trkpt lat="46.44007" lon="11.58943">
        <ele>1762.71</ele>
        <time>2012-08-02T08:40:27Z</time>
      </trkpt>
      <trkpt lat="46.44019" lon="11.58929">
        <ele>1761.75</ele>
        <time>2012-08-02T08:40:28Z</time>
      </trkpt>
      <trkpt lat="46.44038" lon="11.58912">
        <ele>1758.87</ele>
        <time>2012-08-02T08:40:30Z</time>
      </trkpt>
      <trkpt lat="46.44048" lon="11.58909">
        <ele>1758.39</ele>
        <time>2012-08-02T08:40:31Z</time>
      </trkpt>
      <trkpt lat="46.44058" lon="11.5891">
        <ele>1758.39</ele>
        <time>2012-08-02T08:40:32Z</time>
      </trkpt>
      <trkpt lat="46.44067" lon="11.58916">
        <ele>1758.39</ele>
        <time>2012-08-02T08:40:33Z</time>
      </trkpt>
      <trkpt lat="46.44073" lon="11.58927">
        <ele>1757.91</ele>
        <time>2012-08-02T08:40:34Z</time>
      </trkpt>
      <trkpt lat="46.44077" lon="11.58943">
        <ele>1757.43</ele>
        <time>2012-08-02T08:40:35Z</time>
      </trkpt>
      <trkpt lat="46.4408" lon="11.58959">
        <ele>1756.95</ele>
        <time>2012-08-02T08:40:36Z</time>
      </trkpt>
      <trkpt lat="46.44085" lon="11.58973">
        <ele>1756.47</ele>
        <time>2012-08-02T08:40:37Z</time>
      </trkpt>
      <trkpt lat="46.44092" lon="11.58984">
        <ele>1755.5</ele>
        <time>2012-08-02T08:40:38Z</time>
      </trkpt>
      <trkpt lat="46.441" lon="11.58992">
        <ele>1755.99</ele>
        <time>2012-08-02T08:40:39Z</time>
      </trkpt>
      <trkpt lat="46.44111" lon="11.58997">
        <ele>1755.99</ele>
        <time>2012-08-02T08:40:40Z</time>
      </trkpt>
      <trkpt lat="46.44122" lon="11.58999">
        <ele>1755.5</ele>
        <time>2012-08-02T08:40:41Z</time>
      </trkpt>
      <trkpt lat="46.44134" lon="11.59">
        <ele>1755.5</ele>
        <time>2012-08-02T08:40:42Z</time>
      </trkpt>
      <trkpt lat="46.44145" lon="11.59">
        <ele>1755.02</ele>
        <time>2012-08-02T08:40:43Z</time>
      </trkpt>
      <trkpt lat="46.44166" lon="11.58997">
        <ele>1753.58</ele>
        <time>2012-08-02T08:40:45Z</time>
      </trkpt>
      <trkpt lat="46.44176" lon="11.58992">
        <ele>1753.58</ele>
        <time>2012-08-02T08:40:46Z</time>
      </trkpt>
      <trkpt lat="46.44262" lon="11.58941">
        <ele>1750.22</ele>
        <time>2012-08-02T08:40:55Z</time>
      </trkpt>
      <trkpt lat="46.44271" lon="11.58938">
        <ele>1749.26</ele>
        <time>2012-08-02T08:40:56Z</time>
      </trkpt>
      <trkpt lat="46.44278" lon="11.58933">
        <ele>1750.22</ele>
        <time>2012-08-02T08:40:57Z</time>
      </trkpt>
      <trkpt lat="46.44374" lon="11.58875">
        <ele>1748.78</ele>
        <time>2012-08-02T08:41:06Z</time>
      </trkpt>
      <trkpt lat="46.44432" lon="11.58838">
        <ele>1746.37</ele>
        <time>2012-08-02T08:41:11Z</time>
      </trkpt>
      <trkpt lat="46.44445" lon="11.58835">
        <ele>1746.37</ele>
        <time>2012-08-02T08:41:12Z</time>
      </trkpt>
      <trkpt lat="46.44494" lon="11.58829">
        <ele>1743.97</ele>
        <time>2012-08-02T08:41:16Z</time>
      </trkpt>
      <trkpt lat="46.44516" lon="11.58829">
        <ele>1743.01</ele>
        <time>2012-08-02T08:41:18Z</time>
      </trkpt>
      <trkpt lat="46.44526" lon="11.58833">
        <ele>1742.53</ele>
        <time>2012-08-02T08:41:19Z</time>
      </trkpt>
      <trkpt lat="46.44536" lon="11.58841">
        <ele>1742.53</ele>
        <time>2012-08-02T08:41:20Z</time>
      </trkpt>
      <trkpt lat="46.44545" lon="11.58854">
        <ele>1742.53</ele>
        <time>2012-08-02T08:41:21Z</time>
      </trkpt>
      <trkpt lat="46.44553" lon="11.5887">
        <ele>1743.01</ele>
        <time>2012-08-02T08:41:22Z</time>
      </trkpt>
      <trkpt lat="46.44561" lon="11.58886">
        <ele>1742.53</ele>
        <time>2012-08-02T08:41:23Z</time>
      </trkpt>
      <trkpt lat="46.44579" lon="11.58913">
        <ele>1741.08</ele>
        <time>2012-08-02T08:41:25Z</time>
      </trkpt>
      <trkpt lat="46.44589" lon="11.58924">
        <ele>1740.6</ele>
        <time>2012-08-02T08:41:26Z</time>
      </trkpt>
      <trkpt lat="46.446" lon="11.58931">
        <ele>1740.12</ele>
        <time>2012-08-02T08:41:27Z</time>
      </trkpt>
      <trkpt lat="46.4461" lon="11.58936">
        <ele>1739.64</ele>
        <time>2012-08-02T08:41:28Z</time>
      </trkpt>
      <trkpt lat="46.4462" lon="11.5894">
        <ele>1738.68</ele>
        <time>2012-08-02T08:41:29Z</time>
      </trkpt>
      <trkpt lat="46.44629" lon="11.58947">
        <ele>1738.68</ele>
        <time>2012-08-02T08:41:30Z</time>
      </trkpt>
      <trkpt lat="46.44636" lon="11.58959">
        <ele>1738.68</ele>
        <time>2012-08-02T08:41:31Z</time>
      </trkpt>
      <trkpt lat="46.4464" lon="11.58974">
        <ele>1737.72</ele>
        <time>2012-08-02T08:41:32Z</time>
      </trkpt>
      <trkpt lat="46.44644" lon="11.58987">
        <ele>1737.72</ele>
        <time>2012-08-02T08:41:33Z</time>
      </trkpt>
      <trkpt lat="46.4465" lon="11.58999">
        <ele>1736.28</ele>
        <time>2012-08-02T08:41:34Z</time>
      </trkpt>
      <trkpt lat="46.44657" lon="11.59007">
        <ele>1736.28</ele>
        <time>2012-08-02T08:41:35Z</time>
      </trkpt>
      <trkpt lat="46.44666" lon="11.59011">
        <ele>1735.32</ele>
        <time>2012-08-02T08:41:36Z</time>
      </trkpt>
      <trkpt lat="46.44674" lon="11.59011">
        <ele>1735.32</ele>
        <time>2012-08-02T08:41:37Z</time>
      </trkpt>
      <trkpt lat="46.44682" lon="11.59006">
        <ele>1735.32</ele>
        <time>2012-08-02T08:41:38Z</time>
      </trkpt>
      <trkpt lat="46.44688" lon="11.58997">
        <ele>1735.8</ele>
        <time>2012-08-02T08:41:39Z</time>
      </trkpt>
      <trkpt lat="46.44692" lon="11.58982">
        <ele>1735.8</ele>
        <time>2012-08-02T08:41:40Z</time>
      </trkpt>
      <trkpt lat="46.44695" lon="11.58964">
        <ele>1735.8</ele>
        <time>2012-08-02T08:41:41Z</time>
      </trkpt>
      <trkpt lat="46.44697" lon="11.58947">
        <ele>1735.8</ele>
        <time>2012-08-02T08:41:42Z</time>
      </trkpt>
      <trkpt lat="46.44698" lon="11.5893">
        <ele>1735.32</ele>
        <time>2012-08-02T08:41:43Z</time>
      </trkpt>
      <trkpt lat="46.44699" lon="11.58914">
        <ele>1735.32</ele>
        <time>2012-08-02T08:41:44Z</time>
      </trkpt>
      <trkpt lat="46.44699" lon="11.58897">
        <ele>1734.84</ele>
        <time>2012-08-02T08:41:45Z</time>
      </trkpt>
      <trkpt lat="46.44696" lon="11.58862">
        <ele>1733.88</ele>
        <time>2012-08-02T08:41:47Z</time>
      </trkpt>
      <trkpt lat="46.44698" lon="11.58845">
        <ele>1732.91</ele>
        <time>2012-08-02T08:41:48Z</time>
      </trkpt>
      <trkpt lat="46.44701" lon="11.5883">
        <ele>1732.91</ele>
        <time>2012-08-02T08:41:49Z</time>
      </trkpt>
      <trkpt lat="46.44707" lon="11.58815">
        <ele>1732.91</ele>
        <time>2012-08-02T08:41:50Z</time>
      </trkpt>
      <trkpt lat="46.44716" lon="11.58802">
        <ele>1731.95</ele>
        <time>2012-08-02T08:41:51Z</time>
      </trkpt>
      <trkpt lat="46.44724" lon="11.58789">
        <ele>1731.95</ele>
        <time>2012-08-02T08:41:52Z</time>
      </trkpt>
      <trkpt lat="46.44776" lon="11.58703">
        <ele>1729.55</ele>
        <time>2012-08-02T08:41:58Z</time>
      </trkpt>
      <trkpt lat="46.44785" lon="11.58692">
        <ele>1728.59</ele>
        <time>2012-08-02T08:41:59Z</time>
      </trkpt>
      <trkpt lat="46.44796" lon="11.58681">
        <ele>1728.59</ele>
        <time>2012-08-02T08:42:00Z</time>
      </trkpt>
      <trkpt lat="46.44807" lon="11.58672">
        <ele>1728.11</ele>
        <time>2012-08-02T08:42:01Z</time>
      </trkpt>
      <trkpt lat="46.44818" lon="11.58664">
        <ele>1728.11</ele>
        <time>2012-08-02T08:42:02Z</time>
      </trkpt>
      <trkpt lat="46.44861" lon="11.58636">
        <ele>1726.67</ele>
        <time>2012-08-02T08:42:06Z</time>
      </trkpt>
      <trkpt lat="46.44871" lon="11.58633">
        <ele>1726.18</ele>
        <time>2012-08-02T08:42:07Z</time>
      </trkpt>
      <trkpt lat="46.4488" lon="11.58635">
        <ele>1725.7</ele>
        <time>2012-08-02T08:42:08Z</time>
      </trkpt>
      <trkpt lat="46.44888" lon="11.5864">
        <ele>1725.7</ele>
        <time>2012-08-02T08:42:09Z</time>
      </trkpt>
      <trkpt lat="46.44895" lon="11.58649">
        <ele>1725.22</ele>
        <time>2012-08-02T08:42:10Z</time>
      </trkpt>
      <trkpt lat="46.449" lon="11.58661">
        <ele>1724.74</ele>
        <time>2012-08-02T08:42:11Z</time>
      </trkpt>
      <trkpt lat="46.44906" lon="11.58674">
        <ele>1724.26</ele>
        <time>2012-08-02T08:42:12Z</time>
      </trkpt>
      <trkpt lat="46.44913" lon="11.58685">
        <ele>1723.78</ele>
        <time>2012-08-02T08:42:13Z</time>
      </trkpt>
      <trkpt lat="46.44923" lon="11.58692">
        <ele>1723.3</ele>
        <time>2012-08-02T08:42:14Z</time>
      </trkpt>
      <trkpt lat="46.44933" lon="11.58694">
        <ele>1723.3</ele>
        <time>2012-08-02T08:42:15Z</time>
      </trkpt>
      <trkpt lat="46.44944" lon="11.58689">
        <ele>1723.78</ele>
        <time>2012-08-02T08:42:16Z</time>
      </trkpt>
      <trkpt lat="46.44954" lon="11.5868">
        <ele>1723.3</ele>
        <time>2012-08-02T08:42:17Z</time>
      </trkpt>
      <trkpt lat="46.44963" lon="11.5867">
        <ele>1723.3</ele>
        <time>2012-08-02T08:42:18Z</time>
      </trkpt>
      <trkpt lat="46.44973" lon="11.5866">
        <ele>1723.3</ele>
        <time>2012-08-02T08:42:19Z</time>
      </trkpt>
      <trkpt lat="46.44984" lon="11.58653">
        <ele>1722.34</ele>
        <time>2012-08-02T08:42:20Z</time>
      </trkpt>
      <trkpt lat="46.44997" lon="11.58651">
        <ele>1722.34</ele>
        <time>2012-08-02T08:42:21Z</time>
      </trkpt>
      <trkpt lat="46.45009" lon="11.58652">
        <ele>1721.86</ele>
        <time>2012-08-02T08:42:22Z</time>
      </trkpt>
      <trkpt lat="46.45021" lon="11.58655">
        <ele>1721.86</ele>
        <time>2012-08-02T08:42:23Z</time>
      </trkpt>
      <trkpt lat="46.45033" lon="11.58661">
        <ele>1720.42</ele>
        <time>2012-08-02T08:42:24Z</time>
      </trkpt>
      <trkpt lat="46.45044" lon="11.58668">
        <ele>1720.9</ele>
        <time>2012-08-02T08:42:25Z</time>
      </trkpt>
      <trkpt lat="46.45054" lon="11.58676">
        <ele>1720.42</ele>
        <time>2012-08-02T08:42:26Z</time>
      </trkpt>
      <trkpt lat="46.45066" lon="11.58684">
        <ele>1719.94</ele>
        <time>2012-08-02T08:42:27Z</time>
      </trkpt>
      <trkpt lat="46.45077" lon="11.58689">
        <ele>1719.94</ele>
        <time>2012-08-02T08:42:28Z</time>
      </trkpt>
      <trkpt lat="46.45089" lon="11.58694">
        <ele>1719.94</ele>
        <time>2012-08-02T08:42:29Z</time>
      </trkpt>
      <trkpt lat="46.45103" lon="11.58697">
        <ele>1718.97</ele>
        <time>2012-08-02T08:42:30Z</time>
      </trkpt>
      <trkpt lat="46.45116" lon="11.58699">
        <ele>1719.46</ele>
        <time>2012-08-02T08:42:31Z</time>
      </trkpt>
      <trkpt lat="46.45166" lon="11.58702">
        <ele>1716.09</ele>
        <time>2012-08-02T08:42:35Z</time>
      </trkpt>
      <trkpt lat="46.45177" lon="11.58699">
        <ele>1716.09</ele>
        <time>2012-08-02T08:42:36Z</time>
      </trkpt>
      <trkpt lat="46.45188" lon="11.58694">
        <ele>1716.09</ele>
        <time>2012-08-02T08:42:37Z</time>
      </trkpt>
      <trkpt lat="46.45198" lon="11.58685">
        <ele>1715.13</ele>
        <time>2012-08-02T08:42:38Z</time>
      </trkpt>
      <trkpt lat="46.45208" lon="11.58674">
        <ele>1715.13</ele>
        <time>2012-08-02T08:42:39Z</time>
      </trkpt>
      <trkpt lat="46.45218" lon="11.58661">
        <ele>1715.13</ele>
        <time>2012-08-02T08:42:40Z</time>
      </trkpt>
      <trkpt lat="46.45229" lon="11.58645">
        <ele>1715.13</ele>
        <time>2012-08-02T08:42:41Z</time>
      </trkpt>
      <trkpt lat="46.45272" lon="11.58578">
        <ele>1712.25</ele>
        <time>2012-08-02T08:42:45Z</time>
      </trkpt>
      <trkpt lat="46.45301" lon="11.58536">
        <ele>1709.84</ele>
        <time>2012-08-02T08:42:48Z</time>
      </trkpt>
      <trkpt lat="46.45312" lon="11.58525">
        <ele>1709.36</ele>
        <time>2012-08-02T08:42:49Z</time>
      </trkpt>
      <trkpt lat="46.45324" lon="11.58516">
        <ele>1708.88</ele>
        <time>2012-08-02T08:42:50Z</time>
      </trkpt>
      <trkpt lat="46.45337" lon="11.5851">
        <ele>1707.92</ele>
        <time>2012-08-02T08:42:51Z</time>
      </trkpt>
      <trkpt lat="46.4535" lon="11.58507">
        <ele>1707.44</ele>
        <time>2012-08-02T08:42:52Z</time>
      </trkpt>
      <trkpt lat="46.45364" lon="11.58505">
        <ele>1706.96</ele>
        <time>2012-08-02T08:42:53Z</time>
      </trkpt>
      <trkpt lat="46.45378" lon="11.58506">
        <ele>1706.96</ele>
        <time>2012-08-02T08:42:54Z</time>
      </trkpt>
      <trkpt lat="46.45392" lon="11.58507">
        <ele>1705.52</ele>
        <time>2012-08-02T08:42:55Z</time>
      </trkpt>
      <trkpt lat="46.45405" lon="11.58509">
        <ele>1705.04</ele>
        <time>2012-08-02T08:42:56Z</time>
      </trkpt>
      <trkpt lat="46.45473" lon="11.58522">
        <ele>1701.67</ele>
        <time>2012-08-02T08:43:02Z</time>
      </trkpt>
      <trkpt lat="46.45483" lon="11.58527">
        <ele>1701.19</ele>
        <time>2012-08-02T08:43:03Z</time>
      </trkpt>
      <trkpt lat="46.45492" lon="11.58535">
        <ele>1700.23</ele>
        <time>2012-08-02T08:43:04Z</time>
      </trkpt>
      <trkpt lat="46.455" lon="11.58546">
        <ele>1700.71</ele>
        <time>2012-08-02T08:43:05Z</time>
      </trkpt>
      <trkpt lat="46.45507" lon="11.58559">
        <ele>1700.23</ele>
        <time>2012-08-02T08:43:06Z</time>
      </trkpt>
      <trkpt lat="46.45513" lon="11.58571">
        <ele>1699.75</ele>
        <time>2012-08-02T08:43:07Z</time>
      </trkpt>
      <trkpt lat="46.45521" lon="11.5858">
        <ele>1698.79</ele>
        <time>2012-08-02T08:43:08Z</time>
      </trkpt>
      <trkpt lat="46.4553" lon="11.58587">
        <ele>1697.34</ele>
        <time>2012-08-02T08:43:09Z</time>
      </trkpt>
      <trkpt lat="46.45539" lon="11.5859">
        <ele>1697.34</ele>
        <time>2012-08-02T08:43:10Z</time>
      </trkpt>
      <trkpt lat="46.45549" lon="11.58589">
        <ele>1697.34</ele>
        <time>2012-08-02T08:43:11Z</time>
      </trkpt>
      <trkpt lat="46.45558" lon="11.58584">
        <ele>1696.86</ele>
        <time>2012-08-02T08:43:12Z</time>
      </trkpt>
      <trkpt lat="46.45567" lon="11.58577">
        <ele>1695.9</ele>
        <time>2012-08-02T08:43:13Z</time>
      </trkpt>
      <trkpt lat="46.45576" lon="11.58575">
        <ele>1694.46</ele>
        <time>2012-08-02T08:43:14Z</time>
      </trkpt>
      <trkpt lat="46.45585" lon="11.58576">
        <ele>1694.46</ele>
        <time>2012-08-02T08:43:15Z</time>
      </trkpt>
      <trkpt lat="46.45592" lon="11.58582">
        <ele>1693.98</ele>
        <time>2012-08-02T08:43:16Z</time>
      </trkpt>
      <trkpt lat="46.45597" lon="11.58591">
        <ele>1693.5</ele>
        <time>2012-08-02T08:43:17Z</time>
      </trkpt>
      <trkpt lat="46.456" lon="11.58603">
        <ele>1693.02</ele>
        <time>2012-08-02T08:43:18Z</time>
      </trkpt>
      <trkpt lat="46.456" lon="11.58616">
        <ele>1692.54</ele>
        <time>2012-08-02T08:43:19Z</time>
      </trkpt>
      <trkpt lat="46.45596" lon="11.58628">
        <ele>1692.06</ele>
        <time>2012-08-02T08:43:20Z</time>
      </trkpt>
      <trkpt lat="46.45591" lon="11.58639">
        <ele>1691.58</ele>
        <time>2012-08-02T08:43:21Z</time>
      </trkpt>
      <trkpt lat="46.45585" lon="11.58648">
        <ele>1691.58</ele>
        <time>2012-08-02T08:43:22Z</time>
      </trkpt>
      <trkpt lat="46.45576" lon="11.58658">
        <ele>1690.62</ele>
        <time>2012-08-02T08:43:23Z</time>
      </trkpt>
      <trkpt lat="46.45565" lon="11.58668">
        <ele>1689.17</ele>
        <time>2012-08-02T08:43:24Z</time>
      </trkpt>
      <trkpt lat="46.45555" lon="11.58682">
        <ele>1688.69</ele>
        <time>2012-08-02T08:43:25Z</time>
      </trkpt>
      <trkpt lat="46.45546" lon="11.58697">
        <ele>1688.21</ele>
        <time>2012-08-02T08:43:26Z</time>
      </trkpt>
      <trkpt lat="46.45539" lon="11.58713">
        <ele>1686.77</ele>
        <time>2012-08-02T08:43:27Z</time>
      </trkpt>
      <trkpt lat="46.45532" lon="11.58729">
        <ele>1686.29</ele>
        <time>2012-08-02T08:43:28Z</time>
      </trkpt>
      <trkpt lat="46.45515" lon="11.58779">
        <ele>1682.44</ele>
        <time>2012-08-02T08:43:31Z</time>
      </trkpt>
      <trkpt lat="46.45503" lon="11.58828">
        <ele>1679.08</ele>
        <time>2012-08-02T08:43:34Z</time>
      </trkpt>
      <trkpt lat="46.455" lon="11.58845">
        <ele>1678.12</ele>
        <time>2012-08-02T08:43:35Z</time>
      </trkpt>
      <trkpt lat="46.45494" lon="11.58896">
        <ele>1676.2</ele>
        <time>2012-08-02T08:43:38Z</time>
      </trkpt>
      <trkpt lat="46.45491" lon="11.58946">
        <ele>1673.31</ele>
        <time>2012-08-02T08:43:41Z</time>
      </trkpt>
      <trkpt lat="46.45494" lon="11.58963">
        <ele>1672.83</ele>
        <time>2012-08-02T08:43:42Z</time>
      </trkpt>
      <trkpt lat="46.45499" lon="11.58981">
        <ele>1672.83</ele>
        <time>2012-08-02T08:43:43Z</time>
      </trkpt>
      <trkpt lat="46.45511" lon="11.59017">
        <ele>1668.99</ele>
        <time>2012-08-02T08:43:45Z</time>
      </trkpt>
      <trkpt lat="46.45519" lon="11.59047">
        <ele>1666.1</ele>
        <time>2012-08-02T08:43:47Z</time>
      </trkpt>
      <trkpt lat="46.45519" lon="11.59063">
        <ele>1665.14</ele>
        <time>2012-08-02T08:43:48Z</time>
      </trkpt>
      <trkpt lat="46.45516" lon="11.59078">
        <ele>1664.66</ele>
        <time>2012-08-02T08:43:49Z</time>
      </trkpt>
      <trkpt lat="46.45511" lon="11.59093">
        <ele>1663.7</ele>
        <time>2012-08-02T08:43:50Z</time>
      </trkpt>
      <trkpt lat="46.45505" lon="11.59105">
        <ele>1662.74</ele>
        <time>2012-08-02T08:43:51Z</time>
      </trkpt>
      <trkpt lat="46.45498" lon="11.59115">
        <ele>1662.26</ele>
        <time>2012-08-02T08:43:52Z</time>
      </trkpt>
      <trkpt lat="46.45492" lon="11.59125">
        <ele>1661.3</ele>
        <time>2012-08-02T08:43:53Z</time>
      </trkpt>
      <trkpt lat="46.45487" lon="11.59134">
        <ele>1660.33</ele>
        <time>2012-08-02T08:43:54Z</time>
      </trkpt>
      <trkpt lat="46.45485" lon="11.59144">
        <ele>1659.85</ele>
        <time>2012-08-02T08:43:55Z</time>
      </trkpt>
      <trkpt lat="46.45484" lon="11.59151">
        <ele>1659.37</ele>
        <time>2012-08-02T08:43:56Z</time>
      </trkpt>
      <trkpt lat="46.45484" lon="11.59156">
        <ele>1658.89</ele>
        <time>2012-08-02T08:43:57Z</time>
      </trkpt>
      <trkpt lat="46.45485" lon="11.59157">
        <ele>1658.89</ele>
        <time>2012-08-02T08:43:58Z</time>
      </trkpt>
      <trkpt lat="46.45487" lon="11.59154">
        <ele>1658.41</ele>
        <time>2012-08-02T08:43:59Z</time>
      </trkpt>
      <trkpt lat="46.4549" lon="11.59149">
        <ele>1657.45</ele>
        <time>2012-08-02T08:44:00Z</time>
      </trkpt>
      <trkpt lat="46.45493" lon="11.59142">
        <ele>1656.01</ele>
        <time>2012-08-02T08:44:01Z</time>
      </trkpt>
      <trkpt lat="46.455" lon="11.59125">
        <ele>1655.05</ele>
        <time>2012-08-02T08:44:03Z</time>
      </trkpt>
      <trkpt lat="46.45507" lon="11.59115">
        <ele>1653.6</ele>
        <time>2012-08-02T08:44:04Z</time>
      </trkpt>
      <trkpt lat="46.45519" lon="11.591">
        <ele>1651.68</ele>
        <time>2012-08-02T08:44:06Z</time>
      </trkpt>
      <trkpt lat="46.4555" lon="11.59079">
        <ele>1650.24</ele>
        <time>2012-08-02T08:44:08Z</time>
      </trkpt>
      <trkpt lat="46.45569" lon="11.59073">
        <ele>1647.84</ele>
        <time>2012-08-02T08:44:09Z</time>
      </trkpt>
      <trkpt lat="46.45586" lon="11.59069">
        <ele>1646.4</ele>
        <time>2012-08-02T08:44:10Z</time>
      </trkpt>
      <trkpt lat="46.45599" lon="11.59064">
        <ele>1644.95</ele>
        <time>2012-08-02T08:44:11Z</time>
      </trkpt>
      <trkpt lat="46.45612" lon="11.59065">
        <ele>1644.47</ele>
        <time>2012-08-02T08:44:12Z</time>
      </trkpt>
      <trkpt lat="46.45636" lon="11.59085">
        <ele>1643.99</ele>
        <time>2012-08-02T08:44:14Z</time>
      </trkpt>
      <trkpt lat="46.45647" lon="11.59098">
        <ele>1642.07</ele>
        <time>2012-08-02T08:44:15Z</time>
      </trkpt>
      <trkpt lat="46.45657" lon="11.59112">
        <ele>1641.59</ele>
        <time>2012-08-02T08:44:16Z</time>
      </trkpt>
      <trkpt lat="46.45666" lon="11.59128">
        <ele>1640.15</ele>
        <time>2012-08-02T08:44:17Z</time>
      </trkpt>
      <trkpt lat="46.45675" lon="11.59146">
        <ele>1639.19</ele>
        <time>2012-08-02T08:44:18Z</time>
      </trkpt>
      <trkpt lat="46.45684" lon="11.59165">
        <ele>1638.22</ele>
        <time>2012-08-02T08:44:19Z</time>
      </trkpt>
      <trkpt lat="46.45689" lon="11.59185">
        <ele>1637.74</ele>
        <time>2012-08-02T08:44:20Z</time>
      </trkpt>
      <trkpt lat="46.45692" lon="11.59205">
        <ele>1636.78</ele>
        <time>2012-08-02T08:44:21Z</time>
      </trkpt>
      <trkpt lat="46.45694" lon="11.59224">
        <ele>1634.86</ele>
        <time>2012-08-02T08:44:22Z</time>
      </trkpt>
      <trkpt lat="46.45713" lon="11.59302">
        <ele>1631.49</ele>
        <time>2012-08-02T08:44:26Z</time>
      </trkpt>
      <trkpt lat="46.45718" lon="11.59319">
        <ele>1631.49</ele>
        <time>2012-08-02T08:44:27Z</time>
      </trkpt>
      <trkpt lat="46.45727" lon="11.59354">
        <ele>1629.09</ele>
        <time>2012-08-02T08:44:29Z</time>
      </trkpt>
      <trkpt lat="46.45729" lon="11.59372">
        <ele>1628.61</ele>
        <time>2012-08-02T08:44:30Z</time>
      </trkpt>
      <trkpt lat="46.45729" lon="11.59391">
        <ele>1627.17</ele>
        <time>2012-08-02T08:44:31Z</time>
      </trkpt>
      <trkpt lat="46.45728" lon="11.59409">
        <ele>1624.77</ele>
        <time>2012-08-02T08:44:32Z</time>
      </trkpt>
      <trkpt lat="46.45727" lon="11.59427">
        <ele>1623.8</ele>
        <time>2012-08-02T08:44:33Z</time>
      </trkpt>
      <trkpt lat="46.45724" lon="11.59494">
        <ele>1620.92</ele>
        <time>2012-08-02T08:44:37Z</time>
      </trkpt>
      <trkpt lat="46.45726" lon="11.59508">
        <ele>1619</ele>
        <time>2012-08-02T08:44:38Z</time>
      </trkpt>
      <trkpt lat="46.45729" lon="11.59519">
        <ele>1619</ele>
        <time>2012-08-02T08:44:39Z</time>
      </trkpt>
      <trkpt lat="46.45734" lon="11.59528">
        <ele>1618.04</ele>
        <time>2012-08-02T08:44:40Z</time>
      </trkpt>
      <trkpt lat="46.45741" lon="11.59534">
        <ele>1618.04</ele>
        <time>2012-08-02T08:44:41Z</time>
      </trkpt>
      <trkpt lat="46.45749" lon="11.59538">
        <ele>1616.59</ele>
        <time>2012-08-02T08:44:42Z</time>
      </trkpt>
      <trkpt lat="46.45757" lon="11.59541">
        <ele>1616.59</ele>
        <time>2012-08-02T08:44:43Z</time>
      </trkpt>
      <trkpt lat="46.45765" lon="11.59542">
        <ele>1615.63</ele>
        <time>2012-08-02T08:44:44Z</time>
      </trkpt>
      <trkpt lat="46.45773" lon="11.59539">
        <ele>1614.67</ele>
        <time>2012-08-02T08:44:45Z</time>
      </trkpt>
      <trkpt lat="46.45781" lon="11.59533">
        <ele>1613.71</ele>
        <time>2012-08-02T08:44:46Z</time>
      </trkpt>
      <trkpt lat="46.45787" lon="11.59523">
        <ele>1613.71</ele>
        <time>2012-08-02T08:44:47Z</time>
      </trkpt>
      <trkpt lat="46.45793" lon="11.59513">
        <ele>1613.23</ele>
        <time>2012-08-02T08:44:48Z</time>
      </trkpt>
      <trkpt lat="46.45816" lon="11.59473">
        <ele>1609.86</ele>
        <time>2012-08-02T08:44:53Z</time>
      </trkpt>
      <trkpt lat="46.4582" lon="11.59467">
        <ele>1609.38</ele>
        <time>2012-08-02T08:44:54Z</time>
      </trkpt>
      <trkpt lat="46.45852" lon="11.59428">
        <ele>1606.02</ele>
        <time>2012-08-02T08:44:59Z</time>
      </trkpt>
      <trkpt lat="46.45883" lon="11.594">
        <ele>1603.14</ele>
        <time>2012-08-02T08:45:03Z</time>
      </trkpt>
      <trkpt lat="46.45889" lon="11.59391">
        <ele>1602.17</ele>
        <time>2012-08-02T08:45:04Z</time>
      </trkpt>
      <trkpt lat="46.45894" lon="11.59382">
        <ele>1601.69</ele>
        <time>2012-08-02T08:45:05Z</time>
      </trkpt>
      <trkpt lat="46.45899" lon="11.59374">
        <ele>1601.21</ele>
        <time>2012-08-02T08:45:06Z</time>
      </trkpt>
      <trkpt lat="46.45921" lon="11.5934">
        <ele>1598.33</ele>
        <time>2012-08-02T08:45:10Z</time>
      </trkpt>
      <trkpt lat="46.45929" lon="11.59333">
        <ele>1597.85</ele>
        <time>2012-08-02T08:45:11Z</time>
      </trkpt>
      <trkpt lat="46.45937" lon="11.59328">
        <ele>1596.89</ele>
        <time>2012-08-02T08:45:12Z</time>
      </trkpt>
      <trkpt lat="46.45946" lon="11.59325">
        <ele>1595.93</ele>
        <time>2012-08-02T08:45:13Z</time>
      </trkpt>
      <trkpt lat="46.45955" lon="11.59324">
        <ele>1595.45</ele>
        <time>2012-08-02T08:45:14Z</time>
      </trkpt>
      <trkpt lat="46.45963" lon="11.59326">
        <ele>1594.96</ele>
        <time>2012-08-02T08:45:15Z</time>
      </trkpt>
      <trkpt lat="46.45971" lon="11.59327">
        <ele>1594.96</ele>
        <time>2012-08-02T08:45:16Z</time>
      </trkpt>
      <trkpt lat="46.46519" lon="11.59174">
        <ele>1520.94</ele>
        <time>2012-08-02T08:47:38Z</time>
      </trkpt>
      <trkpt lat="46.46544" lon="11.59136">
        <ele>1517.58</ele>
        <time>2012-08-02T08:47:41Z</time>
      </trkpt>
      <trkpt lat="46.46559" lon="11.5911">
        <ele>1516.14</ele>
        <time>2012-08-02T08:47:44Z</time>
      </trkpt>
      <trkpt lat="46.46586" lon="11.59002">
        <ele>1513.73</ele>
        <time>2012-08-02T08:47:50Z</time>
      </trkpt>
      <trkpt lat="46.46602" lon="11.5894">
        <ele>1509.41</ele>
        <time>2012-08-02T08:47:53Z</time>
      </trkpt>
      <trkpt lat="46.46612" lon="11.58902">
        <ele>1506.04</ele>
        <time>2012-08-02T08:47:55Z</time>
      </trkpt>
      <trkpt lat="46.46623" lon="11.58866">
        <ele>1502.68</ele>
        <time>2012-08-02T08:47:57Z</time>
      </trkpt>
      <trkpt lat="46.4663" lon="11.58851">
        <ele>1500.76</ele>
        <time>2012-08-02T08:47:58Z</time>
      </trkpt>
      <trkpt lat="46.46638" lon="11.58837">
        <ele>1498.83</ele>
        <time>2012-08-02T08:47:59Z</time>
      </trkpt>
      <trkpt lat="46.46647" lon="11.58824">
        <ele>1496.91</ele>
        <time>2012-08-02T08:48:00Z</time>
      </trkpt>
      <trkpt lat="46.46658" lon="11.58814">
        <ele>1496.43</ele>
        <time>2012-08-02T08:48:01Z</time>
      </trkpt>
      <trkpt lat="46.46669" lon="11.58803">
        <ele>1494.99</ele>
        <time>2012-08-02T08:48:02Z</time>
      </trkpt>
      <trkpt lat="46.46679" lon="11.58792">
        <ele>1493.55</ele>
        <time>2012-08-02T08:48:03Z</time>
      </trkpt>
      <trkpt lat="46.46689" lon="11.58778">
        <ele>1492.58</ele>
        <time>2012-08-02T08:48:04Z</time>
      </trkpt>
      <trkpt lat="46.46697" lon="11.58764">
        <ele>1490.66</ele>
        <time>2012-08-02T08:48:05Z</time>
      </trkpt>
      <trkpt lat="46.46718" lon="11.58711">
        <ele>1486.82</ele>
        <time>2012-08-02T08:48:08Z</time>
      </trkpt>
      <trkpt lat="46.46723" lon="11.58692">
        <ele>1485.37</ele>
        <time>2012-08-02T08:48:09Z</time>
      </trkpt>
      <trkpt lat="46.46725" lon="11.58673">
        <ele>1483.93</ele>
        <time>2012-08-02T08:48:10Z</time>
      </trkpt>
      <trkpt lat="46.46731" lon="11.58612">
        <ele>1478.16</ele>
        <time>2012-08-02T08:48:13Z</time>
      </trkpt>
      <trkpt lat="46.46734" lon="11.58592">
        <ele>1478.16</ele>
        <time>2012-08-02T08:48:14Z</time>
      </trkpt>
      <trkpt lat="46.46746" lon="11.58535">
        <ele>1472.88</ele>
        <time>2012-08-02T08:48:17Z</time>
      </trkpt>
      <trkpt lat="46.46752" lon="11.58517">
        <ele>1471.44</ele>
        <time>2012-08-02T08:48:18Z</time>
      </trkpt>
      <trkpt lat="46.46759" lon="11.585">
        <ele>1469.51</ele>
        <time>2012-08-02T08:48:19Z</time>
      </trkpt>
      <trkpt lat="46.46767" lon="11.58483">
        <ele>1468.55</ele>
        <time>2012-08-02T08:48:20Z</time>
      </trkpt>
      <trkpt lat="46.46776" lon="11.58468">
        <ele>1466.15</ele>
        <time>2012-08-02T08:48:21Z</time>
      </trkpt>
      <trkpt lat="46.46785" lon="11.58454">
        <ele>1464.71</ele>
        <time>2012-08-02T08:48:22Z</time>
      </trkpt>
      <trkpt lat="46.46795" lon="11.58442">
        <ele>1462.78</ele>
        <time>2012-08-02T08:48:23Z</time>
      </trkpt>
      <trkpt lat="46.46806" lon="11.58432">
        <ele>1461.82</ele>
        <time>2012-08-02T08:48:24Z</time>
      </trkpt>
      <trkpt lat="46.46818" lon="11.58425">
        <ele>1460.38</ele>
        <time>2012-08-02T08:48:25Z</time>
      </trkpt>
      <trkpt lat="46.4683" lon="11.58423">
        <ele>1458.94</ele>
        <time>2012-08-02T08:48:26Z</time>
      </trkpt>
      <trkpt lat="46.46843" lon="11.58423">
        <ele>1457.98</ele>
        <time>2012-08-02T08:48:27Z</time>
      </trkpt>
      <trkpt lat="46.46855" lon="11.58425">
        <ele>1456.05</ele>
        <time>2012-08-02T08:48:28Z</time>
      </trkpt>
      <trkpt lat="46.46867" lon="11.5843">
        <ele>1454.13</ele>
        <time>2012-08-02T08:48:29Z</time>
      </trkpt>
      <trkpt lat="46.46878" lon="11.58438">
        <ele>1452.69</ele>
        <time>2012-08-02T08:48:30Z</time>
      </trkpt>
      <trkpt lat="46.46886" lon="11.58451">
        <ele>1451.25</ele>
        <time>2012-08-02T08:48:31Z</time>
      </trkpt>
      <trkpt lat="46.46894" lon="11.58466">
        <ele>1449.81</ele>
        <time>2012-08-02T08:48:32Z</time>
      </trkpt>
      <trkpt lat="46.46899" lon="11.58483">
        <ele>1448.36</ele>
        <time>2012-08-02T08:48:33Z</time>
      </trkpt>
      <trkpt lat="46.46903" lon="11.585">
        <ele>1447.88</ele>
        <time>2012-08-02T08:48:34Z</time>
      </trkpt>
      <trkpt lat="46.46904" lon="11.58518">
        <ele>1445.96</ele>
        <time>2012-08-02T08:48:35Z</time>
      </trkpt>
      <trkpt lat="46.46907" lon="11.58545">
        <ele>1442.11</ele>
        <time>2012-08-02T08:48:37Z</time>
      </trkpt>
      <trkpt lat="46.46909" lon="11.58555">
        <ele>1441.63</ele>
        <time>2012-08-02T08:48:38Z</time>
      </trkpt>
      <trkpt lat="46.46914" lon="11.5856">
        <ele>1440.67</ele>
        <time>2012-08-02T08:48:39Z</time>
      </trkpt>
      <trkpt lat="46.4692" lon="11.5856">
        <ele>1440.67</ele>
        <time>2012-08-02T08:48:40Z</time>
      </trkpt>
      <trkpt lat="46.46925" lon="11.58554">
        <ele>1439.71</ele>
        <time>2012-08-02T08:48:41Z</time>
      </trkpt>
      <trkpt lat="46.46926" lon="11.58544">
        <ele>1439.71</ele>
        <time>2012-08-02T08:48:42Z</time>
      </trkpt>
      <trkpt lat="46.46925" lon="11.5853">
        <ele>1439.23</ele>
        <time>2012-08-02T08:48:43Z</time>
      </trkpt>
      <trkpt lat="46.46922" lon="11.58514">
        <ele>1438.75</ele>
        <time>2012-08-02T08:48:44Z</time>
      </trkpt>
      <trkpt lat="46.46919" lon="11.58498">
        <ele>1436.83</ele>
        <time>2012-08-02T08:48:45Z</time>
      </trkpt>
      <trkpt lat="46.46916" lon="11.58477">
        <ele>1435.39</ele>
        <time>2012-08-02T08:48:46Z</time>
      </trkpt>
      <trkpt lat="46.4691" lon="11.58436">
        <ele>1432.5</ele>
        <time>2012-08-02T08:48:48Z</time>
      </trkpt>
      <trkpt lat="46.46904" lon="11.58418">
        <ele>1431.06</ele>
        <time>2012-08-02T08:48:49Z</time>
      </trkpt>
      <trkpt lat="46.46896" lon="11.58402">
        <ele>1430.1</ele>
        <time>2012-08-02T08:48:50Z</time>
      </trkpt>
      <trkpt lat="46.46885" lon="11.58389">
        <ele>1429.14</ele>
        <time>2012-08-02T08:48:51Z</time>
      </trkpt>
      <trkpt lat="46.46873" lon="11.5838">
        <ele>1427.7</ele>
        <time>2012-08-02T08:48:52Z</time>
      </trkpt>
      <trkpt lat="46.4686" lon="11.58371">
        <ele>1425.77</ele>
        <time>2012-08-02T08:48:53Z</time>
      </trkpt>
      <trkpt lat="46.46849" lon="11.5836">
        <ele>1424.33</ele>
        <time>2012-08-02T08:48:54Z</time>
      </trkpt>
      <trkpt lat="46.46838" lon="11.5835">
        <ele>1422.41</ele>
        <time>2012-08-02T08:48:55Z</time>
      </trkpt>
      <trkpt lat="46.46819" lon="11.58332">
        <ele>1420</ele>
        <time>2012-08-02T08:48:57Z</time>
      </trkpt>
      <trkpt lat="46.46805" lon="11.58306">
        <ele>1416.64</ele>
        <time>2012-08-02T08:48:59Z</time>
      </trkpt>
      <trkpt lat="46.46797" lon="11.58293">
        <ele>1415.68</ele>
        <time>2012-08-02T08:49:00Z</time>
      </trkpt>
      <trkpt lat="46.46788" lon="11.58283">
        <ele>1414.72</ele>
        <time>2012-08-02T08:49:01Z</time>
      </trkpt>
      <trkpt lat="46.46777" lon="11.58276">
        <ele>1413.76</ele>
        <time>2012-08-02T08:49:02Z</time>
      </trkpt>
      <trkpt lat="46.46764" lon="11.58274">
        <ele>1413.28</ele>
        <time>2012-08-02T08:49:03Z</time>
      </trkpt>
      <trkpt lat="46.46751" lon="11.58275">
        <ele>1412.31</ele>
        <time>2012-08-02T08:49:04Z</time>
      </trkpt>
      <trkpt lat="46.46738" lon="11.58277">
        <ele>1410.87</ele>
        <time>2012-08-02T08:49:05Z</time>
      </trkpt>
      <trkpt lat="46.46726" lon="11.58282">
        <ele>1409.91</ele>
        <time>2012-08-02T08:49:06Z</time>
      </trkpt>
      <trkpt lat="46.46715" lon="11.58289">
        <ele>1408.95</ele>
        <time>2012-08-02T08:49:07Z</time>
      </trkpt>
      <trkpt lat="46.46705" lon="11.58298">
        <ele>1407.51</ele>
        <time>2012-08-02T08:49:08Z</time>
      </trkpt>
      <trkpt lat="46.46683" lon="11.58324">
        <ele>1404.14</ele>
        <time>2012-08-02T08:49:11Z</time>
      </trkpt>
      <trkpt lat="46.46677" lon="11.5833">
        <ele>1403.18</ele>
        <time>2012-08-02T08:49:12Z</time>
      </trkpt>
      <trkpt lat="46.46671" lon="11.58332">
        <ele>1401.74</ele>
        <time>2012-08-02T08:49:13Z</time>
      </trkpt>
      <trkpt lat="46.46668" lon="11.58327">
        <ele>1401.26</ele>
        <time>2012-08-02T08:49:14Z</time>
      </trkpt>
      <trkpt lat="46.46666" lon="11.58319">
        <ele>1401.26</ele>
        <time>2012-08-02T08:49:15Z</time>
      </trkpt>
      <trkpt lat="46.46666" lon="11.58309">
        <ele>1400.78</ele>
        <time>2012-08-02T08:49:16Z</time>
      </trkpt>
      <trkpt lat="46.46668" lon="11.58299">
        <ele>1400.78</ele>
        <time>2012-08-02T08:49:17Z</time>
      </trkpt>
      <trkpt lat="46.46672" lon="11.58288">
        <ele>1400.3</ele>
        <time>2012-08-02T08:49:18Z</time>
      </trkpt>
      <trkpt lat="46.46679" lon="11.58273">
        <ele>1400.3</ele>
        <time>2012-08-02T08:49:19Z</time>
      </trkpt>
      <trkpt lat="46.4669" lon="11.58255">
        <ele>1400.3</ele>
        <time>2012-08-02T08:49:20Z</time>
      </trkpt>
      <trkpt lat="46.46702" lon="11.58232">
        <ele>1400.3</ele>
        <time>2012-08-02T08:49:21Z</time>
      </trkpt>
      <trkpt lat="46.46712" lon="11.58209">
        <ele>1396.93</ele>
        <time>2012-08-02T08:49:22Z</time>
      </trkpt>
      <trkpt lat="46.4672" lon="11.58184">
        <ele>1395.01</ele>
        <time>2012-08-02T08:49:23Z</time>
      </trkpt>
      <trkpt lat="46.46731" lon="11.5816">
        <ele>1392.13</ele>
        <time>2012-08-02T08:49:24Z</time>
      </trkpt>
      <trkpt lat="46.46736" lon="11.58139">
        <ele>1389.72</ele>
        <time>2012-08-02T08:49:25Z</time>
      </trkpt>
      <trkpt lat="46.46742" lon="11.58121">
        <ele>1387.8</ele>
        <time>2012-08-02T08:49:26Z</time>
      </trkpt>
      <trkpt lat="46.4675" lon="11.58107">
        <ele>1385.4</ele>
        <time>2012-08-02T08:49:27Z</time>
      </trkpt>
      <trkpt lat="46.4676" lon="11.58099">
        <ele>1383.96</ele>
        <time>2012-08-02T08:49:28Z</time>
      </trkpt>
      <trkpt lat="46.46773" lon="11.58095">
        <ele>1383.47</ele>
        <time>2012-08-02T08:49:29Z</time>
      </trkpt>
      <trkpt lat="46.46787" lon="11.58098">
        <ele>1382.03</ele>
        <time>2012-08-02T08:49:30Z</time>
      </trkpt>
      <trkpt lat="46.46799" lon="11.58107">
        <ele>1382.03</ele>
        <time>2012-08-02T08:49:31Z</time>
      </trkpt>
      <trkpt lat="46.46808" lon="11.58121">
        <ele>1381.07</ele>
        <time>2012-08-02T08:49:32Z</time>
      </trkpt>
      <trkpt lat="46.46815" lon="11.58142">
        <ele>1381.07</ele>
        <time>2012-08-02T08:49:33Z</time>
      </trkpt>
      <trkpt lat="46.46824" lon="11.58162">
        <ele>1380.11</ele>
        <time>2012-08-02T08:49:34Z</time>
      </trkpt>
      <trkpt lat="46.46833" lon="11.5818">
        <ele>1378.67</ele>
        <time>2012-08-02T08:49:35Z</time>
      </trkpt>
      <trkpt lat="46.4685" lon="11.5821">
        <ele>1375.78</ele>
        <time>2012-08-02T08:49:37Z</time>
      </trkpt>
      <trkpt lat="46.46859" lon="11.58221">
        <ele>1373.86</ele>
        <time>2012-08-02T08:49:38Z</time>
      </trkpt>
      <trkpt lat="46.46867" lon="11.58229">
        <ele>1372.9</ele>
        <time>2012-08-02T08:49:39Z</time>
      </trkpt>
      <trkpt lat="46.46875" lon="11.58233">
        <ele>1371.46</ele>
        <time>2012-08-02T08:49:40Z</time>
      </trkpt>
      <trkpt lat="46.46883" lon="11.58234">
        <ele>1371.46</ele>
        <time>2012-08-02T08:49:41Z</time>
      </trkpt>
      <trkpt lat="46.46891" lon="11.58231">
        <ele>1371.46</ele>
        <time>2012-08-02T08:49:42Z</time>
      </trkpt>
      <trkpt lat="46.46899" lon="11.58225">
        <ele>1370.5</ele>
        <time>2012-08-02T08:49:43Z</time>
      </trkpt>
      <trkpt lat="46.46906" lon="11.58217">
        <ele>1370.02</ele>
        <time>2012-08-02T08:49:44Z</time>
      </trkpt>
      <trkpt lat="46.46912" lon="11.58208">
        <ele>1370.02</ele>
        <time>2012-08-02T08:49:45Z</time>
      </trkpt>
      <trkpt lat="46.46916" lon="11.58197">
        <ele>1370.02</ele>
        <time>2012-08-02T08:49:46Z</time>
      </trkpt>
      <trkpt lat="46.46919" lon="11.58186">
        <ele>1370.5</ele>
        <time>2012-08-02T08:49:47Z</time>
      </trkpt>
      <trkpt lat="46.46922" lon="11.58174">
        <ele>1370.5</ele>
        <time>2012-08-02T08:49:48Z</time>
      </trkpt>
      <trkpt lat="46.46919" lon="11.58159">
        <ele>1369.54</ele>
        <time>2012-08-02T08:49:49Z</time>
      </trkpt>
      <trkpt lat="46.46918" lon="11.58142">
        <ele>1369.05</ele>
        <time>2012-08-02T08:49:50Z</time>
      </trkpt>
      <trkpt lat="46.46919" lon="11.58123">
        <ele>1370.02</ele>
        <time>2012-08-02T08:49:51Z</time>
      </trkpt>
      <trkpt lat="46.46924" lon="11.58105">
        <ele>1368.57</ele>
        <time>2012-08-02T08:49:52Z</time>
      </trkpt>
      <trkpt lat="46.46929" lon="11.58088">
        <ele>1367.61</ele>
        <time>2012-08-02T08:49:53Z</time>
      </trkpt>
      <trkpt lat="46.46931" lon="11.5807">
        <ele>1367.61</ele>
        <time>2012-08-02T08:49:54Z</time>
      </trkpt>
      <trkpt lat="46.46929" lon="11.58049">
        <ele>1366.17</ele>
        <time>2012-08-02T08:49:55Z</time>
      </trkpt>
      <trkpt lat="46.46927" lon="11.58029">
        <ele>1364.73</ele>
        <time>2012-08-02T08:49:56Z</time>
      </trkpt>
      <trkpt lat="46.46924" lon="11.5801">
        <ele>1363.29</ele>
        <time>2012-08-02T08:49:57Z</time>
      </trkpt>
      <trkpt lat="46.46915" lon="11.57991">
        <ele>1362.81</ele>
        <time>2012-08-02T08:49:58Z</time>
      </trkpt>
      <trkpt lat="46.46903" lon="11.57974">
        <ele>1362.81</ele>
        <time>2012-08-02T08:49:59Z</time>
      </trkpt>
      <trkpt lat="46.46891" lon="11.57962">
        <ele>1361.36</ele>
        <time>2012-08-02T08:50:00Z</time>
      </trkpt>
      <trkpt lat="46.46879" lon="11.57951">
        <ele>1359.44</ele>
        <time>2012-08-02T08:50:01Z</time>
      </trkpt>
      <trkpt lat="46.46871" lon="11.5794">
        <ele>1358</ele>
        <time>2012-08-02T08:50:02Z</time>
      </trkpt>
      <trkpt lat="46.46865" lon="11.57925">
        <ele>1357.04</ele>
        <time>2012-08-02T08:50:03Z</time>
      </trkpt>
      <trkpt lat="46.46862" lon="11.57905">
        <ele>1357.52</ele>
        <time>2012-08-02T08:50:04Z</time>
      </trkpt>
      <trkpt lat="46.46858" lon="11.57882">
        <ele>1358.48</ele>
        <time>2012-08-02T08:50:05Z</time>
      </trkpt>
      <trkpt lat="46.46854" lon="11.57858">
        <ele>1356.56</ele>
        <time>2012-08-02T08:50:06Z</time>
      </trkpt>
      <trkpt lat="46.46851" lon="11.57834">
        <ele>1354.15</ele>
        <time>2012-08-02T08:50:07Z</time>
      </trkpt>
      <trkpt lat="46.46851" lon="11.57808">
        <ele>1352.71</ele>
        <time>2012-08-02T08:50:08Z</time>
      </trkpt>
      <trkpt lat="46.46854" lon="11.5778">
        <ele>1351.27</ele>
        <time>2012-08-02T08:50:09Z</time>
      </trkpt>
      <trkpt lat="46.46862" lon="11.57724">
        <ele>1347.43</ele>
        <time>2012-08-02T08:50:11Z</time>
      </trkpt>
      <trkpt lat="46.46866" lon="11.57699">
        <ele>1346.46</ele>
        <time>2012-08-02T08:50:12Z</time>
      </trkpt>
      <trkpt lat="46.46869" lon="11.57674">
        <ele>1344.54</ele>
        <time>2012-08-02T08:50:13Z</time>
      </trkpt>
      <trkpt lat="46.46871" lon="11.57653">
        <ele>1343.1</ele>
        <time>2012-08-02T08:50:14Z</time>
      </trkpt>
      <trkpt lat="46.46871" lon="11.57635">
        <ele>1340.7</ele>
        <time>2012-08-02T08:50:15Z</time>
      </trkpt>
      <trkpt lat="46.4687" lon="11.57618">
        <ele>1340.22</ele>
        <time>2012-08-02T08:50:16Z</time>
      </trkpt>
      <trkpt lat="46.46865" lon="11.57601">
        <ele>1339.73</ele>
        <time>2012-08-02T08:50:17Z</time>
      </trkpt>
      <trkpt lat="46.46857" lon="11.57588">
        <ele>1339.25</ele>
        <time>2012-08-02T08:50:18Z</time>
      </trkpt>
      <trkpt lat="46.4685" lon="11.57575">
        <ele>1337.33</ele>
        <time>2012-08-02T08:50:19Z</time>
      </trkpt>
      <trkpt lat="46.46846" lon="11.57559">
        <ele>1336.37</ele>
        <time>2012-08-02T08:50:20Z</time>
      </trkpt>
      <trkpt lat="46.46845" lon="11.57542">
        <ele>1335.89</ele>
        <time>2012-08-02T08:50:21Z</time>
      </trkpt>
      <trkpt lat="46.46848" lon="11.57524">
        <ele>1335.41</ele>
        <time>2012-08-02T08:50:22Z</time>
      </trkpt>
      <trkpt lat="46.46853" lon="11.57505">
        <ele>1336.37</ele>
        <time>2012-08-02T08:50:23Z</time>
      </trkpt>
      <trkpt lat="46.4686" lon="11.57485">
        <ele>1336.37</ele>
        <time>2012-08-02T08:50:24Z</time>
      </trkpt>
      <trkpt lat="46.46868" lon="11.57462">
        <ele>1336.37</ele>
        <time>2012-08-02T08:50:25Z</time>
      </trkpt>
      <trkpt lat="46.46886" lon="11.57416">
        <ele>1331.56</ele>
        <time>2012-08-02T08:50:27Z</time>
      </trkpt>
      <trkpt lat="46.46905" lon="11.57372">
        <ele>1326.28</ele>
        <time>2012-08-02T08:50:29Z</time>
      </trkpt>
      <trkpt lat="46.46915" lon="11.57352">
        <ele>1324.35</ele>
        <time>2012-08-02T08:50:30Z</time>
      </trkpt>
      <trkpt lat="46.46926" lon="11.57334">
        <ele>1322.43</ele>
        <time>2012-08-02T08:50:31Z</time>
      </trkpt>
      <trkpt lat="46.46939" lon="11.57319">
        <ele>1319.55</ele>
        <time>2012-08-02T08:50:32Z</time>
      </trkpt>
      <trkpt lat="46.46952" lon="11.57307">
        <ele>1318.1</ele>
        <time>2012-08-02T08:50:33Z</time>
      </trkpt>
      <trkpt lat="46.46967" lon="11.57299">
        <ele>1315.22</ele>
        <time>2012-08-02T08:50:34Z</time>
      </trkpt>
      <trkpt lat="46.46984" lon="11.57293">
        <ele>1313.78</ele>
        <time>2012-08-02T08:50:35Z</time>
      </trkpt>
      <trkpt lat="46.47" lon="11.57289">
        <ele>1311.38</ele>
        <time>2012-08-02T08:50:36Z</time>
      </trkpt>
      <trkpt lat="46.47016" lon="11.57286">
        <ele>1309.93</ele>
        <time>2012-08-02T08:50:37Z</time>
      </trkpt>
      <trkpt lat="46.47032" lon="11.57284">
        <ele>1308.01</ele>
        <time>2012-08-02T08:50:38Z</time>
      </trkpt>
      <trkpt lat="46.47046" lon="11.57285">
        <ele>1304.17</ele>
        <time>2012-08-02T08:50:39Z</time>
      </trkpt>
      <trkpt lat="46.47061" lon="11.57293">
        <ele>1301.76</ele>
        <time>2012-08-02T08:50:40Z</time>
      </trkpt>
      <trkpt lat="46.47074" lon="11.57301">
        <ele>1299.84</ele>
        <time>2012-08-02T08:50:41Z</time>
      </trkpt>
      <trkpt lat="46.47084" lon="11.57309">
        <ele>1296.48</ele>
        <time>2012-08-02T08:50:42Z</time>
      </trkpt>
      <trkpt lat="46.47093" lon="11.57323">
        <ele>1294.55</ele>
        <time>2012-08-02T08:50:43Z</time>
      </trkpt>
      <trkpt lat="46.471" lon="11.57333">
        <ele>1292.63</ele>
        <time>2012-08-02T08:50:44Z</time>
      </trkpt>
      <trkpt lat="46.47108" lon="11.57339">
        <ele>1291.19</ele>
        <time>2012-08-02T08:50:45Z</time>
      </trkpt>
      <trkpt lat="46.47115" lon="11.5734">
        <ele>1289.75</ele>
        <time>2012-08-02T08:50:46Z</time>
      </trkpt>
      <trkpt lat="46.4712" lon="11.57333">
        <ele>1289.27</ele>
        <time>2012-08-02T08:50:47Z</time>
      </trkpt>
      <trkpt lat="46.47121" lon="11.57321">
        <ele>1288.78</ele>
        <time>2012-08-02T08:50:48Z</time>
      </trkpt>
      <trkpt lat="46.47118" lon="11.57306">
        <ele>1288.3</ele>
        <time>2012-08-02T08:50:49Z</time>
      </trkpt>
      <trkpt lat="46.47082" lon="11.57216">
        <ele>1283.98</ele>
        <time>2012-08-02T08:50:53Z</time>
      </trkpt>
      <trkpt lat="46.47068" lon="11.57181">
        <ele>1280.13</ele>
        <time>2012-08-02T08:50:54Z</time>
      </trkpt>
      <trkpt lat="46.47061" lon="11.57159">
        <ele>1279.17</ele>
        <time>2012-08-02T08:50:55Z</time>
      </trkpt>
      <trkpt lat="46.4705" lon="11.57131">
        <ele>1276.77</ele>
        <time>2012-08-02T08:50:56Z</time>
      </trkpt>
      <trkpt lat="46.4704" lon="11.57104">
        <ele>1275.33</ele>
        <time>2012-08-02T08:50:57Z</time>
      </trkpt>
      <trkpt lat="46.47034" lon="11.57087">
        <ele>1271.96</ele>
        <time>2012-08-02T08:50:58Z</time>
      </trkpt>
      <trkpt lat="46.47023" lon="11.57053">
        <ele>1269.56</ele>
        <time>2012-08-02T08:50:59Z</time>
      </trkpt>
      <trkpt lat="46.47018" lon="11.57026">
        <ele>1267.16</ele>
        <time>2012-08-02T08:51:00Z</time>
      </trkpt>
      <trkpt lat="46.47011" lon="11.5698">
        <ele>1261.39</ele>
        <time>2012-08-02T08:51:02Z</time>
      </trkpt>
      <trkpt lat="46.47005" lon="11.56958">
        <ele>1258.98</ele>
        <time>2012-08-02T08:51:03Z</time>
      </trkpt>
      <trkpt lat="46.46996" lon="11.56936">
        <ele>1256.58</ele>
        <time>2012-08-02T08:51:04Z</time>
      </trkpt>
      <trkpt lat="46.46986" lon="11.56916">
        <ele>1254.66</ele>
        <time>2012-08-02T08:51:05Z</time>
      </trkpt>
      <trkpt lat="46.46974" lon="11.56898">
        <ele>1251.77</ele>
        <time>2012-08-02T08:51:06Z</time>
      </trkpt>
      <trkpt lat="46.46962" lon="11.56886">
        <ele>1249.85</ele>
        <time>2012-08-02T08:51:07Z</time>
      </trkpt>
      <trkpt lat="46.46949" lon="11.56879">
        <ele>1247.45</ele>
        <time>2012-08-02T08:51:08Z</time>
      </trkpt>
      <trkpt lat="46.46936" lon="11.56876">
        <ele>1245.53</ele>
        <time>2012-08-02T08:51:09Z</time>
      </trkpt>
      <trkpt lat="46.46925" lon="11.5688">
        <ele>1244.08</ele>
        <time>2012-08-02T08:51:10Z</time>
      </trkpt>
      <trkpt lat="46.46916" lon="11.56889">
        <ele>1242.16</ele>
        <time>2012-08-02T08:51:11Z</time>
      </trkpt>
      <trkpt lat="46.46907" lon="11.56892">
        <ele>1240.72</ele>
        <time>2012-08-02T08:51:12Z</time>
      </trkpt>
      <trkpt lat="46.469" lon="11.56889">
        <ele>1239.76</ele>
        <time>2012-08-02T08:51:13Z</time>
      </trkpt>
      <trkpt lat="46.46896" lon="11.56882">
        <ele>1238.8</ele>
        <time>2012-08-02T08:51:14Z</time>
      </trkpt>
      <trkpt lat="46.46896" lon="11.56871">
        <ele>1238.32</ele>
        <time>2012-08-02T08:51:15Z</time>
      </trkpt>
      <trkpt lat="46.46897" lon="11.56857">
        <ele>1238.8</ele>
        <time>2012-08-02T08:51:16Z</time>
      </trkpt>
      <trkpt lat="46.469" lon="11.56848">
        <ele>1238.32</ele>
        <time>2012-08-02T08:51:17Z</time>
      </trkpt>
      <trkpt lat="46.46904" lon="11.56839">
        <ele>1238.32</ele>
        <time>2012-08-02T08:51:18Z</time>
      </trkpt>
      <trkpt lat="46.46909" lon="11.56832">
        <ele>1236.87</ele>
        <time>2012-08-02T08:51:19Z</time>
      </trkpt>
      <trkpt lat="46.46917" lon="11.56825">
        <ele>1234.95</ele>
        <time>2012-08-02T08:51:20Z</time>
      </trkpt>
      <trkpt lat="46.46925" lon="11.56818">
        <ele>1233.03</ele>
        <time>2012-08-02T08:51:21Z</time>
      </trkpt>
      <trkpt lat="46.46937" lon="11.56812">
        <ele>1231.11</ele>
        <time>2012-08-02T08:51:22Z</time>
      </trkpt>
      <trkpt lat="46.46953" lon="11.56809">
        <ele>1229.66</ele>
        <time>2012-08-02T08:51:23Z</time>
      </trkpt>
      <trkpt lat="46.4697" lon="11.56811">
        <ele>1227.74</ele>
        <time>2012-08-02T08:51:24Z</time>
      </trkpt>
      <trkpt lat="46.46989" lon="11.56815">
        <ele>1226.78</ele>
        <time>2012-08-02T08:51:25Z</time>
      </trkpt>
      <trkpt lat="46.47005" lon="11.56823">
        <ele>1225.34</ele>
        <time>2012-08-02T08:51:26Z</time>
      </trkpt>
      <trkpt lat="46.47058" lon="11.5686">
        <ele>1221.97</ele>
        <time>2012-08-02T08:51:29Z</time>
      </trkpt>
      <trkpt lat="46.47079" lon="11.56873">
        <ele>1218.61</ele>
        <time>2012-08-02T08:51:31Z</time>
      </trkpt>
      <trkpt lat="46.47091" lon="11.56875">
        <ele>1217.65</ele>
        <time>2012-08-02T08:51:32Z</time>
      </trkpt>
      <trkpt lat="46.47099" lon="11.56873">
        <ele>1216.69</ele>
        <time>2012-08-02T08:51:33Z</time>
      </trkpt>
      <trkpt lat="46.47107" lon="11.56867">
        <ele>1215.72</ele>
        <time>2012-08-02T08:51:34Z</time>
      </trkpt>
      <trkpt lat="46.47111" lon="11.56863">
        <ele>1216.21</ele>
        <time>2012-08-02T08:51:35Z</time>
      </trkpt>
      <trkpt lat="46.47122" lon="11.56841">
        <ele>1218.13</ele>
        <time>2012-08-02T08:51:36Z</time>
      </trkpt>
      <trkpt lat="46.4712" lon="11.56817">
        <ele>1218.13</ele>
        <time>2012-08-02T08:51:37Z</time>
      </trkpt>
      <trkpt lat="46.47107" lon="11.56748">
        <ele>1214.76</ele>
        <time>2012-08-02T08:51:39Z</time>
      </trkpt>
      <trkpt lat="46.47102" lon="11.56726">
        <ele>1213.32</ele>
        <time>2012-08-02T08:51:40Z</time>
      </trkpt>
      <trkpt lat="46.47095" lon="11.56699">
        <ele>1209.48</ele>
        <time>2012-08-02T08:51:41Z</time>
      </trkpt>
      <trkpt lat="46.47089" lon="11.56677">
        <ele>1206.59</ele>
        <time>2012-08-02T08:51:42Z</time>
      </trkpt>
      <trkpt lat="46.47074" lon="11.56637">
        <ele>1202.27</ele>
        <time>2012-08-02T08:51:44Z</time>
      </trkpt>
      <trkpt lat="46.47065" lon="11.56619">
        <ele>1201.3</ele>
        <time>2012-08-02T08:51:45Z</time>
      </trkpt>
      <trkpt lat="46.47047" lon="11.56591">
        <ele>1197.46</ele>
        <time>2012-08-02T08:51:47Z</time>
      </trkpt>
      <trkpt lat="46.47041" lon="11.56574">
        <ele>1195.54</ele>
        <time>2012-08-02T08:51:48Z</time>
      </trkpt>
      <trkpt lat="46.47037" lon="11.56554">
        <ele>1195.06</ele>
        <time>2012-08-02T08:51:49Z</time>
      </trkpt>
      <trkpt lat="46.47038" lon="11.5653">
        <ele>1195.06</ele>
        <time>2012-08-02T08:51:50Z</time>
      </trkpt>
      <trkpt lat="46.4704" lon="11.56502">
        <ele>1195.06</ele>
        <time>2012-08-02T08:51:51Z</time>
      </trkpt>
      <trkpt lat="46.47044" lon="11.56439">
        <ele>1190.25</ele>
        <time>2012-08-02T08:51:53Z</time>
      </trkpt>
      <trkpt lat="46.47045" lon="11.56407">
        <ele>1187.85</ele>
        <time>2012-08-02T08:51:54Z</time>
      </trkpt>
      <trkpt lat="46.47045" lon="11.56376">
        <ele>1185.44</ele>
        <time>2012-08-02T08:51:55Z</time>
      </trkpt>
      <trkpt lat="46.47045" lon="11.56345">
        <ele>1183.52</ele>
        <time>2012-08-02T08:51:56Z</time>
      </trkpt>
      <trkpt lat="46.47045" lon="11.56315">
        <ele>1181.12</ele>
        <time>2012-08-02T08:51:57Z</time>
      </trkpt>
      <trkpt lat="46.47045" lon="11.56286">
        <ele>1178.23</ele>
        <time>2012-08-02T08:51:58Z</time>
      </trkpt>
      <trkpt lat="46.47044" lon="11.56261">
        <ele>1175.83</ele>
        <time>2012-08-02T08:51:59Z</time>
      </trkpt>
      <trkpt lat="46.47043" lon="11.56214">
        <ele>1171.02</ele>
        <time>2012-08-02T08:52:01Z</time>
      </trkpt>
      <trkpt lat="46.47042" lon="11.56176">
        <ele>1166.22</ele>
        <time>2012-08-02T08:52:03Z</time>
      </trkpt>
      <trkpt lat="46.47043" lon="11.56145">
        <ele>1162.85</ele>
        <time>2012-08-02T08:52:05Z</time>
      </trkpt>
      <trkpt lat="46.47044" lon="11.56131">
        <ele>1161.89</ele>
        <time>2012-08-02T08:52:06Z</time>
      </trkpt>
      <trkpt lat="46.47047" lon="11.56116">
        <ele>1159.97</ele>
        <time>2012-08-02T08:52:07Z</time>
      </trkpt>
      <trkpt lat="46.47052" lon="11.56102">
        <ele>1159.01</ele>
        <time>2012-08-02T08:52:08Z</time>
      </trkpt>
      <trkpt lat="46.47068" lon="11.56067">
        <ele>1155.16</ele>
        <time>2012-08-02T08:52:11Z</time>
      </trkpt>
      <trkpt lat="46.47079" lon="11.56041">
        <ele>1152.28</ele>
        <time>2012-08-02T08:52:13Z</time>
      </trkpt>
      <trkpt lat="46.47087" lon="11.56025">
        <ele>1150.84</ele>
        <time>2012-08-02T08:52:14Z</time>
      </trkpt>
      <trkpt lat="46.471" lon="11.56002">
        <ele>1148.91</ele>
        <time>2012-08-02T08:52:16Z</time>
      </trkpt>
      <trkpt lat="46.47104" lon="11.55991">
        <ele>1147.95</ele>
        <time>2012-08-02T08:52:17Z</time>
      </trkpt>
      <trkpt lat="46.47113" lon="11.55952">
        <ele>1144.59</ele>
        <time>2012-08-02T08:52:20Z</time>
      </trkpt>
      <trkpt lat="46.4712" lon="11.55906">
        <ele>1141.22</ele>
        <time>2012-08-02T08:52:23Z</time>
      </trkpt>
      <trkpt lat="46.47118" lon="11.55893">
        <ele>1139.3</ele>
        <time>2012-08-02T08:52:24Z</time>
      </trkpt>
      <trkpt lat="46.47112" lon="11.5588">
        <ele>1138.34</ele>
        <time>2012-08-02T08:52:25Z</time>
      </trkpt>
      <trkpt lat="46.47098" lon="11.55853">
        <ele>1134.97</ele>
        <time>2012-08-02T08:52:27Z</time>
      </trkpt>
      <trkpt lat="46.47092" lon="11.55833">
        <ele>1133.53</ele>
        <time>2012-08-02T08:52:28Z</time>
      </trkpt>
      <trkpt lat="46.47087" lon="11.55817">
        <ele>1132.57</ele>
        <time>2012-08-02T08:52:29Z</time>
      </trkpt>
      <trkpt lat="46.4708" lon="11.55773">
        <ele>1129.21</ele>
        <time>2012-08-02T08:52:32Z</time>
      </trkpt>
      <trkpt lat="46.47079" lon="11.55758">
        <ele>1127.76</ele>
        <time>2012-08-02T08:52:33Z</time>
      </trkpt>
      <trkpt lat="46.47079" lon="11.55742">
        <ele>1126.32</ele>
        <time>2012-08-02T08:52:34Z</time>
      </trkpt>
      <trkpt lat="46.47081" lon="11.55726">
        <ele>1125.36</ele>
        <time>2012-08-02T08:52:35Z</time>
      </trkpt>
      <trkpt lat="46.47086" lon="11.557">
        <ele>1122.48</ele>
        <time>2012-08-02T08:52:37Z</time>
      </trkpt>
      <trkpt lat="46.47091" lon="11.55687">
        <ele>1121.03</ele>
        <time>2012-08-02T08:52:38Z</time>
      </trkpt>
      <trkpt lat="46.47097" lon="11.55679">
        <ele>1118.63</ele>
        <time>2012-08-02T08:52:39Z</time>
      </trkpt>
      <trkpt lat="46.47105" lon="11.55675">
        <ele>1117.67</ele>
        <time>2012-08-02T08:52:40Z</time>
      </trkpt>
      <trkpt lat="46.47113" lon="11.55678">
        <ele>1116.71</ele>
        <time>2012-08-02T08:52:41Z</time>
      </trkpt>
      <trkpt lat="46.4712" lon="11.55688">
        <ele>1115.75</ele>
        <time>2012-08-02T08:52:42Z</time>
      </trkpt>
      <trkpt lat="46.47127" lon="11.557">
        <ele>1114.79</ele>
        <time>2012-08-02T08:52:43Z</time>
      </trkpt>
      <trkpt lat="46.47135" lon="11.55706">
        <ele>1115.27</ele>
        <time>2012-08-02T08:52:44Z</time>
      </trkpt>
      <trkpt lat="46.47145" lon="11.55707">
        <ele>1115.27</ele>
        <time>2012-08-02T08:52:45Z</time>
      </trkpt>
      <trkpt lat="46.47154" lon="11.55704">
        <ele>1113.34</ele>
        <time>2012-08-02T08:52:46Z</time>
      </trkpt>
      <trkpt lat="46.47163" lon="11.55699">
        <ele>1111.42</ele>
        <time>2012-08-02T08:52:47Z</time>
      </trkpt>
      <trkpt lat="46.47174" lon="11.55674">
        <ele>1108.54</ele>
        <time>2012-08-02T08:52:49Z</time>
      </trkpt>
      <trkpt lat="46.4717" lon="11.55659">
        <ele>1107.58</ele>
        <time>2012-08-02T08:52:50Z</time>
      </trkpt>
      <trkpt lat="46.47163" lon="11.55644">
        <ele>1105.65</ele>
        <time>2012-08-02T08:52:51Z</time>
      </trkpt>
      <trkpt lat="46.47156" lon="11.55629">
        <ele>1103.73</ele>
        <time>2012-08-02T08:52:52Z</time>
      </trkpt>
      <trkpt lat="46.47151" lon="11.55617">
        <ele>1101.81</ele>
        <time>2012-08-02T08:52:53Z</time>
      </trkpt>
      <trkpt lat="46.47149" lon="11.55604">
        <ele>1099.89</ele>
        <time>2012-08-02T08:52:54Z</time>
      </trkpt>
      <trkpt lat="46.47149" lon="11.5559">
        <ele>1097.96</ele>
        <time>2012-08-02T08:52:55Z</time>
      </trkpt>
      <trkpt lat="46.47154" lon="11.55577">
        <ele>1096.52</ele>
        <time>2012-08-02T08:52:56Z</time>
      </trkpt>
      <trkpt lat="46.47158" lon="11.55571">
        <ele>1095.56</ele>
        <time>2012-08-02T08:52:57Z</time>
      </trkpt>
      <trkpt lat="46.47164" lon="11.55551">
        <ele>1094.6</ele>
        <time>2012-08-02T08:52:58Z</time>
      </trkpt>
      <trkpt lat="46.47166" lon="11.55534">
        <ele>1093.64</ele>
        <time>2012-08-02T08:52:59Z</time>
      </trkpt>
      <trkpt lat="46.47162" lon="11.55513">
        <ele>1091.71</ele>
        <time>2012-08-02T08:53:00Z</time>
      </trkpt>
      <trkpt lat="46.47157" lon="11.55488">
        <ele>1089.79</ele>
        <time>2012-08-02T08:53:01Z</time>
      </trkpt>
      <trkpt lat="46.47146" lon="11.55444">
        <ele>1088.35</ele>
        <time>2012-08-02T08:53:03Z</time>
      </trkpt>
      <trkpt lat="46.47132" lon="11.55408">
        <ele>1086.91</ele>
        <time>2012-08-02T08:53:05Z</time>
      </trkpt>
      <trkpt lat="46.47094" lon="11.55242">
        <ele>1090.75</ele>
        <time>2012-08-02T08:53:13Z</time>
      </trkpt>
      <trkpt lat="46.4708" lon="11.55194">
        <ele>1094.12</ele>
        <time>2012-08-02T08:53:16Z</time>
      </trkpt>
      <trkpt lat="46.47072" lon="11.55166">
        <ele>1096.04</ele>
        <time>2012-08-02T08:53:18Z</time>
      </trkpt>
      <trkpt lat="46.47065" lon="11.55152">
        <ele>1096.52</ele>
        <time>2012-08-02T08:53:19Z</time>
      </trkpt>
      <trkpt lat="46.47057" lon="11.55139">
        <ele>1097</ele>
        <time>2012-08-02T08:53:20Z</time>
      </trkpt>
      <trkpt lat="46.47046" lon="11.55127">
        <ele>1097.96</ele>
        <time>2012-08-02T08:53:21Z</time>
      </trkpt>
      <trkpt lat="46.47035" lon="11.55117">
        <ele>1097.96</ele>
        <time>2012-08-02T08:53:22Z</time>
      </trkpt>
      <trkpt lat="46.46988" lon="11.55081">
        <ele>1097.48</ele>
        <time>2012-08-02T08:53:26Z</time>
      </trkpt>
      <trkpt lat="46.46979" lon="11.55068">
        <ele>1097</ele>
        <time>2012-08-02T08:53:27Z</time>
      </trkpt>
      <trkpt lat="46.46903" lon="11.54958">
        <ele>1098.92</ele>
        <time>2012-08-02T08:53:35Z</time>
      </trkpt>
      <trkpt lat="46.46895" lon="11.54942">
        <ele>1098.44</ele>
        <time>2012-08-02T08:53:36Z</time>
      </trkpt>
      <trkpt lat="46.46861" lon="11.54846">
        <ele>1096.04</ele>
        <time>2012-08-02T08:53:42Z</time>
      </trkpt>
      <trkpt lat="46.46857" lon="11.54827">
        <ele>1096.04</ele>
        <time>2012-08-02T08:53:43Z</time>
      </trkpt>
      <trkpt lat="46.4685" lon="11.54788">
        <ele>1092.2</ele>
        <time>2012-08-02T08:53:45Z</time>
      </trkpt>
      <trkpt lat="46.46838" lon="11.54708">
        <ele>1088.83</ele>
        <time>2012-08-02T08:53:49Z</time>
      </trkpt>
      <trkpt lat="46.4683" lon="11.54651">
        <ele>1086.91</ele>
        <time>2012-08-02T08:53:52Z</time>
      </trkpt>
      <trkpt lat="46.46826" lon="11.54633">
        <ele>1086.43</ele>
        <time>2012-08-02T08:53:53Z</time>
      </trkpt>
      <trkpt lat="46.46819" lon="11.54617">
        <ele>1086.91</ele>
        <time>2012-08-02T08:53:54Z</time>
      </trkpt>
      <trkpt lat="46.46811" lon="11.54601">
        <ele>1086.43</ele>
        <time>2012-08-02T08:53:55Z</time>
      </trkpt>
      <trkpt lat="46.46803" lon="11.54586">
        <ele>1086.43</ele>
        <time>2012-08-02T08:53:56Z</time>
      </trkpt>
      <trkpt lat="46.46771" lon="11.54524">
        <ele>1083.06</ele>
        <time>2012-08-02T08:54:00Z</time>
      </trkpt>
      <trkpt lat="46.46745" lon="11.54458">
        <ele>1079.22</ele>
        <time>2012-08-02T08:54:04Z</time>
      </trkpt>
      <trkpt lat="46.46677" lon="11.54338">
        <ele>1078.26</ele>
        <time>2012-08-02T08:54:13Z</time>
      </trkpt>
      <trkpt lat="46.46646" lon="11.54276">
        <ele>1077.29</ele>
        <time>2012-08-02T08:54:20Z</time>
      </trkpt>
      <trkpt lat="46.46622" lon="11.54196">
        <ele>1074.89</ele>
        <time>2012-08-02T08:54:26Z</time>
      </trkpt>
      <trkpt lat="46.46616" lon="11.54184">
        <ele>1074.89</ele>
        <time>2012-08-02T08:54:27Z</time>
      </trkpt>
      <trkpt lat="46.46585" lon="11.54129">
        <ele>1071.05</ele>
        <time>2012-08-02T08:54:32Z</time>
      </trkpt>
      <trkpt lat="46.46542" lon="11.54067">
        <ele>1067.2</ele>
        <time>2012-08-02T08:54:38Z</time>
      </trkpt>
      <trkpt lat="46.46528" lon="11.54045">
        <ele>1066.24</ele>
        <time>2012-08-02T08:54:40Z</time>
      </trkpt>
      <trkpt lat="46.46524" lon="11.54032">
        <ele>1066.24</ele>
        <time>2012-08-02T08:54:41Z</time>
      </trkpt>
      <trkpt lat="46.4652" lon="11.54017">
        <ele>1065.76</ele>
        <time>2012-08-02T08:54:42Z</time>
      </trkpt>
      <trkpt lat="46.46517" lon="11.54003">
        <ele>1066.24</ele>
        <time>2012-08-02T08:54:43Z</time>
      </trkpt>
      <trkpt lat="46.46516" lon="11.53988">
        <ele>1065.76</ele>
        <time>2012-08-02T08:54:44Z</time>
      </trkpt>
      <trkpt lat="46.46515" lon="11.53973">
        <ele>1065.76</ele>
        <time>2012-08-02T08:54:45Z</time>
      </trkpt>
      <trkpt lat="46.46515" lon="11.53957">
        <ele>1066.24</ele>
        <time>2012-08-02T08:54:46Z</time>
      </trkpt>
      <trkpt lat="46.46507" lon="11.53802">
        <ele>1065.28</ele>
        <time>2012-08-02T08:54:55Z</time>
      </trkpt>
      <trkpt lat="46.465" lon="11.5364">
        <ele>1062.39</ele>
        <time>2012-08-02T08:55:04Z</time>
      </trkpt>
      <trkpt lat="46.46501" lon="11.53622">
        <ele>1062.39</ele>
        <time>2012-08-02T08:55:05Z</time>
      </trkpt>
      <trkpt lat="46.46517" lon="11.5347">
        <ele>1059.03</ele>
        <time>2012-08-02T08:55:13Z</time>
      </trkpt>
      <trkpt lat="46.46519" lon="11.53413">
        <ele>1055.67</ele>
        <time>2012-08-02T08:55:16Z</time>
      </trkpt>
      <trkpt lat="46.46521" lon="11.53393">
        <ele>1054.7</ele>
        <time>2012-08-02T08:55:17Z</time>
      </trkpt>
      <trkpt lat="46.46526" lon="11.53374">
        <ele>1053.74</ele>
        <time>2012-08-02T08:55:18Z</time>
      </trkpt>
      <trkpt lat="46.46532" lon="11.53356">
        <ele>1052.3</ele>
        <time>2012-08-02T08:55:19Z</time>
      </trkpt>
      <trkpt lat="46.46543" lon="11.53319">
        <ele>1051.34</ele>
        <time>2012-08-02T08:55:21Z</time>
      </trkpt>
      <trkpt lat="46.46547" lon="11.53299">
        <ele>1051.34</ele>
        <time>2012-08-02T08:55:22Z</time>
      </trkpt>
      <trkpt lat="46.46557" lon="11.53242">
        <ele>1051.34</ele>
        <time>2012-08-02T08:55:25Z</time>
      </trkpt>
      <trkpt lat="46.46562" lon="11.53226">
        <ele>1051.34</ele>
        <time>2012-08-02T08:55:26Z</time>
      </trkpt>
      <trkpt lat="46.46568" lon="11.53211">
        <ele>1050.86</ele>
        <time>2012-08-02T08:55:27Z</time>
      </trkpt>
      <trkpt lat="46.46575" lon="11.53197">
        <ele>1051.82</ele>
        <time>2012-08-02T08:55:28Z</time>
      </trkpt>
      <trkpt lat="46.46582" lon="11.53183">
        <ele>1050.86</ele>
        <time>2012-08-02T08:55:29Z</time>
      </trkpt>
      <trkpt lat="46.46588" lon="11.53168">
        <ele>1051.34</ele>
        <time>2012-08-02T08:55:30Z</time>
      </trkpt>
      <trkpt lat="46.46592" lon="11.53152">
        <ele>1050.86</ele>
        <time>2012-08-02T08:55:31Z</time>
      </trkpt>
      <trkpt lat="46.46603" lon="11.53102">
        <ele>1049.42</ele>
        <time>2012-08-02T08:55:34Z</time>
      </trkpt>
      <trkpt lat="46.46623" lon="11.53001">
        <ele>1046.05</ele>
        <time>2012-08-02T08:55:40Z</time>
      </trkpt>
      <trkpt lat="46.46627" lon="11.52985">
        <ele>1046.05</ele>
        <time>2012-08-02T08:55:41Z</time>
      </trkpt>
      <trkpt lat="46.46639" lon="11.52938">
        <ele>1046.05</ele>
        <time>2012-08-02T08:55:44Z</time>
      </trkpt>
      <trkpt lat="46.46645" lon="11.52922">
        <ele>1046.05</ele>
        <time>2012-08-02T08:55:45Z</time>
      </trkpt>
      <trkpt lat="46.46657" lon="11.52897">
        <ele>1045.57</ele>
        <time>2012-08-02T08:55:47Z</time>
      </trkpt>
      <trkpt lat="46.46668" lon="11.52877">
        <ele>1045.57</ele>
        <time>2012-08-02T08:55:49Z</time>
      </trkpt>
      <trkpt lat="46.46673" lon="11.5287">
        <ele>1045.09</ele>
        <time>2012-08-02T08:55:50Z</time>
      </trkpt>
      <trkpt lat="46.46679" lon="11.52864">
        <ele>1045.09</ele>
        <time>2012-08-02T08:55:51Z</time>
      </trkpt>
      <trkpt lat="46.46685" lon="11.52859">
        <ele>1044.61</ele>
        <time>2012-08-02T08:55:52Z</time>
      </trkpt>
      <trkpt lat="46.46692" lon="11.52854">
        <ele>1043.65</ele>
        <time>2012-08-02T08:55:53Z</time>
      </trkpt>
      <trkpt lat="46.46698" lon="11.52849">
        <ele>1043.17</ele>
        <time>2012-08-02T08:55:54Z</time>
      </trkpt>
      <trkpt lat="46.46703" lon="11.52841">
        <ele>1043.17</ele>
        <time>2012-08-02T08:55:55Z</time>
      </trkpt>
      <trkpt lat="46.46705" lon="11.52831">
        <ele>1043.17</ele>
        <time>2012-08-02T08:55:56Z</time>
      </trkpt>
      <trkpt lat="46.46706" lon="11.5282">
        <ele>1043.65</ele>
        <time>2012-08-02T08:55:57Z</time>
      </trkpt>
      <trkpt lat="46.46706" lon="11.52809">
        <ele>1043.65</ele>
        <time>2012-08-02T08:55:58Z</time>
      </trkpt>
      <trkpt lat="46.46706" lon="11.52797">
        <ele>1044.13</ele>
        <time>2012-08-02T08:55:59Z</time>
      </trkpt>
      <trkpt lat="46.46709" lon="11.52756">
        <ele>1043.17</ele>
        <time>2012-08-02T08:56:03Z</time>
      </trkpt>
      <trkpt lat="46.46711" lon="11.52747">
        <ele>1043.17</ele>
        <time>2012-08-02T08:56:04Z</time>
      </trkpt>
      <trkpt lat="46.46715" lon="11.52737">
        <ele>1043.65</ele>
        <time>2012-08-02T08:56:05Z</time>
      </trkpt>
      <trkpt lat="46.46719" lon="11.52728">
        <ele>1044.13</ele>
        <time>2012-08-02T08:56:06Z</time>
      </trkpt>
      <trkpt lat="46.46724" lon="11.5272">
        <ele>1043.17</ele>
        <time>2012-08-02T08:56:07Z</time>
      </trkpt>
      <trkpt lat="46.46729" lon="11.52713">
        <ele>1043.65</ele>
        <time>2012-08-02T08:56:08Z</time>
      </trkpt>
      <trkpt lat="46.46735" lon="11.52705">
        <ele>1043.65</ele>
        <time>2012-08-02T08:56:09Z</time>
      </trkpt>
      <trkpt lat="46.46741" lon="11.52699">
        <ele>1043.17</ele>
        <time>2012-08-02T08:56:10Z</time>
      </trkpt>
      <trkpt lat="46.46747" lon="11.52695">
        <ele>1043.17</ele>
        <time>2012-08-02T08:56:11Z</time>
      </trkpt>
      <trkpt lat="46.46754" lon="11.52693">
        <ele>1042.69</ele>
        <time>2012-08-02T08:56:12Z</time>
      </trkpt>
      <trkpt lat="46.46762" lon="11.52694">
        <ele>1041.73</ele>
        <time>2012-08-02T08:56:13Z</time>
      </trkpt>
      <trkpt lat="46.4677" lon="11.52698">
        <ele>1041.73</ele>
        <time>2012-08-02T08:56:14Z</time>
      </trkpt>
      <trkpt lat="46.46778" lon="11.52702">
        <ele>1041.73</ele>
        <time>2012-08-02T08:56:15Z</time>
      </trkpt>
      <trkpt lat="46.46813" lon="11.52714">
        <ele>1040.76</ele>
        <time>2012-08-02T08:56:19Z</time>
      </trkpt>
      <trkpt lat="46.46821" lon="11.52712">
        <ele>1041.25</ele>
        <time>2012-08-02T08:56:20Z</time>
      </trkpt>
      <trkpt lat="46.46827" lon="11.52708">
        <ele>1041.25</ele>
        <time>2012-08-02T08:56:21Z</time>
      </trkpt>
      <trkpt lat="46.46833" lon="11.52701">
        <ele>1041.25</ele>
        <time>2012-08-02T08:56:22Z</time>
      </trkpt>
      <trkpt lat="46.46837" lon="11.52692">
        <ele>1041.25</ele>
        <time>2012-08-02T08:56:23Z</time>
      </trkpt>
      <trkpt lat="46.46839" lon="11.52681">
        <ele>1042.69</ele>
        <time>2012-08-02T08:56:24Z</time>
      </trkpt>
      <trkpt lat="46.4684" lon="11.5267">
        <ele>1042.69</ele>
        <time>2012-08-02T08:56:25Z</time>
      </trkpt>
      <trkpt lat="46.4684" lon="11.52658">
        <ele>1042.69</ele>
        <time>2012-08-02T08:56:26Z</time>
      </trkpt>
      <trkpt lat="46.46839" lon="11.52647">
        <ele>1042.69</ele>
        <time>2012-08-02T08:56:27Z</time>
      </trkpt>
      <trkpt lat="46.4684" lon="11.52636">
        <ele>1043.17</ele>
        <time>2012-08-02T08:56:28Z</time>
      </trkpt>
      <trkpt lat="46.46841" lon="11.52625">
        <ele>1043.17</ele>
        <time>2012-08-02T08:56:29Z</time>
      </trkpt>
      <trkpt lat="46.46843" lon="11.52615">
        <ele>1043.65</ele>
        <time>2012-08-02T08:56:30Z</time>
      </trkpt>
      <trkpt lat="46.46845" lon="11.52605">
        <ele>1044.13</ele>
        <time>2012-08-02T08:56:31Z</time>
      </trkpt>
      <trkpt lat="46.46848" lon="11.52596">
        <ele>1044.61</ele>
        <time>2012-08-02T08:56:32Z</time>
      </trkpt>
      <trkpt lat="46.46853" lon="11.52577">
        <ele>1042.21</ele>
        <time>2012-08-02T08:56:34Z</time>
      </trkpt>
      <trkpt lat="46.46854" lon="11.52565">
        <ele>1043.65</ele>
        <time>2012-08-02T08:56:35Z</time>
      </trkpt>
      <trkpt lat="46.46854" lon="11.52553">
        <ele>1042.69</ele>
        <time>2012-08-02T08:56:36Z</time>
      </trkpt>
      <trkpt lat="46.46855" lon="11.52516">
        <ele>1039.32</ele>
        <time>2012-08-02T08:56:39Z</time>
      </trkpt>
      <trkpt lat="46.46857" lon="11.52503">
        <ele>1038.36</ele>
        <time>2012-08-02T08:56:40Z</time>
      </trkpt>
      <trkpt lat="46.46861" lon="11.52491">
        <ele>1036.92</ele>
        <time>2012-08-02T08:56:41Z</time>
      </trkpt>
      <trkpt lat="46.46874" lon="11.52455">
        <ele>1034.04</ele>
        <time>2012-08-02T08:56:44Z</time>
      </trkpt>
      <trkpt lat="46.46887" lon="11.52417">
        <ele>1029.71</ele>
        <time>2012-08-02T08:56:47Z</time>
      </trkpt>
      <trkpt lat="46.46893" lon="11.52406">
        <ele>1028.27</ele>
        <time>2012-08-02T08:56:48Z</time>
      </trkpt>
      <trkpt lat="46.469" lon="11.52397">
        <ele>1027.31</ele>
        <time>2012-08-02T08:56:49Z</time>
      </trkpt>
      <trkpt lat="46.46922" lon="11.52372">
        <ele>1025.38</ele>
        <time>2012-08-02T08:56:52Z</time>
      </trkpt>
      <trkpt lat="46.46928" lon="11.52361">
        <ele>1024.9</ele>
        <time>2012-08-02T08:56:53Z</time>
      </trkpt>
      <trkpt lat="46.46932" lon="11.52348">
        <ele>1024.42</ele>
        <time>2012-08-02T08:56:54Z</time>
      </trkpt>
      <trkpt lat="46.46935" lon="11.52334">
        <ele>1024.42</ele>
        <time>2012-08-02T08:56:55Z</time>
      </trkpt>
      <trkpt lat="46.46936" lon="11.52319">
        <ele>1023.94</ele>
        <time>2012-08-02T08:56:56Z</time>
      </trkpt>
      <trkpt lat="46.46936" lon="11.52305">
        <ele>1023.94</ele>
        <time>2012-08-02T08:56:57Z</time>
      </trkpt>
      <trkpt lat="46.46944" lon="11.52207">
        <ele>1020.1</ele>
        <time>2012-08-02T08:57:03Z</time>
      </trkpt>
      <trkpt lat="46.46958" lon="11.52107">
        <ele>1016.25</ele>
        <time>2012-08-02T08:57:08Z</time>
      </trkpt>
      <trkpt lat="46.46965" lon="11.52045">
        <ele>1012.41</ele>
        <time>2012-08-02T08:57:11Z</time>
      </trkpt>
      <trkpt lat="46.46979" lon="11.51964">
        <ele>1009.04</ele>
        <time>2012-08-02T08:57:15Z</time>
      </trkpt>
      <trkpt lat="46.46991" lon="11.51924">
        <ele>1007.6</ele>
        <time>2012-08-02T08:57:17Z</time>
      </trkpt>
      <trkpt lat="46.47011" lon="11.51852">
        <ele>1004.23</ele>
        <time>2012-08-02T08:57:21Z</time>
      </trkpt>
      <trkpt lat="46.47019" lon="11.51825">
        <ele>1001.83</ele>
        <time>2012-08-02T08:57:23Z</time>
      </trkpt>
      <trkpt lat="46.47024" lon="11.51815">
        <ele>1001.83</ele>
        <time>2012-08-02T08:57:24Z</time>
      </trkpt>
      <trkpt lat="46.4703" lon="11.51806">
        <ele>1001.35</ele>
        <time>2012-08-02T08:57:25Z</time>
      </trkpt>
      <trkpt lat="46.47039" lon="11.518">
        <ele>1000.39</ele>
        <time>2012-08-02T08:57:26Z</time>
      </trkpt>
      <trkpt lat="46.47049" lon="11.51796">
        <ele>1000.39</ele>
        <time>2012-08-02T08:57:27Z</time>
      </trkpt>
      <trkpt lat="46.4706" lon="11.51794">
        <ele>999.43</ele>
        <time>2012-08-02T08:57:28Z</time>
      </trkpt>
      <trkpt lat="46.4707" lon="11.51792">
        <ele>999.43</ele>
        <time>2012-08-02T08:57:29Z</time>
      </trkpt>
      <trkpt lat="46.47078" lon="11.51788">
        <ele>998.95</ele>
        <time>2012-08-02T08:57:30Z</time>
      </trkpt>
      <trkpt lat="46.47084" lon="11.51781">
        <ele>997.99</ele>
        <time>2012-08-02T08:57:31Z</time>
      </trkpt>
      <trkpt lat="46.47086" lon="11.51769">
        <ele>998.47</ele>
        <time>2012-08-02T08:57:32Z</time>
      </trkpt>
      <trkpt lat="46.47086" lon="11.51756">
        <ele>999.43</ele>
        <time>2012-08-02T08:57:33Z</time>
      </trkpt>
      <trkpt lat="46.47083" lon="11.51741">
        <ele>1000.87</ele>
        <time>2012-08-02T08:57:34Z</time>
      </trkpt>
      <trkpt lat="46.47078" lon="11.51726">
        <ele>1002.31</ele>
        <time>2012-08-02T08:57:35Z</time>
      </trkpt>
      <trkpt lat="46.4707" lon="11.51713">
        <ele>1001.35</ele>
        <time>2012-08-02T08:57:36Z</time>
      </trkpt>
      <trkpt lat="46.47062" lon="11.51703">
        <ele>1001.83</ele>
        <time>2012-08-02T08:57:37Z</time>
      </trkpt>
      <trkpt lat="46.47055" lon="11.51693">
        <ele>1000.87</ele>
        <time>2012-08-02T08:57:38Z</time>
      </trkpt>
      <trkpt lat="46.4705" lon="11.51683">
        <ele>1000.39</ele>
        <time>2012-08-02T08:57:39Z</time>
      </trkpt>
      <trkpt lat="46.47047" lon="11.5167">
        <ele>1000.39</ele>
        <time>2012-08-02T08:57:40Z</time>
      </trkpt>
      <trkpt lat="46.47046" lon="11.51654">
        <ele>999.91</ele>
        <time>2012-08-02T08:57:41Z</time>
      </trkpt>
      <trkpt lat="46.47047" lon="11.51636">
        <ele>999.43</ele>
        <time>2012-08-02T08:57:42Z</time>
      </trkpt>
      <trkpt lat="46.47049" lon="11.51619">
        <ele>998.95</ele>
        <time>2012-08-02T08:57:43Z</time>
      </trkpt>
      <trkpt lat="46.47053" lon="11.516">
        <ele>998.95</ele>
        <time>2012-08-02T08:57:44Z</time>
      </trkpt>
      <trkpt lat="46.47064" lon="11.51548">
        <ele>996.54</ele>
        <time>2012-08-02T08:57:47Z</time>
      </trkpt>
      <trkpt lat="46.47068" lon="11.51534">
        <ele>996.06</ele>
        <time>2012-08-02T08:57:48Z</time>
      </trkpt>
      <trkpt lat="46.47074" lon="11.51522">
        <ele>995.58</ele>
        <time>2012-08-02T08:57:49Z</time>
      </trkpt>
      <trkpt lat="46.47081" lon="11.51513">
        <ele>995.58</ele>
        <time>2012-08-02T08:57:50Z</time>
      </trkpt>
      <trkpt lat="46.4709" lon="11.51507">
        <ele>995.58</ele>
        <time>2012-08-02T08:57:51Z</time>
      </trkpt>
      <trkpt lat="46.471" lon="11.51503">
        <ele>996.06</ele>
        <time>2012-08-02T08:57:52Z</time>
      </trkpt>
      <trkpt lat="46.4711" lon="11.51499">
        <ele>995.1</ele>
        <time>2012-08-02T08:57:53Z</time>
      </trkpt>
      <trkpt lat="46.47166" lon="11.51478">
        <ele>991.74</ele>
        <time>2012-08-02T08:57:58Z</time>
      </trkpt>
      <trkpt lat="46.47177" lon="11.5147">
        <ele>991.26</ele>
        <time>2012-08-02T08:57:59Z</time>
      </trkpt>
      <trkpt lat="46.47188" lon="11.51462">
        <ele>990.78</ele>
        <time>2012-08-02T08:58:00Z</time>
      </trkpt>
      <trkpt lat="46.47198" lon="11.51451">
        <ele>989.81</ele>
        <time>2012-08-02T08:58:01Z</time>
      </trkpt>
      <trkpt lat="46.47208" lon="11.51439">
        <ele>989.81</ele>
        <time>2012-08-02T08:58:02Z</time>
      </trkpt>
      <trkpt lat="46.47217" lon="11.51426">
        <ele>988.85</ele>
        <time>2012-08-02T08:58:03Z</time>
      </trkpt>
      <trkpt lat="46.47225" lon="11.51412">
        <ele>988.37</ele>
        <time>2012-08-02T08:58:04Z</time>
      </trkpt>
      <trkpt lat="46.47232" lon="11.51397">
        <ele>987.41</ele>
        <time>2012-08-02T08:58:05Z</time>
      </trkpt>
      <trkpt lat="46.47239" lon="11.51382">
        <ele>987.41</ele>
        <time>2012-08-02T08:58:06Z</time>
      </trkpt>
      <trkpt lat="46.47245" lon="11.51369">
        <ele>986.93</ele>
        <time>2012-08-02T08:58:07Z</time>
      </trkpt>
      <trkpt lat="46.47251" lon="11.51356">
        <ele>985.49</ele>
        <time>2012-08-02T08:58:08Z</time>
      </trkpt>
      <trkpt lat="46.47235" lon="11.51359">
        <ele>984.53</ele>
        <time>2012-08-02T08:58:09Z</time>
      </trkpt>
      <trkpt lat="46.47235" lon="11.51358">
        <ele>981.16</ele>
        <time>2012-08-02T08:58:15Z</time>
      </trkpt>
      <trkpt lat="46.47234" lon="11.51164">
        <ele>978.76</ele>
        <time>2012-08-02T08:58:19Z</time>
      </trkpt>
      <trkpt lat="46.47229" lon="11.5115">
        <ele>977.8</ele>
        <time>2012-08-02T08:58:20Z</time>
      </trkpt>
      <trkpt lat="46.47228" lon="11.51136">
        <ele>977.32</ele>
        <time>2012-08-02T08:58:21Z</time>
      </trkpt>
      <trkpt lat="46.47226" lon="11.51121">
        <ele>977.32</ele>
        <time>2012-08-02T08:58:22Z</time>
      </trkpt>
      <trkpt lat="46.47225" lon="11.51105">
        <ele>976.36</ele>
        <time>2012-08-02T08:58:23Z</time>
      </trkpt>
      <trkpt lat="46.47225" lon="11.51089">
        <ele>975.88</ele>
        <time>2012-08-02T08:58:24Z</time>
      </trkpt>
      <trkpt lat="46.47225" lon="11.51072">
        <ele>974.91</ele>
        <time>2012-08-02T08:58:25Z</time>
      </trkpt>
      <trkpt lat="46.47228" lon="11.51054">
        <ele>975.39</ele>
        <time>2012-08-02T08:58:26Z</time>
      </trkpt>
      <trkpt lat="46.47232" lon="11.51036">
        <ele>974.91</ele>
        <time>2012-08-02T08:58:27Z</time>
      </trkpt>
      <trkpt lat="46.47242" lon="11.50985">
        <ele>971.55</ele>
        <time>2012-08-02T08:58:30Z</time>
      </trkpt>
      <trkpt lat="46.47246" lon="11.5097">
        <ele>971.55</ele>
        <time>2012-08-02T08:58:31Z</time>
      </trkpt>
      <trkpt lat="46.47264" lon="11.50886">
        <ele>968.67</ele>
        <time>2012-08-02T08:58:36Z</time>
      </trkpt>
      <trkpt lat="46.47279" lon="11.50817">
        <ele>965.3</ele>
        <time>2012-08-02T08:58:40Z</time>
      </trkpt>
      <trkpt lat="46.47289" lon="11.50772">
        <ele>961.94</ele>
        <time>2012-08-02T08:58:43Z</time>
      </trkpt>
      <trkpt lat="46.47326" lon="11.50661">
        <ele>960.98</ele>
        <time>2012-08-02T08:58:49Z</time>
      </trkpt>
      <trkpt lat="46.47363" lon="11.50575">
        <ele>959.53</ele>
        <time>2012-08-02T08:58:52Z</time>
      </trkpt>
      <trkpt lat="46.47372" lon="11.50544">
        <ele>956.17</ele>
        <time>2012-08-02T08:58:53Z</time>
      </trkpt>
      <trkpt lat="46.47387" lon="11.50489">
        <ele>950.88</ele>
        <time>2012-08-02T08:58:55Z</time>
      </trkpt>
      <trkpt lat="46.47406" lon="11.50438">
        <ele>947.04</ele>
        <time>2012-08-02T08:58:57Z</time>
      </trkpt>
      <trkpt lat="46.47427" lon="11.50391">
        <ele>943.19</ele>
        <time>2012-08-02T08:58:59Z</time>
      </trkpt>
      <trkpt lat="46.47448" lon="11.5035">
        <ele>939.35</ele>
        <time>2012-08-02T08:59:01Z</time>
      </trkpt>
      <trkpt lat="46.47459" lon="11.50333">
        <ele>937.42</ele>
        <time>2012-08-02T08:59:02Z</time>
      </trkpt>
      <trkpt lat="46.47471" lon="11.50318">
        <ele>935.5</ele>
        <time>2012-08-02T08:59:03Z</time>
      </trkpt>
      <trkpt lat="46.47484" lon="11.50309">
        <ele>934.06</ele>
        <time>2012-08-02T08:59:04Z</time>
      </trkpt>
      <trkpt lat="46.47498" lon="11.50303">
        <ele>933.1</ele>
        <time>2012-08-02T08:59:05Z</time>
      </trkpt>
      <trkpt lat="46.47512" lon="11.50301">
        <ele>932.14</ele>
        <time>2012-08-02T08:59:06Z</time>
      </trkpt>
      <trkpt lat="46.47527" lon="11.50304">
        <ele>930.69</ele>
        <time>2012-08-02T08:59:07Z</time>
      </trkpt>
      <trkpt lat="46.47542" lon="11.50312">
        <ele>930.69</ele>
        <time>2012-08-02T08:59:08Z</time>
      </trkpt>
      <trkpt lat="46.47557" lon="11.50327">
        <ele>931.17</ele>
        <time>2012-08-02T08:59:09Z</time>
      </trkpt>
      <trkpt lat="46.47572" lon="11.50347">
        <ele>931.65</ele>
        <time>2012-08-02T08:59:10Z</time>
      </trkpt>
      <trkpt lat="46.47587" lon="11.5037">
        <ele>932.14</ele>
        <time>2012-08-02T08:59:11Z</time>
      </trkpt>
      <trkpt lat="46.47636" lon="11.50443">
        <ele>933.58</ele>
        <time>2012-08-02T08:59:14Z</time>
      </trkpt>
      <trkpt lat="46.47674" lon="11.50484">
        <ele>932.14</ele>
        <time>2012-08-02T08:59:16Z</time>
      </trkpt>
      <trkpt lat="46.47693" lon="11.505">
        <ele>931.17</ele>
        <time>2012-08-02T08:59:17Z</time>
      </trkpt>
      <trkpt lat="46.47762" lon="11.50553">
        <ele>927.33</ele>
        <time>2012-08-02T08:59:21Z</time>
      </trkpt>
      <trkpt lat="46.47793" lon="11.50583">
        <ele>928.29</ele>
        <time>2012-08-02T08:59:23Z</time>
      </trkpt>
      <trkpt lat="46.47807" lon="11.50602">
        <ele>927.81</ele>
        <time>2012-08-02T08:59:24Z</time>
      </trkpt>
      <trkpt lat="46.47861" lon="11.50673">
        <ele>925.89</ele>
        <time>2012-08-02T08:59:28Z</time>
      </trkpt>
      <trkpt lat="46.47875" lon="11.50684">
        <ele>925.41</ele>
        <time>2012-08-02T08:59:29Z</time>
      </trkpt>
      <trkpt lat="46.4789" lon="11.50692">
        <ele>924.93</ele>
        <time>2012-08-02T08:59:30Z</time>
      </trkpt>
      <trkpt lat="46.47906" lon="11.50696">
        <ele>925.41</ele>
        <time>2012-08-02T08:59:31Z</time>
      </trkpt>
      <trkpt lat="46.47922" lon="11.50695">
        <ele>925.41</ele>
        <time>2012-08-02T08:59:32Z</time>
      </trkpt>
      <trkpt lat="46.47938" lon="11.5069">
        <ele>925.89</ele>
        <time>2012-08-02T08:59:33Z</time>
      </trkpt>
      <trkpt lat="46.47953" lon="11.50682">
        <ele>925.41</ele>
        <time>2012-08-02T08:59:34Z</time>
      </trkpt>
      <trkpt lat="46.47968" lon="11.50669">
        <ele>925.41</ele>
        <time>2012-08-02T08:59:35Z</time>
      </trkpt>
      <trkpt lat="46.4798" lon="11.50651">
        <ele>925.41</ele>
        <time>2012-08-02T08:59:36Z</time>
      </trkpt>
      <trkpt lat="46.4799" lon="11.50629">
        <ele>925.41</ele>
        <time>2012-08-02T08:59:37Z</time>
      </trkpt>
      <trkpt lat="46.47998" lon="11.50605">
        <ele>925.41</ele>
        <time>2012-08-02T08:59:38Z</time>
      </trkpt>
      <trkpt lat="46.48004" lon="11.50579">
        <ele>926.37</ele>
        <time>2012-08-02T08:59:39Z</time>
      </trkpt>
      <trkpt lat="46.48008" lon="11.50552">
        <ele>926.37</ele>
        <time>2012-08-02T08:59:40Z</time>
      </trkpt>
      <trkpt lat="46.48009" lon="11.50523">
        <ele>926.37</ele>
        <time>2012-08-02T08:59:41Z</time>
      </trkpt>
      <trkpt lat="46.4801" lon="11.50495">
        <ele>926.37</ele>
        <time>2012-08-02T08:59:42Z</time>
      </trkpt>
      <trkpt lat="46.48011" lon="11.50217">
        <ele>925.89</ele>
        <time>2012-08-02T08:59:52Z</time>
      </trkpt>
      <trkpt lat="46.47991" lon="11.49945">
        <ele>924.93</ele>
        <time>2012-08-02T09:00:02Z</time>
      </trkpt>
      <trkpt lat="46.47987" lon="11.49919">
        <ele>924.93</ele>
        <time>2012-08-02T09:00:03Z</time>
      </trkpt>
      <trkpt lat="46.47981" lon="11.49894">
        <ele>925.41</ele>
        <time>2012-08-02T09:00:04Z</time>
      </trkpt>
      <trkpt lat="46.47947" lon="11.49785">
        <ele>923.48</ele>
        <time>2012-08-02T09:00:09Z</time>
      </trkpt>
      <trkpt lat="46.47944" lon="11.49765">
        <ele>923.48</ele>
        <time>2012-08-02T09:00:10Z</time>
      </trkpt>
      <trkpt lat="46.47943" lon="11.49743">
        <ele>923.48</ele>
        <time>2012-08-02T09:00:11Z</time>
      </trkpt>
      <trkpt lat="46.47944" lon="11.49722">
        <ele>923.96</ele>
        <time>2012-08-02T09:00:12Z</time>
      </trkpt>
      <trkpt lat="46.47948" lon="11.497">
        <ele>923.96</ele>
        <time>2012-08-02T09:00:13Z</time>
      </trkpt>
      <trkpt lat="46.47954" lon="11.4968">
        <ele>923.96</ele>
        <time>2012-08-02T09:00:14Z</time>
      </trkpt>
      <trkpt lat="46.47963" lon="11.49661">
        <ele>923.96</ele>
        <time>2012-08-02T09:00:15Z</time>
      </trkpt>
      <trkpt lat="46.47974" lon="11.49645">
        <ele>924.45</ele>
        <time>2012-08-02T09:00:16Z</time>
      </trkpt>
      <trkpt lat="46.47987" lon="11.4963">
        <ele>923.96</ele>
        <time>2012-08-02T09:00:17Z</time>
      </trkpt>
      <trkpt lat="46.48001" lon="11.49615">
        <ele>924.45</ele>
        <time>2012-08-02T09:00:18Z</time>
      </trkpt>
      <trkpt lat="46.48107" lon="11.49522">
        <ele>925.89</ele>
        <time>2012-08-02T09:00:25Z</time>
      </trkpt>
      <trkpt lat="46.48123" lon="11.49515">
        <ele>926.37</ele>
        <time>2012-08-02T09:00:26Z</time>
      </trkpt>
      <trkpt lat="46.4814" lon="11.4951">
        <ele>926.85</ele>
        <time>2012-08-02T09:00:27Z</time>
      </trkpt>
      <trkpt lat="46.48158" lon="11.49506">
        <ele>927.33</ele>
        <time>2012-08-02T09:00:28Z</time>
      </trkpt>
      <trkpt lat="46.48175" lon="11.49504">
        <ele>927.81</ele>
        <time>2012-08-02T09:00:29Z</time>
      </trkpt>
      <trkpt lat="46.48193" lon="11.49504">
        <ele>928.29</ele>
        <time>2012-08-02T09:00:30Z</time>
      </trkpt>
      <trkpt lat="46.48211" lon="11.49506">
        <ele>929.73</ele>
        <time>2012-08-02T09:00:31Z</time>
      </trkpt>
      <trkpt lat="46.48228" lon="11.49511">
        <ele>930.21</ele>
        <time>2012-08-02T09:00:32Z</time>
      </trkpt>
      <trkpt lat="46.48245" lon="11.49518">
        <ele>931.17</ele>
        <time>2012-08-02T09:00:33Z</time>
      </trkpt>
      <trkpt lat="46.48261" lon="11.49527">
        <ele>932.14</ele>
        <time>2012-08-02T09:00:34Z</time>
      </trkpt>
      <trkpt lat="46.48278" lon="11.49536">
        <ele>932.62</ele>
        <time>2012-08-02T09:00:35Z</time>
      </trkpt>
      <trkpt lat="46.48328" lon="11.49561">
        <ele>935.98</ele>
        <time>2012-08-02T09:00:38Z</time>
      </trkpt>
      <trkpt lat="46.48345" lon="11.49566">
        <ele>937.42</ele>
        <time>2012-08-02T09:00:39Z</time>
      </trkpt>
      <trkpt lat="46.48363" lon="11.49568">
        <ele>937.42</ele>
        <time>2012-08-02T09:00:40Z</time>
      </trkpt>
      <trkpt lat="46.48381" lon="11.49567">
        <ele>939.35</ele>
        <time>2012-08-02T09:00:41Z</time>
      </trkpt>
      <trkpt lat="46.48399" lon="11.49564">
        <ele>939.83</ele>
        <time>2012-08-02T09:00:42Z</time>
      </trkpt>
      <trkpt lat="46.48416" lon="11.49559">
        <ele>940.79</ele>
        <time>2012-08-02T09:00:43Z</time>
      </trkpt>
      <trkpt lat="46.48434" lon="11.49553">
        <ele>941.27</ele>
        <time>2012-08-02T09:00:44Z</time>
      </trkpt>
      <trkpt lat="46.48468" lon="11.49543">
        <ele>942.23</ele>
        <time>2012-08-02T09:00:46Z</time>
      </trkpt>
      <trkpt lat="46.48529" lon="11.49519">
        <ele>944.15</ele>
        <time>2012-08-02T09:00:50Z</time>
      </trkpt>
      <trkpt lat="46.48544" lon="11.49509">
        <ele>944.63</ele>
        <time>2012-08-02T09:00:51Z</time>
      </trkpt>
      <trkpt lat="46.48557" lon="11.49496">
        <ele>945.11</ele>
        <time>2012-08-02T09:00:52Z</time>
      </trkpt>
      <trkpt lat="46.4857" lon="11.4948">
        <ele>945.59</ele>
        <time>2012-08-02T09:00:53Z</time>
      </trkpt>
      <trkpt lat="46.48582" lon="11.49461">
        <ele>947.52</ele>
        <time>2012-08-02T09:00:54Z</time>
      </trkpt>
      <trkpt lat="46.48592" lon="11.4944">
        <ele>948</ele>
        <time>2012-08-02T09:00:55Z</time>
      </trkpt>
      <trkpt lat="46.48601" lon="11.49416">
        <ele>948</ele>
        <time>2012-08-02T09:00:56Z</time>
      </trkpt>
      <trkpt lat="46.48607" lon="11.49391">
        <ele>948.96</ele>
        <time>2012-08-02T09:00:57Z</time>
      </trkpt>
      <trkpt lat="46.48611" lon="11.49366">
        <ele>949.44</ele>
        <time>2012-08-02T09:00:58Z</time>
      </trkpt>
      <trkpt lat="46.48615" lon="11.49342">
        <ele>949.44</ele>
        <time>2012-08-02T09:00:59Z</time>
      </trkpt>
      <trkpt lat="46.48635" lon="11.49256">
        <ele>950.88</ele>
        <time>2012-08-02T09:01:03Z</time>
      </trkpt>
      <trkpt lat="46.48643" lon="11.49236">
        <ele>951.36</ele>
        <time>2012-08-02T09:01:04Z</time>
      </trkpt>
      <trkpt lat="46.48652" lon="11.49218">
        <ele>951.84</ele>
        <time>2012-08-02T09:01:05Z</time>
      </trkpt>
      <trkpt lat="46.48663" lon="11.492">
        <ele>952.32</ele>
        <time>2012-08-02T09:01:06Z</time>
      </trkpt>
      <trkpt lat="46.48674" lon="11.49183">
        <ele>953.28</ele>
        <time>2012-08-02T09:01:07Z</time>
      </trkpt>
      <trkpt lat="46.48686" lon="11.49169">
        <ele>953.28</ele>
        <time>2012-08-02T09:01:08Z</time>
      </trkpt>
      <trkpt lat="46.48699" lon="11.49156">
        <ele>953.28</ele>
        <time>2012-08-02T09:01:09Z</time>
      </trkpt>
      <trkpt lat="46.48713" lon="11.49145">
        <ele>953.77</ele>
        <time>2012-08-02T09:01:10Z</time>
      </trkpt>
      <trkpt lat="46.4881" lon="11.49088">
        <ele>956.65</ele>
        <time>2012-08-02T09:01:17Z</time>
      </trkpt>
      <trkpt lat="46.48825" lon="11.49086">
        <ele>957.13</ele>
        <time>2012-08-02T09:01:18Z</time>
      </trkpt>
      <trkpt lat="46.4884" lon="11.49086">
        <ele>957.13</ele>
        <time>2012-08-02T09:01:19Z</time>
      </trkpt>
      <trkpt lat="46.48855" lon="11.49089">
        <ele>957.61</ele>
        <time>2012-08-02T09:01:20Z</time>
      </trkpt>
      <trkpt lat="46.4887" lon="11.49094">
        <ele>957.61</ele>
        <time>2012-08-02T09:01:21Z</time>
      </trkpt>
      <trkpt lat="46.48885" lon="11.491">
        <ele>958.09</ele>
        <time>2012-08-02T09:01:22Z</time>
      </trkpt>
      <trkpt lat="46.48993" lon="11.49146">
        <ele>956.65</ele>
        <time>2012-08-02T09:01:29Z</time>
      </trkpt>
      <trkpt lat="46.49008" lon="11.49149">
        <ele>955.69</ele>
        <time>2012-08-02T09:01:30Z</time>
      </trkpt>
      <trkpt lat="46.49023" lon="11.4915">
        <ele>955.21</ele>
        <time>2012-08-02T09:01:31Z</time>
      </trkpt>
      <trkpt lat="46.49037" lon="11.4915">
        <ele>955.21</ele>
        <time>2012-08-02T09:01:32Z</time>
      </trkpt>
      <trkpt lat="46.49065" lon="11.49152">
        <ele>954.25</ele>
        <time>2012-08-02T09:01:34Z</time>
      </trkpt>
      <trkpt lat="46.49079" lon="11.49157">
        <ele>953.28</ele>
        <time>2012-08-02T09:01:35Z</time>
      </trkpt>
      <trkpt lat="46.49093" lon="11.49166">
        <ele>953.28</ele>
        <time>2012-08-02T09:01:36Z</time>
      </trkpt>
      <trkpt lat="46.49106" lon="11.4918">
        <ele>952.8</ele>
        <time>2012-08-02T09:01:37Z</time>
      </trkpt>
      <trkpt lat="46.4912" lon="11.49197">
        <ele>953.28</ele>
        <time>2012-08-02T09:01:38Z</time>
      </trkpt>
      <trkpt lat="46.49135" lon="11.49216">
        <ele>954.25</ele>
        <time>2012-08-02T09:01:39Z</time>
      </trkpt>
      <trkpt lat="46.49151" lon="11.49235">
        <ele>954.25</ele>
        <time>2012-08-02T09:01:40Z</time>
      </trkpt>
      <trkpt lat="46.49168" lon="11.4925">
        <ele>952.8</ele>
        <time>2012-08-02T09:01:41Z</time>
      </trkpt>
      <trkpt lat="46.49186" lon="11.49261">
        <ele>950.4</ele>
        <time>2012-08-02T09:01:42Z</time>
      </trkpt>
      <trkpt lat="46.49217" lon="11.49281">
        <ele>947.04</ele>
        <time>2012-08-02T09:01:44Z</time>
      </trkpt>
      <trkpt lat="46.4923" lon="11.49295">
        <ele>946.07</ele>
        <time>2012-08-02T09:01:45Z</time>
      </trkpt>
      <trkpt lat="46.49241" lon="11.49312">
        <ele>946.07</ele>
        <time>2012-08-02T09:01:46Z</time>
      </trkpt>
      <trkpt lat="46.4925" lon="11.49331">
        <ele>945.11</ele>
        <time>2012-08-02T09:01:47Z</time>
      </trkpt>
      <trkpt lat="46.49258" lon="11.49348">
        <ele>943.67</ele>
        <time>2012-08-02T09:01:48Z</time>
      </trkpt>
      <trkpt lat="46.49268" lon="11.49361">
        <ele>943.19</ele>
        <time>2012-08-02T09:01:49Z</time>
      </trkpt>
      <trkpt lat="46.49281" lon="11.49371">
        <ele>942.71</ele>
        <time>2012-08-02T09:01:50Z</time>
      </trkpt>
      <trkpt lat="46.49294" lon="11.49377">
        <ele>942.23</ele>
        <time>2012-08-02T09:01:51Z</time>
      </trkpt>
      <trkpt lat="46.49309" lon="11.49375">
        <ele>942.23</ele>
        <time>2012-08-02T09:01:52Z</time>
      </trkpt>
      <trkpt lat="46.49323" lon="11.49368">
        <ele>942.23</ele>
        <time>2012-08-02T09:01:53Z</time>
      </trkpt>
      <trkpt lat="46.49335" lon="11.49356">
        <ele>941.75</ele>
        <time>2012-08-02T09:01:54Z</time>
      </trkpt>
      <trkpt lat="46.49348" lon="11.49343">
        <ele>940.79</ele>
        <time>2012-08-02T09:01:55Z</time>
      </trkpt>
      <trkpt lat="46.49363" lon="11.4933">
        <ele>941.27</ele>
        <time>2012-08-02T09:01:56Z</time>
      </trkpt>
      <trkpt lat="46.49377" lon="11.49317">
        <ele>941.75</ele>
        <time>2012-08-02T09:01:57Z</time>
      </trkpt>
      <trkpt lat="46.49341" lon="11.49307">
        <ele>941.27</ele>
        <time>2012-08-02T09:01:58Z</time>
      </trkpt>
      <trkpt lat="46.49394" lon="11.49283">
        <ele>943.19</ele>
        <time>2012-08-02T09:01:59Z</time>
      </trkpt>
      <trkpt lat="46.49396" lon="11.49271">
        <ele>944.63</ele>
        <time>2012-08-02T09:02:00Z</time>
      </trkpt>
      <trkpt lat="46.49369" lon="11.49227">
        <ele>944.15</ele>
        <time>2012-08-02T09:02:01Z</time>
      </trkpt>
      <trkpt lat="46.49312" lon="11.49144">
        <ele>943.67</ele>
        <time>2012-08-02T09:02:04Z</time>
      </trkpt>
      <trkpt lat="46.49306" lon="11.49116">
        <ele>944.15</ele>
        <time>2012-08-02T09:02:05Z</time>
      </trkpt>
      <trkpt lat="46.49267" lon="11.48885">
        <ele>943.67</ele>
        <time>2012-08-02T09:02:14Z</time>
      </trkpt>
      <trkpt lat="46.49265" lon="11.48795">
        <ele>941.27</ele>
        <time>2012-08-02T09:02:18Z</time>
      </trkpt>
      <trkpt lat="46.49269" lon="11.48774">
        <ele>941.27</ele>
        <time>2012-08-02T09:02:19Z</time>
      </trkpt>
      <trkpt lat="46.49276" lon="11.48755">
        <ele>941.75</ele>
        <time>2012-08-02T09:02:20Z</time>
      </trkpt>
      <trkpt lat="46.49284" lon="11.48737">
        <ele>941.27</ele>
        <time>2012-08-02T09:02:21Z</time>
      </trkpt>
      <trkpt lat="46.49295" lon="11.48721">
        <ele>941.75</ele>
        <time>2012-08-02T09:02:22Z</time>
      </trkpt>
      <trkpt lat="46.49307" lon="11.48708">
        <ele>941.75</ele>
        <time>2012-08-02T09:02:23Z</time>
      </trkpt>
      <trkpt lat="46.49321" lon="11.48699">
        <ele>941.27</ele>
        <time>2012-08-02T09:02:24Z</time>
      </trkpt>
      <trkpt lat="46.49334" lon="11.48692">
        <ele>941.27</ele>
        <time>2012-08-02T09:02:25Z</time>
      </trkpt>
      <trkpt lat="46.49347" lon="11.48687">
        <ele>941.27</ele>
        <time>2012-08-02T09:02:26Z</time>
      </trkpt>
      <trkpt lat="46.49398" lon="11.48656">
        <ele>940.31</ele>
        <time>2012-08-02T09:02:31Z</time>
      </trkpt>
      <trkpt lat="46.49404" lon="11.48648">
        <ele>939.83</ele>
        <time>2012-08-02T09:02:32Z</time>
      </trkpt>
      <trkpt lat="46.49408" lon="11.4864">
        <ele>939.35</ele>
        <time>2012-08-02T09:02:33Z</time>
      </trkpt>
      <trkpt lat="46.49409" lon="11.48631">
        <ele>938.86</ele>
        <time>2012-08-02T09:02:34Z</time>
      </trkpt>
      <trkpt lat="46.49409" lon="11.48623">
        <ele>939.35</ele>
        <time>2012-08-02T09:02:35Z</time>
      </trkpt>
      <trkpt lat="46.49409" lon="11.48617">
        <ele>938.86</ele>
        <time>2012-08-02T09:02:36Z</time>
      </trkpt>
      <trkpt lat="46.49409" lon="11.48611">
        <ele>937.9</ele>
        <time>2012-08-02T09:02:37Z</time>
      </trkpt>
      <trkpt lat="46.4941" lon="11.48607">
        <ele>937.9</ele>
        <time>2012-08-02T09:02:38Z</time>
      </trkpt>
      <trkpt lat="46.4941" lon="11.48606">
        <ele>937.9</ele>
        <time>2012-08-02T09:02:48Z</time>
      </trkpt>
      <trkpt lat="46.4941" lon="11.48604">
        <ele>937.9</ele>
        <time>2012-08-02T09:02:50Z</time>
      </trkpt>
      <trkpt lat="46.49409" lon="11.48603">
        <ele>937.42</ele>
        <time>2012-08-02T09:02:51Z</time>
      </trkpt>
      <trkpt lat="46.49408" lon="11.48603">
        <ele>937.42</ele>
        <time>2012-08-02T09:02:52Z</time>
      </trkpt>
      <trkpt lat="46.49406" lon="11.48606">
        <ele>936.94</ele>
        <time>2012-08-02T09:02:55Z</time>
      </trkpt>
      <trkpt lat="46.49406" lon="11.4861">
        <ele>937.42</ele>
        <time>2012-08-02T09:02:56Z</time>
      </trkpt>
      <trkpt lat="46.49406" lon="11.48626">
        <ele>938.38</ele>
        <time>2012-08-02T09:02:58Z</time>
      </trkpt>
      <trkpt lat="46.49404" lon="11.48644">
        <ele>938.86</ele>
        <time>2012-08-02T09:03:04Z</time>
      </trkpt>
      <trkpt lat="46.494" lon="11.4865">
        <ele>938.86</ele>
        <time>2012-08-02T09:03:05Z</time>
      </trkpt>
      <trkpt lat="46.49385" lon="11.48663">
        <ele>939.83</ele>
        <time>2012-08-02T09:03:07Z</time>
      </trkpt>
      <trkpt lat="46.49376" lon="11.48669">
        <ele>939.35</ele>
        <time>2012-08-02T09:03:08Z</time>
      </trkpt>
      <trkpt lat="46.49365" lon="11.48673">
        <ele>939.35</ele>
        <time>2012-08-02T09:03:09Z</time>
      </trkpt>
      <trkpt lat="46.49302" lon="11.48708">
        <ele>940.31</ele>
        <time>2012-08-02T09:03:15Z</time>
      </trkpt>
      <trkpt lat="46.49292" lon="11.48719">
        <ele>940.31</ele>
        <time>2012-08-02T09:03:16Z</time>
      </trkpt>
      <trkpt lat="46.49283" lon="11.48732">
        <ele>940.31</ele>
        <time>2012-08-02T09:03:17Z</time>
      </trkpt>
      <trkpt lat="46.49275" lon="11.48747">
        <ele>940.79</ele>
        <time>2012-08-02T09:03:18Z</time>
      </trkpt>
      <trkpt lat="46.49269" lon="11.48764">
        <ele>940.79</ele>
        <time>2012-08-02T09:03:19Z</time>
      </trkpt>
      <trkpt lat="46.49264" lon="11.48783">
        <ele>940.79</ele>
        <time>2012-08-02T09:03:20Z</time>
      </trkpt>
      <trkpt lat="46.49261" lon="11.48803">
        <ele>940.31</ele>
        <time>2012-08-02T09:03:21Z</time>
      </trkpt>
      <trkpt lat="46.4926" lon="11.48824">
        <ele>940.31</ele>
        <time>2012-08-02T09:03:22Z</time>
      </trkpt>
      <trkpt lat="46.49261" lon="11.48846">
        <ele>941.27</ele>
        <time>2012-08-02T09:03:23Z</time>
      </trkpt>
      <trkpt lat="46.49262" lon="11.48868">
        <ele>940.31</ele>
        <time>2012-08-02T09:03:24Z</time>
      </trkpt>
      <trkpt lat="46.49269" lon="11.48939">
        <ele>941.75</ele>
        <time>2012-08-02T09:03:27Z</time>
      </trkpt>
      <trkpt lat="46.49084" lon="11.49144">
        <ele>951.36</ele>
        <time>2012-08-02T09:09:14Z</time>
      </trkpt>
      <trkpt lat="46.49088" lon="11.49144">
        <ele>950.88</ele>
        <time>2012-08-02T09:09:16Z</time>
      </trkpt>
      <trkpt lat="46.49091" lon="11.49145">
        <ele>950.88</ele>
        <time>2012-08-02T09:09:18Z</time>
      </trkpt>
      <trkpt lat="46.49093" lon="11.49154">
        <ele>946.56</ele>
        <time>2012-08-02T09:09:25Z</time>
      </trkpt>
      <trkpt lat="46.49092" lon="11.49154">
        <ele>946.56</ele>
        <time>2012-08-02T09:09:26Z</time>
      </trkpt>
      <trkpt lat="46.49093" lon="11.49157">
        <ele>945.11</ele>
        <time>2012-08-02T09:09:28Z</time>
      </trkpt>
      <trkpt lat="46.49115" lon="11.4919">
        <ele>943.19</ele>
        <time>2012-08-02T09:09:32Z</time>
      </trkpt>
      <trkpt lat="46.49154" lon="11.4924">
        <ele>939.83</ele>
        <time>2012-08-02T09:09:36Z</time>
      </trkpt>
      <trkpt lat="46.49167" lon="11.4925">
        <ele>938.86</ele>
        <time>2012-08-02T09:09:37Z</time>
      </trkpt>
      <trkpt lat="46.4918" lon="11.49258">
        <ele>937.9</ele>
        <time>2012-08-02T09:09:38Z</time>
      </trkpt>
      <trkpt lat="46.49217" lon="11.49282">
        <ele>935.02</ele>
        <time>2012-08-02T09:09:41Z</time>
      </trkpt>
      <trkpt lat="46.49228" lon="11.49294">
        <ele>933.58</ele>
        <time>2012-08-02T09:09:42Z</time>
      </trkpt>
      <trkpt lat="46.49239" lon="11.49309">
        <ele>933.1</ele>
        <time>2012-08-02T09:09:43Z</time>
      </trkpt>
      <trkpt lat="46.49248" lon="11.49325">
        <ele>932.14</ele>
        <time>2012-08-02T09:09:44Z</time>
      </trkpt>
      <trkpt lat="46.49256" lon="11.49341">
        <ele>931.17</ele>
        <time>2012-08-02T09:09:45Z</time>
      </trkpt>
      <trkpt lat="46.49265" lon="11.49355">
        <ele>929.73</ele>
        <time>2012-08-02T09:09:46Z</time>
      </trkpt>
      <trkpt lat="46.49275" lon="11.49366">
        <ele>928.77</ele>
        <time>2012-08-02T09:09:47Z</time>
      </trkpt>
      <trkpt lat="46.49287" lon="11.49373">
        <ele>928.29</ele>
        <time>2012-08-02T09:09:48Z</time>
      </trkpt>
      <trkpt lat="46.493" lon="11.49376">
        <ele>927.33</ele>
        <time>2012-08-02T09:09:49Z</time>
      </trkpt>
      <trkpt lat="46.49313" lon="11.49374">
        <ele>926.37</ele>
        <time>2012-08-02T09:09:50Z</time>
      </trkpt>
      <trkpt lat="46.49326" lon="11.49367">
        <ele>926.85</ele>
        <time>2012-08-02T09:09:51Z</time>
      </trkpt>
      <trkpt lat="46.49336" lon="11.49356">
        <ele>925.89</ele>
        <time>2012-08-02T09:09:52Z</time>
      </trkpt>
      <trkpt lat="46.49343" lon="11.49343">
        <ele>925.41</ele>
        <time>2012-08-02T09:09:53Z</time>
      </trkpt>
      <trkpt lat="46.49349" lon="11.4933">
        <ele>925.41</ele>
        <time>2012-08-02T09:09:54Z</time>
      </trkpt>
      <trkpt lat="46.49356" lon="11.49301">
        <ele>925.89</ele>
        <time>2012-08-02T09:09:56Z</time>
      </trkpt>
      <trkpt lat="46.49357" lon="11.49284">
        <ele>926.37</ele>
        <time>2012-08-02T09:09:57Z</time>
      </trkpt>
      <trkpt lat="46.49346" lon="11.4926">
        <ele>926.37</ele>
        <time>2012-08-02T09:09:58Z</time>
      </trkpt>
      <trkpt lat="46.49326" lon="11.49209">
        <ele>926.85</ele>
        <time>2012-08-02T09:10:00Z</time>
      </trkpt>
      <trkpt lat="46.49318" lon="11.49187">
        <ele>926.37</ele>
        <time>2012-08-02T09:10:01Z</time>
      </trkpt>
      <trkpt lat="46.49311" lon="11.49165">
        <ele>926.37</ele>
        <time>2012-08-02T09:10:02Z</time>
      </trkpt>
      <trkpt lat="46.49305" lon="11.49142">
        <ele>926.37</ele>
        <time>2012-08-02T09:10:03Z</time>
      </trkpt>
      <trkpt lat="46.49301" lon="11.49117">
        <ele>925.89</ele>
        <time>2012-08-02T09:10:04Z</time>
      </trkpt>
      <trkpt lat="46.49298" lon="11.49092">
        <ele>926.37</ele>
        <time>2012-08-02T09:10:05Z</time>
      </trkpt>
      <trkpt lat="46.49264" lon="11.48853">
        <ele>924.45</ele>
        <time>2012-08-02T09:10:14Z</time>
      </trkpt>
      <trkpt lat="46.49264" lon="11.48806">
        <ele>922.04</ele>
        <time>2012-08-02T09:10:16Z</time>
      </trkpt>
      <trkpt lat="46.49266" lon="11.48784">
        <ele>921.56</ele>
        <time>2012-08-02T09:10:17Z</time>
      </trkpt>
      <trkpt lat="46.49272" lon="11.48764">
        <ele>921.56</ele>
        <time>2012-08-02T09:10:18Z</time>
      </trkpt>
      <trkpt lat="46.49279" lon="11.48745">
        <ele>921.08</ele>
        <time>2012-08-02T09:10:19Z</time>
      </trkpt>
      <trkpt lat="46.4929" lon="11.48727">
        <ele>922.04</ele>
        <time>2012-08-02T09:10:20Z</time>
      </trkpt>
      <trkpt lat="46.49302" lon="11.48712">
        <ele>921.56</ele>
        <time>2012-08-02T09:10:21Z</time>
      </trkpt>
      <trkpt lat="46.49317" lon="11.48701">
        <ele>922.04</ele>
        <time>2012-08-02T09:10:22Z</time>
      </trkpt>
      <trkpt lat="46.49334" lon="11.48692">
        <ele>922.04</ele>
        <time>2012-08-02T09:10:23Z</time>
      </trkpt>
      <trkpt lat="46.4935" lon="11.48685">
        <ele>921.56</ele>
        <time>2012-08-02T09:10:24Z</time>
      </trkpt>
      <trkpt lat="46.49383" lon="11.48668">
        <ele>921.56</ele>
        <time>2012-08-02T09:10:26Z</time>
      </trkpt>
      <trkpt lat="46.49398" lon="11.48656">
        <ele>922.04</ele>
        <time>2012-08-02T09:10:27Z</time>
      </trkpt>
      <trkpt lat="46.49411" lon="11.4864">
        <ele>922.04</ele>
        <time>2012-08-02T09:10:28Z</time>
      </trkpt>
      <trkpt lat="46.49423" lon="11.48621">
        <ele>923</ele>
        <time>2012-08-02T09:10:29Z</time>
      </trkpt>
      <trkpt lat="46.49433" lon="11.486">
        <ele>923.48</ele>
        <time>2012-08-02T09:10:30Z</time>
      </trkpt>
      <trkpt lat="46.49443" lon="11.48578">
        <ele>924.93</ele>
        <time>2012-08-02T09:10:31Z</time>
      </trkpt>
      <trkpt lat="46.4948" lon="11.48489">
        <ele>928.29</ele>
        <time>2012-08-02T09:10:35Z</time>
      </trkpt>
      <trkpt lat="46.49524" lon="11.4839">
        <ele>931.65</ele>
        <time>2012-08-02T09:10:40Z</time>
      </trkpt>
      <trkpt lat="46.49535" lon="11.48376">
        <ele>932.14</ele>
        <time>2012-08-02T09:10:41Z</time>
      </trkpt>
      <trkpt lat="46.49549" lon="11.48364">
        <ele>933.58</ele>
        <time>2012-08-02T09:10:42Z</time>
      </trkpt>
      <trkpt lat="46.49564" lon="11.48357">
        <ele>934.06</ele>
        <time>2012-08-02T09:10:43Z</time>
      </trkpt>
      <trkpt lat="46.49579" lon="11.48354">
        <ele>935.98</ele>
        <time>2012-08-02T09:10:44Z</time>
      </trkpt>
      <trkpt lat="46.49595" lon="11.48354">
        <ele>936.46</ele>
        <time>2012-08-02T09:10:45Z</time>
      </trkpt>
      <trkpt lat="46.4961" lon="11.48358">
        <ele>937.42</ele>
        <time>2012-08-02T09:10:46Z</time>
      </trkpt>
      <trkpt lat="46.49625" lon="11.48363">
        <ele>938.38</ele>
        <time>2012-08-02T09:10:47Z</time>
      </trkpt>
      <trkpt lat="46.49639" lon="11.48367">
        <ele>938.38</ele>
        <time>2012-08-02T09:10:48Z</time>
      </trkpt>
      <trkpt lat="46.49654" lon="11.48369">
        <ele>939.35</ele>
        <time>2012-08-02T09:10:49Z</time>
      </trkpt>
      <trkpt lat="46.49668" lon="11.48367">
        <ele>939.83</ele>
        <time>2012-08-02T09:10:50Z</time>
      </trkpt>
      <trkpt lat="46.49682" lon="11.48362">
        <ele>940.79</ele>
        <time>2012-08-02T09:10:51Z</time>
      </trkpt>
      <trkpt lat="46.49695" lon="11.48353">
        <ele>941.75</ele>
        <time>2012-08-02T09:10:52Z</time>
      </trkpt>
      <trkpt lat="46.49708" lon="11.4834">
        <ele>942.23</ele>
        <time>2012-08-02T09:10:53Z</time>
      </trkpt>
      <trkpt lat="46.49718" lon="11.48324">
        <ele>942.71</ele>
        <time>2012-08-02T09:10:54Z</time>
      </trkpt>
      <trkpt lat="46.49727" lon="11.48304">
        <ele>942.71</ele>
        <time>2012-08-02T09:10:55Z</time>
      </trkpt>
      <trkpt lat="46.49733" lon="11.48282">
        <ele>943.67</ele>
        <time>2012-08-02T09:10:56Z</time>
      </trkpt>
      <trkpt lat="46.49738" lon="11.4826">
        <ele>942.71</ele>
        <time>2012-08-02T09:10:57Z</time>
      </trkpt>
      <trkpt lat="46.49749" lon="11.48218">
        <ele>940.79</ele>
        <time>2012-08-02T09:10:59Z</time>
      </trkpt>
      <trkpt lat="46.49756" lon="11.48199">
        <ele>940.79</ele>
        <time>2012-08-02T09:11:00Z</time>
      </trkpt>
      <trkpt lat="46.49764" lon="11.48182">
        <ele>940.31</ele>
        <time>2012-08-02T09:11:01Z</time>
      </trkpt>
      <trkpt lat="46.49775" lon="11.48167">
        <ele>939.83</ele>
        <time>2012-08-02T09:11:02Z</time>
      </trkpt>
      <trkpt lat="46.49787" lon="11.48156">
        <ele>939.83</ele>
        <time>2012-08-02T09:11:03Z</time>
      </trkpt>
      <trkpt lat="46.49802" lon="11.48151">
        <ele>939.35</ele>
        <time>2012-08-02T09:11:04Z</time>
      </trkpt>
      <trkpt lat="46.49817" lon="11.48149">
        <ele>938.86</ele>
        <time>2012-08-02T09:11:05Z</time>
      </trkpt>
      <trkpt lat="46.49833" lon="11.48149">
        <ele>937.9</ele>
        <time>2012-08-02T09:11:06Z</time>
      </trkpt>
      <trkpt lat="46.49847" lon="11.48154">
        <ele>938.38</ele>
        <time>2012-08-02T09:11:07Z</time>
      </trkpt>
      <trkpt lat="46.49861" lon="11.48165">
        <ele>935.98</ele>
        <time>2012-08-02T09:11:08Z</time>
      </trkpt>
      <trkpt lat="46.49873" lon="11.48179">
        <ele>935.02</ele>
        <time>2012-08-02T09:11:09Z</time>
      </trkpt>
      <trkpt lat="46.49884" lon="11.48196">
        <ele>933.58</ele>
        <time>2012-08-02T09:11:10Z</time>
      </trkpt>
      <trkpt lat="46.49892" lon="11.48214">
        <ele>932.14</ele>
        <time>2012-08-02T09:11:11Z</time>
      </trkpt>
      <trkpt lat="46.49899" lon="11.48232">
        <ele>932.14</ele>
        <time>2012-08-02T09:11:12Z</time>
      </trkpt>
      <trkpt lat="46.49907" lon="11.48252">
        <ele>930.21</ele>
        <time>2012-08-02T09:11:13Z</time>
      </trkpt>
      <trkpt lat="46.49933" lon="11.48307">
        <ele>927.33</ele>
        <time>2012-08-02T09:11:16Z</time>
      </trkpt>
      <trkpt lat="46.49968" lon="11.48354">
        <ele>923</ele>
        <time>2012-08-02T09:11:19Z</time>
      </trkpt>
      <trkpt lat="46.50007" lon="11.48393">
        <ele>919.64</ele>
        <time>2012-08-02T09:11:22Z</time>
      </trkpt>
      <trkpt lat="46.50047" lon="11.48435">
        <ele>916.27</ele>
        <time>2012-08-02T09:11:25Z</time>
      </trkpt>
      <trkpt lat="46.50102" lon="11.48496">
        <ele>911.95</ele>
        <time>2012-08-02T09:11:29Z</time>
      </trkpt>
      <trkpt lat="46.50141" lon="11.48546">
        <ele>907.62</ele>
        <time>2012-08-02T09:11:32Z</time>
      </trkpt>
      <trkpt lat="46.50166" lon="11.4858">
        <ele>904.26</ele>
        <time>2012-08-02T09:11:34Z</time>
      </trkpt>
      <trkpt lat="46.5019" lon="11.48615">
        <ele>900.89</ele>
        <time>2012-08-02T09:11:36Z</time>
      </trkpt>
      <trkpt lat="46.50222" lon="11.48666">
        <ele>897.53</ele>
        <time>2012-08-02T09:11:39Z</time>
      </trkpt>
      <trkpt lat="46.50251" lon="11.48716">
        <ele>892.72</ele>
        <time>2012-08-02T09:11:42Z</time>
      </trkpt>
      <trkpt lat="46.50292" lon="11.4877">
        <ele>888.4</ele>
        <time>2012-08-02T09:11:46Z</time>
      </trkpt>
      <trkpt lat="46.50305" lon="11.48778">
        <ele>887.43</ele>
        <time>2012-08-02T09:11:47Z</time>
      </trkpt>
      <trkpt lat="46.50318" lon="11.48783">
        <ele>886.47</ele>
        <time>2012-08-02T09:11:48Z</time>
      </trkpt>
      <trkpt lat="46.50332" lon="11.48783">
        <ele>885.99</ele>
        <time>2012-08-02T09:11:49Z</time>
      </trkpt>
      <trkpt lat="46.50346" lon="11.48779">
        <ele>885.03</ele>
        <time>2012-08-02T09:11:50Z</time>
      </trkpt>
      <trkpt lat="46.50359" lon="11.48771">
        <ele>884.07</ele>
        <time>2012-08-02T09:11:51Z</time>
      </trkpt>
      <trkpt lat="46.50372" lon="11.48758">
        <ele>883.11</ele>
        <time>2012-08-02T09:11:52Z</time>
      </trkpt>
      <trkpt lat="46.50382" lon="11.48742">
        <ele>882.63</ele>
        <time>2012-08-02T09:11:53Z</time>
      </trkpt>
      <trkpt lat="46.5039" lon="11.48722">
        <ele>881.67</ele>
        <time>2012-08-02T09:11:54Z</time>
      </trkpt>
      <trkpt lat="46.50394" lon="11.48699">
        <ele>880.71</ele>
        <time>2012-08-02T09:11:55Z</time>
      </trkpt>
      <trkpt lat="46.50395" lon="11.48676">
        <ele>879.74</ele>
        <time>2012-08-02T09:11:56Z</time>
      </trkpt>
      <trkpt lat="46.50392" lon="11.48652">
        <ele>877.82</ele>
        <time>2012-08-02T09:11:57Z</time>
      </trkpt>
      <trkpt lat="46.50387" lon="11.48628">
        <ele>876.86</ele>
        <time>2012-08-02T09:11:58Z</time>
      </trkpt>
      <trkpt lat="46.50382" lon="11.48605">
        <ele>874.94</ele>
        <time>2012-08-02T09:11:59Z</time>
      </trkpt>
      <trkpt lat="46.50368" lon="11.48535">
        <ele>872.05</ele>
        <time>2012-08-02T09:12:02Z</time>
      </trkpt>
      <trkpt lat="46.50363" lon="11.48461">
        <ele>868.21</ele>
        <time>2012-08-02T09:12:05Z</time>
      </trkpt>
      <trkpt lat="46.50363" lon="11.48413">
        <ele>864.84</ele>
        <time>2012-08-02T09:12:07Z</time>
      </trkpt>
      <trkpt lat="46.50364" lon="11.48341">
        <ele>859.56</ele>
        <time>2012-08-02T09:12:10Z</time>
      </trkpt>
      <trkpt lat="46.5037" lon="11.48273">
        <ele>855.71</ele>
        <time>2012-08-02T09:12:13Z</time>
      </trkpt>
      <trkpt lat="46.50376" lon="11.4823">
        <ele>852.35</ele>
        <time>2012-08-02T09:12:15Z</time>
      </trkpt>
      <trkpt lat="46.50383" lon="11.48188">
        <ele>849.46</ele>
        <time>2012-08-02T09:12:17Z</time>
      </trkpt>
      <trkpt lat="46.5039" lon="11.48122">
        <ele>845.14</ele>
        <time>2012-08-02T09:12:20Z</time>
      </trkpt>
      <trkpt lat="46.5039" lon="11.48099">
        <ele>843.21</ele>
        <time>2012-08-02T09:12:21Z</time>
      </trkpt>
      <trkpt lat="46.50389" lon="11.48077">
        <ele>842.73</ele>
        <time>2012-08-02T09:12:22Z</time>
      </trkpt>
      <trkpt lat="46.50388" lon="11.48054">
        <ele>841.29</ele>
        <time>2012-08-02T09:12:23Z</time>
      </trkpt>
      <trkpt lat="46.50385" lon="11.48031">
        <ele>839.37</ele>
        <time>2012-08-02T09:12:24Z</time>
      </trkpt>
      <trkpt lat="46.50381" lon="11.48007">
        <ele>838.41</ele>
        <time>2012-08-02T09:12:25Z</time>
      </trkpt>
      <trkpt lat="46.50376" lon="11.47984">
        <ele>836.48</ele>
        <time>2012-08-02T09:12:26Z</time>
      </trkpt>
      <trkpt lat="46.50365" lon="11.47938">
        <ele>832.64</ele>
        <time>2012-08-02T09:12:28Z</time>
      </trkpt>
      <trkpt lat="46.50348" lon="11.47867">
        <ele>827.83</ele>
        <time>2012-08-02T09:12:31Z</time>
      </trkpt>
      <trkpt lat="46.50331" lon="11.47797">
        <ele>823.51</ele>
        <time>2012-08-02T09:12:34Z</time>
      </trkpt>
      <trkpt lat="46.50322" lon="11.47774">
        <ele>822.55</ele>
        <time>2012-08-02T09:12:35Z</time>
      </trkpt>
      <trkpt lat="46.50304" lon="11.47729">
        <ele>818.7</ele>
        <time>2012-08-02T09:12:37Z</time>
      </trkpt>
      <trkpt lat="46.50296" lon="11.47706">
        <ele>817.26</ele>
        <time>2012-08-02T09:12:38Z</time>
      </trkpt>
      <trkpt lat="46.50289" lon="11.4768">
        <ele>814.85</ele>
        <time>2012-08-02T09:12:39Z</time>
      </trkpt>
      <trkpt lat="46.50284" lon="11.47654">
        <ele>813.41</ele>
        <time>2012-08-02T09:12:40Z</time>
      </trkpt>
      <trkpt lat="46.50281" lon="11.47628">
        <ele>811.97</ele>
        <time>2012-08-02T09:12:41Z</time>
      </trkpt>
      <trkpt lat="46.50278" lon="11.47601">
        <ele>810.05</ele>
        <time>2012-08-02T09:12:42Z</time>
      </trkpt>
      <trkpt lat="46.50274" lon="11.47522">
        <ele>805.24</ele>
        <time>2012-08-02T09:12:45Z</time>
      </trkpt>
      <trkpt lat="46.50271" lon="11.4747">
        <ele>800.92</ele>
        <time>2012-08-02T09:12:47Z</time>
      </trkpt>
      <trkpt lat="46.50265" lon="11.47418">
        <ele>797.07</ele>
        <time>2012-08-02T09:12:49Z</time>
      </trkpt>
      <trkpt lat="46.50254" lon="11.47366">
        <ele>793.22</ele>
        <time>2012-08-02T09:12:51Z</time>
      </trkpt>
      <trkpt lat="46.50239" lon="11.47318">
        <ele>789.38</ele>
        <time>2012-08-02T09:12:53Z</time>
      </trkpt>
      <trkpt lat="46.5022" lon="11.47275">
        <ele>786.02</ele>
        <time>2012-08-02T09:12:55Z</time>
      </trkpt>
      <trkpt lat="46.50187" lon="11.47217">
        <ele>781.21</ele>
        <time>2012-08-02T09:12:58Z</time>
      </trkpt>
      <trkpt lat="46.50165" lon="11.47181">
        <ele>777.84</ele>
        <time>2012-08-02T09:13:00Z</time>
      </trkpt>
      <trkpt lat="46.50133" lon="11.47126">
        <ele>773.04</ele>
        <time>2012-08-02T09:13:03Z</time>
      </trkpt>
      <trkpt lat="46.50102" lon="11.47069">
        <ele>769.67</ele>
        <time>2012-08-02T09:13:06Z</time>
      </trkpt>
      <trkpt lat="46.50083" lon="11.47031">
        <ele>766.31</ele>
        <time>2012-08-02T09:13:08Z</time>
      </trkpt>
      <trkpt lat="46.50061" lon="11.46997">
        <ele>761.98</ele>
        <time>2012-08-02T09:13:10Z</time>
      </trkpt>
      <trkpt lat="46.50049" lon="11.46983">
        <ele>760.54</ele>
        <time>2012-08-02T09:13:11Z</time>
      </trkpt>
      <trkpt lat="46.50036" lon="11.4697">
        <ele>759.1</ele>
        <time>2012-08-02T09:13:12Z</time>
      </trkpt>
      <trkpt lat="46.50022" lon="11.46959">
        <ele>759.1</ele>
        <time>2012-08-02T09:13:13Z</time>
      </trkpt>
      <trkpt lat="46.50008" lon="11.46949">
        <ele>756.21</ele>
        <time>2012-08-02T09:13:14Z</time>
      </trkpt>
      <trkpt lat="46.49982" lon="11.46933">
        <ele>752.85</ele>
        <time>2012-08-02T09:13:16Z</time>
      </trkpt>
      <trkpt lat="46.49963" lon="11.46917">
        <ele>749</ele>
        <time>2012-08-02T09:13:18Z</time>
      </trkpt>
      <trkpt lat="46.49956" lon="11.46907">
        <ele>748.04</ele>
        <time>2012-08-02T09:13:19Z</time>
      </trkpt>
      <trkpt lat="46.49952" lon="11.46896">
        <ele>747.08</ele>
        <time>2012-08-02T09:13:20Z</time>
      </trkpt>
      <trkpt lat="46.49951" lon="11.46883">
        <ele>746.12</ele>
        <time>2012-08-02T09:13:21Z</time>
      </trkpt>
      <trkpt lat="46.49953" lon="11.46871">
        <ele>745.64</ele>
        <time>2012-08-02T09:13:22Z</time>
      </trkpt>
      <trkpt lat="46.49959" lon="11.46859">
        <ele>744.68</ele>
        <time>2012-08-02T09:13:23Z</time>
      </trkpt>
      <trkpt lat="46.49968" lon="11.46851">
        <ele>744.68</ele>
        <time>2012-08-02T09:13:24Z</time>
      </trkpt>
      <trkpt lat="46.49978" lon="11.4685">
        <ele>743.72</ele>
        <time>2012-08-02T09:13:25Z</time>
      </trkpt>
      <trkpt lat="46.49989" lon="11.46855">
        <ele>744.2</ele>
        <time>2012-08-02T09:13:26Z</time>
      </trkpt>
      <trkpt lat="46.49999" lon="11.46866">
        <ele>743.72</ele>
        <time>2012-08-02T09:13:27Z</time>
      </trkpt>
      <trkpt lat="46.50008" lon="11.46882">
        <ele>743.72</ele>
        <time>2012-08-02T09:13:28Z</time>
      </trkpt>
      <trkpt lat="46.50018" lon="11.46899">
        <ele>743.24</ele>
        <time>2012-08-02T09:13:29Z</time>
      </trkpt>
      <trkpt lat="46.50039" lon="11.46934">
        <ele>743.72</ele>
        <time>2012-08-02T09:13:31Z</time>
      </trkpt>
      <trkpt lat="46.50053" lon="11.4695">
        <ele>742.76</ele>
        <time>2012-08-02T09:13:32Z</time>
      </trkpt>
      <trkpt lat="46.50068" lon="11.46963">
        <ele>741.79</ele>
        <time>2012-08-02T09:13:33Z</time>
      </trkpt>
      <trkpt lat="46.50083" lon="11.46974">
        <ele>739.87</ele>
        <time>2012-08-02T09:13:34Z</time>
      </trkpt>
      <trkpt lat="46.50099" lon="11.46982">
        <ele>738.91</ele>
        <time>2012-08-02T09:13:35Z</time>
      </trkpt>
      <trkpt lat="46.50114" lon="11.4699">
        <ele>737.95</ele>
        <time>2012-08-02T09:13:36Z</time>
      </trkpt>
      <trkpt lat="46.5016" lon="11.4702">
        <ele>734.1</ele>
        <time>2012-08-02T09:13:39Z</time>
      </trkpt>
      <trkpt lat="46.50212" lon="11.47081">
        <ele>730.74</ele>
        <time>2012-08-02T09:13:43Z</time>
      </trkpt>
      <trkpt lat="46.50243" lon="11.47138">
        <ele>729.3</ele>
        <time>2012-08-02T09:13:46Z</time>
      </trkpt>
      <trkpt lat="46.50273" lon="11.47189">
        <ele>725.45</ele>
        <time>2012-08-02T09:13:49Z</time>
      </trkpt>
      <trkpt lat="46.50283" lon="11.47204">
        <ele>726.41</ele>
        <time>2012-08-02T09:13:50Z</time>
      </trkpt>
      <trkpt lat="46.50294" lon="11.47219">
        <ele>719.2</ele>
        <time>2012-08-02T09:13:51Z</time>
      </trkpt>
      <trkpt lat="46.50306" lon="11.47233">
        <ele>725.93</ele>
        <time>2012-08-02T09:13:52Z</time>
      </trkpt>
      <trkpt lat="46.50353" lon="11.47288">
        <ele>721.61</ele>
        <time>2012-08-02T09:13:56Z</time>
      </trkpt>
      <trkpt lat="46.50363" lon="11.47303">
        <ele>722.09</ele>
        <time>2012-08-02T09:13:57Z</time>
      </trkpt>
      <trkpt lat="46.50372" lon="11.47319">
        <ele>722.09</ele>
        <time>2012-08-02T09:13:58Z</time>
      </trkpt>
      <trkpt lat="46.5038" lon="11.47337">
        <ele>722.09</ele>
        <time>2012-08-02T09:13:59Z</time>
      </trkpt>
      <trkpt lat="46.50386" lon="11.47357">
        <ele>721.61</ele>
        <time>2012-08-02T09:14:00Z</time>
      </trkpt>
      <trkpt lat="46.50391" lon="11.47378">
        <ele>720.16</ele>
        <time>2012-08-02T09:14:01Z</time>
      </trkpt>
      <trkpt lat="46.50394" lon="11.47399">
        <ele>720.65</ele>
        <time>2012-08-02T09:14:02Z</time>
      </trkpt>
      <trkpt lat="46.50397" lon="11.47419">
        <ele>719.68</ele>
        <time>2012-08-02T09:14:03Z</time>
      </trkpt>
      <trkpt lat="46.50399" lon="11.47438">
        <ele>719.2</ele>
        <time>2012-08-02T09:14:04Z</time>
      </trkpt>
      <trkpt lat="46.50402" lon="11.47456">
        <ele>718.24</ele>
        <time>2012-08-02T09:14:05Z</time>
      </trkpt>
      <trkpt lat="46.50408" lon="11.47474">
        <ele>717.76</ele>
        <time>2012-08-02T09:14:06Z</time>
      </trkpt>
      <trkpt lat="46.50416" lon="11.47489">
        <ele>717.28</ele>
        <time>2012-08-02T09:14:07Z</time>
      </trkpt>
      <trkpt lat="46.50427" lon="11.47501">
        <ele>717.28</ele>
        <time>2012-08-02T09:14:08Z</time>
      </trkpt>
      <trkpt lat="46.5044" lon="11.47511">
        <ele>715.84</ele>
        <time>2012-08-02T09:14:09Z</time>
      </trkpt>
      <trkpt lat="46.50454" lon="11.47516">
        <ele>713.92</ele>
        <time>2012-08-02T09:14:10Z</time>
      </trkpt>
      <trkpt lat="46.50468" lon="11.47518">
        <ele>712.95</ele>
        <time>2012-08-02T09:14:11Z</time>
      </trkpt>
      <trkpt lat="46.50483" lon="11.47515">
        <ele>711.99</ele>
        <time>2012-08-02T09:14:12Z</time>
      </trkpt>
      <trkpt lat="46.50497" lon="11.47509">
        <ele>711.51</ele>
        <time>2012-08-02T09:14:13Z</time>
      </trkpt>
      <trkpt lat="46.50511" lon="11.47501">
        <ele>710.07</ele>
        <time>2012-08-02T09:14:14Z</time>
      </trkpt>
      <trkpt lat="46.50538" lon="11.47487">
        <ele>706.71</ele>
        <time>2012-08-02T09:14:16Z</time>
      </trkpt>
      <trkpt lat="46.50551" lon="11.47485">
        <ele>704.78</ele>
        <time>2012-08-02T09:14:17Z</time>
      </trkpt>
      <trkpt lat="46.50564" lon="11.47487">
        <ele>701.9</ele>
        <time>2012-08-02T09:14:18Z</time>
      </trkpt>
      <trkpt lat="46.50576" lon="11.47494">
        <ele>700.46</ele>
        <time>2012-08-02T09:14:19Z</time>
      </trkpt>
      <trkpt lat="46.50587" lon="11.47506">
        <ele>698.53</ele>
        <time>2012-08-02T09:14:20Z</time>
      </trkpt>
      <trkpt lat="46.50595" lon="11.47522">
        <ele>695.65</ele>
        <time>2012-08-02T09:14:21Z</time>
      </trkpt>
      <trkpt lat="46.50604" lon="11.47539">
        <ele>696.61</ele>
        <time>2012-08-02T09:14:22Z</time>
      </trkpt>
      <trkpt lat="46.50612" lon="11.47558">
        <ele>694.69</ele>
        <time>2012-08-02T09:14:23Z</time>
      </trkpt>
      <trkpt lat="46.5063" lon="11.47596">
        <ele>691.33</ele>
        <time>2012-08-02T09:14:25Z</time>
      </trkpt>
      <trkpt lat="46.5064" lon="11.47615">
        <ele>692.77</ele>
        <time>2012-08-02T09:14:26Z</time>
      </trkpt>
      <trkpt lat="46.5065" lon="11.47632">
        <ele>687.96</ele>
        <time>2012-08-02T09:14:27Z</time>
      </trkpt>
      <trkpt lat="46.50669" lon="11.47667">
        <ele>684.6</ele>
        <time>2012-08-02T09:14:29Z</time>
      </trkpt>
      <trkpt lat="46.50677" lon="11.47685">
        <ele>683.15</ele>
        <time>2012-08-02T09:14:30Z</time>
      </trkpt>
      <trkpt lat="46.50683" lon="11.47702">
        <ele>682.19</ele>
        <time>2012-08-02T09:14:31Z</time>
      </trkpt>
      <trkpt lat="46.50689" lon="11.47718">
        <ele>679.79</ele>
        <time>2012-08-02T09:14:32Z</time>
      </trkpt>
      <trkpt lat="46.50695" lon="11.47731">
        <ele>678.83</ele>
        <time>2012-08-02T09:14:33Z</time>
      </trkpt>
      <trkpt lat="46.50702" lon="11.47741">
        <ele>676.42</ele>
        <time>2012-08-02T09:14:34Z</time>
      </trkpt>
      <trkpt lat="46.5071" lon="11.47747">
        <ele>675.46</ele>
        <time>2012-08-02T09:14:35Z</time>
      </trkpt>
      <trkpt lat="46.50718" lon="11.47747">
        <ele>674.98</ele>
        <time>2012-08-02T09:14:36Z</time>
      </trkpt>
      <trkpt lat="46.50725" lon="11.47743">
        <ele>674.5</ele>
        <time>2012-08-02T09:14:37Z</time>
      </trkpt>
      <trkpt lat="46.50731" lon="11.47733">
        <ele>674.02</ele>
        <time>2012-08-02T09:14:38Z</time>
      </trkpt>
      <trkpt lat="46.50734" lon="11.4772">
        <ele>673.06</ele>
        <time>2012-08-02T09:14:39Z</time>
      </trkpt>
      <trkpt lat="46.50733" lon="11.47704">
        <ele>672.58</ele>
        <time>2012-08-02T09:14:40Z</time>
      </trkpt>
      <trkpt lat="46.50728" lon="11.47686">
        <ele>672.58</ele>
        <time>2012-08-02T09:14:41Z</time>
      </trkpt>
      <trkpt lat="46.5072" lon="11.47667">
        <ele>672.58</ele>
        <time>2012-08-02T09:14:42Z</time>
      </trkpt>
      <trkpt lat="46.50685" lon="11.47585">
        <ele>668.25</ele>
        <time>2012-08-02T09:14:46Z</time>
      </trkpt>
      <trkpt lat="46.50669" lon="11.47544">
        <ele>663.93</ele>
        <time>2012-08-02T09:14:48Z</time>
      </trkpt>
      <trkpt lat="46.50662" lon="11.47523">
        <ele>662.97</ele>
        <time>2012-08-02T09:14:49Z</time>
      </trkpt>
      <trkpt lat="46.50658" lon="11.475">
        <ele>661.52</ele>
        <time>2012-08-02T09:14:50Z</time>
      </trkpt>
      <trkpt lat="46.50655" lon="11.47477">
        <ele>660.08</ele>
        <time>2012-08-02T09:14:51Z</time>
      </trkpt>
      <trkpt lat="46.50653" lon="11.47454">
        <ele>657.2</ele>
        <time>2012-08-02T09:14:52Z</time>
      </trkpt>
      <trkpt lat="46.50652" lon="11.47432">
        <ele>655.28</ele>
        <time>2012-08-02T09:14:53Z</time>
      </trkpt>
      <trkpt lat="46.50651" lon="11.47411">
        <ele>652.39</ele>
        <time>2012-08-02T09:14:54Z</time>
      </trkpt>
      <trkpt lat="46.50648" lon="11.47393">
        <ele>650.95</ele>
        <time>2012-08-02T09:14:55Z</time>
      </trkpt>
      <trkpt lat="46.50642" lon="11.47375">
        <ele>649.99</ele>
        <time>2012-08-02T09:14:56Z</time>
      </trkpt>
      <trkpt lat="46.50634" lon="11.47361">
        <ele>649.03</ele>
        <time>2012-08-02T09:14:57Z</time>
      </trkpt>
      <trkpt lat="46.50623" lon="11.4735">
        <ele>647.1</ele>
        <time>2012-08-02T09:14:58Z</time>
      </trkpt>
      <trkpt lat="46.5061" lon="11.47342">
        <ele>647.59</ele>
        <time>2012-08-02T09:14:59Z</time>
      </trkpt>
      <trkpt lat="46.50596" lon="11.47335">
        <ele>644.7</ele>
        <time>2012-08-02T09:15:00Z</time>
      </trkpt>
      <trkpt lat="46.50583" lon="11.47327">
        <ele>644.22</ele>
        <time>2012-08-02T09:15:01Z</time>
      </trkpt>
      <trkpt lat="46.50573" lon="11.47315">
        <ele>641.82</ele>
        <time>2012-08-02T09:15:02Z</time>
      </trkpt>
      <trkpt lat="46.50566" lon="11.47299">
        <ele>640.86</ele>
        <time>2012-08-02T09:15:03Z</time>
      </trkpt>
      <trkpt lat="46.50562" lon="11.4728">
        <ele>639.41</ele>
        <time>2012-08-02T09:15:04Z</time>
      </trkpt>
      <trkpt lat="46.50562" lon="11.47259">
        <ele>637.97</ele>
        <time>2012-08-02T09:15:05Z</time>
      </trkpt>
      <trkpt lat="46.50563" lon="11.47238">
        <ele>637.49</ele>
        <time>2012-08-02T09:15:06Z</time>
      </trkpt>
      <trkpt lat="46.50566" lon="11.47173">
        <ele>633.17</ele>
        <time>2012-08-02T09:15:09Z</time>
      </trkpt>
      <trkpt lat="46.50564" lon="11.47151">
        <ele>632.68</ele>
        <time>2012-08-02T09:15:10Z</time>
      </trkpt>
      <trkpt lat="46.50559" lon="11.47131">
        <ele>631.24</ele>
        <time>2012-08-02T09:15:11Z</time>
      </trkpt>
      <trkpt lat="46.50546" lon="11.47072">
        <ele>624.99</ele>
        <time>2012-08-02T09:15:15Z</time>
      </trkpt>
      <trkpt lat="46.50545" lon="11.4707">
        <ele>624.99</ele>
        <time>2012-08-02T09:15:16Z</time>
      </trkpt>
      <trkpt lat="46.50544" lon="11.47067">
        <ele>620.19</ele>
        <time>2012-08-02T09:15:18Z</time>
      </trkpt>
      <trkpt lat="46.50542" lon="11.4706">
        <ele>615.86</ele>
        <time>2012-08-02T09:15:19Z</time>
      </trkpt>
      <trkpt lat="46.50543" lon="11.47064">
        <ele>609.61</ele>
        <time>2012-08-02T09:15:23Z</time>
      </trkpt>
      <trkpt lat="46.50543" lon="11.47063">
        <ele>605.77</ele>
        <time>2012-08-02T09:15:25Z</time>
      </trkpt>
      <trkpt lat="46.50395" lon="11.46802">
        <ele>602.88</ele>
        <time>2012-08-02T09:15:27Z</time>
      </trkpt>
      <trkpt lat="46.50364" lon="11.46768">
        <ele>599.52</ele>
        <time>2012-08-02T09:15:29Z</time>
      </trkpt>
      <trkpt lat="46.50349" lon="11.46752">
        <ele>596.15</ele>
        <time>2012-08-02T09:15:30Z</time>
      </trkpt>
      <trkpt lat="46.50336" lon="11.46735">
        <ele>593.75</ele>
        <time>2012-08-02T09:15:31Z</time>
      </trkpt>
      <trkpt lat="46.50326" lon="11.46717">
        <ele>591.83</ele>
        <time>2012-08-02T09:15:32Z</time>
      </trkpt>
      <trkpt lat="46.50318" lon="11.46697">
        <ele>589.91</ele>
        <time>2012-08-02T09:15:33Z</time>
      </trkpt>
      <trkpt lat="46.50313" lon="11.46676">
        <ele>587.02</ele>
        <time>2012-08-02T09:15:34Z</time>
      </trkpt>
      <trkpt lat="46.50311" lon="11.46654">
        <ele>585.58</ele>
        <time>2012-08-02T09:15:35Z</time>
      </trkpt>
      <trkpt lat="46.5031" lon="11.46631">
        <ele>584.62</ele>
        <time>2012-08-02T09:15:36Z</time>
      </trkpt>
      <trkpt lat="46.50307" lon="11.4661">
        <ele>584.14</ele>
        <time>2012-08-02T09:15:37Z</time>
      </trkpt>
      <trkpt lat="46.50302" lon="11.46588">
        <ele>583.18</ele>
        <time>2012-08-02T09:15:38Z</time>
      </trkpt>
      <trkpt lat="46.50295" lon="11.46567">
        <ele>581.25</ele>
        <time>2012-08-02T09:15:39Z</time>
      </trkpt>
      <trkpt lat="46.50271" lon="11.46513">
        <ele>575.97</ele>
        <time>2012-08-02T09:15:42Z</time>
      </trkpt>
      <trkpt lat="46.50262" lon="11.465">
        <ele>574.53</ele>
        <time>2012-08-02T09:15:43Z</time>
      </trkpt>
      <trkpt lat="46.5025" lon="11.46491">
        <ele>572.6</ele>
        <time>2012-08-02T09:15:44Z</time>
      </trkpt>
      <trkpt lat="46.50238" lon="11.46488">
        <ele>571.64</ele>
        <time>2012-08-02T09:15:45Z</time>
      </trkpt>
      <trkpt lat="46.50224" lon="11.46483">
        <ele>570.68</ele>
        <time>2012-08-02T09:15:46Z</time>
      </trkpt>
      <trkpt lat="46.5021" lon="11.46478">
        <ele>567.8</ele>
        <time>2012-08-02T09:15:47Z</time>
      </trkpt>
      <trkpt lat="46.50184" lon="11.46472">
        <ele>564.91</ele>
        <time>2012-08-02T09:15:49Z</time>
      </trkpt>
      <trkpt lat="46.50175" lon="11.46469">
        <ele>563.95</ele>
        <time>2012-08-02T09:15:50Z</time>
      </trkpt>
      <trkpt lat="46.50166" lon="11.46464">
        <ele>562.99</ele>
        <time>2012-08-02T09:15:51Z</time>
      </trkpt>
      <trkpt lat="46.5016" lon="11.46457">
        <ele>561.07</ele>
        <time>2012-08-02T09:15:52Z</time>
      </trkpt>
      <trkpt lat="46.50157" lon="11.46448">
        <ele>561.07</ele>
        <time>2012-08-02T09:15:53Z</time>
      </trkpt>
      <trkpt lat="46.50156" lon="11.46439">
        <ele>559.62</ele>
        <time>2012-08-02T09:15:54Z</time>
      </trkpt>
      <trkpt lat="46.50163" lon="11.4643">
        <ele>559.14</ele>
        <time>2012-08-02T09:15:58Z</time>
      </trkpt>
      <trkpt lat="46.50188" lon="11.46443">
        <ele>557.7</ele>
        <time>2012-08-02T09:16:00Z</time>
      </trkpt>
      <trkpt lat="46.50202" lon="11.46443">
        <ele>556.26</ele>
        <time>2012-08-02T09:16:01Z</time>
      </trkpt>
      <trkpt lat="46.50223" lon="11.46445">
        <ele>554.82</ele>
        <time>2012-08-02T09:16:02Z</time>
      </trkpt>
      <trkpt lat="46.50246" lon="11.46445">
        <ele>552.41</ele>
        <time>2012-08-02T09:16:03Z</time>
      </trkpt>
      <trkpt lat="46.50264" lon="11.46448">
        <ele>551.45</ele>
        <time>2012-08-02T09:16:04Z</time>
      </trkpt>
      <trkpt lat="46.5028" lon="11.46454">
        <ele>550.01</ele>
        <time>2012-08-02T09:16:05Z</time>
      </trkpt>
      <trkpt lat="46.50295" lon="11.46465">
        <ele>549.05</ele>
        <time>2012-08-02T09:16:06Z</time>
      </trkpt>
      <trkpt lat="46.50308" lon="11.46478">
        <ele>547.61</ele>
        <time>2012-08-02T09:16:07Z</time>
      </trkpt>
      <trkpt lat="46.50349" lon="11.46529">
        <ele>542.32</ele>
        <time>2012-08-02T09:16:10Z</time>
      </trkpt>
      <trkpt lat="46.50377" lon="11.4657">
        <ele>538.96</ele>
        <time>2012-08-02T09:16:12Z</time>
      </trkpt>
      <trkpt lat="46.504" lon="11.46607">
        <ele>535.11</ele>
        <time>2012-08-02T09:16:14Z</time>
      </trkpt>
      <trkpt lat="46.5043" lon="11.46658">
        <ele>530.3</ele>
        <time>2012-08-02T09:16:17Z</time>
      </trkpt>
      <trkpt lat="46.50451" lon="11.46689">
        <ele>528.86</ele>
        <time>2012-08-02T09:16:19Z</time>
      </trkpt>
      <trkpt lat="46.50471" lon="11.46717">
        <ele>524.06</ele>
        <time>2012-08-02T09:16:21Z</time>
      </trkpt>
      <trkpt lat="46.50492" lon="11.46742">
        <ele>520.21</ele>
        <time>2012-08-02T09:16:23Z</time>
      </trkpt>
      <trkpt lat="46.50513" lon="11.46765">
        <ele>515.4</ele>
        <time>2012-08-02T09:16:25Z</time>
      </trkpt>
      <trkpt lat="46.50524" lon="11.46775">
        <ele>516.37</ele>
        <time>2012-08-02T09:16:26Z</time>
      </trkpt>
      <trkpt lat="46.50546" lon="11.46795">
        <ele>513</ele>
        <time>2012-08-02T09:16:28Z</time>
      </trkpt>
      <trkpt lat="46.50557" lon="11.46806">
        <ele>513</ele>
        <time>2012-08-02T09:16:29Z</time>
      </trkpt>
      <trkpt lat="46.50583" lon="11.46843">
        <ele>509.16</ele>
        <time>2012-08-02T09:16:32Z</time>
      </trkpt>
      <trkpt lat="46.5059" lon="11.46854">
        <ele>509.16</ele>
        <time>2012-08-02T09:16:33Z</time>
      </trkpt>
      <trkpt lat="46.50604" lon="11.46872">
        <ele>506.27</ele>
        <time>2012-08-02T09:16:35Z</time>
      </trkpt>
      <trkpt lat="46.5061" lon="11.46876">
        <ele>505.79</ele>
        <time>2012-08-02T09:16:36Z</time>
      </trkpt>
      <trkpt lat="46.50616" lon="11.46878">
        <ele>505.31</ele>
        <time>2012-08-02T09:16:37Z</time>
      </trkpt>
      <trkpt lat="46.50621" lon="11.46878">
        <ele>504.83</ele>
        <time>2012-08-02T09:16:38Z</time>
      </trkpt>
      <trkpt lat="46.50624" lon="11.46878">
        <ele>504.83</ele>
        <time>2012-08-02T09:16:39Z</time>
      </trkpt>
      <trkpt lat="46.50627" lon="11.46879">
        <ele>504.83</ele>
        <time>2012-08-02T09:16:41Z</time>
      </trkpt>
      <trkpt lat="46.50633" lon="11.46859">
        <ele>505.31</ele>
        <time>2012-08-02T09:16:49Z</time>
      </trkpt>
      <trkpt lat="46.50631" lon="11.4685">
        <ele>504.83</ele>
        <time>2012-08-02T09:16:50Z</time>
      </trkpt>
      <trkpt lat="46.50628" lon="11.4684">
        <ele>504.35</ele>
        <time>2012-08-02T09:16:51Z</time>
      </trkpt>
      <trkpt lat="46.50622" lon="11.46832">
        <ele>504.35</ele>
        <time>2012-08-02T09:16:52Z</time>
      </trkpt>
      <trkpt lat="46.50615" lon="11.46825">
        <ele>504.35</ele>
        <time>2012-08-02T09:16:53Z</time>
      </trkpt>
      <trkpt lat="46.50607" lon="11.4682">
        <ele>505.31</ele>
        <time>2012-08-02T09:16:54Z</time>
      </trkpt>
      <trkpt lat="46.50591" lon="11.46806">
        <ele>502.43</ele>
        <time>2012-08-02T09:16:56Z</time>
      </trkpt>
      <trkpt lat="46.50583" lon="11.46797">
        <ele>501.46</ele>
        <time>2012-08-02T09:16:57Z</time>
      </trkpt>
      <trkpt lat="46.50576" lon="11.46786">
        <ele>500.98</ele>
        <time>2012-08-02T09:16:58Z</time>
      </trkpt>
      <trkpt lat="46.50543" lon="11.46713">
        <ele>497.14</ele>
        <time>2012-08-02T09:17:03Z</time>
      </trkpt>
      <trkpt lat="46.50539" lon="11.46696">
        <ele>496.18</ele>
        <time>2012-08-02T09:17:04Z</time>
      </trkpt>
      <trkpt lat="46.50531" lon="11.4666">
        <ele>494.74</ele>
        <time>2012-08-02T09:17:06Z</time>
      </trkpt>
      <trkpt lat="46.5052" lon="11.46599">
        <ele>492.33</ele>
        <time>2012-08-02T09:17:09Z</time>
      </trkpt>
      <trkpt lat="46.50509" lon="11.46535">
        <ele>488.49</ele>
        <time>2012-08-02T09:17:12Z</time>
      </trkpt>
      <trkpt lat="46.50504" lon="11.46513">
        <ele>487.53</ele>
        <time>2012-08-02T09:17:13Z</time>
      </trkpt>
      <trkpt lat="46.50497" lon="11.46492">
        <ele>486.56</ele>
        <time>2012-08-02T09:17:14Z</time>
      </trkpt>
      <trkpt lat="46.5049" lon="11.46471">
        <ele>486.56</ele>
        <time>2012-08-02T09:17:15Z</time>
      </trkpt>
      <trkpt lat="46.50475" lon="11.4643">
        <ele>482.72</ele>
        <time>2012-08-02T09:17:17Z</time>
      </trkpt>
      <trkpt lat="46.50445" lon="11.46354">
        <ele>478.39</ele>
        <time>2012-08-02T09:17:21Z</time>
      </trkpt>
      <trkpt lat="46.50436" lon="11.46337">
        <ele>477.43</ele>
        <time>2012-08-02T09:17:22Z</time>
      </trkpt>
      <trkpt lat="46.50401" lon="11.46292">
        <ele>474.07</ele>
        <time>2012-08-02T09:17:25Z</time>
      </trkpt>
      <trkpt lat="46.50367" lon="11.46255">
        <ele>469.26</ele>
        <time>2012-08-02T09:17:28Z</time>
      </trkpt>
      <trkpt lat="46.50357" lon="11.46247">
        <ele>467.34</ele>
        <time>2012-08-02T09:17:29Z</time>
      </trkpt>
      <trkpt lat="46.50348" lon="11.46242">
        <ele>464.93</ele>
        <time>2012-08-02T09:17:30Z</time>
      </trkpt>
      <trkpt lat="46.50337" lon="11.46244">
        <ele>464.45</ele>
        <time>2012-08-02T09:17:31Z</time>
      </trkpt>
      <trkpt lat="46.50325" lon="11.4625">
        <ele>463.49</ele>
        <time>2012-08-02T09:17:32Z</time>
      </trkpt>
      <trkpt lat="46.50313" lon="11.46257">
        <ele>462.05</ele>
        <time>2012-08-02T09:17:33Z</time>
      </trkpt>
      <trkpt lat="46.50302" lon="11.46262">
        <ele>460.61</ele>
        <time>2012-08-02T09:17:34Z</time>
      </trkpt>
      <trkpt lat="46.50291" lon="11.46264">
        <ele>459.17</ele>
        <time>2012-08-02T09:17:35Z</time>
      </trkpt>
      <trkpt lat="46.5028" lon="11.46261">
        <ele>457.72</ele>
        <time>2012-08-02T09:17:36Z</time>
      </trkpt>
      <trkpt lat="46.5026" lon="11.4625">
        <ele>455.8</ele>
        <time>2012-08-02T09:17:38Z</time>
      </trkpt>
      <trkpt lat="46.50252" lon="11.46241">
        <ele>454.36</ele>
        <time>2012-08-02T09:17:39Z</time>
      </trkpt>
      <trkpt lat="46.50247" lon="11.46228">
        <ele>453.4</ele>
        <time>2012-08-02T09:17:40Z</time>
      </trkpt>
      <trkpt lat="46.50243" lon="11.46213">
        <ele>453.4</ele>
        <time>2012-08-02T09:17:41Z</time>
      </trkpt>
      <trkpt lat="46.5024" lon="11.46196">
        <ele>451.96</ele>
        <time>2012-08-02T09:17:42Z</time>
      </trkpt>
      <trkpt lat="46.50234" lon="11.46163">
        <ele>450.03</ele>
        <time>2012-08-02T09:17:44Z</time>
      </trkpt>
      <trkpt lat="46.50227" lon="11.46149">
        <ele>449.07</ele>
        <time>2012-08-02T09:17:45Z</time>
      </trkpt>
      <trkpt lat="46.50216" lon="11.46139">
        <ele>449.55</ele>
        <time>2012-08-02T09:17:46Z</time>
      </trkpt>
      <trkpt lat="46.50178" lon="11.46113">
        <ele>445.23</ele>
        <time>2012-08-02T09:17:49Z</time>
      </trkpt>
      <trkpt lat="46.50158" lon="11.46097">
        <ele>440.9</ele>
        <time>2012-08-02T09:17:51Z</time>
      </trkpt>
      <trkpt lat="46.5015" lon="11.46087">
        <ele>440.42</ele>
        <time>2012-08-02T09:17:52Z</time>
      </trkpt>
      <trkpt lat="46.50144" lon="11.46076">
        <ele>438.98</ele>
        <time>2012-08-02T09:17:53Z</time>
      </trkpt>
      <trkpt lat="46.50132" lon="11.46054">
        <ele>437.06</ele>
        <time>2012-08-02T09:17:55Z</time>
      </trkpt>
      <trkpt lat="46.50123" lon="11.46046">
        <ele>436.58</ele>
        <time>2012-08-02T09:17:56Z</time>
      </trkpt>
      <trkpt lat="46.50113" lon="11.4604">
        <ele>435.13</ele>
        <time>2012-08-02T09:17:57Z</time>
      </trkpt>
      <trkpt lat="46.50105" lon="11.46032">
        <ele>434.17</ele>
        <time>2012-08-02T09:17:58Z</time>
      </trkpt>
      <trkpt lat="46.50099" lon="11.46022">
        <ele>433.21</ele>
        <time>2012-08-02T09:17:59Z</time>
      </trkpt>
      <trkpt lat="46.50093" lon="11.4601">
        <ele>432.73</ele>
        <time>2012-08-02T09:18:00Z</time>
      </trkpt>
      <trkpt lat="46.50085" lon="11.45999">
        <ele>431.77</ele>
        <time>2012-08-02T09:18:01Z</time>
      </trkpt>
      <trkpt lat="46.50077" lon="11.4599">
        <ele>430.33</ele>
        <time>2012-08-02T09:18:02Z</time>
      </trkpt>
      <trkpt lat="46.50072" lon="11.45977">
        <ele>429.37</ele>
        <time>2012-08-02T09:18:03Z</time>
      </trkpt>
      <trkpt lat="46.50071" lon="11.4596">
        <ele>428.4</ele>
        <time>2012-08-02T09:18:04Z</time>
      </trkpt>
      <trkpt lat="46.50072" lon="11.45942">
        <ele>427.92</ele>
        <time>2012-08-02T09:18:05Z</time>
      </trkpt>
      <trkpt lat="46.5007" lon="11.45921">
        <ele>427.92</ele>
        <time>2012-08-02T09:18:06Z</time>
      </trkpt>
      <trkpt lat="46.50066" lon="11.45901">
        <ele>426.96</ele>
        <time>2012-08-02T09:18:07Z</time>
      </trkpt>
      <trkpt lat="46.50061" lon="11.45881">
        <ele>425.04</ele>
        <time>2012-08-02T09:18:08Z</time>
      </trkpt>
      <trkpt lat="46.50055" lon="11.45863">
        <ele>423.6</ele>
        <time>2012-08-02T09:18:09Z</time>
      </trkpt>
      <trkpt lat="46.50052" lon="11.45844">
        <ele>421.68</ele>
        <time>2012-08-02T09:18:10Z</time>
      </trkpt>
      <trkpt lat="46.50049" lon="11.45825">
        <ele>420.23</ele>
        <time>2012-08-02T09:18:11Z</time>
      </trkpt>
      <trkpt lat="46.50047" lon="11.45806">
        <ele>419.27</ele>
        <time>2012-08-02T09:18:12Z</time>
      </trkpt>
      <trkpt lat="46.5004" lon="11.4575">
        <ele>415.91</ele>
        <time>2012-08-02T09:18:15Z</time>
      </trkpt>
      <trkpt lat="46.50034" lon="11.45715">
        <ele>413.5</ele>
        <time>2012-08-02T09:18:17Z</time>
      </trkpt>
      <trkpt lat="46.50033" lon="11.45697">
        <ele>411.58</ele>
        <time>2012-08-02T09:18:18Z</time>
      </trkpt>
      <trkpt lat="46.50033" lon="11.45679">
        <ele>410.62</ele>
        <time>2012-08-02T09:18:19Z</time>
      </trkpt>
      <trkpt lat="46.50031" lon="11.45662">
        <ele>409.66</ele>
        <time>2012-08-02T09:18:20Z</time>
      </trkpt>
      <trkpt lat="46.50026" lon="11.45646">
        <ele>408.22</ele>
        <time>2012-08-02T09:18:21Z</time>
      </trkpt>
      <trkpt lat="46.50022" lon="11.4563">
        <ele>407.26</ele>
        <time>2012-08-02T09:18:22Z</time>
      </trkpt>
      <trkpt lat="46.50019" lon="11.45612">
        <ele>406.29</ele>
        <time>2012-08-02T09:18:23Z</time>
      </trkpt>
      <trkpt lat="46.50018" lon="11.45594">
        <ele>404.37</ele>
        <time>2012-08-02T09:18:24Z</time>
      </trkpt>
      <trkpt lat="46.50017" lon="11.45578">
        <ele>403.41</ele>
        <time>2012-08-02T09:18:25Z</time>
      </trkpt>
      <trkpt lat="46.50016" lon="11.45562">
        <ele>402.45</ele>
        <time>2012-08-02T09:18:26Z</time>
      </trkpt>
      <trkpt lat="46.50011" lon="11.45548">
        <ele>401.49</ele>
        <time>2012-08-02T09:18:27Z</time>
      </trkpt>
      <trkpt lat="46.50004" lon="11.45534">
        <ele>401.49</ele>
        <time>2012-08-02T09:18:28Z</time>
      </trkpt>
      <trkpt lat="46.49994" lon="11.4552">
        <ele>400.53</ele>
        <time>2012-08-02T09:18:29Z</time>
      </trkpt>
      <trkpt lat="46.49983" lon="11.45506">
        <ele>399.57</ele>
        <time>2012-08-02T09:18:30Z</time>
      </trkpt>
      <trkpt lat="46.49962" lon="11.45479">
        <ele>395.24</ele>
        <time>2012-08-02T09:18:32Z</time>
      </trkpt>
      <trkpt lat="46.49932" lon="11.45441">
        <ele>391.87</ele>
        <time>2012-08-02T09:18:35Z</time>
      </trkpt>
      <trkpt lat="46.49904" lon="11.45399">
        <ele>388.03</ele>
        <time>2012-08-02T09:18:38Z</time>
      </trkpt>
      <trkpt lat="46.49894" lon="11.45383">
        <ele>387.55</ele>
        <time>2012-08-02T09:18:39Z</time>
      </trkpt>
      <trkpt lat="46.49885" lon="11.45365">
        <ele>386.11</ele>
        <time>2012-08-02T09:18:40Z</time>
      </trkpt>
      <trkpt lat="46.49878" lon="11.45347">
        <ele>384.66</ele>
        <time>2012-08-02T09:18:41Z</time>
      </trkpt>
      <trkpt lat="46.49871" lon="11.45329">
        <ele>382.26</ele>
        <time>2012-08-02T09:18:42Z</time>
      </trkpt>
      <trkpt lat="46.49863" lon="11.45312">
        <ele>381.3</ele>
        <time>2012-08-02T09:18:43Z</time>
      </trkpt>
      <trkpt lat="46.49855" lon="11.45296">
        <ele>379.86</ele>
        <time>2012-08-02T09:18:44Z</time>
      </trkpt>
      <trkpt lat="46.4983" lon="11.45251">
        <ele>375.05</ele>
        <time>2012-08-02T09:18:47Z</time>
      </trkpt>
      <trkpt lat="46.4982" lon="11.45237">
        <ele>375.05</ele>
        <time>2012-08-02T09:18:48Z</time>
      </trkpt>
      <trkpt lat="46.4981" lon="11.45225">
        <ele>374.57</ele>
        <time>2012-08-02T09:18:49Z</time>
      </trkpt>
      <trkpt lat="46.49788" lon="11.452">
        <ele>373.13</ele>
        <time>2012-08-02T09:18:51Z</time>
      </trkpt>
      <trkpt lat="46.49776" lon="11.45187">
        <ele>369.76</ele>
        <time>2012-08-02T09:18:52Z</time>
      </trkpt>
      <trkpt lat="46.49744" lon="11.45147">
        <ele>364.96</ele>
        <time>2012-08-02T09:18:55Z</time>
      </trkpt>
      <trkpt lat="46.49714" lon="11.45106">
        <ele>361.11</ele>
        <time>2012-08-02T09:18:58Z</time>
      </trkpt>
      <trkpt lat="46.49707" lon="11.4509">
        <ele>359.67</ele>
        <time>2012-08-02T09:18:59Z</time>
      </trkpt>
      <trkpt lat="46.49701" lon="11.45073">
        <ele>358.23</ele>
        <time>2012-08-02T09:19:00Z</time>
      </trkpt>
      <trkpt lat="46.49696" lon="11.45055">
        <ele>357.27</ele>
        <time>2012-08-02T09:19:01Z</time>
      </trkpt>
      <trkpt lat="46.49692" lon="11.45037">
        <ele>356.79</ele>
        <time>2012-08-02T09:19:02Z</time>
      </trkpt>
      <trkpt lat="46.49685" lon="11.45003">
        <ele>353.42</ele>
        <time>2012-08-02T09:19:04Z</time>
      </trkpt>
      <trkpt lat="46.49674" lon="11.44955">
        <ele>350.06</ele>
        <time>2012-08-02T09:19:07Z</time>
      </trkpt>
      <trkpt lat="46.49664" lon="11.44917">
        <ele>349.1</ele>
        <time>2012-08-02T09:19:10Z</time>
      </trkpt>
      <trkpt lat="46.4966" lon="11.44907">
        <ele>349.58</ele>
        <time>2012-08-02T09:19:11Z</time>
      </trkpt>
      <trkpt lat="46.49655" lon="11.44899">
        <ele>350.06</ele>
        <time>2012-08-02T09:19:12Z</time>
      </trkpt>
      <trkpt lat="46.49649" lon="11.44892">
        <ele>350.54</ele>
        <time>2012-08-02T09:19:13Z</time>
      </trkpt>
      <trkpt lat="46.49643" lon="11.44886">
        <ele>350.54</ele>
        <time>2012-08-02T09:19:14Z</time>
      </trkpt>
      <trkpt lat="46.49638" lon="11.44882">
        <ele>350.54</ele>
        <time>2012-08-02T09:19:15Z</time>
      </trkpt>
      <trkpt lat="46.49593" lon="11.44855">
        <ele>350.54</ele>
        <time>2012-08-02T09:19:26Z</time>
      </trkpt>
      <trkpt lat="46.49536" lon="11.44813">
        <ele>352.94</ele>
        <time>2012-08-02T09:19:36Z</time>
      </trkpt>
      <trkpt lat="46.49507" lon="11.44758">
        <ele>351.98</ele>
        <time>2012-08-02T09:19:43Z</time>
      </trkpt>
      <trkpt lat="46.49505" lon="11.44748">
        <ele>351.5</ele>
        <time>2012-08-02T09:19:44Z</time>
      </trkpt>
      <trkpt lat="46.49505" lon="11.44738">
        <ele>350.54</ele>
        <time>2012-08-02T09:19:45Z</time>
      </trkpt>
      <trkpt lat="46.49506" lon="11.44728">
        <ele>350.54</ele>
        <time>2012-08-02T09:19:46Z</time>
      </trkpt>
      <trkpt lat="46.49507" lon="11.44719">
        <ele>350.06</ele>
        <time>2012-08-02T09:19:47Z</time>
      </trkpt>
      <trkpt lat="46.49512" lon="11.44677">
        <ele>347.65</ele>
        <time>2012-08-02T09:19:51Z</time>
      </trkpt>
      <trkpt lat="46.49514" lon="11.4467">
        <ele>346.69</ele>
        <time>2012-08-02T09:19:52Z</time>
      </trkpt>
      <trkpt lat="46.49517" lon="11.44666">
        <ele>346.21</ele>
        <time>2012-08-02T09:19:53Z</time>
      </trkpt>
      <trkpt lat="46.49518" lon="11.44663">
        <ele>346.21</ele>
        <time>2012-08-02T09:19:54Z</time>
      </trkpt>
      <trkpt lat="46.49519" lon="11.44661">
        <ele>345.73</ele>
        <time>2012-08-02T09:19:55Z</time>
      </trkpt>
      <trkpt lat="46.49518" lon="11.44657">
        <ele>345.25</ele>
        <time>2012-08-02T09:20:08Z</time>
      </trkpt>
      <trkpt lat="46.49517" lon="11.44652">
        <ele>345.25</ele>
        <time>2012-08-02T09:20:35Z</time>
      </trkpt>
      <trkpt lat="46.49516" lon="11.44644">
        <ele>344.77</ele>
        <time>2012-08-02T09:20:36Z</time>
      </trkpt>
      <trkpt lat="46.49517" lon="11.44633">
        <ele>344.77</ele>
        <time>2012-08-02T09:20:37Z</time>
      </trkpt>
      <trkpt lat="46.49524" lon="11.44564">
        <ele>341.89</ele>
        <time>2012-08-02T09:20:42Z</time>
      </trkpt>
      <trkpt lat="46.49546" lon="11.44391">
        <ele>340.44</ele>
        <time>2012-08-02T09:20:52Z</time>
      </trkpt>
      <trkpt lat="46.49549" lon="11.4435">
        <ele>340.44</ele>
        <time>2012-08-02T09:20:54Z</time>
      </trkpt>
      <trkpt lat="46.49548" lon="11.4433">
        <ele>341.41</ele>
        <time>2012-08-02T09:20:55Z</time>
      </trkpt>
      <trkpt lat="46.49544" lon="11.4431">
        <ele>341.89</ele>
        <time>2012-08-02T09:20:56Z</time>
      </trkpt>
      <trkpt lat="46.49537" lon="11.44292">
        <ele>341.41</ele>
        <time>2012-08-02T09:20:57Z</time>
      </trkpt>
      <trkpt lat="46.4953" lon="11.44275">
        <ele>342.37</ele>
        <time>2012-08-02T09:20:58Z</time>
      </trkpt>
      <trkpt lat="46.49514" lon="11.4424">
        <ele>342.37</ele>
        <time>2012-08-02T09:21:00Z</time>
      </trkpt>
      <trkpt lat="46.49504" lon="11.44224">
        <ele>341.89</ele>
        <time>2012-08-02T09:21:01Z</time>
      </trkpt>
      <trkpt lat="46.49494" lon="11.44208">
        <ele>340.92</ele>
        <time>2012-08-02T09:21:02Z</time>
      </trkpt>
      <trkpt lat="46.49483" lon="11.44194">
        <ele>339.96</ele>
        <time>2012-08-02T09:21:03Z</time>
      </trkpt>
      <trkpt lat="46.49471" lon="11.44181">
        <ele>339</ele>
        <time>2012-08-02T09:21:04Z</time>
      </trkpt>
      <trkpt lat="46.49446" lon="11.44156">
        <ele>338.04</ele>
        <time>2012-08-02T09:21:06Z</time>
      </trkpt>
      <trkpt lat="46.49325" lon="11.44034">
        <ele>334.68</ele>
        <time>2012-08-02T09:21:16Z</time>
      </trkpt>
      <trkpt lat="46.49243" lon="11.43959">
        <ele>338.04</ele>
        <time>2012-08-02T09:21:23Z</time>
      </trkpt>
      <trkpt lat="46.49197" lon="11.4391">
        <ele>339.96</ele>
        <time>2012-08-02T09:21:27Z</time>
      </trkpt>
      <trkpt lat="46.49187" lon="11.43894">
        <ele>340.92</ele>
        <time>2012-08-02T09:21:28Z</time>
      </trkpt>
      <trkpt lat="46.49178" lon="11.43877">
        <ele>341.41</ele>
        <time>2012-08-02T09:21:29Z</time>
      </trkpt>
      <trkpt lat="46.49171" lon="11.43859">
        <ele>341.41</ele>
        <time>2012-08-02T09:21:30Z</time>
      </trkpt>
      <trkpt lat="46.49167" lon="11.43839">
        <ele>342.37</ele>
        <time>2012-08-02T09:21:31Z</time>
      </trkpt>
      <trkpt lat="46.49163" lon="11.43818">
        <ele>342.85</ele>
        <time>2012-08-02T09:21:32Z</time>
      </trkpt>
      <trkpt lat="46.49161" lon="11.43796">
        <ele>342.85</ele>
        <time>2012-08-02T09:21:33Z</time>
      </trkpt>
      <trkpt lat="46.49162" lon="11.43774">
        <ele>343.33</ele>
        <time>2012-08-02T09:21:34Z</time>
      </trkpt>
      <trkpt lat="46.49164" lon="11.43751">
        <ele>342.85</ele>
        <time>2012-08-02T09:21:35Z</time>
      </trkpt>
      <trkpt lat="46.49165" lon="11.4373">
        <ele>341.89</ele>
        <time>2012-08-02T09:21:36Z</time>
      </trkpt>
      <trkpt lat="46.49165" lon="11.43713">
        <ele>342.37</ele>
        <time>2012-08-02T09:21:37Z</time>
      </trkpt>
      <trkpt lat="46.49167" lon="11.43692">
        <ele>342.37</ele>
        <time>2012-08-02T09:21:38Z</time>
      </trkpt>
      <trkpt lat="46.49194" lon="11.43582">
        <ele>339.96</ele>
        <time>2012-08-02T09:21:43Z</time>
      </trkpt>
      <trkpt lat="46.49202" lon="11.43565">
        <ele>339.96</ele>
        <time>2012-08-02T09:21:44Z</time>
      </trkpt>
      <trkpt lat="46.49212" lon="11.43549">
        <ele>340.44</ele>
        <time>2012-08-02T09:21:45Z</time>
      </trkpt>
      <trkpt lat="46.49222" lon="11.43535">
        <ele>339.48</ele>
        <time>2012-08-02T09:21:46Z</time>
      </trkpt>
      <trkpt lat="46.49231" lon="11.43523">
        <ele>339.96</ele>
        <time>2012-08-02T09:21:47Z</time>
      </trkpt>
      <trkpt lat="46.49254" lon="11.43488">
        <ele>336.12</ele>
        <time>2012-08-02T09:21:50Z</time>
      </trkpt>
      <trkpt lat="46.49261" lon="11.43477">
        <ele>336.12</ele>
        <time>2012-08-02T09:21:51Z</time>
      </trkpt>
      <trkpt lat="46.49269" lon="11.43466">
        <ele>335.16</ele>
        <time>2012-08-02T09:21:52Z</time>
      </trkpt>
      <trkpt lat="46.49278" lon="11.43458">
        <ele>335.16</ele>
        <time>2012-08-02T09:21:53Z</time>
      </trkpt>
      <trkpt lat="46.4929" lon="11.43449">
        <ele>334.68</ele>
        <time>2012-08-02T09:21:54Z</time>
      </trkpt>
      <trkpt lat="46.49336" lon="11.43414">
        <ele>331.79</ele>
        <time>2012-08-02T09:21:58Z</time>
      </trkpt>
      <trkpt lat="46.49357" lon="11.43392">
        <ele>331.31</ele>
        <time>2012-08-02T09:22:00Z</time>
      </trkpt>
      <trkpt lat="46.49365" lon="11.43378">
        <ele>331.31</ele>
        <time>2012-08-02T09:22:01Z</time>
      </trkpt>
      <trkpt lat="46.49372" lon="11.43364">
        <ele>330.83</ele>
        <time>2012-08-02T09:22:02Z</time>
      </trkpt>
      <trkpt lat="46.49376" lon="11.43348">
        <ele>330.83</ele>
        <time>2012-08-02T09:22:03Z</time>
      </trkpt>
      <trkpt lat="46.4938" lon="11.43331">
        <ele>330.35</ele>
        <time>2012-08-02T09:22:04Z</time>
      </trkpt>
      <trkpt lat="46.49383" lon="11.43314">
        <ele>329.87</ele>
        <time>2012-08-02T09:22:05Z</time>
      </trkpt>
      <trkpt lat="46.49382" lon="11.43297">
        <ele>329.39</ele>
        <time>2012-08-02T09:22:06Z</time>
      </trkpt>
      <trkpt lat="46.49377" lon="11.43281">
        <ele>329.39</ele>
        <time>2012-08-02T09:22:07Z</time>
      </trkpt>
      <trkpt lat="46.49369" lon="11.43266">
        <ele>328.91</ele>
        <time>2012-08-02T09:22:08Z</time>
      </trkpt>
      <trkpt lat="46.49359" lon="11.43253">
        <ele>329.39</ele>
        <time>2012-08-02T09:22:09Z</time>
      </trkpt>
      <trkpt lat="46.49348" lon="11.43241">
        <ele>329.39</ele>
        <time>2012-08-02T09:22:10Z</time>
      </trkpt>
      <trkpt lat="46.49337" lon="11.43231">
        <ele>328.43</ele>
        <time>2012-08-02T09:22:11Z</time>
      </trkpt>
      <trkpt lat="46.4924" lon="11.43136">
        <ele>327.95</ele>
        <time>2012-08-02T09:22:21Z</time>
      </trkpt>
      <trkpt lat="46.4922" lon="11.43115">
        <ele>327.95</ele>
        <time>2012-08-02T09:22:23Z</time>
      </trkpt>
      <trkpt lat="46.4921" lon="11.43107">
        <ele>329.39</ele>
        <time>2012-08-02T09:22:24Z</time>
      </trkpt>
      <trkpt lat="46.492" lon="11.43096">
        <ele>328.91</ele>
        <time>2012-08-02T09:22:25Z</time>
      </trkpt>
      <trkpt lat="46.49169" lon="11.43063">
        <ele>327.47</ele>
        <time>2012-08-02T09:22:28Z</time>
      </trkpt>
      <trkpt lat="46.49049" lon="11.42937">
        <ele>326.02</ele>
        <time>2012-08-02T09:22:38Z</time>
      </trkpt>
      <trkpt lat="46.49014" lon="11.42892">
        <ele>326.02</ele>
        <time>2012-08-02T09:22:41Z</time>
      </trkpt>
      <trkpt lat="46.49003" lon="11.42874">
        <ele>325.54</ele>
        <time>2012-08-02T09:22:42Z</time>
      </trkpt>
      <trkpt lat="46.48919" lon="11.42671">
        <ele>326.5</ele>
        <time>2012-08-02T09:22:51Z</time>
      </trkpt>
      <trkpt lat="46.48869" lon="11.42466">
        <ele>324.1</ele>
        <time>2012-08-02T09:23:00Z</time>
      </trkpt>
      <trkpt lat="46.48864" lon="11.42269">
        <ele>324.1</ele>
        <time>2012-08-02T09:23:09Z</time>
      </trkpt>
      <trkpt lat="46.48894" lon="11.42115">
        <ele>323.62</ele>
        <time>2012-08-02T09:23:17Z</time>
      </trkpt>
      <trkpt lat="46.48933" lon="11.41986">
        <ele>323.62</ele>
        <time>2012-08-02T09:23:24Z</time>
      </trkpt>
      <trkpt lat="46.48943" lon="11.41966">
        <ele>323.14</ele>
        <time>2012-08-02T09:23:25Z</time>
      </trkpt>
      <trkpt lat="46.49051" lon="11.41763">
        <ele>324.58</ele>
        <time>2012-08-02T09:23:35Z</time>
      </trkpt>
      <trkpt lat="46.49179" lon="11.4153">
        <ele>322.18</ele>
        <time>2012-08-02T09:23:46Z</time>
      </trkpt>
      <trkpt lat="46.49294" lon="11.41269">
        <ele>319.3</ele>
        <time>2012-08-02T09:23:58Z</time>
      </trkpt>
      <trkpt lat="46.49324" lon="11.41094">
        <ele>315.93</ele>
        <time>2012-08-02T09:24:06Z</time>
      </trkpt>
      <trkpt lat="46.49335" lon="11.41008">
        <ele>315.45</ele>
        <time>2012-08-02T09:24:10Z</time>
      </trkpt>
      <trkpt lat="46.49356" lon="11.40794">
        <ele>315.45</ele>
        <time>2012-08-02T09:24:21Z</time>
      </trkpt>
      <trkpt lat="46.49353" lon="11.40612">
        <ele>314.01</ele>
        <time>2012-08-02T09:24:30Z</time>
      </trkpt>
      <trkpt lat="46.49323" lon="11.40418">
        <ele>311.6</ele>
        <time>2012-08-02T09:24:43Z</time>
      </trkpt>
      <trkpt lat="46.49294" lon="11.40221">
        <ele>311.6</ele>
        <time>2012-08-02T09:24:56Z</time>
      </trkpt>
      <trkpt lat="46.49256" lon="11.40015">
        <ele>311.6</ele>
        <time>2012-08-02T09:25:08Z</time>
      </trkpt>
      <trkpt lat="46.49244" lon="11.3984">
        <ele>311.12</ele>
        <time>2012-08-02T09:25:16Z</time>
      </trkpt>
      <trkpt lat="46.4925" lon="11.39813">
        <ele>311.6</ele>
        <time>2012-08-02T09:25:17Z</time>
      </trkpt>
      <trkpt lat="46.49258" lon="11.39787">
        <ele>312.09</ele>
        <time>2012-08-02T09:25:18Z</time>
      </trkpt>
      <trkpt lat="46.49267" lon="11.39764">
        <ele>313.05</ele>
        <time>2012-08-02T09:25:19Z</time>
      </trkpt>
      <trkpt lat="46.49274" lon="11.39741">
        <ele>313.53</ele>
        <time>2012-08-02T09:25:20Z</time>
      </trkpt>
      <trkpt lat="46.49282" lon="11.39719">
        <ele>314.01</ele>
        <time>2012-08-02T09:25:21Z</time>
      </trkpt>
      <trkpt lat="46.49292" lon="11.39699">
        <ele>314.97</ele>
        <time>2012-08-02T09:25:22Z</time>
      </trkpt>
      <trkpt lat="46.49328" lon="11.39637">
        <ele>316.41</ele>
        <time>2012-08-02T09:25:25Z</time>
      </trkpt>
      <trkpt lat="46.49371" lon="11.39565">
        <ele>318.33</ele>
        <time>2012-08-02T09:25:29Z</time>
      </trkpt>
      <trkpt lat="46.49379" lon="11.39546">
        <ele>318.33</ele>
        <time>2012-08-02T09:25:30Z</time>
      </trkpt>
      <trkpt lat="46.49385" lon="11.39525">
        <ele>318.81</ele>
        <time>2012-08-02T09:25:31Z</time>
      </trkpt>
      <trkpt lat="46.4939" lon="11.39503">
        <ele>318.33</ele>
        <time>2012-08-02T09:25:32Z</time>
      </trkpt>
      <trkpt lat="46.49393" lon="11.3948">
        <ele>318.33</ele>
        <time>2012-08-02T09:25:33Z</time>
      </trkpt>
      <trkpt lat="46.49394" lon="11.39458">
        <ele>317.85</ele>
        <time>2012-08-02T09:25:34Z</time>
      </trkpt>
      <trkpt lat="46.49394" lon="11.39437">
        <ele>317.85</ele>
        <time>2012-08-02T09:25:35Z</time>
      </trkpt>
      <trkpt lat="46.49392" lon="11.39415">
        <ele>317.85</ele>
        <time>2012-08-02T09:25:36Z</time>
      </trkpt>
      <trkpt lat="46.4939" lon="11.39392">
        <ele>317.37</ele>
        <time>2012-08-02T09:25:37Z</time>
      </trkpt>
      <trkpt lat="46.49389" lon="11.39369">
        <ele>317.85</ele>
        <time>2012-08-02T09:25:38Z</time>
      </trkpt>
      <trkpt lat="46.49382" lon="11.39336">
        <ele>314.97</ele>
        <time>2012-08-02T09:25:53Z</time>
      </trkpt>
      <trkpt lat="46.49382" lon="11.39186">
        <ele>314.49</ele>
        <time>2012-08-02T09:25:58Z</time>
      </trkpt>
      <trkpt lat="46.49377" lon="11.39183">
        <ele>314.97</ele>
        <time>2012-08-02T09:25:59Z</time>
      </trkpt>
      <trkpt lat="46.49362" lon="11.39167">
        <ele>314.49</ele>
        <time>2012-08-02T09:26:05Z</time>
      </trkpt>
      <trkpt lat="46.49372" lon="11.39154">
        <ele>314.97</ele>
        <time>2012-08-02T09:26:11Z</time>
      </trkpt>
      <trkpt lat="46.49371" lon="11.39151">
        <ele>314.97</ele>
        <time>2012-08-02T09:26:12Z</time>
      </trkpt>
      <trkpt lat="46.49366" lon="11.39167">
        <ele>315.45</ele>
        <time>2012-08-02T09:26:13Z</time>
      </trkpt>
      <trkpt lat="46.49366" lon="11.39136">
        <ele>316.41</ele>
        <time>2012-08-02T09:26:19Z</time>
      </trkpt>
      <trkpt lat="46.49346" lon="11.38959">
        <ele>313.53</ele>
        <time>2012-08-02T09:26:27Z</time>
      </trkpt>
      <trkpt lat="46.49323" lon="11.38714">
        <ele>311.12</ele>
        <time>2012-08-02T09:26:36Z</time>
      </trkpt>
      <trkpt lat="46.49318" lon="11.386">
        <ele>307.76</ele>
        <time>2012-08-02T09:26:40Z</time>
      </trkpt>
      <trkpt lat="46.49344" lon="11.38363">
        <ele>306.32</ele>
        <time>2012-08-02T09:26:49Z</time>
      </trkpt>
      <trkpt lat="46.49356" lon="11.38215">
        <ele>304.39</ele>
        <time>2012-08-02T09:26:55Z</time>
      </trkpt>
      <trkpt lat="46.49373" lon="11.37814">
        <ele>302.47</ele>
        <time>2012-08-02T09:27:11Z</time>
      </trkpt>
      <trkpt lat="46.49372" lon="11.37789">
        <ele>302.95</ele>
        <time>2012-08-02T09:27:12Z</time>
      </trkpt>
      <trkpt lat="46.49369" lon="11.37766">
        <ele>303.43</ele>
        <time>2012-08-02T09:27:13Z</time>
      </trkpt>
      <trkpt lat="46.49324" lon="11.3753">
        <ele>300.55</ele>
        <time>2012-08-02T09:27:23Z</time>
      </trkpt>
      <trkpt lat="46.49271" lon="11.37259">
        <ele>298.63</ele>
        <time>2012-08-02T09:27:36Z</time>
      </trkpt>
      <trkpt lat="46.49222" lon="11.37026">
        <ele>295.74</ele>
        <time>2012-08-02T09:27:48Z</time>
      </trkpt>
      <trkpt lat="46.49219" lon="11.3701">
        <ele>295.26</ele>
        <time>2012-08-02T09:27:49Z</time>
      </trkpt>
      <trkpt lat="46.49212" lon="11.36956">
        <ele>292.86</ele>
        <time>2012-08-02T09:27:55Z</time>
      </trkpt>
      <trkpt lat="46.49215" lon="11.36923">
        <ele>292.86</ele>
        <time>2012-08-02T09:28:04Z</time>
      </trkpt>
      <trkpt lat="46.49214" lon="11.36918">
        <ele>293.34</ele>
        <time>2012-08-02T09:28:05Z</time>
      </trkpt>
      <trkpt lat="46.49211" lon="11.36912">
        <ele>293.34</ele>
        <time>2012-08-02T09:28:06Z</time>
      </trkpt>
      <trkpt lat="46.49207" lon="11.36906">
        <ele>293.34</ele>
        <time>2012-08-02T09:28:07Z</time>
      </trkpt>
      <trkpt lat="46.49201" lon="11.36898">
        <ele>293.34</ele>
        <time>2012-08-02T09:28:08Z</time>
      </trkpt>
      <trkpt lat="46.49196" lon="11.36889">
        <ele>293.34</ele>
        <time>2012-08-02T09:28:09Z</time>
      </trkpt>
      <trkpt lat="46.49193" lon="11.36878">
        <ele>293.34</ele>
        <time>2012-08-02T09:28:10Z</time>
      </trkpt>
      <trkpt lat="46.49189" lon="11.36865">
        <ele>293.34</ele>
        <time>2012-08-02T09:28:11Z</time>
      </trkpt>
      <trkpt lat="46.49186" lon="11.36851">
        <ele>293.34</ele>
        <time>2012-08-02T09:28:12Z</time>
      </trkpt>
      <trkpt lat="46.49146" lon="11.36651">
        <ele>293.82</ele>
        <time>2012-08-02T09:28:24Z</time>
      </trkpt>
      <trkpt lat="46.49126" lon="11.36472">
        <ele>294.78</ele>
        <time>2012-08-02T09:28:32Z</time>
      </trkpt>
      <trkpt lat="46.49144" lon="11.36258">
        <ele>293.34</ele>
        <time>2012-08-02T09:28:41Z</time>
      </trkpt>
      <trkpt lat="46.4918" lon="11.36061">
        <ele>293.34</ele>
        <time>2012-08-02T09:28:51Z</time>
      </trkpt>
      <trkpt lat="46.49193" lon="11.35983">
        <ele>294.3</ele>
        <time>2012-08-02T09:28:57Z</time>
      </trkpt>
      <trkpt lat="46.49196" lon="11.35975">
        <ele>295.26</ele>
        <time>2012-08-02T09:28:58Z</time>
      </trkpt>
      <trkpt lat="46.492" lon="11.35969">
        <ele>295.26</ele>
        <time>2012-08-02T09:28:59Z</time>
      </trkpt>
      <trkpt lat="46.49206" lon="11.35967">
        <ele>295.26</ele>
        <time>2012-08-02T09:29:00Z</time>
      </trkpt>
      <trkpt lat="46.49213" lon="11.35967">
        <ele>295.74</ele>
        <time>2012-08-02T09:29:01Z</time>
      </trkpt>
      <trkpt lat="46.49222" lon="11.35968">
        <ele>296.22</ele>
        <time>2012-08-02T09:29:02Z</time>
      </trkpt>
      <trkpt lat="46.49252" lon="11.35967">
        <ele>294.3</ele>
        <time>2012-08-02T09:29:06Z</time>
      </trkpt>
      <trkpt lat="46.49259" lon="11.35967">
        <ele>293.82</ele>
        <time>2012-08-02T09:29:07Z</time>
      </trkpt>
      <trkpt lat="46.49273" lon="11.35965">
        <ele>292.86</ele>
        <time>2012-08-02T09:29:09Z</time>
      </trkpt>
      <trkpt lat="46.4928" lon="11.35961">
        <ele>292.86</ele>
        <time>2012-08-02T09:29:10Z</time>
      </trkpt>
      <trkpt lat="46.49286" lon="11.35953">
        <ele>292.86</ele>
        <time>2012-08-02T09:29:11Z</time>
      </trkpt>
      <trkpt lat="46.49291" lon="11.35944">
        <ele>291.9</ele>
        <time>2012-08-02T09:29:12Z</time>
      </trkpt>
      <trkpt lat="46.49294" lon="11.35933">
        <ele>291.9</ele>
        <time>2012-08-02T09:29:13Z</time>
      </trkpt>
      <trkpt lat="46.49298" lon="11.35922">
        <ele>291.42</ele>
        <time>2012-08-02T09:29:14Z</time>
      </trkpt>
      <trkpt lat="46.49323" lon="11.35836">
        <ele>288.53</ele>
        <time>2012-08-02T09:29:21Z</time>
      </trkpt>
      <trkpt lat="46.49373" lon="11.35669">
        <ele>285.65</ele>
        <time>2012-08-02T09:29:34Z</time>
      </trkpt>
      <trkpt lat="46.49388" lon="11.35631">
        <ele>284.69</ele>
        <time>2012-08-02T09:29:38Z</time>
      </trkpt>
      <trkpt lat="46.49399" lon="11.35603">
        <ele>283.25</ele>
        <time>2012-08-02T09:29:42Z</time>
      </trkpt>
      <trkpt lat="46.49402" lon="11.35597">
        <ele>283.25</ele>
        <time>2012-08-02T09:29:43Z</time>
      </trkpt>
      <trkpt lat="46.49415" lon="11.35556">
        <ele>281.8</ele>
        <time>2012-08-02T09:29:50Z</time>
      </trkpt>
      <trkpt lat="46.49419" lon="11.35547">
        <ele>281.8</ele>
        <time>2012-08-02T09:29:51Z</time>
      </trkpt>
      <trkpt lat="46.49442" lon="11.35498">
        <ele>281.8</ele>
        <time>2012-08-02T09:29:55Z</time>
      </trkpt>
      <trkpt lat="46.49452" lon="11.35474">
        <ele>283.25</ele>
        <time>2012-08-02T09:29:57Z</time>
      </trkpt>
      <trkpt lat="46.49467" lon="11.35416">
        <ele>284.69</ele>
        <time>2012-08-02T09:30:04Z</time>
      </trkpt>
      <trkpt lat="46.4949" lon="11.35417">
        <ele>284.21</ele>
        <time>2012-08-02T09:30:11Z</time>
      </trkpt>
      <trkpt lat="46.49495" lon="11.35426">
        <ele>284.21</ele>
        <time>2012-08-02T09:30:13Z</time>
      </trkpt>
      <trkpt lat="46.49497" lon="11.35431">
        <ele>283.73</ele>
        <time>2012-08-02T09:30:14Z</time>
      </trkpt>
      <trkpt lat="46.49498" lon="11.35437">
        <ele>284.21</ele>
        <time>2012-08-02T09:30:15Z</time>
      </trkpt>
      <trkpt lat="46.49499" lon="11.35443">
        <ele>284.21</ele>
        <time>2012-08-02T09:30:16Z</time>
      </trkpt>
      <trkpt lat="46.495" lon="11.35451">
        <ele>284.21</ele>
        <time>2012-08-02T09:30:17Z</time>
      </trkpt>
      <trkpt lat="46.49501" lon="11.35458">
        <ele>284.21</ele>
        <time>2012-08-02T09:30:18Z</time>
      </trkpt>
      <trkpt lat="46.49511" lon="11.3552">
        <ele>283.73</ele>
        <time>2012-08-02T09:30:30Z</time>
      </trkpt>
      <trkpt lat="46.49511" lon="11.35524">
        <ele>284.21</ele>
        <time>2012-08-02T09:30:36Z</time>
      </trkpt>
      <trkpt lat="46.49513" lon="11.35526">
        <ele>284.21</ele>
        <time>2012-08-02T09:30:37Z</time>
      </trkpt>
      <trkpt lat="46.49518" lon="11.35527">
        <ele>284.21</ele>
        <time>2012-08-02T09:30:38Z</time>
      </trkpt>
      <trkpt lat="46.49522" lon="11.35526">
        <ele>284.21</ele>
        <time>2012-08-02T09:30:39Z</time>
      </trkpt>
      <trkpt lat="46.49527" lon="11.35525">
        <ele>284.21</ele>
        <time>2012-08-02T09:30:40Z</time>
      </trkpt>
      <trkpt lat="46.49532" lon="11.35523">
        <ele>284.21</ele>
        <time>2012-08-02T09:30:41Z</time>
      </trkpt>
      <trkpt lat="46.49538" lon="11.35522">
        <ele>284.21</ele>
        <time>2012-08-02T09:30:42Z</time>
      </trkpt>
      <trkpt lat="46.49544" lon="11.35521">
        <ele>284.21</ele>
        <time>2012-08-02T09:30:43Z</time>
      </trkpt>
      <trkpt lat="46.4955" lon="11.3552">
        <ele>284.21</ele>
        <time>2012-08-02T09:30:44Z</time>
      </trkpt>
      <trkpt lat="46.49556" lon="11.35518">
        <ele>284.21</ele>
        <time>2012-08-02T09:30:45Z</time>
      </trkpt>
      <trkpt lat="46.49561" lon="11.35516">
        <ele>284.21</ele>
        <time>2012-08-02T09:30:46Z</time>
      </trkpt>
      <trkpt lat="46.49566" lon="11.35515">
        <ele>284.69</ele>
        <time>2012-08-02T09:30:47Z</time>
      </trkpt>
      <trkpt lat="46.49572" lon="11.35514">
        <ele>284.69</ele>
        <time>2012-08-02T09:30:48Z</time>
      </trkpt>
      <trkpt lat="46.49596" lon="11.35513">
        <ele>284.69</ele>
        <time>2012-08-02T09:30:52Z</time>
      </trkpt>
      <trkpt lat="46.49602" lon="11.35512">
        <ele>284.69</ele>
        <time>2012-08-02T09:30:53Z</time>
      </trkpt>
      <trkpt lat="46.49643" lon="11.35503">
        <ele>284.69</ele>
        <time>2012-08-02T09:31:01Z</time>
      </trkpt>
      <trkpt lat="46.49647" lon="11.35502">
        <ele>284.69</ele>
        <time>2012-08-02T09:31:02Z</time>
      </trkpt>
      <trkpt lat="46.49657" lon="11.35501">
        <ele>285.17</ele>
        <time>2012-08-02T09:31:04Z</time>
      </trkpt>
      <trkpt lat="46.49674" lon="11.35501">
        <ele>284.69</ele>
        <time>2012-08-02T09:31:08Z</time>
      </trkpt>
      <trkpt lat="46.49698" lon="11.355">
        <ele>285.17</ele>
        <time>2012-08-02T09:31:13Z</time>
      </trkpt>
      <trkpt lat="46.49704" lon="11.35499">
        <ele>285.17</ele>
        <time>2012-08-02T09:31:14Z</time>
      </trkpt>
      <trkpt lat="46.4971" lon="11.35499">
        <ele>285.17</ele>
        <time>2012-08-02T09:31:15Z</time>
      </trkpt>
      <trkpt lat="46.49716" lon="11.35498">
        <ele>285.65</ele>
        <time>2012-08-02T09:31:16Z</time>
      </trkpt>
      <trkpt lat="46.49723" lon="11.35498">
        <ele>285.17</ele>
        <time>2012-08-02T09:31:17Z</time>
      </trkpt>
      <trkpt lat="46.49752" lon="11.35498">
        <ele>284.69</ele>
        <time>2012-08-02T09:31:25Z</time>
      </trkpt>
      <trkpt lat="46.49758" lon="11.35497">
        <ele>284.69</ele>
        <time>2012-08-02T09:31:42Z</time>
      </trkpt>
      <trkpt lat="46.49772" lon="11.35485">
        <ele>285.17</ele>
        <time>2012-08-02T09:31:50Z</time>
      </trkpt>
      <trkpt lat="46.49792" lon="11.35441">
        <ele>285.65</ele>
        <time>2012-08-02T09:32:01Z</time>
      </trkpt>
      <trkpt lat="46.49792" lon="11.35437">
        <ele>285.17</ele>
        <time>2012-08-02T09:32:12Z</time>
      </trkpt>
      <trkpt lat="46.4979" lon="11.35437">
        <ele>284.69</ele>
        <time>2012-08-02T09:32:13Z</time>
      </trkpt>
      <trkpt lat="46.49788" lon="11.35438">
        <ele>285.17</ele>
        <time>2012-08-02T09:32:14Z</time>
      </trkpt>
      <trkpt lat="46.49787" lon="11.35441">
        <ele>285.17</ele>
        <time>2012-08-02T09:32:15Z</time>
      </trkpt>
      <trkpt lat="46.49787" lon="11.35445">
        <ele>285.17</ele>
        <time>2012-08-02T09:32:16Z</time>
      </trkpt>
      <trkpt lat="46.49785" lon="11.3545">
        <ele>285.17</ele>
        <time>2012-08-02T09:32:17Z</time>
      </trkpt>
      <trkpt lat="46.49784" lon="11.35456">
        <ele>284.69</ele>
        <time>2012-08-02T09:32:18Z</time>
      </trkpt>
      <trkpt lat="46.49782" lon="11.35461">
        <ele>284.69</ele>
        <time>2012-08-02T09:32:19Z</time>
      </trkpt>
      <trkpt lat="46.4978" lon="11.35467">
        <ele>285.17</ele>
        <time>2012-08-02T09:32:20Z</time>
      </trkpt>
      <trkpt lat="46.49777" lon="11.35473">
        <ele>284.69</ele>
        <time>2012-08-02T09:32:21Z</time>
      </trkpt>
      <trkpt lat="46.49755" lon="11.35524">
        <ele>284.69</ele>
        <time>2012-08-02T09:32:29Z</time>
      </trkpt>
      <trkpt lat="46.49747" lon="11.35541">
        <ele>284.69</ele>
        <time>2012-08-02T09:32:32Z</time>
      </trkpt>
      <trkpt lat="46.49744" lon="11.35547">
        <ele>284.21</ele>
        <time>2012-08-02T09:32:33Z</time>
      </trkpt>
      <trkpt lat="46.49742" lon="11.35553">
        <ele>284.21</ele>
        <time>2012-08-02T09:32:34Z</time>
      </trkpt>
      <trkpt lat="46.4974" lon="11.3556">
        <ele>284.21</ele>
        <time>2012-08-02T09:32:35Z</time>
      </trkpt>
      <trkpt lat="46.49739" lon="11.35566">
        <ele>284.21</ele>
        <time>2012-08-02T09:32:36Z</time>
      </trkpt>
      <trkpt lat="46.49737" lon="11.35572">
        <ele>284.21</ele>
        <time>2012-08-02T09:32:37Z</time>
      </trkpt>
      <trkpt lat="46.49729" lon="11.35596">
        <ele>284.21</ele>
        <time>2012-08-02T09:32:42Z</time>
      </trkpt>
      <trkpt lat="46.49728" lon="11.35602">
        <ele>284.21</ele>
        <time>2012-08-02T09:32:43Z</time>
      </trkpt>
      <trkpt lat="46.49729" lon="11.35606">
        <ele>283.73</ele>
        <time>2012-08-02T09:32:44Z</time>
      </trkpt>
      <trkpt lat="46.49728" lon="11.35608">
        <ele>283.73</ele>
        <time>2012-08-02T09:32:45Z</time>
      </trkpt>
      <trkpt lat="46.49727" lon="11.35612">
        <ele>284.21</ele>
        <time>2012-08-02T09:32:46Z</time>
      </trkpt>
      <trkpt lat="46.49726" lon="11.35615">
        <ele>283.73</ele>
        <time>2012-08-02T09:32:47Z</time>
      </trkpt>
      <trkpt lat="46.49725" lon="11.35619">
        <ele>284.21</ele>
        <time>2012-08-02T09:32:48Z</time>
      </trkpt>
      <trkpt lat="46.49724" lon="11.35624">
        <ele>283.73</ele>
        <time>2012-08-02T09:32:49Z</time>
      </trkpt>
      <trkpt lat="46.49722" lon="11.35631">
        <ele>283.73</ele>
        <time>2012-08-02T09:32:50Z</time>
      </trkpt>
      <trkpt lat="46.49721" lon="11.35638">
        <ele>284.21</ele>
        <time>2012-08-02T09:32:51Z</time>
      </trkpt>
      <trkpt lat="46.49697" lon="11.35727">
        <ele>284.21</ele>
        <time>2012-08-02T09:33:02Z</time>
      </trkpt>
      <trkpt lat="46.49692" lon="11.35763">
        <ele>284.21</ele>
        <time>2012-08-02T09:33:11Z</time>
      </trkpt>
      <trkpt lat="46.49691" lon="11.35774">
        <ele>283.73</ele>
        <time>2012-08-02T09:33:26Z</time>
      </trkpt>
      <trkpt lat="46.49691" lon="11.35774">
        <ele>283.73</ele>
        <time>2012-08-02T09:33:33Z</time>
      </trkpt>
      <trkpt lat="46.4969" lon="11.35775">
        <ele>284.21</ele>
        <time>2012-08-02T09:33:34Z</time>
      </trkpt>
      <trkpt lat="46.49688" lon="11.35775">
        <ele>283.73</ele>
        <time>2012-08-02T09:33:35Z</time>
      </trkpt>
      <trkpt lat="46.49687" lon="11.35776">
        <ele>283.73</ele>
        <time>2012-08-02T09:33:36Z</time>
      </trkpt>
      <trkpt lat="46.49685" lon="11.35776">
        <ele>283.25</ele>
        <time>2012-08-02T09:33:37Z</time>
      </trkpt>
      <trkpt lat="46.49683" lon="11.35777">
        <ele>283.73</ele>
        <time>2012-08-02T09:33:38Z</time>
      </trkpt>
      <trkpt lat="46.49681" lon="11.35779">
        <ele>283.73</ele>
        <time>2012-08-02T09:33:47Z</time>
      </trkpt>
      <trkpt lat="46.49678" lon="11.35779">
        <ele>283.73</ele>
        <time>2012-08-02T09:33:59Z</time>
      </trkpt>
      <trkpt lat="46.4968" lon="11.35777">
        <ele>283.73</ele>
        <time>2012-08-02T09:34:22Z</time>
      </trkpt>
      <trkpt lat="46.49679" lon="11.35777">
        <ele>279.88</ele>
        <time>2012-08-02T09:34:28Z</time>
      </trkpt>
      <trkpt lat="46.49679" lon="11.35777">
        <ele>282.77</ele>
        <time>2012-08-02T09:34:29Z</time>
      </trkpt>
      <trkpt lat="46.49679" lon="11.35777">
        <ele>282.77</ele>
        <time>2012-08-02T09:34:30Z</time>
      </trkpt>
      <trkpt lat="46.49673" lon="11.35792">
        <ele>286.61</ele>
        <time>2012-08-02T10:05:06Z</time>
      </trkpt>
      <trkpt lat="46.49675" lon="11.35808">
        <ele>284.69</ele>
        <time>2012-08-02T10:05:31Z</time>
      </trkpt>
      <trkpt lat="46.4968" lon="11.35798">
        <ele>282.28</ele>
        <time>2012-08-02T10:05:59Z</time>
      </trkpt>
      <trkpt lat="46.49678" lon="11.35795">
        <ele>282.28</ele>
        <time>2012-08-02T10:06:19Z</time>
      </trkpt>
      <trkpt lat="46.49683" lon="11.35784">
        <ele>281.8</ele>
        <time>2012-08-02T10:06:46Z</time>
      </trkpt>
      <trkpt lat="46.49687" lon="11.35781">
        <ele>281.8</ele>
        <time>2012-08-02T10:07:00Z</time>
      </trkpt>
      <trkpt lat="46.49688" lon="11.35782">
        <ele>281.8</ele>
        <time>2012-08-02T10:07:11Z</time>
      </trkpt>
      <trkpt lat="46.49669" lon="11.35779">
        <ele>282.77</ele>
        <time>2012-08-02T10:07:18Z</time>
      </trkpt>
      <trkpt lat="46.49658" lon="11.35773">
        <ele>282.28</ele>
        <time>2012-08-02T10:07:20Z</time>
      </trkpt>
      <trkpt lat="46.49632" lon="11.35754">
        <ele>282.28</ele>
        <time>2012-08-02T10:07:25Z</time>
      </trkpt>
      <trkpt lat="46.49623" lon="11.35742">
        <ele>282.28</ele>
        <time>2012-08-02T10:07:27Z</time>
      </trkpt>
      <trkpt lat="46.49619" lon="11.35735">
        <ele>282.77</ele>
        <time>2012-08-02T10:07:28Z</time>
      </trkpt>
      <trkpt lat="46.49569" lon="11.35644">
        <ele>282.77</ele>
        <time>2012-08-02T10:07:38Z</time>
      </trkpt>
      <trkpt lat="46.49547" lon="11.35609">
        <ele>281.32</ele>
        <time>2012-08-02T10:07:42Z</time>
      </trkpt>
      <trkpt lat="46.49542" lon="11.35603">
        <ele>281.32</ele>
        <time>2012-08-02T10:07:43Z</time>
      </trkpt>
      <trkpt lat="46.49534" lon="11.3559">
        <ele>280.36</ele>
        <time>2012-08-02T10:07:51Z</time>
      </trkpt>
      <trkpt lat="46.49524" lon="11.35571">
        <ele>281.32</ele>
        <time>2012-08-02T10:07:55Z</time>
      </trkpt>
      <trkpt lat="46.49519" lon="11.35555">
        <ele>281.32</ele>
        <time>2012-08-02T10:07:57Z</time>
      </trkpt>
      <trkpt lat="46.49515" lon="11.35462">
        <ele>280.36</ele>
        <time>2012-08-02T10:08:06Z</time>
      </trkpt>
      <trkpt lat="46.49515" lon="11.35453">
        <ele>280.84</ele>
        <time>2012-08-02T10:08:07Z</time>
      </trkpt>
      <trkpt lat="46.49517" lon="11.35443">
        <ele>280.84</ele>
        <time>2012-08-02T10:08:08Z</time>
      </trkpt>
      <trkpt lat="46.49538" lon="11.35341">
        <ele>281.32</ele>
        <time>2012-08-02T10:08:16Z</time>
      </trkpt>
      <trkpt lat="46.49551" lon="11.35262">
        <ele>280.36</ele>
        <time>2012-08-02T10:08:22Z</time>
      </trkpt>
      <trkpt lat="46.49551" lon="11.35197">
        <ele>279.4</ele>
        <time>2012-08-02T10:08:28Z</time>
      </trkpt>
      <trkpt lat="46.49548" lon="11.35178">
        <ele>279.4</ele>
        <time>2012-08-02T10:08:30Z</time>
      </trkpt>
      <trkpt lat="46.49548" lon="11.35169">
        <ele>279.88</ele>
        <time>2012-08-02T10:08:31Z</time>
      </trkpt>
      <trkpt lat="46.49547" lon="11.35159">
        <ele>279.4</ele>
        <time>2012-08-02T10:08:32Z</time>
      </trkpt>
      <trkpt lat="46.49546" lon="11.35149">
        <ele>279.88</ele>
        <time>2012-08-02T10:08:33Z</time>
      </trkpt>
      <trkpt lat="46.49544" lon="11.35139">
        <ele>279.4</ele>
        <time>2012-08-02T10:08:34Z</time>
      </trkpt>
      <trkpt lat="46.49543" lon="11.3513">
        <ele>279.4</ele>
        <time>2012-08-02T10:08:35Z</time>
      </trkpt>
      <trkpt lat="46.49543" lon="11.35121">
        <ele>279.4</ele>
        <time>2012-08-02T10:08:36Z</time>
      </trkpt>
      <trkpt lat="46.49542" lon="11.35111">
        <ele>279.88</ele>
        <time>2012-08-02T10:08:37Z</time>
      </trkpt>
      <trkpt lat="46.4954" lon="11.35089">
        <ele>279.88</ele>
        <time>2012-08-02T10:08:39Z</time>
      </trkpt>
      <trkpt lat="46.49525" lon="11.3502">
        <ele>279.4</ele>
        <time>2012-08-02T10:08:48Z</time>
      </trkpt>
      <trkpt lat="46.49519" lon="11.35017">
        <ele>278.92</ele>
        <time>2012-08-02T10:09:00Z</time>
      </trkpt>
      <trkpt lat="46.49517" lon="11.3501">
        <ele>279.4</ele>
        <time>2012-08-02T10:09:14Z</time>
      </trkpt>
      <trkpt lat="46.49507" lon="11.34948">
        <ele>281.32</ele>
        <time>2012-08-02T10:09:21Z</time>
      </trkpt>
      <trkpt lat="46.49497" lon="11.34895">
        <ele>285.17</ele>
        <time>2012-08-02T10:09:25Z</time>
      </trkpt>
      <trkpt lat="46.49493" lon="11.34865">
        <ele>286.13</ele>
        <time>2012-08-02T10:09:27Z</time>
      </trkpt>
      <trkpt lat="46.49477" lon="11.34717">
        <ele>284.69</ele>
        <time>2012-08-02T10:09:36Z</time>
      </trkpt>
      <trkpt lat="46.49476" lon="11.34635">
        <ele>281.8</ele>
        <time>2012-08-02T10:09:42Z</time>
      </trkpt>
      <trkpt lat="46.49476" lon="11.34613">
        <ele>279.88</ele>
        <time>2012-08-02T10:09:45Z</time>
      </trkpt>
      <trkpt lat="46.49476" lon="11.34603">
        <ele>278.92</ele>
        <time>2012-08-02T10:09:53Z</time>
      </trkpt>
      <trkpt lat="46.49476" lon="11.34539">
        <ele>279.4</ele>
        <time>2012-08-02T10:10:00Z</time>
      </trkpt>
      <trkpt lat="46.49476" lon="11.34527">
        <ele>278.92</ele>
        <time>2012-08-02T10:10:01Z</time>
      </trkpt>
      <trkpt lat="46.49476" lon="11.34484">
        <ele>279.4</ele>
        <time>2012-08-02T10:10:04Z</time>
      </trkpt>
      <trkpt lat="46.49476" lon="11.3437">
        <ele>277.96</ele>
        <time>2012-08-02T10:10:14Z</time>
      </trkpt>
      <trkpt lat="46.49476" lon="11.34322">
        <ele>277.96</ele>
        <time>2012-08-02T10:10:18Z</time>
      </trkpt>
      <trkpt lat="46.49491" lon="11.34144">
        <ele>277</ele>
        <time>2012-08-02T10:10:30Z</time>
      </trkpt>
      <trkpt lat="46.49498" lon="11.34075">
        <ele>275.56</ele>
        <time>2012-08-02T10:10:38Z</time>
      </trkpt>
      <trkpt lat="46.49494" lon="11.34071">
        <ele>275.07</ele>
        <time>2012-08-02T10:10:49Z</time>
      </trkpt>
      <trkpt lat="46.4949" lon="11.3407">
        <ele>275.56</ele>
        <time>2012-08-02T10:11:14Z</time>
      </trkpt>
      <trkpt lat="46.4949" lon="11.34059">
        <ele>275.56</ele>
        <time>2012-08-02T10:11:26Z</time>
      </trkpt>
      <trkpt lat="46.49491" lon="11.34051">
        <ele>275.07</ele>
        <time>2012-08-02T10:11:27Z</time>
      </trkpt>
      <trkpt lat="46.49504" lon="11.33922">
        <ele>276.04</ele>
        <time>2012-08-02T10:11:38Z</time>
      </trkpt>
      <trkpt lat="46.49521" lon="11.33753">
        <ele>273.63</ele>
        <time>2012-08-02T10:11:48Z</time>
      </trkpt>
      <trkpt lat="46.49523" lon="11.33736">
        <ele>274.11</ele>
        <time>2012-08-02T10:11:49Z</time>
      </trkpt>
      <trkpt lat="46.49525" lon="11.3372">
        <ele>273.15</ele>
        <time>2012-08-02T10:11:50Z</time>
      </trkpt>
      <trkpt lat="46.49527" lon="11.33703">
        <ele>274.11</ele>
        <time>2012-08-02T10:11:51Z</time>
      </trkpt>
      <trkpt lat="46.49535" lon="11.33636">
        <ele>272.19</ele>
        <time>2012-08-02T10:11:56Z</time>
      </trkpt>
      <trkpt lat="46.49536" lon="11.33619">
        <ele>271.71</ele>
        <time>2012-08-02T10:11:58Z</time>
      </trkpt>
      <trkpt lat="46.49531" lon="11.33599">
        <ele>271.23</ele>
        <time>2012-08-02T10:12:05Z</time>
      </trkpt>
      <trkpt lat="46.49519" lon="11.33598">
        <ele>271.23</ele>
        <time>2012-08-02T10:12:37Z</time>
      </trkpt>
      <trkpt lat="46.4952" lon="11.3359">
        <ele>271.71</ele>
        <time>2012-08-02T10:12:46Z</time>
      </trkpt>
      <trkpt lat="46.4952" lon="11.33582">
        <ele>271.71</ele>
        <time>2012-08-02T10:12:47Z</time>
      </trkpt>
      <trkpt lat="46.4952" lon="11.33571">
        <ele>271.71</ele>
        <time>2012-08-02T10:12:48Z</time>
      </trkpt>
      <trkpt lat="46.49513" lon="11.33438">
        <ele>272.67</ele>
        <time>2012-08-02T10:12:57Z</time>
      </trkpt>
      <trkpt lat="46.49509" lon="11.33328">
        <ele>270.27</ele>
        <time>2012-08-02T10:13:06Z</time>
      </trkpt>
      <trkpt lat="46.49507" lon="11.33241">
        <ele>269.79</ele>
        <time>2012-08-02T10:13:16Z</time>
      </trkpt>
      <trkpt lat="46.49507" lon="11.33228">
        <ele>270.27</ele>
        <time>2012-08-02T10:13:17Z</time>
      </trkpt>
      <trkpt lat="46.49507" lon="11.33217">
        <ele>269.31</ele>
        <time>2012-08-02T10:13:18Z</time>
      </trkpt>
      <trkpt lat="46.49506" lon="11.33178">
        <ele>268.35</ele>
        <time>2012-08-02T10:13:25Z</time>
      </trkpt>
      <trkpt lat="46.49504" lon="11.33158">
        <ele>269.31</ele>
        <time>2012-08-02T10:13:30Z</time>
      </trkpt>
      <trkpt lat="46.49503" lon="11.33149">
        <ele>269.31</ele>
        <time>2012-08-02T10:13:31Z</time>
      </trkpt>
      <trkpt lat="46.49496" lon="11.33033">
        <ele>269.31</ele>
        <time>2012-08-02T10:13:39Z</time>
      </trkpt>
      <trkpt lat="46.49487" lon="11.32821">
        <ele>268.83</ele>
        <time>2012-08-02T10:13:51Z</time>
      </trkpt>
      <trkpt lat="46.49472" lon="11.32568">
        <ele>266.42</ele>
        <time>2012-08-02T10:14:05Z</time>
      </trkpt>
      <trkpt lat="46.49463" lon="11.32392">
        <ele>265.46</ele>
        <time>2012-08-02T10:14:16Z</time>
      </trkpt>
      <trkpt lat="46.49455" lon="11.32216">
        <ele>264.5</ele>
        <time>2012-08-02T10:14:27Z</time>
      </trkpt>
      <trkpt lat="46.49452" lon="11.3218">
        <ele>262.58</ele>
        <time>2012-08-02T10:14:33Z</time>
      </trkpt>
      <trkpt lat="46.4945" lon="11.32163">
        <ele>263.54</ele>
        <time>2012-08-02T10:14:43Z</time>
      </trkpt>
      <trkpt lat="46.49451" lon="11.32155">
        <ele>263.54</ele>
        <time>2012-08-02T10:14:44Z</time>
      </trkpt>
      <trkpt lat="46.4945" lon="11.32147">
        <ele>263.54</ele>
        <time>2012-08-02T10:14:45Z</time>
      </trkpt>
      <trkpt lat="46.49446" lon="11.32048">
        <ele>264.02</ele>
        <time>2012-08-02T10:14:53Z</time>
      </trkpt>
      <trkpt lat="46.49443" lon="11.3196">
        <ele>263.06</ele>
        <time>2012-08-02T10:14:59Z</time>
      </trkpt>
      <trkpt lat="46.49442" lon="11.31952">
        <ele>262.1</ele>
        <time>2012-08-02T10:15:00Z</time>
      </trkpt>
      <trkpt lat="46.49442" lon="11.31946">
        <ele>262.1</ele>
        <time>2012-08-02T10:15:01Z</time>
      </trkpt>
      <trkpt lat="46.49438" lon="11.31868">
        <ele>262.58</ele>
        <time>2012-08-02T10:15:09Z</time>
      </trkpt>
      <trkpt lat="46.49429" lon="11.317">
        <ele>262.58</ele>
        <time>2012-08-02T10:15:19Z</time>
      </trkpt>
      <trkpt lat="46.49415" lon="11.31469">
        <ele>261.62</ele>
        <time>2012-08-02T10:15:32Z</time>
      </trkpt>
      <trkpt lat="46.494" lon="11.31278">
        <ele>261.14</ele>
        <time>2012-08-02T10:15:43Z</time>
      </trkpt>
      <trkpt lat="46.49394" lon="11.31129">
        <ele>258.73</ele>
        <time>2012-08-02T10:15:52Z</time>
      </trkpt>
      <trkpt lat="46.49394" lon="11.31119">
        <ele>259.21</ele>
        <time>2012-08-02T10:15:53Z</time>
      </trkpt>
      <trkpt lat="46.49395" lon="11.31108">
        <ele>259.69</ele>
        <time>2012-08-02T10:15:54Z</time>
      </trkpt>
      <trkpt lat="46.49405" lon="11.31061">
        <ele>259.21</ele>
        <time>2012-08-02T10:15:58Z</time>
      </trkpt>
      <trkpt lat="46.49409" lon="11.31047">
        <ele>259.69</ele>
        <time>2012-08-02T10:15:59Z</time>
      </trkpt>
      <trkpt lat="46.49433" lon="11.30982">
        <ele>261.14</ele>
        <time>2012-08-02T10:16:03Z</time>
      </trkpt>
      <trkpt lat="46.49513" lon="11.30829">
        <ele>261.14</ele>
        <time>2012-08-02T10:16:12Z</time>
      </trkpt>
      <trkpt lat="46.49672" lon="11.30601">
        <ele>259.21</ele>
        <time>2012-08-02T10:16:27Z</time>
      </trkpt>
      <trkpt lat="46.49728" lon="11.30521">
        <ele>257.29</ele>
        <time>2012-08-02T10:16:35Z</time>
      </trkpt>
      <trkpt lat="46.49747" lon="11.30495">
        <ele>256.81</ele>
        <time>2012-08-02T10:16:43Z</time>
      </trkpt>
      <trkpt lat="46.4976" lon="11.30477">
        <ele>256.81</ele>
        <time>2012-08-02T10:17:02Z</time>
      </trkpt>
      <trkpt lat="46.49819" lon="11.30395">
        <ele>259.21</ele>
        <time>2012-08-02T10:17:12Z</time>
      </trkpt>
      <trkpt lat="46.49922" lon="11.30245">
        <ele>261.62</ele>
        <time>2012-08-02T10:17:23Z</time>
      </trkpt>
      <trkpt lat="46.50103" lon="11.29984">
        <ele>258.73</ele>
        <time>2012-08-02T10:17:39Z</time>
      </trkpt>
      <trkpt lat="46.50251" lon="11.29771">
        <ele>259.21</ele>
        <time>2012-08-02T10:17:52Z</time>
      </trkpt>
      <trkpt lat="46.50371" lon="11.296">
        <ele>257.29</ele>
        <time>2012-08-02T10:18:03Z</time>
      </trkpt>
      <trkpt lat="46.50479" lon="11.29437">
        <ele>259.69</ele>
        <time>2012-08-02T10:18:13Z</time>
      </trkpt>
      <trkpt lat="46.50545" lon="11.29251">
        <ele>259.69</ele>
        <time>2012-08-02T10:18:22Z</time>
      </trkpt>
      <trkpt lat="46.50592" lon="11.29056">
        <ele>262.1</ele>
        <time>2012-08-02T10:18:32Z</time>
      </trkpt>
      <trkpt lat="46.50605" lon="11.29016">
        <ele>262.58</ele>
        <time>2012-08-02T10:18:34Z</time>
      </trkpt>
      <trkpt lat="46.50612" lon="11.28998">
        <ele>262.58</ele>
        <time>2012-08-02T10:18:35Z</time>
      </trkpt>
      <trkpt lat="46.50675" lon="11.28887">
        <ele>260.17</ele>
        <time>2012-08-02T10:18:42Z</time>
      </trkpt>
      <trkpt lat="46.50683" lon="11.28871">
        <ele>260.17</ele>
        <time>2012-08-02T10:18:43Z</time>
      </trkpt>
      <trkpt lat="46.50688" lon="11.28853">
        <ele>259.69</ele>
        <time>2012-08-02T10:18:44Z</time>
      </trkpt>
      <trkpt lat="46.50691" lon="11.28834">
        <ele>259.21</ele>
        <time>2012-08-02T10:18:45Z</time>
      </trkpt>
      <trkpt lat="46.50692" lon="11.28812">
        <ele>260.17</ele>
        <time>2012-08-02T10:18:46Z</time>
      </trkpt>
      <trkpt lat="46.50684" lon="11.2862">
        <ele>260.17</ele>
        <time>2012-08-02T10:18:55Z</time>
      </trkpt>
      <trkpt lat="46.50687" lon="11.28599">
        <ele>259.69</ele>
        <time>2012-08-02T10:18:56Z</time>
      </trkpt>
      <trkpt lat="46.50691" lon="11.28578">
        <ele>259.69</ele>
        <time>2012-08-02T10:18:57Z</time>
      </trkpt>
      <trkpt lat="46.50696" lon="11.28558">
        <ele>259.21</ele>
        <time>2012-08-02T10:18:58Z</time>
      </trkpt>
      <trkpt lat="46.50703" lon="11.28539">
        <ele>259.69</ele>
        <time>2012-08-02T10:18:59Z</time>
      </trkpt>
      <trkpt lat="46.5071" lon="11.2852">
        <ele>259.69</ele>
        <time>2012-08-02T10:19:00Z</time>
      </trkpt>
      <trkpt lat="46.50781" lon="11.28319">
        <ele>262.1</ele>
        <time>2012-08-02T10:19:11Z</time>
      </trkpt>
      <trkpt lat="46.5081" lon="11.28179">
        <ele>266.42</ele>
        <time>2012-08-02T10:19:18Z</time>
      </trkpt>
      <trkpt lat="46.50823" lon="11.28119">
        <ele>269.31</ele>
        <time>2012-08-02T10:19:21Z</time>
      </trkpt>
      <trkpt lat="46.50833" lon="11.28081">
        <ele>269.79</ele>
        <time>2012-08-02T10:19:23Z</time>
      </trkpt>
      <trkpt lat="46.50861" lon="11.28009">
        <ele>271.71</ele>
        <time>2012-08-02T10:19:27Z</time>
      </trkpt>
      <trkpt lat="46.5087" lon="11.27993">
        <ele>273.15</ele>
        <time>2012-08-02T10:19:28Z</time>
      </trkpt>
      <trkpt lat="46.50932" lon="11.27892">
        <ele>276.04</ele>
        <time>2012-08-02T10:19:35Z</time>
      </trkpt>
      <trkpt lat="46.50939" lon="11.27877">
        <ele>276.52</ele>
        <time>2012-08-02T10:19:36Z</time>
      </trkpt>
      <trkpt lat="46.50945" lon="11.27862">
        <ele>277.96</ele>
        <time>2012-08-02T10:19:37Z</time>
      </trkpt>
      <trkpt lat="46.50949" lon="11.27845">
        <ele>277.96</ele>
        <time>2012-08-02T10:19:38Z</time>
      </trkpt>
      <trkpt lat="46.50952" lon="11.27827">
        <ele>277.48</ele>
        <time>2012-08-02T10:19:39Z</time>
      </trkpt>
      <trkpt lat="46.50954" lon="11.2781">
        <ele>277.48</ele>
        <time>2012-08-02T10:19:40Z</time>
      </trkpt>
      <trkpt lat="46.50969" lon="11.27683">
        <ele>275.07</ele>
        <time>2012-08-02T10:19:47Z</time>
      </trkpt>
      <trkpt lat="46.50975" lon="11.27666">
        <ele>274.59</ele>
        <time>2012-08-02T10:19:48Z</time>
      </trkpt>
      <trkpt lat="46.50998" lon="11.276">
        <ele>271.23</ele>
        <time>2012-08-02T10:19:52Z</time>
      </trkpt>
      <trkpt lat="46.51013" lon="11.27556">
        <ele>269.31</ele>
        <time>2012-08-02T10:19:55Z</time>
      </trkpt>
      <trkpt lat="46.51039" lon="11.27489">
        <ele>268.35</ele>
        <time>2012-08-02T10:20:00Z</time>
      </trkpt>
      <trkpt lat="46.51047" lon="11.27477">
        <ele>267.86</ele>
        <time>2012-08-02T10:20:01Z</time>
      </trkpt>
      <trkpt lat="46.51056" lon="11.27467">
        <ele>267.38</ele>
        <time>2012-08-02T10:20:02Z</time>
      </trkpt>
      <trkpt lat="46.51157" lon="11.27371">
        <ele>266.42</ele>
        <time>2012-08-02T10:20:12Z</time>
      </trkpt>
      <trkpt lat="46.51179" lon="11.27335">
        <ele>264.98</ele>
        <time>2012-08-02T10:20:15Z</time>
      </trkpt>
      <trkpt lat="46.51261" lon="11.2719">
        <ele>265.46</ele>
        <time>2012-08-02T10:20:24Z</time>
      </trkpt>
      <trkpt lat="46.51377" lon="11.27033">
        <ele>266.9</ele>
        <time>2012-08-02T10:20:34Z</time>
      </trkpt>
      <trkpt lat="46.51387" lon="11.27015">
        <ele>267.38</ele>
        <time>2012-08-02T10:20:35Z</time>
      </trkpt>
      <trkpt lat="46.51422" lon="11.26941">
        <ele>270.75</ele>
        <time>2012-08-02T10:20:39Z</time>
      </trkpt>
      <trkpt lat="46.51518" lon="11.26758">
        <ele>274.59</ele>
        <time>2012-08-02T10:20:49Z</time>
      </trkpt>
      <trkpt lat="46.51549" lon="11.26701">
        <ele>276.04</ele>
        <time>2012-08-02T10:20:52Z</time>
      </trkpt>
      <trkpt lat="46.51632" lon="11.26588">
        <ele>278.92</ele>
        <time>2012-08-02T10:20:59Z</time>
      </trkpt>
      <trkpt lat="46.5166" lon="11.26559">
        <ele>280.36</ele>
        <time>2012-08-02T10:21:01Z</time>
      </trkpt>
      <trkpt lat="46.51791" lon="11.26382">
        <ele>279.4</ele>
        <time>2012-08-02T10:21:12Z</time>
      </trkpt>
      <trkpt lat="46.51799" lon="11.26364">
        <ele>279.88</ele>
        <time>2012-08-02T10:21:13Z</time>
      </trkpt>
      <trkpt lat="46.51833" lon="11.26277">
        <ele>276.52</ele>
        <time>2012-08-02T10:21:18Z</time>
      </trkpt>
      <trkpt lat="46.51857" lon="11.26216">
        <ele>275.07</ele>
        <time>2012-08-02T10:21:22Z</time>
      </trkpt>
      <trkpt lat="46.51865" lon="11.26202">
        <ele>274.11</ele>
        <time>2012-08-02T10:21:23Z</time>
      </trkpt>
      <trkpt lat="46.51912" lon="11.26125">
        <ele>273.15</ele>
        <time>2012-08-02T10:21:29Z</time>
      </trkpt>
      <trkpt lat="46.52008" lon="11.25985">
        <ele>269.79</ele>
        <time>2012-08-02T10:21:40Z</time>
      </trkpt>
      <trkpt lat="46.52091" lon="11.25848">
        <ele>266.42</ele>
        <time>2012-08-02T10:21:50Z</time>
      </trkpt>
      <trkpt lat="46.52178" lon="11.25718">
        <ele>264.98</ele>
        <time>2012-08-02T10:21:59Z</time>
      </trkpt>
      <trkpt lat="46.52276" lon="11.25533">
        <ele>263.06</ele>
        <time>2012-08-02T10:22:10Z</time>
      </trkpt>
      <trkpt lat="46.52287" lon="11.25517">
        <ele>263.06</ele>
        <time>2012-08-02T10:22:11Z</time>
      </trkpt>
      <trkpt lat="46.52298" lon="11.25504">
        <ele>263.54</ele>
        <time>2012-08-02T10:22:12Z</time>
      </trkpt>
      <trkpt lat="46.52311" lon="11.25492">
        <ele>263.54</ele>
        <time>2012-08-02T10:22:13Z</time>
      </trkpt>
      <trkpt lat="46.52357" lon="11.25442">
        <ele>263.06</ele>
        <time>2012-08-02T10:22:17Z</time>
      </trkpt>
      <trkpt lat="46.52366" lon="11.25426">
        <ele>263.06</ele>
        <time>2012-08-02T10:22:18Z</time>
      </trkpt>
      <trkpt lat="46.52375" lon="11.2541">
        <ele>263.06</ele>
        <time>2012-08-02T10:22:19Z</time>
      </trkpt>
      <trkpt lat="46.52419" lon="11.25328">
        <ele>262.1</ele>
        <time>2012-08-02T10:22:24Z</time>
      </trkpt>
      <trkpt lat="46.52428" lon="11.25316">
        <ele>262.1</ele>
        <time>2012-08-02T10:22:25Z</time>
      </trkpt>
      <trkpt lat="46.52465" lon="11.25273">
        <ele>261.14</ele>
        <time>2012-08-02T10:22:30Z</time>
      </trkpt>
      <trkpt lat="46.52471" lon="11.25267">
        <ele>261.14</ele>
        <time>2012-08-02T10:22:31Z</time>
      </trkpt>
      <trkpt lat="46.52485" lon="11.25258">
        <ele>261.14</ele>
        <time>2012-08-02T10:22:33Z</time>
      </trkpt>
      <trkpt lat="46.52489" lon="11.25251">
        <ele>261.14</ele>
        <time>2012-08-02T10:22:34Z</time>
      </trkpt>
      <trkpt lat="46.5249" lon="11.25242">
        <ele>261.14</ele>
        <time>2012-08-02T10:22:35Z</time>
      </trkpt>
      <trkpt lat="46.52488" lon="11.25233">
        <ele>262.1</ele>
        <time>2012-08-02T10:22:36Z</time>
      </trkpt>
      <trkpt lat="46.52483" lon="11.25226">
        <ele>262.1</ele>
        <time>2012-08-02T10:22:37Z</time>
      </trkpt>
      <trkpt lat="46.52475" lon="11.2522">
        <ele>262.58</ele>
        <time>2012-08-02T10:22:38Z</time>
      </trkpt>
      <trkpt lat="46.52466" lon="11.25215">
        <ele>263.06</ele>
        <time>2012-08-02T10:22:39Z</time>
      </trkpt>
      <trkpt lat="46.52457" lon="11.25207">
        <ele>263.54</ele>
        <time>2012-08-02T10:22:40Z</time>
      </trkpt>
      <trkpt lat="46.52447" lon="11.25198">
        <ele>263.06</ele>
        <time>2012-08-02T10:22:41Z</time>
      </trkpt>
      <trkpt lat="46.52438" lon="11.25188">
        <ele>263.54</ele>
        <time>2012-08-02T10:22:42Z</time>
      </trkpt>
      <trkpt lat="46.52377" lon="11.25073">
        <ele>264.5</ele>
        <time>2012-08-02T10:22:49Z</time>
      </trkpt>
      <trkpt lat="46.52313" lon="11.24852">
        <ele>261.62</ele>
        <time>2012-08-02T10:22:59Z</time>
      </trkpt>
      <trkpt lat="46.52267" lon="11.24664">
        <ele>262.58</ele>
        <time>2012-08-02T10:23:07Z</time>
      </trkpt>
      <trkpt lat="46.52255" lon="11.24626">
        <ele>265.94</ele>
        <time>2012-08-02T10:23:09Z</time>
      </trkpt>
      <trkpt lat="46.52239" lon="11.24578">
        <ele>267.38</ele>
        <time>2012-08-02T10:23:12Z</time>
      </trkpt>
      <trkpt lat="46.52196" lon="11.24424">
        <ele>268.35</ele>
        <time>2012-08-02T10:23:22Z</time>
      </trkpt>
      <trkpt lat="46.52173" lon="11.2433">
        <ele>265.46</ele>
        <time>2012-08-02T10:23:27Z</time>
      </trkpt>
      <trkpt lat="46.5216" lon="11.24253">
        <ele>262.58</ele>
        <time>2012-08-02T10:23:31Z</time>
      </trkpt>
      <trkpt lat="46.5215" lon="11.24119">
        <ele>262.58</ele>
        <time>2012-08-02T10:23:38Z</time>
      </trkpt>
      <trkpt lat="46.52146" lon="11.241">
        <ele>262.58</ele>
        <time>2012-08-02T10:23:39Z</time>
      </trkpt>
      <trkpt lat="46.5213" lon="11.24047">
        <ele>261.62</ele>
        <time>2012-08-02T10:23:43Z</time>
      </trkpt>
      <trkpt lat="46.52126" lon="11.24042">
        <ele>261.14</ele>
        <time>2012-08-02T10:23:44Z</time>
      </trkpt>
      <trkpt lat="46.52123" lon="11.24054">
        <ele>260.65</ele>
        <time>2012-08-02T10:23:49Z</time>
      </trkpt>
      <trkpt lat="46.52126" lon="11.24056">
        <ele>260.65</ele>
        <time>2012-08-02T10:23:57Z</time>
      </trkpt>
      <trkpt lat="46.52133" lon="11.24062">
        <ele>260.65</ele>
        <time>2012-08-02T10:24:08Z</time>
      </trkpt>
      <trkpt lat="46.52137" lon="11.2407">
        <ele>260.65</ele>
        <time>2012-08-02T10:24:09Z</time>
      </trkpt>
      <trkpt lat="46.5214" lon="11.24082">
        <ele>261.62</ele>
        <time>2012-08-02T10:24:10Z</time>
      </trkpt>
      <trkpt lat="46.52153" lon="11.24164">
        <ele>262.58</ele>
        <time>2012-08-02T10:24:15Z</time>
      </trkpt>
      <trkpt lat="46.52163" lon="11.24286">
        <ele>264.02</ele>
        <time>2012-08-02T10:24:21Z</time>
      </trkpt>
      <trkpt lat="46.52181" lon="11.2438">
        <ele>265.46</ele>
        <time>2012-08-02T10:24:26Z</time>
      </trkpt>
      <trkpt lat="46.52194" lon="11.24434">
        <ele>268.83</ele>
        <time>2012-08-02T10:24:29Z</time>
      </trkpt>
      <trkpt lat="46.52215" lon="11.24509">
        <ele>266.9</ele>
        <time>2012-08-02T10:24:35Z</time>
      </trkpt>
      <trkpt lat="46.52217" lon="11.24513">
        <ele>266.9</ele>
        <time>2012-08-02T10:24:36Z</time>
      </trkpt>
      <trkpt lat="46.5222" lon="11.24514">
        <ele>266.42</ele>
        <time>2012-08-02T10:24:37Z</time>
      </trkpt>
      <trkpt lat="46.52225" lon="11.24511">
        <ele>266.42</ele>
        <time>2012-08-02T10:24:38Z</time>
      </trkpt>
      <trkpt lat="46.52232" lon="11.24506">
        <ele>266.9</ele>
        <time>2012-08-02T10:24:39Z</time>
      </trkpt>
      <trkpt lat="46.5224" lon="11.245">
        <ele>266.9</ele>
        <time>2012-08-02T10:24:40Z</time>
      </trkpt>
      <trkpt lat="46.52331" lon="11.2444">
        <ele>265.46</ele>
        <time>2012-08-02T10:24:47Z</time>
      </trkpt>
      <trkpt lat="46.52548" lon="11.24308">
        <ele>266.42</ele>
        <time>2012-08-02T10:24:59Z</time>
      </trkpt>
      <trkpt lat="46.52783" lon="11.24169">
        <ele>262.58</ele>
        <time>2012-08-02T10:25:11Z</time>
      </trkpt>
      <trkpt lat="46.52823" lon="11.24145">
        <ele>267.38</ele>
        <time>2012-08-02T10:25:13Z</time>
      </trkpt>
      <trkpt lat="46.52843" lon="11.24133">
        <ele>266.9</ele>
        <time>2012-08-02T10:25:14Z</time>
      </trkpt>
      <trkpt lat="46.52883" lon="11.2411">
        <ele>269.31</ele>
        <time>2012-08-02T10:25:16Z</time>
      </trkpt>
      <trkpt lat="46.52903" lon="11.24098">
        <ele>263.54</ele>
        <time>2012-08-02T10:25:17Z</time>
      </trkpt>
      <trkpt lat="46.52923" lon="11.24086">
        <ele>265.94</ele>
        <time>2012-08-02T10:25:18Z</time>
      </trkpt>
      <trkpt lat="46.53227" lon="11.23892">
        <ele>267.86</ele>
        <time>2012-08-02T10:25:33Z</time>
      </trkpt>
      <trkpt lat="46.53432" lon="11.23697">
        <ele>269.31</ele>
        <time>2012-08-02T10:25:43Z</time>
      </trkpt>
      <trkpt lat="46.53676" lon="11.23479">
        <ele>270.75</ele>
        <time>2012-08-02T10:25:55Z</time>
      </trkpt>
      <trkpt lat="46.53997" lon="11.23264">
        <ele>270.75</ele>
        <time>2012-08-02T10:26:10Z</time>
      </trkpt>
      <trkpt lat="46.54103" lon="11.23128">
        <ele>270.27</ele>
        <time>2012-08-02T10:26:16Z</time>
      </trkpt>
      <trkpt lat="46.54203" lon="11.22885">
        <ele>270.75</ele>
        <time>2012-08-02T10:26:24Z</time>
      </trkpt>
      <trkpt lat="46.54367" lon="11.22502">
        <ele>270.27</ele>
        <time>2012-08-02T10:26:37Z</time>
      </trkpt>
      <trkpt lat="46.54386" lon="11.2248">
        <ele>269.79</ele>
        <time>2012-08-02T10:26:38Z</time>
      </trkpt>
      <trkpt lat="46.54405" lon="11.2246">
        <ele>269.79</ele>
        <time>2012-08-02T10:26:39Z</time>
      </trkpt>
      <trkpt lat="46.54426" lon="11.22443">
        <ele>270.27</ele>
        <time>2012-08-02T10:26:40Z</time>
      </trkpt>
      <trkpt lat="46.54447" lon="11.22428">
        <ele>269.31</ele>
        <time>2012-08-02T10:26:41Z</time>
      </trkpt>
      <trkpt lat="46.5447" lon="11.22414">
        <ele>270.27</ele>
        <time>2012-08-02T10:26:42Z</time>
      </trkpt>
      <trkpt lat="46.54492" lon="11.22404">
        <ele>270.75</ele>
        <time>2012-08-02T10:26:43Z</time>
      </trkpt>
      <trkpt lat="46.54516" lon="11.22396">
        <ele>271.23</ele>
        <time>2012-08-02T10:26:44Z</time>
      </trkpt>
      <trkpt lat="46.54539" lon="11.2239">
        <ele>270.27</ele>
        <time>2012-08-02T10:26:45Z</time>
      </trkpt>
      <trkpt lat="46.54563" lon="11.22385">
        <ele>270.27</ele>
        <time>2012-08-02T10:26:46Z</time>
      </trkpt>
      <trkpt lat="46.54867" lon="11.22307">
        <ele>269.79</ele>
        <time>2012-08-02T10:26:59Z</time>
      </trkpt>
      <trkpt lat="46.5501" lon="11.22188">
        <ele>271.23</ele>
        <time>2012-08-02T10:27:06Z</time>
      </trkpt>
      <trkpt lat="46.55161" lon="11.2197">
        <ele>270.27</ele>
        <time>2012-08-02T10:27:15Z</time>
      </trkpt>
      <trkpt lat="46.55284" lon="11.21871">
        <ele>270.75</ele>
        <time>2012-08-02T10:27:21Z</time>
      </trkpt>
      <trkpt lat="46.55328" lon="11.21844">
        <ele>274.59</ele>
        <time>2012-08-02T10:27:23Z</time>
      </trkpt>
      <trkpt lat="46.5535" lon="11.21831">
        <ele>270.75</ele>
        <time>2012-08-02T10:27:24Z</time>
      </trkpt>
      <trkpt lat="46.55641" lon="11.21672">
        <ele>272.19</ele>
        <time>2012-08-02T10:27:37Z</time>
      </trkpt>
      <trkpt lat="46.55855" lon="11.21631">
        <ele>272.19</ele>
        <time>2012-08-02T10:27:46Z</time>
      </trkpt>
      <trkpt lat="46.5626" lon="11.21561">
        <ele>272.19</ele>
        <time>2012-08-02T10:28:03Z</time>
      </trkpt>
      <trkpt lat="46.56351" lon="11.21512">
        <ele>273.63</ele>
        <time>2012-08-02T10:28:07Z</time>
      </trkpt>
      <trkpt lat="46.56492" lon="11.21373">
        <ele>274.11</ele>
        <time>2012-08-02T10:28:14Z</time>
      </trkpt>
      <trkpt lat="46.56772" lon="11.2103">
        <ele>275.56</ele>
        <time>2012-08-02T10:28:29Z</time>
      </trkpt>
      <trkpt lat="46.56816" lon="11.20946">
        <ele>274.11</ele>
        <time>2012-08-02T10:28:32Z</time>
      </trkpt>
      <trkpt lat="46.5703" lon="11.20465">
        <ele>273.63</ele>
        <time>2012-08-02T10:28:48Z</time>
      </trkpt>
      <trkpt lat="46.57225" lon="11.20057">
        <ele>273.15</ele>
        <time>2012-08-02T10:29:02Z</time>
      </trkpt>
      <trkpt lat="46.57402" lon="11.19819">
        <ele>273.63</ele>
        <time>2012-08-02T10:29:12Z</time>
      </trkpt>
      <trkpt lat="46.57528" lon="11.19672">
        <ele>270.75</ele>
        <time>2012-08-02T10:29:20Z</time>
      </trkpt>
      <trkpt lat="46.57596" lon="11.19599">
        <ele>273.15</ele>
        <time>2012-08-02T10:29:26Z</time>
      </trkpt>
      <trkpt lat="46.57634" lon="11.19566">
        <ele>275.07</ele>
        <time>2012-08-02T10:29:33Z</time>
      </trkpt>
      <trkpt lat="46.57638" lon="11.19567">
        <ele>275.07</ele>
        <time>2012-08-02T10:29:34Z</time>
      </trkpt>
      <trkpt lat="46.57641" lon="11.19571">
        <ele>275.56</ele>
        <time>2012-08-02T10:29:35Z</time>
      </trkpt>
      <trkpt lat="46.5768" lon="11.19652">
        <ele>278.44</ele>
        <time>2012-08-02T10:29:43Z</time>
      </trkpt>
      <trkpt lat="46.57728" lon="11.19748">
        <ele>275.56</ele>
        <time>2012-08-02T10:29:50Z</time>
      </trkpt>
      <trkpt lat="46.57739" lon="11.19761">
        <ele>275.56</ele>
        <time>2012-08-02T10:29:51Z</time>
      </trkpt>
      <trkpt lat="46.57751" lon="11.19773">
        <ele>274.59</ele>
        <time>2012-08-02T10:29:52Z</time>
      </trkpt>
      <trkpt lat="46.57804" lon="11.19813">
        <ele>270.27</ele>
        <time>2012-08-02T10:29:56Z</time>
      </trkpt>
      <trkpt lat="46.57891" lon="11.19909">
        <ele>269.31</ele>
        <time>2012-08-02T10:30:04Z</time>
      </trkpt>
      <trkpt lat="46.57909" lon="11.19934">
        <ele>267.86</ele>
        <time>2012-08-02T10:30:06Z</time>
      </trkpt>
      <trkpt lat="46.58016" lon="11.20095">
        <ele>268.35</ele>
        <time>2012-08-02T10:30:18Z</time>
      </trkpt>
      <trkpt lat="46.58026" lon="11.20106">
        <ele>267.86</ele>
        <time>2012-08-02T10:30:19Z</time>
      </trkpt>
      <trkpt lat="46.58037" lon="11.20113">
        <ele>268.83</ele>
        <time>2012-08-02T10:30:20Z</time>
      </trkpt>
      <trkpt lat="46.58049" lon="11.20119">
        <ele>268.83</ele>
        <time>2012-08-02T10:30:21Z</time>
      </trkpt>
      <trkpt lat="46.58062" lon="11.20123">
        <ele>269.31</ele>
        <time>2012-08-02T10:30:22Z</time>
      </trkpt>
      <trkpt lat="46.58074" lon="11.20126">
        <ele>269.31</ele>
        <time>2012-08-02T10:30:23Z</time>
      </trkpt>
      <trkpt lat="46.58161" lon="11.20138">
        <ele>270.27</ele>
        <time>2012-08-02T10:30:30Z</time>
      </trkpt>
      <trkpt lat="46.58173" lon="11.2014">
        <ele>270.75</ele>
        <time>2012-08-02T10:30:31Z</time>
      </trkpt>
      <trkpt lat="46.5827" lon="11.20157">
        <ele>272.19</ele>
        <time>2012-08-02T10:30:39Z</time>
      </trkpt>
      <trkpt lat="46.58366" lon="11.20183">
        <ele>274.11</ele>
        <time>2012-08-02T10:30:48Z</time>
      </trkpt>
      <trkpt lat="46.58376" lon="11.20187">
        <ele>274.59</ele>
        <time>2012-08-02T10:30:49Z</time>
      </trkpt>
      <trkpt lat="46.58395" lon="11.20195">
        <ele>275.07</ele>
        <time>2012-08-02T10:30:51Z</time>
      </trkpt>
      <trkpt lat="46.58405" lon="11.20196">
        <ele>276.04</ele>
        <time>2012-08-02T10:30:52Z</time>
      </trkpt>
      <trkpt lat="46.58415" lon="11.20194">
        <ele>276.04</ele>
        <time>2012-08-02T10:30:53Z</time>
      </trkpt>
      <trkpt lat="46.58424" lon="11.20194">
        <ele>276.52</ele>
        <time>2012-08-02T10:30:54Z</time>
      </trkpt>
      <trkpt lat="46.58433" lon="11.20198">
        <ele>276.52</ele>
        <time>2012-08-02T10:30:55Z</time>
      </trkpt>
      <trkpt lat="46.58441" lon="11.20206">
        <ele>276.52</ele>
        <time>2012-08-02T10:30:56Z</time>
      </trkpt>
      <trkpt lat="46.58447" lon="11.20213">
        <ele>276.52</ele>
        <time>2012-08-02T10:30:57Z</time>
      </trkpt>
      <trkpt lat="46.5845" lon="11.20218">
        <ele>276.52</ele>
        <time>2012-08-02T10:30:58Z</time>
      </trkpt>
      <trkpt lat="46.58451" lon="11.2022">
        <ele>276.52</ele>
        <time>2012-08-02T10:30:59Z</time>
      </trkpt>
      <trkpt lat="46.58454" lon="11.20221">
        <ele>276.52</ele>
        <time>2012-08-02T10:31:03Z</time>
      </trkpt>
      <trkpt lat="46.58457" lon="11.20219">
        <ele>277</ele>
        <time>2012-08-02T10:31:04Z</time>
      </trkpt>
      <trkpt lat="46.58461" lon="11.20214">
        <ele>277.48</ele>
        <time>2012-08-02T10:31:05Z</time>
      </trkpt>
      <trkpt lat="46.58465" lon="11.20207">
        <ele>277.48</ele>
        <time>2012-08-02T10:31:06Z</time>
      </trkpt>
      <trkpt lat="46.58468" lon="11.20198">
        <ele>277.48</ele>
        <time>2012-08-02T10:31:07Z</time>
      </trkpt>
      <trkpt lat="46.58499" lon="11.20143">
        <ele>277</ele>
        <time>2012-08-02T10:31:13Z</time>
      </trkpt>
      <trkpt lat="46.58505" lon="11.20137">
        <ele>276.52</ele>
        <time>2012-08-02T10:31:14Z</time>
      </trkpt>
      <trkpt lat="46.58511" lon="11.20134">
        <ele>276.52</ele>
        <time>2012-08-02T10:31:15Z</time>
      </trkpt>
      <trkpt lat="46.58516" lon="11.20131">
        <ele>276.52</ele>
        <time>2012-08-02T10:31:16Z</time>
      </trkpt>
      <trkpt lat="46.58523" lon="11.2013">
        <ele>276.52</ele>
        <time>2012-08-02T10:31:17Z</time>
      </trkpt>
      <trkpt lat="46.58623" lon="11.20125">
        <ele>279.4</ele>
        <time>2012-08-02T10:31:27Z</time>
      </trkpt>
      <trkpt lat="46.58667" lon="11.20122">
        <ele>279.4</ele>
        <time>2012-08-02T10:31:31Z</time>
      </trkpt>
      <trkpt lat="46.58676" lon="11.20117">
        <ele>278.92</ele>
        <time>2012-08-02T10:31:32Z</time>
      </trkpt>
      <trkpt lat="46.58682" lon="11.20112">
        <ele>278.44</ele>
        <time>2012-08-02T10:31:33Z</time>
      </trkpt>
      <trkpt lat="46.58692" lon="11.20105">
        <ele>278.44</ele>
        <time>2012-08-02T10:31:39Z</time>
      </trkpt>
      <trkpt lat="46.58705" lon="11.20099">
        <ele>279.4</ele>
        <time>2012-08-02T10:31:43Z</time>
      </trkpt>
      <trkpt lat="46.58711" lon="11.20093">
        <ele>278.92</ele>
        <time>2012-08-02T10:31:44Z</time>
      </trkpt>
      <trkpt lat="46.58781" lon="11.2003">
        <ele>280.36</ele>
        <time>2012-08-02T10:31:52Z</time>
      </trkpt>
      <trkpt lat="46.58872" lon="11.20001">
        <ele>281.8</ele>
        <time>2012-08-02T10:31:59Z</time>
      </trkpt>
      <trkpt lat="46.58885" lon="11.20004">
        <ele>282.28</ele>
        <time>2012-08-02T10:32:00Z</time>
      </trkpt>
      <trkpt lat="46.58898" lon="11.20008">
        <ele>282.77</ele>
        <time>2012-08-02T10:32:01Z</time>
      </trkpt>
      <trkpt lat="46.5891" lon="11.20014">
        <ele>283.25</ele>
        <time>2012-08-02T10:32:02Z</time>
      </trkpt>
      <trkpt lat="46.58922" lon="11.20021">
        <ele>283.25</ele>
        <time>2012-08-02T10:32:03Z</time>
      </trkpt>
      <trkpt lat="46.58988" lon="11.20056">
        <ele>281.32</ele>
        <time>2012-08-02T10:32:08Z</time>
      </trkpt>
      <trkpt lat="46.59137" lon="11.20107">
        <ele>278.44</ele>
        <time>2012-08-02T10:32:18Z</time>
      </trkpt>
      <trkpt lat="46.59265" lon="11.20095">
        <ele>277.48</ele>
        <time>2012-08-02T10:32:26Z</time>
      </trkpt>
      <trkpt lat="46.59331" lon="11.20079">
        <ele>275.56</ele>
        <time>2012-08-02T10:32:30Z</time>
      </trkpt>
      <trkpt lat="46.59449" lon="11.20087">
        <ele>275.56</ele>
        <time>2012-08-02T10:32:37Z</time>
      </trkpt>
      <trkpt lat="46.59568" lon="11.20073">
        <ele>274.11</ele>
        <time>2012-08-02T10:32:44Z</time>
      </trkpt>
      <trkpt lat="46.59584" lon="11.20067">
        <ele>274.11</ele>
        <time>2012-08-02T10:32:45Z</time>
      </trkpt>
      <trkpt lat="46.59726" lon="11.20025">
        <ele>275.07</ele>
        <time>2012-08-02T10:32:54Z</time>
      </trkpt>
      <trkpt lat="46.59894" lon="11.1998">
        <ele>273.63</ele>
        <time>2012-08-02T10:33:05Z</time>
      </trkpt>
      <trkpt lat="46.59906" lon="11.19974">
        <ele>273.15</ele>
        <time>2012-08-02T10:33:06Z</time>
      </trkpt>
      <trkpt lat="46.59917" lon="11.19966">
        <ele>273.15</ele>
        <time>2012-08-02T10:33:07Z</time>
      </trkpt>
      <trkpt lat="46.60012" lon="11.19893">
        <ele>274.59</ele>
        <time>2012-08-02T10:33:17Z</time>
      </trkpt>
      <trkpt lat="46.60023" lon="11.1989">
        <ele>274.59</ele>
        <time>2012-08-02T10:33:18Z</time>
      </trkpt>
      <trkpt lat="46.60035" lon="11.19889">
        <ele>275.07</ele>
        <time>2012-08-02T10:33:19Z</time>
      </trkpt>
      <trkpt lat="46.60047" lon="11.1989">
        <ele>275.56</ele>
        <time>2012-08-02T10:33:20Z</time>
      </trkpt>
      <trkpt lat="46.60059" lon="11.19893">
        <ele>276.04</ele>
        <time>2012-08-02T10:33:21Z</time>
      </trkpt>
      <trkpt lat="46.60072" lon="11.19898">
        <ele>276.04</ele>
        <time>2012-08-02T10:33:22Z</time>
      </trkpt>
      <trkpt lat="46.60085" lon="11.19903">
        <ele>276.04</ele>
        <time>2012-08-02T10:33:23Z</time>
      </trkpt>
      <trkpt lat="46.60123" lon="11.19925">
        <ele>277.48</ele>
        <time>2012-08-02T10:33:26Z</time>
      </trkpt>
      <trkpt lat="46.60174" lon="11.19946">
        <ele>277.48</ele>
        <time>2012-08-02T10:33:30Z</time>
      </trkpt>
      <trkpt lat="46.60186" lon="11.19947">
        <ele>277.48</ele>
        <time>2012-08-02T10:33:31Z</time>
      </trkpt>
      <trkpt lat="46.60198" lon="11.19944">
        <ele>277.96</ele>
        <time>2012-08-02T10:33:32Z</time>
      </trkpt>
      <trkpt lat="46.60211" lon="11.19938">
        <ele>277.48</ele>
        <time>2012-08-02T10:33:33Z</time>
      </trkpt>
      <trkpt lat="46.60223" lon="11.1993">
        <ele>278.44</ele>
        <time>2012-08-02T10:33:34Z</time>
      </trkpt>
      <trkpt lat="46.60236" lon="11.19921">
        <ele>278.92</ele>
        <time>2012-08-02T10:33:35Z</time>
      </trkpt>
      <trkpt lat="46.60249" lon="11.19912">
        <ele>278.92</ele>
        <time>2012-08-02T10:33:36Z</time>
      </trkpt>
      <trkpt lat="46.60363" lon="11.19821">
        <ele>279.4</ele>
        <time>2012-08-02T10:33:45Z</time>
      </trkpt>
      <trkpt lat="46.60373" lon="11.19807">
        <ele>279.88</ele>
        <time>2012-08-02T10:33:46Z</time>
      </trkpt>
      <trkpt lat="46.60383" lon="11.19791">
        <ele>279.88</ele>
        <time>2012-08-02T10:33:47Z</time>
      </trkpt>
      <trkpt lat="46.60439" lon="11.19696">
        <ele>283.25</ele>
        <time>2012-08-02T10:33:53Z</time>
      </trkpt>
      <trkpt lat="46.60492" lon="11.19625">
        <ele>283.73</ele>
        <time>2012-08-02T10:33:58Z</time>
      </trkpt>
      <trkpt lat="46.60591" lon="11.19426">
        <ele>284.69</ele>
        <time>2012-08-02T10:34:10Z</time>
      </trkpt>
      <trkpt lat="46.60622" lon="11.19339">
        <ele>280.36</ele>
        <time>2012-08-02T10:34:15Z</time>
      </trkpt>
      <trkpt lat="46.60641" lon="11.19282">
        <ele>277.96</ele>
        <time>2012-08-02T10:34:19Z</time>
      </trkpt>
      <trkpt lat="46.60647" lon="11.19272">
        <ele>277</ele>
        <time>2012-08-02T10:34:20Z</time>
      </trkpt>
      <trkpt lat="46.60658" lon="11.1926">
        <ele>276.52</ele>
        <time>2012-08-02T10:34:21Z</time>
      </trkpt>
      <trkpt lat="46.60669" lon="11.19253">
        <ele>276.04</ele>
        <time>2012-08-02T10:34:22Z</time>
      </trkpt>
      <trkpt lat="46.6068" lon="11.1925">
        <ele>275.56</ele>
        <time>2012-08-02T10:34:23Z</time>
      </trkpt>
      <trkpt lat="46.6069" lon="11.1925">
        <ele>275.07</ele>
        <time>2012-08-02T10:34:24Z</time>
      </trkpt>
      <trkpt lat="46.607" lon="11.19251">
        <ele>274.59</ele>
        <time>2012-08-02T10:34:25Z</time>
      </trkpt>
      <trkpt lat="46.60711" lon="11.19253">
        <ele>275.07</ele>
        <time>2012-08-02T10:34:26Z</time>
      </trkpt>
      <trkpt lat="46.60722" lon="11.19256">
        <ele>275.07</ele>
        <time>2012-08-02T10:34:27Z</time>
      </trkpt>
      <trkpt lat="46.60841" lon="11.19281">
        <ele>278.92</ele>
        <time>2012-08-02T10:34:37Z</time>
      </trkpt>
      <trkpt lat="46.60941" lon="11.19279">
        <ele>278.44</ele>
        <time>2012-08-02T10:34:46Z</time>
      </trkpt>
      <trkpt lat="46.60949" lon="11.19276">
        <ele>278.44</ele>
        <time>2012-08-02T10:34:47Z</time>
      </trkpt>
      <trkpt lat="46.6096" lon="11.19268">
        <ele>278.92</ele>
        <time>2012-08-02T10:34:49Z</time>
      </trkpt>
      <trkpt lat="46.60965" lon="11.19262">
        <ele>279.4</ele>
        <time>2012-08-02T10:34:50Z</time>
      </trkpt>
      <trkpt lat="46.6097" lon="11.19255">
        <ele>278.92</ele>
        <time>2012-08-02T10:34:51Z</time>
      </trkpt>
      <trkpt lat="46.60975" lon="11.19247">
        <ele>279.88</ele>
        <time>2012-08-02T10:34:52Z</time>
      </trkpt>
      <trkpt lat="46.60978" lon="11.19236">
        <ele>278.92</ele>
        <time>2012-08-02T10:34:53Z</time>
      </trkpt>
      <trkpt lat="46.60981" lon="11.19224">
        <ele>278.92</ele>
        <time>2012-08-02T10:34:54Z</time>
      </trkpt>
      <trkpt lat="46.60984" lon="11.19211">
        <ele>278.92</ele>
        <time>2012-08-02T10:34:55Z</time>
      </trkpt>
      <trkpt lat="46.60986" lon="11.19195">
        <ele>278.44</ele>
        <time>2012-08-02T10:34:56Z</time>
      </trkpt>
      <trkpt lat="46.60984" lon="11.19176">
        <ele>278.44</ele>
        <time>2012-08-02T10:34:57Z</time>
      </trkpt>
      <trkpt lat="46.60975" lon="11.19012">
        <ele>275.56</ele>
        <time>2012-08-02T10:35:05Z</time>
      </trkpt>
      <trkpt lat="46.60966" lon="11.18739">
        <ele>276.52</ele>
        <time>2012-08-02T10:35:19Z</time>
      </trkpt>
      <trkpt lat="46.6096" lon="11.18418">
        <ele>277</ele>
        <time>2012-08-02T10:35:35Z</time>
      </trkpt>
      <trkpt lat="46.60969" lon="11.18322">
        <ele>277.96</ele>
        <time>2012-08-02T10:35:41Z</time>
      </trkpt>
      <trkpt lat="46.60973" lon="11.18313">
        <ele>277.96</ele>
        <time>2012-08-02T10:35:42Z</time>
      </trkpt>
      <trkpt lat="46.60976" lon="11.18308">
        <ele>277.96</ele>
        <time>2012-08-02T10:35:43Z</time>
      </trkpt>
      <trkpt lat="46.60979" lon="11.18305">
        <ele>277.96</ele>
        <time>2012-08-02T10:35:44Z</time>
      </trkpt>
      <trkpt lat="46.60982" lon="11.18302">
        <ele>277.96</ele>
        <time>2012-08-02T10:35:45Z</time>
      </trkpt>
      <trkpt lat="46.60984" lon="11.18299">
        <ele>277.48</ele>
        <time>2012-08-02T10:35:46Z</time>
      </trkpt>
      <trkpt lat="46.60984" lon="11.18296">
        <ele>277.48</ele>
        <time>2012-08-02T10:35:47Z</time>
      </trkpt>
      <trkpt lat="46.60983" lon="11.18294">
        <ele>277.48</ele>
        <time>2012-08-02T10:35:48Z</time>
      </trkpt>
      <trkpt lat="46.60981" lon="11.18295">
        <ele>277.48</ele>
        <time>2012-08-02T10:35:49Z</time>
      </trkpt>
      <trkpt lat="46.60977" lon="11.18297">
        <ele>277.96</ele>
        <time>2012-08-02T10:35:51Z</time>
      </trkpt>
      <trkpt lat="46.60974" lon="11.18298">
        <ele>277.96</ele>
        <time>2012-08-02T10:35:56Z</time>
      </trkpt>
      <trkpt lat="46.60969" lon="11.18302">
        <ele>277.96</ele>
        <time>2012-08-02T10:35:59Z</time>
      </trkpt>
      <trkpt lat="46.60967" lon="11.18308">
        <ele>277.96</ele>
        <time>2012-08-02T10:36:00Z</time>
      </trkpt>
      <trkpt lat="46.60966" lon="11.18317">
        <ele>277.96</ele>
        <time>2012-08-02T10:36:01Z</time>
      </trkpt>
      <trkpt lat="46.60958" lon="11.18409">
        <ele>276.52</ele>
        <time>2012-08-02T10:36:07Z</time>
      </trkpt>
      <trkpt lat="46.6096" lon="11.18667">
        <ele>276.04</ele>
        <time>2012-08-02T10:36:20Z</time>
      </trkpt>
      <trkpt lat="46.60967" lon="11.189">
        <ele>276.52</ele>
        <time>2012-08-02T10:36:31Z</time>
      </trkpt>
      <trkpt lat="46.60966" lon="11.18922">
        <ele>276.52</ele>
        <time>2012-08-02T10:36:32Z</time>
      </trkpt>
      <trkpt lat="46.60975" lon="11.19195">
        <ele>277.96</ele>
        <time>2012-08-02T10:36:45Z</time>
      </trkpt>
      <trkpt lat="46.60975" lon="11.19228">
        <ele>277.96</ele>
        <time>2012-08-02T10:36:48Z</time>
      </trkpt>
      <trkpt lat="46.60975" lon="11.19234">
        <ele>278.44</ele>
        <time>2012-08-02T10:36:49Z</time>
      </trkpt>
      <trkpt lat="46.60978" lon="11.19238">
        <ele>277.96</ele>
        <time>2012-08-02T10:36:50Z</time>
      </trkpt>
      <trkpt lat="46.60983" lon="11.19238">
        <ele>278.44</ele>
        <time>2012-08-02T10:36:51Z</time>
      </trkpt>
      <trkpt lat="46.60991" lon="11.19235">
        <ele>279.4</ele>
        <time>2012-08-02T10:36:52Z</time>
      </trkpt>
      <trkpt lat="46.60999" lon="11.1923">
        <ele>279.4</ele>
        <time>2012-08-02T10:36:53Z</time>
      </trkpt>
      <trkpt lat="46.61009" lon="11.19223">
        <ele>279.88</ele>
        <time>2012-08-02T10:36:54Z</time>
      </trkpt>
      <trkpt lat="46.61021" lon="11.19217">
        <ele>281.32</ele>
        <time>2012-08-02T10:36:55Z</time>
      </trkpt>
      <trkpt lat="46.61072" lon="11.19203">
        <ele>283.73</ele>
        <time>2012-08-02T10:36:59Z</time>
      </trkpt>
      <trkpt lat="46.61184" lon="11.19173">
        <ele>281.32</ele>
        <time>2012-08-02T10:37:08Z</time>
      </trkpt>
      <trkpt lat="46.61198" lon="11.19165">
        <ele>280.84</ele>
        <time>2012-08-02T10:37:09Z</time>
      </trkpt>
      <trkpt lat="46.61211" lon="11.19154">
        <ele>280.84</ele>
        <time>2012-08-02T10:37:10Z</time>
      </trkpt>
      <trkpt lat="46.61224" lon="11.19142">
        <ele>280.36</ele>
        <time>2012-08-02T10:37:11Z</time>
      </trkpt>
      <trkpt lat="46.61236" lon="11.19127">
        <ele>279.4</ele>
        <time>2012-08-02T10:37:12Z</time>
      </trkpt>
      <trkpt lat="46.61248" lon="11.19112">
        <ele>279.4</ele>
        <time>2012-08-02T10:37:13Z</time>
      </trkpt>
      <trkpt lat="46.61258" lon="11.19094">
        <ele>279.4</ele>
        <time>2012-08-02T10:37:14Z</time>
      </trkpt>
      <trkpt lat="46.6128" lon="11.19062">
        <ele>278.44</ele>
        <time>2012-08-02T10:37:16Z</time>
      </trkpt>
      <trkpt lat="46.61293" lon="11.19048">
        <ele>278.44</ele>
        <time>2012-08-02T10:37:17Z</time>
      </trkpt>
      <trkpt lat="46.61306" lon="11.19036">
        <ele>277.96</ele>
        <time>2012-08-02T10:37:18Z</time>
      </trkpt>
      <trkpt lat="46.61321" lon="11.19026">
        <ele>277.48</ele>
        <time>2012-08-02T10:37:19Z</time>
      </trkpt>
      <trkpt lat="46.61335" lon="11.19018">
        <ele>277.48</ele>
        <time>2012-08-02T10:37:20Z</time>
      </trkpt>
      <trkpt lat="46.6135" lon="11.19013">
        <ele>277</ele>
        <time>2012-08-02T10:37:21Z</time>
      </trkpt>
      <trkpt lat="46.61365" lon="11.19009">
        <ele>277</ele>
        <time>2012-08-02T10:37:22Z</time>
      </trkpt>
      <trkpt lat="46.61407" lon="11.18993">
        <ele>277.48</ele>
        <time>2012-08-02T10:37:25Z</time>
      </trkpt>
      <trkpt lat="46.61421" lon="11.18984">
        <ele>277.96</ele>
        <time>2012-08-02T10:37:26Z</time>
      </trkpt>
      <trkpt lat="46.61434" lon="11.18972">
        <ele>277.48</ele>
        <time>2012-08-02T10:37:27Z</time>
      </trkpt>
      <trkpt lat="46.61446" lon="11.18958">
        <ele>277.96</ele>
        <time>2012-08-02T10:37:28Z</time>
      </trkpt>
      <trkpt lat="46.61457" lon="11.18942">
        <ele>277.96</ele>
        <time>2012-08-02T10:37:29Z</time>
      </trkpt>
      <trkpt lat="46.61468" lon="11.18925">
        <ele>277.96</ele>
        <time>2012-08-02T10:37:30Z</time>
      </trkpt>
      <trkpt lat="46.6149" lon="11.18895">
        <ele>277.96</ele>
        <time>2012-08-02T10:37:32Z</time>
      </trkpt>
      <trkpt lat="46.61503" lon="11.18882">
        <ele>277.96</ele>
        <time>2012-08-02T10:37:33Z</time>
      </trkpt>
      <trkpt lat="46.6156" lon="11.18845">
        <ele>278.92</ele>
        <time>2012-08-02T10:37:37Z</time>
      </trkpt>
      <trkpt lat="46.61576" lon="11.1884">
        <ele>279.4</ele>
        <time>2012-08-02T10:37:38Z</time>
      </trkpt>
      <trkpt lat="46.61592" lon="11.18839">
        <ele>279.4</ele>
        <time>2012-08-02T10:37:39Z</time>
      </trkpt>
      <trkpt lat="46.61607" lon="11.18841">
        <ele>279.4</ele>
        <time>2012-08-02T10:37:40Z</time>
      </trkpt>
      <trkpt lat="46.61623" lon="11.18845">
        <ele>280.84</ele>
        <time>2012-08-02T10:37:41Z</time>
      </trkpt>
      <trkpt lat="46.61669" lon="11.18849">
        <ele>281.32</ele>
        <time>2012-08-02T10:37:44Z</time>
      </trkpt>
      <trkpt lat="46.61685" lon="11.18847">
        <ele>281.8</ele>
        <time>2012-08-02T10:37:45Z</time>
      </trkpt>
      <trkpt lat="46.61844" lon="11.18799">
        <ele>278.92</ele>
        <time>2012-08-02T10:37:55Z</time>
      </trkpt>
      <trkpt lat="46.61921" lon="11.18759">
        <ele>281.32</ele>
        <time>2012-08-02T10:38:00Z</time>
      </trkpt>
      <trkpt lat="46.61935" lon="11.18748">
        <ele>281.8</ele>
        <time>2012-08-02T10:38:01Z</time>
      </trkpt>
      <trkpt lat="46.61949" lon="11.18735">
        <ele>281.32</ele>
        <time>2012-08-02T10:38:02Z</time>
      </trkpt>
      <trkpt lat="46.61961" lon="11.1872">
        <ele>282.28</ele>
        <time>2012-08-02T10:38:03Z</time>
      </trkpt>
      <trkpt lat="46.61997" lon="11.18675">
        <ele>281.8</ele>
        <time>2012-08-02T10:38:06Z</time>
      </trkpt>
      <trkpt lat="46.6201" lon="11.18665">
        <ele>281.8</ele>
        <time>2012-08-02T10:38:07Z</time>
      </trkpt>
      <trkpt lat="46.62025" lon="11.18657">
        <ele>281.8</ele>
        <time>2012-08-02T10:38:08Z</time>
      </trkpt>
      <trkpt lat="46.62041" lon="11.1865">
        <ele>281.8</ele>
        <time>2012-08-02T10:38:09Z</time>
      </trkpt>
      <trkpt lat="46.62057" lon="11.18645">
        <ele>281.8</ele>
        <time>2012-08-02T10:38:10Z</time>
      </trkpt>
      <trkpt lat="46.62074" lon="11.18642">
        <ele>282.28</ele>
        <time>2012-08-02T10:38:11Z</time>
      </trkpt>
      <trkpt lat="46.62204" lon="11.18637">
        <ele>282.28</ele>
        <time>2012-08-02T10:38:19Z</time>
      </trkpt>
      <trkpt lat="46.6222" lon="11.18633">
        <ele>282.77</ele>
        <time>2012-08-02T10:38:20Z</time>
      </trkpt>
      <trkpt lat="46.62236" lon="11.18628">
        <ele>282.77</ele>
        <time>2012-08-02T10:38:21Z</time>
      </trkpt>
      <trkpt lat="46.62396" lon="11.18533">
        <ele>282.77</ele>
        <time>2012-08-02T10:38:31Z</time>
      </trkpt>
      <trkpt lat="46.62493" lon="11.18473">
        <ele>282.77</ele>
        <time>2012-08-02T10:38:37Z</time>
      </trkpt>
      <trkpt lat="46.6251" lon="11.18469">
        <ele>283.25</ele>
        <time>2012-08-02T10:38:38Z</time>
      </trkpt>
      <trkpt lat="46.62543" lon="11.18461">
        <ele>283.73</ele>
        <time>2012-08-02T10:38:40Z</time>
      </trkpt>
      <trkpt lat="46.6256" lon="11.18453">
        <ele>283.73</ele>
        <time>2012-08-02T10:38:41Z</time>
      </trkpt>
      <trkpt lat="46.62575" lon="11.18444">
        <ele>284.21</ele>
        <time>2012-08-02T10:38:42Z</time>
      </trkpt>
      <trkpt lat="46.62591" lon="11.18432">
        <ele>285.17</ele>
        <time>2012-08-02T10:38:43Z</time>
      </trkpt>
      <trkpt lat="46.62606" lon="11.18419">
        <ele>285.17</ele>
        <time>2012-08-02T10:38:44Z</time>
      </trkpt>
      <trkpt lat="46.627" lon="11.18338">
        <ele>284.69</ele>
        <time>2012-08-02T10:38:51Z</time>
      </trkpt>
      <trkpt lat="46.62737" lon="11.1829">
        <ele>284.21</ele>
        <time>2012-08-02T10:38:54Z</time>
      </trkpt>
      <trkpt lat="46.6283" lon="11.18159">
        <ele>282.77</ele>
        <time>2012-08-02T10:39:02Z</time>
      </trkpt>
      <trkpt lat="46.62844" lon="11.18147">
        <ele>283.25</ele>
        <time>2012-08-02T10:39:03Z</time>
      </trkpt>
      <trkpt lat="46.63019" lon="11.18022">
        <ele>283.25</ele>
        <time>2012-08-02T10:39:15Z</time>
      </trkpt>
      <trkpt lat="46.6313" lon="11.17948">
        <ele>282.28</ele>
        <time>2012-08-02T10:39:23Z</time>
      </trkpt>
      <trkpt lat="46.63154" lon="11.1793">
        <ele>282.77</ele>
        <time>2012-08-02T10:39:26Z</time>
      </trkpt>
      <trkpt lat="46.63159" lon="11.17923">
        <ele>282.77</ele>
        <time>2012-08-02T10:39:27Z</time>
      </trkpt>
      <trkpt lat="46.63163" lon="11.17916">
        <ele>282.28</ele>
        <time>2012-08-02T10:39:28Z</time>
      </trkpt>
      <trkpt lat="46.63166" lon="11.17911">
        <ele>282.28</ele>
        <time>2012-08-02T10:39:29Z</time>
      </trkpt>
      <trkpt lat="46.63168" lon="11.17909">
        <ele>282.28</ele>
        <time>2012-08-02T10:39:30Z</time>
      </trkpt>
      <trkpt lat="46.6317" lon="11.17907">
        <ele>281.8</ele>
        <time>2012-08-02T10:39:31Z</time>
      </trkpt>
      <trkpt lat="46.63171" lon="11.17907">
        <ele>281.8</ele>
        <time>2012-08-02T10:39:43Z</time>
      </trkpt>
      <trkpt lat="46.63183" lon="11.17899">
        <ele>281.32</ele>
        <time>2012-08-02T10:39:54Z</time>
      </trkpt>
      <trkpt lat="46.63199" lon="11.17895">
        <ele>281.32</ele>
        <time>2012-08-02T10:39:56Z</time>
      </trkpt>
      <trkpt lat="46.63208" lon="11.17892">
        <ele>281.32</ele>
        <time>2012-08-02T10:39:57Z</time>
      </trkpt>
      <trkpt lat="46.63217" lon="11.17887">
        <ele>281.8</ele>
        <time>2012-08-02T10:39:58Z</time>
      </trkpt>
      <trkpt lat="46.63321" lon="11.17818">
        <ele>283.25</ele>
        <time>2012-08-02T10:40:07Z</time>
      </trkpt>
      <trkpt lat="46.63348" lon="11.17804">
        <ele>282.77</ele>
        <time>2012-08-02T10:40:10Z</time>
      </trkpt>
      <trkpt lat="46.63365" lon="11.17797">
        <ele>283.25</ele>
        <time>2012-08-02T10:40:12Z</time>
      </trkpt>
      <trkpt lat="46.63373" lon="11.17789">
        <ele>283.73</ele>
        <time>2012-08-02T10:40:13Z</time>
      </trkpt>
      <trkpt lat="46.63383" lon="11.17779">
        <ele>284.21</ele>
        <time>2012-08-02T10:40:14Z</time>
      </trkpt>
      <trkpt lat="46.63393" lon="11.1777">
        <ele>284.21</ele>
        <time>2012-08-02T10:40:15Z</time>
      </trkpt>
      <trkpt lat="46.63405" lon="11.17761">
        <ele>284.69</ele>
        <time>2012-08-02T10:40:16Z</time>
      </trkpt>
      <trkpt lat="46.63416" lon="11.17754">
        <ele>284.69</ele>
        <time>2012-08-02T10:40:17Z</time>
      </trkpt>
      <trkpt lat="46.63544" lon="11.1767">
        <ele>288.05</ele>
        <time>2012-08-02T10:40:28Z</time>
      </trkpt>
      <trkpt lat="46.63626" lon="11.17625">
        <ele>287.57</ele>
        <time>2012-08-02T10:40:36Z</time>
      </trkpt>
      <trkpt lat="46.63687" lon="11.17601">
        <ele>286.61</ele>
        <time>2012-08-02T10:40:44Z</time>
      </trkpt>
      <trkpt lat="46.63796" lon="11.17566">
        <ele>286.13</ele>
        <time>2012-08-02T10:40:55Z</time>
      </trkpt>
      <trkpt lat="46.63808" lon="11.17566">
        <ele>286.13</ele>
        <time>2012-08-02T10:40:56Z</time>
      </trkpt>
      <trkpt lat="46.63821" lon="11.17567">
        <ele>286.13</ele>
        <time>2012-08-02T10:40:57Z</time>
      </trkpt>
      <trkpt lat="46.63834" lon="11.1757">
        <ele>286.13</ele>
        <time>2012-08-02T10:40:58Z</time>
      </trkpt>
      <trkpt lat="46.63847" lon="11.17574">
        <ele>286.13</ele>
        <time>2012-08-02T10:40:59Z</time>
      </trkpt>
      <trkpt lat="46.6386" lon="11.17578">
        <ele>286.13</ele>
        <time>2012-08-02T10:41:00Z</time>
      </trkpt>
      <trkpt lat="46.63923" lon="11.17613">
        <ele>286.61</ele>
        <time>2012-08-02T10:41:05Z</time>
      </trkpt>
      <trkpt lat="46.6407" lon="11.17698">
        <ele>286.61</ele>
        <time>2012-08-02T10:41:17Z</time>
      </trkpt>
      <trkpt lat="46.6423" lon="11.17754">
        <ele>286.13</ele>
        <time>2012-08-02T10:41:29Z</time>
      </trkpt>
      <trkpt lat="46.64404" lon="11.17744">
        <ele>287.09</ele>
        <time>2012-08-02T10:41:42Z</time>
      </trkpt>
      <trkpt lat="46.64547" lon="11.17736">
        <ele>288.53</ele>
        <time>2012-08-02T10:41:54Z</time>
      </trkpt>
      <trkpt lat="46.64666" lon="11.17729">
        <ele>290.46</ele>
        <time>2012-08-02T10:42:06Z</time>
      </trkpt>
      <trkpt lat="46.64749" lon="11.17725">
        <ele>293.34</ele>
        <time>2012-08-02T10:42:15Z</time>
      </trkpt>
      <trkpt lat="46.64823" lon="11.17727">
        <ele>296.22</ele>
        <time>2012-08-02T10:42:23Z</time>
      </trkpt>
      <trkpt lat="46.64829" lon="11.1773">
        <ele>296.22</ele>
        <time>2012-08-02T10:42:24Z</time>
      </trkpt>
      <trkpt lat="46.64835" lon="11.17736">
        <ele>296.7</ele>
        <time>2012-08-02T10:42:25Z</time>
      </trkpt>
      <trkpt lat="46.64841" lon="11.17741">
        <ele>296.22</ele>
        <time>2012-08-02T10:42:26Z</time>
      </trkpt>
      <trkpt lat="46.64847" lon="11.17744">
        <ele>296.22</ele>
        <time>2012-08-02T10:42:27Z</time>
      </trkpt>
      <trkpt lat="46.64853" lon="11.17743">
        <ele>296.22</ele>
        <time>2012-08-02T10:42:28Z</time>
      </trkpt>
      <trkpt lat="46.64859" lon="11.17738">
        <ele>296.7</ele>
        <time>2012-08-02T10:42:29Z</time>
      </trkpt>
      <trkpt lat="46.64865" lon="11.1773">
        <ele>297.18</ele>
        <time>2012-08-02T10:42:30Z</time>
      </trkpt>
      <trkpt lat="46.64872" lon="11.17721">
        <ele>297.18</ele>
        <time>2012-08-02T10:42:31Z</time>
      </trkpt>
      <trkpt lat="46.6488" lon="11.17713">
        <ele>297.18</ele>
        <time>2012-08-02T10:42:32Z</time>
      </trkpt>
      <trkpt lat="46.6489" lon="11.17706">
        <ele>297.18</ele>
        <time>2012-08-02T10:42:33Z</time>
      </trkpt>
      <trkpt lat="46.649" lon="11.177">
        <ele>296.7</ele>
        <time>2012-08-02T10:42:34Z</time>
      </trkpt>
      <trkpt lat="46.64997" lon="11.17629">
        <ele>296.7</ele>
        <time>2012-08-02T10:42:42Z</time>
      </trkpt>
      <trkpt lat="46.65091" lon="11.17533">
        <ele>296.7</ele>
        <time>2012-08-02T10:42:50Z</time>
      </trkpt>
      <trkpt lat="46.65104" lon="11.17526">
        <ele>297.18</ele>
        <time>2012-08-02T10:42:51Z</time>
      </trkpt>
      <trkpt lat="46.65118" lon="11.17522">
        <ele>297.18</ele>
        <time>2012-08-02T10:42:52Z</time>
      </trkpt>
      <trkpt lat="46.65133" lon="11.1752">
        <ele>297.67</ele>
        <time>2012-08-02T10:42:53Z</time>
      </trkpt>
      <trkpt lat="46.65147" lon="11.17518">
        <ele>297.18</ele>
        <time>2012-08-02T10:42:54Z</time>
      </trkpt>
      <trkpt lat="46.65265" lon="11.17506">
        <ele>299.11</ele>
        <time>2012-08-02T10:43:03Z</time>
      </trkpt>
      <trkpt lat="46.65276" lon="11.175">
        <ele>299.11</ele>
        <time>2012-08-02T10:43:04Z</time>
      </trkpt>
      <trkpt lat="46.65286" lon="11.17489">
        <ele>299.59</ele>
        <time>2012-08-02T10:43:05Z</time>
      </trkpt>
      <trkpt lat="46.65295" lon="11.17476">
        <ele>300.07</ele>
        <time>2012-08-02T10:43:06Z</time>
      </trkpt>
      <trkpt lat="46.65303" lon="11.17462">
        <ele>300.55</ele>
        <time>2012-08-02T10:43:07Z</time>
      </trkpt>
      <trkpt lat="46.65328" lon="11.17412">
        <ele>301.51</ele>
        <time>2012-08-02T10:43:10Z</time>
      </trkpt>
      <trkpt lat="46.65334" lon="11.17394">
        <ele>301.03</ele>
        <time>2012-08-02T10:43:11Z</time>
      </trkpt>
      <trkpt lat="46.65417" lon="11.17154">
        <ele>299.11</ele>
        <time>2012-08-02T10:43:23Z</time>
      </trkpt>
      <trkpt lat="46.65507" lon="11.17033">
        <ele>300.55</ele>
        <time>2012-08-02T10:43:31Z</time>
      </trkpt>
      <trkpt lat="46.65587" lon="11.16922">
        <ele>298.63</ele>
        <time>2012-08-02T10:43:40Z</time>
      </trkpt>
      <trkpt lat="46.65604" lon="11.16898">
        <ele>299.11</ele>
        <time>2012-08-02T10:43:43Z</time>
      </trkpt>
      <trkpt lat="46.6561" lon="11.16891">
        <ele>299.59</ele>
        <time>2012-08-02T10:43:44Z</time>
      </trkpt>
      <trkpt lat="46.65626" lon="11.1687">
        <ele>299.59</ele>
        <time>2012-08-02T10:43:47Z</time>
      </trkpt>
      <trkpt lat="46.65632" lon="11.16862">
        <ele>299.11</ele>
        <time>2012-08-02T10:43:48Z</time>
      </trkpt>
      <trkpt lat="46.65664" lon="11.16819">
        <ele>299.11</ele>
        <time>2012-08-02T10:43:55Z</time>
      </trkpt>
      <trkpt lat="46.65669" lon="11.16814">
        <ele>299.11</ele>
        <time>2012-08-02T10:44:04Z</time>
      </trkpt>
      <trkpt lat="46.65672" lon="11.16813">
        <ele>299.11</ele>
        <time>2012-08-02T10:44:32Z</time>
      </trkpt>
      <trkpt lat="46.65709" lon="11.1677">
        <ele>301.99</ele>
        <time>2012-08-02T10:44:38Z</time>
      </trkpt>
      <trkpt lat="46.65726" lon="11.1675">
        <ele>301.99</ele>
        <time>2012-08-02T10:44:40Z</time>
      </trkpt>
      <trkpt lat="46.65819" lon="11.16643">
        <ele>304.88</ele>
        <time>2012-08-02T10:44:50Z</time>
      </trkpt>
      <trkpt lat="46.65854" lon="11.16619">
        <ele>306.32</ele>
        <time>2012-08-02T10:44:53Z</time>
      </trkpt>
      <trkpt lat="46.65945" lon="11.16549">
        <ele>306.8</ele>
        <time>2012-08-02T10:45:02Z</time>
      </trkpt>
      <trkpt lat="46.65953" lon="11.16538">
        <ele>306.8</ele>
        <time>2012-08-02T10:45:03Z</time>
      </trkpt>
      <trkpt lat="46.65959" lon="11.16524">
        <ele>307.28</ele>
        <time>2012-08-02T10:45:04Z</time>
      </trkpt>
      <trkpt lat="46.65991" lon="11.16426">
        <ele>308.72</ele>
        <time>2012-08-02T10:45:10Z</time>
      </trkpt>
      <trkpt lat="46.66062" lon="11.16277">
        <ele>309.68</ele>
        <time>2012-08-02T10:45:20Z</time>
      </trkpt>
      <trkpt lat="46.66078" lon="11.16253">
        <ele>309.2</ele>
        <time>2012-08-02T10:45:22Z</time>
      </trkpt>
      <trkpt lat="46.66086" lon="11.16243">
        <ele>309.2</ele>
        <time>2012-08-02T10:45:23Z</time>
      </trkpt>
      <trkpt lat="46.66096" lon="11.16235">
        <ele>309.2</ele>
        <time>2012-08-02T10:45:24Z</time>
      </trkpt>
      <trkpt lat="46.66147" lon="11.1621">
        <ele>309.68</ele>
        <time>2012-08-02T10:45:29Z</time>
      </trkpt>
      <trkpt lat="46.66155" lon="11.16205">
        <ele>310.16</ele>
        <time>2012-08-02T10:45:30Z</time>
      </trkpt>
      <trkpt lat="46.66172" lon="11.16195">
        <ele>309.2</ele>
        <time>2012-08-02T10:45:32Z</time>
      </trkpt>
      <trkpt lat="46.66179" lon="11.16187">
        <ele>309.2</ele>
        <time>2012-08-02T10:45:33Z</time>
      </trkpt>
      <trkpt lat="46.66184" lon="11.16177">
        <ele>309.2</ele>
        <time>2012-08-02T10:45:34Z</time>
      </trkpt>
      <trkpt lat="46.66186" lon="11.16165">
        <ele>308.72</ele>
        <time>2012-08-02T10:45:35Z</time>
      </trkpt>
      <trkpt lat="46.66186" lon="11.16152">
        <ele>308.72</ele>
        <time>2012-08-02T10:45:36Z</time>
      </trkpt>
      <trkpt lat="46.66185" lon="11.16139">
        <ele>308.72</ele>
        <time>2012-08-02T10:45:37Z</time>
      </trkpt>
      <trkpt lat="46.66184" lon="11.16125">
        <ele>308.72</ele>
        <time>2012-08-02T10:45:38Z</time>
      </trkpt>
      <trkpt lat="46.6618" lon="11.16072">
        <ele>308.24</ele>
        <time>2012-08-02T10:45:42Z</time>
      </trkpt>
      <trkpt lat="46.66181" lon="11.16064">
        <ele>307.28</ele>
        <time>2012-08-02T10:45:43Z</time>
      </trkpt>
      <trkpt lat="46.6619" lon="11.16041">
        <ele>306.32</ele>
        <time>2012-08-02T10:45:51Z</time>
      </trkpt>
      <trkpt lat="46.66193" lon="11.16038">
        <ele>305.84</ele>
        <time>2012-08-02T10:45:52Z</time>
      </trkpt>
      <trkpt lat="46.66196" lon="11.16036">
        <ele>305.84</ele>
        <time>2012-08-02T10:45:53Z</time>
      </trkpt>
      <trkpt lat="46.66236" lon="11.15994">
        <ele>304.88</ele>
        <time>2012-08-02T10:46:04Z</time>
      </trkpt>
      <trkpt lat="46.66256" lon="11.15979">
        <ele>305.36</ele>
        <time>2012-08-02T10:46:07Z</time>
      </trkpt>
      <trkpt lat="46.66271" lon="11.1597">
        <ele>305.84</ele>
        <time>2012-08-02T10:46:09Z</time>
      </trkpt>
      <trkpt lat="46.6635" lon="11.15923">
        <ele>306.8</ele>
        <time>2012-08-02T10:46:19Z</time>
      </trkpt>
      <trkpt lat="46.66398" lon="11.15916">
        <ele>308.24</ele>
        <time>2012-08-02T10:46:27Z</time>
      </trkpt>
      <trkpt lat="46.66455" lon="11.15901">
        <ele>309.2</ele>
        <time>2012-08-02T10:46:36Z</time>
      </trkpt>
      <trkpt lat="46.66544" lon="11.15883">
        <ele>309.2</ele>
        <time>2012-08-02T10:46:46Z</time>
      </trkpt>
      <trkpt lat="46.66611" lon="11.15859">
        <ele>310.64</ele>
        <time>2012-08-02T10:46:53Z</time>
      </trkpt>
      <trkpt lat="46.66641" lon="11.15848">
        <ele>310.16</ele>
        <time>2012-08-02T10:46:57Z</time>
      </trkpt>
      <trkpt lat="46.66646" lon="11.1585">
        <ele>311.12</ele>
        <time>2012-08-02T10:46:58Z</time>
      </trkpt>
      <trkpt lat="46.66652" lon="11.15852">
        <ele>311.12</ele>
        <time>2012-08-02T10:46:59Z</time>
      </trkpt>
      <trkpt lat="46.66657" lon="11.15851">
        <ele>311.12</ele>
        <time>2012-08-02T10:47:00Z</time>
      </trkpt>
      <trkpt lat="46.66661" lon="11.15848">
        <ele>311.12</ele>
        <time>2012-08-02T10:47:01Z</time>
      </trkpt>
      <trkpt lat="46.66663" lon="11.15842">
        <ele>310.64</ele>
        <time>2012-08-02T10:47:02Z</time>
      </trkpt>
      <trkpt lat="46.66664" lon="11.15836">
        <ele>310.64</ele>
        <time>2012-08-02T10:47:03Z</time>
      </trkpt>
      <trkpt lat="46.66665" lon="11.15829">
        <ele>311.12</ele>
        <time>2012-08-02T10:47:04Z</time>
      </trkpt>
      <trkpt lat="46.66666" lon="11.1582">
        <ele>311.12</ele>
        <time>2012-08-02T10:47:05Z</time>
      </trkpt>
      <trkpt lat="46.66667" lon="11.15808">
        <ele>311.12</ele>
        <time>2012-08-02T10:47:06Z</time>
      </trkpt>
      <trkpt lat="46.66682" lon="11.15679">
        <ele>311.6</ele>
        <time>2012-08-02T10:47:15Z</time>
      </trkpt>
      <trkpt lat="46.66684" lon="11.15668">
        <ele>311.6</ele>
        <time>2012-08-02T10:47:16Z</time>
      </trkpt>
      <trkpt lat="46.66687" lon="11.15657">
        <ele>312.09</ele>
        <time>2012-08-02T10:47:17Z</time>
      </trkpt>
      <trkpt lat="46.66689" lon="11.15646">
        <ele>312.57</ele>
        <time>2012-08-02T10:47:18Z</time>
      </trkpt>
      <trkpt lat="46.6669" lon="11.15633">
        <ele>313.05</ele>
        <time>2012-08-02T10:47:19Z</time>
      </trkpt>
      <trkpt lat="46.66692" lon="11.15619">
        <ele>312.57</ele>
        <time>2012-08-02T10:47:20Z</time>
      </trkpt>
      <trkpt lat="46.66702" lon="11.15561">
        <ele>312.57</ele>
        <time>2012-08-02T10:47:24Z</time>
      </trkpt>
      <trkpt lat="46.66758" lon="11.15395">
        <ele>313.53</ele>
        <time>2012-08-02T10:47:35Z</time>
      </trkpt>
      <trkpt lat="46.66766" lon="11.15382">
        <ele>313.05</ele>
        <time>2012-08-02T10:47:36Z</time>
      </trkpt>
      <trkpt lat="46.66775" lon="11.15372">
        <ele>313.05</ele>
        <time>2012-08-02T10:47:37Z</time>
      </trkpt>
      <trkpt lat="46.66785" lon="11.15366">
        <ele>312.57</ele>
        <time>2012-08-02T10:47:38Z</time>
      </trkpt>
      <trkpt lat="46.66794" lon="11.15361">
        <ele>312.57</ele>
        <time>2012-08-02T10:47:39Z</time>
      </trkpt>
      <trkpt lat="46.66831" lon="11.15337">
        <ele>313.53</ele>
        <time>2012-08-02T10:47:46Z</time>
      </trkpt>
      <trkpt lat="46.66837" lon="11.15335">
        <ele>314.01</ele>
        <time>2012-08-02T10:47:53Z</time>
      </trkpt>
      <trkpt lat="46.66855" lon="11.15325">
        <ele>315.93</ele>
        <time>2012-08-02T10:48:08Z</time>
      </trkpt>
      <trkpt lat="46.66862" lon="11.15321">
        <ele>315.93</ele>
        <time>2012-08-02T10:48:09Z</time>
      </trkpt>
      <trkpt lat="46.66957" lon="11.15289">
        <ele>313.53</ele>
        <time>2012-08-02T10:48:19Z</time>
      </trkpt>
      <trkpt lat="46.67081" lon="11.1526">
        <ele>311.6</ele>
        <time>2012-08-02T10:48:31Z</time>
      </trkpt>
      <trkpt lat="46.67101" lon="11.15256">
        <ele>311.12</ele>
        <time>2012-08-02T10:48:34Z</time>
      </trkpt>
      <trkpt lat="46.67105" lon="11.15255">
        <ele>310.64</ele>
        <time>2012-08-02T10:48:35Z</time>
      </trkpt>
      <trkpt lat="46.67108" lon="11.15255">
        <ele>310.64</ele>
        <time>2012-08-02T10:48:36Z</time>
      </trkpt>
      <trkpt lat="46.67113" lon="11.15256">
        <ele>311.12</ele>
        <time>2012-08-02T10:48:37Z</time>
      </trkpt>
      <trkpt lat="46.6712" lon="11.15257">
        <ele>311.12</ele>
        <time>2012-08-02T10:48:38Z</time>
      </trkpt>
      <trkpt lat="46.67126" lon="11.15256">
        <ele>311.12</ele>
        <time>2012-08-02T10:48:39Z</time>
      </trkpt>
      <trkpt lat="46.67132" lon="11.15251">
        <ele>311.12</ele>
        <time>2012-08-02T10:48:40Z</time>
      </trkpt>
      <trkpt lat="46.67137" lon="11.15243">
        <ele>311.12</ele>
        <time>2012-08-02T10:48:41Z</time>
      </trkpt>
      <trkpt lat="46.67142" lon="11.15234">
        <ele>311.6</ele>
        <time>2012-08-02T10:48:42Z</time>
      </trkpt>
      <trkpt lat="46.67148" lon="11.15225">
        <ele>311.12</ele>
        <time>2012-08-02T10:48:43Z</time>
      </trkpt>
      <trkpt lat="46.67153" lon="11.15218">
        <ele>311.12</ele>
        <time>2012-08-02T10:48:44Z</time>
      </trkpt>
      <trkpt lat="46.67158" lon="11.15212">
        <ele>311.12</ele>
        <time>2012-08-02T10:48:45Z</time>
      </trkpt>
      <trkpt lat="46.67168" lon="11.15199">
        <ele>310.64</ele>
        <time>2012-08-02T10:48:48Z</time>
      </trkpt>
      <trkpt lat="46.6722" lon="11.15136">
        <ele>311.12</ele>
        <time>2012-08-02T10:48:56Z</time>
      </trkpt>
      <trkpt lat="46.67317" lon="11.15015">
        <ele>310.64</ele>
        <time>2012-08-02T10:49:08Z</time>
      </trkpt>
      <trkpt lat="46.67333" lon="11.14998">
        <ele>309.68</ele>
        <time>2012-08-02T10:49:11Z</time>
      </trkpt>
      <trkpt lat="46.67338" lon="11.14998">
        <ele>309.68</ele>
        <time>2012-08-02T10:49:12Z</time>
      </trkpt>
      <trkpt lat="46.67343" lon="11.15001">
        <ele>309.68</ele>
        <time>2012-08-02T10:49:13Z</time>
      </trkpt>
      <trkpt lat="46.67348" lon="11.15006">
        <ele>309.68</ele>
        <time>2012-08-02T10:49:14Z</time>
      </trkpt>
      <trkpt lat="46.67353" lon="11.15013">
        <ele>310.16</ele>
        <time>2012-08-02T10:49:15Z</time>
      </trkpt>
      <trkpt lat="46.67381" lon="11.15061">
        <ele>309.68</ele>
        <time>2012-08-02T10:49:22Z</time>
      </trkpt>
      <trkpt lat="46.67385" lon="11.15065">
        <ele>309.68</ele>
        <time>2012-08-02T10:49:23Z</time>
      </trkpt>
      <trkpt lat="46.6739" lon="11.15067">
        <ele>309.2</ele>
        <time>2012-08-02T10:49:24Z</time>
      </trkpt>
      <trkpt lat="46.67394" lon="11.15068">
        <ele>309.2</ele>
        <time>2012-08-02T10:49:25Z</time>
      </trkpt>
      <trkpt lat="46.67398" lon="11.15066">
        <ele>309.2</ele>
        <time>2012-08-02T10:49:26Z</time>
      </trkpt>
      <trkpt lat="46.67402" lon="11.15062">
        <ele>309.68</ele>
        <time>2012-08-02T10:49:27Z</time>
      </trkpt>
      <trkpt lat="46.67406" lon="11.15056">
        <ele>309.68</ele>
        <time>2012-08-02T10:49:28Z</time>
      </trkpt>
      <trkpt lat="46.6741" lon="11.15049">
        <ele>310.16</ele>
        <time>2012-08-02T10:49:29Z</time>
      </trkpt>
      <trkpt lat="46.67414" lon="11.1504">
        <ele>309.2</ele>
        <time>2012-08-02T10:49:30Z</time>
      </trkpt>
      <trkpt lat="46.67427" lon="11.15013">
        <ele>309.68</ele>
        <time>2012-08-02T10:49:33Z</time>
      </trkpt>
      <trkpt lat="46.67431" lon="11.15006">
        <ele>309.68</ele>
        <time>2012-08-02T10:49:34Z</time>
      </trkpt>
      <trkpt lat="46.67457" lon="11.14959">
        <ele>309.2</ele>
        <time>2012-08-02T10:49:44Z</time>
      </trkpt>
      <trkpt lat="46.6748" lon="11.14916">
        <ele>309.68</ele>
        <time>2012-08-02T10:49:53Z</time>
      </trkpt>
      <trkpt lat="46.67482" lon="11.14914">
        <ele>309.2</ele>
        <time>2012-08-02T10:49:54Z</time>
      </trkpt>
      <trkpt lat="46.67484" lon="11.1491">
        <ele>309.68</ele>
        <time>2012-08-02T10:50:09Z</time>
      </trkpt>
      <trkpt lat="46.67486" lon="11.14908">
        <ele>310.16</ele>
        <time>2012-08-02T10:50:25Z</time>
      </trkpt>
      <trkpt lat="46.67486" lon="11.14903">
        <ele>309.68</ele>
        <time>2012-08-02T10:50:26Z</time>
      </trkpt>
      <trkpt lat="46.67485" lon="11.14897">
        <ele>310.16</ele>
        <time>2012-08-02T10:50:27Z</time>
      </trkpt>
      <trkpt lat="46.67481" lon="11.14891">
        <ele>310.16</ele>
        <time>2012-08-02T10:50:28Z</time>
      </trkpt>
      <trkpt lat="46.67477" lon="11.14885">
        <ele>310.64</ele>
        <time>2012-08-02T10:50:29Z</time>
      </trkpt>
      <trkpt lat="46.67472" lon="11.14879">
        <ele>310.16</ele>
        <time>2012-08-02T10:50:30Z</time>
      </trkpt>
      <trkpt lat="46.67468" lon="11.14872">
        <ele>310.16</ele>
        <time>2012-08-02T10:50:31Z</time>
      </trkpt>
      <trkpt lat="46.67454" lon="11.14841">
        <ele>310.16</ele>
        <time>2012-08-02T10:50:37Z</time>
      </trkpt>
      <trkpt lat="46.67452" lon="11.14829">
        <ele>311.12</ele>
        <time>2012-08-02T10:50:38Z</time>
      </trkpt>
      <trkpt lat="46.67451" lon="11.14815">
        <ele>311.6</ele>
        <time>2012-08-02T10:50:39Z</time>
      </trkpt>
      <trkpt lat="46.67452" lon="11.148">
        <ele>311.6</ele>
        <time>2012-08-02T10:50:40Z</time>
      </trkpt>
      <trkpt lat="46.67456" lon="11.14786">
        <ele>311.6</ele>
        <time>2012-08-02T10:50:41Z</time>
      </trkpt>
      <trkpt lat="46.67463" lon="11.14773">
        <ele>312.09</ele>
        <time>2012-08-02T10:50:42Z</time>
      </trkpt>
      <trkpt lat="46.67473" lon="11.14761">
        <ele>313.05</ele>
        <time>2012-08-02T10:50:43Z</time>
      </trkpt>
      <trkpt lat="46.67485" lon="11.14747">
        <ele>314.01</ele>
        <time>2012-08-02T10:50:44Z</time>
      </trkpt>
      <trkpt lat="46.67497" lon="11.14732">
        <ele>314.01</ele>
        <time>2012-08-02T10:50:45Z</time>
      </trkpt>
      <trkpt lat="46.67517" lon="11.14702">
        <ele>313.05</ele>
        <time>2012-08-02T10:50:47Z</time>
      </trkpt>
      <trkpt lat="46.67525" lon="11.14684">
        <ele>313.53</ele>
        <time>2012-08-02T10:50:48Z</time>
      </trkpt>
      <trkpt lat="46.67533" lon="11.14663">
        <ele>314.01</ele>
        <time>2012-08-02T10:50:49Z</time>
      </trkpt>
      <trkpt lat="46.67541" lon="11.14643">
        <ele>314.01</ele>
        <time>2012-08-02T10:50:50Z</time>
      </trkpt>
      <trkpt lat="46.6755" lon="11.14624">
        <ele>313.53</ele>
        <time>2012-08-02T10:50:51Z</time>
      </trkpt>
      <trkpt lat="46.6756" lon="11.14609">
        <ele>313.53</ele>
        <time>2012-08-02T10:50:52Z</time>
      </trkpt>
      <trkpt lat="46.67572" lon="11.14596">
        <ele>313.53</ele>
        <time>2012-08-02T10:50:53Z</time>
      </trkpt>
      <trkpt lat="46.67585" lon="11.14585">
        <ele>314.49</ele>
        <time>2012-08-02T10:50:54Z</time>
      </trkpt>
      <trkpt lat="46.67599" lon="11.14572">
        <ele>314.97</ele>
        <time>2012-08-02T10:50:55Z</time>
      </trkpt>
      <trkpt lat="46.67612" lon="11.14556">
        <ele>314.97</ele>
        <time>2012-08-02T10:50:56Z</time>
      </trkpt>
      <trkpt lat="46.67623" lon="11.1454">
        <ele>314.97</ele>
        <time>2012-08-02T10:50:57Z</time>
      </trkpt>
      <trkpt lat="46.67645" lon="11.14513">
        <ele>314.49</ele>
        <time>2012-08-02T10:50:59Z</time>
      </trkpt>
      <trkpt lat="46.67655" lon="11.14504">
        <ele>314.01</ele>
        <time>2012-08-02T10:51:00Z</time>
      </trkpt>
      <trkpt lat="46.67673" lon="11.14489">
        <ele>313.05</ele>
        <time>2012-08-02T10:51:02Z</time>
      </trkpt>
      <trkpt lat="46.67681" lon="11.14478">
        <ele>313.05</ele>
        <time>2012-08-02T10:51:03Z</time>
      </trkpt>
      <trkpt lat="46.67687" lon="11.14464">
        <ele>314.97</ele>
        <time>2012-08-02T10:51:04Z</time>
      </trkpt>
      <trkpt lat="46.67694" lon="11.14448">
        <ele>315.45</ele>
        <time>2012-08-02T10:51:05Z</time>
      </trkpt>
      <trkpt lat="46.67699" lon="11.14434">
        <ele>314.97</ele>
        <time>2012-08-02T10:51:06Z</time>
      </trkpt>
      <trkpt lat="46.67705" lon="11.14421">
        <ele>314.49</ele>
        <time>2012-08-02T10:51:07Z</time>
      </trkpt>
      <trkpt lat="46.67711" lon="11.14413">
        <ele>314.97</ele>
        <time>2012-08-02T10:51:08Z</time>
      </trkpt>
      <trkpt lat="46.67718" lon="11.14407">
        <ele>314.49</ele>
        <time>2012-08-02T10:51:09Z</time>
      </trkpt>
      <trkpt lat="46.67724" lon="11.14406">
        <ele>315.45</ele>
        <time>2012-08-02T10:51:10Z</time>
      </trkpt>
      <trkpt lat="46.67731" lon="11.14407">
        <ele>316.41</ele>
        <time>2012-08-02T10:51:11Z</time>
      </trkpt>
      <trkpt lat="46.67737" lon="11.1441">
        <ele>315.93</ele>
        <time>2012-08-02T10:51:12Z</time>
      </trkpt>
      <trkpt lat="46.67745" lon="11.14416">
        <ele>315.45</ele>
        <time>2012-08-02T10:51:13Z</time>
      </trkpt>
      <trkpt lat="46.67769" lon="11.14439">
        <ele>314.49</ele>
        <time>2012-08-02T10:51:20Z</time>
      </trkpt>
      <trkpt lat="46.67774" lon="11.14443">
        <ele>314.97</ele>
        <time>2012-08-02T10:51:23Z</time>
      </trkpt>
      <trkpt lat="46.67778" lon="11.14446">
        <ele>314.97</ele>
        <time>2012-08-02T10:51:24Z</time>
      </trkpt>
      <trkpt lat="46.67788" lon="11.14451">
        <ele>314.97</ele>
        <time>2012-08-02T10:51:26Z</time>
      </trkpt>
      <trkpt lat="46.67793" lon="11.14451">
        <ele>315.45</ele>
        <time>2012-08-02T10:51:27Z</time>
      </trkpt>
      <trkpt lat="46.67798" lon="11.14449">
        <ele>315.45</ele>
        <time>2012-08-02T10:51:28Z</time>
      </trkpt>
      <trkpt lat="46.67802" lon="11.14445">
        <ele>315.45</ele>
        <time>2012-08-02T10:51:29Z</time>
      </trkpt>
      <trkpt lat="46.67805" lon="11.14438">
        <ele>315.45</ele>
        <time>2012-08-02T10:51:30Z</time>
      </trkpt>
      <trkpt lat="46.67808" lon="11.14431">
        <ele>315.45</ele>
        <time>2012-08-02T10:51:31Z</time>
      </trkpt>
      <trkpt lat="46.6781" lon="11.14424">
        <ele>315.45</ele>
        <time>2012-08-02T10:51:32Z</time>
      </trkpt>
      <trkpt lat="46.67811" lon="11.14417">
        <ele>315.45</ele>
        <time>2012-08-02T10:51:33Z</time>
      </trkpt>
      <trkpt lat="46.67831" lon="11.1431">
        <ele>317.37</ele>
        <time>2012-08-02T10:51:43Z</time>
      </trkpt>
      <trkpt lat="46.67869" lon="11.14094">
        <ele>319.78</ele>
        <time>2012-08-02T10:51:57Z</time>
      </trkpt>
      <trkpt lat="46.67895" lon="11.13936">
        <ele>323.14</ele>
        <time>2012-08-02T10:52:06Z</time>
      </trkpt>
      <trkpt lat="46.67935" lon="11.13706">
        <ele>326.02</ele>
        <time>2012-08-02T10:52:18Z</time>
      </trkpt>
      <trkpt lat="46.67966" lon="11.13513">
        <ele>328.43</ele>
        <time>2012-08-02T10:52:28Z</time>
      </trkpt>
      <trkpt lat="46.67968" lon="11.13478">
        <ele>329.39</ele>
        <time>2012-08-02T10:52:30Z</time>
      </trkpt>
      <trkpt lat="46.67959" lon="11.13289">
        <ele>332.27</ele>
        <time>2012-08-02T10:52:41Z</time>
      </trkpt>
      <trkpt lat="46.67953" lon="11.13164">
        <ele>334.2</ele>
        <time>2012-08-02T10:52:48Z</time>
      </trkpt>
      <trkpt lat="46.67943" lon="11.1301">
        <ele>336.6</ele>
        <time>2012-08-02T10:52:56Z</time>
      </trkpt>
      <trkpt lat="46.67933" lon="11.12885">
        <ele>337.08</ele>
        <time>2012-08-02T10:53:04Z</time>
      </trkpt>
      <trkpt lat="46.67932" lon="11.12879">
        <ele>337.08</ele>
        <time>2012-08-02T10:53:05Z</time>
      </trkpt>
      <trkpt lat="46.6793" lon="11.12854">
        <ele>337.56</ele>
        <time>2012-08-02T10:53:09Z</time>
      </trkpt>
      <trkpt lat="46.67931" lon="11.12851">
        <ele>337.56</ele>
        <time>2012-08-02T10:53:10Z</time>
      </trkpt>
      <trkpt lat="46.67932" lon="11.12848">
        <ele>337.08</ele>
        <time>2012-08-02T10:53:21Z</time>
      </trkpt>
      <trkpt lat="46.67932" lon="11.12848">
        <ele>337.08</ele>
        <time>2012-08-02T10:53:28Z</time>
      </trkpt>
      <trkpt lat="46.67932" lon="11.12787">
        <ele>339.96</ele>
        <time>2012-08-02T10:53:34Z</time>
      </trkpt>
      <trkpt lat="46.6793" lon="11.12754">
        <ele>340.44</ele>
        <time>2012-08-02T10:53:36Z</time>
      </trkpt>
      <trkpt lat="46.67921" lon="11.12626">
        <ele>343.81</ele>
        <time>2012-08-02T10:53:43Z</time>
      </trkpt>
      <trkpt lat="46.67914" lon="11.12507">
        <ele>346.21</ele>
        <time>2012-08-02T10:53:50Z</time>
      </trkpt>
      <trkpt lat="46.67908" lon="11.12431">
        <ele>349.1</ele>
        <time>2012-08-02T10:53:54Z</time>
      </trkpt>
      <trkpt lat="46.67903" lon="11.12356">
        <ele>352.46</ele>
        <time>2012-08-02T10:53:58Z</time>
      </trkpt>
      <trkpt lat="46.67901" lon="11.12337">
        <ele>352.46</ele>
        <time>2012-08-02T10:53:59Z</time>
      </trkpt>
      <trkpt lat="46.67899" lon="11.1232">
        <ele>352.94</ele>
        <time>2012-08-02T10:54:00Z</time>
      </trkpt>
      <trkpt lat="46.67894" lon="11.12303">
        <ele>352.94</ele>
        <time>2012-08-02T10:54:01Z</time>
      </trkpt>
      <trkpt lat="46.67888" lon="11.1229">
        <ele>353.42</ele>
        <time>2012-08-02T10:54:02Z</time>
      </trkpt>
      <trkpt lat="46.67881" lon="11.1228">
        <ele>353.9</ele>
        <time>2012-08-02T10:54:03Z</time>
      </trkpt>
      <trkpt lat="46.67873" lon="11.12271">
        <ele>354.38</ele>
        <time>2012-08-02T10:54:04Z</time>
      </trkpt>
      <trkpt lat="46.67865" lon="11.12264">
        <ele>354.38</ele>
        <time>2012-08-02T10:54:05Z</time>
      </trkpt>
      <trkpt lat="46.6784" lon="11.12239">
        <ele>353.9</ele>
        <time>2012-08-02T10:54:11Z</time>
      </trkpt>
      <trkpt lat="46.67837" lon="11.12232">
        <ele>353.9</ele>
        <time>2012-08-02T10:54:14Z</time>
      </trkpt>
      <trkpt lat="46.67836" lon="11.12222">
        <ele>353.9</ele>
        <time>2012-08-02T10:54:15Z</time>
      </trkpt>
      <trkpt lat="46.67836" lon="11.12192">
        <ele>355.83</ele>
        <time>2012-08-02T10:54:17Z</time>
      </trkpt>
      <trkpt lat="46.67825" lon="11.12058">
        <ele>359.19</ele>
        <time>2012-08-02T10:54:24Z</time>
      </trkpt>
      <trkpt lat="46.67816" lon="11.11974">
        <ele>363.04</ele>
        <time>2012-08-02T10:54:29Z</time>
      </trkpt>
      <trkpt lat="46.67812" lon="11.11958">
        <ele>363.04</ele>
        <time>2012-08-02T10:54:30Z</time>
      </trkpt>
      <trkpt lat="46.67803" lon="11.11926">
        <ele>364.48</ele>
        <time>2012-08-02T10:54:32Z</time>
      </trkpt>
      <trkpt lat="46.67797" lon="11.11911">
        <ele>364.96</ele>
        <time>2012-08-02T10:54:33Z</time>
      </trkpt>
      <trkpt lat="46.6779" lon="11.11896">
        <ele>365.92</ele>
        <time>2012-08-02T10:54:34Z</time>
      </trkpt>
      <trkpt lat="46.67783" lon="11.11881">
        <ele>366.88</ele>
        <time>2012-08-02T10:54:35Z</time>
      </trkpt>
      <trkpt lat="46.67775" lon="11.11868">
        <ele>367.36</ele>
        <time>2012-08-02T10:54:36Z</time>
      </trkpt>
      <trkpt lat="46.67734" lon="11.11795">
        <ele>371.69</ele>
        <time>2012-08-02T10:54:41Z</time>
      </trkpt>
      <trkpt lat="46.67688" lon="11.11712">
        <ele>375.05</ele>
        <time>2012-08-02T10:54:47Z</time>
      </trkpt>
      <trkpt lat="46.67659" lon="11.1166">
        <ele>378.9</ele>
        <time>2012-08-02T10:54:51Z</time>
      </trkpt>
      <trkpt lat="46.67617" lon="11.11605">
        <ele>383.22</ele>
        <time>2012-08-02T10:54:55Z</time>
      </trkpt>
      <trkpt lat="46.67571" lon="11.11537">
        <ele>386.59</ele>
        <time>2012-08-02T10:55:00Z</time>
      </trkpt>
      <trkpt lat="46.67553" lon="11.11487">
        <ele>389.47</ele>
        <time>2012-08-02T10:55:03Z</time>
      </trkpt>
      <trkpt lat="46.67549" lon="11.1147">
        <ele>389.95</ele>
        <time>2012-08-02T10:55:04Z</time>
      </trkpt>
      <trkpt lat="46.67541" lon="11.11407">
        <ele>391.39</ele>
        <time>2012-08-02T10:55:08Z</time>
      </trkpt>
      <trkpt lat="46.67536" lon="11.11379">
        <ele>392.36</ele>
        <time>2012-08-02T10:55:10Z</time>
      </trkpt>
      <trkpt lat="46.67534" lon="11.11337">
        <ele>397.16</ele>
        <time>2012-08-02T10:55:13Z</time>
      </trkpt>
      <trkpt lat="46.67533" lon="11.11296">
        <ele>400.53</ele>
        <time>2012-08-02T10:55:16Z</time>
      </trkpt>
      <trkpt lat="46.67533" lon="11.11246">
        <ele>403.41</ele>
        <time>2012-08-02T10:55:20Z</time>
      </trkpt>
      <trkpt lat="46.67532" lon="11.11238">
        <ele>403.89</ele>
        <time>2012-08-02T10:55:21Z</time>
      </trkpt>
      <trkpt lat="46.6753" lon="11.11233">
        <ele>404.37</ele>
        <time>2012-08-02T10:55:22Z</time>
      </trkpt>
      <trkpt lat="46.67526" lon="11.11232">
        <ele>405.33</ele>
        <time>2012-08-02T10:55:24Z</time>
      </trkpt>
      <trkpt lat="46.67517" lon="11.11238">
        <ele>406.29</ele>
        <time>2012-08-02T10:55:27Z</time>
      </trkpt>
      <trkpt lat="46.67518" lon="11.11251">
        <ele>406.29</ele>
        <time>2012-08-02T10:55:28Z</time>
      </trkpt>
      <trkpt lat="46.67518" lon="11.11264">
        <ele>407.26</ele>
        <time>2012-08-02T10:55:29Z</time>
      </trkpt>
      <trkpt lat="46.67507" lon="11.11318">
        <ele>411.1</ele>
        <time>2012-08-02T10:55:34Z</time>
      </trkpt>
      <trkpt lat="46.67503" lon="11.11327">
        <ele>411.58</ele>
        <time>2012-08-02T10:55:35Z</time>
      </trkpt>
      <trkpt lat="46.675" lon="11.11336">
        <ele>412.06</ele>
        <time>2012-08-02T10:55:36Z</time>
      </trkpt>
      <trkpt lat="46.675" lon="11.11346">
        <ele>413.5</ele>
        <time>2012-08-02T10:55:37Z</time>
      </trkpt>
      <trkpt lat="46.67502" lon="11.11356">
        <ele>414.47</ele>
        <time>2012-08-02T10:55:38Z</time>
      </trkpt>
      <trkpt lat="46.67503" lon="11.11365">
        <ele>414.47</ele>
        <time>2012-08-02T10:55:39Z</time>
      </trkpt>
      <trkpt lat="46.67503" lon="11.11375">
        <ele>415.91</ele>
        <time>2012-08-02T10:55:40Z</time>
      </trkpt>
      <trkpt lat="46.675" lon="11.11384">
        <ele>416.39</ele>
        <time>2012-08-02T10:55:41Z</time>
      </trkpt>
      <trkpt lat="46.67497" lon="11.11394">
        <ele>416.87</ele>
        <time>2012-08-02T10:55:42Z</time>
      </trkpt>
      <trkpt lat="46.67495" lon="11.11403">
        <ele>418.31</ele>
        <time>2012-08-02T10:55:43Z</time>
      </trkpt>
      <trkpt lat="46.67495" lon="11.11412">
        <ele>418.79</ele>
        <time>2012-08-02T10:55:44Z</time>
      </trkpt>
      <trkpt lat="46.67497" lon="11.11422">
        <ele>419.75</ele>
        <time>2012-08-02T10:55:45Z</time>
      </trkpt>
      <trkpt lat="46.67498" lon="11.11431">
        <ele>420.23</ele>
        <time>2012-08-02T10:55:46Z</time>
      </trkpt>
      <trkpt lat="46.67498" lon="11.11439">
        <ele>421.19</ele>
        <time>2012-08-02T10:55:47Z</time>
      </trkpt>
      <trkpt lat="46.67497" lon="11.11448">
        <ele>422.16</ele>
        <time>2012-08-02T10:55:48Z</time>
      </trkpt>
      <trkpt lat="46.67495" lon="11.11457">
        <ele>423.6</ele>
        <time>2012-08-02T10:55:49Z</time>
      </trkpt>
      <trkpt lat="46.6749" lon="11.11494">
        <ele>426.96</ele>
        <time>2012-08-02T10:55:53Z</time>
      </trkpt>
      <trkpt lat="46.67484" lon="11.11545">
        <ele>429.37</ele>
        <time>2012-08-02T10:55:58Z</time>
      </trkpt>
      <trkpt lat="46.67483" lon="11.11582">
        <ele>433.21</ele>
        <time>2012-08-02T10:56:02Z</time>
      </trkpt>
      <trkpt lat="46.67483" lon="11.1162">
        <ele>436.58</ele>
        <time>2012-08-02T10:56:06Z</time>
      </trkpt>
      <trkpt lat="46.67484" lon="11.11668">
        <ele>439.46</ele>
        <time>2012-08-02T10:56:11Z</time>
      </trkpt>
      <trkpt lat="46.67483" lon="11.11691">
        <ele>440.9</ele>
        <time>2012-08-02T10:56:15Z</time>
      </trkpt>
      <trkpt lat="46.67483" lon="11.11693">
        <ele>441.38</ele>
        <time>2012-08-02T10:56:16Z</time>
      </trkpt>
      <trkpt lat="46.67483" lon="11.11693">
        <ele>440.9</ele>
        <time>2012-08-02T10:56:19Z</time>
      </trkpt>
      <trkpt lat="46.67484" lon="11.11688">
        <ele>440.9</ele>
        <time>2012-08-02T10:56:26Z</time>
      </trkpt>
      <trkpt lat="46.67485" lon="11.11686">
        <ele>440.9</ele>
        <time>2012-08-02T10:56:27Z</time>
      </trkpt>
      <trkpt lat="46.67488" lon="11.11677">
        <ele>440.42</ele>
        <time>2012-08-02T10:56:29Z</time>
      </trkpt>
      <trkpt lat="46.67489" lon="11.11669">
        <ele>439.94</ele>
        <time>2012-08-02T10:56:30Z</time>
      </trkpt>
      <trkpt lat="46.67492" lon="11.11653">
        <ele>438.98</ele>
        <time>2012-08-02T10:56:32Z</time>
      </trkpt>
      <trkpt lat="46.67492" lon="11.11643">
        <ele>438.5</ele>
        <time>2012-08-02T10:56:33Z</time>
      </trkpt>
      <trkpt lat="46.67492" lon="11.11599">
        <ele>434.65</ele>
        <time>2012-08-02T10:56:37Z</time>
      </trkpt>
      <trkpt lat="46.67492" lon="11.11575">
        <ele>432.73</ele>
        <time>2012-08-02T10:56:39Z</time>
      </trkpt>
      <trkpt lat="46.6749" lon="11.11538">
        <ele>430.33</ele>
        <time>2012-08-02T10:56:42Z</time>
      </trkpt>
      <trkpt lat="46.67492" lon="11.11514">
        <ele>427.92</ele>
        <time>2012-08-02T10:56:44Z</time>
      </trkpt>
      <trkpt lat="46.675" lon="11.11457">
        <ele>423.6</ele>
        <time>2012-08-02T10:56:49Z</time>
      </trkpt>
      <trkpt lat="46.67505" lon="11.11432">
        <ele>421.19</ele>
        <time>2012-08-02T10:56:52Z</time>
      </trkpt>
      <trkpt lat="46.67504" lon="11.11424">
        <ele>420.23</ele>
        <time>2012-08-02T10:56:53Z</time>
      </trkpt>
      <trkpt lat="46.67504" lon="11.11408">
        <ele>418.79</ele>
        <time>2012-08-02T10:56:55Z</time>
      </trkpt>
      <trkpt lat="46.67507" lon="11.11393">
        <ele>417.35</ele>
        <time>2012-08-02T10:56:57Z</time>
      </trkpt>
      <trkpt lat="46.67513" lon="11.11372">
        <ele>415.43</ele>
        <time>2012-08-02T10:57:00Z</time>
      </trkpt>
      <trkpt lat="46.67513" lon="11.11366">
        <ele>414.95</ele>
        <time>2012-08-02T10:57:01Z</time>
      </trkpt>
      <trkpt lat="46.67512" lon="11.11358">
        <ele>413.98</ele>
        <time>2012-08-02T10:57:02Z</time>
      </trkpt>
      <trkpt lat="46.67511" lon="11.1135">
        <ele>413.02</ele>
        <time>2012-08-02T10:57:03Z</time>
      </trkpt>
      <trkpt lat="46.67511" lon="11.11341">
        <ele>412.54</ele>
        <time>2012-08-02T10:57:04Z</time>
      </trkpt>
      <trkpt lat="46.67511" lon="11.11332">
        <ele>412.06</ele>
        <time>2012-08-02T10:57:05Z</time>
      </trkpt>
      <trkpt lat="46.67512" lon="11.11324">
        <ele>411.58</ele>
        <time>2012-08-02T10:57:06Z</time>
      </trkpt>
      <trkpt lat="46.67515" lon="11.11315">
        <ele>410.62</ele>
        <time>2012-08-02T10:57:07Z</time>
      </trkpt>
      <trkpt lat="46.67521" lon="11.11306">
        <ele>409.66</ele>
        <time>2012-08-02T10:57:08Z</time>
      </trkpt>
      <trkpt lat="46.67535" lon="11.11276">
        <ele>406.77</ele>
        <time>2012-08-02T10:57:12Z</time>
      </trkpt>
      <trkpt lat="46.67535" lon="11.11269">
        <ele>406.29</ele>
        <time>2012-08-02T10:57:13Z</time>
      </trkpt>
      <trkpt lat="46.67533" lon="11.11262">
        <ele>405.33</ele>
        <time>2012-08-02T10:57:14Z</time>
      </trkpt>
      <trkpt lat="46.67532" lon="11.11256">
        <ele>405.33</ele>
        <time>2012-08-02T10:57:15Z</time>
      </trkpt>
      <trkpt lat="46.67532" lon="11.1125">
        <ele>405.33</ele>
        <time>2012-08-02T10:57:16Z</time>
      </trkpt>
      <trkpt lat="46.67532" lon="11.11245">
        <ele>404.85</ele>
        <time>2012-08-02T10:57:17Z</time>
      </trkpt>
      <trkpt lat="46.67532" lon="11.11242">
        <ele>404.37</ele>
        <time>2012-08-02T10:57:18Z</time>
      </trkpt>
      <trkpt lat="46.67532" lon="11.11241">
        <ele>404.37</ele>
        <time>2012-08-02T10:57:19Z</time>
      </trkpt>
      <trkpt lat="46.67532" lon="11.11243">
        <ele>404.37</ele>
        <time>2012-08-02T10:57:20Z</time>
      </trkpt>
      <trkpt lat="46.67531" lon="11.11253">
        <ele>403.89</ele>
        <time>2012-08-02T10:57:23Z</time>
      </trkpt>
      <trkpt lat="46.6753" lon="11.1126">
        <ele>403.41</ele>
        <time>2012-08-02T10:57:24Z</time>
      </trkpt>
      <trkpt lat="46.6753" lon="11.11268">
        <ele>402.45</ele>
        <time>2012-08-02T10:57:25Z</time>
      </trkpt>
      <trkpt lat="46.6753" lon="11.11294">
        <ele>400.53</ele>
        <time>2012-08-02T10:57:28Z</time>
      </trkpt>
      <trkpt lat="46.67531" lon="11.11346">
        <ele>396.68</ele>
        <time>2012-08-02T10:57:33Z</time>
      </trkpt>
      <trkpt lat="46.67533" lon="11.11373">
        <ele>393.32</ele>
        <time>2012-08-02T10:57:36Z</time>
      </trkpt>
      <trkpt lat="46.67534" lon="11.11383">
        <ele>391.39</ele>
        <time>2012-08-02T10:57:39Z</time>
      </trkpt>
      <trkpt lat="46.67538" lon="11.11385">
        <ele>391.39</ele>
        <time>2012-08-02T10:57:54Z</time>
      </trkpt>
      <trkpt lat="46.6754" lon="11.11384">
        <ele>390.91</ele>
        <time>2012-08-02T10:57:55Z</time>
      </trkpt>
      <trkpt lat="46.67542" lon="11.1138">
        <ele>390.91</ele>
        <time>2012-08-02T10:57:56Z</time>
      </trkpt>
      <trkpt lat="46.67543" lon="11.11373">
        <ele>391.87</ele>
        <time>2012-08-02T10:57:57Z</time>
      </trkpt>
      <trkpt lat="46.67544" lon="11.11364">
        <ele>392.36</ele>
        <time>2012-08-02T10:57:58Z</time>
      </trkpt>
      <trkpt lat="46.67544" lon="11.11353">
        <ele>392.84</ele>
        <time>2012-08-02T10:57:59Z</time>
      </trkpt>
      <trkpt lat="46.67546" lon="11.11308">
        <ele>395.72</ele>
        <time>2012-08-02T10:58:02Z</time>
      </trkpt>
      <trkpt lat="46.67549" lon="11.11239">
        <ele>399.08</ele>
        <time>2012-08-02T10:58:06Z</time>
      </trkpt>
      <trkpt lat="46.67559" lon="11.11162">
        <ele>401.49</ele>
        <time>2012-08-02T10:58:10Z</time>
      </trkpt>
      <trkpt lat="46.67571" lon="11.11081">
        <ele>405.33</ele>
        <time>2012-08-02T10:58:14Z</time>
      </trkpt>
      <trkpt lat="46.67577" lon="11.1104">
        <ele>407.26</ele>
        <time>2012-08-02T10:58:16Z</time>
      </trkpt>
      <trkpt lat="46.67585" lon="11.10979">
        <ele>410.14</ele>
        <time>2012-08-02T10:58:19Z</time>
      </trkpt>
      <trkpt lat="46.67586" lon="11.10918">
        <ele>413.02</ele>
        <time>2012-08-02T10:58:22Z</time>
      </trkpt>
      <trkpt lat="46.67583" lon="11.10899">
        <ele>414.47</ele>
        <time>2012-08-02T10:58:23Z</time>
      </trkpt>
      <trkpt lat="46.67574" lon="11.10842">
        <ele>417.35</ele>
        <time>2012-08-02T10:58:26Z</time>
      </trkpt>
      <trkpt lat="46.67574" lon="11.10802">
        <ele>418.31</ele>
        <time>2012-08-02T10:58:28Z</time>
      </trkpt>
      <trkpt lat="46.67581" lon="11.10708">
        <ele>421.68</ele>
        <time>2012-08-02T10:58:33Z</time>
      </trkpt>
      <trkpt lat="46.67584" lon="11.10672">
        <ele>423.12</ele>
        <time>2012-08-02T10:58:35Z</time>
      </trkpt>
      <trkpt lat="46.67589" lon="11.10622">
        <ele>426</ele>
        <time>2012-08-02T10:58:38Z</time>
      </trkpt>
      <trkpt lat="46.67593" lon="11.10586">
        <ele>430.81</ele>
        <time>2012-08-02T10:58:42Z</time>
      </trkpt>
      <trkpt lat="46.67593" lon="11.10585">
        <ele>430.33</ele>
        <time>2012-08-02T10:58:43Z</time>
      </trkpt>
      <trkpt lat="46.67593" lon="11.10583">
        <ele>434.65</ele>
        <time>2012-08-02T10:58:45Z</time>
      </trkpt>
      <trkpt lat="46.67594" lon="11.10582">
        <ele>432.73</ele>
        <time>2012-08-02T10:58:46Z</time>
      </trkpt>
      <trkpt lat="46.67594" lon="11.10579">
        <ele>436.1</ele>
        <time>2012-08-02T10:58:49Z</time>
      </trkpt>
      <trkpt lat="46.67594" lon="11.10574">
        <ele>439.46</ele>
        <time>2012-08-02T10:58:54Z</time>
      </trkpt>
      <trkpt lat="46.67595" lon="11.1057">
        <ele>442.82</ele>
        <time>2012-08-02T10:58:58Z</time>
      </trkpt>
      <trkpt lat="46.67669" lon="11.10256">
        <ele>443.31</ele>
        <time>2012-08-02T10:58:59Z</time>
      </trkpt>
      <trkpt lat="46.67688" lon="11.10183">
        <ele>446.67</ele>
        <time>2012-08-02T10:59:04Z</time>
      </trkpt>
      <trkpt lat="46.67693" lon="11.10143">
        <ele>450.03</ele>
        <time>2012-08-02T10:59:08Z</time>
      </trkpt>
      <trkpt lat="46.67693" lon="11.1014">
        <ele>451.96</ele>
        <time>2012-08-02T10:59:11Z</time>
      </trkpt>
      <trkpt lat="46.67694" lon="11.10137">
        <ele>454.36</ele>
        <time>2012-08-02T10:59:14Z</time>
      </trkpt>
      <trkpt lat="46.67694" lon="11.10135">
        <ele>455.8</ele>
        <time>2012-08-02T10:59:16Z</time>
      </trkpt>
      <trkpt lat="46.67695" lon="11.10133">
        <ele>457.72</ele>
        <time>2012-08-02T10:59:19Z</time>
      </trkpt>
      <trkpt lat="46.67695" lon="11.10131">
        <ele>461.09</ele>
        <time>2012-08-02T10:59:21Z</time>
      </trkpt>
      <trkpt lat="46.67696" lon="11.1013">
        <ele>461.09</ele>
        <time>2012-08-02T10:59:22Z</time>
      </trkpt>
      <trkpt lat="46.67697" lon="11.10125">
        <ele>465.42</ele>
        <time>2012-08-02T10:59:27Z</time>
      </trkpt>
      <trkpt lat="46.67698" lon="11.10119">
        <ele>470.22</ele>
        <time>2012-08-02T10:59:34Z</time>
      </trkpt>
      <trkpt lat="46.67699" lon="11.10116">
        <ele>472.14</ele>
        <time>2012-08-02T10:59:37Z</time>
      </trkpt>
      <trkpt lat="46.67699" lon="11.10115">
        <ele>469.26</ele>
        <time>2012-08-02T10:59:38Z</time>
      </trkpt>
      <trkpt lat="46.67699" lon="11.10114">
        <ele>472.14</ele>
        <time>2012-08-02T10:59:39Z</time>
      </trkpt>
      <trkpt lat="46.67699" lon="11.10114">
        <ele>474.07</ele>
        <time>2012-08-02T10:59:40Z</time>
      </trkpt>
      <trkpt lat="46.677" lon="11.10113">
        <ele>472.63</ele>
        <time>2012-08-02T10:59:41Z</time>
      </trkpt>
      <trkpt lat="46.677" lon="11.1011">
        <ele>476.95</ele>
        <time>2012-08-02T10:59:46Z</time>
      </trkpt>
      <trkpt lat="46.67701" lon="11.10108">
        <ele>479.84</ele>
        <time>2012-08-02T10:59:49Z</time>
      </trkpt>
      <trkpt lat="46.67701" lon="11.10107">
        <ele>482.72</ele>
        <time>2012-08-02T10:59:54Z</time>
      </trkpt>
      <trkpt lat="46.68018" lon="11.09611">
        <ele>483.68</ele>
        <time>2012-08-02T10:59:56Z</time>
      </trkpt>
      <trkpt lat="46.68042" lon="11.09594">
        <ele>485.12</ele>
        <time>2012-08-02T10:59:59Z</time>
      </trkpt>
      <trkpt lat="46.68069" lon="11.09576">
        <ele>487.53</ele>
        <time>2012-08-02T11:00:02Z</time>
      </trkpt>
      <trkpt lat="46.68078" lon="11.09568">
        <ele>488.49</ele>
        <time>2012-08-02T11:00:03Z</time>
      </trkpt>
      <trkpt lat="46.68088" lon="11.09558">
        <ele>489.45</ele>
        <time>2012-08-02T11:00:04Z</time>
      </trkpt>
      <trkpt lat="46.68097" lon="11.09547">
        <ele>489.93</ele>
        <time>2012-08-02T11:00:05Z</time>
      </trkpt>
      <trkpt lat="46.68103" lon="11.09535">
        <ele>490.89</ele>
        <time>2012-08-02T11:00:06Z</time>
      </trkpt>
      <trkpt lat="46.68108" lon="11.09522">
        <ele>491.37</ele>
        <time>2012-08-02T11:00:07Z</time>
      </trkpt>
      <trkpt lat="46.6811" lon="11.09508">
        <ele>491.85</ele>
        <time>2012-08-02T11:00:08Z</time>
      </trkpt>
      <trkpt lat="46.68111" lon="11.09495">
        <ele>492.33</ele>
        <time>2012-08-02T11:00:09Z</time>
      </trkpt>
      <trkpt lat="46.68111" lon="11.09481">
        <ele>492.33</ele>
        <time>2012-08-02T11:00:10Z</time>
      </trkpt>
      <trkpt lat="46.68111" lon="11.09454">
        <ele>493.29</ele>
        <time>2012-08-02T11:00:12Z</time>
      </trkpt>
      <trkpt lat="46.6811" lon="11.09427">
        <ele>494.74</ele>
        <time>2012-08-02T11:00:15Z</time>
      </trkpt>
      <trkpt lat="46.6811" lon="11.09415">
        <ele>494.74</ele>
        <time>2012-08-02T11:00:17Z</time>
      </trkpt>
      <trkpt lat="46.68112" lon="11.09408">
        <ele>495.22</ele>
        <time>2012-08-02T11:00:18Z</time>
      </trkpt>
      <trkpt lat="46.68112" lon="11.094">
        <ele>495.7</ele>
        <time>2012-08-02T11:00:19Z</time>
      </trkpt>
      <trkpt lat="46.68112" lon="11.09383">
        <ele>496.66</ele>
        <time>2012-08-02T11:00:21Z</time>
      </trkpt>
      <trkpt lat="46.6811" lon="11.09374">
        <ele>497.14</ele>
        <time>2012-08-02T11:00:22Z</time>
      </trkpt>
      <trkpt lat="46.68104" lon="11.09354">
        <ele>498.1</ele>
        <time>2012-08-02T11:00:24Z</time>
      </trkpt>
      <trkpt lat="46.68099" lon="11.09344">
        <ele>498.1</ele>
        <time>2012-08-02T11:00:25Z</time>
      </trkpt>
      <trkpt lat="46.68094" lon="11.09333">
        <ele>499.54</ele>
        <time>2012-08-02T11:00:26Z</time>
      </trkpt>
      <trkpt lat="46.68052" lon="11.09269">
        <ele>502.91</ele>
        <time>2012-08-02T11:00:33Z</time>
      </trkpt>
      <trkpt lat="46.68034" lon="11.09228">
        <ele>504.83</ele>
        <time>2012-08-02T11:00:38Z</time>
      </trkpt>
      <trkpt lat="46.68012" lon="11.09162">
        <ele>506.27</ele>
        <time>2012-08-02T11:00:47Z</time>
      </trkpt>
      <trkpt lat="46.6801" lon="11.09154">
        <ele>505.79</ele>
        <time>2012-08-02T11:00:48Z</time>
      </trkpt>
      <trkpt lat="46.67993" lon="11.09092">
        <ele>507.71</ele>
        <time>2012-08-02T11:00:57Z</time>
      </trkpt>
      <trkpt lat="46.67964" lon="11.09">
        <ele>508.67</ele>
        <time>2012-08-02T11:01:04Z</time>
      </trkpt>
      <trkpt lat="46.67911" lon="11.08878">
        <ele>510.6</ele>
        <time>2012-08-02T11:01:13Z</time>
      </trkpt>
      <trkpt lat="46.67872" lon="11.08738">
        <ele>510.6</ele>
        <time>2012-08-02T11:01:23Z</time>
      </trkpt>
      <trkpt lat="46.67836" lon="11.08676">
        <ele>513.48</ele>
        <time>2012-08-02T11:01:28Z</time>
      </trkpt>
      <trkpt lat="46.6777" lon="11.08546">
        <ele>511.56</ele>
        <time>2012-08-02T11:01:36Z</time>
      </trkpt>
      <trkpt lat="46.67733" lon="11.08466">
        <ele>510.12</ele>
        <time>2012-08-02T11:01:41Z</time>
      </trkpt>
      <trkpt lat="46.67627" lon="11.08339">
        <ele>511.56</ele>
        <time>2012-08-02T11:01:51Z</time>
      </trkpt>
      <trkpt lat="46.67491" lon="11.08216">
        <ele>513.48</ele>
        <time>2012-08-02T11:02:01Z</time>
      </trkpt>
      <trkpt lat="46.67442" lon="11.08151">
        <ele>513.96</ele>
        <time>2012-08-02T11:02:05Z</time>
      </trkpt>
      <trkpt lat="46.67433" lon="11.08133">
        <ele>514.92</ele>
        <time>2012-08-02T11:02:06Z</time>
      </trkpt>
      <trkpt lat="46.67427" lon="11.08112">
        <ele>515.88</ele>
        <time>2012-08-02T11:02:07Z</time>
      </trkpt>
      <trkpt lat="46.67422" lon="11.08091">
        <ele>517.33</ele>
        <time>2012-08-02T11:02:08Z</time>
      </trkpt>
      <trkpt lat="46.67417" lon="11.08068">
        <ele>517.81</ele>
        <time>2012-08-02T11:02:09Z</time>
      </trkpt>
      <trkpt lat="46.67397" lon="11.07985">
        <ele>520.21</ele>
        <time>2012-08-02T11:02:13Z</time>
      </trkpt>
      <trkpt lat="46.67394" lon="11.07965">
        <ele>520.69</ele>
        <time>2012-08-02T11:02:14Z</time>
      </trkpt>
      <trkpt lat="46.67392" lon="11.07944">
        <ele>521.17</ele>
        <time>2012-08-02T11:02:15Z</time>
      </trkpt>
      <trkpt lat="46.67393" lon="11.07922">
        <ele>522.13</ele>
        <time>2012-08-02T11:02:16Z</time>
      </trkpt>
      <trkpt lat="46.67396" lon="11.07901">
        <ele>522.61</ele>
        <time>2012-08-02T11:02:17Z</time>
      </trkpt>
      <trkpt lat="46.67399" lon="11.07882">
        <ele>523.09</ele>
        <time>2012-08-02T11:02:18Z</time>
      </trkpt>
      <trkpt lat="46.67402" lon="11.07864">
        <ele>523.58</ele>
        <time>2012-08-02T11:02:19Z</time>
      </trkpt>
      <trkpt lat="46.67404" lon="11.07848">
        <ele>523.58</ele>
        <time>2012-08-02T11:02:20Z</time>
      </trkpt>
      <trkpt lat="46.67405" lon="11.07831">
        <ele>524.54</ele>
        <time>2012-08-02T11:02:21Z</time>
      </trkpt>
      <trkpt lat="46.67404" lon="11.07812">
        <ele>525.5</ele>
        <time>2012-08-02T11:02:22Z</time>
      </trkpt>
      <trkpt lat="46.67395" lon="11.07726">
        <ele>529.82</ele>
        <time>2012-08-02T11:02:26Z</time>
      </trkpt>
      <trkpt lat="46.6737" lon="11.07638">
        <ele>532.71</ele>
        <time>2012-08-02T11:02:30Z</time>
      </trkpt>
      <trkpt lat="46.67258" lon="11.07332">
        <ele>535.59</ele>
        <time>2012-08-02T11:02:44Z</time>
      </trkpt>
      <trkpt lat="46.67183" lon="11.0711">
        <ele>537.03</ele>
        <time>2012-08-02T11:02:54Z</time>
      </trkpt>
      <trkpt lat="46.67174" lon="11.07089">
        <ele>537.51</ele>
        <time>2012-08-02T11:02:55Z</time>
      </trkpt>
      <trkpt lat="46.67164" lon="11.07069">
        <ele>537.99</ele>
        <time>2012-08-02T11:02:56Z</time>
      </trkpt>
      <trkpt lat="46.67135" lon="11.07009">
        <ele>537.51</ele>
        <time>2012-08-02T11:02:59Z</time>
      </trkpt>
      <trkpt lat="46.67128" lon="11.06987">
        <ele>537.99</ele>
        <time>2012-08-02T11:03:00Z</time>
      </trkpt>
      <trkpt lat="46.67121" lon="11.06963">
        <ele>538.48</ele>
        <time>2012-08-02T11:03:01Z</time>
      </trkpt>
      <trkpt lat="46.67072" lon="11.06736">
        <ele>536.07</ele>
        <time>2012-08-02T11:03:11Z</time>
      </trkpt>
      <trkpt lat="46.67066" lon="11.06696">
        <ele>535.59</ele>
        <time>2012-08-02T11:03:13Z</time>
      </trkpt>
      <trkpt lat="46.67055" lon="11.06522">
        <ele>535.11</ele>
        <time>2012-08-02T11:03:22Z</time>
      </trkpt>
      <trkpt lat="46.67049" lon="11.0633">
        <ele>534.63</ele>
        <time>2012-08-02T11:03:32Z</time>
      </trkpt>
      <trkpt lat="46.67041" lon="11.0628">
        <ele>533.67</ele>
        <time>2012-08-02T11:03:35Z</time>
      </trkpt>
      <trkpt lat="46.67016" lon="11.06177">
        <ele>530.3</ele>
        <time>2012-08-02T11:03:42Z</time>
      </trkpt>
      <trkpt lat="46.66997" lon="11.06113">
        <ele>528.86</ele>
        <time>2012-08-02T11:03:48Z</time>
      </trkpt>
      <trkpt lat="46.66984" lon="11.0608">
        <ele>527.42</ele>
        <time>2012-08-02T11:03:59Z</time>
      </trkpt>
      <trkpt lat="46.6694" lon="11.06009">
        <ele>526.46</ele>
        <time>2012-08-02T11:04:10Z</time>
      </trkpt>
      <trkpt lat="46.66867" lon="11.059">
        <ele>524.06</ele>
        <time>2012-08-02T11:04:22Z</time>
      </trkpt>
      <trkpt lat="46.66783" lon="11.05766">
        <ele>522.61</ele>
        <time>2012-08-02T11:04:31Z</time>
      </trkpt>
      <trkpt lat="46.66713" lon="11.05595">
        <ele>520.69</ele>
        <time>2012-08-02T11:04:40Z</time>
      </trkpt>
      <trkpt lat="46.66701" lon="11.05535">
        <ele>520.21</ele>
        <time>2012-08-02T11:04:43Z</time>
      </trkpt>
      <trkpt lat="46.667" lon="11.05513">
        <ele>519.25</ele>
        <time>2012-08-02T11:04:44Z</time>
      </trkpt>
      <trkpt lat="46.66701" lon="11.05491">
        <ele>519.25</ele>
        <time>2012-08-02T11:04:45Z</time>
      </trkpt>
      <trkpt lat="46.66704" lon="11.05469">
        <ele>519.73</ele>
        <time>2012-08-02T11:04:46Z</time>
      </trkpt>
      <trkpt lat="46.66707" lon="11.05448">
        <ele>519.73</ele>
        <time>2012-08-02T11:04:47Z</time>
      </trkpt>
      <trkpt lat="46.66716" lon="11.05389">
        <ele>519.25</ele>
        <time>2012-08-02T11:04:50Z</time>
      </trkpt>
      <trkpt lat="46.66716" lon="11.05369">
        <ele>519.25</ele>
        <time>2012-08-02T11:04:51Z</time>
      </trkpt>
      <trkpt lat="46.66715" lon="11.05349">
        <ele>519.73</ele>
        <time>2012-08-02T11:04:52Z</time>
      </trkpt>
      <trkpt lat="46.66712" lon="11.05329">
        <ele>519.73</ele>
        <time>2012-08-02T11:04:53Z</time>
      </trkpt>
      <trkpt lat="46.66708" lon="11.0531">
        <ele>519.25</ele>
        <time>2012-08-02T11:04:54Z</time>
      </trkpt>
      <trkpt lat="46.66703" lon="11.05293">
        <ele>519.25</ele>
        <time>2012-08-02T11:04:55Z</time>
      </trkpt>
      <trkpt lat="46.66697" lon="11.05275">
        <ele>519.73</ele>
        <time>2012-08-02T11:04:56Z</time>
      </trkpt>
      <trkpt lat="46.66689" lon="11.05258">
        <ele>519.25</ele>
        <time>2012-08-02T11:04:57Z</time>
      </trkpt>
      <trkpt lat="46.66681" lon="11.05242">
        <ele>519.73</ele>
        <time>2012-08-02T11:04:58Z</time>
      </trkpt>
      <trkpt lat="46.66565" lon="11.05005">
        <ele>521.17</ele>
        <time>2012-08-02T11:05:11Z</time>
      </trkpt>
      <trkpt lat="46.66498" lon="11.04814">
        <ele>522.61</ele>
        <time>2012-08-02T11:05:21Z</time>
      </trkpt>
      <trkpt lat="46.66407" lon="11.04599">
        <ele>522.13</ele>
        <time>2012-08-02T11:05:34Z</time>
      </trkpt>
      <trkpt lat="46.66318" lon="11.04328">
        <ele>522.13</ele>
        <time>2012-08-02T11:05:48Z</time>
      </trkpt>
      <trkpt lat="46.66238" lon="11.04104">
        <ele>523.09</ele>
        <time>2012-08-02T11:05:59Z</time>
      </trkpt>
      <trkpt lat="46.66105" lon="11.038">
        <ele>522.61</ele>
        <time>2012-08-02T11:06:15Z</time>
      </trkpt>
      <trkpt lat="46.65998" lon="11.03565">
        <ele>523.58</ele>
        <time>2012-08-02T11:06:27Z</time>
      </trkpt>
      <trkpt lat="46.65916" lon="11.03381">
        <ele>523.09</ele>
        <time>2012-08-02T11:06:37Z</time>
      </trkpt>
      <trkpt lat="46.65806" lon="11.03131">
        <ele>524.54</ele>
        <time>2012-08-02T11:06:50Z</time>
      </trkpt>
      <trkpt lat="46.65697" lon="11.02882">
        <ele>527.9</ele>
        <time>2012-08-02T11:07:02Z</time>
      </trkpt>
      <trkpt lat="46.65591" lon="11.02689">
        <ele>532.23</ele>
        <time>2012-08-02T11:07:12Z</time>
      </trkpt>
      <trkpt lat="46.6557" lon="11.0265">
        <ele>532.71</ele>
        <time>2012-08-02T11:07:14Z</time>
      </trkpt>
      <trkpt lat="46.65507" lon="11.02532">
        <ele>536.55</ele>
        <time>2012-08-02T11:07:20Z</time>
      </trkpt>
      <trkpt lat="46.65489" lon="11.02494">
        <ele>537.51</ele>
        <time>2012-08-02T11:07:22Z</time>
      </trkpt>
      <trkpt lat="46.65448" lon="11.02406">
        <ele>541.36</ele>
        <time>2012-08-02T11:07:27Z</time>
      </trkpt>
      <trkpt lat="46.65432" lon="11.0237">
        <ele>542.8</ele>
        <time>2012-08-02T11:07:29Z</time>
      </trkpt>
      <trkpt lat="46.65409" lon="11.02314">
        <ele>543.76</ele>
        <time>2012-08-02T11:07:32Z</time>
      </trkpt>
      <trkpt lat="46.65404" lon="11.02294">
        <ele>544.24</ele>
        <time>2012-08-02T11:07:33Z</time>
      </trkpt>
      <trkpt lat="46.65399" lon="11.02273">
        <ele>544.72</ele>
        <time>2012-08-02T11:07:34Z</time>
      </trkpt>
      <trkpt lat="46.65354" lon="11.02015">
        <ele>542.32</ele>
        <time>2012-08-02T11:07:46Z</time>
      </trkpt>
      <trkpt lat="46.65325" lon="11.01805">
        <ele>538.96</ele>
        <time>2012-08-02T11:07:57Z</time>
      </trkpt>
      <trkpt lat="46.65325" lon="11.01791">
        <ele>538.48</ele>
        <time>2012-08-02T11:07:58Z</time>
      </trkpt>
      <trkpt lat="46.65326" lon="11.01778">
        <ele>537.99</ele>
        <time>2012-08-02T11:07:59Z</time>
      </trkpt>
      <trkpt lat="46.6533" lon="11.01766">
        <ele>538.96</ele>
        <time>2012-08-02T11:08:00Z</time>
      </trkpt>
      <trkpt lat="46.65337" lon="11.01744">
        <ele>538.96</ele>
        <time>2012-08-02T11:08:02Z</time>
      </trkpt>
      <trkpt lat="46.65336" lon="11.01732">
        <ele>538.96</ele>
        <time>2012-08-02T11:08:03Z</time>
      </trkpt>
      <trkpt lat="46.65333" lon="11.0172">
        <ele>538.96</ele>
        <time>2012-08-02T11:08:04Z</time>
      </trkpt>
      <trkpt lat="46.6533" lon="11.01707">
        <ele>538.96</ele>
        <time>2012-08-02T11:08:05Z</time>
      </trkpt>
      <trkpt lat="46.6533" lon="11.01691">
        <ele>537.99</ele>
        <time>2012-08-02T11:08:06Z</time>
      </trkpt>
      <trkpt lat="46.65333" lon="11.01672">
        <ele>538.48</ele>
        <time>2012-08-02T11:08:07Z</time>
      </trkpt>
      <trkpt lat="46.65336" lon="11.01652">
        <ele>538.48</ele>
        <time>2012-08-02T11:08:08Z</time>
      </trkpt>
      <trkpt lat="46.65364" lon="11.01498">
        <ele>541.84</ele>
        <time>2012-08-02T11:08:15Z</time>
      </trkpt>
      <trkpt lat="46.65402" lon="11.01354">
        <ele>545.2</ele>
        <time>2012-08-02T11:08:23Z</time>
      </trkpt>
      <trkpt lat="46.65435" lon="11.01258">
        <ele>548.57</ele>
        <time>2012-08-02T11:08:30Z</time>
      </trkpt>
      <trkpt lat="46.65431" lon="11.01268">
        <ele>552.9</ele>
        <time>2012-08-02T11:08:35Z</time>
      </trkpt>
      <trkpt lat="46.65428" lon="11.01274">
        <ele>551.45</ele>
        <time>2012-08-02T11:08:36Z</time>
      </trkpt>
      <trkpt lat="46.65428" lon="11.01273">
        <ele>547.61</ele>
        <time>2012-08-02T11:08:37Z</time>
      </trkpt>
      <trkpt lat="46.6543" lon="11.0127">
        <ele>549.53</ele>
        <time>2012-08-02T11:08:38Z</time>
      </trkpt>
      <trkpt lat="46.6543" lon="11.01269">
        <ele>550.49</ele>
        <time>2012-08-02T11:08:40Z</time>
      </trkpt>
      <trkpt lat="46.65433" lon="11.0126">
        <ele>552.41</ele>
        <time>2012-08-02T11:08:41Z</time>
      </trkpt>
      <trkpt lat="46.65433" lon="11.0126">
        <ele>550.97</ele>
        <time>2012-08-02T11:08:42Z</time>
      </trkpt>
      <trkpt lat="46.65431" lon="11.01266">
        <ele>550.01</ele>
        <time>2012-08-02T11:08:44Z</time>
      </trkpt>
      <trkpt lat="46.65431" lon="11.01267">
        <ele>547.61</ele>
        <time>2012-08-02T11:08:45Z</time>
      </trkpt>
      <trkpt lat="46.65431" lon="11.01265">
        <ele>549.53</ele>
        <time>2012-08-02T11:08:46Z</time>
      </trkpt>
      <trkpt lat="46.65431" lon="11.01268">
        <ele>552.9</ele>
        <time>2012-08-02T11:08:47Z</time>
      </trkpt>
      <trkpt lat="46.65432" lon="11.01264">
        <ele>554.34</ele>
        <time>2012-08-02T11:08:48Z</time>
      </trkpt>
      <trkpt lat="46.65432" lon="11.01263">
        <ele>556.74</ele>
        <time>2012-08-02T11:08:49Z</time>
      </trkpt>
      <trkpt lat="46.65432" lon="11.01262">
        <ele>553.86</ele>
        <time>2012-08-02T11:08:51Z</time>
      </trkpt>
      <trkpt lat="46.65435" lon="11.01254">
        <ele>550.97</ele>
        <time>2012-08-02T11:08:52Z</time>
      </trkpt>
      <trkpt lat="46.65435" lon="11.01254">
        <ele>556.74</ele>
        <time>2012-08-02T11:08:53Z</time>
      </trkpt>
      <trkpt lat="46.65433" lon="11.01261">
        <ele>556.74</ele>
        <time>2012-08-02T11:08:54Z</time>
      </trkpt>
      <trkpt lat="46.65433" lon="11.01259">
        <ele>560.59</ele>
        <time>2012-08-02T11:08:57Z</time>
      </trkpt>
      <trkpt lat="46.65433" lon="11.01261">
        <ele>556.74</ele>
        <time>2012-08-02T11:08:59Z</time>
      </trkpt>
      <trkpt lat="46.65434" lon="11.01258">
        <ele>556.74</ele>
        <time>2012-08-02T11:08:58Z</time>
      </trkpt>
      <trkpt lat="46.65435" lon="11.01254">
        <ele>555.3</ele>
        <time>2012-08-02T11:08:59Z</time>
      </trkpt>
      <trkpt lat="46.65435" lon="11.01254">
        <ele>556.26</ele>
        <time>2012-08-02T11:09:00Z</time>
      </trkpt>
      <trkpt lat="46.65434" lon="11.01257">
        <ele>559.62</ele>
        <time>2012-08-02T11:09:01Z</time>
      </trkpt>
      <trkpt lat="46.65435" lon="11.01256">
        <ele>561.07</ele>
        <time>2012-08-02T11:09:09Z</time>
      </trkpt>
      <trkpt lat="46.65439" lon="11.01245">
        <ele>561.55</ele>
        <time>2012-08-02T11:09:12Z</time>
      </trkpt>
      <trkpt lat="46.65439" lon="11.01243">
        <ele>564.91</ele>
        <time>2012-08-02T11:09:13Z</time>
      </trkpt>
      <trkpt lat="46.65439" lon="11.01244">
        <ele>561.07</ele>
        <time>2012-08-02T11:09:14Z</time>
      </trkpt>
      <trkpt lat="46.65439" lon="11.01243">
        <ele>564.91</ele>
        <time>2012-08-02T11:09:15Z</time>
      </trkpt>
      <trkpt lat="46.65438" lon="11.01246">
        <ele>567.32</ele>
        <time>2012-08-02T11:09:18Z</time>
      </trkpt>
      <trkpt lat="46.65439" lon="11.01245">
        <ele>565.87</ele>
        <time>2012-08-02T11:09:19Z</time>
      </trkpt>
      <trkpt lat="46.65439" lon="11.01244">
        <ele>563.95</ele>
        <time>2012-08-02T11:09:20Z</time>
      </trkpt>
      <trkpt lat="46.65438" lon="11.01246">
        <ele>559.62</ele>
        <time>2012-08-02T11:09:21Z</time>
      </trkpt>
      <trkpt lat="46.65443" lon="11.01233">
        <ele>563.95</ele>
        <time>2012-08-02T11:09:22Z</time>
      </trkpt>
      <trkpt lat="46.6544" lon="11.01241">
        <ele>566.83</ele>
        <time>2012-08-02T11:09:23Z</time>
      </trkpt>
      <trkpt lat="46.6544" lon="11.0124">
        <ele>564.91</ele>
        <time>2012-08-02T11:09:24Z</time>
      </trkpt>
      <trkpt lat="46.65443" lon="11.01232">
        <ele>569.24</ele>
        <time>2012-08-02T11:09:26Z</time>
      </trkpt>
      <trkpt lat="46.65441" lon="11.01237">
        <ele>564.91</ele>
        <time>2012-08-02T11:09:27Z</time>
      </trkpt>
      <trkpt lat="46.65442" lon="11.01236">
        <ele>570.2</ele>
        <time>2012-08-02T11:09:29Z</time>
      </trkpt>
      <trkpt lat="46.65442" lon="11.01234">
        <ele>567.8</ele>
        <time>2012-08-02T11:09:30Z</time>
      </trkpt>
      <trkpt lat="46.65443" lon="11.01232">
        <ele>569.72</ele>
        <time>2012-08-02T11:09:32Z</time>
      </trkpt>
      <trkpt lat="46.65443" lon="11.01231">
        <ele>571.64</ele>
        <time>2012-08-02T11:09:33Z</time>
      </trkpt>
      <trkpt lat="46.65444" lon="11.0123">
        <ele>569.24</ele>
        <time>2012-08-02T11:09:34Z</time>
      </trkpt>
      <trkpt lat="46.65445" lon="11.01227">
        <ele>565.87</ele>
        <time>2012-08-02T11:09:35Z</time>
      </trkpt>
      <trkpt lat="46.65447" lon="11.0122">
        <ele>567.8</ele>
        <time>2012-08-02T11:09:36Z</time>
      </trkpt>
      <trkpt lat="46.65446" lon="11.01223">
        <ele>571.64</ele>
        <time>2012-08-02T11:09:42Z</time>
      </trkpt>
      <trkpt lat="46.65447" lon="11.01221">
        <ele>570.2</ele>
        <time>2012-08-02T11:09:43Z</time>
      </trkpt>
      <trkpt lat="46.65452" lon="11.01207">
        <ele>568.76</ele>
        <time>2012-08-02T11:09:49Z</time>
      </trkpt>
      <trkpt lat="46.65452" lon="11.01206">
        <ele>566.35</ele>
        <time>2012-08-02T11:09:52Z</time>
      </trkpt>
      <trkpt lat="46.65451" lon="11.01209">
        <ele>569.72</ele>
        <time>2012-08-02T11:09:55Z</time>
      </trkpt>
      <trkpt lat="46.65452" lon="11.01206">
        <ele>572.6</ele>
        <time>2012-08-02T11:09:58Z</time>
      </trkpt>
      <trkpt lat="46.65456" lon="11.01196">
        <ele>569.24</ele>
        <time>2012-08-02T11:10:01Z</time>
      </trkpt>
      <trkpt lat="46.65455" lon="11.01198">
        <ele>568.76</ele>
        <time>2012-08-02T11:10:06Z</time>
      </trkpt>
      <trkpt lat="46.65455" lon="11.01196">
        <ele>568.28</ele>
        <time>2012-08-02T11:10:08Z</time>
      </trkpt>
      <trkpt lat="46.6546" lon="11.01182">
        <ele>565.39</ele>
        <time>2012-08-02T11:10:15Z</time>
      </trkpt>
      <trkpt lat="46.65458" lon="11.01188">
        <ele>568.28</ele>
        <time>2012-08-02T11:10:16Z</time>
      </trkpt>
      <trkpt lat="46.65459" lon="11.01186">
        <ele>569.24</ele>
        <time>2012-08-02T11:10:19Z</time>
      </trkpt>
      <trkpt lat="46.6546" lon="11.01183">
        <ele>568.76</ele>
        <time>2012-08-02T11:10:22Z</time>
      </trkpt>
      <trkpt lat="46.65464" lon="11.01171">
        <ele>564.91</ele>
        <time>2012-08-02T11:10:31Z</time>
      </trkpt>
      <trkpt lat="46.65464" lon="11.0117">
        <ele>563.95</ele>
        <time>2012-08-02T11:10:37Z</time>
      </trkpt>
      <trkpt lat="46.65466" lon="11.01167">
        <ele>561.55</ele>
        <time>2012-08-02T11:10:41Z</time>
      </trkpt>
      <trkpt lat="46.65466" lon="11.01166">
        <ele>562.51</ele>
        <time>2012-08-02T11:10:42Z</time>
      </trkpt>
      <trkpt lat="46.65467" lon="11.01164">
        <ele>561.07</ele>
        <time>2012-08-02T11:10:44Z</time>
      </trkpt>
      <trkpt lat="46.65466" lon="11.01165">
        <ele>557.7</ele>
        <time>2012-08-02T11:10:46Z</time>
      </trkpt>
      <trkpt lat="46.65467" lon="11.01164">
        <ele>555.78</ele>
        <time>2012-08-02T11:10:48Z</time>
      </trkpt>
      <trkpt lat="46.65468" lon="11.01161">
        <ele>557.22</ele>
        <time>2012-08-02T11:10:49Z</time>
      </trkpt>
      <trkpt lat="46.65471" lon="11.01151">
        <ele>555.78</ele>
        <time>2012-08-02T11:10:51Z</time>
      </trkpt>
      <trkpt lat="46.65471" lon="11.01151">
        <ele>552.41</ele>
        <time>2012-08-02T11:10:57Z</time>
      </trkpt>
      <trkpt lat="46.64873" lon="10.9853">
        <ele>551.45</ele>
        <time>2012-08-02T11:11:02Z</time>
      </trkpt>
      <trkpt lat="46.64843" lon="10.98289">
        <ele>553.86</ele>
        <time>2012-08-02T11:11:12Z</time>
      </trkpt>
      <trkpt lat="46.64801" lon="10.98078">
        <ele>554.82</ele>
        <time>2012-08-02T11:11:23Z</time>
      </trkpt>
      <trkpt lat="46.64779" lon="10.97865">
        <ele>556.26</ele>
        <time>2012-08-02T11:11:34Z</time>
      </trkpt>
      <trkpt lat="46.64776" lon="10.97804">
        <ele>558.18</ele>
        <time>2012-08-02T11:11:37Z</time>
      </trkpt>
      <trkpt lat="46.64768" lon="10.97631">
        <ele>555.3</ele>
        <time>2012-08-02T11:11:46Z</time>
      </trkpt>
      <trkpt lat="46.64743" lon="10.97441">
        <ele>555.78</ele>
        <time>2012-08-02T11:11:55Z</time>
      </trkpt>
      <trkpt lat="46.64715" lon="10.97235">
        <ele>555.78</ele>
        <time>2012-08-02T11:12:04Z</time>
      </trkpt>
      <trkpt lat="46.64707" lon="10.96995">
        <ele>555.78</ele>
        <time>2012-08-02T11:12:14Z</time>
      </trkpt>
      <trkpt lat="46.64707" lon="10.96943">
        <ele>557.22</ele>
        <time>2012-08-02T11:12:16Z</time>
      </trkpt>
      <trkpt lat="46.64717" lon="10.9683">
        <ele>561.07</ele>
        <time>2012-08-02T11:12:20Z</time>
      </trkpt>
      <trkpt lat="46.64712" lon="10.96828">
        <ele>559.62</ele>
        <time>2012-08-02T11:12:25Z</time>
      </trkpt>
      <trkpt lat="46.64712" lon="10.96828">
        <ele>562.03</ele>
        <time>2012-08-02T11:12:26Z</time>
      </trkpt>
      <trkpt lat="46.64714" lon="10.96814">
        <ele>559.14</ele>
        <time>2012-08-02T11:12:27Z</time>
      </trkpt>
      <trkpt lat="46.64712" lon="10.96826">
        <ele>561.07</ele>
        <time>2012-08-02T11:12:28Z</time>
      </trkpt>
      <trkpt lat="46.64713" lon="10.96823">
        <ele>561.55</ele>
        <time>2012-08-02T11:12:33Z</time>
      </trkpt>
      <trkpt lat="46.64713" lon="10.96821">
        <ele>562.99</ele>
        <time>2012-08-02T11:12:35Z</time>
      </trkpt>
      <trkpt lat="46.64713" lon="10.96821">
        <ele>561.55</ele>
        <time>2012-08-02T11:12:36Z</time>
      </trkpt>
      <trkpt lat="46.64713" lon="10.96819">
        <ele>561.55</ele>
        <time>2012-08-02T11:12:39Z</time>
      </trkpt>
      <trkpt lat="46.64713" lon="10.96817">
        <ele>559.62</ele>
        <time>2012-08-02T11:12:41Z</time>
      </trkpt>
      <trkpt lat="46.64714" lon="10.96817">
        <ele>562.03</ele>
        <time>2012-08-02T11:12:42Z</time>
      </trkpt>
      <trkpt lat="46.64713" lon="10.96819">
        <ele>565.87</ele>
        <time>2012-08-02T11:12:43Z</time>
      </trkpt>
      <trkpt lat="46.64714" lon="10.96815">
        <ele>563.95</ele>
        <time>2012-08-02T11:12:44Z</time>
      </trkpt>
      <trkpt lat="46.64715" lon="10.96806">
        <ele>560.59</ele>
        <time>2012-08-02T11:12:45Z</time>
      </trkpt>
      <trkpt lat="46.64717" lon="10.96793">
        <ele>560.11</ele>
        <time>2012-08-02T11:12:46Z</time>
      </trkpt>
      <trkpt lat="46.64716" lon="10.96794">
        <ele>564.43</ele>
        <time>2012-08-02T11:12:48Z</time>
      </trkpt>
      <trkpt lat="46.64714" lon="10.96812">
        <ele>565.87</ele>
        <time>2012-08-02T11:12:49Z</time>
      </trkpt>
      <trkpt lat="46.64714" lon="10.9681">
        <ele>564.91</ele>
        <time>2012-08-02T11:12:51Z</time>
      </trkpt>
      <trkpt lat="46.64716" lon="10.96796">
        <ele>564.91</ele>
        <time>2012-08-02T11:12:52Z</time>
      </trkpt>
      <trkpt lat="46.64715" lon="10.96808">
        <ele>568.28</ele>
        <time>2012-08-02T11:12:54Z</time>
      </trkpt>
      <trkpt lat="46.64714" lon="10.9681">
        <ele>562.99</ele>
        <time>2012-08-02T11:12:55Z</time>
      </trkpt>
      <trkpt lat="46.64715" lon="10.96807">
        <ele>562.99</ele>
        <time>2012-08-02T11:12:56Z</time>
      </trkpt>
      <trkpt lat="46.64716" lon="10.96798">
        <ele>561.07</ele>
        <time>2012-08-02T11:12:57Z</time>
      </trkpt>
      <trkpt lat="46.64717" lon="10.96787">
        <ele>561.07</ele>
        <time>2012-08-02T11:12:58Z</time>
      </trkpt>
      <trkpt lat="46.64715" lon="10.96805">
        <ele>563.47</ele>
        <time>2012-08-02T11:12:59Z</time>
      </trkpt>
      <trkpt lat="46.64718" lon="10.96786">
        <ele>564.91</ele>
        <time>2012-08-02T11:13:00Z</time>
      </trkpt>
      <trkpt lat="46.64716" lon="10.96801">
        <ele>573.08</ele>
        <time>2012-08-02T11:13:02Z</time>
      </trkpt>
      <trkpt lat="46.64716" lon="10.96801">
        <ele>567.8</ele>
        <time>2012-08-02T11:13:03Z</time>
      </trkpt>
      <trkpt lat="46.64451" lon="10.95681">
        <ele>565.39</ele>
        <time>2012-08-02T11:13:09Z</time>
      </trkpt>
      <trkpt lat="46.644" lon="10.95598">
        <ele>562.03</ele>
        <time>2012-08-02T11:13:13Z</time>
      </trkpt>
      <trkpt lat="46.64389" lon="10.95576">
        <ele>562.51</ele>
        <time>2012-08-02T11:13:14Z</time>
      </trkpt>
      <trkpt lat="46.6434" lon="10.95456">
        <ele>560.11</ele>
        <time>2012-08-02T11:13:19Z</time>
      </trkpt>
      <trkpt lat="46.64334" lon="10.9543">
        <ele>561.07</ele>
        <time>2012-08-02T11:13:20Z</time>
      </trkpt>
      <trkpt lat="46.64279" lon="10.95123">
        <ele>561.55</ele>
        <time>2012-08-02T11:13:32Z</time>
      </trkpt>
      <trkpt lat="46.64256" lon="10.9504">
        <ele>561.07</ele>
        <time>2012-08-02T11:13:36Z</time>
      </trkpt>
      <trkpt lat="46.64247" lon="10.95022">
        <ele>562.03</ele>
        <time>2012-08-02T11:13:37Z</time>
      </trkpt>
      <trkpt lat="46.64146" lon="10.9488">
        <ele>560.59</ele>
        <time>2012-08-02T11:13:47Z</time>
      </trkpt>
      <trkpt lat="46.64053" lon="10.9476">
        <ele>561.55</ele>
        <time>2012-08-02T11:13:57Z</time>
      </trkpt>
      <trkpt lat="46.63932" lon="10.94621">
        <ele>562.03</ele>
        <time>2012-08-02T11:14:08Z</time>
      </trkpt>
      <trkpt lat="46.6379" lon="10.94401">
        <ele>562.99</ele>
        <time>2012-08-02T11:14:21Z</time>
      </trkpt>
      <trkpt lat="46.6369" lon="10.94214">
        <ele>563.47</ele>
        <time>2012-08-02T11:14:31Z</time>
      </trkpt>
      <trkpt lat="46.63606" lon="10.94038">
        <ele>562.99</ele>
        <time>2012-08-02T11:14:40Z</time>
      </trkpt>
      <trkpt lat="46.6357" lon="10.93908">
        <ele>563.95</ele>
        <time>2012-08-02T11:14:47Z</time>
      </trkpt>
      <trkpt lat="46.63561" lon="10.93741">
        <ele>565.39</ele>
        <time>2012-08-02T11:14:55Z</time>
      </trkpt>
      <trkpt lat="46.63534" lon="10.93503">
        <ele>567.32</ele>
        <time>2012-08-02T11:15:05Z</time>
      </trkpt>
      <trkpt lat="46.63541" lon="10.93277">
        <ele>567.32</ele>
        <time>2012-08-02T11:15:14Z</time>
      </trkpt>
      <trkpt lat="46.63554" lon="10.93156">
        <ele>567.8</ele>
        <time>2012-08-02T11:15:19Z</time>
      </trkpt>
      <trkpt lat="46.63545" lon="10.92874">
        <ele>566.35</ele>
        <time>2012-08-02T11:15:31Z</time>
      </trkpt>
      <trkpt lat="46.63525" lon="10.92662">
        <ele>567.32</ele>
        <time>2012-08-02T11:15:41Z</time>
      </trkpt>
      <trkpt lat="46.63443" lon="10.92414">
        <ele>568.28</ele>
        <time>2012-08-02T11:15:53Z</time>
      </trkpt>
      <trkpt lat="46.63346" lon="10.92211">
        <ele>569.24</ele>
        <time>2012-08-02T11:16:03Z</time>
      </trkpt>
      <trkpt lat="46.63197" lon="10.91915">
        <ele>568.76</ele>
        <time>2012-08-02T11:16:17Z</time>
      </trkpt>
      <trkpt lat="46.63111" lon="10.91742">
        <ele>569.24</ele>
        <time>2012-08-02T11:16:28Z</time>
      </trkpt>
      <trkpt lat="46.63004" lon="10.91522">
        <ele>571.64</ele>
        <time>2012-08-02T11:16:41Z</time>
      </trkpt>
      <trkpt lat="46.62961" lon="10.91388">
        <ele>570.2</ele>
        <time>2012-08-02T11:16:50Z</time>
      </trkpt>
      <trkpt lat="46.62943" lon="10.91326">
        <ele>570.68</ele>
        <time>2012-08-02T11:16:58Z</time>
      </trkpt>
      <trkpt lat="46.62934" lon="10.9129">
        <ele>570.68</ele>
        <time>2012-08-02T11:17:09Z</time>
      </trkpt>
      <trkpt lat="46.62929" lon="10.91262">
        <ele>571.16</ele>
        <time>2012-08-02T11:17:19Z</time>
      </trkpt>
      <trkpt lat="46.62918" lon="10.91176">
        <ele>572.12</ele>
        <time>2012-08-02T11:17:26Z</time>
      </trkpt>
      <trkpt lat="46.62894" lon="10.9099">
        <ele>573.56</ele>
        <time>2012-08-02T11:17:36Z</time>
      </trkpt>
      <trkpt lat="46.62849" lon="10.90724">
        <ele>575.01</ele>
        <time>2012-08-02T11:17:50Z</time>
      </trkpt>
      <trkpt lat="46.62829" lon="10.90484">
        <ele>577.89</ele>
        <time>2012-08-02T11:18:02Z</time>
      </trkpt>
      <trkpt lat="46.62836" lon="10.90273">
        <ele>579.81</ele>
        <time>2012-08-02T11:18:12Z</time>
      </trkpt>
      <trkpt lat="46.62837" lon="10.90252">
        <ele>580.29</ele>
        <time>2012-08-02T11:18:13Z</time>
      </trkpt>
      <trkpt lat="46.62838" lon="10.90231">
        <ele>581.25</ele>
        <time>2012-08-02T11:18:14Z</time>
      </trkpt>
      <trkpt lat="46.62837" lon="10.90191">
        <ele>582.22</ele>
        <time>2012-08-02T11:18:16Z</time>
      </trkpt>
      <trkpt lat="46.62834" lon="10.90172">
        <ele>583.66</ele>
        <time>2012-08-02T11:18:17Z</time>
      </trkpt>
      <trkpt lat="46.62828" lon="10.90154">
        <ele>584.14</ele>
        <time>2012-08-02T11:18:18Z</time>
      </trkpt>
      <trkpt lat="46.6282" lon="10.90137">
        <ele>584.62</ele>
        <time>2012-08-02T11:18:19Z</time>
      </trkpt>
      <trkpt lat="46.62813" lon="10.90122">
        <ele>585.1</ele>
        <time>2012-08-02T11:18:20Z</time>
      </trkpt>
      <trkpt lat="46.62795" lon="10.9008">
        <ele>585.58</ele>
        <time>2012-08-02T11:18:23Z</time>
      </trkpt>
      <trkpt lat="46.62793" lon="10.90069">
        <ele>585.58</ele>
        <time>2012-08-02T11:18:24Z</time>
      </trkpt>
      <trkpt lat="46.6279" lon="10.90057">
        <ele>586.06</ele>
        <time>2012-08-02T11:18:29Z</time>
      </trkpt>
      <trkpt lat="46.6279" lon="10.90057">
        <ele>585.58</ele>
        <time>2012-08-02T11:18:34Z</time>
      </trkpt>
      <trkpt lat="46.62789" lon="10.90054">
        <ele>585.58</ele>
        <time>2012-08-02T11:18:35Z</time>
      </trkpt>
      <trkpt lat="46.62788" lon="10.90053">
        <ele>586.06</ele>
        <time>2012-08-02T11:18:36Z</time>
      </trkpt>
      <trkpt lat="46.62788" lon="10.90066">
        <ele>586.54</ele>
        <time>2012-08-02T11:18:40Z</time>
      </trkpt>
      <trkpt lat="46.62791" lon="10.90078">
        <ele>587.5</ele>
        <time>2012-08-02T11:18:41Z</time>
      </trkpt>
      <trkpt lat="46.62794" lon="10.90092">
        <ele>587.98</ele>
        <time>2012-08-02T11:18:42Z</time>
      </trkpt>
      <trkpt lat="46.62799" lon="10.90105">
        <ele>587.02</ele>
        <time>2012-08-02T11:18:43Z</time>
      </trkpt>
      <trkpt lat="46.62809" lon="10.90129">
        <ele>584.14</ele>
        <time>2012-08-02T11:18:46Z</time>
      </trkpt>
      <trkpt lat="46.62812" lon="10.90133">
        <ele>584.14</ele>
        <time>2012-08-02T11:18:47Z</time>
      </trkpt>
      <trkpt lat="46.62815" lon="10.90137">
        <ele>583.66</ele>
        <time>2012-08-02T11:18:56Z</time>
      </trkpt>
      <trkpt lat="46.62821" lon="10.9014">
        <ele>583.18</ele>
        <time>2012-08-02T11:18:59Z</time>
      </trkpt>
      <trkpt lat="46.62824" lon="10.90141">
        <ele>584.62</ele>
        <time>2012-08-02T11:19:00Z</time>
      </trkpt>
      <trkpt lat="46.62827" lon="10.90139">
        <ele>584.14</ele>
        <time>2012-08-02T11:19:02Z</time>
      </trkpt>
      <trkpt lat="46.62828" lon="10.90136">
        <ele>584.62</ele>
        <time>2012-08-02T11:19:03Z</time>
      </trkpt>
      <trkpt lat="46.6283" lon="10.90137">
        <ele>584.62</ele>
        <time>2012-08-02T11:19:04Z</time>
      </trkpt>
      <trkpt lat="46.62832" lon="10.90141">
        <ele>584.62</ele>
        <time>2012-08-02T11:19:05Z</time>
      </trkpt>
      <trkpt lat="46.62833" lon="10.90144">
        <ele>584.62</ele>
        <time>2012-08-02T11:19:06Z</time>
      </trkpt>
      <trkpt lat="46.62835" lon="10.90145">
        <ele>584.62</ele>
        <time>2012-08-02T11:19:07Z</time>
      </trkpt>
      <trkpt lat="46.62836" lon="10.90146">
        <ele>584.62</ele>
        <time>2012-08-02T11:19:08Z</time>
      </trkpt>
      <trkpt lat="46.62865" lon="10.90123">
        <ele>598.56</ele>
        <time>2012-08-02T11:55:52Z</time>
      </trkpt>
      <trkpt lat="46.6285" lon="10.90134">
        <ele>597.12</ele>
        <time>2012-08-02T11:56:24Z</time>
      </trkpt>
      <trkpt lat="46.62843" lon="10.90136">
        <ele>596.64</ele>
        <time>2012-08-02T11:57:03Z</time>
      </trkpt>
      <trkpt lat="46.62852" lon="10.90135">
        <ele>597.12</ele>
        <time>2012-08-02T11:57:34Z</time>
      </trkpt>
      <trkpt lat="46.62855" lon="10.90136">
        <ele>597.12</ele>
        <time>2012-08-02T11:58:10Z</time>
      </trkpt>
      <trkpt lat="46.62854" lon="10.90138">
        <ele>597.12</ele>
        <time>2012-08-02T11:58:50Z</time>
      </trkpt>
      <trkpt lat="46.62853" lon="10.90139">
        <ele>597.6</ele>
        <time>2012-08-02T11:59:22Z</time>
      </trkpt>
      <trkpt lat="46.62854" lon="10.90139">
        <ele>597.6</ele>
        <time>2012-08-02T11:59:56Z</time>
      </trkpt>
      <trkpt lat="46.62853" lon="10.90138">
        <ele>597.12</ele>
        <time>2012-08-02T12:00:27Z</time>
      </trkpt>
      <trkpt lat="46.62852" lon="10.90138">
        <ele>597.12</ele>
        <time>2012-08-02T12:01:00Z</time>
      </trkpt>
      <trkpt lat="46.6285" lon="10.90139">
        <ele>597.6</ele>
        <time>2012-08-02T12:01:37Z</time>
      </trkpt>
      <trkpt lat="46.62849" lon="10.90142">
        <ele>597.6</ele>
        <time>2012-08-02T12:02:12Z</time>
      </trkpt>
      <trkpt lat="46.62849" lon="10.90142">
        <ele>597.6</ele>
        <time>2012-08-02T12:02:48Z</time>
      </trkpt>
      <trkpt lat="46.62848" lon="10.90142">
        <ele>597.6</ele>
        <time>2012-08-02T12:03:20Z</time>
      </trkpt>
      <trkpt lat="46.62848" lon="10.90142">
        <ele>597.6</ele>
        <time>2012-08-02T12:03:53Z</time>
      </trkpt>
      <trkpt lat="46.62848" lon="10.90144">
        <ele>597.6</ele>
        <time>2012-08-02T12:04:24Z</time>
      </trkpt>
      <trkpt lat="46.62848" lon="10.90142">
        <ele>597.6</ele>
        <time>2012-08-02T12:04:53Z</time>
      </trkpt>
      <trkpt lat="46.62848" lon="10.90139">
        <ele>597.6</ele>
        <time>2012-08-02T12:05:27Z</time>
      </trkpt>
      <trkpt lat="46.62848" lon="10.90139">
        <ele>597.12</ele>
        <time>2012-08-02T12:05:59Z</time>
      </trkpt>
      <trkpt lat="46.62849" lon="10.90138">
        <ele>597.6</ele>
        <time>2012-08-02T12:06:34Z</time>
      </trkpt>
      <trkpt lat="46.62849" lon="10.90138">
        <ele>597.12</ele>
        <time>2012-08-02T12:07:03Z</time>
      </trkpt>
      <trkpt lat="46.62849" lon="10.90138">
        <ele>596.15</ele>
        <time>2012-08-02T12:07:17Z</time>
      </trkpt>
      <trkpt lat="46.62845" lon="10.90138">
        <ele>596.64</ele>
        <time>2012-08-02T12:07:29Z</time>
      </trkpt>
      <trkpt lat="46.62844" lon="10.90137">
        <ele>596.64</ele>
        <time>2012-08-02T12:07:38Z</time>
      </trkpt>
      <trkpt lat="46.62821" lon="10.90132">
        <ele>594.71</ele>
        <time>2012-08-02T12:07:46Z</time>
      </trkpt>
      <trkpt lat="46.62818" lon="10.90124">
        <ele>595.19</ele>
        <time>2012-08-02T12:07:47Z</time>
      </trkpt>
      <trkpt lat="46.62815" lon="10.90115">
        <ele>595.19</ele>
        <time>2012-08-02T12:07:48Z</time>
      </trkpt>
      <trkpt lat="46.6281" lon="10.90103">
        <ele>596.15</ele>
        <time>2012-08-02T12:07:49Z</time>
      </trkpt>
      <trkpt lat="46.62801" lon="10.90076">
        <ele>596.64</ele>
        <time>2012-08-02T12:07:51Z</time>
      </trkpt>
      <trkpt lat="46.62798" lon="10.90062">
        <ele>598.08</ele>
        <time>2012-08-02T12:07:52Z</time>
      </trkpt>
      <trkpt lat="46.62795" lon="10.90047">
        <ele>597.6</ele>
        <time>2012-08-02T12:07:53Z</time>
      </trkpt>
      <trkpt lat="46.62788" lon="10.89987">
        <ele>599.04</ele>
        <time>2012-08-02T12:07:58Z</time>
      </trkpt>
      <trkpt lat="46.62789" lon="10.89975">
        <ele>599.04</ele>
        <time>2012-08-02T12:07:59Z</time>
      </trkpt>
      <trkpt lat="46.62791" lon="10.89964">
        <ele>599.04</ele>
        <time>2012-08-02T12:08:00Z</time>
      </trkpt>
      <trkpt lat="46.62799" lon="10.89927">
        <ele>600.48</ele>
        <time>2012-08-02T12:08:03Z</time>
      </trkpt>
      <trkpt lat="46.628" lon="10.89913">
        <ele>601.44</ele>
        <time>2012-08-02T12:08:04Z</time>
      </trkpt>
      <trkpt lat="46.62798" lon="10.89898">
        <ele>600.96</ele>
        <time>2012-08-02T12:08:05Z</time>
      </trkpt>
      <trkpt lat="46.62785" lon="10.89815">
        <ele>602.4</ele>
        <time>2012-08-02T12:08:10Z</time>
      </trkpt>
      <trkpt lat="46.6278" lon="10.89754">
        <ele>603.85</ele>
        <time>2012-08-02T12:08:13Z</time>
      </trkpt>
      <trkpt lat="46.62768" lon="10.89695">
        <ele>604.33</ele>
        <time>2012-08-02T12:08:16Z</time>
      </trkpt>
      <trkpt lat="46.62766" lon="10.89676">
        <ele>604.81</ele>
        <time>2012-08-02T12:08:17Z</time>
      </trkpt>
      <trkpt lat="46.62766" lon="10.89656">
        <ele>605.29</ele>
        <time>2012-08-02T12:08:18Z</time>
      </trkpt>
      <trkpt lat="46.62764" lon="10.89574">
        <ele>609.13</ele>
        <time>2012-08-02T12:08:22Z</time>
      </trkpt>
      <trkpt lat="46.62751" lon="10.89471">
        <ele>612.02</ele>
        <time>2012-08-02T12:08:27Z</time>
      </trkpt>
      <trkpt lat="46.62722" lon="10.89364">
        <ele>613.94</ele>
        <time>2012-08-02T12:08:32Z</time>
      </trkpt>
      <trkpt lat="46.62668" lon="10.89233">
        <ele>615.86</ele>
        <time>2012-08-02T12:08:39Z</time>
      </trkpt>
      <trkpt lat="46.62663" lon="10.89213">
        <ele>615.38</ele>
        <time>2012-08-02T12:08:40Z</time>
      </trkpt>
      <trkpt lat="46.6266" lon="10.89192">
        <ele>615.86</ele>
        <time>2012-08-02T12:08:41Z</time>
      </trkpt>
      <trkpt lat="46.62656" lon="10.89102">
        <ele>619.23</ele>
        <time>2012-08-02T12:08:45Z</time>
      </trkpt>
      <trkpt lat="46.62655" lon="10.89057">
        <ele>620.19</ele>
        <time>2012-08-02T12:08:47Z</time>
      </trkpt>
      <trkpt lat="46.62657" lon="10.88993">
        <ele>621.63</ele>
        <time>2012-08-02T12:08:50Z</time>
      </trkpt>
      <trkpt lat="46.62667" lon="10.88879">
        <ele>625.47</ele>
        <time>2012-08-02T12:08:55Z</time>
      </trkpt>
      <trkpt lat="46.62667" lon="10.88855">
        <ele>625.47</ele>
        <time>2012-08-02T12:08:56Z</time>
      </trkpt>
      <trkpt lat="46.62665" lon="10.8883">
        <ele>625.96</ele>
        <time>2012-08-02T12:08:57Z</time>
      </trkpt>
      <trkpt lat="46.62662" lon="10.88806">
        <ele>626.44</ele>
        <time>2012-08-02T12:08:58Z</time>
      </trkpt>
      <trkpt lat="46.62657" lon="10.88783">
        <ele>626.44</ele>
        <time>2012-08-02T12:08:59Z</time>
      </trkpt>
      <trkpt lat="46.6265" lon="10.88759">
        <ele>627.4</ele>
        <time>2012-08-02T12:09:00Z</time>
      </trkpt>
      <trkpt lat="46.62642" lon="10.88736">
        <ele>627.88</ele>
        <time>2012-08-02T12:09:01Z</time>
      </trkpt>
      <trkpt lat="46.6258" lon="10.88585">
        <ele>631.72</ele>
        <time>2012-08-02T12:09:08Z</time>
      </trkpt>
      <trkpt lat="46.62556" lon="10.88525">
        <ele>635.57</ele>
        <time>2012-08-02T12:09:11Z</time>
      </trkpt>
      <trkpt lat="46.62548" lon="10.88505">
        <ele>635.57</ele>
        <time>2012-08-02T12:09:12Z</time>
      </trkpt>
      <trkpt lat="46.625" lon="10.88383">
        <ele>638.93</ele>
        <time>2012-08-02T12:09:18Z</time>
      </trkpt>
      <trkpt lat="46.62433" lon="10.88163">
        <ele>639.89</ele>
        <time>2012-08-02T12:09:28Z</time>
      </trkpt>
      <trkpt lat="46.62423" lon="10.88109">
        <ele>639.41</ele>
        <time>2012-08-02T12:09:30Z</time>
      </trkpt>
      <trkpt lat="46.62396" lon="10.87892">
        <ele>638.93</ele>
        <time>2012-08-02T12:09:38Z</time>
      </trkpt>
      <trkpt lat="46.62398" lon="10.87782">
        <ele>642.3</ele>
        <time>2012-08-02T12:09:42Z</time>
      </trkpt>
      <trkpt lat="46.62403" lon="10.87707">
        <ele>643.74</ele>
        <time>2012-08-02T12:09:45Z</time>
      </trkpt>
      <trkpt lat="46.62401" lon="10.87529">
        <ele>643.74</ele>
        <time>2012-08-02T12:09:53Z</time>
      </trkpt>
      <trkpt lat="46.62399" lon="10.87509">
        <ele>643.74</ele>
        <time>2012-08-02T12:09:54Z</time>
      </trkpt>
      <trkpt lat="46.62395" lon="10.87489">
        <ele>643.74</ele>
        <time>2012-08-02T12:09:55Z</time>
      </trkpt>
      <trkpt lat="46.62389" lon="10.87469">
        <ele>645.18</ele>
        <time>2012-08-02T12:09:56Z</time>
      </trkpt>
      <trkpt lat="46.62383" lon="10.8745">
        <ele>642.78</ele>
        <time>2012-08-02T12:09:57Z</time>
      </trkpt>
      <trkpt lat="46.62369" lon="10.87412">
        <ele>642.3</ele>
        <time>2012-08-02T12:09:59Z</time>
      </trkpt>
      <trkpt lat="46.62322" lon="10.87239">
        <ele>640.86</ele>
        <time>2012-08-02T12:10:08Z</time>
      </trkpt>
      <trkpt lat="46.62318" lon="10.87075">
        <ele>641.82</ele>
        <time>2012-08-02T12:10:16Z</time>
      </trkpt>
      <trkpt lat="46.62312" lon="10.8702">
        <ele>642.3</ele>
        <time>2012-08-02T12:10:19Z</time>
      </trkpt>
      <trkpt lat="46.62289" lon="10.86942">
        <ele>642.3</ele>
        <time>2012-08-02T12:10:26Z</time>
      </trkpt>
      <trkpt lat="46.62275" lon="10.86896">
        <ele>641.82</ele>
        <time>2012-08-02T12:10:32Z</time>
      </trkpt>
      <trkpt lat="46.62274" lon="10.86887">
        <ele>641.82</ele>
        <time>2012-08-02T12:10:33Z</time>
      </trkpt>
      <trkpt lat="46.62274" lon="10.86877">
        <ele>642.3</ele>
        <time>2012-08-02T12:10:34Z</time>
      </trkpt>
      <trkpt lat="46.62275" lon="10.86869">
        <ele>641.82</ele>
        <time>2012-08-02T12:10:35Z</time>
      </trkpt>
      <trkpt lat="46.62274" lon="10.8686">
        <ele>642.3</ele>
        <time>2012-08-02T12:10:36Z</time>
      </trkpt>
      <trkpt lat="46.62272" lon="10.86852">
        <ele>642.3</ele>
        <time>2012-08-02T12:10:37Z</time>
      </trkpt>
      <trkpt lat="46.62268" lon="10.86846">
        <ele>642.3</ele>
        <time>2012-08-02T12:10:38Z</time>
      </trkpt>
      <trkpt lat="46.62263" lon="10.86842">
        <ele>642.3</ele>
        <time>2012-08-02T12:10:39Z</time>
      </trkpt>
      <trkpt lat="46.62259" lon="10.86837">
        <ele>641.82</ele>
        <time>2012-08-02T12:10:40Z</time>
      </trkpt>
      <trkpt lat="46.62255" lon="10.8683">
        <ele>642.3</ele>
        <time>2012-08-02T12:10:41Z</time>
      </trkpt>
      <trkpt lat="46.62251" lon="10.86821">
        <ele>642.3</ele>
        <time>2012-08-02T12:10:42Z</time>
      </trkpt>
      <trkpt lat="46.62249" lon="10.8681">
        <ele>642.3</ele>
        <time>2012-08-02T12:10:43Z</time>
      </trkpt>
      <trkpt lat="46.62246" lon="10.86797">
        <ele>643.26</ele>
        <time>2012-08-02T12:10:44Z</time>
      </trkpt>
      <trkpt lat="46.62236" lon="10.8673">
        <ele>644.7</ele>
        <time>2012-08-02T12:10:48Z</time>
      </trkpt>
      <trkpt lat="46.62221" lon="10.86604">
        <ele>648.07</ele>
        <time>2012-08-02T12:10:54Z</time>
      </trkpt>
      <trkpt lat="46.6222" lon="10.86582">
        <ele>648.07</ele>
        <time>2012-08-02T12:10:55Z</time>
      </trkpt>
      <trkpt lat="46.6222" lon="10.8654">
        <ele>648.07</ele>
        <time>2012-08-02T12:10:57Z</time>
      </trkpt>
      <trkpt lat="46.62231" lon="10.86449">
        <ele>649.99</ele>
        <time>2012-08-02T12:11:01Z</time>
      </trkpt>
      <trkpt lat="46.62274" lon="10.86137">
        <ele>650.95</ele>
        <time>2012-08-02T12:11:14Z</time>
      </trkpt>
      <trkpt lat="46.62281" lon="10.86064">
        <ele>652.39</ele>
        <time>2012-08-02T12:11:17Z</time>
      </trkpt>
      <trkpt lat="46.62281" lon="10.86039">
        <ele>653.35</ele>
        <time>2012-08-02T12:11:18Z</time>
      </trkpt>
      <trkpt lat="46.62281" lon="10.86012">
        <ele>653.83</ele>
        <time>2012-08-02T12:11:19Z</time>
      </trkpt>
      <trkpt lat="46.62279" lon="10.85986">
        <ele>653.35</ele>
        <time>2012-08-02T12:11:20Z</time>
      </trkpt>
      <trkpt lat="46.62276" lon="10.85958">
        <ele>653.83</ele>
        <time>2012-08-02T12:11:21Z</time>
      </trkpt>
      <trkpt lat="46.62273" lon="10.85931">
        <ele>653.35</ele>
        <time>2012-08-02T12:11:22Z</time>
      </trkpt>
      <trkpt lat="46.62242" lon="10.85795">
        <ele>655.28</ele>
        <time>2012-08-02T12:11:27Z</time>
      </trkpt>
      <trkpt lat="46.62192" lon="10.85486">
        <ele>657.68</ele>
        <time>2012-08-02T12:11:38Z</time>
      </trkpt>
      <trkpt lat="46.62188" lon="10.85398">
        <ele>659.6</ele>
        <time>2012-08-02T12:11:41Z</time>
      </trkpt>
      <trkpt lat="46.62171" lon="10.85003">
        <ele>658.64</ele>
        <time>2012-08-02T12:11:55Z</time>
      </trkpt>
      <trkpt lat="46.62158" lon="10.84869">
        <ele>656.72</ele>
        <time>2012-08-02T12:12:01Z</time>
      </trkpt>
      <trkpt lat="46.62107" lon="10.84713">
        <ele>657.2</ele>
        <time>2012-08-02T12:12:10Z</time>
      </trkpt>
      <trkpt lat="46.62023" lon="10.8444">
        <ele>659.6</ele>
        <time>2012-08-02T12:12:23Z</time>
      </trkpt>
      <trkpt lat="46.62017" lon="10.84418">
        <ele>659.6</ele>
        <time>2012-08-02T12:12:24Z</time>
      </trkpt>
      <trkpt lat="46.61966" lon="10.84239">
        <ele>662.97</ele>
        <time>2012-08-02T12:12:32Z</time>
      </trkpt>
      <trkpt lat="46.6193" lon="10.84122">
        <ele>666.33</ele>
        <time>2012-08-02T12:12:37Z</time>
      </trkpt>
      <trkpt lat="46.61895" lon="10.83971">
        <ele>668.25</ele>
        <time>2012-08-02T12:12:43Z</time>
      </trkpt>
      <trkpt lat="46.61893" lon="10.83944">
        <ele>668.73</ele>
        <time>2012-08-02T12:12:44Z</time>
      </trkpt>
      <trkpt lat="46.61893" lon="10.83917">
        <ele>671.14</ele>
        <time>2012-08-02T12:12:45Z</time>
      </trkpt>
      <trkpt lat="46.61895" lon="10.8389">
        <ele>673.06</ele>
        <time>2012-08-02T12:12:46Z</time>
      </trkpt>
      <trkpt lat="46.61898" lon="10.83862">
        <ele>672.58</ele>
        <time>2012-08-02T12:12:47Z</time>
      </trkpt>
      <trkpt lat="46.61903" lon="10.83835">
        <ele>673.06</ele>
        <time>2012-08-02T12:12:48Z</time>
      </trkpt>
      <trkpt lat="46.61909" lon="10.83809">
        <ele>672.1</ele>
        <time>2012-08-02T12:12:49Z</time>
      </trkpt>
      <trkpt lat="46.61917" lon="10.83783">
        <ele>672.1</ele>
        <time>2012-08-02T12:12:50Z</time>
      </trkpt>
      <trkpt lat="46.61925" lon="10.83759">
        <ele>671.62</ele>
        <time>2012-08-02T12:12:51Z</time>
      </trkpt>
      <trkpt lat="46.62031" lon="10.83487">
        <ele>670.66</ele>
        <time>2012-08-02T12:13:03Z</time>
      </trkpt>
      <trkpt lat="46.62128" lon="10.83194">
        <ele>671.14</ele>
        <time>2012-08-02T12:13:15Z</time>
      </trkpt>
      <trkpt lat="46.62139" lon="10.83107">
        <ele>672.58</ele>
        <time>2012-08-02T12:13:18Z</time>
      </trkpt>
      <trkpt lat="46.62136" lon="10.82867">
        <ele>674.98</ele>
        <time>2012-08-02T12:13:26Z</time>
      </trkpt>
      <trkpt lat="46.62124" lon="10.82597">
        <ele>679.31</ele>
        <time>2012-08-02T12:13:35Z</time>
      </trkpt>
      <trkpt lat="46.6212" lon="10.82509">
        <ele>681.23</ele>
        <time>2012-08-02T12:13:38Z</time>
      </trkpt>
      <trkpt lat="46.62111" lon="10.82302">
        <ele>684.6</ele>
        <time>2012-08-02T12:13:45Z</time>
      </trkpt>
      <trkpt lat="46.62109" lon="10.82272">
        <ele>684.6</ele>
        <time>2012-08-02T12:13:46Z</time>
      </trkpt>
      <trkpt lat="46.62121" lon="10.82036">
        <ele>686.52</ele>
        <time>2012-08-02T12:13:54Z</time>
      </trkpt>
      <trkpt lat="46.6213" lon="10.81979">
        <ele>693.73</ele>
        <time>2012-08-02T12:13:56Z</time>
      </trkpt>
      <trkpt lat="46.62134" lon="10.81951">
        <ele>689.88</ele>
        <time>2012-08-02T12:13:57Z</time>
      </trkpt>
      <trkpt lat="46.62138" lon="10.81928">
        <ele>680.27</ele>
        <time>2012-08-02T12:13:58Z</time>
      </trkpt>
      <trkpt lat="46.62142" lon="10.81898">
        <ele>686.04</ele>
        <time>2012-08-02T12:13:59Z</time>
      </trkpt>
      <trkpt lat="46.62138" lon="10.81897">
        <ele>687.48</ele>
        <time>2012-08-02T12:14:00Z</time>
      </trkpt>
      <trkpt lat="46.62138" lon="10.81902">
        <ele>691.81</ele>
        <time>2012-08-02T12:14:01Z</time>
      </trkpt>
      <trkpt lat="46.62137" lon="10.81905">
        <ele>688.44</ele>
        <time>2012-08-02T12:14:02Z</time>
      </trkpt>
      <trkpt lat="46.62179" lon="10.81658">
        <ele>685.56</ele>
        <time>2012-08-02T12:14:07Z</time>
      </trkpt>
      <trkpt lat="46.62183" lon="10.81629">
        <ele>685.56</ele>
        <time>2012-08-02T12:14:08Z</time>
      </trkpt>
      <trkpt lat="46.62206" lon="10.81458">
        <ele>681.71</ele>
        <time>2012-08-02T12:14:14Z</time>
      </trkpt>
      <trkpt lat="46.6221" lon="10.8143">
        <ele>681.71</ele>
        <time>2012-08-02T12:14:15Z</time>
      </trkpt>
      <trkpt lat="46.6227" lon="10.80999">
        <ele>684.6</ele>
        <time>2012-08-02T12:14:30Z</time>
      </trkpt>
      <trkpt lat="46.62283" lon="10.80908">
        <ele>681.71</ele>
        <time>2012-08-02T12:14:34Z</time>
      </trkpt>
      <trkpt lat="46.62294" lon="10.80825">
        <ele>681.23</ele>
        <time>2012-08-02T12:14:41Z</time>
      </trkpt>
      <trkpt lat="46.62297" lon="10.80794">
        <ele>681.71</ele>
        <time>2012-08-02T12:14:50Z</time>
      </trkpt>
      <trkpt lat="46.62303" lon="10.80704">
        <ele>683.15</ele>
        <time>2012-08-02T12:14:57Z</time>
      </trkpt>
      <trkpt lat="46.6231" lon="10.80526">
        <ele>686.52</ele>
        <time>2012-08-02T12:15:06Z</time>
      </trkpt>
      <trkpt lat="46.62311" lon="10.80502">
        <ele>686.52</ele>
        <time>2012-08-02T12:15:07Z</time>
      </trkpt>
      <trkpt lat="46.62322" lon="10.80206">
        <ele>689.4</ele>
        <time>2012-08-02T12:15:18Z</time>
      </trkpt>
      <trkpt lat="46.62331" lon="10.80127">
        <ele>689.4</ele>
        <time>2012-08-02T12:15:21Z</time>
      </trkpt>
      <trkpt lat="46.62338" lon="10.80102">
        <ele>689.4</ele>
        <time>2012-08-02T12:15:22Z</time>
      </trkpt>
      <trkpt lat="46.62347" lon="10.80079">
        <ele>690.36</ele>
        <time>2012-08-02T12:15:23Z</time>
      </trkpt>
      <trkpt lat="46.62358" lon="10.80057">
        <ele>690.36</ele>
        <time>2012-08-02T12:15:24Z</time>
      </trkpt>
      <trkpt lat="46.6237" lon="10.80035">
        <ele>691.33</ele>
        <time>2012-08-02T12:15:25Z</time>
      </trkpt>
      <trkpt lat="46.62382" lon="10.80013">
        <ele>691.33</ele>
        <time>2012-08-02T12:15:26Z</time>
      </trkpt>
      <trkpt lat="46.62429" lon="10.79925">
        <ele>692.29</ele>
        <time>2012-08-02T12:15:30Z</time>
      </trkpt>
      <trkpt lat="46.62499" lon="10.79795">
        <ele>693.25</ele>
        <time>2012-08-02T12:15:36Z</time>
      </trkpt>
      <trkpt lat="46.62507" lon="10.7977">
        <ele>693.25</ele>
        <time>2012-08-02T12:15:37Z</time>
      </trkpt>
      <trkpt lat="46.62513" lon="10.79744">
        <ele>694.21</ele>
        <time>2012-08-02T12:15:38Z</time>
      </trkpt>
      <trkpt lat="46.62518" lon="10.79717">
        <ele>694.69</ele>
        <time>2012-08-02T12:15:39Z</time>
      </trkpt>
      <trkpt lat="46.62521" lon="10.79689">
        <ele>695.65</ele>
        <time>2012-08-02T12:15:40Z</time>
      </trkpt>
      <trkpt lat="46.62524" lon="10.79661">
        <ele>695.65</ele>
        <time>2012-08-02T12:15:41Z</time>
      </trkpt>
      <trkpt lat="46.62569" lon="10.79245">
        <ele>699.98</ele>
        <time>2012-08-02T12:15:56Z</time>
      </trkpt>
      <trkpt lat="46.62605" lon="10.78896">
        <ele>703.34</ele>
        <time>2012-08-02T12:16:09Z</time>
      </trkpt>
      <trkpt lat="46.6261" lon="10.78633">
        <ele>701.9</ele>
        <time>2012-08-02T12:16:20Z</time>
      </trkpt>
      <trkpt lat="46.62613" lon="10.78371">
        <ele>703.82</ele>
        <time>2012-08-02T12:16:31Z</time>
      </trkpt>
      <trkpt lat="46.62613" lon="10.78213">
        <ele>706.23</ele>
        <time>2012-08-02T12:16:40Z</time>
      </trkpt>
      <trkpt lat="46.62614" lon="10.78078">
        <ele>709.59</ele>
        <time>2012-08-02T12:16:48Z</time>
      </trkpt>
      <trkpt lat="46.62585" lon="10.77933">
        <ele>711.03</ele>
        <time>2012-08-02T12:16:56Z</time>
      </trkpt>
      <trkpt lat="46.62564" lon="10.77856">
        <ele>708.63</ele>
        <time>2012-08-02T12:17:01Z</time>
      </trkpt>
      <trkpt lat="46.62562" lon="10.77842">
        <ele>709.11</ele>
        <time>2012-08-02T12:17:02Z</time>
      </trkpt>
      <trkpt lat="46.62559" lon="10.77828">
        <ele>709.11</ele>
        <time>2012-08-02T12:17:03Z</time>
      </trkpt>
      <trkpt lat="46.62554" lon="10.77815">
        <ele>709.59</ele>
        <time>2012-08-02T12:17:04Z</time>
      </trkpt>
      <trkpt lat="46.62548" lon="10.778">
        <ele>709.59</ele>
        <time>2012-08-02T12:17:05Z</time>
      </trkpt>
      <trkpt lat="46.62542" lon="10.77785">
        <ele>710.07</ele>
        <time>2012-08-02T12:17:06Z</time>
      </trkpt>
      <trkpt lat="46.62526" lon="10.77728">
        <ele>711.51</ele>
        <time>2012-08-02T12:17:09Z</time>
      </trkpt>
      <trkpt lat="46.62489" lon="10.77596">
        <ele>714.4</ele>
        <time>2012-08-02T12:17:15Z</time>
      </trkpt>
      <trkpt lat="46.62439" lon="10.77386">
        <ele>716.32</ele>
        <time>2012-08-02T12:17:25Z</time>
      </trkpt>
      <trkpt lat="46.62439" lon="10.77366">
        <ele>716.32</ele>
        <time>2012-08-02T12:17:26Z</time>
      </trkpt>
      <trkpt lat="46.62439" lon="10.77347">
        <ele>717.28</ele>
        <time>2012-08-02T12:17:27Z</time>
      </trkpt>
      <trkpt lat="46.62441" lon="10.77327">
        <ele>717.76</ele>
        <time>2012-08-02T12:17:28Z</time>
      </trkpt>
      <trkpt lat="46.62443" lon="10.77307">
        <ele>718.24</ele>
        <time>2012-08-02T12:17:29Z</time>
      </trkpt>
      <trkpt lat="46.62447" lon="10.77288">
        <ele>718.24</ele>
        <time>2012-08-02T12:17:30Z</time>
      </trkpt>
      <trkpt lat="46.62452" lon="10.77269">
        <ele>718.72</ele>
        <time>2012-08-02T12:17:31Z</time>
      </trkpt>
      <trkpt lat="46.62459" lon="10.7725">
        <ele>719.2</ele>
        <time>2012-08-02T12:17:32Z</time>
      </trkpt>
      <trkpt lat="46.62466" lon="10.77232">
        <ele>719.2</ele>
        <time>2012-08-02T12:17:33Z</time>
      </trkpt>
      <trkpt lat="46.62474" lon="10.77215">
        <ele>720.16</ele>
        <time>2012-08-02T12:17:34Z</time>
      </trkpt>
      <trkpt lat="46.62483" lon="10.77199">
        <ele>720.65</ele>
        <time>2012-08-02T12:17:35Z</time>
      </trkpt>
      <trkpt lat="46.62492" lon="10.77184">
        <ele>721.61</ele>
        <time>2012-08-02T12:17:36Z</time>
      </trkpt>
      <trkpt lat="46.62502" lon="10.77171">
        <ele>722.09</ele>
        <time>2012-08-02T12:17:37Z</time>
      </trkpt>
      <trkpt lat="46.62513" lon="10.77159">
        <ele>722.57</ele>
        <time>2012-08-02T12:17:38Z</time>
      </trkpt>
      <trkpt lat="46.62525" lon="10.77147">
        <ele>722.57</ele>
        <time>2012-08-02T12:17:39Z</time>
      </trkpt>
      <trkpt lat="46.62583" lon="10.77088">
        <ele>725.93</ele>
        <time>2012-08-02T12:17:44Z</time>
      </trkpt>
      <trkpt lat="46.62595" lon="10.77077">
        <ele>725.93</ele>
        <time>2012-08-02T12:17:45Z</time>
      </trkpt>
      <trkpt lat="46.62646" lon="10.77045">
        <ele>730.26</ele>
        <time>2012-08-02T12:17:49Z</time>
      </trkpt>
      <trkpt lat="46.62698" lon="10.77018">
        <ele>732.18</ele>
        <time>2012-08-02T12:17:53Z</time>
      </trkpt>
      <trkpt lat="46.62742" lon="10.76994">
        <ele>734.1</ele>
        <time>2012-08-02T12:17:59Z</time>
      </trkpt>
      <trkpt lat="46.62774" lon="10.76978">
        <ele>736.03</ele>
        <time>2012-08-02T12:18:07Z</time>
      </trkpt>
      <trkpt lat="46.6278" lon="10.76977">
        <ele>736.51</ele>
        <time>2012-08-02T12:18:08Z</time>
      </trkpt>
      <trkpt lat="46.62786" lon="10.76977">
        <ele>736.99</ele>
        <time>2012-08-02T12:18:09Z</time>
      </trkpt>
      <trkpt lat="46.628" lon="10.76976">
        <ele>737.47</ele>
        <time>2012-08-02T12:18:11Z</time>
      </trkpt>
      <trkpt lat="46.62816" lon="10.76974">
        <ele>738.43</ele>
        <time>2012-08-02T12:18:13Z</time>
      </trkpt>
      <trkpt lat="46.62826" lon="10.76975">
        <ele>738.91</ele>
        <time>2012-08-02T12:18:14Z</time>
      </trkpt>
      <trkpt lat="46.6287" lon="10.76985">
        <ele>742.28</ele>
        <time>2012-08-02T12:18:18Z</time>
      </trkpt>
      <trkpt lat="46.62915" lon="10.76996">
        <ele>745.64</ele>
        <time>2012-08-02T12:18:22Z</time>
      </trkpt>
      <trkpt lat="46.62925" lon="10.77001">
        <ele>745.64</ele>
        <time>2012-08-02T12:18:23Z</time>
      </trkpt>
      <trkpt lat="46.62934" lon="10.77007">
        <ele>746.12</ele>
        <time>2012-08-02T12:18:24Z</time>
      </trkpt>
      <trkpt lat="46.62952" lon="10.77019">
        <ele>746.6</ele>
        <time>2012-08-02T12:18:26Z</time>
      </trkpt>
      <trkpt lat="46.6296" lon="10.77027">
        <ele>747.08</ele>
        <time>2012-08-02T12:18:27Z</time>
      </trkpt>
      <trkpt lat="46.62985" lon="10.77053">
        <ele>749.49</ele>
        <time>2012-08-02T12:18:30Z</time>
      </trkpt>
      <trkpt lat="46.62995" lon="10.77059">
        <ele>749.97</ele>
        <time>2012-08-02T12:18:31Z</time>
      </trkpt>
      <trkpt lat="46.63005" lon="10.77061">
        <ele>749.97</ele>
        <time>2012-08-02T12:18:32Z</time>
      </trkpt>
      <trkpt lat="46.63016" lon="10.7706">
        <ele>750.93</ele>
        <time>2012-08-02T12:18:33Z</time>
      </trkpt>
      <trkpt lat="46.63026" lon="10.77054">
        <ele>751.89</ele>
        <time>2012-08-02T12:18:34Z</time>
      </trkpt>
      <trkpt lat="46.63035" lon="10.77044">
        <ele>752.85</ele>
        <time>2012-08-02T12:18:35Z</time>
      </trkpt>
      <trkpt lat="46.63042" lon="10.77031">
        <ele>753.33</ele>
        <time>2012-08-02T12:18:36Z</time>
      </trkpt>
      <trkpt lat="46.63046" lon="10.77016">
        <ele>752.85</ele>
        <time>2012-08-02T12:18:37Z</time>
      </trkpt>
      <trkpt lat="46.63051" lon="10.77">
        <ele>753.33</ele>
        <time>2012-08-02T12:18:38Z</time>
      </trkpt>
      <trkpt lat="46.63067" lon="10.76931">
        <ele>757.18</ele>
        <time>2012-08-02T12:18:42Z</time>
      </trkpt>
      <trkpt lat="46.6308" lon="10.76879">
        <ele>759.58</ele>
        <time>2012-08-02T12:18:45Z</time>
      </trkpt>
      <trkpt lat="46.63099" lon="10.76803">
        <ele>762.94</ele>
        <time>2012-08-02T12:18:49Z</time>
      </trkpt>
      <trkpt lat="46.63104" lon="10.76783">
        <ele>762.94</ele>
        <time>2012-08-02T12:18:50Z</time>
      </trkpt>
      <trkpt lat="46.63114" lon="10.76707">
        <ele>765.35</ele>
        <time>2012-08-02T12:18:54Z</time>
      </trkpt>
      <trkpt lat="46.63112" lon="10.76648">
        <ele>768.23</ele>
        <time>2012-08-02T12:18:57Z</time>
      </trkpt>
      <trkpt lat="46.6311" lon="10.76628">
        <ele>768.71</ele>
        <time>2012-08-02T12:18:58Z</time>
      </trkpt>
      <trkpt lat="46.63073" lon="10.76514">
        <ele>771.6</ele>
        <time>2012-08-02T12:19:05Z</time>
      </trkpt>
      <trkpt lat="46.6305" lon="10.76479">
        <ele>772.56</ele>
        <time>2012-08-02T12:19:08Z</time>
      </trkpt>
      <trkpt lat="46.62972" lon="10.7637">
        <ele>775.92</ele>
        <time>2012-08-02T12:19:17Z</time>
      </trkpt>
      <trkpt lat="46.62926" lon="10.76307">
        <ele>776.4</ele>
        <time>2012-08-02T12:19:24Z</time>
      </trkpt>
      <trkpt lat="46.62909" lon="10.76284">
        <ele>777.36</ele>
        <time>2012-08-02T12:19:31Z</time>
      </trkpt>
      <trkpt lat="46.629" lon="10.76269">
        <ele>778.32</ele>
        <time>2012-08-02T12:19:34Z</time>
      </trkpt>
      <trkpt lat="46.62896" lon="10.76262">
        <ele>778.81</ele>
        <time>2012-08-02T12:19:35Z</time>
      </trkpt>
      <trkpt lat="46.62892" lon="10.76254">
        <ele>778.81</ele>
        <time>2012-08-02T12:19:36Z</time>
      </trkpt>
      <trkpt lat="46.62887" lon="10.76247">
        <ele>778.81</ele>
        <time>2012-08-02T12:19:37Z</time>
      </trkpt>
      <trkpt lat="46.62881" lon="10.7624">
        <ele>779.29</ele>
        <time>2012-08-02T12:19:38Z</time>
      </trkpt>
      <trkpt lat="46.62873" lon="10.76233">
        <ele>779.29</ele>
        <time>2012-08-02T12:19:39Z</time>
      </trkpt>
      <trkpt lat="46.62866" lon="10.76224">
        <ele>779.29</ele>
        <time>2012-08-02T12:19:40Z</time>
      </trkpt>
      <trkpt lat="46.62858" lon="10.76214">
        <ele>779.29</ele>
        <time>2012-08-02T12:19:41Z</time>
      </trkpt>
      <trkpt lat="46.62803" lon="10.7614">
        <ele>782.65</ele>
        <time>2012-08-02T12:19:48Z</time>
      </trkpt>
      <trkpt lat="46.6278" lon="10.76109">
        <ele>782.17</ele>
        <time>2012-08-02T12:19:53Z</time>
      </trkpt>
      <trkpt lat="46.6276" lon="10.76078">
        <ele>783.61</ele>
        <time>2012-08-02T12:20:01Z</time>
      </trkpt>
      <trkpt lat="46.62751" lon="10.76061">
        <ele>784.57</ele>
        <time>2012-08-02T12:20:03Z</time>
      </trkpt>
      <trkpt lat="46.62722" lon="10.76008">
        <ele>787.94</ele>
        <time>2012-08-02T12:20:08Z</time>
      </trkpt>
      <trkpt lat="46.62715" lon="10.75995">
        <ele>787.94</ele>
        <time>2012-08-02T12:20:09Z</time>
      </trkpt>
      <trkpt lat="46.62691" lon="10.75949">
        <ele>791.3</ele>
        <time>2012-08-02T12:20:12Z</time>
      </trkpt>
      <trkpt lat="46.62656" lon="10.75885">
        <ele>794.67</ele>
        <time>2012-08-02T12:20:16Z</time>
      </trkpt>
      <trkpt lat="46.62647" lon="10.75868">
        <ele>794.67</ele>
        <time>2012-08-02T12:20:17Z</time>
      </trkpt>
      <trkpt lat="46.62602" lon="10.75784">
        <ele>798.03</ele>
        <time>2012-08-02T12:20:22Z</time>
      </trkpt>
      <trkpt lat="46.62563" lon="10.75715">
        <ele>802.36</ele>
        <time>2012-08-02T12:20:26Z</time>
      </trkpt>
      <trkpt lat="46.62553" lon="10.75697">
        <ele>802.36</ele>
        <time>2012-08-02T12:20:27Z</time>
      </trkpt>
      <trkpt lat="46.62514" lon="10.75624">
        <ele>805.72</ele>
        <time>2012-08-02T12:20:31Z</time>
      </trkpt>
      <trkpt lat="46.62465" lon="10.75532">
        <ele>809.09</ele>
        <time>2012-08-02T12:20:36Z</time>
      </trkpt>
      <trkpt lat="46.62458" lon="10.75513">
        <ele>809.57</ele>
        <time>2012-08-02T12:20:37Z</time>
      </trkpt>
      <trkpt lat="46.62453" lon="10.75491">
        <ele>810.53</ele>
        <time>2012-08-02T12:20:38Z</time>
      </trkpt>
      <trkpt lat="46.62451" lon="10.75469">
        <ele>810.53</ele>
        <time>2012-08-02T12:20:39Z</time>
      </trkpt>
      <trkpt lat="46.62451" lon="10.75445">
        <ele>811.01</ele>
        <time>2012-08-02T12:20:40Z</time>
      </trkpt>
      <trkpt lat="46.62455" lon="10.75422">
        <ele>811.97</ele>
        <time>2012-08-02T12:20:41Z</time>
      </trkpt>
      <trkpt lat="46.62462" lon="10.75401">
        <ele>813.41</ele>
        <time>2012-08-02T12:20:42Z</time>
      </trkpt>
      <trkpt lat="46.62472" lon="10.75382">
        <ele>813.89</ele>
        <time>2012-08-02T12:20:43Z</time>
      </trkpt>
      <trkpt lat="46.62484" lon="10.75366">
        <ele>813.89</ele>
        <time>2012-08-02T12:20:44Z</time>
      </trkpt>
      <trkpt lat="46.62497" lon="10.75354">
        <ele>814.85</ele>
        <time>2012-08-02T12:20:45Z</time>
      </trkpt>
      <trkpt lat="46.62513" lon="10.75347">
        <ele>815.34</ele>
        <time>2012-08-02T12:20:46Z</time>
      </trkpt>
      <trkpt lat="46.62528" lon="10.75344">
        <ele>816.3</ele>
        <time>2012-08-02T12:20:47Z</time>
      </trkpt>
      <trkpt lat="46.62541" lon="10.75343">
        <ele>816.78</ele>
        <time>2012-08-02T12:20:48Z</time>
      </trkpt>
      <trkpt lat="46.62618" lon="10.75337">
        <ele>820.14</ele>
        <time>2012-08-02T12:20:55Z</time>
      </trkpt>
      <trkpt lat="46.62648" lon="10.75334">
        <ele>821.58</ele>
        <time>2012-08-02T12:20:58Z</time>
      </trkpt>
      <trkpt lat="46.62747" lon="10.75326">
        <ele>825.43</ele>
        <time>2012-08-02T12:21:09Z</time>
      </trkpt>
      <trkpt lat="46.62808" lon="10.75321">
        <ele>827.83</ele>
        <time>2012-08-02T12:21:16Z</time>
      </trkpt>
      <trkpt lat="46.62822" lon="10.75317">
        <ele>828.79</ele>
        <time>2012-08-02T12:21:18Z</time>
      </trkpt>
      <trkpt lat="46.62827" lon="10.75314">
        <ele>828.31</ele>
        <time>2012-08-02T12:21:19Z</time>
      </trkpt>
      <trkpt lat="46.62833" lon="10.75311">
        <ele>829.27</ele>
        <time>2012-08-02T12:21:20Z</time>
      </trkpt>
      <trkpt lat="46.62838" lon="10.75307">
        <ele>829.27</ele>
        <time>2012-08-02T12:21:21Z</time>
      </trkpt>
      <trkpt lat="46.62843" lon="10.75302">
        <ele>829.76</ele>
        <time>2012-08-02T12:21:22Z</time>
      </trkpt>
      <trkpt lat="46.62848" lon="10.75296">
        <ele>830.24</ele>
        <time>2012-08-02T12:21:23Z</time>
      </trkpt>
      <trkpt lat="46.62853" lon="10.75289">
        <ele>830.72</ele>
        <time>2012-08-02T12:21:24Z</time>
      </trkpt>
      <trkpt lat="46.62857" lon="10.75282">
        <ele>830.72</ele>
        <time>2012-08-02T12:21:25Z</time>
      </trkpt>
      <trkpt lat="46.62861" lon="10.75274">
        <ele>831.2</ele>
        <time>2012-08-02T12:21:26Z</time>
      </trkpt>
      <trkpt lat="46.62865" lon="10.75265">
        <ele>831.68</ele>
        <time>2012-08-02T12:21:27Z</time>
      </trkpt>
      <trkpt lat="46.62868" lon="10.75255">
        <ele>832.64</ele>
        <time>2012-08-02T12:21:28Z</time>
      </trkpt>
      <trkpt lat="46.62871" lon="10.75244">
        <ele>832.64</ele>
        <time>2012-08-02T12:21:29Z</time>
      </trkpt>
      <trkpt lat="46.62873" lon="10.75232">
        <ele>834.08</ele>
        <time>2012-08-02T12:21:30Z</time>
      </trkpt>
      <trkpt lat="46.62874" lon="10.7522">
        <ele>835.04</ele>
        <time>2012-08-02T12:21:31Z</time>
      </trkpt>
      <trkpt lat="46.62874" lon="10.75208">
        <ele>835.04</ele>
        <time>2012-08-02T12:21:32Z</time>
      </trkpt>
      <trkpt lat="46.62873" lon="10.75196">
        <ele>835.52</ele>
        <time>2012-08-02T12:21:33Z</time>
      </trkpt>
      <trkpt lat="46.62871" lon="10.75183">
        <ele>836</ele>
        <time>2012-08-02T12:21:34Z</time>
      </trkpt>
      <trkpt lat="46.62868" lon="10.75171">
        <ele>836</ele>
        <time>2012-08-02T12:21:35Z</time>
      </trkpt>
      <trkpt lat="46.62862" lon="10.75158">
        <ele>837.45</ele>
        <time>2012-08-02T12:21:36Z</time>
      </trkpt>
      <trkpt lat="46.62854" lon="10.75144">
        <ele>838.41</ele>
        <time>2012-08-02T12:21:37Z</time>
      </trkpt>
      <trkpt lat="46.62845" lon="10.75128">
        <ele>840.81</ele>
        <time>2012-08-02T12:21:38Z</time>
      </trkpt>
      <trkpt lat="46.62812" lon="10.75073">
        <ele>842.73</ele>
        <time>2012-08-02T12:21:41Z</time>
      </trkpt>
      <trkpt lat="46.62762" lon="10.74992">
        <ele>846.1</ele>
        <time>2012-08-02T12:21:47Z</time>
      </trkpt>
      <trkpt lat="46.62733" lon="10.74944">
        <ele>850.42</ele>
        <time>2012-08-02T12:21:50Z</time>
      </trkpt>
      <trkpt lat="46.627" lon="10.74889">
        <ele>853.31</ele>
        <time>2012-08-02T12:21:53Z</time>
      </trkpt>
      <trkpt lat="46.6267" lon="10.74832">
        <ele>855.71</ele>
        <time>2012-08-02T12:21:56Z</time>
      </trkpt>
      <trkpt lat="46.62632" lon="10.74756">
        <ele>858.59</ele>
        <time>2012-08-02T12:22:00Z</time>
      </trkpt>
      <trkpt lat="46.62594" lon="10.7468">
        <ele>861.96</ele>
        <time>2012-08-02T12:22:04Z</time>
      </trkpt>
      <trkpt lat="46.62568" lon="10.74619">
        <ele>863.88</ele>
        <time>2012-08-02T12:22:07Z</time>
      </trkpt>
      <trkpt lat="46.62543" lon="10.74557">
        <ele>867.25</ele>
        <time>2012-08-02T12:22:10Z</time>
      </trkpt>
      <trkpt lat="46.62535" lon="10.74537">
        <ele>867.73</ele>
        <time>2012-08-02T12:22:11Z</time>
      </trkpt>
      <trkpt lat="46.62505" lon="10.74458">
        <ele>871.09</ele>
        <time>2012-08-02T12:22:15Z</time>
      </trkpt>
      <trkpt lat="46.62493" lon="10.74415">
        <ele>874.46</ele>
        <time>2012-08-02T12:22:17Z</time>
      </trkpt>
      <trkpt lat="46.62479" lon="10.74346">
        <ele>878.3</ele>
        <time>2012-08-02T12:22:20Z</time>
      </trkpt>
      <trkpt lat="46.62465" lon="10.74255">
        <ele>882.63</ele>
        <time>2012-08-02T12:22:24Z</time>
      </trkpt>
      <trkpt lat="46.62445" lon="10.74167">
        <ele>886.95</ele>
        <time>2012-08-02T12:22:28Z</time>
      </trkpt>
      <trkpt lat="46.62439" lon="10.74145">
        <ele>888.4</ele>
        <time>2012-08-02T12:22:29Z</time>
      </trkpt>
      <trkpt lat="46.62432" lon="10.74125">
        <ele>889.84</ele>
        <time>2012-08-02T12:22:30Z</time>
      </trkpt>
      <trkpt lat="46.62423" lon="10.74107">
        <ele>890.8</ele>
        <time>2012-08-02T12:22:31Z</time>
      </trkpt>
      <trkpt lat="46.62413" lon="10.74092">
        <ele>891.28</ele>
        <time>2012-08-02T12:22:32Z</time>
      </trkpt>
      <trkpt lat="46.62403" lon="10.74079">
        <ele>891.76</ele>
        <time>2012-08-02T12:22:33Z</time>
      </trkpt>
      <trkpt lat="46.62391" lon="10.74066">
        <ele>892.24</ele>
        <time>2012-08-02T12:22:34Z</time>
      </trkpt>
      <trkpt lat="46.62378" lon="10.74054">
        <ele>893.2</ele>
        <time>2012-08-02T12:22:35Z</time>
      </trkpt>
      <trkpt lat="46.6235" lon="10.74028">
        <ele>894.16</ele>
        <time>2012-08-02T12:22:37Z</time>
      </trkpt>
      <trkpt lat="46.62253" lon="10.73919">
        <ele>897.05</ele>
        <time>2012-08-02T12:22:44Z</time>
      </trkpt>
      <trkpt lat="46.62136" lon="10.73815">
        <ele>895.12</ele>
        <time>2012-08-02T12:22:52Z</time>
      </trkpt>
      <trkpt lat="46.62016" lon="10.73652">
        <ele>895.12</ele>
        <time>2012-08-02T12:23:02Z</time>
      </trkpt>
      <trkpt lat="46.61919" lon="10.73481">
        <ele>893.2</ele>
        <time>2012-08-02T12:23:12Z</time>
      </trkpt>
      <trkpt lat="46.61911" lon="10.73461">
        <ele>893.2</ele>
        <time>2012-08-02T12:23:13Z</time>
      </trkpt>
      <trkpt lat="46.61906" lon="10.7344">
        <ele>893.2</ele>
        <time>2012-08-02T12:23:14Z</time>
      </trkpt>
      <trkpt lat="46.619" lon="10.73419">
        <ele>893.2</ele>
        <time>2012-08-02T12:23:15Z</time>
      </trkpt>
      <trkpt lat="46.61893" lon="10.73398">
        <ele>892.72</ele>
        <time>2012-08-02T12:23:16Z</time>
      </trkpt>
      <trkpt lat="46.61886" lon="10.7338">
        <ele>893.2</ele>
        <time>2012-08-02T12:23:17Z</time>
      </trkpt>
      <trkpt lat="46.61877" lon="10.73364">
        <ele>892.72</ele>
        <time>2012-08-02T12:23:18Z</time>
      </trkpt>
      <trkpt lat="46.61868" lon="10.73348">
        <ele>892.72</ele>
        <time>2012-08-02T12:23:19Z</time>
      </trkpt>
      <trkpt lat="46.61766" lon="10.73208">
        <ele>891.28</ele>
        <time>2012-08-02T12:23:28Z</time>
      </trkpt>
      <trkpt lat="46.61756" lon="10.7319">
        <ele>891.28</ele>
        <time>2012-08-02T12:23:29Z</time>
      </trkpt>
      <trkpt lat="46.61748" lon="10.73172">
        <ele>891.28</ele>
        <time>2012-08-02T12:23:30Z</time>
      </trkpt>
      <trkpt lat="46.61741" lon="10.73153">
        <ele>891.76</ele>
        <time>2012-08-02T12:23:31Z</time>
      </trkpt>
      <trkpt lat="46.61736" lon="10.73134">
        <ele>892.24</ele>
        <time>2012-08-02T12:23:32Z</time>
      </trkpt>
      <trkpt lat="46.61731" lon="10.73114">
        <ele>892.24</ele>
        <time>2012-08-02T12:23:33Z</time>
      </trkpt>
      <trkpt lat="46.61728" lon="10.73093">
        <ele>893.2</ele>
        <time>2012-08-02T12:23:34Z</time>
      </trkpt>
      <trkpt lat="46.61725" lon="10.73072">
        <ele>893.2</ele>
        <time>2012-08-02T12:23:35Z</time>
      </trkpt>
      <trkpt lat="46.61714" lon="10.7301">
        <ele>893.2</ele>
        <time>2012-08-02T12:23:38Z</time>
      </trkpt>
      <trkpt lat="46.61708" lon="10.72993">
        <ele>893.2</ele>
        <time>2012-08-02T12:23:39Z</time>
      </trkpt>
      <trkpt lat="46.617" lon="10.72978">
        <ele>893.68</ele>
        <time>2012-08-02T12:23:40Z</time>
      </trkpt>
      <trkpt lat="46.61683" lon="10.72948">
        <ele>894.16</ele>
        <time>2012-08-02T12:23:42Z</time>
      </trkpt>
      <trkpt lat="46.61677" lon="10.72931">
        <ele>894.64</ele>
        <time>2012-08-02T12:23:43Z</time>
      </trkpt>
      <trkpt lat="46.61671" lon="10.72912">
        <ele>894.64</ele>
        <time>2012-08-02T12:23:44Z</time>
      </trkpt>
      <trkpt lat="46.61644" lon="10.72776">
        <ele>897.53</ele>
        <time>2012-08-02T12:23:51Z</time>
      </trkpt>
      <trkpt lat="46.61644" lon="10.72687">
        <ele>899.93</ele>
        <time>2012-08-02T12:23:55Z</time>
      </trkpt>
      <trkpt lat="46.61643" lon="10.72666">
        <ele>900.41</ele>
        <time>2012-08-02T12:23:56Z</time>
      </trkpt>
      <trkpt lat="46.61641" lon="10.72645">
        <ele>900.89</ele>
        <time>2012-08-02T12:23:57Z</time>
      </trkpt>
      <trkpt lat="46.61639" lon="10.72624">
        <ele>901.37</ele>
        <time>2012-08-02T12:23:58Z</time>
      </trkpt>
      <trkpt lat="46.61619" lon="10.72513">
        <ele>904.26</ele>
        <time>2012-08-02T12:24:03Z</time>
      </trkpt>
      <trkpt lat="46.61616" lon="10.7249">
        <ele>904.26</ele>
        <time>2012-08-02T12:24:04Z</time>
      </trkpt>
      <trkpt lat="46.61605" lon="10.72348">
        <ele>908.58</ele>
        <time>2012-08-02T12:24:10Z</time>
      </trkpt>
      <trkpt lat="46.61604" lon="10.72325">
        <ele>908.58</ele>
        <time>2012-08-02T12:24:11Z</time>
      </trkpt>
      <trkpt lat="46.61604" lon="10.72169">
        <ele>909.54</ele>
        <time>2012-08-02T12:24:18Z</time>
      </trkpt>
      <trkpt lat="46.61607" lon="10.72147">
        <ele>909.54</ele>
        <time>2012-08-02T12:24:19Z</time>
      </trkpt>
      <trkpt lat="46.61611" lon="10.72125">
        <ele>909.54</ele>
        <time>2012-08-02T12:24:20Z</time>
      </trkpt>
      <trkpt lat="46.61636" lon="10.71988">
        <ele>912.91</ele>
        <time>2012-08-02T12:24:26Z</time>
      </trkpt>
      <trkpt lat="46.61659" lon="10.71764">
        <ele>913.39</ele>
        <time>2012-08-02T12:24:36Z</time>
      </trkpt>
      <trkpt lat="46.61677" lon="10.7148">
        <ele>916.27</ele>
        <time>2012-08-02T12:24:49Z</time>
      </trkpt>
      <trkpt lat="46.61689" lon="10.71406">
        <ele>917.72</ele>
        <time>2012-08-02T12:24:52Z</time>
      </trkpt>
      <trkpt lat="46.61745" lon="10.71191">
        <ele>918.68</ele>
        <time>2012-08-02T12:25:01Z</time>
      </trkpt>
      <trkpt lat="46.61864" lon="10.70845">
        <ele>917.72</ele>
        <time>2012-08-02T12:25:15Z</time>
      </trkpt>
      <trkpt lat="46.62007" lon="10.70464">
        <ele>914.83</ele>
        <time>2012-08-02T12:25:30Z</time>
      </trkpt>
      <trkpt lat="46.62059" lon="10.70331">
        <ele>911.47</ele>
        <time>2012-08-02T12:25:35Z</time>
      </trkpt>
      <trkpt lat="46.62069" lon="10.70305">
        <ele>911.47</ele>
        <time>2012-08-02T12:25:36Z</time>
      </trkpt>
      <trkpt lat="46.62121" lon="10.70169">
        <ele>908.58</ele>
        <time>2012-08-02T12:25:41Z</time>
      </trkpt>
      <trkpt lat="46.62151" lon="10.70092">
        <ele>907.14</ele>
        <time>2012-08-02T12:25:44Z</time>
      </trkpt>
      <trkpt lat="46.62181" lon="10.70017">
        <ele>903.3</ele>
        <time>2012-08-02T12:25:47Z</time>
      </trkpt>
      <trkpt lat="46.62191" lon="10.69991">
        <ele>904.26</ele>
        <time>2012-08-02T12:25:48Z</time>
      </trkpt>
      <trkpt lat="46.62241" lon="10.69862">
        <ele>900.41</ele>
        <time>2012-08-02T12:25:53Z</time>
      </trkpt>
      <trkpt lat="46.62283" lon="10.69754">
        <ele>897.05</ele>
        <time>2012-08-02T12:25:57Z</time>
      </trkpt>
      <trkpt lat="46.62313" lon="10.69675">
        <ele>893.2</ele>
        <time>2012-08-02T12:26:00Z</time>
      </trkpt>
      <trkpt lat="46.62344" lon="10.69598">
        <ele>889.84</ele>
        <time>2012-08-02T12:26:03Z</time>
      </trkpt>
      <trkpt lat="46.62364" lon="10.69545">
        <ele>887.91</ele>
        <time>2012-08-02T12:26:05Z</time>
      </trkpt>
      <trkpt lat="46.62397" lon="10.69464">
        <ele>885.03</ele>
        <time>2012-08-02T12:26:08Z</time>
      </trkpt>
      <trkpt lat="46.62439" lon="10.69353">
        <ele>881.67</ele>
        <time>2012-08-02T12:26:12Z</time>
      </trkpt>
      <trkpt lat="46.62448" lon="10.69326">
        <ele>881.67</ele>
        <time>2012-08-02T12:26:13Z</time>
      </trkpt>
      <trkpt lat="46.62475" lon="10.6924">
        <ele>880.22</ele>
        <time>2012-08-02T12:26:16Z</time>
      </trkpt>
      <trkpt lat="46.62558" lon="10.68886">
        <ele>881.19</ele>
        <time>2012-08-02T12:26:28Z</time>
      </trkpt>
      <trkpt lat="46.62643" lon="10.68481">
        <ele>884.07</ele>
        <time>2012-08-02T12:26:42Z</time>
      </trkpt>
      <trkpt lat="46.62708" lon="10.68174">
        <ele>887.91</ele>
        <time>2012-08-02T12:26:54Z</time>
      </trkpt>
      <trkpt lat="46.62713" lon="10.68148">
        <ele>887.91</ele>
        <time>2012-08-02T12:26:55Z</time>
      </trkpt>
      <trkpt lat="46.62781" lon="10.67801">
        <ele>890.32</ele>
        <time>2012-08-02T12:27:08Z</time>
      </trkpt>
      <trkpt lat="46.62812" lon="10.67483">
        <ele>893.68</ele>
        <time>2012-08-02T12:27:19Z</time>
      </trkpt>
      <trkpt lat="46.62843" lon="10.67108">
        <ele>893.2</ele>
        <time>2012-08-02T12:27:32Z</time>
      </trkpt>
      <trkpt lat="46.62879" lon="10.66682">
        <ele>892.72</ele>
        <time>2012-08-02T12:27:47Z</time>
      </trkpt>
      <trkpt lat="46.62883" lon="10.66628">
        <ele>894.64</ele>
        <time>2012-08-02T12:27:49Z</time>
      </trkpt>
      <trkpt lat="46.6288" lon="10.66499">
        <ele>892.24</ele>
        <time>2012-08-02T12:27:54Z</time>
      </trkpt>
      <trkpt lat="46.62844" lon="10.66166">
        <ele>893.2</ele>
        <time>2012-08-02T12:28:07Z</time>
      </trkpt>
      <trkpt lat="46.62852" lon="10.65911">
        <ele>894.64</ele>
        <time>2012-08-02T12:28:17Z</time>
      </trkpt>
      <trkpt lat="46.62869" lon="10.65599">
        <ele>895.61</ele>
        <time>2012-08-02T12:28:29Z</time>
      </trkpt>
      <trkpt lat="46.62875" lon="10.65319">
        <ele>894.16</ele>
        <time>2012-08-02T12:28:42Z</time>
      </trkpt>
      <trkpt lat="46.62877" lon="10.65172">
        <ele>891.28</ele>
        <time>2012-08-02T12:28:50Z</time>
      </trkpt>
      <trkpt lat="46.6288" lon="10.65072">
        <ele>888.88</ele>
        <time>2012-08-02T12:28:56Z</time>
      </trkpt>
      <trkpt lat="46.62884" lon="10.65032">
        <ele>887.43</ele>
        <time>2012-08-02T12:28:59Z</time>
      </trkpt>
      <trkpt lat="46.62891" lon="10.64981">
        <ele>885.99</ele>
        <time>2012-08-02T12:29:04Z</time>
      </trkpt>
      <trkpt lat="46.62896" lon="10.64933">
        <ele>885.51</ele>
        <time>2012-08-02T12:29:15Z</time>
      </trkpt>
      <trkpt lat="46.62907" lon="10.64844">
        <ele>884.07</ele>
        <time>2012-08-02T12:29:25Z</time>
      </trkpt>
      <trkpt lat="46.62927" lon="10.64683">
        <ele>880.71</ele>
        <time>2012-08-02T12:29:37Z</time>
      </trkpt>
      <trkpt lat="46.6295" lon="10.64507">
        <ele>878.3</ele>
        <time>2012-08-02T12:29:48Z</time>
      </trkpt>
      <trkpt lat="46.62974" lon="10.64316">
        <ele>876.86</ele>
        <time>2012-08-02T12:30:02Z</time>
      </trkpt>
      <trkpt lat="46.6299" lon="10.64189">
        <ele>876.38</ele>
        <time>2012-08-02T12:30:11Z</time>
      </trkpt>
      <trkpt lat="46.62992" lon="10.64178">
        <ele>876.86</ele>
        <time>2012-08-02T12:30:12Z</time>
      </trkpt>
      <trkpt lat="46.62996" lon="10.64168">
        <ele>876.38</ele>
        <time>2012-08-02T12:30:13Z</time>
      </trkpt>
      <trkpt lat="46.63004" lon="10.64151">
        <ele>875.9</ele>
        <time>2012-08-02T12:30:15Z</time>
      </trkpt>
      <trkpt lat="46.63005" lon="10.6414">
        <ele>876.38</ele>
        <time>2012-08-02T12:30:16Z</time>
      </trkpt>
      <trkpt lat="46.63003" lon="10.64129">
        <ele>876.86</ele>
        <time>2012-08-02T12:30:17Z</time>
      </trkpt>
      <trkpt lat="46.63001" lon="10.64117">
        <ele>876.86</ele>
        <time>2012-08-02T12:30:18Z</time>
      </trkpt>
      <trkpt lat="46.63001" lon="10.64104">
        <ele>876.86</ele>
        <time>2012-08-02T12:30:19Z</time>
      </trkpt>
      <trkpt lat="46.63003" lon="10.6409">
        <ele>876.86</ele>
        <time>2012-08-02T12:30:20Z</time>
      </trkpt>
      <trkpt lat="46.63005" lon="10.64076">
        <ele>876.86</ele>
        <time>2012-08-02T12:30:21Z</time>
      </trkpt>
      <trkpt lat="46.63026" lon="10.63905">
        <ele>879.74</ele>
        <time>2012-08-02T12:30:31Z</time>
      </trkpt>
      <trkpt lat="46.63039" lon="10.63804">
        <ele>881.19</ele>
        <time>2012-08-02T12:30:36Z</time>
      </trkpt>
      <trkpt lat="46.63052" lon="10.637">
        <ele>882.63</ele>
        <time>2012-08-02T12:30:41Z</time>
      </trkpt>
      <trkpt lat="46.63072" lon="10.6354">
        <ele>884.55</ele>
        <time>2012-08-02T12:30:48Z</time>
      </trkpt>
      <trkpt lat="46.63091" lon="10.63279">
        <ele>885.99</ele>
        <time>2012-08-02T12:30:59Z</time>
      </trkpt>
      <trkpt lat="46.63089" lon="10.63136">
        <ele>887.43</ele>
        <time>2012-08-02T12:31:05Z</time>
      </trkpt>
      <trkpt lat="46.63094" lon="10.62869">
        <ele>885.99</ele>
        <time>2012-08-02T12:31:16Z</time>
      </trkpt>
      <trkpt lat="46.63115" lon="10.62677">
        <ele>886.95</ele>
        <time>2012-08-02T12:31:23Z</time>
      </trkpt>
      <trkpt lat="46.63124" lon="10.62612">
        <ele>888.4</ele>
        <time>2012-08-02T12:31:25Z</time>
      </trkpt>
      <trkpt lat="46.63162" lon="10.62381">
        <ele>885.99</ele>
        <time>2012-08-02T12:31:33Z</time>
      </trkpt>
      <trkpt lat="46.63169" lon="10.62356">
        <ele>885.99</ele>
        <time>2012-08-02T12:31:34Z</time>
      </trkpt>
      <trkpt lat="46.63193" lon="10.62285">
        <ele>885.99</ele>
        <time>2012-08-02T12:31:37Z</time>
      </trkpt>
      <trkpt lat="46.63198" lon="10.62261">
        <ele>885.99</ele>
        <time>2012-08-02T12:31:38Z</time>
      </trkpt>
      <trkpt lat="46.63201" lon="10.62237">
        <ele>885.99</ele>
        <time>2012-08-02T12:31:39Z</time>
      </trkpt>
      <trkpt lat="46.63201" lon="10.62214">
        <ele>885.99</ele>
        <time>2012-08-02T12:31:40Z</time>
      </trkpt>
      <trkpt lat="46.63201" lon="10.62191">
        <ele>886.47</ele>
        <time>2012-08-02T12:31:41Z</time>
      </trkpt>
      <trkpt lat="46.63201" lon="10.62147">
        <ele>886.95</ele>
        <time>2012-08-02T12:31:43Z</time>
      </trkpt>
      <trkpt lat="46.63204" lon="10.62125">
        <ele>886.47</ele>
        <time>2012-08-02T12:31:44Z</time>
      </trkpt>
      <trkpt lat="46.63208" lon="10.62104">
        <ele>886.47</ele>
        <time>2012-08-02T12:31:45Z</time>
      </trkpt>
      <trkpt lat="46.63252" lon="10.6192">
        <ele>886.95</ele>
        <time>2012-08-02T12:31:54Z</time>
      </trkpt>
      <trkpt lat="46.63255" lon="10.619">
        <ele>886.47</ele>
        <time>2012-08-02T12:31:55Z</time>
      </trkpt>
      <trkpt lat="46.63256" lon="10.61879">
        <ele>886.47</ele>
        <time>2012-08-02T12:31:56Z</time>
      </trkpt>
      <trkpt lat="46.63258" lon="10.61836">
        <ele>886.95</ele>
        <time>2012-08-02T12:31:58Z</time>
      </trkpt>
      <trkpt lat="46.63261" lon="10.61815">
        <ele>888.4</ele>
        <time>2012-08-02T12:31:59Z</time>
      </trkpt>
      <trkpt lat="46.63264" lon="10.61795">
        <ele>888.4</ele>
        <time>2012-08-02T12:32:00Z</time>
      </trkpt>
      <trkpt lat="46.63269" lon="10.61776">
        <ele>888.88</ele>
        <time>2012-08-02T12:32:01Z</time>
      </trkpt>
      <trkpt lat="46.63275" lon="10.61759">
        <ele>889.36</ele>
        <time>2012-08-02T12:32:02Z</time>
      </trkpt>
      <trkpt lat="46.63282" lon="10.61742">
        <ele>889.36</ele>
        <time>2012-08-02T12:32:03Z</time>
      </trkpt>
      <trkpt lat="46.63311" lon="10.61653">
        <ele>890.32</ele>
        <time>2012-08-02T12:32:08Z</time>
      </trkpt>
      <trkpt lat="46.63314" lon="10.61635">
        <ele>890.8</ele>
        <time>2012-08-02T12:32:09Z</time>
      </trkpt>
      <trkpt lat="46.63332" lon="10.61525">
        <ele>889.36</ele>
        <time>2012-08-02T12:32:15Z</time>
      </trkpt>
      <trkpt lat="46.63356" lon="10.61437">
        <ele>887.43</ele>
        <time>2012-08-02T12:32:21Z</time>
      </trkpt>
      <trkpt lat="46.6336" lon="10.61422">
        <ele>886.47</ele>
        <time>2012-08-02T12:32:27Z</time>
      </trkpt>
      <trkpt lat="46.6336" lon="10.61421">
        <ele>886.47</ele>
        <time>2012-08-02T12:32:46Z</time>
      </trkpt>
      <trkpt lat="46.63359" lon="10.61421">
        <ele>887.43</ele>
        <time>2012-08-02T12:33:06Z</time>
      </trkpt>
      <trkpt lat="46.63357" lon="10.61415">
        <ele>887.43</ele>
        <time>2012-08-02T12:33:07Z</time>
      </trkpt>
      <trkpt lat="46.63353" lon="10.61408">
        <ele>886.95</ele>
        <time>2012-08-02T12:33:08Z</time>
      </trkpt>
      <trkpt lat="46.63324" lon="10.61371">
        <ele>887.43</ele>
        <time>2012-08-02T12:33:13Z</time>
      </trkpt>
      <trkpt lat="46.6332" lon="10.61364">
        <ele>886.95</ele>
        <time>2012-08-02T12:33:14Z</time>
      </trkpt>
      <trkpt lat="46.63316" lon="10.61359">
        <ele>886.95</ele>
        <time>2012-08-02T12:33:15Z</time>
      </trkpt>
      <trkpt lat="46.63302" lon="10.61341">
        <ele>886.95</ele>
        <time>2012-08-02T12:33:19Z</time>
      </trkpt>
      <trkpt lat="46.63259" lon="10.61289">
        <ele>887.43</ele>
        <time>2012-08-02T12:33:27Z</time>
      </trkpt>
      <trkpt lat="46.63172" lon="10.61187">
        <ele>887.91</ele>
        <time>2012-08-02T12:33:36Z</time>
      </trkpt>
      <trkpt lat="46.63106" lon="10.61107">
        <ele>891.28</ele>
        <time>2012-08-02T12:33:41Z</time>
      </trkpt>
      <trkpt lat="46.63091" lon="10.61089">
        <ele>890.8</ele>
        <time>2012-08-02T12:33:42Z</time>
      </trkpt>
      <trkpt lat="46.63013" lon="10.60996">
        <ele>892.72</ele>
        <time>2012-08-02T12:33:47Z</time>
      </trkpt>
      <trkpt lat="46.62979" lon="10.60956">
        <ele>894.16</ele>
        <time>2012-08-02T12:33:49Z</time>
      </trkpt>
      <trkpt lat="46.62859" lon="10.60808">
        <ele>893.68</ele>
        <time>2012-08-02T12:33:56Z</time>
      </trkpt>
      <trkpt lat="46.62738" lon="10.60661">
        <ele>894.16</ele>
        <time>2012-08-02T12:34:05Z</time>
      </trkpt>
      <trkpt lat="46.62658" lon="10.60564">
        <ele>896.09</ele>
        <time>2012-08-02T12:34:11Z</time>
      </trkpt>
      <trkpt lat="46.62612" lon="10.60509">
        <ele>898.97</ele>
        <time>2012-08-02T12:34:14Z</time>
      </trkpt>
      <trkpt lat="46.62577" lon="10.60469">
        <ele>900.41</ele>
        <time>2012-08-02T12:34:16Z</time>
      </trkpt>
      <trkpt lat="46.62428" lon="10.60283">
        <ele>898.49</ele>
        <time>2012-08-02T12:34:25Z</time>
      </trkpt>
      <trkpt lat="46.62404" lon="10.60255">
        <ele>898.01</ele>
        <time>2012-08-02T12:34:27Z</time>
      </trkpt>
      <trkpt lat="46.62224" lon="10.60037">
        <ele>902.33</ele>
        <time>2012-08-02T12:34:42Z</time>
      </trkpt>
      <trkpt lat="46.62212" lon="10.60022">
        <ele>901.37</ele>
        <time>2012-08-02T12:34:43Z</time>
      </trkpt>
      <trkpt lat="46.62094" lon="10.5988">
        <ele>902.82</ele>
        <time>2012-08-02T12:34:54Z</time>
      </trkpt>
      <trkpt lat="46.61998" lon="10.59763">
        <ele>903.78</ele>
        <time>2012-08-02T12:35:05Z</time>
      </trkpt>
      <trkpt lat="46.61875" lon="10.59614">
        <ele>907.14</ele>
        <time>2012-08-02T12:35:19Z</time>
      </trkpt>
      <trkpt lat="46.61804" lon="10.59527">
        <ele>906.66</ele>
        <time>2012-08-02T12:35:28Z</time>
      </trkpt>
      <trkpt lat="46.61797" lon="10.59518">
        <ele>906.66</ele>
        <time>2012-08-02T12:35:29Z</time>
      </trkpt>
      <trkpt lat="46.61773" lon="10.59469">
        <ele>905.7</ele>
        <time>2012-08-02T12:35:35Z</time>
      </trkpt>
      <trkpt lat="46.61754" lon="10.59369">
        <ele>906.66</ele>
        <time>2012-08-02T12:35:46Z</time>
      </trkpt>
      <trkpt lat="46.61738" lon="10.59234">
        <ele>907.62</ele>
        <time>2012-08-02T12:35:57Z</time>
      </trkpt>
      <trkpt lat="46.61728" lon="10.59188">
        <ele>907.62</ele>
        <time>2012-08-02T12:36:02Z</time>
      </trkpt>
      <trkpt lat="46.61724" lon="10.5918">
        <ele>908.1</ele>
        <time>2012-08-02T12:36:03Z</time>
      </trkpt>
      <trkpt lat="46.61721" lon="10.59173">
        <ele>907.62</ele>
        <time>2012-08-02T12:36:04Z</time>
      </trkpt>
      <trkpt lat="46.61718" lon="10.59166">
        <ele>908.58</ele>
        <time>2012-08-02T12:36:05Z</time>
      </trkpt>
      <trkpt lat="46.61715" lon="10.59158">
        <ele>908.1</ele>
        <time>2012-08-02T12:36:06Z</time>
      </trkpt>
      <trkpt lat="46.6167" lon="10.59064">
        <ele>910.51</ele>
        <time>2012-08-02T12:36:16Z</time>
      </trkpt>
      <trkpt lat="46.61652" lon="10.59012">
        <ele>911.47</ele>
        <time>2012-08-02T12:36:20Z</time>
      </trkpt>
      <trkpt lat="46.61597" lon="10.58922">
        <ele>914.35</ele>
        <time>2012-08-02T12:36:27Z</time>
      </trkpt>
      <trkpt lat="46.6154" lon="10.58833">
        <ele>915.79</ele>
        <time>2012-08-02T12:36:33Z</time>
      </trkpt>
      <trkpt lat="46.61467" lon="10.5871">
        <ele>917.72</ele>
        <time>2012-08-02T12:36:41Z</time>
      </trkpt>
      <trkpt lat="46.61461" lon="10.58691">
        <ele>918.2</ele>
        <time>2012-08-02T12:36:42Z</time>
      </trkpt>
      <trkpt lat="46.61456" lon="10.58671">
        <ele>918.68</ele>
        <time>2012-08-02T12:36:43Z</time>
      </trkpt>
      <trkpt lat="46.61426" lon="10.58504">
        <ele>920.6</ele>
        <time>2012-08-02T12:36:51Z</time>
      </trkpt>
      <trkpt lat="46.61416" lon="10.58464">
        <ele>922.04</ele>
        <time>2012-08-02T12:36:53Z</time>
      </trkpt>
      <trkpt lat="46.61342" lon="10.58292">
        <ele>924.45</ele>
        <time>2012-08-02T12:37:02Z</time>
      </trkpt>
      <trkpt lat="46.61322" lon="10.58259">
        <ele>925.41</ele>
        <time>2012-08-02T12:37:04Z</time>
      </trkpt>
      <trkpt lat="46.61228" lon="10.58113">
        <ele>929.25</ele>
        <time>2012-08-02T12:37:14Z</time>
      </trkpt>
      <trkpt lat="46.6115" lon="10.57986">
        <ele>932.14</ele>
        <time>2012-08-02T12:37:24Z</time>
      </trkpt>
      <trkpt lat="46.6112" lon="10.57936">
        <ele>934.06</ele>
        <time>2012-08-02T12:37:28Z</time>
      </trkpt>
      <trkpt lat="46.61115" lon="10.57921">
        <ele>935.02</ele>
        <time>2012-08-02T12:37:29Z</time>
      </trkpt>
      <trkpt lat="46.6111" lon="10.57905">
        <ele>935.02</ele>
        <time>2012-08-02T12:37:30Z</time>
      </trkpt>
      <trkpt lat="46.61107" lon="10.57888">
        <ele>935.02</ele>
        <time>2012-08-02T12:37:31Z</time>
      </trkpt>
      <trkpt lat="46.61105" lon="10.57871">
        <ele>935.02</ele>
        <time>2012-08-02T12:37:32Z</time>
      </trkpt>
      <trkpt lat="46.61095" lon="10.578">
        <ele>936.46</ele>
        <time>2012-08-02T12:37:36Z</time>
      </trkpt>
      <trkpt lat="46.6106" lon="10.5761">
        <ele>939.35</ele>
        <time>2012-08-02T12:37:47Z</time>
      </trkpt>
      <trkpt lat="46.61053" lon="10.57579">
        <ele>940.31</ele>
        <time>2012-08-02T12:37:49Z</time>
      </trkpt>
      <trkpt lat="46.61028" lon="10.57479">
        <ele>943.19</ele>
        <time>2012-08-02T12:37:56Z</time>
      </trkpt>
      <trkpt lat="46.61025" lon="10.57467">
        <ele>943.67</ele>
        <time>2012-08-02T12:37:57Z</time>
      </trkpt>
      <trkpt lat="46.61011" lon="10.57431">
        <ele>945.11</ele>
        <time>2012-08-02T12:38:00Z</time>
      </trkpt>
      <trkpt lat="46.61001" lon="10.57403">
        <ele>946.56</ele>
        <time>2012-08-02T12:38:02Z</time>
      </trkpt>
      <trkpt lat="46.60977" lon="10.57344">
        <ele>948</ele>
        <time>2012-08-02T12:38:06Z</time>
      </trkpt>
      <trkpt lat="46.60945" lon="10.57288">
        <ele>950.88</ele>
        <time>2012-08-02T12:38:10Z</time>
      </trkpt>
      <trkpt lat="46.60909" lon="10.5723">
        <ele>953.77</ele>
        <time>2012-08-02T12:38:14Z</time>
      </trkpt>
      <trkpt lat="46.609" lon="10.57215">
        <ele>953.77</ele>
        <time>2012-08-02T12:38:15Z</time>
      </trkpt>
      <trkpt lat="46.60854" lon="10.57137">
        <ele>957.13</ele>
        <time>2012-08-02T12:38:20Z</time>
      </trkpt>
      <trkpt lat="46.60835" lon="10.57102">
        <ele>958.57</ele>
        <time>2012-08-02T12:38:22Z</time>
      </trkpt>
      <trkpt lat="46.60827" lon="10.57083">
        <ele>959.05</ele>
        <time>2012-08-02T12:38:23Z</time>
      </trkpt>
      <trkpt lat="46.60804" lon="10.57023">
        <ele>962.9</ele>
        <time>2012-08-02T12:38:26Z</time>
      </trkpt>
      <trkpt lat="46.60775" lon="10.56967">
        <ele>965.3</ele>
        <time>2012-08-02T12:38:29Z</time>
      </trkpt>
      <trkpt lat="46.60765" lon="10.56947">
        <ele>966.74</ele>
        <time>2012-08-02T12:38:30Z</time>
      </trkpt>
      <trkpt lat="46.60758" lon="10.56926">
        <ele>967.7</ele>
        <time>2012-08-02T12:38:31Z</time>
      </trkpt>
      <trkpt lat="46.60753" lon="10.56906">
        <ele>967.7</ele>
        <time>2012-08-02T12:38:32Z</time>
      </trkpt>
      <trkpt lat="46.60748" lon="10.56888">
        <ele>968.67</ele>
        <time>2012-08-02T12:38:33Z</time>
      </trkpt>
      <trkpt lat="46.60741" lon="10.5687">
        <ele>969.63</ele>
        <time>2012-08-02T12:38:34Z</time>
      </trkpt>
      <trkpt lat="46.60731" lon="10.56854">
        <ele>970.59</ele>
        <time>2012-08-02T12:38:35Z</time>
      </trkpt>
      <trkpt lat="46.6072" lon="10.56838">
        <ele>972.03</ele>
        <time>2012-08-02T12:38:36Z</time>
      </trkpt>
      <trkpt lat="46.60679" lon="10.56766">
        <ele>974.91</ele>
        <time>2012-08-02T12:38:40Z</time>
      </trkpt>
      <trkpt lat="46.60653" lon="10.56712">
        <ele>978.76</ele>
        <time>2012-08-02T12:38:43Z</time>
      </trkpt>
      <trkpt lat="46.60638" lon="10.56674">
        <ele>980.2</ele>
        <time>2012-08-02T12:38:45Z</time>
      </trkpt>
      <trkpt lat="46.60633" lon="10.56654">
        <ele>981.16</ele>
        <time>2012-08-02T12:38:46Z</time>
      </trkpt>
      <trkpt lat="46.6063" lon="10.56634">
        <ele>982.12</ele>
        <time>2012-08-02T12:38:47Z</time>
      </trkpt>
      <trkpt lat="46.60629" lon="10.56613">
        <ele>983.57</ele>
        <time>2012-08-02T12:38:48Z</time>
      </trkpt>
      <trkpt lat="46.60629" lon="10.56592">
        <ele>984.05</ele>
        <time>2012-08-02T12:38:49Z</time>
      </trkpt>
      <trkpt lat="46.60627" lon="10.56572">
        <ele>985.01</ele>
        <time>2012-08-02T12:38:50Z</time>
      </trkpt>
      <trkpt lat="46.60624" lon="10.56552">
        <ele>986.45</ele>
        <time>2012-08-02T12:38:51Z</time>
      </trkpt>
      <trkpt lat="46.60608" lon="10.56478">
        <ele>990.3</ele>
        <time>2012-08-02T12:38:55Z</time>
      </trkpt>
      <trkpt lat="46.60607" lon="10.5646">
        <ele>990.78</ele>
        <time>2012-08-02T12:38:56Z</time>
      </trkpt>
      <trkpt lat="46.60605" lon="10.56443">
        <ele>992.22</ele>
        <time>2012-08-02T12:38:57Z</time>
      </trkpt>
      <trkpt lat="46.606" lon="10.56426">
        <ele>993.66</ele>
        <time>2012-08-02T12:38:58Z</time>
      </trkpt>
      <trkpt lat="46.60593" lon="10.56409">
        <ele>994.62</ele>
        <time>2012-08-02T12:38:59Z</time>
      </trkpt>
      <trkpt lat="46.60586" lon="10.56393">
        <ele>996.06</ele>
        <time>2012-08-02T12:39:00Z</time>
      </trkpt>
      <trkpt lat="46.6058" lon="10.56376">
        <ele>997.02</ele>
        <time>2012-08-02T12:39:01Z</time>
      </trkpt>
      <trkpt lat="46.60559" lon="10.56333">
        <ele>1000.39</ele>
        <time>2012-08-02T12:39:04Z</time>
      </trkpt>
      <trkpt lat="46.60528" lon="10.5626">
        <ele>1004.72</ele>
        <time>2012-08-02T12:39:08Z</time>
      </trkpt>
      <trkpt lat="46.60507" lon="10.56208">
        <ele>1007.6</ele>
        <time>2012-08-02T12:39:11Z</time>
      </trkpt>
      <trkpt lat="46.60501" lon="10.5619">
        <ele>1008.56</ele>
        <time>2012-08-02T12:39:12Z</time>
      </trkpt>
      <trkpt lat="46.6049" lon="10.56138">
        <ele>1010</ele>
        <time>2012-08-02T12:39:15Z</time>
      </trkpt>
      <trkpt lat="46.60484" lon="10.56124">
        <ele>1011.44</ele>
        <time>2012-08-02T12:39:16Z</time>
      </trkpt>
      <trkpt lat="46.60477" lon="10.5611">
        <ele>1011.93</ele>
        <time>2012-08-02T12:39:17Z</time>
      </trkpt>
      <trkpt lat="46.60466" lon="10.56099">
        <ele>1013.37</ele>
        <time>2012-08-02T12:39:18Z</time>
      </trkpt>
      <trkpt lat="46.60454" lon="10.56088">
        <ele>1013.37</ele>
        <time>2012-08-02T12:39:19Z</time>
      </trkpt>
      <trkpt lat="46.60411" lon="10.56047">
        <ele>1016.73</ele>
        <time>2012-08-02T12:39:23Z</time>
      </trkpt>
      <trkpt lat="46.60402" lon="10.56035">
        <ele>1017.21</ele>
        <time>2012-08-02T12:39:24Z</time>
      </trkpt>
      <trkpt lat="46.60377" lon="10.5599">
        <ele>1019.13</ele>
        <time>2012-08-02T12:39:27Z</time>
      </trkpt>
      <trkpt lat="46.60372" lon="10.55972">
        <ele>1020.1</ele>
        <time>2012-08-02T12:39:28Z</time>
      </trkpt>
      <trkpt lat="46.60366" lon="10.55936">
        <ele>1022.02</ele>
        <time>2012-08-02T12:39:30Z</time>
      </trkpt>
      <trkpt lat="46.60363" lon="10.55892">
        <ele>1023.94</ele>
        <time>2012-08-02T12:39:33Z</time>
      </trkpt>
      <trkpt lat="46.6036" lon="10.5588">
        <ele>1024.42</ele>
        <time>2012-08-02T12:39:34Z</time>
      </trkpt>
      <trkpt lat="46.60355" lon="10.5587">
        <ele>1025.86</ele>
        <time>2012-08-02T12:39:35Z</time>
      </trkpt>
      <trkpt lat="46.60347" lon="10.55864">
        <ele>1027.31</ele>
        <time>2012-08-02T12:39:36Z</time>
      </trkpt>
      <trkpt lat="46.60337" lon="10.55859">
        <ele>1027.79</ele>
        <time>2012-08-02T12:39:37Z</time>
      </trkpt>
      <trkpt lat="46.60326" lon="10.55855">
        <ele>1029.23</ele>
        <time>2012-08-02T12:39:38Z</time>
      </trkpt>
      <trkpt lat="46.60303" lon="10.55844">
        <ele>1031.15</ele>
        <time>2012-08-02T12:39:40Z</time>
      </trkpt>
      <trkpt lat="46.60293" lon="10.55835">
        <ele>1032.59</ele>
        <time>2012-08-02T12:39:41Z</time>
      </trkpt>
      <trkpt lat="46.60284" lon="10.55823">
        <ele>1033.55</ele>
        <time>2012-08-02T12:39:42Z</time>
      </trkpt>
      <trkpt lat="46.60277" lon="10.5581">
        <ele>1034.04</ele>
        <time>2012-08-02T12:39:43Z</time>
      </trkpt>
      <trkpt lat="46.6027" lon="10.55796">
        <ele>1035</ele>
        <time>2012-08-02T12:39:44Z</time>
      </trkpt>
      <trkpt lat="46.60255" lon="10.55767">
        <ele>1037.4</ele>
        <time>2012-08-02T12:39:46Z</time>
      </trkpt>
      <trkpt lat="46.60245" lon="10.55754">
        <ele>1038.36</ele>
        <time>2012-08-02T12:39:47Z</time>
      </trkpt>
      <trkpt lat="46.60233" lon="10.55744">
        <ele>1039.32</ele>
        <time>2012-08-02T12:39:48Z</time>
      </trkpt>
      <trkpt lat="46.60206" lon="10.55725">
        <ele>1042.21</ele>
        <time>2012-08-02T12:39:50Z</time>
      </trkpt>
      <trkpt lat="46.60184" lon="10.55706">
        <ele>1043.65</ele>
        <time>2012-08-02T12:39:52Z</time>
      </trkpt>
      <trkpt lat="46.60172" lon="10.55701">
        <ele>1045.09</ele>
        <time>2012-08-02T12:39:53Z</time>
      </trkpt>
      <trkpt lat="46.60159" lon="10.55698">
        <ele>1045.09</ele>
        <time>2012-08-02T12:39:54Z</time>
      </trkpt>
      <trkpt lat="46.60118" lon="10.5569">
        <ele>1046.53</ele>
        <time>2012-08-02T12:39:57Z</time>
      </trkpt>
      <trkpt lat="46.60106" lon="10.55681">
        <ele>1047.01</ele>
        <time>2012-08-02T12:39:58Z</time>
      </trkpt>
      <trkpt lat="46.60094" lon="10.5567">
        <ele>1047.97</ele>
        <time>2012-08-02T12:39:59Z</time>
      </trkpt>
      <trkpt lat="46.60084" lon="10.55659">
        <ele>1047.97</ele>
        <time>2012-08-02T12:40:00Z</time>
      </trkpt>
      <trkpt lat="46.60042" lon="10.55614">
        <ele>1050.86</ele>
        <time>2012-08-02T12:40:04Z</time>
      </trkpt>
      <trkpt lat="46.6003" lon="10.55606">
        <ele>1052.3</ele>
        <time>2012-08-02T12:40:05Z</time>
      </trkpt>
      <trkpt lat="46.59993" lon="10.55586">
        <ele>1053.74</ele>
        <time>2012-08-02T12:40:08Z</time>
      </trkpt>
      <trkpt lat="46.59942" lon="10.5557">
        <ele>1057.11</ele>
        <time>2012-08-02T12:40:12Z</time>
      </trkpt>
      <trkpt lat="46.59899" lon="10.55556">
        <ele>1059.99</ele>
        <time>2012-08-02T12:40:15Z</time>
      </trkpt>
      <trkpt lat="46.5987" lon="10.55545">
        <ele>1061.91</ele>
        <time>2012-08-02T12:40:17Z</time>
      </trkpt>
      <trkpt lat="46.59856" lon="10.55539">
        <ele>1063.36</ele>
        <time>2012-08-02T12:40:18Z</time>
      </trkpt>
      <trkpt lat="46.59813" lon="10.55521">
        <ele>1066.24</ele>
        <time>2012-08-02T12:40:21Z</time>
      </trkpt>
      <trkpt lat="46.59785" lon="10.55509">
        <ele>1069.6</ele>
        <time>2012-08-02T12:40:23Z</time>
      </trkpt>
      <trkpt lat="46.59759" lon="10.55497">
        <ele>1071.05</ele>
        <time>2012-08-02T12:40:25Z</time>
      </trkpt>
      <trkpt lat="46.59748" lon="10.5549">
        <ele>1071.05</ele>
        <time>2012-08-02T12:40:26Z</time>
      </trkpt>
      <trkpt lat="46.59739" lon="10.55479">
        <ele>1072.01</ele>
        <time>2012-08-02T12:40:27Z</time>
      </trkpt>
      <trkpt lat="46.59733" lon="10.55467">
        <ele>1072.97</ele>
        <time>2012-08-02T12:40:28Z</time>
      </trkpt>
      <trkpt lat="46.59729" lon="10.5545">
        <ele>1073.45</ele>
        <time>2012-08-02T12:40:29Z</time>
      </trkpt>
      <trkpt lat="46.59727" lon="10.55433">
        <ele>1074.89</ele>
        <time>2012-08-02T12:40:30Z</time>
      </trkpt>
      <trkpt lat="46.59728" lon="10.55417">
        <ele>1074.41</ele>
        <time>2012-08-02T12:40:31Z</time>
      </trkpt>
      <trkpt lat="46.59728" lon="10.55402">
        <ele>1073.93</ele>
        <time>2012-08-02T12:40:32Z</time>
      </trkpt>
      <trkpt lat="46.59726" lon="10.55388">
        <ele>1074.41</ele>
        <time>2012-08-02T12:40:33Z</time>
      </trkpt>
      <trkpt lat="46.59723" lon="10.55373">
        <ele>1075.37</ele>
        <time>2012-08-02T12:40:34Z</time>
      </trkpt>
      <trkpt lat="46.59718" lon="10.55361">
        <ele>1076.33</ele>
        <time>2012-08-02T12:40:35Z</time>
      </trkpt>
      <trkpt lat="46.59711" lon="10.55351">
        <ele>1077.29</ele>
        <time>2012-08-02T12:40:36Z</time>
      </trkpt>
      <trkpt lat="46.59701" lon="10.55345">
        <ele>1078.26</ele>
        <time>2012-08-02T12:40:37Z</time>
      </trkpt>
      <trkpt lat="46.59689" lon="10.55341">
        <ele>1079.22</ele>
        <time>2012-08-02T12:40:38Z</time>
      </trkpt>
      <trkpt lat="46.59653" lon="10.55331">
        <ele>1081.62</ele>
        <time>2012-08-02T12:40:41Z</time>
      </trkpt>
      <trkpt lat="46.59641" lon="10.55331">
        <ele>1082.58</ele>
        <time>2012-08-02T12:40:42Z</time>
      </trkpt>
      <trkpt lat="46.59628" lon="10.55335">
        <ele>1084.02</ele>
        <time>2012-08-02T12:40:43Z</time>
      </trkpt>
      <trkpt lat="46.59616" lon="10.55337">
        <ele>1084.02</ele>
        <time>2012-08-02T12:40:44Z</time>
      </trkpt>
      <trkpt lat="46.59604" lon="10.55337">
        <ele>1084.5</ele>
        <time>2012-08-02T12:40:45Z</time>
      </trkpt>
      <trkpt lat="46.59593" lon="10.55332">
        <ele>1085.95</ele>
        <time>2012-08-02T12:40:46Z</time>
      </trkpt>
      <trkpt lat="46.59583" lon="10.55326">
        <ele>1085.95</ele>
        <time>2012-08-02T12:40:47Z</time>
      </trkpt>
      <trkpt lat="46.59539" lon="10.553">
        <ele>1089.79</ele>
        <time>2012-08-02T12:40:51Z</time>
      </trkpt>
      <trkpt lat="46.59503" lon="10.55281">
        <ele>1092.2</ele>
        <time>2012-08-02T12:40:54Z</time>
      </trkpt>
      <trkpt lat="46.59491" lon="10.55271">
        <ele>1093.16</ele>
        <time>2012-08-02T12:40:55Z</time>
      </trkpt>
      <trkpt lat="46.59481" lon="10.55259">
        <ele>1093.64</ele>
        <time>2012-08-02T12:40:56Z</time>
      </trkpt>
      <trkpt lat="46.59472" lon="10.55247">
        <ele>1093.64</ele>
        <time>2012-08-02T12:40:57Z</time>
      </trkpt>
      <trkpt lat="46.59436" lon="10.55201">
        <ele>1097</ele>
        <time>2012-08-02T12:41:01Z</time>
      </trkpt>
      <trkpt lat="46.59393" lon="10.55148">
        <ele>1099.89</ele>
        <time>2012-08-02T12:41:05Z</time>
      </trkpt>
      <trkpt lat="46.5937" lon="10.55126">
        <ele>1101.81</ele>
        <time>2012-08-02T12:41:07Z</time>
      </trkpt>
      <trkpt lat="46.59357" lon="10.55119">
        <ele>1102.29</ele>
        <time>2012-08-02T12:41:08Z</time>
      </trkpt>
      <trkpt lat="46.59333" lon="10.55108">
        <ele>1103.25</ele>
        <time>2012-08-02T12:41:10Z</time>
      </trkpt>
      <trkpt lat="46.59283" lon="10.55087">
        <ele>1107.1</ele>
        <time>2012-08-02T12:41:14Z</time>
      </trkpt>
      <trkpt lat="46.59262" lon="10.55075">
        <ele>1106.61</ele>
        <time>2012-08-02T12:41:16Z</time>
      </trkpt>
      <trkpt lat="46.59253" lon="10.55066">
        <ele>1107.58</ele>
        <time>2012-08-02T12:41:17Z</time>
      </trkpt>
      <trkpt lat="46.59247" lon="10.55054">
        <ele>1108.06</ele>
        <time>2012-08-02T12:41:18Z</time>
      </trkpt>
      <trkpt lat="46.59243" lon="10.55039">
        <ele>1109.02</ele>
        <time>2012-08-02T12:41:19Z</time>
      </trkpt>
      <trkpt lat="46.5924" lon="10.55023">
        <ele>1109.5</ele>
        <time>2012-08-02T12:41:20Z</time>
      </trkpt>
      <trkpt lat="46.59238" lon="10.55007">
        <ele>1109.02</ele>
        <time>2012-08-02T12:41:21Z</time>
      </trkpt>
      <trkpt lat="46.59235" lon="10.5499">
        <ele>1109.98</ele>
        <time>2012-08-02T12:41:22Z</time>
      </trkpt>
      <trkpt lat="46.5923" lon="10.54975">
        <ele>1109.98</ele>
        <time>2012-08-02T12:41:23Z</time>
      </trkpt>
      <trkpt lat="46.59221" lon="10.54962">
        <ele>1111.42</ele>
        <time>2012-08-02T12:41:24Z</time>
      </trkpt>
      <trkpt lat="46.5921" lon="10.54951">
        <ele>1111.9</ele>
        <time>2012-08-02T12:41:25Z</time>
      </trkpt>
      <trkpt lat="46.59197" lon="10.54941">
        <ele>1112.38</ele>
        <time>2012-08-02T12:41:26Z</time>
      </trkpt>
      <trkpt lat="46.59184" lon="10.54931">
        <ele>1112.86</ele>
        <time>2012-08-02T12:41:27Z</time>
      </trkpt>
      <trkpt lat="46.59144" lon="10.54907">
        <ele>1114.79</ele>
        <time>2012-08-02T12:41:30Z</time>
      </trkpt>
      <trkpt lat="46.5913" lon="10.54902">
        <ele>1115.75</ele>
        <time>2012-08-02T12:41:31Z</time>
      </trkpt>
      <trkpt lat="46.59115" lon="10.54898">
        <ele>1116.23</ele>
        <time>2012-08-02T12:41:32Z</time>
      </trkpt>
      <trkpt lat="46.59043" lon="10.54886">
        <ele>1120.55</ele>
        <time>2012-08-02T12:41:37Z</time>
      </trkpt>
      <trkpt lat="46.59001" lon="10.5488">
        <ele>1123.92</ele>
        <time>2012-08-02T12:41:40Z</time>
      </trkpt>
      <trkpt lat="46.58988" lon="10.54877">
        <ele>1124.88</ele>
        <time>2012-08-02T12:41:41Z</time>
      </trkpt>
      <trkpt lat="46.58975" lon="10.54872">
        <ele>1125.84</ele>
        <time>2012-08-02T12:41:42Z</time>
      </trkpt>
      <trkpt lat="46.58962" lon="10.54863">
        <ele>1127.28</ele>
        <time>2012-08-02T12:41:43Z</time>
      </trkpt>
      <trkpt lat="46.5895" lon="10.54854">
        <ele>1128.73</ele>
        <time>2012-08-02T12:41:44Z</time>
      </trkpt>
      <trkpt lat="46.58936" lon="10.54846">
        <ele>1129.69</ele>
        <time>2012-08-02T12:41:45Z</time>
      </trkpt>
      <trkpt lat="46.58923" lon="10.5484">
        <ele>1130.65</ele>
        <time>2012-08-02T12:41:46Z</time>
      </trkpt>
      <trkpt lat="46.58882" lon="10.54822">
        <ele>1134.49</ele>
        <time>2012-08-02T12:41:49Z</time>
      </trkpt>
      <trkpt lat="46.58859" lon="10.54806">
        <ele>1134.97</ele>
        <time>2012-08-02T12:41:51Z</time>
      </trkpt>
      <trkpt lat="46.58848" lon="10.54797">
        <ele>1135.45</ele>
        <time>2012-08-02T12:41:52Z</time>
      </trkpt>
      <trkpt lat="46.58839" lon="10.54787">
        <ele>1136.42</ele>
        <time>2012-08-02T12:41:53Z</time>
      </trkpt>
      <trkpt lat="46.5882" lon="10.54767">
        <ele>1137.86</ele>
        <time>2012-08-02T12:41:55Z</time>
      </trkpt>
      <trkpt lat="46.58809" lon="10.54761">
        <ele>1138.82</ele>
        <time>2012-08-02T12:41:56Z</time>
      </trkpt>
      <trkpt lat="46.58797" lon="10.54757">
        <ele>1139.78</ele>
        <time>2012-08-02T12:41:57Z</time>
      </trkpt>
      <trkpt lat="46.58784" lon="10.54755">
        <ele>1140.74</ele>
        <time>2012-08-02T12:41:58Z</time>
      </trkpt>
      <trkpt lat="46.58771" lon="10.54753">
        <ele>1142.18</ele>
        <time>2012-08-02T12:41:59Z</time>
      </trkpt>
      <trkpt lat="46.58732" lon="10.54755">
        <ele>1145.07</ele>
        <time>2012-08-02T12:42:02Z</time>
      </trkpt>
      <trkpt lat="46.58719" lon="10.54758">
        <ele>1146.03</ele>
        <time>2012-08-02T12:42:03Z</time>
      </trkpt>
      <trkpt lat="46.58707" lon="10.54763">
        <ele>1146.51</ele>
        <time>2012-08-02T12:42:04Z</time>
      </trkpt>
      <trkpt lat="46.58685" lon="10.54773">
        <ele>1147.47</ele>
        <time>2012-08-02T12:42:06Z</time>
      </trkpt>
      <trkpt lat="46.58673" lon="10.54776">
        <ele>1148.43</ele>
        <time>2012-08-02T12:42:07Z</time>
      </trkpt>
      <trkpt lat="46.58661" lon="10.54774">
        <ele>1150.35</ele>
        <time>2012-08-02T12:42:08Z</time>
      </trkpt>
      <trkpt lat="46.58648" lon="10.5477">
        <ele>1151.8</ele>
        <time>2012-08-02T12:42:09Z</time>
      </trkpt>
      <trkpt lat="46.58634" lon="10.54765">
        <ele>1154.2</ele>
        <time>2012-08-02T12:42:10Z</time>
      </trkpt>
      <trkpt lat="46.5859" lon="10.54749">
        <ele>1158.53</ele>
        <time>2012-08-02T12:42:13Z</time>
      </trkpt>
      <trkpt lat="46.58559" lon="10.54735">
        <ele>1161.89</ele>
        <time>2012-08-02T12:42:15Z</time>
      </trkpt>
      <trkpt lat="46.58544" lon="10.54728">
        <ele>1161.89</ele>
        <time>2012-08-02T12:42:16Z</time>
      </trkpt>
      <trkpt lat="46.58491" lon="10.54708">
        <ele>1165.26</ele>
        <time>2012-08-02T12:42:20Z</time>
      </trkpt>
      <trkpt lat="46.58465" lon="10.54697">
        <ele>1167.66</ele>
        <time>2012-08-02T12:42:22Z</time>
      </trkpt>
      <trkpt lat="46.58451" lon="10.54687">
        <ele>1169.1</ele>
        <time>2012-08-02T12:42:23Z</time>
      </trkpt>
      <trkpt lat="46.58407" lon="10.54641">
        <ele>1172.47</ele>
        <time>2012-08-02T12:42:27Z</time>
      </trkpt>
      <trkpt lat="46.58388" lon="10.54617">
        <ele>1174.87</ele>
        <time>2012-08-02T12:42:29Z</time>
      </trkpt>
      <trkpt lat="46.58369" lon="10.54585">
        <ele>1178.71</ele>
        <time>2012-08-02T12:42:31Z</time>
      </trkpt>
      <trkpt lat="46.58344" lon="10.54551">
        <ele>1182.56</ele>
        <time>2012-08-02T12:42:33Z</time>
      </trkpt>
      <trkpt lat="46.58317" lon="10.54518">
        <ele>1185.92</ele>
        <time>2012-08-02T12:42:35Z</time>
      </trkpt>
      <trkpt lat="46.58288" lon="10.54486">
        <ele>1189.77</ele>
        <time>2012-08-02T12:42:37Z</time>
      </trkpt>
      <trkpt lat="46.58243" lon="10.54444">
        <ele>1193.61</ele>
        <time>2012-08-02T12:42:40Z</time>
      </trkpt>
      <trkpt lat="46.58211" lon="10.54424">
        <ele>1196.98</ele>
        <time>2012-08-02T12:42:42Z</time>
      </trkpt>
      <trkpt lat="46.58165" lon="10.54394">
        <ele>1200.34</ele>
        <time>2012-08-02T12:42:45Z</time>
      </trkpt>
      <trkpt lat="46.58125" lon="10.54367">
        <ele>1204.19</ele>
        <time>2012-08-02T12:42:48Z</time>
      </trkpt>
      <trkpt lat="46.58074" lon="10.54335">
        <ele>1208.51</ele>
        <time>2012-08-02T12:42:52Z</time>
      </trkpt>
      <trkpt lat="46.58035" lon="10.54313">
        <ele>1212.36</ele>
        <time>2012-08-02T12:42:55Z</time>
      </trkpt>
      <trkpt lat="46.57997" lon="10.54294">
        <ele>1216.21</ele>
        <time>2012-08-02T12:42:58Z</time>
      </trkpt>
      <trkpt lat="46.57947" lon="10.54275">
        <ele>1219.57</ele>
        <time>2012-08-02T12:43:02Z</time>
      </trkpt>
      <trkpt lat="46.57905" lon="10.54249">
        <ele>1223.42</ele>
        <time>2012-08-02T12:43:06Z</time>
      </trkpt>
      <trkpt lat="46.57882" lon="10.54238">
        <ele>1225.34</ele>
        <time>2012-08-02T12:43:08Z</time>
      </trkpt>
      <trkpt lat="46.57871" lon="10.54235">
        <ele>1226.78</ele>
        <time>2012-08-02T12:43:09Z</time>
      </trkpt>
      <trkpt lat="46.57834" lon="10.54227">
        <ele>1229.66</ele>
        <time>2012-08-02T12:43:12Z</time>
      </trkpt>
      <trkpt lat="46.57808" lon="10.54219">
        <ele>1232.55</ele>
        <time>2012-08-02T12:43:14Z</time>
      </trkpt>
      <trkpt lat="46.5777" lon="10.54199">
        <ele>1235.91</ele>
        <time>2012-08-02T12:43:17Z</time>
      </trkpt>
      <trkpt lat="46.57746" lon="10.54183">
        <ele>1237.83</ele>
        <time>2012-08-02T12:43:19Z</time>
      </trkpt>
      <trkpt lat="46.57735" lon="10.54173">
        <ele>1239.28</ele>
        <time>2012-08-02T12:43:20Z</time>
      </trkpt>
      <trkpt lat="46.57693" lon="10.54132">
        <ele>1242.64</ele>
        <time>2012-08-02T12:43:24Z</time>
      </trkpt>
      <trkpt lat="46.57676" lon="10.54116">
        <ele>1244.08</ele>
        <time>2012-08-02T12:43:26Z</time>
      </trkpt>
      <trkpt lat="46.57641" lon="10.54087">
        <ele>1247.45</ele>
        <time>2012-08-02T12:43:30Z</time>
      </trkpt>
      <trkpt lat="46.57586" lon="10.54042">
        <ele>1251.29</ele>
        <time>2012-08-02T12:43:35Z</time>
      </trkpt>
      <trkpt lat="46.57576" lon="10.54031">
        <ele>1252.25</ele>
        <time>2012-08-02T12:43:36Z</time>
      </trkpt>
      <trkpt lat="46.57518" lon="10.53943">
        <ele>1254.18</ele>
        <time>2012-08-02T12:43:43Z</time>
      </trkpt>
      <trkpt lat="46.57462" lon="10.5381">
        <ele>1255.62</ele>
        <time>2012-08-02T12:43:51Z</time>
      </trkpt>
      <trkpt lat="46.57388" lon="10.53624">
        <ele>1257.54</ele>
        <time>2012-08-02T12:44:00Z</time>
      </trkpt>
      <trkpt lat="46.57342" lon="10.53504">
        <ele>1262.35</ele>
        <time>2012-08-02T12:44:05Z</time>
      </trkpt>
      <trkpt lat="46.573" lon="10.53402">
        <ele>1266.19</ele>
        <time>2012-08-02T12:44:09Z</time>
      </trkpt>
      <trkpt lat="46.57264" lon="10.53321">
        <ele>1270.04</ele>
        <time>2012-08-02T12:44:12Z</time>
      </trkpt>
      <trkpt lat="46.57224" lon="10.53245">
        <ele>1273.88</ele>
        <time>2012-08-02T12:44:15Z</time>
      </trkpt>
      <trkpt lat="46.57172" lon="10.53153">
        <ele>1278.21</ele>
        <time>2012-08-02T12:44:19Z</time>
      </trkpt>
      <trkpt lat="46.57148" lon="10.53105">
        <ele>1281.09</ele>
        <time>2012-08-02T12:44:21Z</time>
      </trkpt>
      <trkpt lat="46.57114" lon="10.5303">
        <ele>1284.46</ele>
        <time>2012-08-02T12:44:24Z</time>
      </trkpt>
      <trkpt lat="46.57094" lon="10.52979">
        <ele>1287.82</ele>
        <time>2012-08-02T12:44:26Z</time>
      </trkpt>
      <trkpt lat="46.5707" lon="10.52897">
        <ele>1291.67</ele>
        <time>2012-08-02T12:44:29Z</time>
      </trkpt>
      <trkpt lat="46.57063" lon="10.52871">
        <ele>1293.59</ele>
        <time>2012-08-02T12:44:30Z</time>
      </trkpt>
      <trkpt lat="46.57054" lon="10.52846">
        <ele>1295.03</ele>
        <time>2012-08-02T12:44:31Z</time>
      </trkpt>
      <trkpt lat="46.57043" lon="10.52822">
        <ele>1295.99</ele>
        <time>2012-08-02T12:44:32Z</time>
      </trkpt>
      <trkpt lat="46.57008" lon="10.52756">
        <ele>1299.36</ele>
        <time>2012-08-02T12:44:35Z</time>
      </trkpt>
      <trkpt lat="46.56988" lon="10.52715">
        <ele>1301.28</ele>
        <time>2012-08-02T12:44:37Z</time>
      </trkpt>
      <trkpt lat="46.5698" lon="10.52693">
        <ele>1302.24</ele>
        <time>2012-08-02T12:44:38Z</time>
      </trkpt>
      <trkpt lat="46.56974" lon="10.5267">
        <ele>1304.17</ele>
        <time>2012-08-02T12:44:39Z</time>
      </trkpt>
      <trkpt lat="46.56969" lon="10.52645">
        <ele>1306.09</ele>
        <time>2012-08-02T12:44:40Z</time>
      </trkpt>
      <trkpt lat="46.56967" lon="10.52619">
        <ele>1308.97</ele>
        <time>2012-08-02T12:44:41Z</time>
      </trkpt>
      <trkpt lat="46.56965" lon="10.52593">
        <ele>1310.41</ele>
        <time>2012-08-02T12:44:42Z</time>
      </trkpt>
      <trkpt lat="46.56964" lon="10.52568">
        <ele>1312.82</ele>
        <time>2012-08-02T12:44:43Z</time>
      </trkpt>
      <trkpt lat="46.56957" lon="10.52564">
        <ele>1316.18</ele>
        <time>2012-08-02T12:44:45Z</time>
      </trkpt>
      <trkpt lat="46.56956" lon="10.52561">
        <ele>1319.55</ele>
        <time>2012-08-02T12:44:48Z</time>
      </trkpt>
      <trkpt lat="46.56955" lon="10.52559">
        <ele>1323.39</ele>
        <time>2012-08-02T12:44:51Z</time>
      </trkpt>
      <trkpt lat="46.56955" lon="10.52557">
        <ele>1327.72</ele>
        <time>2012-08-02T12:44:54Z</time>
      </trkpt>
      <trkpt lat="46.56954" lon="10.52554">
        <ele>1332.04</ele>
        <time>2012-08-02T12:44:57Z</time>
      </trkpt>
      <trkpt lat="46.56908" lon="10.5212">
        <ele>1335.89</ele>
        <time>2012-08-02T12:45:01Z</time>
      </trkpt>
      <trkpt lat="46.56878" lon="10.52123">
        <ele>1337.33</ele>
        <time>2012-08-02T12:45:02Z</time>
      </trkpt>
      <trkpt lat="46.56872" lon="10.52112">
        <ele>1337.81</ele>
        <time>2012-08-02T12:45:03Z</time>
      </trkpt>
      <trkpt lat="46.56746" lon="10.52191">
        <ele>1339.25</ele>
        <time>2012-08-02T12:45:05Z</time>
      </trkpt>
      <trkpt lat="46.56719" lon="10.52203">
        <ele>1339.25</ele>
        <time>2012-08-02T12:45:06Z</time>
      </trkpt>
      <trkpt lat="46.56707" lon="10.52206">
        <ele>1339.73</ele>
        <time>2012-08-02T12:45:07Z</time>
      </trkpt>
      <trkpt lat="46.56707" lon="10.52216">
        <ele>1340.22</ele>
        <time>2012-08-02T12:45:11Z</time>
      </trkpt>
      <trkpt lat="46.56711" lon="10.52223">
        <ele>1341.66</ele>
        <time>2012-08-02T12:45:12Z</time>
      </trkpt>
      <trkpt lat="46.56718" lon="10.52228">
        <ele>1342.14</ele>
        <time>2012-08-02T12:45:13Z</time>
      </trkpt>
      <trkpt lat="46.56727" lon="10.52234">
        <ele>1343.1</ele>
        <time>2012-08-02T12:45:14Z</time>
      </trkpt>
      <trkpt lat="46.56743" lon="10.52248">
        <ele>1344.54</ele>
        <time>2012-08-02T12:45:16Z</time>
      </trkpt>
      <trkpt lat="46.56749" lon="10.52251">
        <ele>1344.54</ele>
        <time>2012-08-02T12:45:17Z</time>
      </trkpt>
      <trkpt lat="46.56755" lon="10.52236">
        <ele>1344.54</ele>
        <time>2012-08-02T12:45:20Z</time>
      </trkpt>
      <trkpt lat="46.56749" lon="10.52227">
        <ele>1345.5</ele>
        <time>2012-08-02T12:45:21Z</time>
      </trkpt>
      <trkpt lat="46.5674" lon="10.52218">
        <ele>1346.94</ele>
        <time>2012-08-02T12:45:22Z</time>
      </trkpt>
      <trkpt lat="46.56706" lon="10.52187">
        <ele>1350.79</ele>
        <time>2012-08-02T12:45:25Z</time>
      </trkpt>
      <trkpt lat="46.56656" lon="10.52141">
        <ele>1355.6</ele>
        <time>2012-08-02T12:45:29Z</time>
      </trkpt>
      <trkpt lat="46.56621" lon="10.52104">
        <ele>1358.96</ele>
        <time>2012-08-02T12:45:32Z</time>
      </trkpt>
      <trkpt lat="46.5661" lon="10.52092">
        <ele>1359.92</ele>
        <time>2012-08-02T12:45:33Z</time>
      </trkpt>
      <trkpt lat="46.56599" lon="10.52084">
        <ele>1360.88</ele>
        <time>2012-08-02T12:45:34Z</time>
      </trkpt>
      <trkpt lat="46.56586" lon="10.52081">
        <ele>1362.33</ele>
        <time>2012-08-02T12:45:35Z</time>
      </trkpt>
      <trkpt lat="46.56572" lon="10.52076">
        <ele>1363.29</ele>
        <time>2012-08-02T12:45:36Z</time>
      </trkpt>
      <trkpt lat="46.5656" lon="10.52065">
        <ele>1364.73</ele>
        <time>2012-08-02T12:45:37Z</time>
      </trkpt>
      <trkpt lat="46.56549" lon="10.52051">
        <ele>1365.21</ele>
        <time>2012-08-02T12:45:38Z</time>
      </trkpt>
      <trkpt lat="46.56538" lon="10.52037">
        <ele>1367.13</ele>
        <time>2012-08-02T12:45:39Z</time>
      </trkpt>
      <trkpt lat="46.56506" lon="10.51994">
        <ele>1372.42</ele>
        <time>2012-08-02T12:45:42Z</time>
      </trkpt>
      <trkpt lat="46.56495" lon="10.51982">
        <ele>1373.38</ele>
        <time>2012-08-02T12:45:43Z</time>
      </trkpt>
      <trkpt lat="46.56482" lon="10.51971">
        <ele>1374.34</ele>
        <time>2012-08-02T12:45:44Z</time>
      </trkpt>
      <trkpt lat="46.56468" lon="10.51962">
        <ele>1375.78</ele>
        <time>2012-08-02T12:45:45Z</time>
      </trkpt>
      <trkpt lat="46.56427" lon="10.51938">
        <ele>1379.63</ele>
        <time>2012-08-02T12:45:48Z</time>
      </trkpt>
      <trkpt lat="46.56401" lon="10.51922">
        <ele>1382.51</ele>
        <time>2012-08-02T12:45:50Z</time>
      </trkpt>
      <trkpt lat="46.56364" lon="10.51896">
        <ele>1386.36</ele>
        <time>2012-08-02T12:45:53Z</time>
      </trkpt>
      <trkpt lat="46.5634" lon="10.51878">
        <ele>1390.2</ele>
        <time>2012-08-02T12:45:55Z</time>
      </trkpt>
      <trkpt lat="46.56329" lon="10.51866">
        <ele>1392.13</ele>
        <time>2012-08-02T12:45:56Z</time>
      </trkpt>
      <trkpt lat="46.5632" lon="10.51851">
        <ele>1392.13</ele>
        <time>2012-08-02T12:45:57Z</time>
      </trkpt>
      <trkpt lat="46.56308" lon="10.51836">
        <ele>1393.09</ele>
        <time>2012-08-02T12:45:58Z</time>
      </trkpt>
      <trkpt lat="46.56295" lon="10.51827">
        <ele>1396.45</ele>
        <time>2012-08-02T12:45:59Z</time>
      </trkpt>
      <trkpt lat="46.5628" lon="10.51821">
        <ele>1397.41</ele>
        <time>2012-08-02T12:46:00Z</time>
      </trkpt>
      <trkpt lat="46.5624" lon="10.51809">
        <ele>1400.3</ele>
        <time>2012-08-02T12:46:03Z</time>
      </trkpt>
      <trkpt lat="46.56232" lon="10.51804">
        <ele>1400.3</ele>
        <time>2012-08-02T12:46:04Z</time>
      </trkpt>
      <trkpt lat="46.56225" lon="10.51794">
        <ele>1401.74</ele>
        <time>2012-08-02T12:46:05Z</time>
      </trkpt>
      <trkpt lat="46.56219" lon="10.51781">
        <ele>1403.18</ele>
        <time>2012-08-02T12:46:06Z</time>
      </trkpt>
      <trkpt lat="46.562" lon="10.51736">
        <ele>1407.03</ele>
        <time>2012-08-02T12:46:09Z</time>
      </trkpt>
      <trkpt lat="46.56182" lon="10.51706">
        <ele>1409.91</ele>
        <time>2012-08-02T12:46:11Z</time>
      </trkpt>
      <trkpt lat="46.56165" lon="10.51675">
        <ele>1413.76</ele>
        <time>2012-08-02T12:46:13Z</time>
      </trkpt>
      <trkpt lat="46.56143" lon="10.51624">
        <ele>1417.12</ele>
        <time>2012-08-02T12:46:16Z</time>
      </trkpt>
      <trkpt lat="46.56137" lon="10.51609">
        <ele>1417.6</ele>
        <time>2012-08-02T12:46:17Z</time>
      </trkpt>
      <trkpt lat="46.56129" lon="10.51594">
        <ele>1418.56</ele>
        <time>2012-08-02T12:46:18Z</time>
      </trkpt>
      <trkpt lat="46.56092" lon="10.51544">
        <ele>1422.41</ele>
        <time>2012-08-02T12:46:22Z</time>
      </trkpt>
      <trkpt lat="46.5608" lon="10.51535">
        <ele>1423.37</ele>
        <time>2012-08-02T12:46:23Z</time>
      </trkpt>
      <trkpt lat="46.56067" lon="10.51528">
        <ele>1424.33</ele>
        <time>2012-08-02T12:46:24Z</time>
      </trkpt>
      <trkpt lat="46.5604" lon="10.51518">
        <ele>1426.73</ele>
        <time>2012-08-02T12:46:26Z</time>
      </trkpt>
      <trkpt lat="46.56027" lon="10.51517">
        <ele>1427.21</ele>
        <time>2012-08-02T12:46:27Z</time>
      </trkpt>
      <trkpt lat="46.56013" lon="10.51517">
        <ele>1428.18</ele>
        <time>2012-08-02T12:46:28Z</time>
      </trkpt>
      <trkpt lat="46.5596" lon="10.51522">
        <ele>1431.54</ele>
        <time>2012-08-02T12:46:32Z</time>
      </trkpt>
      <trkpt lat="46.55909" lon="10.5152">
        <ele>1433.46</ele>
        <time>2012-08-02T12:46:36Z</time>
      </trkpt>
      <trkpt lat="46.55878" lon="10.51516">
        <ele>1434.42</ele>
        <time>2012-08-02T12:46:39Z</time>
      </trkpt>
      <trkpt lat="46.55867" lon="10.51512">
        <ele>1435.39</ele>
        <time>2012-08-02T12:46:40Z</time>
      </trkpt>
      <trkpt lat="46.55855" lon="10.51506">
        <ele>1436.35</ele>
        <time>2012-08-02T12:46:41Z</time>
      </trkpt>
      <trkpt lat="46.55808" lon="10.5148">
        <ele>1439.71</ele>
        <time>2012-08-02T12:46:45Z</time>
      </trkpt>
      <trkpt lat="46.5577" lon="10.51464">
        <ele>1443.08</ele>
        <time>2012-08-02T12:46:48Z</time>
      </trkpt>
      <trkpt lat="46.55725" lon="10.51433">
        <ele>1446.44</ele>
        <time>2012-08-02T12:46:52Z</time>
      </trkpt>
      <trkpt lat="46.55688" lon="10.51411">
        <ele>1448.36</ele>
        <time>2012-08-02T12:46:55Z</time>
      </trkpt>
      <trkpt lat="46.55616" lon="10.51356">
        <ele>1451.73</ele>
        <time>2012-08-02T12:47:01Z</time>
      </trkpt>
      <trkpt lat="46.55583" lon="10.51319">
        <ele>1456.05</ele>
        <time>2012-08-02T12:47:04Z</time>
      </trkpt>
      <trkpt lat="46.55562" lon="10.51296">
        <ele>1457.02</ele>
        <time>2012-08-02T12:47:06Z</time>
      </trkpt>
      <trkpt lat="46.55551" lon="10.51287">
        <ele>1458.46</ele>
        <time>2012-08-02T12:47:07Z</time>
      </trkpt>
      <trkpt lat="46.55508" lon="10.51263">
        <ele>1461.82</ele>
        <time>2012-08-02T12:47:11Z</time>
      </trkpt>
      <trkpt lat="46.55498" lon="10.51259">
        <ele>1463.26</ele>
        <time>2012-08-02T12:47:12Z</time>
      </trkpt>
      <trkpt lat="46.55488" lon="10.51258">
        <ele>1464.23</ele>
        <time>2012-08-02T12:47:13Z</time>
      </trkpt>
      <trkpt lat="46.55472" lon="10.51255">
        <ele>1465.67</ele>
        <time>2012-08-02T12:47:15Z</time>
      </trkpt>
      <trkpt lat="46.55465" lon="10.51253">
        <ele>1465.19</ele>
        <time>2012-08-02T12:47:16Z</time>
      </trkpt>
      <trkpt lat="46.55458" lon="10.51248">
        <ele>1465.67</ele>
        <time>2012-08-02T12:47:17Z</time>
      </trkpt>
      <trkpt lat="46.55452" lon="10.51243">
        <ele>1466.63</ele>
        <time>2012-08-02T12:47:18Z</time>
      </trkpt>
      <trkpt lat="46.55448" lon="10.51238">
        <ele>1467.11</ele>
        <time>2012-08-02T12:47:19Z</time>
      </trkpt>
      <trkpt lat="46.55444" lon="10.51233">
        <ele>1467.11</ele>
        <time>2012-08-02T12:47:20Z</time>
      </trkpt>
      <trkpt lat="46.55441" lon="10.51227">
        <ele>1467.59</ele>
        <time>2012-08-02T12:47:21Z</time>
      </trkpt>
      <trkpt lat="46.55416" lon="10.51195">
        <ele>1470.95</ele>
        <time>2012-08-02T12:47:26Z</time>
      </trkpt>
      <trkpt lat="46.55391" lon="10.51172">
        <ele>1474.32</ele>
        <time>2012-08-02T12:47:29Z</time>
      </trkpt>
      <trkpt lat="46.55382" lon="10.51166">
        <ele>1474.8</ele>
        <time>2012-08-02T12:47:30Z</time>
      </trkpt>
      <trkpt lat="46.55372" lon="10.51162">
        <ele>1475.76</ele>
        <time>2012-08-02T12:47:31Z</time>
      </trkpt>
      <trkpt lat="46.55346" lon="10.51151">
        <ele>1475.76</ele>
        <time>2012-08-02T12:47:35Z</time>
      </trkpt>
      <trkpt lat="46.55343" lon="10.5115">
        <ele>1476.24</ele>
        <time>2012-08-02T12:47:36Z</time>
      </trkpt>
      <trkpt lat="46.5534" lon="10.51146">
        <ele>1476.72</ele>
        <time>2012-08-02T12:47:37Z</time>
      </trkpt>
      <trkpt lat="46.55337" lon="10.51143">
        <ele>1477.2</ele>
        <time>2012-08-02T12:47:38Z</time>
      </trkpt>
      <trkpt lat="46.55337" lon="10.51143">
        <ele>1477.68</ele>
        <time>2012-08-02T12:47:46Z</time>
      </trkpt>
      <trkpt lat="46.55318" lon="10.51128">
        <ele>1480.57</ele>
        <time>2012-08-02T12:52:01Z</time>
      </trkpt>
      <trkpt lat="46.55301" lon="10.51111">
        <ele>1482.49</ele>
        <time>2012-08-02T12:52:03Z</time>
      </trkpt>
      <trkpt lat="46.55043" lon="10.50839">
        <ele>1530.56</ele>
        <time>2012-08-02T12:53:07Z</time>
      </trkpt>
      <trkpt lat="46.55024" lon="10.50793">
        <ele>1535.36</ele>
        <time>2012-08-02T12:53:10Z</time>
      </trkpt>
      <trkpt lat="46.55014" lon="10.5076">
        <ele>1536.8</ele>
        <time>2012-08-02T12:53:12Z</time>
      </trkpt>
      <trkpt lat="46.54321" lon="10.50498">
        <ele>1598.33</ele>
        <time>2012-08-02T12:54:14Z</time>
      </trkpt>
      <trkpt lat="46.54315" lon="10.50495">
        <ele>1598.33</ele>
        <time>2012-08-02T12:54:15Z</time>
      </trkpt>
      <trkpt lat="46.54309" lon="10.50492">
        <ele>1597.85</ele>
        <time>2012-08-02T12:54:16Z</time>
      </trkpt>
      <trkpt lat="46.54305" lon="10.50489">
        <ele>1598.33</ele>
        <time>2012-08-02T12:54:17Z</time>
      </trkpt>
      <trkpt lat="46.54302" lon="10.50489">
        <ele>1598.81</ele>
        <time>2012-08-02T12:54:18Z</time>
      </trkpt>
      <trkpt lat="46.54301" lon="10.50482">
        <ele>1599.29</ele>
        <time>2012-08-02T12:54:19Z</time>
      </trkpt>
      <trkpt lat="46.54289" lon="10.50478">
        <ele>1604.1</ele>
        <time>2012-08-02T12:54:23Z</time>
      </trkpt>
      <trkpt lat="46.54311" lon="10.5048">
        <ele>1604.58</ele>
        <time>2012-08-02T12:54:26Z</time>
      </trkpt>
      <trkpt lat="46.54322" lon="10.50479">
        <ele>1605.54</ele>
        <time>2012-08-02T12:54:27Z</time>
      </trkpt>
      <trkpt lat="46.54345" lon="10.5048">
        <ele>1606.5</ele>
        <time>2012-08-02T12:54:29Z</time>
      </trkpt>
      <trkpt lat="46.54369" lon="10.50491">
        <ele>1607.46</ele>
        <time>2012-08-02T12:54:30Z</time>
      </trkpt>
      <trkpt lat="46.54383" lon="10.50498">
        <ele>1607.94</ele>
        <time>2012-08-02T12:54:31Z</time>
      </trkpt>
      <trkpt lat="46.54396" lon="10.50504">
        <ele>1608.9</ele>
        <time>2012-08-02T12:54:32Z</time>
      </trkpt>
      <trkpt lat="46.54408" lon="10.50509">
        <ele>1609.86</ele>
        <time>2012-08-02T12:54:33Z</time>
      </trkpt>
      <trkpt lat="46.54419" lon="10.50512">
        <ele>1610.83</ele>
        <time>2012-08-02T12:54:34Z</time>
      </trkpt>
      <trkpt lat="46.54428" lon="10.50513">
        <ele>1612.27</ele>
        <time>2012-08-02T12:54:35Z</time>
      </trkpt>
      <trkpt lat="46.54438" lon="10.50512">
        <ele>1613.23</ele>
        <time>2012-08-02T12:54:36Z</time>
      </trkpt>
      <trkpt lat="46.54448" lon="10.5051">
        <ele>1613.23</ele>
        <time>2012-08-02T12:54:37Z</time>
      </trkpt>
      <trkpt lat="46.54458" lon="10.50507">
        <ele>1614.67</ele>
        <time>2012-08-02T12:54:38Z</time>
      </trkpt>
      <trkpt lat="46.54477" lon="10.50501">
        <ele>1616.11</ele>
        <time>2012-08-02T12:54:40Z</time>
      </trkpt>
      <trkpt lat="46.54499" lon="10.50492">
        <ele>1617.56</ele>
        <time>2012-08-02T12:54:44Z</time>
      </trkpt>
      <trkpt lat="46.54491" lon="10.50483">
        <ele>1618.52</ele>
        <time>2012-08-02T12:54:49Z</time>
      </trkpt>
      <trkpt lat="46.54486" lon="10.50483">
        <ele>1619.48</ele>
        <time>2012-08-02T12:54:50Z</time>
      </trkpt>
      <trkpt lat="46.54455" lon="10.50483">
        <ele>1622.84</ele>
        <time>2012-08-02T12:54:55Z</time>
      </trkpt>
      <trkpt lat="46.54444" lon="10.50481">
        <ele>1624.28</ele>
        <time>2012-08-02T12:54:57Z</time>
      </trkpt>
      <trkpt lat="46.54439" lon="10.50479">
        <ele>1624.77</ele>
        <time>2012-08-02T12:54:58Z</time>
      </trkpt>
      <trkpt lat="46.54427" lon="10.50472">
        <ele>1626.21</ele>
        <time>2012-08-02T12:55:00Z</time>
      </trkpt>
      <trkpt lat="46.54421" lon="10.50466">
        <ele>1626.69</ele>
        <time>2012-08-02T12:55:01Z</time>
      </trkpt>
      <trkpt lat="46.5441" lon="10.50452">
        <ele>1628.13</ele>
        <time>2012-08-02T12:55:03Z</time>
      </trkpt>
      <trkpt lat="46.54404" lon="10.50447">
        <ele>1628.13</ele>
        <time>2012-08-02T12:55:04Z</time>
      </trkpt>
      <trkpt lat="46.54399" lon="10.50444">
        <ele>1629.09</ele>
        <time>2012-08-02T12:55:05Z</time>
      </trkpt>
      <trkpt lat="46.54392" lon="10.50441">
        <ele>1630.05</ele>
        <time>2012-08-02T12:55:06Z</time>
      </trkpt>
      <trkpt lat="46.54377" lon="10.50435">
        <ele>1631.98</ele>
        <time>2012-08-02T12:55:08Z</time>
      </trkpt>
      <trkpt lat="46.54369" lon="10.50429">
        <ele>1633.42</ele>
        <time>2012-08-02T12:55:09Z</time>
      </trkpt>
      <trkpt lat="46.54359" lon="10.50421">
        <ele>1635.82</ele>
        <time>2012-08-02T12:55:10Z</time>
      </trkpt>
      <trkpt lat="46.54337" lon="10.50408">
        <ele>1637.26</ele>
        <time>2012-08-02T12:55:12Z</time>
      </trkpt>
      <trkpt lat="46.54328" lon="10.50404">
        <ele>1637.26</ele>
        <time>2012-08-02T12:55:13Z</time>
      </trkpt>
      <trkpt lat="46.54298" lon="10.50381">
        <ele>1640.15</ele>
        <time>2012-08-02T12:55:17Z</time>
      </trkpt>
      <trkpt lat="46.54283" lon="10.50367">
        <ele>1641.59</ele>
        <time>2012-08-02T12:55:19Z</time>
      </trkpt>
      <trkpt lat="46.5426" lon="10.50346">
        <ele>1644.95</ele>
        <time>2012-08-02T12:55:22Z</time>
      </trkpt>
      <trkpt lat="46.54253" lon="10.50337">
        <ele>1645.91</ele>
        <time>2012-08-02T12:55:23Z</time>
      </trkpt>
      <trkpt lat="46.54247" lon="10.50327">
        <ele>1647.36</ele>
        <time>2012-08-02T12:55:24Z</time>
      </trkpt>
      <trkpt lat="46.54241" lon="10.50316">
        <ele>1646.88</ele>
        <time>2012-08-02T12:55:25Z</time>
      </trkpt>
      <trkpt lat="46.54235" lon="10.50306">
        <ele>1647.84</ele>
        <time>2012-08-02T12:55:26Z</time>
      </trkpt>
      <trkpt lat="46.54228" lon="10.50298">
        <ele>1648.8</ele>
        <time>2012-08-02T12:55:27Z</time>
      </trkpt>
      <trkpt lat="46.5422" lon="10.50294">
        <ele>1649.76</ele>
        <time>2012-08-02T12:55:28Z</time>
      </trkpt>
      <trkpt lat="46.54212" lon="10.50292">
        <ele>1650.24</ele>
        <time>2012-08-02T12:55:29Z</time>
      </trkpt>
      <trkpt lat="46.54202" lon="10.50292">
        <ele>1651.2</ele>
        <time>2012-08-02T12:55:30Z</time>
      </trkpt>
      <trkpt lat="46.54193" lon="10.50292">
        <ele>1651.68</ele>
        <time>2012-08-02T12:55:31Z</time>
      </trkpt>
      <trkpt lat="46.54184" lon="10.50294">
        <ele>1652.16</ele>
        <time>2012-08-02T12:55:32Z</time>
      </trkpt>
      <trkpt lat="46.54176" lon="10.50298">
        <ele>1652.64</ele>
        <time>2012-08-02T12:55:33Z</time>
      </trkpt>
      <trkpt lat="46.54168" lon="10.50304">
        <ele>1653.12</ele>
        <time>2012-08-02T12:55:34Z</time>
      </trkpt>
      <trkpt lat="46.54161" lon="10.50313">
        <ele>1653.6</ele>
        <time>2012-08-02T12:55:35Z</time>
      </trkpt>
      <trkpt lat="46.54156" lon="10.50322">
        <ele>1654.57</ele>
        <time>2012-08-02T12:55:36Z</time>
      </trkpt>
      <trkpt lat="46.54151" lon="10.5033">
        <ele>1655.05</ele>
        <time>2012-08-02T12:55:37Z</time>
      </trkpt>
      <trkpt lat="46.54145" lon="10.50336">
        <ele>1656.49</ele>
        <time>2012-08-02T12:55:38Z</time>
      </trkpt>
      <trkpt lat="46.54137" lon="10.5034">
        <ele>1657.45</ele>
        <time>2012-08-02T12:55:39Z</time>
      </trkpt>
      <trkpt lat="46.54129" lon="10.50344">
        <ele>1658.41</ele>
        <time>2012-08-02T12:55:40Z</time>
      </trkpt>
      <trkpt lat="46.54121" lon="10.50346">
        <ele>1658.89</ele>
        <time>2012-08-02T12:55:41Z</time>
      </trkpt>
      <trkpt lat="46.54112" lon="10.50347">
        <ele>1660.33</ele>
        <time>2012-08-02T12:55:42Z</time>
      </trkpt>
      <trkpt lat="46.54104" lon="10.50347">
        <ele>1660.81</ele>
        <time>2012-08-02T12:55:43Z</time>
      </trkpt>
      <trkpt lat="46.54096" lon="10.50346">
        <ele>1660.81</ele>
        <time>2012-08-02T12:55:44Z</time>
      </trkpt>
      <trkpt lat="46.5409" lon="10.50342">
        <ele>1662.74</ele>
        <time>2012-08-02T12:55:45Z</time>
      </trkpt>
      <trkpt lat="46.54083" lon="10.50335">
        <ele>1663.22</ele>
        <time>2012-08-02T12:55:46Z</time>
      </trkpt>
      <trkpt lat="46.54077" lon="10.50326">
        <ele>1664.66</ele>
        <time>2012-08-02T12:55:47Z</time>
      </trkpt>
      <trkpt lat="46.5407" lon="10.50318">
        <ele>1665.14</ele>
        <time>2012-08-02T12:55:48Z</time>
      </trkpt>
      <trkpt lat="46.54063" lon="10.50312">
        <ele>1666.1</ele>
        <time>2012-08-02T12:55:49Z</time>
      </trkpt>
      <trkpt lat="46.54057" lon="10.50307">
        <ele>1667.06</ele>
        <time>2012-08-02T12:55:50Z</time>
      </trkpt>
      <trkpt lat="46.54046" lon="10.50303">
        <ele>1668.02</ele>
        <time>2012-08-02T12:55:52Z</time>
      </trkpt>
      <trkpt lat="46.5404" lon="10.50301">
        <ele>1669.47</ele>
        <time>2012-08-02T12:55:54Z</time>
      </trkpt>
      <trkpt lat="46.54036" lon="10.503">
        <ele>1662.26</ele>
        <time>2012-08-02T12:55:56Z</time>
      </trkpt>
      <trkpt lat="46.5403" lon="10.50298">
        <ele>1670.91</ele>
        <time>2012-08-02T12:55:58Z</time>
      </trkpt>
      <trkpt lat="46.54028" lon="10.50296">
        <ele>1671.87</ele>
        <time>2012-08-02T12:56:00Z</time>
      </trkpt>
      <trkpt lat="46.54032" lon="10.50297">
        <ele>1672.83</ele>
        <time>2012-08-02T12:56:01Z</time>
      </trkpt>
      <trkpt lat="46.54038" lon="10.50299">
        <ele>1673.79</ele>
        <time>2012-08-02T12:56:02Z</time>
      </trkpt>
      <trkpt lat="46.54043" lon="10.50301">
        <ele>1675.72</ele>
        <time>2012-08-02T12:56:03Z</time>
      </trkpt>
      <trkpt lat="46.5405" lon="10.50306">
        <ele>1677.64</ele>
        <time>2012-08-02T12:56:04Z</time>
      </trkpt>
      <trkpt lat="46.54057" lon="10.50312">
        <ele>1678.12</ele>
        <time>2012-08-02T12:56:05Z</time>
      </trkpt>
      <trkpt lat="46.54067" lon="10.50321">
        <ele>1678.6</ele>
        <time>2012-08-02T12:56:06Z</time>
      </trkpt>
      <trkpt lat="46.54077" lon="10.50329">
        <ele>1680.04</ele>
        <time>2012-08-02T12:56:07Z</time>
      </trkpt>
      <trkpt lat="46.54086" lon="10.50332">
        <ele>1680.04</ele>
        <time>2012-08-02T12:56:08Z</time>
      </trkpt>
      <trkpt lat="46.54094" lon="10.5033">
        <ele>1680.04</ele>
        <time>2012-08-02T12:56:09Z</time>
      </trkpt>
      <trkpt lat="46.54107" lon="10.50309">
        <ele>1681.96</ele>
        <time>2012-08-02T12:56:11Z</time>
      </trkpt>
      <trkpt lat="46.54109" lon="10.50294">
        <ele>1682.93</ele>
        <time>2012-08-02T12:56:12Z</time>
      </trkpt>
      <trkpt lat="46.54112" lon="10.50276">
        <ele>1684.37</ele>
        <time>2012-08-02T12:56:13Z</time>
      </trkpt>
      <trkpt lat="46.54117" lon="10.50258">
        <ele>1685.81</ele>
        <time>2012-08-02T12:56:14Z</time>
      </trkpt>
      <trkpt lat="46.54121" lon="10.50241">
        <ele>1686.77</ele>
        <time>2012-08-02T12:56:15Z</time>
      </trkpt>
      <trkpt lat="46.54126" lon="10.50228">
        <ele>1686.77</ele>
        <time>2012-08-02T12:56:16Z</time>
      </trkpt>
      <trkpt lat="46.54129" lon="10.50217">
        <ele>1687.73</ele>
        <time>2012-08-02T12:56:17Z</time>
      </trkpt>
      <trkpt lat="46.5413" lon="10.50208">
        <ele>1687.73</ele>
        <time>2012-08-02T12:56:18Z</time>
      </trkpt>
      <trkpt lat="46.54129" lon="10.502">
        <ele>1688.21</ele>
        <time>2012-08-02T12:56:19Z</time>
      </trkpt>
      <trkpt lat="46.54127" lon="10.50195">
        <ele>1688.69</ele>
        <time>2012-08-02T12:56:20Z</time>
      </trkpt>
      <trkpt lat="46.54126" lon="10.50198">
        <ele>1689.65</ele>
        <time>2012-08-02T12:56:22Z</time>
      </trkpt>
      <trkpt lat="46.54129" lon="10.50203">
        <ele>1690.14</ele>
        <time>2012-08-02T12:56:23Z</time>
      </trkpt>
      <trkpt lat="46.54131" lon="10.5021">
        <ele>1691.1</ele>
        <time>2012-08-02T12:56:24Z</time>
      </trkpt>
      <trkpt lat="46.5413" lon="10.50229">
        <ele>1691.58</ele>
        <time>2012-08-02T12:56:26Z</time>
      </trkpt>
      <trkpt lat="46.54127" lon="10.50244">
        <ele>1691.58</ele>
        <time>2012-08-02T12:56:27Z</time>
      </trkpt>
      <trkpt lat="46.54123" lon="10.50252">
        <ele>1691.58</ele>
        <time>2012-08-02T12:56:28Z</time>
      </trkpt>
      <trkpt lat="46.54119" lon="10.50256">
        <ele>1691.58</ele>
        <time>2012-08-02T12:56:29Z</time>
      </trkpt>
      <trkpt lat="46.54115" lon="10.50258">
        <ele>1692.06</ele>
        <time>2012-08-02T12:56:30Z</time>
      </trkpt>
      <trkpt lat="46.54112" lon="10.50259">
        <ele>1692.54</ele>
        <time>2012-08-02T12:56:31Z</time>
      </trkpt>
      <trkpt lat="46.54102" lon="10.50248">
        <ele>1698.31</ele>
        <time>2012-08-02T12:56:35Z</time>
      </trkpt>
      <trkpt lat="46.541" lon="10.50242">
        <ele>1699.75</ele>
        <time>2012-08-02T12:56:36Z</time>
      </trkpt>
      <trkpt lat="46.54099" lon="10.50235">
        <ele>1701.67</ele>
        <time>2012-08-02T12:56:37Z</time>
      </trkpt>
      <trkpt lat="46.54098" lon="10.50227">
        <ele>1702.63</ele>
        <time>2012-08-02T12:56:38Z</time>
      </trkpt>
      <trkpt lat="46.54099" lon="10.50218">
        <ele>1704.55</ele>
        <time>2012-08-02T12:56:39Z</time>
      </trkpt>
      <trkpt lat="46.541" lon="10.50206">
        <ele>1705.52</ele>
        <time>2012-08-02T12:56:40Z</time>
      </trkpt>
      <trkpt lat="46.54105" lon="10.50186">
        <ele>1705.52</ele>
        <time>2012-08-02T12:56:41Z</time>
      </trkpt>
      <trkpt lat="46.54108" lon="10.50173">
        <ele>1705.52</ele>
        <time>2012-08-02T12:56:42Z</time>
      </trkpt>
      <trkpt lat="46.54111" lon="10.50161">
        <ele>1705.52</ele>
        <time>2012-08-02T12:56:43Z</time>
      </trkpt>
      <trkpt lat="46.54112" lon="10.50148">
        <ele>1705.52</ele>
        <time>2012-08-02T12:56:44Z</time>
      </trkpt>
      <trkpt lat="46.54113" lon="10.50138">
        <ele>1706.48</ele>
        <time>2012-08-02T12:56:45Z</time>
      </trkpt>
      <trkpt lat="46.54117" lon="10.50128">
        <ele>1708.4</ele>
        <time>2012-08-02T12:56:46Z</time>
      </trkpt>
      <trkpt lat="46.54122" lon="10.50123">
        <ele>1708.4</ele>
        <time>2012-08-02T12:56:47Z</time>
      </trkpt>
      <trkpt lat="46.5413" lon="10.5012">
        <ele>1713.21</ele>
        <time>2012-08-02T12:56:50Z</time>
      </trkpt>
      <trkpt lat="46.54134" lon="10.5012">
        <ele>1713.21</ele>
        <time>2012-08-02T12:56:52Z</time>
      </trkpt>
      <trkpt lat="46.5413" lon="10.50134">
        <ele>1713.69</ele>
        <time>2012-08-02T12:56:53Z</time>
      </trkpt>
      <trkpt lat="46.5412" lon="10.50154">
        <ele>1714.17</ele>
        <time>2012-08-02T12:56:54Z</time>
      </trkpt>
      <trkpt lat="46.54116" lon="10.50161">
        <ele>1713.69</ele>
        <time>2012-08-02T12:56:55Z</time>
      </trkpt>
      <trkpt lat="46.54112" lon="10.50166">
        <ele>1714.65</ele>
        <time>2012-08-02T12:56:56Z</time>
      </trkpt>
      <trkpt lat="46.54108" lon="10.50168">
        <ele>1714.17</ele>
        <time>2012-08-02T12:56:57Z</time>
      </trkpt>
      <trkpt lat="46.54106" lon="10.50171">
        <ele>1715.61</ele>
        <time>2012-08-02T12:56:58Z</time>
      </trkpt>
      <trkpt lat="46.54102" lon="10.50172">
        <ele>1717.05</ele>
        <time>2012-08-02T12:57:00Z</time>
      </trkpt>
      <trkpt lat="46.54095" lon="10.50165">
        <ele>1719.94</ele>
        <time>2012-08-02T12:57:02Z</time>
      </trkpt>
      <trkpt lat="46.54091" lon="10.50157">
        <ele>1720.42</ele>
        <time>2012-08-02T12:57:03Z</time>
      </trkpt>
      <trkpt lat="46.54091" lon="10.50145">
        <ele>1720.9</ele>
        <time>2012-08-02T12:57:04Z</time>
      </trkpt>
      <trkpt lat="46.54092" lon="10.50134">
        <ele>1720.9</ele>
        <time>2012-08-02T12:57:05Z</time>
      </trkpt>
      <trkpt lat="46.54094" lon="10.50121">
        <ele>1721.86</ele>
        <time>2012-08-02T12:57:06Z</time>
      </trkpt>
      <trkpt lat="46.54093" lon="10.50113">
        <ele>1721.86</ele>
        <time>2012-08-02T12:57:07Z</time>
      </trkpt>
      <trkpt lat="46.54092" lon="10.50104">
        <ele>1722.34</ele>
        <time>2012-08-02T12:57:08Z</time>
      </trkpt>
      <trkpt lat="46.54092" lon="10.50101">
        <ele>1722.82</ele>
        <time>2012-08-02T12:57:09Z</time>
      </trkpt>
      <trkpt lat="46.54093" lon="10.50103">
        <ele>1722.82</ele>
        <time>2012-08-02T12:57:10Z</time>
      </trkpt>
      <trkpt lat="46.54094" lon="10.50112">
        <ele>1722.82</ele>
        <time>2012-08-02T12:57:11Z</time>
      </trkpt>
      <trkpt lat="46.54098" lon="10.50119">
        <ele>1725.22</ele>
        <time>2012-08-02T12:57:12Z</time>
      </trkpt>
      <trkpt lat="46.54099" lon="10.5013">
        <ele>1726.67</ele>
        <time>2012-08-02T12:57:13Z</time>
      </trkpt>
      <trkpt lat="46.54097" lon="10.50146">
        <ele>1726.67</ele>
        <time>2012-08-02T12:57:14Z</time>
      </trkpt>
      <trkpt lat="46.54091" lon="10.50165">
        <ele>1727.15</ele>
        <time>2012-08-02T12:57:15Z</time>
      </trkpt>
      <trkpt lat="46.54082" lon="10.50188">
        <ele>1727.63</ele>
        <time>2012-08-02T12:57:17Z</time>
      </trkpt>
      <trkpt lat="46.54074" lon="10.50186">
        <ele>1728.11</ele>
        <time>2012-08-02T12:57:20Z</time>
      </trkpt>
      <trkpt lat="46.54076" lon="10.50179">
        <ele>1729.07</ele>
        <time>2012-08-02T12:57:21Z</time>
      </trkpt>
      <trkpt lat="46.54077" lon="10.5017">
        <ele>1729.55</ele>
        <time>2012-08-02T12:57:22Z</time>
      </trkpt>
      <trkpt lat="46.54078" lon="10.50159">
        <ele>1731.47</ele>
        <time>2012-08-02T12:57:23Z</time>
      </trkpt>
      <trkpt lat="46.54077" lon="10.50147">
        <ele>1731.95</ele>
        <time>2012-08-02T12:57:24Z</time>
      </trkpt>
      <trkpt lat="46.54074" lon="10.50133">
        <ele>1731.95</ele>
        <time>2012-08-02T12:57:25Z</time>
      </trkpt>
      <trkpt lat="46.54072" lon="10.50117">
        <ele>1733.88</ele>
        <time>2012-08-02T12:57:26Z</time>
      </trkpt>
      <trkpt lat="46.54071" lon="10.50101">
        <ele>1735.32</ele>
        <time>2012-08-02T12:57:27Z</time>
      </trkpt>
      <trkpt lat="46.54074" lon="10.50084">
        <ele>1735.8</ele>
        <time>2012-08-02T12:57:28Z</time>
      </trkpt>
      <trkpt lat="46.54078" lon="10.50067">
        <ele>1737.24</ele>
        <time>2012-08-02T12:57:29Z</time>
      </trkpt>
      <trkpt lat="46.54084" lon="10.50052">
        <ele>1737.24</ele>
        <time>2012-08-02T12:57:30Z</time>
      </trkpt>
      <trkpt lat="46.54091" lon="10.5004">
        <ele>1738.2</ele>
        <time>2012-08-02T12:57:31Z</time>
      </trkpt>
      <trkpt lat="46.54098" lon="10.50031">
        <ele>1738.68</ele>
        <time>2012-08-02T12:57:32Z</time>
      </trkpt>
      <trkpt lat="46.54129" lon="10.49983">
        <ele>1742.05</ele>
        <time>2012-08-02T12:57:38Z</time>
      </trkpt>
      <trkpt lat="46.54141" lon="10.4997">
        <ele>1743.49</ele>
        <time>2012-08-02T12:57:41Z</time>
      </trkpt>
      <trkpt lat="46.54143" lon="10.49966">
        <ele>1743.49</ele>
        <time>2012-08-02T12:57:42Z</time>
      </trkpt>
      <trkpt lat="46.54137" lon="10.49957">
        <ele>1744.93</ele>
        <time>2012-08-02T12:57:46Z</time>
      </trkpt>
      <trkpt lat="46.54132" lon="10.49963">
        <ele>1746.85</ele>
        <time>2012-08-02T12:57:47Z</time>
      </trkpt>
      <trkpt lat="46.54126" lon="10.49969">
        <ele>1747.81</ele>
        <time>2012-08-02T12:57:48Z</time>
      </trkpt>
      <trkpt lat="46.54092" lon="10.49998">
        <ele>1751.66</ele>
        <time>2012-08-02T12:57:52Z</time>
      </trkpt>
      <trkpt lat="46.54061" lon="10.50026">
        <ele>1755.02</ele>
        <time>2012-08-02T12:57:55Z</time>
      </trkpt>
      <trkpt lat="46.54053" lon="10.50037">
        <ele>1755.99</ele>
        <time>2012-08-02T12:57:56Z</time>
      </trkpt>
      <trkpt lat="46.54038" lon="10.50058">
        <ele>1758.39</ele>
        <time>2012-08-02T12:57:58Z</time>
      </trkpt>
      <trkpt lat="46.5403" lon="10.50064">
        <ele>1758.39</ele>
        <time>2012-08-02T12:57:59Z</time>
      </trkpt>
      <trkpt lat="46.54014" lon="10.50071">
        <ele>1761.75</ele>
        <time>2012-08-02T12:58:01Z</time>
      </trkpt>
      <trkpt lat="46.54005" lon="10.50075">
        <ele>1763.2</ele>
        <time>2012-08-02T12:58:02Z</time>
      </trkpt>
      <trkpt lat="46.53972" lon="10.50088">
        <ele>1767.52</ele>
        <time>2012-08-02T12:58:05Z</time>
      </trkpt>
      <trkpt lat="46.53911" lon="10.50113">
        <ele>1770.41</ele>
        <time>2012-08-02T12:58:10Z</time>
      </trkpt>
      <trkpt lat="46.53892" lon="10.50118">
        <ele>1771.85</ele>
        <time>2012-08-02T12:58:12Z</time>
      </trkpt>
      <trkpt lat="46.53865" lon="10.50125">
        <ele>1773.29</ele>
        <time>2012-08-02T12:58:15Z</time>
      </trkpt>
      <trkpt lat="46.53855" lon="10.50124">
        <ele>1772.81</ele>
        <time>2012-08-02T12:58:16Z</time>
      </trkpt>
      <trkpt lat="46.53843" lon="10.50124">
        <ele>1773.77</ele>
        <time>2012-08-02T12:58:17Z</time>
      </trkpt>
      <trkpt lat="46.53806" lon="10.50123">
        <ele>1777.13</ele>
        <time>2012-08-02T12:58:20Z</time>
      </trkpt>
      <trkpt lat="46.53772" lon="10.50126">
        <ele>1780.5</ele>
        <time>2012-08-02T12:58:26Z</time>
      </trkpt>
      <trkpt lat="46.53762" lon="10.5013">
        <ele>1780.98</ele>
        <time>2012-08-02T12:58:28Z</time>
      </trkpt>
      <trkpt lat="46.53757" lon="10.50131">
        <ele>1781.94</ele>
        <time>2012-08-02T12:58:29Z</time>
      </trkpt>
      <trkpt lat="46.53738" lon="10.50134">
        <ele>1783.86</ele>
        <time>2012-08-02T12:58:34Z</time>
      </trkpt>
      <trkpt lat="46.53728" lon="10.50121">
        <ele>1786.27</ele>
        <time>2012-08-02T12:58:37Z</time>
      </trkpt>
      <trkpt lat="46.53728" lon="10.50117">
        <ele>1785.79</ele>
        <time>2012-08-02T12:58:38Z</time>
      </trkpt>
      <trkpt lat="46.53729" lon="10.50113">
        <ele>1786.27</ele>
        <time>2012-08-02T12:58:50Z</time>
      </trkpt>
      <trkpt lat="46.53731" lon="10.50116">
        <ele>1787.23</ele>
        <time>2012-08-02T12:59:22Z</time>
      </trkpt>
      <trkpt lat="46.53731" lon="10.50117">
        <ele>1786.75</ele>
        <time>2012-08-02T12:59:27Z</time>
      </trkpt>
      <trkpt lat="46.53733" lon="10.50119">
        <ele>1787.23</ele>
        <time>2012-08-02T12:59:29Z</time>
      </trkpt>
      <trkpt lat="46.53738" lon="10.50122">
        <ele>1787.23</ele>
        <time>2012-08-02T12:59:30Z</time>
      </trkpt>
      <trkpt lat="46.53745" lon="10.50126">
        <ele>1787.71</ele>
        <time>2012-08-02T12:59:31Z</time>
      </trkpt>
      <trkpt lat="46.53752" lon="10.50128">
        <ele>1788.67</ele>
        <time>2012-08-02T12:59:32Z</time>
      </trkpt>
      <trkpt lat="46.5376" lon="10.50127">
        <ele>1789.63</ele>
        <time>2012-08-02T12:59:33Z</time>
      </trkpt>
      <trkpt lat="46.53769" lon="10.50122">
        <ele>1790.59</ele>
        <time>2012-08-02T12:59:34Z</time>
      </trkpt>
      <trkpt lat="46.5378" lon="10.50116">
        <ele>1791.55</ele>
        <time>2012-08-02T12:59:35Z</time>
      </trkpt>
      <trkpt lat="46.53793" lon="10.5011">
        <ele>1792.52</ele>
        <time>2012-08-02T12:59:36Z</time>
      </trkpt>
      <trkpt lat="46.53833" lon="10.50096">
        <ele>1797.32</ele>
        <time>2012-08-02T12:59:39Z</time>
      </trkpt>
      <trkpt lat="46.53856" lon="10.50087">
        <ele>1799.73</ele>
        <time>2012-08-02T12:59:41Z</time>
      </trkpt>
      <trkpt lat="46.53865" lon="10.50078">
        <ele>1801.17</ele>
        <time>2012-08-02T12:59:42Z</time>
      </trkpt>
      <trkpt lat="46.53873" lon="10.50067">
        <ele>1802.61</ele>
        <time>2012-08-02T12:59:43Z</time>
      </trkpt>
      <trkpt lat="46.5389" lon="10.50043">
        <ele>1805.49</ele>
        <time>2012-08-02T12:59:45Z</time>
      </trkpt>
      <trkpt lat="46.53899" lon="10.50033">
        <ele>1806.94</ele>
        <time>2012-08-02T12:59:46Z</time>
      </trkpt>
      <trkpt lat="46.53908" lon="10.50025">
        <ele>1807.9</ele>
        <time>2012-08-02T12:59:47Z</time>
      </trkpt>
      <trkpt lat="46.53922" lon="10.50015">
        <ele>1808.38</ele>
        <time>2012-08-02T12:59:49Z</time>
      </trkpt>
      <trkpt lat="46.53926" lon="10.50008">
        <ele>1808.38</ele>
        <time>2012-08-02T12:59:50Z</time>
      </trkpt>
      <trkpt lat="46.53928" lon="10.50001">
        <ele>1808.86</ele>
        <time>2012-08-02T12:59:51Z</time>
      </trkpt>
      <trkpt lat="46.53927" lon="10.49994">
        <ele>1809.82</ele>
        <time>2012-08-02T12:59:52Z</time>
      </trkpt>
      <trkpt lat="46.53924" lon="10.49992">
        <ele>1810.3</ele>
        <time>2012-08-02T12:59:53Z</time>
      </trkpt>
      <trkpt lat="46.53918" lon="10.49995">
        <ele>1811.26</ele>
        <time>2012-08-02T12:59:54Z</time>
      </trkpt>
      <trkpt lat="46.53911" lon="10.50001">
        <ele>1812.7</ele>
        <time>2012-08-02T12:59:55Z</time>
      </trkpt>
      <trkpt lat="46.53902" lon="10.50007">
        <ele>1814.15</ele>
        <time>2012-08-02T12:59:56Z</time>
      </trkpt>
      <trkpt lat="46.53869" lon="10.50028">
        <ele>1817.03</ele>
        <time>2012-08-02T12:59:59Z</time>
      </trkpt>
      <trkpt lat="46.53857" lon="10.50032">
        <ele>1817.03</ele>
        <time>2012-08-02T13:00:00Z</time>
      </trkpt>
      <trkpt lat="46.53844" lon="10.50035">
        <ele>1819.43</ele>
        <time>2012-08-02T13:00:01Z</time>
      </trkpt>
      <trkpt lat="46.53829" lon="10.50034">
        <ele>1820.87</ele>
        <time>2012-08-02T13:00:02Z</time>
      </trkpt>
      <trkpt lat="46.538" lon="10.50032">
        <ele>1824.24</ele>
        <time>2012-08-02T13:00:04Z</time>
      </trkpt>
      <trkpt lat="46.5376" lon="10.5003">
        <ele>1827.6</ele>
        <time>2012-08-02T13:00:07Z</time>
      </trkpt>
      <trkpt lat="46.5374" lon="10.50026">
        <ele>1829.05</ele>
        <time>2012-08-02T13:00:09Z</time>
      </trkpt>
      <trkpt lat="46.5373" lon="10.50021">
        <ele>1830.01</ele>
        <time>2012-08-02T13:00:10Z</time>
      </trkpt>
      <trkpt lat="46.53722" lon="10.50015">
        <ele>1831.45</ele>
        <time>2012-08-02T13:00:11Z</time>
      </trkpt>
      <trkpt lat="46.53713" lon="10.50007">
        <ele>1832.41</ele>
        <time>2012-08-02T13:00:12Z</time>
      </trkpt>
      <trkpt lat="46.53707" lon="10.49998">
        <ele>1833.85</ele>
        <time>2012-08-02T13:00:13Z</time>
      </trkpt>
      <trkpt lat="46.53701" lon="10.49986">
        <ele>1836.26</ele>
        <time>2012-08-02T13:00:14Z</time>
      </trkpt>
      <trkpt lat="46.53695" lon="10.49972">
        <ele>1838.66</ele>
        <time>2012-08-02T13:00:15Z</time>
      </trkpt>
      <trkpt lat="46.5369" lon="10.49958">
        <ele>1839.62</ele>
        <time>2012-08-02T13:00:16Z</time>
      </trkpt>
      <trkpt lat="46.53685" lon="10.49945">
        <ele>1841.06</ele>
        <time>2012-08-02T13:00:17Z</time>
      </trkpt>
      <trkpt lat="46.53679" lon="10.49935">
        <ele>1841.54</ele>
        <time>2012-08-02T13:00:18Z</time>
      </trkpt>
      <trkpt lat="46.53671" lon="10.49927">
        <ele>1842.5</ele>
        <time>2012-08-02T13:00:19Z</time>
      </trkpt>
      <trkpt lat="46.5366" lon="10.49921">
        <ele>1843.95</ele>
        <time>2012-08-02T13:00:20Z</time>
      </trkpt>
      <trkpt lat="46.5365" lon="10.49916">
        <ele>1844.43</ele>
        <time>2012-08-02T13:00:21Z</time>
      </trkpt>
      <trkpt lat="46.5364" lon="10.49908">
        <ele>1844.43</ele>
        <time>2012-08-02T13:00:22Z</time>
      </trkpt>
      <trkpt lat="46.53632" lon="10.49897">
        <ele>1845.39</ele>
        <time>2012-08-02T13:00:23Z</time>
      </trkpt>
      <trkpt lat="46.53624" lon="10.49884">
        <ele>1847.31</ele>
        <time>2012-08-02T13:00:24Z</time>
      </trkpt>
      <trkpt lat="46.53615" lon="10.49872">
        <ele>1848.27</ele>
        <time>2012-08-02T13:00:25Z</time>
      </trkpt>
      <trkpt lat="46.53606" lon="10.49861">
        <ele>1850.68</ele>
        <time>2012-08-02T13:00:26Z</time>
      </trkpt>
      <trkpt lat="46.53598" lon="10.49849">
        <ele>1851.16</ele>
        <time>2012-08-02T13:00:27Z</time>
      </trkpt>
      <trkpt lat="46.53593" lon="10.49836">
        <ele>1852.6</ele>
        <time>2012-08-02T13:00:28Z</time>
      </trkpt>
      <trkpt lat="46.53588" lon="10.49821">
        <ele>1853.56</ele>
        <time>2012-08-02T13:00:29Z</time>
      </trkpt>
      <trkpt lat="46.53583" lon="10.49803">
        <ele>1853.56</ele>
        <time>2012-08-02T13:00:30Z</time>
      </trkpt>
      <trkpt lat="46.53579" lon="10.49785">
        <ele>1855</ele>
        <time>2012-08-02T13:00:31Z</time>
      </trkpt>
      <trkpt lat="46.53572" lon="10.49742">
        <ele>1857.89</ele>
        <time>2012-08-02T13:00:33Z</time>
      </trkpt>
      <trkpt lat="46.53564" lon="10.49721">
        <ele>1858.85</ele>
        <time>2012-08-02T13:00:34Z</time>
      </trkpt>
      <trkpt lat="46.53553" lon="10.497">
        <ele>1859.81</ele>
        <time>2012-08-02T13:00:35Z</time>
      </trkpt>
      <trkpt lat="46.53511" lon="10.49637">
        <ele>1864.13</ele>
        <time>2012-08-02T13:00:38Z</time>
      </trkpt>
      <trkpt lat="46.53483" lon="10.49594">
        <ele>1868.94</ele>
        <time>2012-08-02T13:00:40Z</time>
      </trkpt>
      <trkpt lat="46.5347" lon="10.49572">
        <ele>1871.34</ele>
        <time>2012-08-02T13:00:41Z</time>
      </trkpt>
      <trkpt lat="46.5346" lon="10.4955">
        <ele>1873.27</ele>
        <time>2012-08-02T13:00:42Z</time>
      </trkpt>
      <trkpt lat="46.53441" lon="10.49504">
        <ele>1878.07</ele>
        <time>2012-08-02T13:00:44Z</time>
      </trkpt>
      <trkpt lat="46.53419" lon="10.49457">
        <ele>1881.92</ele>
        <time>2012-08-02T13:00:46Z</time>
      </trkpt>
      <trkpt lat="46.53396" lon="10.49415">
        <ele>1885.28</ele>
        <time>2012-08-02T13:00:48Z</time>
      </trkpt>
      <trkpt lat="46.53371" lon="10.49364">
        <ele>1889.61</ele>
        <time>2012-08-02T13:00:51Z</time>
      </trkpt>
      <trkpt lat="46.53366" lon="10.49346">
        <ele>1888.65</ele>
        <time>2012-08-02T13:00:52Z</time>
      </trkpt>
      <trkpt lat="46.53363" lon="10.49327">
        <ele>1893.93</ele>
        <time>2012-08-02T13:00:53Z</time>
      </trkpt>
      <trkpt lat="46.53349" lon="10.49268">
        <ele>1897.78</ele>
        <time>2012-08-02T13:00:56Z</time>
      </trkpt>
      <trkpt lat="46.53334" lon="10.49222">
        <ele>1900.18</ele>
        <time>2012-08-02T13:00:59Z</time>
      </trkpt>
      <trkpt lat="46.5333" lon="10.49212">
        <ele>1900.18</ele>
        <time>2012-08-02T13:01:00Z</time>
      </trkpt>
      <trkpt lat="46.53326" lon="10.49205">
        <ele>1900.66</ele>
        <time>2012-08-02T13:01:01Z</time>
      </trkpt>
      <trkpt lat="46.53325" lon="10.49199">
        <ele>1900.66</ele>
        <time>2012-08-02T13:01:02Z</time>
      </trkpt>
      <trkpt lat="46.53326" lon="10.49194">
        <ele>1900.66</ele>
        <time>2012-08-02T13:01:03Z</time>
      </trkpt>
      <trkpt lat="46.5333" lon="10.49194">
        <ele>1902.11</ele>
        <time>2012-08-02T13:01:04Z</time>
      </trkpt>
      <trkpt lat="46.53333" lon="10.49198">
        <ele>1902.11</ele>
        <time>2012-08-02T13:01:05Z</time>
      </trkpt>
      <trkpt lat="46.53336" lon="10.49207">
        <ele>1903.07</ele>
        <time>2012-08-02T13:01:06Z</time>
      </trkpt>
      <trkpt lat="46.5334" lon="10.4922">
        <ele>1904.03</ele>
        <time>2012-08-02T13:01:07Z</time>
      </trkpt>
      <trkpt lat="46.53345" lon="10.49233">
        <ele>1904.51</ele>
        <time>2012-08-02T13:01:08Z</time>
      </trkpt>
      <trkpt lat="46.53351" lon="10.49248">
        <ele>1906.43</ele>
        <time>2012-08-02T13:01:09Z</time>
      </trkpt>
      <trkpt lat="46.53373" lon="10.49289">
        <ele>1908.35</ele>
        <time>2012-08-02T13:01:12Z</time>
      </trkpt>
      <trkpt lat="46.53379" lon="10.49294">
        <ele>1908.35</ele>
        <time>2012-08-02T13:01:13Z</time>
      </trkpt>
      <trkpt lat="46.53384" lon="10.49295">
        <ele>1908.35</ele>
        <time>2012-08-02T13:01:14Z</time>
      </trkpt>
      <trkpt lat="46.53387" lon="10.4929">
        <ele>1909.32</ele>
        <time>2012-08-02T13:01:15Z</time>
      </trkpt>
      <trkpt lat="46.53387" lon="10.49282">
        <ele>1910.28</ele>
        <time>2012-08-02T13:01:16Z</time>
      </trkpt>
      <trkpt lat="46.53384" lon="10.49272">
        <ele>1912.2</ele>
        <time>2012-08-02T13:01:17Z</time>
      </trkpt>
      <trkpt lat="46.53377" lon="10.49261">
        <ele>1912.68</ele>
        <time>2012-08-02T13:01:18Z</time>
      </trkpt>
      <trkpt lat="46.53371" lon="10.49247">
        <ele>1914.6</ele>
        <time>2012-08-02T13:01:19Z</time>
      </trkpt>
      <trkpt lat="46.53365" lon="10.49231">
        <ele>1916.53</ele>
        <time>2012-08-02T13:01:20Z</time>
      </trkpt>
      <trkpt lat="46.53361" lon="10.49215">
        <ele>1918.45</ele>
        <time>2012-08-02T13:01:21Z</time>
      </trkpt>
      <trkpt lat="46.53355" lon="10.4918">
        <ele>1920.37</ele>
        <time>2012-08-02T13:01:23Z</time>
      </trkpt>
      <trkpt lat="46.53348" lon="10.49164">
        <ele>1921.81</ele>
        <time>2012-08-02T13:01:24Z</time>
      </trkpt>
      <trkpt lat="46.53338" lon="10.49149">
        <ele>1923.25</ele>
        <time>2012-08-02T13:01:25Z</time>
      </trkpt>
      <trkpt lat="46.53308" lon="10.49101">
        <ele>1927.1</ele>
        <time>2012-08-02T13:01:28Z</time>
      </trkpt>
      <trkpt lat="46.53292" lon="10.49066">
        <ele>1930.46</ele>
        <time>2012-08-02T13:01:30Z</time>
      </trkpt>
      <trkpt lat="46.53269" lon="10.49018">
        <ele>1934.31</ele>
        <time>2012-08-02T13:01:33Z</time>
      </trkpt>
      <trkpt lat="46.53262" lon="10.49004">
        <ele>1934.31</ele>
        <time>2012-08-02T13:01:34Z</time>
      </trkpt>
      <trkpt lat="46.5325" lon="10.48978">
        <ele>1935.75</ele>
        <time>2012-08-02T13:01:36Z</time>
      </trkpt>
      <trkpt lat="46.53245" lon="10.48963">
        <ele>1936.71</ele>
        <time>2012-08-02T13:01:37Z</time>
      </trkpt>
      <trkpt lat="46.53241" lon="10.48947">
        <ele>1938.16</ele>
        <time>2012-08-02T13:01:38Z</time>
      </trkpt>
      <trkpt lat="46.53234" lon="10.4891">
        <ele>1941.04</ele>
        <time>2012-08-02T13:01:40Z</time>
      </trkpt>
      <trkpt lat="46.53226" lon="10.48868">
        <ele>1944.4</ele>
        <time>2012-08-02T13:01:42Z</time>
      </trkpt>
      <trkpt lat="46.53208" lon="10.488">
        <ele>1947.29</ele>
        <time>2012-08-02T13:01:46Z</time>
      </trkpt>
      <trkpt lat="46.53203" lon="10.4879">
        <ele>1947.77</ele>
        <time>2012-08-02T13:01:47Z</time>
      </trkpt>
      <trkpt lat="46.53199" lon="10.48782">
        <ele>1947.29</ele>
        <time>2012-08-02T13:01:48Z</time>
      </trkpt>
      <trkpt lat="46.53192" lon="10.48769">
        <ele>1948.73</ele>
        <time>2012-08-02T13:01:50Z</time>
      </trkpt>
      <trkpt lat="46.53192" lon="10.48764">
        <ele>1948.73</ele>
        <time>2012-08-02T13:01:51Z</time>
      </trkpt>
      <trkpt lat="46.53194" lon="10.4876">
        <ele>1949.69</ele>
        <time>2012-08-02T13:01:52Z</time>
      </trkpt>
      <trkpt lat="46.53198" lon="10.48759">
        <ele>1949.69</ele>
        <time>2012-08-02T13:01:53Z</time>
      </trkpt>
      <trkpt lat="46.53201" lon="10.48761">
        <ele>1950.17</ele>
        <time>2012-08-02T13:01:54Z</time>
      </trkpt>
      <trkpt lat="46.53203" lon="10.48767">
        <ele>1950.65</ele>
        <time>2012-08-02T13:01:55Z</time>
      </trkpt>
      <trkpt lat="46.53206" lon="10.48776">
        <ele>1951.13</ele>
        <time>2012-08-02T13:01:56Z</time>
      </trkpt>
      <trkpt lat="46.5321" lon="10.48786">
        <ele>1952.09</ele>
        <time>2012-08-02T13:01:57Z</time>
      </trkpt>
      <trkpt lat="46.53215" lon="10.48795">
        <ele>1953.54</ele>
        <time>2012-08-02T13:01:58Z</time>
      </trkpt>
      <trkpt lat="46.53221" lon="10.48805">
        <ele>1954.02</ele>
        <time>2012-08-02T13:01:59Z</time>
      </trkpt>
      <trkpt lat="46.5323" lon="10.48815">
        <ele>1955.94</ele>
        <time>2012-08-02T13:02:00Z</time>
      </trkpt>
      <trkpt lat="46.5324" lon="10.48827">
        <ele>1957.86</ele>
        <time>2012-08-02T13:02:01Z</time>
      </trkpt>
      <trkpt lat="46.5325" lon="10.4884">
        <ele>1959.78</ele>
        <time>2012-08-02T13:02:02Z</time>
      </trkpt>
      <trkpt lat="46.53259" lon="10.48855">
        <ele>1961.23</ele>
        <time>2012-08-02T13:02:03Z</time>
      </trkpt>
      <trkpt lat="46.53277" lon="10.4889">
        <ele>1964.59</ele>
        <time>2012-08-02T13:02:05Z</time>
      </trkpt>
      <trkpt lat="46.53297" lon="10.48927">
        <ele>1967.48</ele>
        <time>2012-08-02T13:02:07Z</time>
      </trkpt>
      <trkpt lat="46.53319" lon="10.48962">
        <ele>1970.36</ele>
        <time>2012-08-02T13:02:09Z</time>
      </trkpt>
      <trkpt lat="46.53342" lon="10.48998">
        <ele>1974.2</ele>
        <time>2012-08-02T13:02:11Z</time>
      </trkpt>
      <trkpt lat="46.53361" lon="10.49028">
        <ele>1975.17</ele>
        <time>2012-08-02T13:02:13Z</time>
      </trkpt>
      <trkpt lat="46.53373" lon="10.49044">
        <ele>1975.65</ele>
        <time>2012-08-02T13:02:15Z</time>
      </trkpt>
      <trkpt lat="46.53377" lon="10.49045">
        <ele>1976.13</ele>
        <time>2012-08-02T13:02:16Z</time>
      </trkpt>
      <trkpt lat="46.53382" lon="10.49033">
        <ele>1976.61</ele>
        <time>2012-08-02T13:02:18Z</time>
      </trkpt>
      <trkpt lat="46.53379" lon="10.49024">
        <ele>1977.57</ele>
        <time>2012-08-02T13:02:19Z</time>
      </trkpt>
      <trkpt lat="46.53372" lon="10.49014">
        <ele>1979.01</ele>
        <time>2012-08-02T13:02:20Z</time>
      </trkpt>
      <trkpt lat="46.53358" lon="10.48985">
        <ele>1981.9</ele>
        <time>2012-08-02T13:02:22Z</time>
      </trkpt>
      <trkpt lat="46.53351" lon="10.48967">
        <ele>1983.82</ele>
        <time>2012-08-02T13:02:23Z</time>
      </trkpt>
      <trkpt lat="46.53345" lon="10.48947">
        <ele>1985.26</ele>
        <time>2012-08-02T13:02:24Z</time>
      </trkpt>
      <trkpt lat="46.53334" lon="10.48905">
        <ele>1989.1</ele>
        <time>2012-08-02T13:02:26Z</time>
      </trkpt>
      <trkpt lat="46.53319" lon="10.48842">
        <ele>1993.91</ele>
        <time>2012-08-02T13:02:29Z</time>
      </trkpt>
      <trkpt lat="46.53312" lon="10.48822">
        <ele>1995.83</ele>
        <time>2012-08-02T13:02:30Z</time>
      </trkpt>
      <trkpt lat="46.53296" lon="10.48784">
        <ele>1999.2</ele>
        <time>2012-08-02T13:02:32Z</time>
      </trkpt>
      <trkpt lat="46.53289" lon="10.48763">
        <ele>2000.16</ele>
        <time>2012-08-02T13:02:33Z</time>
      </trkpt>
      <trkpt lat="46.53279" lon="10.4872">
        <ele>2004.01</ele>
        <time>2012-08-02T13:02:35Z</time>
      </trkpt>
      <trkpt lat="46.53265" lon="10.48653">
        <ele>2007.85</ele>
        <time>2012-08-02T13:02:38Z</time>
      </trkpt>
      <trkpt lat="46.53257" lon="10.48611">
        <ele>2011.7</ele>
        <time>2012-08-02T13:02:40Z</time>
      </trkpt>
      <trkpt lat="46.53243" lon="10.48566">
        <ele>2013.14</ele>
        <time>2012-08-02T13:02:43Z</time>
      </trkpt>
      <trkpt lat="46.53239" lon="10.48558">
        <ele>2013.14</ele>
        <time>2012-08-02T13:02:44Z</time>
      </trkpt>
      <trkpt lat="46.53236" lon="10.48552">
        <ele>2013.62</ele>
        <time>2012-08-02T13:02:45Z</time>
      </trkpt>
      <trkpt lat="46.53237" lon="10.48547">
        <ele>2014.58</ele>
        <time>2012-08-02T13:02:46Z</time>
      </trkpt>
      <trkpt lat="46.5324" lon="10.48545">
        <ele>2015.06</ele>
        <time>2012-08-02T13:02:47Z</time>
      </trkpt>
      <trkpt lat="46.53245" lon="10.48547">
        <ele>2015.06</ele>
        <time>2012-08-02T13:02:48Z</time>
      </trkpt>
      <trkpt lat="46.53248" lon="10.48552">
        <ele>2016.02</ele>
        <time>2012-08-02T13:02:49Z</time>
      </trkpt>
      <trkpt lat="46.53251" lon="10.48562">
        <ele>2016.5</ele>
        <time>2012-08-02T13:02:50Z</time>
      </trkpt>
      <trkpt lat="46.53256" lon="10.48574">
        <ele>2017.94</ele>
        <time>2012-08-02T13:02:51Z</time>
      </trkpt>
      <trkpt lat="46.53266" lon="10.48598">
        <ele>2021.31</ele>
        <time>2012-08-02T13:02:53Z</time>
      </trkpt>
      <trkpt lat="46.53286" lon="10.48644">
        <ele>2024.67</ele>
        <time>2012-08-02T13:02:56Z</time>
      </trkpt>
      <trkpt lat="46.53306" lon="10.48693">
        <ele>2029</ele>
        <time>2012-08-02T13:02:59Z</time>
      </trkpt>
      <trkpt lat="46.53321" lon="10.48738">
        <ele>2030.92</ele>
        <time>2012-08-02T13:03:02Z</time>
      </trkpt>
      <trkpt lat="46.53328" lon="10.48758">
        <ele>2031.88</ele>
        <time>2012-08-02T13:03:04Z</time>
      </trkpt>
      <trkpt lat="46.5333" lon="10.48764">
        <ele>2031.88</ele>
        <time>2012-08-02T13:03:05Z</time>
      </trkpt>
      <trkpt lat="46.53333" lon="10.48768">
        <ele>2032.36</ele>
        <time>2012-08-02T13:03:06Z</time>
      </trkpt>
      <trkpt lat="46.53335" lon="10.4877">
        <ele>2032.84</ele>
        <time>2012-08-02T13:03:07Z</time>
      </trkpt>
      <trkpt lat="46.53336" lon="10.48771">
        <ele>2032.84</ele>
        <time>2012-08-02T13:03:08Z</time>
      </trkpt>
      <trkpt lat="46.53343" lon="10.48776">
        <ele>2033.33</ele>
        <time>2012-08-02T13:03:14Z</time>
      </trkpt>
      <trkpt lat="46.53348" lon="10.4878">
        <ele>2033.33</ele>
        <time>2012-08-02T13:03:15Z</time>
      </trkpt>
      <trkpt lat="46.53359" lon="10.48793">
        <ele>2036.21</ele>
        <time>2012-08-02T13:03:17Z</time>
      </trkpt>
      <trkpt lat="46.53365" lon="10.48802">
        <ele>2036.69</ele>
        <time>2012-08-02T13:03:18Z</time>
      </trkpt>
      <trkpt lat="46.5337" lon="10.48814">
        <ele>2038.13</ele>
        <time>2012-08-02T13:03:19Z</time>
      </trkpt>
      <trkpt lat="46.53379" lon="10.48832">
        <ele>2039.57</ele>
        <time>2012-08-02T13:03:21Z</time>
      </trkpt>
      <trkpt lat="46.53383" lon="10.48835">
        <ele>2039.57</ele>
        <time>2012-08-02T13:03:22Z</time>
      </trkpt>
      <trkpt lat="46.53387" lon="10.48832">
        <ele>2040.54</ele>
        <time>2012-08-02T13:03:23Z</time>
      </trkpt>
      <trkpt lat="46.53389" lon="10.48826">
        <ele>2040.05</ele>
        <time>2012-08-02T13:03:24Z</time>
      </trkpt>
      <trkpt lat="46.53388" lon="10.48817">
        <ele>2041.02</ele>
        <time>2012-08-02T13:03:25Z</time>
      </trkpt>
      <trkpt lat="46.53384" lon="10.48807">
        <ele>2041.5</ele>
        <time>2012-08-02T13:03:26Z</time>
      </trkpt>
      <trkpt lat="46.5338" lon="10.48796">
        <ele>2043.42</ele>
        <time>2012-08-02T13:03:27Z</time>
      </trkpt>
      <trkpt lat="46.53374" lon="10.48784">
        <ele>2043.9</ele>
        <time>2012-08-02T13:03:28Z</time>
      </trkpt>
      <trkpt lat="46.53355" lon="10.48743">
        <ele>2048.23</ele>
        <time>2012-08-02T13:03:31Z</time>
      </trkpt>
      <trkpt lat="46.53351" lon="10.48727">
        <ele>2050.15</ele>
        <time>2012-08-02T13:03:32Z</time>
      </trkpt>
      <trkpt lat="46.5334" lon="10.48673">
        <ele>2053.99</ele>
        <time>2012-08-02T13:03:35Z</time>
      </trkpt>
      <trkpt lat="46.53335" lon="10.48654">
        <ele>2055.44</ele>
        <time>2012-08-02T13:03:36Z</time>
      </trkpt>
      <trkpt lat="46.53318" lon="10.48603">
        <ele>2059.28</ele>
        <time>2012-08-02T13:03:39Z</time>
      </trkpt>
      <trkpt lat="46.53303" lon="10.48542">
        <ele>2062.65</ele>
        <time>2012-08-02T13:03:43Z</time>
      </trkpt>
      <trkpt lat="46.53299" lon="10.48532">
        <ele>2062.65</ele>
        <time>2012-08-02T13:03:44Z</time>
      </trkpt>
      <trkpt lat="46.53293" lon="10.48517">
        <ele>2064.09</ele>
        <time>2012-08-02T13:03:47Z</time>
      </trkpt>
      <trkpt lat="46.53292" lon="10.48516">
        <ele>2064.09</ele>
        <time>2012-08-02T13:03:49Z</time>
      </trkpt>
      <trkpt lat="46.53294" lon="10.48513">
        <ele>2064.57</ele>
        <time>2012-08-02T13:03:50Z</time>
      </trkpt>
      <trkpt lat="46.53296" lon="10.48512">
        <ele>2065.05</ele>
        <time>2012-08-02T13:03:51Z</time>
      </trkpt>
      <trkpt lat="46.53299" lon="10.48516">
        <ele>2065.53</ele>
        <time>2012-08-02T13:03:52Z</time>
      </trkpt>
      <trkpt lat="46.53301" lon="10.48523">
        <ele>2066.01</ele>
        <time>2012-08-02T13:03:53Z</time>
      </trkpt>
      <trkpt lat="46.53305" lon="10.48533">
        <ele>2066.97</ele>
        <time>2012-08-02T13:03:54Z</time>
      </trkpt>
      <trkpt lat="46.53308" lon="10.48544">
        <ele>2067.45</ele>
        <time>2012-08-02T13:03:55Z</time>
      </trkpt>
      <trkpt lat="46.53323" lon="10.48582">
        <ele>2071.78</ele>
        <time>2012-08-02T13:03:58Z</time>
      </trkpt>
      <trkpt lat="46.53354" lon="10.48651">
        <ele>2076.1</ele>
        <time>2012-08-02T13:04:03Z</time>
      </trkpt>
      <trkpt lat="46.53369" lon="10.4868">
        <ele>2078.03</ele>
        <time>2012-08-02T13:04:06Z</time>
      </trkpt>
      <trkpt lat="46.53373" lon="10.48685">
        <ele>2078.51</ele>
        <time>2012-08-02T13:04:07Z</time>
      </trkpt>
      <trkpt lat="46.53376" lon="10.48685">
        <ele>2079.47</ele>
        <time>2012-08-02T13:04:08Z</time>
      </trkpt>
      <trkpt lat="46.53378" lon="10.48682">
        <ele>2079.47</ele>
        <time>2012-08-02T13:04:09Z</time>
      </trkpt>
      <trkpt lat="46.53378" lon="10.48676">
        <ele>2080.43</ele>
        <time>2012-08-02T13:04:10Z</time>
      </trkpt>
      <trkpt lat="46.53375" lon="10.48668">
        <ele>2080.43</ele>
        <time>2012-08-02T13:04:11Z</time>
      </trkpt>
      <trkpt lat="46.5337" lon="10.48658">
        <ele>2080.91</ele>
        <time>2012-08-02T13:04:12Z</time>
      </trkpt>
      <trkpt lat="46.53355" lon="10.48619">
        <ele>2084.28</ele>
        <time>2012-08-02T13:04:15Z</time>
      </trkpt>
      <trkpt lat="46.53347" lon="10.48593">
        <ele>2085.24</ele>
        <time>2012-08-02T13:04:17Z</time>
      </trkpt>
      <trkpt lat="46.5334" lon="10.48565">
        <ele>2088.6</ele>
        <time>2012-08-02T13:04:19Z</time>
      </trkpt>
      <trkpt lat="46.5333" lon="10.48522">
        <ele>2091.97</ele>
        <time>2012-08-02T13:04:22Z</time>
      </trkpt>
      <trkpt lat="46.53327" lon="10.48509">
        <ele>2091.97</ele>
        <time>2012-08-02T13:04:23Z</time>
      </trkpt>
      <trkpt lat="46.53325" lon="10.48496">
        <ele>2092.93</ele>
        <time>2012-08-02T13:04:24Z</time>
      </trkpt>
      <trkpt lat="46.53326" lon="10.48483">
        <ele>2094.37</ele>
        <time>2012-08-02T13:04:25Z</time>
      </trkpt>
      <trkpt lat="46.53328" lon="10.4847">
        <ele>2094.85</ele>
        <time>2012-08-02T13:04:26Z</time>
      </trkpt>
      <trkpt lat="46.53329" lon="10.48456">
        <ele>2095.81</ele>
        <time>2012-08-02T13:04:27Z</time>
      </trkpt>
      <trkpt lat="46.5333" lon="10.48443">
        <ele>2096.29</ele>
        <time>2012-08-02T13:04:28Z</time>
      </trkpt>
      <trkpt lat="46.53327" lon="10.48428">
        <ele>2097.25</ele>
        <time>2012-08-02T13:04:29Z</time>
      </trkpt>
      <trkpt lat="46.53322" lon="10.48415">
        <ele>2098.7</ele>
        <time>2012-08-02T13:04:30Z</time>
      </trkpt>
      <trkpt lat="46.53315" lon="10.48403">
        <ele>2099.66</ele>
        <time>2012-08-02T13:04:31Z</time>
      </trkpt>
      <trkpt lat="46.53308" lon="10.48391">
        <ele>2100.62</ele>
        <time>2012-08-02T13:04:32Z</time>
      </trkpt>
      <trkpt lat="46.53303" lon="10.48378">
        <ele>2102.06</ele>
        <time>2012-08-02T13:04:33Z</time>
      </trkpt>
      <trkpt lat="46.53299" lon="10.48364">
        <ele>2103.98</ele>
        <time>2012-08-02T13:04:34Z</time>
      </trkpt>
      <trkpt lat="46.53296" lon="10.48349">
        <ele>2104.94</ele>
        <time>2012-08-02T13:04:35Z</time>
      </trkpt>
      <trkpt lat="46.53294" lon="10.48334">
        <ele>2106.39</ele>
        <time>2012-08-02T13:04:36Z</time>
      </trkpt>
      <trkpt lat="46.53292" lon="10.48321">
        <ele>2105.91</ele>
        <time>2012-08-02T13:04:37Z</time>
      </trkpt>
      <trkpt lat="46.53288" lon="10.483">
        <ele>2107.35</ele>
        <time>2012-08-02T13:04:39Z</time>
      </trkpt>
      <trkpt lat="46.53285" lon="10.48295">
        <ele>2107.35</ele>
        <time>2012-08-02T13:04:40Z</time>
      </trkpt>
      <trkpt lat="46.53282" lon="10.48294">
        <ele>2108.31</ele>
        <time>2012-08-02T13:04:41Z</time>
      </trkpt>
      <trkpt lat="46.53281" lon="10.48293">
        <ele>2108.31</ele>
        <time>2012-08-02T13:04:42Z</time>
      </trkpt>
      <trkpt lat="46.53279" lon="10.48291">
        <ele>2107.83</ele>
        <time>2012-08-02T13:04:52Z</time>
      </trkpt>
      <trkpt lat="46.53279" lon="10.4829">
        <ele>2108.31</ele>
        <time>2012-08-02T13:04:53Z</time>
      </trkpt>
      <trkpt lat="46.5328" lon="10.4828">
        <ele>2110.23</ele>
        <time>2012-08-02T13:04:59Z</time>
      </trkpt>
      <trkpt lat="46.5328" lon="10.48272">
        <ele>2110.71</ele>
        <time>2012-08-02T13:05:00Z</time>
      </trkpt>
      <trkpt lat="46.53279" lon="10.48262">
        <ele>2111.67</ele>
        <time>2012-08-02T13:05:01Z</time>
      </trkpt>
      <trkpt lat="46.53271" lon="10.48228">
        <ele>2112.63</ele>
        <time>2012-08-02T13:05:05Z</time>
      </trkpt>
      <trkpt lat="46.53271" lon="10.48223">
        <ele>2113.12</ele>
        <time>2012-08-02T13:05:06Z</time>
      </trkpt>
      <trkpt lat="46.53273" lon="10.4822">
        <ele>2113.12</ele>
        <time>2012-08-02T13:05:07Z</time>
      </trkpt>
      <trkpt lat="46.53276" lon="10.48221">
        <ele>2113.6</ele>
        <time>2012-08-02T13:05:08Z</time>
      </trkpt>
      <trkpt lat="46.53278" lon="10.48226">
        <ele>2113.12</ele>
        <time>2012-08-02T13:05:09Z</time>
      </trkpt>
      <trkpt lat="46.5328" lon="10.48233">
        <ele>2114.08</ele>
        <time>2012-08-02T13:05:10Z</time>
      </trkpt>
      <trkpt lat="46.53282" lon="10.48243">
        <ele>2114.56</ele>
        <time>2012-08-02T13:05:11Z</time>
      </trkpt>
      <trkpt lat="46.5329" lon="10.48274">
        <ele>2116.96</ele>
        <time>2012-08-02T13:05:14Z</time>
      </trkpt>
      <trkpt lat="46.53303" lon="10.4831">
        <ele>2120.32</ele>
        <time>2012-08-02T13:05:17Z</time>
      </trkpt>
      <trkpt lat="46.53311" lon="10.4833">
        <ele>2121.29</ele>
        <time>2012-08-02T13:05:19Z</time>
      </trkpt>
      <trkpt lat="46.53315" lon="10.48334">
        <ele>2122.25</ele>
        <time>2012-08-02T13:05:20Z</time>
      </trkpt>
      <trkpt lat="46.5332" lon="10.48333">
        <ele>2122.73</ele>
        <time>2012-08-02T13:05:21Z</time>
      </trkpt>
      <trkpt lat="46.53322" lon="10.48328">
        <ele>2123.21</ele>
        <time>2012-08-02T13:05:22Z</time>
      </trkpt>
      <trkpt lat="46.53322" lon="10.48318">
        <ele>2123.21</ele>
        <time>2012-08-02T13:05:23Z</time>
      </trkpt>
      <trkpt lat="46.5332" lon="10.48308">
        <ele>2124.65</ele>
        <time>2012-08-02T13:05:24Z</time>
      </trkpt>
      <trkpt lat="46.53316" lon="10.48296">
        <ele>2126.09</ele>
        <time>2012-08-02T13:05:25Z</time>
      </trkpt>
      <trkpt lat="46.53312" lon="10.48282">
        <ele>2127.53</ele>
        <time>2012-08-02T13:05:26Z</time>
      </trkpt>
      <trkpt lat="46.53309" lon="10.48268">
        <ele>2128.02</ele>
        <time>2012-08-02T13:05:27Z</time>
      </trkpt>
      <trkpt lat="46.53307" lon="10.48252">
        <ele>2129.46</ele>
        <time>2012-08-02T13:05:28Z</time>
      </trkpt>
      <trkpt lat="46.53307" lon="10.48236">
        <ele>2130.9</ele>
        <time>2012-08-02T13:05:29Z</time>
      </trkpt>
      <trkpt lat="46.53307" lon="10.48219">
        <ele>2131.86</ele>
        <time>2012-08-02T13:05:30Z</time>
      </trkpt>
      <trkpt lat="46.53305" lon="10.48168">
        <ele>2134.74</ele>
        <time>2012-08-02T13:05:33Z</time>
      </trkpt>
      <trkpt lat="46.53302" lon="10.48154">
        <ele>2135.23</ele>
        <time>2012-08-02T13:05:34Z</time>
      </trkpt>
      <trkpt lat="46.53299" lon="10.48143">
        <ele>2135.71</ele>
        <time>2012-08-02T13:05:35Z</time>
      </trkpt>
      <trkpt lat="46.53295" lon="10.48128">
        <ele>2136.67</ele>
        <time>2012-08-02T13:05:37Z</time>
      </trkpt>
      <trkpt lat="46.53296" lon="10.48124">
        <ele>2137.15</ele>
        <time>2012-08-02T13:05:38Z</time>
      </trkpt>
      <trkpt lat="46.533" lon="10.48123">
        <ele>2137.15</ele>
        <time>2012-08-02T13:05:39Z</time>
      </trkpt>
      <trkpt lat="46.53303" lon="10.48127">
        <ele>2137.63</ele>
        <time>2012-08-02T13:05:40Z</time>
      </trkpt>
      <trkpt lat="46.53307" lon="10.48135">
        <ele>2138.11</ele>
        <time>2012-08-02T13:05:41Z</time>
      </trkpt>
      <trkpt lat="46.53309" lon="10.48145">
        <ele>2139.55</ele>
        <time>2012-08-02T13:05:42Z</time>
      </trkpt>
      <trkpt lat="46.53312" lon="10.48157">
        <ele>2140.03</ele>
        <time>2012-08-02T13:05:43Z</time>
      </trkpt>
      <trkpt lat="46.53325" lon="10.48214">
        <ele>2143.4</ele>
        <time>2012-08-02T13:05:47Z</time>
      </trkpt>
      <trkpt lat="46.53336" lon="10.48262">
        <ele>2147.24</ele>
        <time>2012-08-02T13:05:50Z</time>
      </trkpt>
      <trkpt lat="46.53348" lon="10.48303">
        <ele>2149.16</ele>
        <time>2012-08-02T13:05:53Z</time>
      </trkpt>
      <trkpt lat="46.53352" lon="10.48319">
        <ele>2150.61</ele>
        <time>2012-08-02T13:05:55Z</time>
      </trkpt>
      <trkpt lat="46.53355" lon="10.48323">
        <ele>2151.09</ele>
        <time>2012-08-02T13:05:56Z</time>
      </trkpt>
      <trkpt lat="46.5336" lon="10.48322">
        <ele>2151.57</ele>
        <time>2012-08-02T13:05:57Z</time>
      </trkpt>
      <trkpt lat="46.53363" lon="10.48316">
        <ele>2151.09</ele>
        <time>2012-08-02T13:05:58Z</time>
      </trkpt>
      <trkpt lat="46.53363" lon="10.48307">
        <ele>2152.05</ele>
        <time>2012-08-02T13:05:59Z</time>
      </trkpt>
      <trkpt lat="46.53362" lon="10.48297">
        <ele>2152.53</ele>
        <time>2012-08-02T13:06:00Z</time>
      </trkpt>
      <trkpt lat="46.53359" lon="10.48285">
        <ele>2153.49</ele>
        <time>2012-08-02T13:06:01Z</time>
      </trkpt>
      <trkpt lat="46.53353" lon="10.48258">
        <ele>2154.93</ele>
        <time>2012-08-02T13:06:03Z</time>
      </trkpt>
      <trkpt lat="46.53351" lon="10.48243">
        <ele>2156.37</ele>
        <time>2012-08-02T13:06:04Z</time>
      </trkpt>
      <trkpt lat="46.53351" lon="10.4823">
        <ele>2156.86</ele>
        <time>2012-08-02T13:06:05Z</time>
      </trkpt>
      <trkpt lat="46.5335" lon="10.48175">
        <ele>2160.7</ele>
        <time>2012-08-02T13:06:09Z</time>
      </trkpt>
      <trkpt lat="46.53344" lon="10.4813">
        <ele>2164.06</ele>
        <time>2012-08-02T13:06:13Z</time>
      </trkpt>
      <trkpt lat="46.53337" lon="10.48082">
        <ele>2166.95</ele>
        <time>2012-08-02T13:06:17Z</time>
      </trkpt>
      <trkpt lat="46.53331" lon="10.48043">
        <ele>2170.31</ele>
        <time>2012-08-02T13:06:20Z</time>
      </trkpt>
      <trkpt lat="46.5333" lon="10.4803">
        <ele>2170.79</ele>
        <time>2012-08-02T13:06:21Z</time>
      </trkpt>
      <trkpt lat="46.53328" lon="10.47974">
        <ele>2175.12</ele>
        <time>2012-08-02T13:06:25Z</time>
      </trkpt>
      <trkpt lat="46.53325" lon="10.47912">
        <ele>2178.97</ele>
        <time>2012-08-02T13:06:29Z</time>
      </trkpt>
      <trkpt lat="46.53323" lon="10.47862">
        <ele>2182.33</ele>
        <time>2012-08-02T13:06:32Z</time>
      </trkpt>
      <trkpt lat="46.53323" lon="10.47845">
        <ele>2183.77</ele>
        <time>2012-08-02T13:06:33Z</time>
      </trkpt>
      <trkpt lat="46.53327" lon="10.47793">
        <ele>2188.1</ele>
        <time>2012-08-02T13:06:36Z</time>
      </trkpt>
      <trkpt lat="46.53327" lon="10.47776">
        <ele>2189.06</ele>
        <time>2012-08-02T13:06:37Z</time>
      </trkpt>
      <trkpt lat="46.53325" lon="10.47758">
        <ele>2190.02</ele>
        <time>2012-08-02T13:06:38Z</time>
      </trkpt>
      <trkpt lat="46.53321" lon="10.47741">
        <ele>2190.98</ele>
        <time>2012-08-02T13:06:39Z</time>
      </trkpt>
      <trkpt lat="46.53306" lon="10.4769">
        <ele>2194.83</ele>
        <time>2012-08-02T13:06:42Z</time>
      </trkpt>
      <trkpt lat="46.53303" lon="10.47675">
        <ele>2195.31</ele>
        <time>2012-08-02T13:06:43Z</time>
      </trkpt>
      <trkpt lat="46.5329" lon="10.47637">
        <ele>2197.23</ele>
        <time>2012-08-02T13:06:47Z</time>
      </trkpt>
      <trkpt lat="46.53297" lon="10.47628">
        <ele>2198.19</ele>
        <time>2012-08-02T13:06:51Z</time>
      </trkpt>
      <trkpt lat="46.533" lon="10.47635">
        <ele>2199.15</ele>
        <time>2012-08-02T13:06:52Z</time>
      </trkpt>
      <trkpt lat="46.53302" lon="10.47644">
        <ele>2200.11</ele>
        <time>2012-08-02T13:06:53Z</time>
      </trkpt>
      <trkpt lat="46.53313" lon="10.47676">
        <ele>2202.52</ele>
        <time>2012-08-02T13:06:56Z</time>
      </trkpt>
      <trkpt lat="46.53336" lon="10.47724">
        <ele>2206.84</ele>
        <time>2012-08-02T13:07:00Z</time>
      </trkpt>
      <trkpt lat="46.53341" lon="10.47737">
        <ele>2207.81</ele>
        <time>2012-08-02T13:07:01Z</time>
      </trkpt>
      <trkpt lat="46.53344" lon="10.47751">
        <ele>2208.29</ele>
        <time>2012-08-02T13:07:02Z</time>
      </trkpt>
      <trkpt lat="46.53346" lon="10.47763">
        <ele>2209.25</ele>
        <time>2012-08-02T13:07:03Z</time>
      </trkpt>
      <trkpt lat="46.53347" lon="10.47774">
        <ele>2209.25</ele>
        <time>2012-08-02T13:07:04Z</time>
      </trkpt>
      <trkpt lat="46.53349" lon="10.47782">
        <ele>2210.21</ele>
        <time>2012-08-02T13:07:05Z</time>
      </trkpt>
      <trkpt lat="46.53352" lon="10.47787">
        <ele>2210.21</ele>
        <time>2012-08-02T13:07:06Z</time>
      </trkpt>
      <trkpt lat="46.53357" lon="10.47788">
        <ele>2211.17</ele>
        <time>2012-08-02T13:07:07Z</time>
      </trkpt>
      <trkpt lat="46.53361" lon="10.47784">
        <ele>2211.17</ele>
        <time>2012-08-02T13:07:08Z</time>
      </trkpt>
      <trkpt lat="46.53363" lon="10.47777">
        <ele>2211.17</ele>
        <time>2012-08-02T13:07:09Z</time>
      </trkpt>
      <trkpt lat="46.53362" lon="10.47767">
        <ele>2212.13</ele>
        <time>2012-08-02T13:07:10Z</time>
      </trkpt>
      <trkpt lat="46.5336" lon="10.47754">
        <ele>2213.09</ele>
        <time>2012-08-02T13:07:11Z</time>
      </trkpt>
      <trkpt lat="46.5335" lon="10.47708">
        <ele>2215.98</ele>
        <time>2012-08-02T13:07:14Z</time>
      </trkpt>
      <trkpt lat="46.53339" lon="10.47659">
        <ele>2219.34</ele>
        <time>2012-08-02T13:07:17Z</time>
      </trkpt>
      <trkpt lat="46.53334" lon="10.4764">
        <ele>2219.82</ele>
        <time>2012-08-02T13:07:19Z</time>
      </trkpt>
      <trkpt lat="46.53332" lon="10.47635">
        <ele>2220.3</ele>
        <time>2012-08-02T13:07:20Z</time>
      </trkpt>
      <trkpt lat="46.53333" lon="10.47631">
        <ele>2220.3</ele>
        <time>2012-08-02T13:07:21Z</time>
      </trkpt>
      <trkpt lat="46.53335" lon="10.4763">
        <ele>2221.26</ele>
        <time>2012-08-02T13:07:22Z</time>
      </trkpt>
      <trkpt lat="46.53338" lon="10.47634">
        <ele>2221.74</ele>
        <time>2012-08-02T13:07:23Z</time>
      </trkpt>
      <trkpt lat="46.53341" lon="10.47641">
        <ele>2222.22</ele>
        <time>2012-08-02T13:07:24Z</time>
      </trkpt>
      <trkpt lat="46.53344" lon="10.47652">
        <ele>2223.19</ele>
        <time>2012-08-02T13:07:25Z</time>
      </trkpt>
      <trkpt lat="46.53347" lon="10.47664">
        <ele>2224.63</ele>
        <time>2012-08-02T13:07:26Z</time>
      </trkpt>
      <trkpt lat="46.53352" lon="10.47676">
        <ele>2225.59</ele>
        <time>2012-08-02T13:07:27Z</time>
      </trkpt>
      <trkpt lat="46.53356" lon="10.4769">
        <ele>2227.03</ele>
        <time>2012-08-02T13:07:28Z</time>
      </trkpt>
      <trkpt lat="46.53369" lon="10.47734">
        <ele>2230.4</ele>
        <time>2012-08-02T13:07:31Z</time>
      </trkpt>
      <trkpt lat="46.53377" lon="10.47772">
        <ele>2231.84</ele>
        <time>2012-08-02T13:07:34Z</time>
      </trkpt>
      <trkpt lat="46.5338" lon="10.47781">
        <ele>2231.36</ele>
        <time>2012-08-02T13:07:35Z</time>
      </trkpt>
      <trkpt lat="46.53383" lon="10.47786">
        <ele>2232.32</ele>
        <time>2012-08-02T13:07:36Z</time>
      </trkpt>
      <trkpt lat="46.53386" lon="10.4779">
        <ele>2232.8</ele>
        <time>2012-08-02T13:07:37Z</time>
      </trkpt>
      <trkpt lat="46.53389" lon="10.47791">
        <ele>2232.8</ele>
        <time>2012-08-02T13:07:38Z</time>
      </trkpt>
      <trkpt lat="46.53391" lon="10.4779">
        <ele>2233.28</ele>
        <time>2012-08-02T13:07:39Z</time>
      </trkpt>
      <trkpt lat="46.53394" lon="10.47791">
        <ele>2233.28</ele>
        <time>2012-08-02T13:07:48Z</time>
      </trkpt>
      <trkpt lat="46.53395" lon="10.47791">
        <ele>2234.24</ele>
        <time>2012-08-02T13:08:11Z</time>
      </trkpt>
      <trkpt lat="46.53395" lon="10.47791">
        <ele>2236.16</ele>
        <time>2012-08-02T13:08:47Z</time>
      </trkpt>
      <trkpt lat="46.53395" lon="10.47791">
        <ele>2237.61</ele>
        <time>2012-08-02T13:09:27Z</time>
      </trkpt>
      <trkpt lat="46.53395" lon="10.47791">
        <ele>2238.57</ele>
        <time>2012-08-02T13:10:03Z</time>
      </trkpt>
      <trkpt lat="46.53395" lon="10.4779">
        <ele>2240.01</ele>
        <time>2012-08-02T13:10:40Z</time>
      </trkpt>
      <trkpt lat="46.53395" lon="10.4779">
        <ele>2240.97</ele>
        <time>2012-08-02T13:11:09Z</time>
      </trkpt>
      <trkpt lat="46.53395" lon="10.4779">
        <ele>2242.41</ele>
        <time>2012-08-02T13:11:46Z</time>
      </trkpt>
      <trkpt lat="46.53395" lon="10.4779">
        <ele>2242.89</ele>
        <time>2012-08-02T13:12:18Z</time>
      </trkpt>
      <trkpt lat="46.53395" lon="10.4779">
        <ele>2244.33</ele>
        <time>2012-08-02T13:12:52Z</time>
      </trkpt>
      <trkpt lat="46.53395" lon="10.4779">
        <ele>2244.33</ele>
        <time>2012-08-02T13:13:24Z</time>
      </trkpt>
      <trkpt lat="46.53394" lon="10.4779">
        <ele>2245.3</ele>
        <time>2012-08-02T13:13:58Z</time>
      </trkpt>
      <trkpt lat="46.53395" lon="10.4779">
        <ele>2245.78</ele>
        <time>2012-08-02T13:14:30Z</time>
      </trkpt>
      <trkpt lat="46.53395" lon="10.47789">
        <ele>2247.22</ele>
        <time>2012-08-02T13:15:08Z</time>
      </trkpt>
      <trkpt lat="46.53395" lon="10.4779">
        <ele>2247.7</ele>
        <time>2012-08-02T13:15:36Z</time>
      </trkpt>
      <trkpt lat="46.53395" lon="10.4779">
        <ele>2248.66</ele>
        <time>2012-08-02T13:16:10Z</time>
      </trkpt>
      <trkpt lat="46.53394" lon="10.4779">
        <ele>2249.62</ele>
        <time>2012-08-02T13:16:38Z</time>
      </trkpt>
      <trkpt lat="46.53394" lon="10.4779">
        <ele>2250.58</ele>
        <time>2012-08-02T13:17:04Z</time>
      </trkpt>
      <trkpt lat="46.53393" lon="10.47792">
        <ele>2250.1</ele>
        <time>2012-08-02T13:17:16Z</time>
      </trkpt>
      <trkpt lat="46.53392" lon="10.47794">
        <ele>2250.58</ele>
        <time>2012-08-02T13:17:18Z</time>
      </trkpt>
      <trkpt lat="46.53392" lon="10.47797">
        <ele>2250.58</ele>
        <time>2012-08-02T13:17:30Z</time>
      </trkpt>
      <trkpt lat="46.53391" lon="10.47797">
        <ele>2251.06</ele>
        <time>2012-08-02T13:18:05Z</time>
      </trkpt>
      <trkpt lat="46.53391" lon="10.47797">
        <ele>2252.03</ele>
        <time>2012-08-02T13:18:33Z</time>
      </trkpt>
      <trkpt lat="46.53391" lon="10.47797">
        <ele>2252.51</ele>
        <time>2012-08-02T13:19:10Z</time>
      </trkpt>
      <trkpt lat="46.53393" lon="10.47798">
        <ele>2252.99</ele>
        <time>2012-08-02T13:19:49Z</time>
      </trkpt>
      <trkpt lat="46.53393" lon="10.47797">
        <ele>2253.95</ele>
        <time>2012-08-02T13:20:18Z</time>
      </trkpt>
      <trkpt lat="46.53393" lon="10.47796">
        <ele>2253.95</ele>
        <time>2012-08-02T13:20:49Z</time>
      </trkpt>
      <trkpt lat="46.53393" lon="10.47796">
        <ele>2254.91</ele>
        <time>2012-08-02T13:21:20Z</time>
      </trkpt>
      <trkpt lat="46.53392" lon="10.47796">
        <ele>2255.87</ele>
        <time>2012-08-02T13:21:53Z</time>
      </trkpt>
      <trkpt lat="46.53394" lon="10.47797">
        <ele>2256.35</ele>
        <time>2012-08-02T13:22:28Z</time>
      </trkpt>
      <trkpt lat="46.53394" lon="10.47798">
        <ele>2257.31</ele>
        <time>2012-08-02T13:23:06Z</time>
      </trkpt>
      <trkpt lat="46.53395" lon="10.47798">
        <ele>2257.79</ele>
        <time>2012-08-02T13:23:43Z</time>
      </trkpt>
      <trkpt lat="46.53394" lon="10.47798">
        <ele>2258.75</ele>
        <time>2012-08-02T13:24:24Z</time>
      </trkpt>
      <trkpt lat="46.53394" lon="10.47799">
        <ele>2259.24</ele>
        <time>2012-08-02T13:25:05Z</time>
      </trkpt>
      <trkpt lat="46.53395" lon="10.47798">
        <ele>2259.72</ele>
        <time>2012-08-02T13:25:40Z</time>
      </trkpt>
      <trkpt lat="46.53394" lon="10.47798">
        <ele>2260.2</ele>
        <time>2012-08-02T13:26:18Z</time>
      </trkpt>
      <trkpt lat="46.53393" lon="10.47797">
        <ele>2261.64</ele>
        <time>2012-08-02T13:26:56Z</time>
      </trkpt>
      <trkpt lat="46.53393" lon="10.47798">
        <ele>2262.12</ele>
        <time>2012-08-02T13:27:35Z</time>
      </trkpt>
      <trkpt lat="46.53394" lon="10.47797">
        <ele>2262.6</ele>
        <time>2012-08-02T13:28:12Z</time>
      </trkpt>
      <trkpt lat="46.53394" lon="10.47797">
        <ele>2263.56</ele>
        <time>2012-08-02T13:28:46Z</time>
      </trkpt>
      <trkpt lat="46.53394" lon="10.47797">
        <ele>2263.56</ele>
        <time>2012-08-02T13:29:24Z</time>
      </trkpt>
      <trkpt lat="46.53395" lon="10.47797">
        <ele>2264.04</ele>
        <time>2012-08-02T13:30:02Z</time>
      </trkpt>
      <trkpt lat="46.53395" lon="10.47798">
        <ele>2264.52</ele>
        <time>2012-08-02T13:30:40Z</time>
      </trkpt>
      <trkpt lat="46.53394" lon="10.47798">
        <ele>2265.48</ele>
        <time>2012-08-02T13:31:23Z</time>
      </trkpt>
      <trkpt lat="46.53395" lon="10.47798">
        <ele>2265.48</ele>
        <time>2012-08-02T13:32:00Z</time>
      </trkpt>
      <trkpt lat="46.53395" lon="10.47798">
        <ele>2266.45</ele>
        <time>2012-08-02T13:32:38Z</time>
      </trkpt>
      <trkpt lat="46.53395" lon="10.47797">
        <ele>2266.93</ele>
        <time>2012-08-02T13:33:08Z</time>
      </trkpt>
      <trkpt lat="46.53394" lon="10.47797">
        <ele>2267.41</ele>
        <time>2012-08-02T13:33:41Z</time>
      </trkpt>
      <trkpt lat="46.53401" lon="10.47804">
        <ele>2216.94</ele>
        <time>2012-08-02T13:36:14Z</time>
      </trkpt>
      <trkpt lat="46.53402" lon="10.47803">
        <ele>2216.46</ele>
        <time>2012-08-02T13:36:15Z</time>
      </trkpt>
      <trkpt lat="46.53395" lon="10.47798">
        <ele>2222.22</ele>
        <time>2012-08-02T13:36:26Z</time>
      </trkpt>
      <trkpt lat="46.53394" lon="10.4779">
        <ele>2229.43</ele>
        <time>2012-08-02T13:36:29Z</time>
      </trkpt>
      <trkpt lat="46.53394" lon="10.4778">
        <ele>2229.92</ele>
        <time>2012-08-02T13:36:30Z</time>
      </trkpt>
      <trkpt lat="46.53391" lon="10.47753">
        <ele>2233.76</ele>
        <time>2012-08-02T13:36:32Z</time>
      </trkpt>
      <trkpt lat="46.53388" lon="10.47722">
        <ele>2239.53</ele>
        <time>2012-08-02T13:36:34Z</time>
      </trkpt>
      <trkpt lat="46.53384" lon="10.47688">
        <ele>2244.82</ele>
        <time>2012-08-02T13:36:36Z</time>
      </trkpt>
      <trkpt lat="46.5338" lon="10.47652">
        <ele>2252.03</ele>
        <time>2012-08-02T13:36:38Z</time>
      </trkpt>
      <trkpt lat="46.53379" lon="10.47633">
        <ele>2253.47</ele>
        <time>2012-08-02T13:36:39Z</time>
      </trkpt>
      <trkpt lat="46.53379" lon="10.47593">
        <ele>2256.35</ele>
        <time>2012-08-02T13:36:41Z</time>
      </trkpt>
      <trkpt lat="46.53377" lon="10.47555">
        <ele>2262.12</ele>
        <time>2012-08-02T13:36:43Z</time>
      </trkpt>
      <trkpt lat="46.53376" lon="10.47537">
        <ele>2262.12</ele>
        <time>2012-08-02T13:36:44Z</time>
      </trkpt>
      <trkpt lat="46.53374" lon="10.47519">
        <ele>2263.56</ele>
        <time>2012-08-02T13:36:45Z</time>
      </trkpt>
      <trkpt lat="46.53373" lon="10.47502">
        <ele>2266.93</ele>
        <time>2012-08-02T13:36:46Z</time>
      </trkpt>
      <trkpt lat="46.53375" lon="10.47485">
        <ele>2269.33</ele>
        <time>2012-08-02T13:36:47Z</time>
      </trkpt>
      <trkpt lat="46.53377" lon="10.47453">
        <ele>2270.29</ele>
        <time>2012-08-02T13:36:49Z</time>
      </trkpt>
      <trkpt lat="46.53364" lon="10.47433">
        <ele>2271.73</ele>
        <time>2012-08-02T13:36:50Z</time>
      </trkpt>
      <trkpt lat="46.53361" lon="10.47418">
        <ele>2274.14</ele>
        <time>2012-08-02T13:36:51Z</time>
      </trkpt>
      <trkpt lat="46.53336" lon="10.47367">
        <ele>2278.46</ele>
        <time>2012-08-02T13:36:54Z</time>
      </trkpt>
      <trkpt lat="46.53324" lon="10.4733">
        <ele>2282.79</ele>
        <time>2012-08-02T13:36:56Z</time>
      </trkpt>
      <trkpt lat="46.53317" lon="10.4731">
        <ele>2286.15</ele>
        <time>2012-08-02T13:36:57Z</time>
      </trkpt>
      <trkpt lat="46.53305" lon="10.47269">
        <ele>2287.59</ele>
        <time>2012-08-02T13:36:59Z</time>
      </trkpt>
      <trkpt lat="46.533" lon="10.47249">
        <ele>2290.96</ele>
        <time>2012-08-02T13:37:00Z</time>
      </trkpt>
      <trkpt lat="46.53296" lon="10.47229">
        <ele>2294.32</ele>
        <time>2012-08-02T13:37:01Z</time>
      </trkpt>
      <trkpt lat="46.53281" lon="10.47169">
        <ele>2298.65</ele>
        <time>2012-08-02T13:37:04Z</time>
      </trkpt>
      <trkpt lat="46.53271" lon="10.47127">
        <ele>2301.05</ele>
        <time>2012-08-02T13:37:07Z</time>
      </trkpt>
      <trkpt lat="46.53267" lon="10.47119">
        <ele>2302.49</ele>
        <time>2012-08-02T13:37:08Z</time>
      </trkpt>
      <trkpt lat="46.53265" lon="10.47112">
        <ele>2303.94</ele>
        <time>2012-08-02T13:37:09Z</time>
      </trkpt>
      <trkpt lat="46.53264" lon="10.47106">
        <ele>2305.38</ele>
        <time>2012-08-02T13:37:10Z</time>
      </trkpt>
      <trkpt lat="46.53264" lon="10.47103">
        <ele>2306.34</ele>
        <time>2012-08-02T13:37:11Z</time>
      </trkpt>
      <trkpt lat="46.53267" lon="10.47122">
        <ele>2311.15</ele>
        <time>2012-08-02T13:37:14Z</time>
      </trkpt>
      <trkpt lat="46.53271" lon="10.47134">
        <ele>2312.59</ele>
        <time>2012-08-02T13:37:15Z</time>
      </trkpt>
      <trkpt lat="46.53275" lon="10.47147">
        <ele>2313.55</ele>
        <time>2012-08-02T13:37:16Z</time>
      </trkpt>
      <trkpt lat="46.53281" lon="10.47162">
        <ele>2315.47</ele>
        <time>2012-08-02T13:37:17Z</time>
      </trkpt>
      <trkpt lat="46.53299" lon="10.47208">
        <ele>2320.76</ele>
        <time>2012-08-02T13:37:20Z</time>
      </trkpt>
      <trkpt lat="46.5331" lon="10.47242">
        <ele>2325.09</ele>
        <time>2012-08-02T13:37:22Z</time>
      </trkpt>
      <trkpt lat="46.53325" lon="10.47285">
        <ele>2328.45</ele>
        <time>2012-08-02T13:37:25Z</time>
      </trkpt>
      <trkpt lat="46.53328" lon="10.47292">
        <ele>2329.41</ele>
        <time>2012-08-02T13:37:26Z</time>
      </trkpt>
      <trkpt lat="46.53332" lon="10.47294">
        <ele>2330.37</ele>
        <time>2012-08-02T13:37:27Z</time>
      </trkpt>
      <trkpt lat="46.53336" lon="10.4729">
        <ele>2330.85</ele>
        <time>2012-08-02T13:37:28Z</time>
      </trkpt>
      <trkpt lat="46.53338" lon="10.47283">
        <ele>2332.3</ele>
        <time>2012-08-02T13:37:29Z</time>
      </trkpt>
      <trkpt lat="46.53339" lon="10.47273">
        <ele>2333.26</ele>
        <time>2012-08-02T13:37:30Z</time>
      </trkpt>
      <trkpt lat="46.53337" lon="10.47262">
        <ele>2333.74</ele>
        <time>2012-08-02T13:37:31Z</time>
      </trkpt>
      <trkpt lat="46.53333" lon="10.47249">
        <ele>2335.66</ele>
        <time>2012-08-02T13:37:32Z</time>
      </trkpt>
      <trkpt lat="46.53325" lon="10.47218">
        <ele>2340.95</ele>
        <time>2012-08-02T13:37:34Z</time>
      </trkpt>
      <trkpt lat="46.53318" lon="10.47184">
        <ele>2342.39</ele>
        <time>2012-08-02T13:37:36Z</time>
      </trkpt>
      <trkpt lat="46.5331" lon="10.47149">
        <ele>2345.75</ele>
        <time>2012-08-02T13:37:38Z</time>
      </trkpt>
      <trkpt lat="46.533" lon="10.47094">
        <ele>2350.56</ele>
        <time>2012-08-02T13:37:41Z</time>
      </trkpt>
      <trkpt lat="46.53295" lon="10.47055">
        <ele>2353.93</ele>
        <time>2012-08-02T13:37:43Z</time>
      </trkpt>
      <trkpt lat="46.53294" lon="10.47036">
        <ele>2355.37</ele>
        <time>2012-08-02T13:37:44Z</time>
      </trkpt>
      <trkpt lat="46.53293" lon="10.46997">
        <ele>2360.65</ele>
        <time>2012-08-02T13:37:46Z</time>
      </trkpt>
      <trkpt lat="46.53292" lon="10.46977">
        <ele>2362.58</ele>
        <time>2012-08-02T13:37:47Z</time>
      </trkpt>
      <trkpt lat="46.5329" lon="10.46957">
        <ele>2364.02</ele>
        <time>2012-08-02T13:37:48Z</time>
      </trkpt>
      <trkpt lat="46.5329" lon="10.46938">
        <ele>2364.98</ele>
        <time>2012-08-02T13:37:49Z</time>
      </trkpt>
      <trkpt lat="46.53291" lon="10.46918">
        <ele>2365.94</ele>
        <time>2012-08-02T13:37:50Z</time>
      </trkpt>
      <trkpt lat="46.53292" lon="10.46898">
        <ele>2367.86</ele>
        <time>2012-08-02T13:37:51Z</time>
      </trkpt>
      <trkpt lat="46.53294" lon="10.46838">
        <ele>2370.75</ele>
        <time>2012-08-02T13:37:54Z</time>
      </trkpt>
      <trkpt lat="46.53292" lon="10.46777">
        <ele>2377.96</ele>
        <time>2012-08-02T13:37:57Z</time>
      </trkpt>
      <trkpt lat="46.53292" lon="10.46757">
        <ele>2376.52</ele>
        <time>2012-08-02T13:37:58Z</time>
      </trkpt>
      <trkpt lat="46.53291" lon="10.46695">
        <ele>2380.36</ele>
        <time>2012-08-02T13:38:01Z</time>
      </trkpt>
      <trkpt lat="46.53289" lon="10.46633">
        <ele>2384.69</ele>
        <time>2012-08-02T13:38:04Z</time>
      </trkpt>
      <trkpt lat="46.53287" lon="10.46613">
        <ele>2385.65</ele>
        <time>2012-08-02T13:38:05Z</time>
      </trkpt>
      <trkpt lat="46.53283" lon="10.46594">
        <ele>2386.13</ele>
        <time>2012-08-02T13:38:06Z</time>
      </trkpt>
      <trkpt lat="46.53278" lon="10.46575">
        <ele>2388.05</ele>
        <time>2012-08-02T13:38:07Z</time>
      </trkpt>
      <trkpt lat="46.53255" lon="10.4652">
        <ele>2393.34</ele>
        <time>2012-08-02T13:38:10Z</time>
      </trkpt>
      <trkpt lat="46.5324" lon="10.46484">
        <ele>2396.22</ele>
        <time>2012-08-02T13:38:12Z</time>
      </trkpt>
      <trkpt lat="46.53219" lon="10.4643">
        <ele>2400.07</ele>
        <time>2012-08-02T13:38:15Z</time>
      </trkpt>
      <trkpt lat="46.532" lon="10.46379">
        <ele>2403.91</ele>
        <time>2012-08-02T13:38:18Z</time>
      </trkpt>
      <trkpt lat="46.5319" lon="10.46357">
        <ele>2405.84</ele>
        <time>2012-08-02T13:38:20Z</time>
      </trkpt>
      <trkpt lat="46.53185" lon="10.46348">
        <ele>2406.8</ele>
        <time>2012-08-02T13:38:21Z</time>
      </trkpt>
      <trkpt lat="46.53182" lon="10.46339">
        <ele>2405.36</ele>
        <time>2012-08-02T13:38:23Z</time>
      </trkpt>
      <trkpt lat="46.53181" lon="10.46343">
        <ele>2405.84</ele>
        <time>2012-08-02T13:38:24Z</time>
      </trkpt>
      <trkpt lat="46.5318" lon="10.46348">
        <ele>2406.8</ele>
        <time>2012-08-02T13:38:25Z</time>
      </trkpt>
      <trkpt lat="46.53194" lon="10.46389">
        <ele>2410.64</ele>
        <time>2012-08-02T13:38:28Z</time>
      </trkpt>
      <trkpt lat="46.53207" lon="10.46415">
        <ele>2414.01</ele>
        <time>2012-08-02T13:38:30Z</time>
      </trkpt>
      <trkpt lat="46.53232" lon="10.46453">
        <ele>2416.41</ele>
        <time>2012-08-02T13:38:33Z</time>
      </trkpt>
      <trkpt lat="46.53237" lon="10.4646">
        <ele>2417.37</ele>
        <time>2012-08-02T13:38:34Z</time>
      </trkpt>
      <trkpt lat="46.53243" lon="10.46463">
        <ele>2417.37</ele>
        <time>2012-08-02T13:38:35Z</time>
      </trkpt>
      <trkpt lat="46.53252" lon="10.46457">
        <ele>2417.37</ele>
        <time>2012-08-02T13:38:37Z</time>
      </trkpt>
      <trkpt lat="46.53254" lon="10.4645">
        <ele>2417.85</ele>
        <time>2012-08-02T13:38:38Z</time>
      </trkpt>
      <trkpt lat="46.53254" lon="10.46441">
        <ele>2419.3</ele>
        <time>2012-08-02T13:38:39Z</time>
      </trkpt>
      <trkpt lat="46.53252" lon="10.46432">
        <ele>2420.26</ele>
        <time>2012-08-02T13:38:40Z</time>
      </trkpt>
      <trkpt lat="46.53247" lon="10.4642">
        <ele>2422.18</ele>
        <time>2012-08-02T13:38:41Z</time>
      </trkpt>
      <trkpt lat="46.53242" lon="10.46405">
        <ele>2423.62</ele>
        <time>2012-08-02T13:38:42Z</time>
      </trkpt>
      <trkpt lat="46.53237" lon="10.46389">
        <ele>2425.54</ele>
        <time>2012-08-02T13:38:43Z</time>
      </trkpt>
      <trkpt lat="46.53232" lon="10.46372">
        <ele>2426.5</ele>
        <time>2012-08-02T13:38:44Z</time>
      </trkpt>
      <trkpt lat="46.5322" lon="10.46319">
        <ele>2429.87</ele>
        <time>2012-08-02T13:38:47Z</time>
      </trkpt>
      <trkpt lat="46.53211" lon="10.46283">
        <ele>2431.79</ele>
        <time>2012-08-02T13:38:49Z</time>
      </trkpt>
      <trkpt lat="46.53199" lon="10.46248">
        <ele>2435.16</ele>
        <time>2012-08-02T13:38:51Z</time>
      </trkpt>
      <trkpt lat="46.53178" lon="10.46195">
        <ele>2439.48</ele>
        <time>2012-08-02T13:38:54Z</time>
      </trkpt>
      <trkpt lat="46.53169" lon="10.46179">
        <ele>2439.96</ele>
        <time>2012-08-02T13:38:55Z</time>
      </trkpt>
      <trkpt lat="46.53158" lon="10.46164">
        <ele>2440.92</ele>
        <time>2012-08-02T13:38:56Z</time>
      </trkpt>
      <trkpt lat="46.53116" lon="10.46118">
        <ele>2444.77</ele>
        <time>2012-08-02T13:39:00Z</time>
      </trkpt>
      <trkpt lat="46.53108" lon="10.46111">
        <ele>2445.25</ele>
        <time>2012-08-02T13:39:01Z</time>
      </trkpt>
      <trkpt lat="46.531" lon="10.46104">
        <ele>2445.25</ele>
        <time>2012-08-02T13:39:02Z</time>
      </trkpt>
      <trkpt lat="46.53093" lon="10.46097">
        <ele>2446.21</ele>
        <time>2012-08-02T13:39:03Z</time>
      </trkpt>
      <trkpt lat="46.53088" lon="10.46089">
        <ele>2446.69</ele>
        <time>2012-08-02T13:39:04Z</time>
      </trkpt>
      <trkpt lat="46.53084" lon="10.46084">
        <ele>2448.13</ele>
        <time>2012-08-02T13:39:06Z</time>
      </trkpt>
      <trkpt lat="46.53089" lon="10.46096">
        <ele>2450.54</ele>
        <time>2012-08-02T13:39:08Z</time>
      </trkpt>
      <trkpt lat="46.531" lon="10.46106">
        <ele>2451.02</ele>
        <time>2012-08-02T13:39:09Z</time>
      </trkpt>
      <trkpt lat="46.5311" lon="10.46113">
        <ele>2452.46</ele>
        <time>2012-08-02T13:39:10Z</time>
      </trkpt>
      <trkpt lat="46.53122" lon="10.4612">
        <ele>2453.42</ele>
        <time>2012-08-02T13:39:11Z</time>
      </trkpt>
      <trkpt lat="46.53133" lon="10.46126">
        <ele>2454.38</ele>
        <time>2012-08-02T13:39:12Z</time>
      </trkpt>
      <trkpt lat="46.53159" lon="10.46144">
        <ele>2456.31</ele>
        <time>2012-08-02T13:39:14Z</time>
      </trkpt>
      <trkpt lat="46.5317" lon="10.46157">
        <ele>2457.27</ele>
        <time>2012-08-02T13:39:15Z</time>
      </trkpt>
      <trkpt lat="46.5318" lon="10.46171">
        <ele>2458.71</ele>
        <time>2012-08-02T13:39:16Z</time>
      </trkpt>
      <trkpt lat="46.53209" lon="10.46221">
        <ele>2462.07</ele>
        <time>2012-08-02T13:39:19Z</time>
      </trkpt>
      <trkpt lat="46.5324" lon="10.46271">
        <ele>2465.44</ele>
        <time>2012-08-02T13:39:22Z</time>
      </trkpt>
      <trkpt lat="46.53247" lon="10.4629">
        <ele>2466.4</ele>
        <time>2012-08-02T13:39:23Z</time>
      </trkpt>
      <trkpt lat="46.53254" lon="10.4631">
        <ele>2467.36</ele>
        <time>2012-08-02T13:39:24Z</time>
      </trkpt>
      <trkpt lat="46.53262" lon="10.46328">
        <ele>2468.8</ele>
        <time>2012-08-02T13:39:25Z</time>
      </trkpt>
      <trkpt lat="46.5327" lon="10.46346">
        <ele>2469.28</ele>
        <time>2012-08-02T13:39:26Z</time>
      </trkpt>
      <trkpt lat="46.53275" lon="10.46361">
        <ele>2469.76</ele>
        <time>2012-08-02T13:39:27Z</time>
      </trkpt>
      <trkpt lat="46.53279" lon="10.46375">
        <ele>2469.76</ele>
        <time>2012-08-02T13:39:28Z</time>
      </trkpt>
      <trkpt lat="46.53286" lon="10.46395">
        <ele>2471.21</ele>
        <time>2012-08-02T13:39:30Z</time>
      </trkpt>
      <trkpt lat="46.5329" lon="10.46399">
        <ele>2471.69</ele>
        <time>2012-08-02T13:39:31Z</time>
      </trkpt>
      <trkpt lat="46.53298" lon="10.46392">
        <ele>2472.65</ele>
        <time>2012-08-02T13:39:33Z</time>
      </trkpt>
      <trkpt lat="46.53301" lon="10.46383">
        <ele>2473.61</ele>
        <time>2012-08-02T13:39:34Z</time>
      </trkpt>
      <trkpt lat="46.53303" lon="10.46372">
        <ele>2474.57</ele>
        <time>2012-08-02T13:39:35Z</time>
      </trkpt>
      <trkpt lat="46.53302" lon="10.4636">
        <ele>2475.53</ele>
        <time>2012-08-02T13:39:36Z</time>
      </trkpt>
      <trkpt lat="46.53299" lon="10.46346">
        <ele>2477.45</ele>
        <time>2012-08-02T13:39:37Z</time>
      </trkpt>
      <trkpt lat="46.53296" lon="10.4633">
        <ele>2478.42</ele>
        <time>2012-08-02T13:39:38Z</time>
      </trkpt>
      <trkpt lat="46.53284" lon="10.4628">
        <ele>2488.51</ele>
        <time>2012-08-02T13:39:41Z</time>
      </trkpt>
      <trkpt lat="46.53278" lon="10.46263">
        <ele>2481.3</ele>
        <time>2012-08-02T13:39:42Z</time>
      </trkpt>
      <trkpt lat="46.53272" lon="10.46246">
        <ele>2485.63</ele>
        <time>2012-08-02T13:39:43Z</time>
      </trkpt>
      <trkpt lat="46.53259" lon="10.46192">
        <ele>2488.51</ele>
        <time>2012-08-02T13:39:46Z</time>
      </trkpt>
      <trkpt lat="46.53252" lon="10.46154">
        <ele>2491.87</ele>
        <time>2012-08-02T13:39:48Z</time>
      </trkpt>
      <trkpt lat="46.53244" lon="10.46136">
        <ele>2492.84</ele>
        <time>2012-08-02T13:39:49Z</time>
      </trkpt>
      <trkpt lat="46.53236" lon="10.4612">
        <ele>2493.8</ele>
        <time>2012-08-02T13:39:50Z</time>
      </trkpt>
      <trkpt lat="46.53227" lon="10.46103">
        <ele>2495.24</ele>
        <time>2012-08-02T13:39:51Z</time>
      </trkpt>
      <trkpt lat="46.53219" lon="10.46085">
        <ele>2497.16</ele>
        <time>2012-08-02T13:39:52Z</time>
      </trkpt>
      <trkpt lat="46.53211" lon="10.46068">
        <ele>2499.57</ele>
        <time>2012-08-02T13:39:53Z</time>
      </trkpt>
      <trkpt lat="46.53202" lon="10.46053">
        <ele>2501.97</ele>
        <time>2012-08-02T13:39:54Z</time>
      </trkpt>
      <trkpt lat="46.5319" lon="10.4604">
        <ele>2502.93</ele>
        <time>2012-08-02T13:39:55Z</time>
      </trkpt>
      <trkpt lat="46.53177" lon="10.46028">
        <ele>2504.37</ele>
        <time>2012-08-02T13:39:56Z</time>
      </trkpt>
      <trkpt lat="46.53138" lon="10.45992">
        <ele>2508.22</ele>
        <time>2012-08-02T13:39:59Z</time>
      </trkpt>
      <trkpt lat="46.53123" lon="10.45983">
        <ele>2509.66</ele>
        <time>2012-08-02T13:40:00Z</time>
      </trkpt>
      <trkpt lat="46.53108" lon="10.45978">
        <ele>2511.1</ele>
        <time>2012-08-02T13:40:01Z</time>
      </trkpt>
      <trkpt lat="46.53094" lon="10.45975">
        <ele>2510.62</ele>
        <time>2012-08-02T13:40:02Z</time>
      </trkpt>
      <trkpt lat="46.53081" lon="10.45969">
        <ele>2512.06</ele>
        <time>2012-08-02T13:40:03Z</time>
      </trkpt>
      <trkpt lat="46.53069" lon="10.4596">
        <ele>2513.5</ele>
        <time>2012-08-02T13:40:04Z</time>
      </trkpt>
      <trkpt lat="46.53058" lon="10.45952">
        <ele>2514.47</ele>
        <time>2012-08-02T13:40:05Z</time>
      </trkpt>
      <trkpt lat="46.53044" lon="10.45941">
        <ele>2514.47</ele>
        <time>2012-08-02T13:40:07Z</time>
      </trkpt>
      <trkpt lat="46.5304" lon="10.45935">
        <ele>2514.95</ele>
        <time>2012-08-02T13:40:08Z</time>
      </trkpt>
      <trkpt lat="46.53037" lon="10.4593">
        <ele>2515.91</ele>
        <time>2012-08-02T13:40:09Z</time>
      </trkpt>
      <trkpt lat="46.53035" lon="10.45927">
        <ele>2515.91</ele>
        <time>2012-08-02T13:40:10Z</time>
      </trkpt>
      <trkpt lat="46.53034" lon="10.45928">
        <ele>2517.83</ele>
        <time>2012-08-02T13:40:11Z</time>
      </trkpt>
      <trkpt lat="46.53035" lon="10.4593">
        <ele>2518.31</ele>
        <time>2012-08-02T13:40:12Z</time>
      </trkpt>
      <trkpt lat="46.53043" lon="10.45936">
        <ele>2520.23</ele>
        <time>2012-08-02T13:40:14Z</time>
      </trkpt>
      <trkpt lat="46.53072" lon="10.45941">
        <ele>2523.6</ele>
        <time>2012-08-02T13:40:18Z</time>
      </trkpt>
      <trkpt lat="46.53091" lon="10.45944">
        <ele>2526.96</ele>
        <time>2012-08-02T13:40:20Z</time>
      </trkpt>
      <trkpt lat="46.53101" lon="10.45946">
        <ele>2528.4</ele>
        <time>2012-08-02T13:40:21Z</time>
      </trkpt>
      <trkpt lat="46.53111" lon="10.4595">
        <ele>2528.89</ele>
        <time>2012-08-02T13:40:22Z</time>
      </trkpt>
      <trkpt lat="46.53121" lon="10.45955">
        <ele>2530.81</ele>
        <time>2012-08-02T13:40:23Z</time>
      </trkpt>
      <trkpt lat="46.53152" lon="10.45971">
        <ele>2534.65</ele>
        <time>2012-08-02T13:40:26Z</time>
      </trkpt>
      <trkpt lat="46.53205" lon="10.46">
        <ele>2538.98</ele>
        <time>2012-08-02T13:40:29Z</time>
      </trkpt>
      <trkpt lat="46.53223" lon="10.46014">
        <ele>2541.38</ele>
        <time>2012-08-02T13:40:30Z</time>
      </trkpt>
      <trkpt lat="46.53237" lon="10.4603">
        <ele>2543.31</ele>
        <time>2012-08-02T13:40:31Z</time>
      </trkpt>
      <trkpt lat="46.53259" lon="10.46061">
        <ele>2544.75</ele>
        <time>2012-08-02T13:40:33Z</time>
      </trkpt>
      <trkpt lat="46.53297" lon="10.46127">
        <ele>2546.19</ele>
        <time>2012-08-02T13:40:39Z</time>
      </trkpt>
      <trkpt lat="46.53302" lon="10.46131">
        <ele>2545.71</ele>
        <time>2012-08-02T13:40:40Z</time>
      </trkpt>
      <trkpt lat="46.53307" lon="10.46133">
        <ele>2545.71</ele>
        <time>2012-08-02T13:40:41Z</time>
      </trkpt>
      <trkpt lat="46.53317" lon="10.46122">
        <ele>2546.19</ele>
        <time>2012-08-02T13:40:43Z</time>
      </trkpt>
      <trkpt lat="46.53319" lon="10.46114">
        <ele>2547.15</ele>
        <time>2012-08-02T13:40:44Z</time>
      </trkpt>
      <trkpt lat="46.53319" lon="10.46103">
        <ele>2547.63</ele>
        <time>2012-08-02T13:40:45Z</time>
      </trkpt>
      <trkpt lat="46.53319" lon="10.46062">
        <ele>2550.51</ele>
        <time>2012-08-02T13:40:48Z</time>
      </trkpt>
      <trkpt lat="46.53317" lon="10.46048">
        <ele>2551.96</ele>
        <time>2012-08-02T13:40:49Z</time>
      </trkpt>
      <trkpt lat="46.53314" lon="10.4602">
        <ele>2555.32</ele>
        <time>2012-08-02T13:40:51Z</time>
      </trkpt>
      <trkpt lat="46.53268" lon="10.45959">
        <ele>2559.17</ele>
        <time>2012-08-02T13:40:54Z</time>
      </trkpt>
      <trkpt lat="46.53259" lon="10.45942">
        <ele>2560.61</ele>
        <time>2012-08-02T13:40:55Z</time>
      </trkpt>
      <trkpt lat="46.53246" lon="10.45927">
        <ele>2562.53</ele>
        <time>2012-08-02T13:40:56Z</time>
      </trkpt>
      <trkpt lat="46.53233" lon="10.45915">
        <ele>2564.93</ele>
        <time>2012-08-02T13:40:57Z</time>
      </trkpt>
      <trkpt lat="46.53218" lon="10.45906">
        <ele>2565.42</ele>
        <time>2012-08-02T13:40:58Z</time>
      </trkpt>
      <trkpt lat="46.53201" lon="10.45899">
        <ele>2565.9</ele>
        <time>2012-08-02T13:40:59Z</time>
      </trkpt>
      <trkpt lat="46.53184" lon="10.45893">
        <ele>2566.86</ele>
        <time>2012-08-02T13:41:00Z</time>
      </trkpt>
      <trkpt lat="46.53153" lon="10.45879">
        <ele>2570.22</ele>
        <time>2012-08-02T13:41:02Z</time>
      </trkpt>
      <trkpt lat="46.53125" lon="10.45861">
        <ele>2573.11</ele>
        <time>2012-08-02T13:41:04Z</time>
      </trkpt>
      <trkpt lat="46.53098" lon="10.4584">
        <ele>2576.95</ele>
        <time>2012-08-02T13:41:06Z</time>
      </trkpt>
      <trkpt lat="46.53061" lon="10.45804">
        <ele>2580.8</ele>
        <time>2012-08-02T13:41:09Z</time>
      </trkpt>
      <trkpt lat="46.53027" lon="10.45761">
        <ele>2584.64</ele>
        <time>2012-08-02T13:41:12Z</time>
      </trkpt>
      <trkpt lat="46.53016" lon="10.45747">
        <ele>2584.64</ele>
        <time>2012-08-02T13:41:13Z</time>
      </trkpt>
      <trkpt lat="46.53" lon="10.45729">
        <ele>2586.08</ele>
        <time>2012-08-02T13:41:15Z</time>
      </trkpt>
      <trkpt lat="46.52994" lon="10.45723">
        <ele>2586.56</ele>
        <time>2012-08-02T13:41:16Z</time>
      </trkpt>
      <trkpt lat="46.52991" lon="10.45717">
        <ele>2587.04</ele>
        <time>2012-08-02T13:41:17Z</time>
      </trkpt>
      <trkpt lat="46.5299" lon="10.45712">
        <ele>2587.53</ele>
        <time>2012-08-02T13:41:18Z</time>
      </trkpt>
      <trkpt lat="46.5299" lon="10.4571">
        <ele>2588.01</ele>
        <time>2012-08-02T13:41:19Z</time>
      </trkpt>
      <trkpt lat="46.52991" lon="10.45713">
        <ele>2588.97</ele>
        <time>2012-08-02T13:41:20Z</time>
      </trkpt>
      <trkpt lat="46.52995" lon="10.45718">
        <ele>2590.41</ele>
        <time>2012-08-02T13:41:21Z</time>
      </trkpt>
      <trkpt lat="46.53011" lon="10.4574">
        <ele>2592.81</ele>
        <time>2012-08-02T13:41:24Z</time>
      </trkpt>
      <trkpt lat="46.53034" lon="10.45762">
        <ele>2597.14</ele>
        <time>2012-08-02T13:41:27Z</time>
      </trkpt>
      <trkpt lat="46.53084" lon="10.45795">
        <ele>2600.02</ele>
        <time>2012-08-02T13:41:35Z</time>
      </trkpt>
      <trkpt lat="46.53097" lon="10.45801">
        <ele>2599.54</ele>
        <time>2012-08-02T13:41:48Z</time>
      </trkpt>
      <trkpt lat="46.53102" lon="10.45801">
        <ele>2599.54</ele>
        <time>2012-08-02T13:42:08Z</time>
      </trkpt>
      <trkpt lat="46.53103" lon="10.45804">
        <ele>2600.02</ele>
        <time>2012-08-02T13:42:47Z</time>
      </trkpt>
      <trkpt lat="46.53104" lon="10.45805">
        <ele>2600.5</ele>
        <time>2012-08-02T13:43:28Z</time>
      </trkpt>
      <trkpt lat="46.53104" lon="10.45806">
        <ele>2600.98</ele>
        <time>2012-08-02T13:43:37Z</time>
      </trkpt>
      <trkpt lat="46.53161" lon="10.45817">
        <ele>2607.71</ele>
        <time>2012-08-02T13:44:25Z</time>
      </trkpt>
      <trkpt lat="46.53109" lon="10.45786">
        <ele>2612.04</ele>
        <time>2012-08-02T13:44:32Z</time>
      </trkpt>
      <trkpt lat="46.53076" lon="10.45748">
        <ele>2616.85</ele>
        <time>2012-08-02T13:44:36Z</time>
      </trkpt>
      <trkpt lat="46.53069" lon="10.45735">
        <ele>2616.85</ele>
        <time>2012-08-02T13:44:37Z</time>
      </trkpt>
      <trkpt lat="46.53043" lon="10.45679">
        <ele>2621.65</ele>
        <time>2012-08-02T13:44:41Z</time>
      </trkpt>
      <trkpt lat="46.53034" lon="10.45669">
        <ele>2623.09</ele>
        <time>2012-08-02T13:44:42Z</time>
      </trkpt>
      <trkpt lat="46.53025" lon="10.45663">
        <ele>2623.09</ele>
        <time>2012-08-02T13:44:43Z</time>
      </trkpt>
      <trkpt lat="46.53018" lon="10.4566">
        <ele>2623.09</ele>
        <time>2012-08-02T13:44:44Z</time>
      </trkpt>
      <trkpt lat="46.53012" lon="10.45658">
        <ele>2623.58</ele>
        <time>2012-08-02T13:44:45Z</time>
      </trkpt>
      <trkpt lat="46.53009" lon="10.45655">
        <ele>2624.06</ele>
        <time>2012-08-02T13:44:46Z</time>
      </trkpt>
      <trkpt lat="46.53008" lon="10.4565">
        <ele>2624.54</ele>
        <time>2012-08-02T13:44:47Z</time>
      </trkpt>
      <trkpt lat="46.53009" lon="10.45646">
        <ele>2625.5</ele>
        <time>2012-08-02T13:44:48Z</time>
      </trkpt>
      <trkpt lat="46.53014" lon="10.45644">
        <ele>2625.98</ele>
        <time>2012-08-02T13:44:49Z</time>
      </trkpt>
      <trkpt lat="46.53019" lon="10.45646">
        <ele>2625.98</ele>
        <time>2012-08-02T13:44:50Z</time>
      </trkpt>
      <trkpt lat="46.53026" lon="10.45651">
        <ele>2626.94</ele>
        <time>2012-08-02T13:44:51Z</time>
      </trkpt>
      <trkpt lat="46.53043" lon="10.45662">
        <ele>2627.9</ele>
        <time>2012-08-02T13:44:53Z</time>
      </trkpt>
      <trkpt lat="46.53059" lon="10.45677">
        <ele>2628.38</ele>
        <time>2012-08-02T13:44:55Z</time>
      </trkpt>
      <trkpt lat="46.53068" lon="10.45688">
        <ele>2630.3</ele>
        <time>2012-08-02T13:44:56Z</time>
      </trkpt>
      <trkpt lat="46.53091" lon="10.45721">
        <ele>2634.63</ele>
        <time>2012-08-02T13:44:59Z</time>
      </trkpt>
      <trkpt lat="46.53099" lon="10.45732">
        <ele>2634.63</ele>
        <time>2012-08-02T13:45:00Z</time>
      </trkpt>
      <trkpt lat="46.53111" lon="10.45749">
        <ele>2634.63</ele>
        <time>2012-08-02T13:45:02Z</time>
      </trkpt>
      <trkpt lat="46.53116" lon="10.45754">
        <ele>2634.63</ele>
        <time>2012-08-02T13:45:03Z</time>
      </trkpt>
      <trkpt lat="46.53121" lon="10.45756">
        <ele>2635.11</ele>
        <time>2012-08-02T13:45:04Z</time>
      </trkpt>
      <trkpt lat="46.53124" lon="10.45753">
        <ele>2635.59</ele>
        <time>2012-08-02T13:45:05Z</time>
      </trkpt>
      <trkpt lat="46.53126" lon="10.45748">
        <ele>2635.59</ele>
        <time>2012-08-02T13:45:06Z</time>
      </trkpt>
      <trkpt lat="46.53126" lon="10.45741">
        <ele>2635.59</ele>
        <time>2012-08-02T13:45:07Z</time>
      </trkpt>
      <trkpt lat="46.53123" lon="10.45735">
        <ele>2637.99</ele>
        <time>2012-08-02T13:45:08Z</time>
      </trkpt>
      <trkpt lat="46.53117" lon="10.45727">
        <ele>2637.03</ele>
        <time>2012-08-02T13:45:09Z</time>
      </trkpt>
      <trkpt lat="46.53111" lon="10.45717">
        <ele>2633.67</ele>
        <time>2012-08-02T13:45:10Z</time>
      </trkpt>
      <trkpt lat="46.53106" lon="10.45706">
        <ele>2639.92</ele>
        <time>2012-08-02T13:45:11Z</time>
      </trkpt>
      <trkpt lat="46.53101" lon="10.45694">
        <ele>2639.92</ele>
        <time>2012-08-02T13:45:12Z</time>
      </trkpt>
      <trkpt lat="46.5308" lon="10.45655">
        <ele>2643.28</ele>
        <time>2012-08-02T13:45:15Z</time>
      </trkpt>
      <trkpt lat="46.53072" lon="10.45645">
        <ele>2644.72</ele>
        <time>2012-08-02T13:45:16Z</time>
      </trkpt>
      <trkpt lat="46.53063" lon="10.45636">
        <ele>2645.21</ele>
        <time>2012-08-02T13:45:17Z</time>
      </trkpt>
      <trkpt lat="46.53054" lon="10.45628">
        <ele>2646.65</ele>
        <time>2012-08-02T13:45:18Z</time>
      </trkpt>
      <trkpt lat="46.53044" lon="10.4562">
        <ele>2648.09</ele>
        <time>2012-08-02T13:45:19Z</time>
      </trkpt>
      <trkpt lat="46.53035" lon="10.45611">
        <ele>2648.57</ele>
        <time>2012-08-02T13:45:20Z</time>
      </trkpt>
      <trkpt lat="46.53027" lon="10.456">
        <ele>2650.01</ele>
        <time>2012-08-02T13:45:21Z</time>
      </trkpt>
      <trkpt lat="46.5301" lon="10.45579">
        <ele>2652.42</ele>
        <time>2012-08-02T13:45:23Z</time>
      </trkpt>
      <trkpt lat="46.53001" lon="10.45572">
        <ele>2653.86</ele>
        <time>2012-08-02T13:45:24Z</time>
      </trkpt>
      <trkpt lat="46.52991" lon="10.45569">
        <ele>2655.3</ele>
        <time>2012-08-02T13:45:25Z</time>
      </trkpt>
      <trkpt lat="46.5298" lon="10.4557">
        <ele>2656.26</ele>
        <time>2012-08-02T13:45:26Z</time>
      </trkpt>
      <trkpt lat="46.52971" lon="10.45572">
        <ele>2657.22</ele>
        <time>2012-08-02T13:45:27Z</time>
      </trkpt>
      <trkpt lat="46.52963" lon="10.45575">
        <ele>2657.22</ele>
        <time>2012-08-02T13:45:28Z</time>
      </trkpt>
      <trkpt lat="46.52957" lon="10.45577">
        <ele>2657.22</ele>
        <time>2012-08-02T13:45:29Z</time>
      </trkpt>
      <trkpt lat="46.52952" lon="10.45578">
        <ele>2657.7</ele>
        <time>2012-08-02T13:45:30Z</time>
      </trkpt>
      <trkpt lat="46.52949" lon="10.45576">
        <ele>2658.66</ele>
        <time>2012-08-02T13:45:31Z</time>
      </trkpt>
      <trkpt lat="46.52951" lon="10.45565">
        <ele>2659.62</ele>
        <time>2012-08-02T13:45:34Z</time>
      </trkpt>
      <trkpt lat="46.52956" lon="10.45563">
        <ele>2660.11</ele>
        <time>2012-08-02T13:45:35Z</time>
      </trkpt>
      <trkpt lat="46.52963" lon="10.4556">
        <ele>2662.03</ele>
        <time>2012-08-02T13:45:36Z</time>
      </trkpt>
      <trkpt lat="46.52971" lon="10.45556">
        <ele>2663.47</ele>
        <time>2012-08-02T13:45:37Z</time>
      </trkpt>
      <trkpt lat="46.5298" lon="10.45553">
        <ele>2664.43</ele>
        <time>2012-08-02T13:45:38Z</time>
      </trkpt>
      <trkpt lat="46.52988" lon="10.45551">
        <ele>2665.87</ele>
        <time>2012-08-02T13:45:39Z</time>
      </trkpt>
      <trkpt lat="46.53002" lon="10.45548">
        <ele>2666.35</ele>
        <time>2012-08-02T13:45:41Z</time>
      </trkpt>
      <trkpt lat="46.5301" lon="10.4554">
        <ele>2668.28</ele>
        <time>2012-08-02T13:45:43Z</time>
      </trkpt>
      <trkpt lat="46.53004" lon="10.45537">
        <ele>2669.72</ele>
        <time>2012-08-02T13:45:45Z</time>
      </trkpt>
      <trkpt lat="46.52967" lon="10.45546">
        <ele>2672.12</ele>
        <time>2012-08-02T13:45:49Z</time>
      </trkpt>
      <trkpt lat="46.52959" lon="10.45545">
        <ele>2672.12</ele>
        <time>2012-08-02T13:45:50Z</time>
      </trkpt>
      <trkpt lat="46.5296" lon="10.45528">
        <ele>2674.52</ele>
        <time>2012-08-02T13:45:54Z</time>
      </trkpt>
      <trkpt lat="46.52967" lon="10.45528">
        <ele>2675.01</ele>
        <time>2012-08-02T13:45:55Z</time>
      </trkpt>
      <trkpt lat="46.52976" lon="10.45528">
        <ele>2675.97</ele>
        <time>2012-08-02T13:45:56Z</time>
      </trkpt>
      <trkpt lat="46.52986" lon="10.45525">
        <ele>2676.93</ele>
        <time>2012-08-02T13:45:57Z</time>
      </trkpt>
      <trkpt lat="46.52997" lon="10.45522">
        <ele>2676.93</ele>
        <time>2012-08-02T13:45:58Z</time>
      </trkpt>
      <trkpt lat="46.53007" lon="10.45521">
        <ele>2678.37</ele>
        <time>2012-08-02T13:45:59Z</time>
      </trkpt>
      <trkpt lat="46.53018" lon="10.45526">
        <ele>2679.33</ele>
        <time>2012-08-02T13:46:00Z</time>
      </trkpt>
      <trkpt lat="46.53027" lon="10.45534">
        <ele>2680.29</ele>
        <time>2012-08-02T13:46:01Z</time>
      </trkpt>
      <trkpt lat="46.53037" lon="10.45544">
        <ele>2682.22</ele>
        <time>2012-08-02T13:46:02Z</time>
      </trkpt>
      <trkpt lat="46.53048" lon="10.45551">
        <ele>2683.66</ele>
        <time>2012-08-02T13:46:03Z</time>
      </trkpt>
      <trkpt lat="46.53059" lon="10.45556">
        <ele>2683.66</ele>
        <time>2012-08-02T13:46:04Z</time>
      </trkpt>
      <trkpt lat="46.53071" lon="10.4556">
        <ele>2684.62</ele>
        <time>2012-08-02T13:46:05Z</time>
      </trkpt>
      <trkpt lat="46.53094" lon="10.45568">
        <ele>2687.98</ele>
        <time>2012-08-02T13:46:07Z</time>
      </trkpt>
      <trkpt lat="46.53112" lon="10.45577">
        <ele>2689.91</ele>
        <time>2012-08-02T13:46:09Z</time>
      </trkpt>
      <trkpt lat="46.53118" lon="10.45583">
        <ele>2692.31</ele>
        <time>2012-08-02T13:46:10Z</time>
      </trkpt>
      <trkpt lat="46.53124" lon="10.45589">
        <ele>2691.35</ele>
        <time>2012-08-02T13:46:11Z</time>
      </trkpt>
      <trkpt lat="46.53128" lon="10.45596">
        <ele>2690.87</ele>
        <time>2012-08-02T13:46:12Z</time>
      </trkpt>
      <trkpt lat="46.53131" lon="10.45604">
        <ele>2690.87</ele>
        <time>2012-08-02T13:46:13Z</time>
      </trkpt>
      <trkpt lat="46.53149" lon="10.45642">
        <ele>2693.75</ele>
        <time>2012-08-02T13:46:18Z</time>
      </trkpt>
      <trkpt lat="46.53153" lon="10.45646">
        <ele>2693.27</ele>
        <time>2012-08-02T13:46:19Z</time>
      </trkpt>
      <trkpt lat="46.52888" lon="10.45254">
        <ele>2724.51</ele>
        <time>2012-08-02T14:41:39Z</time>
      </trkpt>
      <trkpt lat="46.52882" lon="10.45256">
        <ele>2725.96</ele>
        <time>2012-08-02T14:41:43Z</time>
      </trkpt>
      <trkpt lat="46.52883" lon="10.45253">
        <ele>2728.84</ele>
        <time>2012-08-02T14:42:01Z</time>
      </trkpt>
      <trkpt lat="46.52884" lon="10.45253">
        <ele>2732.2</ele>
        <time>2012-08-02T14:42:04Z</time>
      </trkpt>
      <trkpt lat="46.52885" lon="10.45253">
        <ele>2736.05</ele>
        <time>2012-08-02T14:42:07Z</time>
      </trkpt>
      <trkpt lat="46.52885" lon="10.45253">
        <ele>2739.41</ele>
        <time>2012-08-02T14:42:10Z</time>
      </trkpt>
      <trkpt lat="46.52885" lon="10.45253">
        <ele>2742.78</ele>
        <time>2012-08-02T14:42:13Z</time>
      </trkpt>
      <trkpt lat="46.52885" lon="10.45252">
        <ele>2746.62</ele>
        <time>2012-08-02T14:42:17Z</time>
      </trkpt>
      <trkpt lat="46.52884" lon="10.45252">
        <ele>2748.55</ele>
        <time>2012-08-02T14:42:20Z</time>
      </trkpt>
      <trkpt lat="46.52884" lon="10.45252">
        <ele>2751.91</ele>
        <time>2012-08-02T14:42:22Z</time>
      </trkpt>
      <trkpt lat="46.52884" lon="10.45252">
        <ele>2755.28</ele>
        <time>2012-08-02T14:42:26Z</time>
      </trkpt>
      <trkpt lat="46.52884" lon="10.45251">
        <ele>2757.2</ele>
        <time>2012-08-02T14:42:29Z</time>
      </trkpt>
      <trkpt lat="46.52883" lon="10.45249">
        <ele>2760.56</ele>
        <time>2012-08-02T14:42:33Z</time>
      </trkpt>
      <trkpt lat="46.52883" lon="10.45249">
        <ele>2764.41</ele>
        <time>2012-08-02T14:42:38Z</time>
      </trkpt>
      <trkpt lat="46.52883" lon="10.45249">
        <ele>2765.85</ele>
        <time>2012-08-02T14:42:42Z</time>
      </trkpt>
      <trkpt lat="46.5288" lon="10.45251">
        <ele>2769.21</ele>
        <time>2012-08-02T14:42:48Z</time>
      </trkpt>
      <trkpt lat="46.5288" lon="10.45251">
        <ele>2771.62</ele>
        <time>2012-08-02T14:42:54Z</time>
      </trkpt>
      <trkpt lat="46.52881" lon="10.45261">
        <ele>2771.62</ele>
        <time>2012-08-02T14:42:57Z</time>
      </trkpt>
      <trkpt lat="46.52882" lon="10.45268">
        <ele>2772.58</ele>
        <time>2012-08-02T14:43:06Z</time>
      </trkpt>
      <trkpt lat="46.52888" lon="10.45269">
        <ele>2772.58</ele>
        <time>2012-08-02T14:43:08Z</time>
      </trkpt>
      <trkpt lat="46.52893" lon="10.45265">
        <ele>2773.06</ele>
        <time>2012-08-02T14:43:09Z</time>
      </trkpt>
      <trkpt lat="46.52944" lon="10.45219">
        <ele>2770.66</ele>
        <time>2012-08-02T14:43:14Z</time>
      </trkpt>
      <trkpt lat="46.52967" lon="10.45192">
        <ele>2767.29</ele>
        <time>2012-08-02T14:43:16Z</time>
      </trkpt>
      <trkpt lat="46.52976" lon="10.45177">
        <ele>2766.33</ele>
        <time>2012-08-02T14:43:17Z</time>
      </trkpt>
      <trkpt lat="46.5299" lon="10.45152">
        <ele>2763.45</ele>
        <time>2012-08-02T14:43:19Z</time>
      </trkpt>
      <trkpt lat="46.52997" lon="10.45143">
        <ele>2762</ele>
        <time>2012-08-02T14:43:20Z</time>
      </trkpt>
      <trkpt lat="46.53003" lon="10.45136">
        <ele>2759.12</ele>
        <time>2012-08-02T14:43:21Z</time>
      </trkpt>
      <trkpt lat="46.53008" lon="10.45129">
        <ele>2758.16</ele>
        <time>2012-08-02T14:43:22Z</time>
      </trkpt>
      <trkpt lat="46.53009" lon="10.45121">
        <ele>2757.68</ele>
        <time>2012-08-02T14:43:23Z</time>
      </trkpt>
      <trkpt lat="46.53007" lon="10.45115">
        <ele>2756.72</ele>
        <time>2012-08-02T14:43:24Z</time>
      </trkpt>
      <trkpt lat="46.53002" lon="10.45112">
        <ele>2756.24</ele>
        <time>2012-08-02T14:43:25Z</time>
      </trkpt>
      <trkpt lat="46.52995" lon="10.45113">
        <ele>2756.72</ele>
        <time>2012-08-02T14:43:26Z</time>
      </trkpt>
      <trkpt lat="46.52987" lon="10.45117">
        <ele>2756.24</ele>
        <time>2012-08-02T14:43:27Z</time>
      </trkpt>
      <trkpt lat="46.52977" lon="10.45119">
        <ele>2755.28</ele>
        <time>2012-08-02T14:43:28Z</time>
      </trkpt>
      <trkpt lat="46.52968" lon="10.45116">
        <ele>2755.28</ele>
        <time>2012-08-02T14:43:29Z</time>
      </trkpt>
      <trkpt lat="46.52961" lon="10.45106">
        <ele>2755.76</ele>
        <time>2012-08-02T14:43:30Z</time>
      </trkpt>
      <trkpt lat="46.52956" lon="10.45091">
        <ele>2755.28</ele>
        <time>2012-08-02T14:43:31Z</time>
      </trkpt>
      <trkpt lat="46.52952" lon="10.45072">
        <ele>2755.28</ele>
        <time>2012-08-02T14:43:32Z</time>
      </trkpt>
      <trkpt lat="46.5294" lon="10.45005">
        <ele>2751.91</ele>
        <time>2012-08-02T14:43:35Z</time>
      </trkpt>
      <trkpt lat="46.52936" lon="10.44985">
        <ele>2752.39</ele>
        <time>2012-08-02T14:43:36Z</time>
      </trkpt>
      <trkpt lat="46.5293" lon="10.44951">
        <ele>2749.03</ele>
        <time>2012-08-02T14:43:38Z</time>
      </trkpt>
      <trkpt lat="46.52935" lon="10.44897">
        <ele>2744.7</ele>
        <time>2012-08-02T14:43:42Z</time>
      </trkpt>
      <trkpt lat="46.52958" lon="10.44886">
        <ele>2743.74</ele>
        <time>2012-08-02T14:43:44Z</time>
      </trkpt>
      <trkpt lat="46.52974" lon="10.44884">
        <ele>2743.74</ele>
        <time>2012-08-02T14:43:45Z</time>
      </trkpt>
      <trkpt lat="46.53006" lon="10.4488">
        <ele>2740.38</ele>
        <time>2012-08-02T14:43:47Z</time>
      </trkpt>
      <trkpt lat="46.53021" lon="10.44878">
        <ele>2736.53</ele>
        <time>2012-08-02T14:43:48Z</time>
      </trkpt>
      <trkpt lat="46.53043" lon="10.44876">
        <ele>2731.24</ele>
        <time>2012-08-02T14:43:50Z</time>
      </trkpt>
      <trkpt lat="46.53052" lon="10.44874">
        <ele>2730.76</ele>
        <time>2012-08-02T14:43:51Z</time>
      </trkpt>
      <trkpt lat="46.53069" lon="10.44841">
        <ele>2726.44</ele>
        <time>2012-08-02T14:43:56Z</time>
      </trkpt>
      <trkpt lat="46.53065" lon="10.44832">
        <ele>2726.44</ele>
        <time>2012-08-02T14:43:57Z</time>
      </trkpt>
      <trkpt lat="46.53051" lon="10.44811">
        <ele>2725.48</ele>
        <time>2012-08-02T14:43:59Z</time>
      </trkpt>
      <trkpt lat="46.53029" lon="10.44758">
        <ele>2721.15</ele>
        <time>2012-08-02T14:44:03Z</time>
      </trkpt>
      <trkpt lat="46.53041" lon="10.44725">
        <ele>2717.78</ele>
        <time>2012-08-02T14:44:07Z</time>
      </trkpt>
      <trkpt lat="46.53066" lon="10.44745">
        <ele>2716.82</ele>
        <time>2012-08-02T14:44:10Z</time>
      </trkpt>
      <trkpt lat="46.53124" lon="10.44806">
        <ele>2711.06</ele>
        <time>2012-08-02T14:44:15Z</time>
      </trkpt>
      <trkpt lat="46.53175" lon="10.44821">
        <ele>2704.81</ele>
        <time>2012-08-02T14:44:19Z</time>
      </trkpt>
      <trkpt lat="46.53195" lon="10.44826">
        <ele>2702.4</ele>
        <time>2012-08-02T14:44:21Z</time>
      </trkpt>
      <trkpt lat="46.53203" lon="10.44827">
        <ele>2701.44</ele>
        <time>2012-08-02T14:44:22Z</time>
      </trkpt>
      <trkpt lat="46.5321" lon="10.44826">
        <ele>2700</ele>
        <time>2012-08-02T14:44:23Z</time>
      </trkpt>
      <trkpt lat="46.53217" lon="10.44823">
        <ele>2699.04</ele>
        <time>2012-08-02T14:44:24Z</time>
      </trkpt>
      <trkpt lat="46.53222" lon="10.44816">
        <ele>2699.04</ele>
        <time>2012-08-02T14:44:25Z</time>
      </trkpt>
      <trkpt lat="46.53226" lon="10.44806">
        <ele>2698.08</ele>
        <time>2012-08-02T14:44:26Z</time>
      </trkpt>
      <trkpt lat="46.5323" lon="10.44794">
        <ele>2697.6</ele>
        <time>2012-08-02T14:44:27Z</time>
      </trkpt>
      <trkpt lat="46.53232" lon="10.44781">
        <ele>2695.67</ele>
        <time>2012-08-02T14:44:28Z</time>
      </trkpt>
      <trkpt lat="46.53233" lon="10.44768">
        <ele>2694.71</ele>
        <time>2012-08-02T14:44:29Z</time>
      </trkpt>
      <trkpt lat="46.53233" lon="10.44755">
        <ele>2693.27</ele>
        <time>2012-08-02T14:44:30Z</time>
      </trkpt>
      <trkpt lat="46.53233" lon="10.44716">
        <ele>2690.39</ele>
        <time>2012-08-02T14:44:33Z</time>
      </trkpt>
      <trkpt lat="46.53235" lon="10.44688">
        <ele>2688.94</ele>
        <time>2012-08-02T14:44:35Z</time>
      </trkpt>
      <trkpt lat="46.5324" lon="10.44674">
        <ele>2687.98</ele>
        <time>2012-08-02T14:44:36Z</time>
      </trkpt>
      <trkpt lat="46.53248" lon="10.44658">
        <ele>2687.02</ele>
        <time>2012-08-02T14:44:37Z</time>
      </trkpt>
      <trkpt lat="46.53257" lon="10.44641">
        <ele>2686.54</ele>
        <time>2012-08-02T14:44:38Z</time>
      </trkpt>
      <trkpt lat="46.53289" lon="10.44585">
        <ele>2681.73</ele>
        <time>2012-08-02T14:44:41Z</time>
      </trkpt>
      <trkpt lat="46.53307" lon="10.44551">
        <ele>2677.41</ele>
        <time>2012-08-02T14:44:43Z</time>
      </trkpt>
      <trkpt lat="46.53318" lon="10.44523">
        <ele>2674.52</ele>
        <time>2012-08-02T14:44:45Z</time>
      </trkpt>
      <trkpt lat="46.53325" lon="10.44497">
        <ele>2671.64</ele>
        <time>2012-08-02T14:44:47Z</time>
      </trkpt>
      <trkpt lat="46.53325" lon="10.44485">
        <ele>2670.2</ele>
        <time>2012-08-02T14:44:48Z</time>
      </trkpt>
      <trkpt lat="46.53323" lon="10.44474">
        <ele>2669.24</ele>
        <time>2012-08-02T14:44:49Z</time>
      </trkpt>
      <trkpt lat="46.53318" lon="10.44466">
        <ele>2669.24</ele>
        <time>2012-08-02T14:44:50Z</time>
      </trkpt>
      <trkpt lat="46.53309" lon="10.4446">
        <ele>2669.72</ele>
        <time>2012-08-02T14:44:51Z</time>
      </trkpt>
      <trkpt lat="46.53297" lon="10.44458">
        <ele>2669.72</ele>
        <time>2012-08-02T14:44:52Z</time>
      </trkpt>
      <trkpt lat="46.53281" lon="10.4446">
        <ele>2669.72</ele>
        <time>2012-08-02T14:44:53Z</time>
      </trkpt>
      <trkpt lat="46.53265" lon="10.44465">
        <ele>2668.28</ele>
        <time>2012-08-02T14:44:54Z</time>
      </trkpt>
      <trkpt lat="46.53249" lon="10.44472">
        <ele>2666.35</ele>
        <time>2012-08-02T14:44:55Z</time>
      </trkpt>
      <trkpt lat="46.53216" lon="10.44483">
        <ele>2662.03</ele>
        <time>2012-08-02T14:44:57Z</time>
      </trkpt>
      <trkpt lat="46.53191" lon="10.44489">
        <ele>2657.7</ele>
        <time>2012-08-02T14:44:59Z</time>
      </trkpt>
      <trkpt lat="46.5317" lon="10.44491">
        <ele>2655.78</ele>
        <time>2012-08-02T14:45:01Z</time>
      </trkpt>
      <trkpt lat="46.53162" lon="10.44486">
        <ele>2654.82</ele>
        <time>2012-08-02T14:45:02Z</time>
      </trkpt>
      <trkpt lat="46.53157" lon="10.44476">
        <ele>2654.34</ele>
        <time>2012-08-02T14:45:03Z</time>
      </trkpt>
      <trkpt lat="46.53154" lon="10.44462">
        <ele>2653.86</ele>
        <time>2012-08-02T14:45:04Z</time>
      </trkpt>
      <trkpt lat="46.53153" lon="10.44449">
        <ele>2654.34</ele>
        <time>2012-08-02T14:45:05Z</time>
      </trkpt>
      <trkpt lat="46.53155" lon="10.44436">
        <ele>2654.34</ele>
        <time>2012-08-02T14:45:06Z</time>
      </trkpt>
      <trkpt lat="46.53159" lon="10.4442">
        <ele>2653.86</ele>
        <time>2012-08-02T14:45:07Z</time>
      </trkpt>
      <trkpt lat="46.53169" lon="10.44402">
        <ele>2652.9</ele>
        <time>2012-08-02T14:45:08Z</time>
      </trkpt>
      <trkpt lat="46.53185" lon="10.44383">
        <ele>2652.42</ele>
        <time>2012-08-02T14:45:09Z</time>
      </trkpt>
      <trkpt lat="46.53203" lon="10.44369">
        <ele>2651.45</ele>
        <time>2012-08-02T14:45:10Z</time>
      </trkpt>
      <trkpt lat="46.53222" lon="10.44357">
        <ele>2649.05</ele>
        <time>2012-08-02T14:45:11Z</time>
      </trkpt>
      <trkpt lat="46.53239" lon="10.44349">
        <ele>2647.61</ele>
        <time>2012-08-02T14:45:12Z</time>
      </trkpt>
      <trkpt lat="46.53269" lon="10.44333">
        <ele>2643.28</ele>
        <time>2012-08-02T14:45:14Z</time>
      </trkpt>
      <trkpt lat="46.53296" lon="10.44315">
        <ele>2640.4</ele>
        <time>2012-08-02T14:45:16Z</time>
      </trkpt>
      <trkpt lat="46.53308" lon="10.44301">
        <ele>2638.96</ele>
        <time>2012-08-02T14:45:17Z</time>
      </trkpt>
      <trkpt lat="46.53318" lon="10.44286">
        <ele>2637.03</ele>
        <time>2012-08-02T14:45:18Z</time>
      </trkpt>
      <trkpt lat="46.53327" lon="10.44271">
        <ele>2635.59</ele>
        <time>2012-08-02T14:45:19Z</time>
      </trkpt>
      <trkpt lat="46.53334" lon="10.44257">
        <ele>2633.67</ele>
        <time>2012-08-02T14:45:20Z</time>
      </trkpt>
      <trkpt lat="46.53338" lon="10.44241">
        <ele>2633.19</ele>
        <time>2012-08-02T14:45:21Z</time>
      </trkpt>
      <trkpt lat="46.5334" lon="10.44223">
        <ele>2632.71</ele>
        <time>2012-08-02T14:45:22Z</time>
      </trkpt>
      <trkpt lat="46.53339" lon="10.44205">
        <ele>2631.75</ele>
        <time>2012-08-02T14:45:23Z</time>
      </trkpt>
      <trkpt lat="46.53335" lon="10.44186">
        <ele>2630.79</ele>
        <time>2012-08-02T14:45:24Z</time>
      </trkpt>
      <trkpt lat="46.53327" lon="10.44168">
        <ele>2630.3</ele>
        <time>2012-08-02T14:45:25Z</time>
      </trkpt>
      <trkpt lat="46.53317" lon="10.44149">
        <ele>2628.86</ele>
        <time>2012-08-02T14:45:26Z</time>
      </trkpt>
      <trkpt lat="46.53284" lon="10.44086">
        <ele>2625.5</ele>
        <time>2012-08-02T14:45:29Z</time>
      </trkpt>
      <trkpt lat="46.53264" lon="10.44046">
        <ele>2620.69</ele>
        <time>2012-08-02T14:45:31Z</time>
      </trkpt>
      <trkpt lat="46.53246" lon="10.44015">
        <ele>2615.88</ele>
        <time>2012-08-02T14:45:33Z</time>
      </trkpt>
      <trkpt lat="46.53232" lon="10.43993">
        <ele>2612.52</ele>
        <time>2012-08-02T14:45:35Z</time>
      </trkpt>
      <trkpt lat="46.53228" lon="10.43983">
        <ele>2611.56</ele>
        <time>2012-08-02T14:45:36Z</time>
      </trkpt>
      <trkpt lat="46.53227" lon="10.43974">
        <ele>2611.08</ele>
        <time>2012-08-02T14:45:37Z</time>
      </trkpt>
      <trkpt lat="46.53231" lon="10.43965">
        <ele>2610.6</ele>
        <time>2012-08-02T14:45:38Z</time>
      </trkpt>
      <trkpt lat="46.5324" lon="10.43958">
        <ele>2611.08</ele>
        <time>2012-08-02T14:45:39Z</time>
      </trkpt>
      <trkpt lat="46.53252" lon="10.4395">
        <ele>2610.6</ele>
        <time>2012-08-02T14:45:40Z</time>
      </trkpt>
      <trkpt lat="46.53301" lon="10.43922">
        <ele>2609.16</ele>
        <time>2012-08-02T14:45:43Z</time>
      </trkpt>
      <trkpt lat="46.53336" lon="10.439">
        <ele>2605.79</ele>
        <time>2012-08-02T14:45:45Z</time>
      </trkpt>
      <trkpt lat="46.53374" lon="10.43885">
        <ele>2602.91</ele>
        <time>2012-08-02T14:45:47Z</time>
      </trkpt>
      <trkpt lat="46.53395" lon="10.4388">
        <ele>2600.98</ele>
        <time>2012-08-02T14:45:48Z</time>
      </trkpt>
      <trkpt lat="46.53437" lon="10.43876">
        <ele>2596.18</ele>
        <time>2012-08-02T14:45:50Z</time>
      </trkpt>
      <trkpt lat="46.5348" lon="10.43868">
        <ele>2592.33</ele>
        <time>2012-08-02T14:45:52Z</time>
      </trkpt>
      <trkpt lat="46.53501" lon="10.43861">
        <ele>2589.45</ele>
        <time>2012-08-02T14:45:53Z</time>
      </trkpt>
      <trkpt lat="46.53538" lon="10.4385">
        <ele>2583.2</ele>
        <time>2012-08-02T14:45:55Z</time>
      </trkpt>
      <trkpt lat="46.53569" lon="10.4384">
        <ele>2577.91</ele>
        <time>2012-08-02T14:45:57Z</time>
      </trkpt>
      <trkpt lat="46.53582" lon="10.43838">
        <ele>2573.59</ele>
        <time>2012-08-02T14:45:58Z</time>
      </trkpt>
      <trkpt lat="46.53594" lon="10.43837">
        <ele>2571.18</ele>
        <time>2012-08-02T14:45:59Z</time>
      </trkpt>
      <trkpt lat="46.53603" lon="10.43838">
        <ele>2569.26</ele>
        <time>2012-08-02T14:46:00Z</time>
      </trkpt>
      <trkpt lat="46.53616" lon="10.4384">
        <ele>2567.34</ele>
        <time>2012-08-02T14:46:02Z</time>
      </trkpt>
      <trkpt lat="46.5362" lon="10.43836">
        <ele>2566.86</ele>
        <time>2012-08-02T14:46:03Z</time>
      </trkpt>
      <trkpt lat="46.5362" lon="10.43828">
        <ele>2567.34</ele>
        <time>2012-08-02T14:46:04Z</time>
      </trkpt>
      <trkpt lat="46.53618" lon="10.43818">
        <ele>2567.82</ele>
        <time>2012-08-02T14:46:05Z</time>
      </trkpt>
      <trkpt lat="46.53613" lon="10.43808">
        <ele>2566.86</ele>
        <time>2012-08-02T14:46:06Z</time>
      </trkpt>
      <trkpt lat="46.53605" lon="10.438">
        <ele>2564.45</ele>
        <time>2012-08-02T14:46:07Z</time>
      </trkpt>
      <trkpt lat="46.53599" lon="10.4379">
        <ele>2563.97</ele>
        <time>2012-08-02T14:46:08Z</time>
      </trkpt>
      <trkpt lat="46.53598" lon="10.4378">
        <ele>2563.97</ele>
        <time>2012-08-02T14:46:09Z</time>
      </trkpt>
      <trkpt lat="46.53599" lon="10.43772">
        <ele>2563.01</ele>
        <time>2012-08-02T14:46:10Z</time>
      </trkpt>
      <trkpt lat="46.53602" lon="10.43765">
        <ele>2563.49</ele>
        <time>2012-08-02T14:46:11Z</time>
      </trkpt>
      <trkpt lat="46.53608" lon="10.43756">
        <ele>2562.05</ele>
        <time>2012-08-02T14:46:12Z</time>
      </trkpt>
      <trkpt lat="46.53617" lon="10.43743">
        <ele>2561.57</ele>
        <time>2012-08-02T14:46:13Z</time>
      </trkpt>
      <trkpt lat="46.53629" lon="10.43729">
        <ele>2560.61</ele>
        <time>2012-08-02T14:46:14Z</time>
      </trkpt>
      <trkpt lat="46.53644" lon="10.43717">
        <ele>2559.65</ele>
        <time>2012-08-02T14:46:15Z</time>
      </trkpt>
      <trkpt lat="46.53686" lon="10.43689">
        <ele>2554.84</ele>
        <time>2012-08-02T14:46:17Z</time>
      </trkpt>
      <trkpt lat="46.53703" lon="10.43677">
        <ele>2552.92</ele>
        <time>2012-08-02T14:46:18Z</time>
      </trkpt>
      <trkpt lat="46.53716" lon="10.43662">
        <ele>2551.48</ele>
        <time>2012-08-02T14:46:19Z</time>
      </trkpt>
      <trkpt lat="46.53727" lon="10.43641">
        <ele>2551.48</ele>
        <time>2012-08-02T14:46:20Z</time>
      </trkpt>
      <trkpt lat="46.5375" lon="10.43577">
        <ele>2544.75</ele>
        <time>2012-08-02T14:46:23Z</time>
      </trkpt>
      <trkpt lat="46.53764" lon="10.43545">
        <ele>2540.9</ele>
        <time>2012-08-02T14:46:25Z</time>
      </trkpt>
      <trkpt lat="46.53776" lon="10.43531">
        <ele>2539.94</ele>
        <time>2012-08-02T14:46:26Z</time>
      </trkpt>
      <trkpt lat="46.5379" lon="10.4352">
        <ele>2539.46</ele>
        <time>2012-08-02T14:46:27Z</time>
      </trkpt>
      <trkpt lat="46.53843" lon="10.43486">
        <ele>2536.58</ele>
        <time>2012-08-02T14:46:30Z</time>
      </trkpt>
      <trkpt lat="46.53877" lon="10.43464">
        <ele>2531.77</ele>
        <time>2012-08-02T14:46:32Z</time>
      </trkpt>
      <trkpt lat="46.53905" lon="10.43445">
        <ele>2526.96</ele>
        <time>2012-08-02T14:46:34Z</time>
      </trkpt>
      <trkpt lat="46.53918" lon="10.43435">
        <ele>2524.56</ele>
        <time>2012-08-02T14:46:35Z</time>
      </trkpt>
      <trkpt lat="46.53928" lon="10.43422">
        <ele>2522.64</ele>
        <time>2012-08-02T14:46:36Z</time>
      </trkpt>
      <trkpt lat="46.53937" lon="10.43407">
        <ele>2521.68</ele>
        <time>2012-08-02T14:46:37Z</time>
      </trkpt>
      <trkpt lat="46.53945" lon="10.43391">
        <ele>2522.64</ele>
        <time>2012-08-02T14:46:38Z</time>
      </trkpt>
      <trkpt lat="46.53952" lon="10.43376">
        <ele>2520.71</ele>
        <time>2012-08-02T14:46:39Z</time>
      </trkpt>
      <trkpt lat="46.53965" lon="10.43351">
        <ele>2519.75</ele>
        <time>2012-08-02T14:46:41Z</time>
      </trkpt>
      <trkpt lat="46.53969" lon="10.43342">
        <ele>2518.79</ele>
        <time>2012-08-02T14:46:42Z</time>
      </trkpt>
      <trkpt lat="46.53971" lon="10.43334">
        <ele>2516.87</ele>
        <time>2012-08-02T14:46:43Z</time>
      </trkpt>
      <trkpt lat="46.5397" lon="10.43328">
        <ele>2517.35</ele>
        <time>2012-08-02T14:46:44Z</time>
      </trkpt>
      <trkpt lat="46.53965" lon="10.43326">
        <ele>2515.91</ele>
        <time>2012-08-02T14:46:45Z</time>
      </trkpt>
      <trkpt lat="46.53959" lon="10.43329">
        <ele>2514.95</ele>
        <time>2012-08-02T14:46:46Z</time>
      </trkpt>
      <trkpt lat="46.53952" lon="10.43337">
        <ele>2514.47</ele>
        <time>2012-08-02T14:46:47Z</time>
      </trkpt>
      <trkpt lat="46.53943" lon="10.43347">
        <ele>2514.95</ele>
        <time>2012-08-02T14:46:48Z</time>
      </trkpt>
      <trkpt lat="46.53931" lon="10.43357">
        <ele>2514.47</ele>
        <time>2012-08-02T14:46:49Z</time>
      </trkpt>
      <trkpt lat="46.53917" lon="10.43365">
        <ele>2514.47</ele>
        <time>2012-08-02T14:46:50Z</time>
      </trkpt>
      <trkpt lat="46.53901" lon="10.43373">
        <ele>2513.98</ele>
        <time>2012-08-02T14:46:51Z</time>
      </trkpt>
      <trkpt lat="46.53884" lon="10.43378">
        <ele>2512.54</ele>
        <time>2012-08-02T14:46:52Z</time>
      </trkpt>
      <trkpt lat="46.53869" lon="10.43381">
        <ele>2512.06</ele>
        <time>2012-08-02T14:46:53Z</time>
      </trkpt>
      <trkpt lat="46.53841" lon="10.43386">
        <ele>2508.7</ele>
        <time>2012-08-02T14:46:55Z</time>
      </trkpt>
      <trkpt lat="46.5383" lon="10.4339">
        <ele>2507.26</ele>
        <time>2012-08-02T14:46:56Z</time>
      </trkpt>
      <trkpt lat="46.5382" lon="10.43394">
        <ele>2505.81</ele>
        <time>2012-08-02T14:46:57Z</time>
      </trkpt>
      <trkpt lat="46.53812" lon="10.43398">
        <ele>2504.37</ele>
        <time>2012-08-02T14:46:58Z</time>
      </trkpt>
      <trkpt lat="46.53805" lon="10.43398">
        <ele>2503.41</ele>
        <time>2012-08-02T14:46:59Z</time>
      </trkpt>
      <trkpt lat="46.538" lon="10.43393">
        <ele>2503.41</ele>
        <time>2012-08-02T14:47:00Z</time>
      </trkpt>
      <trkpt lat="46.53797" lon="10.43389">
        <ele>2503.41</ele>
        <time>2012-08-02T14:47:01Z</time>
      </trkpt>
      <trkpt lat="46.53803" lon="10.4338">
        <ele>2504.37</ele>
        <time>2012-08-02T14:47:03Z</time>
      </trkpt>
      <trkpt lat="46.53808" lon="10.43377">
        <ele>2504.37</ele>
        <time>2012-08-02T14:47:04Z</time>
      </trkpt>
      <trkpt lat="46.53815" lon="10.4337">
        <ele>2503.89</ele>
        <time>2012-08-02T14:47:05Z</time>
      </trkpt>
      <trkpt lat="46.53884" lon="10.43292">
        <ele>2500.53</ele>
        <time>2012-08-02T14:47:10Z</time>
      </trkpt>
      <trkpt lat="46.53926" lon="10.43246">
        <ele>2496.68</ele>
        <time>2012-08-02T14:47:12Z</time>
      </trkpt>
      <trkpt lat="46.53941" lon="10.43231">
        <ele>2492.36</ele>
        <time>2012-08-02T14:47:13Z</time>
      </trkpt>
      <trkpt lat="46.53954" lon="10.4322">
        <ele>2489.47</ele>
        <time>2012-08-02T14:47:14Z</time>
      </trkpt>
      <trkpt lat="46.53965" lon="10.43213">
        <ele>2488.03</ele>
        <time>2012-08-02T14:47:15Z</time>
      </trkpt>
      <trkpt lat="46.53972" lon="10.43207">
        <ele>2487.55</ele>
        <time>2012-08-02T14:47:16Z</time>
      </trkpt>
      <trkpt lat="46.53977" lon="10.432">
        <ele>2486.59</ele>
        <time>2012-08-02T14:47:17Z</time>
      </trkpt>
      <trkpt lat="46.53978" lon="10.43192">
        <ele>2486.11</ele>
        <time>2012-08-02T14:47:18Z</time>
      </trkpt>
      <trkpt lat="46.53974" lon="10.43187">
        <ele>2486.11</ele>
        <time>2012-08-02T14:47:19Z</time>
      </trkpt>
      <trkpt lat="46.53967" lon="10.43187">
        <ele>2486.59</ele>
        <time>2012-08-02T14:47:20Z</time>
      </trkpt>
      <trkpt lat="46.53956" lon="10.43191">
        <ele>2485.15</ele>
        <time>2012-08-02T14:47:21Z</time>
      </trkpt>
      <trkpt lat="46.53943" lon="10.43197">
        <ele>2485.15</ele>
        <time>2012-08-02T14:47:22Z</time>
      </trkpt>
      <trkpt lat="46.53883" lon="10.43221">
        <ele>2481.3</ele>
        <time>2012-08-02T14:47:26Z</time>
      </trkpt>
      <trkpt lat="46.5387" lon="10.43229">
        <ele>2479.38</ele>
        <time>2012-08-02T14:47:27Z</time>
      </trkpt>
      <trkpt lat="46.53851" lon="10.43243">
        <ele>2475.53</ele>
        <time>2012-08-02T14:47:29Z</time>
      </trkpt>
      <trkpt lat="46.53843" lon="10.43246">
        <ele>2474.09</ele>
        <time>2012-08-02T14:47:30Z</time>
      </trkpt>
      <trkpt lat="46.53837" lon="10.43246">
        <ele>2473.61</ele>
        <time>2012-08-02T14:47:31Z</time>
      </trkpt>
      <trkpt lat="46.53834" lon="10.43243">
        <ele>2474.09</ele>
        <time>2012-08-02T14:47:32Z</time>
      </trkpt>
      <trkpt lat="46.53833" lon="10.43239">
        <ele>2473.61</ele>
        <time>2012-08-02T14:47:33Z</time>
      </trkpt>
      <trkpt lat="46.5384" lon="10.43229">
        <ele>2474.57</ele>
        <time>2012-08-02T14:47:34Z</time>
      </trkpt>
      <trkpt lat="46.53847" lon="10.43222">
        <ele>2475.05</ele>
        <time>2012-08-02T14:47:35Z</time>
      </trkpt>
      <trkpt lat="46.53861" lon="10.4321">
        <ele>2475.05</ele>
        <time>2012-08-02T14:47:36Z</time>
      </trkpt>
      <trkpt lat="46.53877" lon="10.43197">
        <ele>2474.09</ele>
        <time>2012-08-02T14:47:37Z</time>
      </trkpt>
      <trkpt lat="46.53892" lon="10.43183">
        <ele>2474.09</ele>
        <time>2012-08-02T14:47:38Z</time>
      </trkpt>
      <trkpt lat="46.53907" lon="10.43167">
        <ele>2473.13</ele>
        <time>2012-08-02T14:47:39Z</time>
      </trkpt>
      <trkpt lat="46.53922" lon="10.4315">
        <ele>2472.65</ele>
        <time>2012-08-02T14:47:40Z</time>
      </trkpt>
      <trkpt lat="46.5397" lon="10.43098">
        <ele>2468.8</ele>
        <time>2012-08-02T14:47:43Z</time>
      </trkpt>
      <trkpt lat="46.53985" lon="10.43079">
        <ele>2468.32</ele>
        <time>2012-08-02T14:47:44Z</time>
      </trkpt>
      <trkpt lat="46.53999" lon="10.43057">
        <ele>2466.88</ele>
        <time>2012-08-02T14:47:45Z</time>
      </trkpt>
      <trkpt lat="46.54012" lon="10.43033">
        <ele>2465.44</ele>
        <time>2012-08-02T14:47:46Z</time>
      </trkpt>
      <trkpt lat="46.54047" lon="10.42957">
        <ele>2461.11</ele>
        <time>2012-08-02T14:47:49Z</time>
      </trkpt>
      <trkpt lat="46.54074" lon="10.4287">
        <ele>2455.82</ele>
        <time>2012-08-02T14:47:52Z</time>
      </trkpt>
      <trkpt lat="46.54081" lon="10.4284">
        <ele>2454.86</ele>
        <time>2012-08-02T14:47:53Z</time>
      </trkpt>
      <trkpt lat="46.54087" lon="10.42808">
        <ele>2455.34</ele>
        <time>2012-08-02T14:47:54Z</time>
      </trkpt>
      <trkpt lat="46.54095" lon="10.42744">
        <ele>2450.54</ele>
        <time>2012-08-02T14:47:56Z</time>
      </trkpt>
      <trkpt lat="46.54102" lon="10.42684">
        <ele>2446.21</ele>
        <time>2012-08-02T14:47:58Z</time>
      </trkpt>
      <trkpt lat="46.54106" lon="10.42624">
        <ele>2442.37</ele>
        <time>2012-08-02T14:48:00Z</time>
      </trkpt>
      <trkpt lat="46.54106" lon="10.42593">
        <ele>2440.44</ele>
        <time>2012-08-02T14:48:01Z</time>
      </trkpt>
      <trkpt lat="46.54104" lon="10.42561">
        <ele>2439.48</ele>
        <time>2012-08-02T14:48:02Z</time>
      </trkpt>
      <trkpt lat="46.54098" lon="10.42496">
        <ele>2435.64</ele>
        <time>2012-08-02T14:48:04Z</time>
      </trkpt>
      <trkpt lat="46.54093" lon="10.42432">
        <ele>2431.79</ele>
        <time>2012-08-02T14:48:06Z</time>
      </trkpt>
      <trkpt lat="46.54087" lon="10.42367">
        <ele>2428.43</ele>
        <time>2012-08-02T14:48:08Z</time>
      </trkpt>
      <trkpt lat="46.54082" lon="10.42302">
        <ele>2425.06</ele>
        <time>2012-08-02T14:48:10Z</time>
      </trkpt>
      <trkpt lat="46.54077" lon="10.42238">
        <ele>2421.22</ele>
        <time>2012-08-02T14:48:12Z</time>
      </trkpt>
      <trkpt lat="46.54069" lon="10.4214">
        <ele>2417.85</ele>
        <time>2012-08-02T14:48:15Z</time>
      </trkpt>
      <trkpt lat="46.54057" lon="10.42007">
        <ele>2414.97</ele>
        <time>2012-08-02T14:48:19Z</time>
      </trkpt>
      <trkpt lat="46.54046" lon="10.41873">
        <ele>2409.68</ele>
        <time>2012-08-02T14:48:23Z</time>
      </trkpt>
      <trkpt lat="46.5404" lon="10.41812">
        <ele>2405.36</ele>
        <time>2012-08-02T14:48:25Z</time>
      </trkpt>
      <trkpt lat="46.54035" lon="10.41758">
        <ele>2401.99</ele>
        <time>2012-08-02T14:48:27Z</time>
      </trkpt>
      <trkpt lat="46.5403" lon="10.41711">
        <ele>2400.07</ele>
        <time>2012-08-02T14:48:29Z</time>
      </trkpt>
      <trkpt lat="46.54025" lon="10.41688">
        <ele>2399.11</ele>
        <time>2012-08-02T14:48:30Z</time>
      </trkpt>
      <trkpt lat="46.54018" lon="10.41665">
        <ele>2399.11</ele>
        <time>2012-08-02T14:48:31Z</time>
      </trkpt>
      <trkpt lat="46.54009" lon="10.41643">
        <ele>2398.63</ele>
        <time>2012-08-02T14:48:32Z</time>
      </trkpt>
      <trkpt lat="46.53998" lon="10.41622">
        <ele>2399.11</ele>
        <time>2012-08-02T14:48:33Z</time>
      </trkpt>
      <trkpt lat="46.53985" lon="10.416">
        <ele>2399.11</ele>
        <time>2012-08-02T14:48:34Z</time>
      </trkpt>
      <trkpt lat="46.53929" lon="10.41513">
        <ele>2396.7</ele>
        <time>2012-08-02T14:48:38Z</time>
      </trkpt>
      <trkpt lat="46.5384" lon="10.41377">
        <ele>2392.38</ele>
        <time>2012-08-02T14:48:44Z</time>
      </trkpt>
      <trkpt lat="46.53817" lon="10.41341">
        <ele>2388.05</ele>
        <time>2012-08-02T14:48:46Z</time>
      </trkpt>
      <trkpt lat="46.53798" lon="10.41314">
        <ele>2385.17</ele>
        <time>2012-08-02T14:48:48Z</time>
      </trkpt>
      <trkpt lat="46.53785" lon="10.41304">
        <ele>2385.17</ele>
        <time>2012-08-02T14:48:49Z</time>
      </trkpt>
      <trkpt lat="46.53769" lon="10.41298">
        <ele>2384.69</ele>
        <time>2012-08-02T14:48:50Z</time>
      </trkpt>
      <trkpt lat="46.53753" lon="10.41296">
        <ele>2385.17</ele>
        <time>2012-08-02T14:48:51Z</time>
      </trkpt>
      <trkpt lat="46.53736" lon="10.41294">
        <ele>2384.21</ele>
        <time>2012-08-02T14:48:52Z</time>
      </trkpt>
      <trkpt lat="46.53706" lon="10.41289">
        <ele>2383.73</ele>
        <time>2012-08-02T14:48:54Z</time>
      </trkpt>
      <trkpt lat="46.53691" lon="10.41284">
        <ele>2382.28</ele>
        <time>2012-08-02T14:48:55Z</time>
      </trkpt>
      <trkpt lat="46.53677" lon="10.41274">
        <ele>2382.76</ele>
        <time>2012-08-02T14:48:56Z</time>
      </trkpt>
      <trkpt lat="46.53663" lon="10.41261">
        <ele>2383.25</ele>
        <time>2012-08-02T14:48:57Z</time>
      </trkpt>
      <trkpt lat="46.53649" lon="10.41245">
        <ele>2383.73</ele>
        <time>2012-08-02T14:48:58Z</time>
      </trkpt>
      <trkpt lat="46.53637" lon="10.41228">
        <ele>2382.28</ele>
        <time>2012-08-02T14:48:59Z</time>
      </trkpt>
      <trkpt lat="46.53612" lon="10.41199">
        <ele>2379.4</ele>
        <time>2012-08-02T14:49:01Z</time>
      </trkpt>
      <trkpt lat="46.53598" lon="10.41191">
        <ele>2378.92</ele>
        <time>2012-08-02T14:49:02Z</time>
      </trkpt>
      <trkpt lat="46.5358" lon="10.41189">
        <ele>2378.92</ele>
        <time>2012-08-02T14:49:03Z</time>
      </trkpt>
      <trkpt lat="46.5351" lon="10.4119">
        <ele>2376.04</ele>
        <time>2012-08-02T14:49:07Z</time>
      </trkpt>
      <trkpt lat="46.53497" lon="10.41187">
        <ele>2375.07</ele>
        <time>2012-08-02T14:49:08Z</time>
      </trkpt>
      <trkpt lat="46.53477" lon="10.41179">
        <ele>2374.11</ele>
        <time>2012-08-02T14:49:10Z</time>
      </trkpt>
      <trkpt lat="46.53467" lon="10.41172">
        <ele>2373.63</ele>
        <time>2012-08-02T14:49:11Z</time>
      </trkpt>
      <trkpt lat="46.53458" lon="10.4116">
        <ele>2374.59</ele>
        <time>2012-08-02T14:49:12Z</time>
      </trkpt>
      <trkpt lat="46.53449" lon="10.41145">
        <ele>2375.07</ele>
        <time>2012-08-02T14:49:13Z</time>
      </trkpt>
      <trkpt lat="46.5344" lon="10.41128">
        <ele>2374.11</ele>
        <time>2012-08-02T14:49:14Z</time>
      </trkpt>
      <trkpt lat="46.53406" lon="10.41073">
        <ele>2373.63</ele>
        <time>2012-08-02T14:49:17Z</time>
      </trkpt>
      <trkpt lat="46.53391" lon="10.41057">
        <ele>2373.15</ele>
        <time>2012-08-02T14:49:18Z</time>
      </trkpt>
      <trkpt lat="46.53373" lon="10.41044">
        <ele>2372.19</ele>
        <time>2012-08-02T14:49:19Z</time>
      </trkpt>
      <trkpt lat="46.53355" lon="10.41033">
        <ele>2372.19</ele>
        <time>2012-08-02T14:49:20Z</time>
      </trkpt>
      <trkpt lat="46.53318" lon="10.41011">
        <ele>2368.83</ele>
        <time>2012-08-02T14:49:22Z</time>
      </trkpt>
      <trkpt lat="46.53266" lon="10.4098">
        <ele>2365.46</ele>
        <time>2012-08-02T14:49:25Z</time>
      </trkpt>
      <trkpt lat="46.53233" lon="10.4096">
        <ele>2361.14</ele>
        <time>2012-08-02T14:49:27Z</time>
      </trkpt>
      <trkpt lat="46.53203" lon="10.40945">
        <ele>2358.25</ele>
        <time>2012-08-02T14:49:29Z</time>
      </trkpt>
      <trkpt lat="46.53188" lon="10.40941">
        <ele>2357.77</ele>
        <time>2012-08-02T14:49:30Z</time>
      </trkpt>
      <trkpt lat="46.53158" lon="10.40937">
        <ele>2356.33</ele>
        <time>2012-08-02T14:49:32Z</time>
      </trkpt>
      <trkpt lat="46.53093" lon="10.40929">
        <ele>2352.48</ele>
        <time>2012-08-02T14:49:36Z</time>
      </trkpt>
      <trkpt lat="46.53019" lon="10.40922">
        <ele>2346.72</ele>
        <time>2012-08-02T14:49:40Z</time>
      </trkpt>
      <trkpt lat="46.52982" lon="10.40923">
        <ele>2343.83</ele>
        <time>2012-08-02T14:49:42Z</time>
      </trkpt>
      <trkpt lat="46.52964" lon="10.40929">
        <ele>2342.87</ele>
        <time>2012-08-02T14:49:43Z</time>
      </trkpt>
      <trkpt lat="46.52931" lon="10.40944">
        <ele>2339.51</ele>
        <time>2012-08-02T14:49:45Z</time>
      </trkpt>
      <trkpt lat="46.52901" lon="10.40955">
        <ele>2335.18</ele>
        <time>2012-08-02T14:49:47Z</time>
      </trkpt>
      <trkpt lat="46.52868" lon="10.40959">
        <ele>2333.26</ele>
        <time>2012-08-02T14:49:49Z</time>
      </trkpt>
      <trkpt lat="46.52851" lon="10.40958">
        <ele>2333.74</ele>
        <time>2012-08-02T14:49:50Z</time>
      </trkpt>
      <trkpt lat="46.52803" lon="10.40948">
        <ele>2329.89</ele>
        <time>2012-08-02T14:49:53Z</time>
      </trkpt>
      <trkpt lat="46.52788" lon="10.40942">
        <ele>2328.45</ele>
        <time>2012-08-02T14:49:54Z</time>
      </trkpt>
      <trkpt lat="46.52772" lon="10.40931">
        <ele>2328.93</ele>
        <time>2012-08-02T14:49:55Z</time>
      </trkpt>
      <trkpt lat="46.52758" lon="10.40917">
        <ele>2328.45</ele>
        <time>2012-08-02T14:49:56Z</time>
      </trkpt>
      <trkpt lat="46.52718" lon="10.40873">
        <ele>2324.12</ele>
        <time>2012-08-02T14:49:59Z</time>
      </trkpt>
      <trkpt lat="46.52704" lon="10.40861">
        <ele>2323.16</ele>
        <time>2012-08-02T14:50:00Z</time>
      </trkpt>
      <trkpt lat="46.52689" lon="10.40854">
        <ele>2322.2</ele>
        <time>2012-08-02T14:50:01Z</time>
      </trkpt>
      <trkpt lat="46.52673" lon="10.4085">
        <ele>2322.2</ele>
        <time>2012-08-02T14:50:02Z</time>
      </trkpt>
      <trkpt lat="46.52656" lon="10.40852">
        <ele>2322.2</ele>
        <time>2012-08-02T14:50:03Z</time>
      </trkpt>
      <trkpt lat="46.52616" lon="10.40861">
        <ele>2319.32</ele>
        <time>2012-08-02T14:50:05Z</time>
      </trkpt>
      <trkpt lat="46.52607" lon="10.40863">
        <ele>2318.84</ele>
        <time>2012-08-02T14:50:06Z</time>
      </trkpt>
      <trkpt lat="46.5256" lon="10.40875">
        <ele>2315.47</ele>
        <time>2012-08-02T14:50:08Z</time>
      </trkpt>
      <trkpt lat="46.52521" lon="10.40886">
        <ele>2311.15</ele>
        <time>2012-08-02T14:50:10Z</time>
      </trkpt>
      <trkpt lat="46.52502" lon="10.40891">
        <ele>2308.26</ele>
        <time>2012-08-02T14:50:11Z</time>
      </trkpt>
      <trkpt lat="46.52484" lon="10.40896">
        <ele>2308.74</ele>
        <time>2012-08-02T14:50:12Z</time>
      </trkpt>
      <trkpt lat="46.52454" lon="10.40904">
        <ele>2302.49</ele>
        <time>2012-08-02T14:50:14Z</time>
      </trkpt>
      <trkpt lat="46.52427" lon="10.40906">
        <ele>2299.13</ele>
        <time>2012-08-02T14:50:16Z</time>
      </trkpt>
      <trkpt lat="46.52415" lon="10.40901">
        <ele>2299.61</ele>
        <time>2012-08-02T14:50:17Z</time>
      </trkpt>
      <trkpt lat="46.52404" lon="10.40893">
        <ele>2298.65</ele>
        <time>2012-08-02T14:50:18Z</time>
      </trkpt>
      <trkpt lat="46.52394" lon="10.40885">
        <ele>2296.73</ele>
        <time>2012-08-02T14:50:19Z</time>
      </trkpt>
      <trkpt lat="46.52383" lon="10.4088">
        <ele>2295.77</ele>
        <time>2012-08-02T14:50:20Z</time>
      </trkpt>
      <trkpt lat="46.5237" lon="10.40879">
        <ele>2294.8</ele>
        <time>2012-08-02T14:50:21Z</time>
      </trkpt>
      <trkpt lat="46.52357" lon="10.40883">
        <ele>2294.32</ele>
        <time>2012-08-02T14:50:22Z</time>
      </trkpt>
      <trkpt lat="46.52343" lon="10.4089">
        <ele>2293.36</ele>
        <time>2012-08-02T14:50:23Z</time>
      </trkpt>
      <trkpt lat="46.52329" lon="10.40902">
        <ele>2291.44</ele>
        <time>2012-08-02T14:50:24Z</time>
      </trkpt>
      <trkpt lat="46.52317" lon="10.40918">
        <ele>2290.48</ele>
        <time>2012-08-02T14:50:25Z</time>
      </trkpt>
      <trkpt lat="46.52304" lon="10.40934">
        <ele>2288.08</ele>
        <time>2012-08-02T14:50:26Z</time>
      </trkpt>
      <trkpt lat="46.52293" lon="10.40946">
        <ele>2285.67</ele>
        <time>2012-08-02T14:50:27Z</time>
      </trkpt>
      <trkpt lat="46.52287" lon="10.40954">
        <ele>2284.23</ele>
        <time>2012-08-02T14:50:28Z</time>
      </trkpt>
      <trkpt lat="46.52274" lon="10.40961">
        <ele>2282.79</ele>
        <time>2012-08-02T14:50:29Z</time>
      </trkpt>
      <trkpt lat="46.52265" lon="10.40963">
        <ele>2281.35</ele>
        <time>2012-08-02T14:50:30Z</time>
      </trkpt>
      <trkpt lat="46.52255" lon="10.40959">
        <ele>2280.38</ele>
        <time>2012-08-02T14:50:31Z</time>
      </trkpt>
      <trkpt lat="46.52246" lon="10.40949">
        <ele>2280.38</ele>
        <time>2012-08-02T14:50:32Z</time>
      </trkpt>
      <trkpt lat="46.52234" lon="10.40937">
        <ele>2280.38</ele>
        <time>2012-08-02T14:50:33Z</time>
      </trkpt>
      <trkpt lat="46.5222" lon="10.40929">
        <ele>2279.9</ele>
        <time>2012-08-02T14:50:34Z</time>
      </trkpt>
      <trkpt lat="46.52204" lon="10.40924">
        <ele>2279.9</ele>
        <time>2012-08-02T14:50:35Z</time>
      </trkpt>
      <trkpt lat="46.52186" lon="10.40921">
        <ele>2279.42</ele>
        <time>2012-08-02T14:50:36Z</time>
      </trkpt>
      <trkpt lat="46.52139" lon="10.40915">
        <ele>2275.58</ele>
        <time>2012-08-02T14:50:38Z</time>
      </trkpt>
      <trkpt lat="46.52127" lon="10.40912">
        <ele>2274.62</ele>
        <time>2012-08-02T14:50:39Z</time>
      </trkpt>
      <trkpt lat="46.52088" lon="10.40906">
        <ele>2270.77</ele>
        <time>2012-08-02T14:50:41Z</time>
      </trkpt>
      <trkpt lat="46.52051" lon="10.40899">
        <ele>2266.45</ele>
        <time>2012-08-02T14:50:43Z</time>
      </trkpt>
      <trkpt lat="46.52035" lon="10.40892">
        <ele>2264.04</ele>
        <time>2012-08-02T14:50:44Z</time>
      </trkpt>
      <trkpt lat="46.5202" lon="10.40884">
        <ele>2261.16</ele>
        <time>2012-08-02T14:50:45Z</time>
      </trkpt>
      <trkpt lat="46.52007" lon="10.40878">
        <ele>2259.24</ele>
        <time>2012-08-02T14:50:46Z</time>
      </trkpt>
      <trkpt lat="46.51984" lon="10.40871">
        <ele>2255.39</ele>
        <time>2012-08-02T14:50:48Z</time>
      </trkpt>
      <trkpt lat="46.51974" lon="10.4087">
        <ele>2254.43</ele>
        <time>2012-08-02T14:50:49Z</time>
      </trkpt>
      <trkpt lat="46.51964" lon="10.40872">
        <ele>2252.51</ele>
        <time>2012-08-02T14:50:50Z</time>
      </trkpt>
      <trkpt lat="46.51953" lon="10.40877">
        <ele>2251.54</ele>
        <time>2012-08-02T14:50:51Z</time>
      </trkpt>
      <trkpt lat="46.51891" lon="10.40904">
        <ele>2248.18</ele>
        <time>2012-08-02T14:50:56Z</time>
      </trkpt>
      <trkpt lat="46.51849" lon="10.40915">
        <ele>2244.33</ele>
        <time>2012-08-02T14:50:59Z</time>
      </trkpt>
      <trkpt lat="46.51821" lon="10.40922">
        <ele>2241.45</ele>
        <time>2012-08-02T14:51:01Z</time>
      </trkpt>
      <trkpt lat="46.51798" lon="10.40931">
        <ele>2237.13</ele>
        <time>2012-08-02T14:51:03Z</time>
      </trkpt>
      <trkpt lat="46.5179" lon="10.40933">
        <ele>2234.72</ele>
        <time>2012-08-02T14:51:04Z</time>
      </trkpt>
      <trkpt lat="46.51782" lon="10.40934">
        <ele>2233.76</ele>
        <time>2012-08-02T14:51:05Z</time>
      </trkpt>
      <trkpt lat="46.51776" lon="10.40933">
        <ele>2233.76</ele>
        <time>2012-08-02T14:51:06Z</time>
      </trkpt>
      <trkpt lat="46.51771" lon="10.40927">
        <ele>2233.28</ele>
        <time>2012-08-02T14:51:07Z</time>
      </trkpt>
      <trkpt lat="46.51771" lon="10.4092">
        <ele>2232.8</ele>
        <time>2012-08-02T14:51:08Z</time>
      </trkpt>
      <trkpt lat="46.51775" lon="10.40914">
        <ele>2232.8</ele>
        <time>2012-08-02T14:51:09Z</time>
      </trkpt>
      <trkpt lat="46.5178" lon="10.40909">
        <ele>2233.28</ele>
        <time>2012-08-02T14:51:10Z</time>
      </trkpt>
      <trkpt lat="46.51824" lon="10.40884">
        <ele>2230.4</ele>
        <time>2012-08-02T14:51:14Z</time>
      </trkpt>
      <trkpt lat="46.51841" lon="10.40871">
        <ele>2229.43</ele>
        <time>2012-08-02T14:51:15Z</time>
      </trkpt>
      <trkpt lat="46.51854" lon="10.40854">
        <ele>2228.95</ele>
        <time>2012-08-02T14:51:16Z</time>
      </trkpt>
      <trkpt lat="46.51864" lon="10.40831">
        <ele>2227.99</ele>
        <time>2012-08-02T14:51:17Z</time>
      </trkpt>
      <trkpt lat="46.51869" lon="10.40807">
        <ele>2226.07</ele>
        <time>2012-08-02T14:51:18Z</time>
      </trkpt>
      <trkpt lat="46.51873" lon="10.40786">
        <ele>2225.59</ele>
        <time>2012-08-02T14:51:19Z</time>
      </trkpt>
      <trkpt lat="46.51877" lon="10.40768">
        <ele>2222.71</ele>
        <time>2012-08-02T14:51:20Z</time>
      </trkpt>
      <trkpt lat="46.51881" lon="10.40753">
        <ele>2220.78</ele>
        <time>2012-08-02T14:51:21Z</time>
      </trkpt>
      <trkpt lat="46.51888" lon="10.40741">
        <ele>2218.86</ele>
        <time>2012-08-02T14:51:22Z</time>
      </trkpt>
      <trkpt lat="46.51895" lon="10.40732">
        <ele>2218.86</ele>
        <time>2012-08-02T14:51:23Z</time>
      </trkpt>
      <trkpt lat="46.519" lon="10.40723">
        <ele>2217.9</ele>
        <time>2012-08-02T14:51:24Z</time>
      </trkpt>
      <trkpt lat="46.51901" lon="10.40713">
        <ele>2216.94</ele>
        <time>2012-08-02T14:51:25Z</time>
      </trkpt>
      <trkpt lat="46.51899" lon="10.40705">
        <ele>2216.46</ele>
        <time>2012-08-02T14:51:26Z</time>
      </trkpt>
      <trkpt lat="46.51892" lon="10.40702">
        <ele>2215.98</ele>
        <time>2012-08-02T14:51:27Z</time>
      </trkpt>
      <trkpt lat="46.51885" lon="10.40705">
        <ele>2216.46</ele>
        <time>2012-08-02T14:51:28Z</time>
      </trkpt>
      <trkpt lat="46.51879" lon="10.40708">
        <ele>2219.82</ele>
        <time>2012-08-02T14:51:29Z</time>
      </trkpt>
      <trkpt lat="46.51866" lon="10.40723">
        <ele>2216.46</ele>
        <time>2012-08-02T14:51:30Z</time>
      </trkpt>
      <trkpt lat="46.51815" lon="10.40767">
        <ele>2212.61</ele>
        <time>2012-08-02T14:51:34Z</time>
      </trkpt>
      <trkpt lat="46.51803" lon="10.40774">
        <ele>2212.13</ele>
        <time>2012-08-02T14:51:35Z</time>
      </trkpt>
      <trkpt lat="46.51781" lon="10.40786">
        <ele>2211.65</ele>
        <time>2012-08-02T14:51:37Z</time>
      </trkpt>
      <trkpt lat="46.51772" lon="10.40793">
        <ele>2211.65</ele>
        <time>2012-08-02T14:51:38Z</time>
      </trkpt>
      <trkpt lat="46.51765" lon="10.40802">
        <ele>2210.69</ele>
        <time>2012-08-02T14:51:39Z</time>
      </trkpt>
      <trkpt lat="46.51758" lon="10.40812">
        <ele>2209.73</ele>
        <time>2012-08-02T14:51:40Z</time>
      </trkpt>
      <trkpt lat="46.51754" lon="10.40823">
        <ele>2209.25</ele>
        <time>2012-08-02T14:51:41Z</time>
      </trkpt>
      <trkpt lat="46.51749" lon="10.40834">
        <ele>2208.77</ele>
        <time>2012-08-02T14:51:42Z</time>
      </trkpt>
      <trkpt lat="46.51733" lon="10.40861">
        <ele>2205.4</ele>
        <time>2012-08-02T14:51:45Z</time>
      </trkpt>
      <trkpt lat="46.51727" lon="10.40868">
        <ele>2205.4</ele>
        <time>2012-08-02T14:51:46Z</time>
      </trkpt>
      <trkpt lat="46.51719" lon="10.40873">
        <ele>2203.96</ele>
        <time>2012-08-02T14:51:47Z</time>
      </trkpt>
      <trkpt lat="46.517" lon="10.40884">
        <ele>2203</ele>
        <time>2012-08-02T14:51:49Z</time>
      </trkpt>
      <trkpt lat="46.51689" lon="10.40887">
        <ele>2202.04</ele>
        <time>2012-08-02T14:51:50Z</time>
      </trkpt>
      <trkpt lat="46.51651" lon="10.40895">
        <ele>2198.67</ele>
        <time>2012-08-02T14:51:54Z</time>
      </trkpt>
      <trkpt lat="46.51609" lon="10.40907">
        <ele>2194.83</ele>
        <time>2012-08-02T14:51:58Z</time>
      </trkpt>
      <trkpt lat="46.51601" lon="10.40911">
        <ele>2193.39</ele>
        <time>2012-08-02T14:51:59Z</time>
      </trkpt>
      <trkpt lat="46.51595" lon="10.40916">
        <ele>2192.42</ele>
        <time>2012-08-02T14:52:00Z</time>
      </trkpt>
      <trkpt lat="46.5159" lon="10.40921">
        <ele>2191.94</ele>
        <time>2012-08-02T14:52:01Z</time>
      </trkpt>
      <trkpt lat="46.51586" lon="10.40924">
        <ele>2191.46</ele>
        <time>2012-08-02T14:52:02Z</time>
      </trkpt>
      <trkpt lat="46.51583" lon="10.40925">
        <ele>2190.98</ele>
        <time>2012-08-02T14:52:03Z</time>
      </trkpt>
      <trkpt lat="46.5158" lon="10.40925">
        <ele>2190.5</ele>
        <time>2012-08-02T14:52:04Z</time>
      </trkpt>
      <trkpt lat="46.51574" lon="10.40924">
        <ele>2190.5</ele>
        <time>2012-08-02T14:52:11Z</time>
      </trkpt>
      <trkpt lat="46.51574" lon="10.40932">
        <ele>2190.98</ele>
        <time>2012-08-02T14:52:27Z</time>
      </trkpt>
      <trkpt lat="46.51576" lon="10.40935">
        <ele>2190.98</ele>
        <time>2012-08-02T14:52:57Z</time>
      </trkpt>
      <trkpt lat="46.51574" lon="10.40934">
        <ele>2190.02</ele>
        <time>2012-08-02T14:53:25Z</time>
      </trkpt>
      <trkpt lat="46.51575" lon="10.40934">
        <ele>2190.02</ele>
        <time>2012-08-02T14:53:27Z</time>
      </trkpt>
      <trkpt lat="46.51586" lon="10.40918">
        <ele>2190.5</ele>
        <time>2012-08-02T14:53:31Z</time>
      </trkpt>
      <trkpt lat="46.51596" lon="10.40909">
        <ele>2190.98</ele>
        <time>2012-08-02T14:53:32Z</time>
      </trkpt>
      <trkpt lat="46.51685" lon="10.40842">
        <ele>2184.73</ele>
        <time>2012-08-02T14:53:38Z</time>
      </trkpt>
      <trkpt lat="46.51708" lon="10.40822">
        <ele>2179.93</ele>
        <time>2012-08-02T14:53:40Z</time>
      </trkpt>
      <trkpt lat="46.51716" lon="10.40808">
        <ele>2179.45</ele>
        <time>2012-08-02T14:53:41Z</time>
      </trkpt>
      <trkpt lat="46.51721" lon="10.40791">
        <ele>2178.97</ele>
        <time>2012-08-02T14:53:42Z</time>
      </trkpt>
      <trkpt lat="46.5173" lon="10.40751">
        <ele>2177.04</ele>
        <time>2012-08-02T14:53:44Z</time>
      </trkpt>
      <trkpt lat="46.51734" lon="10.40737">
        <ele>2174.64</ele>
        <time>2012-08-02T14:53:45Z</time>
      </trkpt>
      <trkpt lat="46.51737" lon="10.40729">
        <ele>2172.72</ele>
        <time>2012-08-02T14:53:46Z</time>
      </trkpt>
      <trkpt lat="46.51744" lon="10.40717">
        <ele>2170.79</ele>
        <time>2012-08-02T14:53:49Z</time>
      </trkpt>
      <trkpt lat="46.5175" lon="10.40711">
        <ele>2169.83</ele>
        <time>2012-08-02T14:53:58Z</time>
      </trkpt>
      <trkpt lat="46.51744" lon="10.40712">
        <ele>2169.83</ele>
        <time>2012-08-02T14:54:27Z</time>
      </trkpt>
      <trkpt lat="46.5175" lon="10.40691">
        <ele>2169.83</ele>
        <time>2012-08-02T14:54:41Z</time>
      </trkpt>
      <trkpt lat="46.51756" lon="10.40678">
        <ele>2168.87</ele>
        <time>2012-08-02T14:54:42Z</time>
      </trkpt>
      <trkpt lat="46.51765" lon="10.40658">
        <ele>2167.43</ele>
        <time>2012-08-02T14:54:44Z</time>
      </trkpt>
      <trkpt lat="46.51765" lon="10.4065">
        <ele>2166.47</ele>
        <time>2012-08-02T14:54:45Z</time>
      </trkpt>
      <trkpt lat="46.51761" lon="10.40645">
        <ele>2166.47</ele>
        <time>2012-08-02T14:54:46Z</time>
      </trkpt>
      <trkpt lat="46.51755" lon="10.40646">
        <ele>2165.99</ele>
        <time>2012-08-02T14:54:47Z</time>
      </trkpt>
      <trkpt lat="46.5175" lon="10.40652">
        <ele>2165.99</ele>
        <time>2012-08-02T14:54:48Z</time>
      </trkpt>
      <trkpt lat="46.51745" lon="10.40662">
        <ele>2167.43</ele>
        <time>2012-08-02T14:54:49Z</time>
      </trkpt>
      <trkpt lat="46.51741" lon="10.40673">
        <ele>2167.91</ele>
        <time>2012-08-02T14:54:50Z</time>
      </trkpt>
      <trkpt lat="46.51721" lon="10.40709">
        <ele>2164.55</ele>
        <time>2012-08-02T14:54:52Z</time>
      </trkpt>
      <trkpt lat="46.51715" lon="10.4072">
        <ele>2164.55</ele>
        <time>2012-08-02T14:54:53Z</time>
      </trkpt>
      <trkpt lat="46.51705" lon="10.40736">
        <ele>2160.22</ele>
        <time>2012-08-02T14:54:54Z</time>
      </trkpt>
      <trkpt lat="46.51694" lon="10.40752">
        <ele>2158.3</ele>
        <time>2012-08-02T14:54:55Z</time>
      </trkpt>
      <trkpt lat="46.51682" lon="10.40764">
        <ele>2157.82</ele>
        <time>2012-08-02T14:54:56Z</time>
      </trkpt>
      <trkpt lat="46.51667" lon="10.4077">
        <ele>2157.34</ele>
        <time>2012-08-02T14:54:57Z</time>
      </trkpt>
      <trkpt lat="46.51651" lon="10.40773">
        <ele>2157.34</ele>
        <time>2012-08-02T14:54:58Z</time>
      </trkpt>
      <trkpt lat="46.51635" lon="10.40775">
        <ele>2156.37</ele>
        <time>2012-08-02T14:54:59Z</time>
      </trkpt>
      <trkpt lat="46.51603" lon="10.4078">
        <ele>2153.01</ele>
        <time>2012-08-02T14:55:01Z</time>
      </trkpt>
      <trkpt lat="46.51589" lon="10.40784">
        <ele>2150.61</ele>
        <time>2012-08-02T14:55:02Z</time>
      </trkpt>
      <trkpt lat="46.51576" lon="10.4079">
        <ele>2149.16</ele>
        <time>2012-08-02T14:55:03Z</time>
      </trkpt>
      <trkpt lat="46.51567" lon="10.40796">
        <ele>2146.76</ele>
        <time>2012-08-02T14:55:04Z</time>
      </trkpt>
      <trkpt lat="46.51553" lon="10.40807">
        <ele>2143.88</ele>
        <time>2012-08-02T14:55:06Z</time>
      </trkpt>
      <trkpt lat="46.51548" lon="10.40805">
        <ele>2143.88</ele>
        <time>2012-08-02T14:55:07Z</time>
      </trkpt>
      <trkpt lat="46.51547" lon="10.40799">
        <ele>2143.4</ele>
        <time>2012-08-02T14:55:08Z</time>
      </trkpt>
      <trkpt lat="46.5155" lon="10.40793">
        <ele>2142.92</ele>
        <time>2012-08-02T14:55:09Z</time>
      </trkpt>
      <trkpt lat="46.51558" lon="10.40788">
        <ele>2142.92</ele>
        <time>2012-08-02T14:55:10Z</time>
      </trkpt>
      <trkpt lat="46.51569" lon="10.40781">
        <ele>2143.4</ele>
        <time>2012-08-02T14:55:11Z</time>
      </trkpt>
      <trkpt lat="46.51581" lon="10.40772">
        <ele>2142.92</ele>
        <time>2012-08-02T14:55:12Z</time>
      </trkpt>
      <trkpt lat="46.5164" lon="10.40728">
        <ele>2139.07</ele>
        <time>2012-08-02T14:55:16Z</time>
      </trkpt>
      <trkpt lat="46.51651" lon="10.40716">
        <ele>2136.67</ele>
        <time>2012-08-02T14:55:17Z</time>
      </trkpt>
      <trkpt lat="46.5166" lon="10.40702">
        <ele>2134.74</ele>
        <time>2012-08-02T14:55:18Z</time>
      </trkpt>
      <trkpt lat="46.51687" lon="10.40662">
        <ele>2130.42</ele>
        <time>2012-08-02T14:55:21Z</time>
      </trkpt>
      <trkpt lat="46.51698" lon="10.40644">
        <ele>2128.5</ele>
        <time>2012-08-02T14:55:23Z</time>
      </trkpt>
      <trkpt lat="46.51698" lon="10.40638">
        <ele>2128.02</ele>
        <time>2012-08-02T14:55:24Z</time>
      </trkpt>
      <trkpt lat="46.51696" lon="10.40633">
        <ele>2128.02</ele>
        <time>2012-08-02T14:55:25Z</time>
      </trkpt>
      <trkpt lat="46.51692" lon="10.40628">
        <ele>2127.53</ele>
        <time>2012-08-02T14:55:27Z</time>
      </trkpt>
      <trkpt lat="46.51691" lon="10.40628">
        <ele>2127.53</ele>
        <time>2012-08-02T14:55:28Z</time>
      </trkpt>
      <trkpt lat="46.51691" lon="10.40629">
        <ele>2127.53</ele>
        <time>2012-08-02T14:55:39Z</time>
      </trkpt>
      <trkpt lat="46.51692" lon="10.40628">
        <ele>2127.05</ele>
        <time>2012-08-02T14:55:50Z</time>
      </trkpt>
      <trkpt lat="46.51692" lon="10.4063">
        <ele>2126.57</ele>
        <time>2012-08-02T14:55:51Z</time>
      </trkpt>
      <trkpt lat="46.51692" lon="10.40633">
        <ele>2126.09</ele>
        <time>2012-08-02T14:55:52Z</time>
      </trkpt>
      <trkpt lat="46.51697" lon="10.40637">
        <ele>2126.57</ele>
        <time>2012-08-02T14:55:54Z</time>
      </trkpt>
      <trkpt lat="46.517" lon="10.40635">
        <ele>2126.57</ele>
        <time>2012-08-02T14:55:55Z</time>
      </trkpt>
      <trkpt lat="46.51701" lon="10.40633">
        <ele>2127.53</ele>
        <time>2012-08-02T14:55:56Z</time>
      </trkpt>
      <trkpt lat="46.51701" lon="10.40631">
        <ele>2127.53</ele>
        <time>2012-08-02T14:55:57Z</time>
      </trkpt>
      <trkpt lat="46.517" lon="10.40629">
        <ele>2127.53</ele>
        <time>2012-08-02T14:56:07Z</time>
      </trkpt>
      <trkpt lat="46.517" lon="10.4063">
        <ele>2127.05</ele>
        <time>2012-08-02T14:56:35Z</time>
      </trkpt>
      <trkpt lat="46.51699" lon="10.40631">
        <ele>2126.09</ele>
        <time>2012-08-02T14:57:02Z</time>
      </trkpt>
      <trkpt lat="46.51699" lon="10.40632">
        <ele>2125.61</ele>
        <time>2012-08-02T14:57:39Z</time>
      </trkpt>
      <trkpt lat="46.51699" lon="10.40632">
        <ele>2124.65</ele>
        <time>2012-08-02T14:58:02Z</time>
      </trkpt>
      <trkpt lat="46.51688" lon="10.40639">
        <ele>2124.17</ele>
        <time>2012-08-02T14:58:11Z</time>
      </trkpt>
      <trkpt lat="46.51683" lon="10.40645">
        <ele>2124.17</ele>
        <time>2012-08-02T14:58:12Z</time>
      </trkpt>
      <trkpt lat="46.51668" lon="10.40663">
        <ele>2123.21</ele>
        <time>2012-08-02T14:58:14Z</time>
      </trkpt>
      <trkpt lat="46.51658" lon="10.40673">
        <ele>2123.21</ele>
        <time>2012-08-02T14:58:15Z</time>
      </trkpt>
      <trkpt lat="46.51646" lon="10.40683">
        <ele>2122.25</ele>
        <time>2012-08-02T14:58:16Z</time>
      </trkpt>
      <trkpt lat="46.51632" lon="10.40691">
        <ele>2121.29</ele>
        <time>2012-08-02T14:58:17Z</time>
      </trkpt>
      <trkpt lat="46.51616" lon="10.40696">
        <ele>2120.81</ele>
        <time>2012-08-02T14:58:18Z</time>
      </trkpt>
      <trkpt lat="46.516" lon="10.40699">
        <ele>2119.84</ele>
        <time>2012-08-02T14:58:19Z</time>
      </trkpt>
      <trkpt lat="46.51584" lon="10.40701">
        <ele>2118.4</ele>
        <time>2012-08-02T14:58:20Z</time>
      </trkpt>
      <trkpt lat="46.51568" lon="10.40704">
        <ele>2116.96</ele>
        <time>2012-08-02T14:58:21Z</time>
      </trkpt>
      <trkpt lat="46.51554" lon="10.40709">
        <ele>2115.52</ele>
        <time>2012-08-02T14:58:22Z</time>
      </trkpt>
      <trkpt lat="46.5154" lon="10.40715">
        <ele>2113.12</ele>
        <time>2012-08-02T14:58:23Z</time>
      </trkpt>
      <trkpt lat="46.51519" lon="10.40726">
        <ele>2109.27</ele>
        <time>2012-08-02T14:58:25Z</time>
      </trkpt>
      <trkpt lat="46.51512" lon="10.40729">
        <ele>2108.31</ele>
        <time>2012-08-02T14:58:26Z</time>
      </trkpt>
      <trkpt lat="46.51505" lon="10.40728">
        <ele>2107.35</ele>
        <time>2012-08-02T14:58:27Z</time>
      </trkpt>
      <trkpt lat="46.515" lon="10.40724">
        <ele>2106.87</ele>
        <time>2012-08-02T14:58:28Z</time>
      </trkpt>
      <trkpt lat="46.51496" lon="10.40722">
        <ele>2106.87</ele>
        <time>2012-08-02T14:58:29Z</time>
      </trkpt>
      <trkpt lat="46.51503" lon="10.40718">
        <ele>2104.94</ele>
        <time>2012-08-02T14:58:32Z</time>
      </trkpt>
      <trkpt lat="46.51522" lon="10.40707">
        <ele>2103.98</ele>
        <time>2012-08-02T14:58:39Z</time>
      </trkpt>
      <trkpt lat="46.51556" lon="10.40674">
        <ele>2103.5</ele>
        <time>2012-08-02T14:58:43Z</time>
      </trkpt>
      <trkpt lat="46.51598" lon="10.40638">
        <ele>2100.14</ele>
        <time>2012-08-02T14:58:46Z</time>
      </trkpt>
      <trkpt lat="46.51619" lon="10.40625">
        <ele>2096.29</ele>
        <time>2012-08-02T14:58:48Z</time>
      </trkpt>
      <trkpt lat="46.51627" lon="10.40619">
        <ele>2094.37</ele>
        <time>2012-08-02T14:58:49Z</time>
      </trkpt>
      <trkpt lat="46.51631" lon="10.40612">
        <ele>2094.37</ele>
        <time>2012-08-02T14:58:50Z</time>
      </trkpt>
      <trkpt lat="46.51632" lon="10.40605">
        <ele>2093.41</ele>
        <time>2012-08-02T14:58:51Z</time>
      </trkpt>
      <trkpt lat="46.51629" lon="10.40602">
        <ele>2093.41</ele>
        <time>2012-08-02T14:58:52Z</time>
      </trkpt>
      <trkpt lat="46.51623" lon="10.40604">
        <ele>2093.41</ele>
        <time>2012-08-02T14:58:53Z</time>
      </trkpt>
      <trkpt lat="46.51614" lon="10.40609">
        <ele>2093.89</ele>
        <time>2012-08-02T14:58:54Z</time>
      </trkpt>
      <trkpt lat="46.51605" lon="10.40615">
        <ele>2093.41</ele>
        <time>2012-08-02T14:58:55Z</time>
      </trkpt>
      <trkpt lat="46.51594" lon="10.40619">
        <ele>2093.41</ele>
        <time>2012-08-02T14:58:56Z</time>
      </trkpt>
      <trkpt lat="46.51582" lon="10.40624">
        <ele>2091.49</ele>
        <time>2012-08-02T14:58:57Z</time>
      </trkpt>
      <trkpt lat="46.51565" lon="10.40627">
        <ele>2089.08</ele>
        <time>2012-08-02T14:58:58Z</time>
      </trkpt>
      <trkpt lat="46.51553" lon="10.4063">
        <ele>2085.72</ele>
        <time>2012-08-02T14:58:59Z</time>
      </trkpt>
      <trkpt lat="46.51542" lon="10.40632">
        <ele>2084.76</ele>
        <time>2012-08-02T14:59:00Z</time>
      </trkpt>
      <trkpt lat="46.51535" lon="10.40629">
        <ele>2083.79</ele>
        <time>2012-08-02T14:59:01Z</time>
      </trkpt>
      <trkpt lat="46.5153" lon="10.40614">
        <ele>2083.79</ele>
        <time>2012-08-02T14:59:03Z</time>
      </trkpt>
      <trkpt lat="46.51535" lon="10.40607">
        <ele>2083.31</ele>
        <time>2012-08-02T14:59:04Z</time>
      </trkpt>
      <trkpt lat="46.51545" lon="10.40602">
        <ele>2083.31</ele>
        <time>2012-08-02T14:59:05Z</time>
      </trkpt>
      <trkpt lat="46.51558" lon="10.40595">
        <ele>2083.31</ele>
        <time>2012-08-02T14:59:06Z</time>
      </trkpt>
      <trkpt lat="46.5158" lon="10.40584">
        <ele>2078.99</ele>
        <time>2012-08-02T14:59:08Z</time>
      </trkpt>
      <trkpt lat="46.51586" lon="10.40578">
        <ele>2078.51</ele>
        <time>2012-08-02T14:59:09Z</time>
      </trkpt>
      <trkpt lat="46.51589" lon="10.40571">
        <ele>2077.55</ele>
        <time>2012-08-02T14:59:10Z</time>
      </trkpt>
      <trkpt lat="46.51588" lon="10.40565">
        <ele>2078.03</ele>
        <time>2012-08-02T14:59:11Z</time>
      </trkpt>
      <trkpt lat="46.51584" lon="10.40562">
        <ele>2078.03</ele>
        <time>2012-08-02T14:59:12Z</time>
      </trkpt>
      <trkpt lat="46.51576" lon="10.40564">
        <ele>2078.03</ele>
        <time>2012-08-02T14:59:13Z</time>
      </trkpt>
      <trkpt lat="46.51568" lon="10.40568">
        <ele>2077.55</ele>
        <time>2012-08-02T14:59:14Z</time>
      </trkpt>
      <trkpt lat="46.5156" lon="10.40571">
        <ele>2077.55</ele>
        <time>2012-08-02T14:59:15Z</time>
      </trkpt>
      <trkpt lat="46.5155" lon="10.40573">
        <ele>2077.07</ele>
        <time>2012-08-02T14:59:16Z</time>
      </trkpt>
      <trkpt lat="46.51538" lon="10.40569">
        <ele>2076.59</ele>
        <time>2012-08-02T14:59:17Z</time>
      </trkpt>
      <trkpt lat="46.51524" lon="10.40557">
        <ele>2074.66</ele>
        <time>2012-08-02T14:59:18Z</time>
      </trkpt>
      <trkpt lat="46.5151" lon="10.40537">
        <ele>2074.66</ele>
        <time>2012-08-02T14:59:19Z</time>
      </trkpt>
      <trkpt lat="46.51487" lon="10.40513">
        <ele>2073.22</ele>
        <time>2012-08-02T14:59:20Z</time>
      </trkpt>
      <trkpt lat="46.51457" lon="10.4047">
        <ele>2071.3</ele>
        <time>2012-08-02T14:59:22Z</time>
      </trkpt>
      <trkpt lat="46.51431" lon="10.40431">
        <ele>2066.97</ele>
        <time>2012-08-02T14:59:24Z</time>
      </trkpt>
      <trkpt lat="46.51408" lon="10.40397">
        <ele>2062.17</ele>
        <time>2012-08-02T14:59:26Z</time>
      </trkpt>
      <trkpt lat="46.5139" lon="10.40369">
        <ele>2059.28</ele>
        <time>2012-08-02T14:59:28Z</time>
      </trkpt>
      <trkpt lat="46.51381" lon="10.40357">
        <ele>2057.36</ele>
        <time>2012-08-02T14:59:29Z</time>
      </trkpt>
      <trkpt lat="46.51372" lon="10.40349">
        <ele>2055.92</ele>
        <time>2012-08-02T14:59:30Z</time>
      </trkpt>
      <trkpt lat="46.5136" lon="10.40336">
        <ele>2053.99</ele>
        <time>2012-08-02T14:59:32Z</time>
      </trkpt>
      <trkpt lat="46.51359" lon="10.40329">
        <ele>2053.51</ele>
        <time>2012-08-02T14:59:33Z</time>
      </trkpt>
      <trkpt lat="46.51361" lon="10.40324">
        <ele>2052.55</ele>
        <time>2012-08-02T14:59:34Z</time>
      </trkpt>
      <trkpt lat="46.51366" lon="10.40324">
        <ele>2052.55</ele>
        <time>2012-08-02T14:59:35Z</time>
      </trkpt>
      <trkpt lat="46.5137" lon="10.40329">
        <ele>2052.07</ele>
        <time>2012-08-02T14:59:36Z</time>
      </trkpt>
      <trkpt lat="46.51375" lon="10.40337">
        <ele>2052.07</ele>
        <time>2012-08-02T14:59:37Z</time>
      </trkpt>
      <trkpt lat="46.5138" lon="10.40347">
        <ele>2051.59</ele>
        <time>2012-08-02T14:59:38Z</time>
      </trkpt>
      <trkpt lat="46.51392" lon="10.40367">
        <ele>2050.63</ele>
        <time>2012-08-02T14:59:40Z</time>
      </trkpt>
      <trkpt lat="46.514" lon="10.40376">
        <ele>2050.63</ele>
        <time>2012-08-02T14:59:41Z</time>
      </trkpt>
      <trkpt lat="46.51411" lon="10.40385">
        <ele>2049.67</ele>
        <time>2012-08-02T14:59:42Z</time>
      </trkpt>
      <trkpt lat="46.51422" lon="10.40392">
        <ele>2049.67</ele>
        <time>2012-08-02T14:59:43Z</time>
      </trkpt>
      <trkpt lat="46.51434" lon="10.40399">
        <ele>2048.71</ele>
        <time>2012-08-02T14:59:44Z</time>
      </trkpt>
      <trkpt lat="46.51445" lon="10.40404">
        <ele>2048.23</ele>
        <time>2012-08-02T14:59:45Z</time>
      </trkpt>
      <trkpt lat="46.51461" lon="10.40413">
        <ele>2046.78</ele>
        <time>2012-08-02T14:59:47Z</time>
      </trkpt>
      <trkpt lat="46.51469" lon="10.40415">
        <ele>2046.3</ele>
        <time>2012-08-02T14:59:48Z</time>
      </trkpt>
      <trkpt lat="46.51475" lon="10.40414">
        <ele>2045.34</ele>
        <time>2012-08-02T14:59:49Z</time>
      </trkpt>
      <trkpt lat="46.51478" lon="10.40411">
        <ele>2045.34</ele>
        <time>2012-08-02T14:59:50Z</time>
      </trkpt>
      <trkpt lat="46.51468" lon="10.4039">
        <ele>2044.86</ele>
        <time>2012-08-02T14:59:54Z</time>
      </trkpt>
      <trkpt lat="46.51456" lon="10.40383">
        <ele>2043.9</ele>
        <time>2012-08-02T14:59:55Z</time>
      </trkpt>
      <trkpt lat="46.5144" lon="10.40369">
        <ele>2042.94</ele>
        <time>2012-08-02T14:59:56Z</time>
      </trkpt>
      <trkpt lat="46.51427" lon="10.40355">
        <ele>2041.02</ele>
        <time>2012-08-02T14:59:57Z</time>
      </trkpt>
      <trkpt lat="46.51418" lon="10.40338">
        <ele>2040.54</ele>
        <time>2012-08-02T14:59:58Z</time>
      </trkpt>
      <trkpt lat="46.5141" lon="10.4032">
        <ele>2039.09</ele>
        <time>2012-08-02T14:59:59Z</time>
      </trkpt>
      <trkpt lat="46.51403" lon="10.40303">
        <ele>2038.13</ele>
        <time>2012-08-02T15:00:00Z</time>
      </trkpt>
      <trkpt lat="46.51395" lon="10.40287">
        <ele>2036.21</ele>
        <time>2012-08-02T15:00:01Z</time>
      </trkpt>
      <trkpt lat="46.51386" lon="10.40273">
        <ele>2035.25</ele>
        <time>2012-08-02T15:00:02Z</time>
      </trkpt>
      <trkpt lat="46.51376" lon="10.40261">
        <ele>2034.77</ele>
        <time>2012-08-02T15:00:03Z</time>
      </trkpt>
      <trkpt lat="46.51365" lon="10.40251">
        <ele>2033.81</ele>
        <time>2012-08-02T15:00:04Z</time>
      </trkpt>
      <trkpt lat="46.5133" lon="10.40219">
        <ele>2030.44</ele>
        <time>2012-08-02T15:00:08Z</time>
      </trkpt>
      <trkpt lat="46.51326" lon="10.40213">
        <ele>2029.48</ele>
        <time>2012-08-02T15:00:09Z</time>
      </trkpt>
      <trkpt lat="46.51326" lon="10.40207">
        <ele>2028.52</ele>
        <time>2012-08-02T15:00:10Z</time>
      </trkpt>
      <trkpt lat="46.5133" lon="10.40204">
        <ele>2028.52</ele>
        <time>2012-08-02T15:00:11Z</time>
      </trkpt>
      <trkpt lat="46.51336" lon="10.40204">
        <ele>2029</ele>
        <time>2012-08-02T15:00:12Z</time>
      </trkpt>
      <trkpt lat="46.51343" lon="10.40209">
        <ele>2028.52</ele>
        <time>2012-08-02T15:00:13Z</time>
      </trkpt>
      <trkpt lat="46.51351" lon="10.40218">
        <ele>2029</ele>
        <time>2012-08-02T15:00:14Z</time>
      </trkpt>
      <trkpt lat="46.51399" lon="10.40262">
        <ele>2025.64</ele>
        <time>2012-08-02T15:00:18Z</time>
      </trkpt>
      <trkpt lat="46.51411" lon="10.40271">
        <ele>2023.71</ele>
        <time>2012-08-02T15:00:19Z</time>
      </trkpt>
      <trkpt lat="46.51423" lon="10.40278">
        <ele>2021.79</ele>
        <time>2012-08-02T15:00:20Z</time>
      </trkpt>
      <trkpt lat="46.51432" lon="10.40282">
        <ele>2019.87</ele>
        <time>2012-08-02T15:00:21Z</time>
      </trkpt>
      <trkpt lat="46.5144" lon="10.40283">
        <ele>2018.43</ele>
        <time>2012-08-02T15:00:22Z</time>
      </trkpt>
      <trkpt lat="46.51447" lon="10.40282">
        <ele>2017.94</ele>
        <time>2012-08-02T15:00:23Z</time>
      </trkpt>
      <trkpt lat="46.51453" lon="10.40281">
        <ele>2017.46</ele>
        <time>2012-08-02T15:00:24Z</time>
      </trkpt>
      <trkpt lat="46.51458" lon="10.40276">
        <ele>2017.94</ele>
        <time>2012-08-02T15:00:26Z</time>
      </trkpt>
      <trkpt lat="46.5146" lon="10.40274">
        <ele>2017.46</ele>
        <time>2012-08-02T15:00:27Z</time>
      </trkpt>
      <trkpt lat="46.5147" lon="10.40238">
        <ele>2015.54</ele>
        <time>2012-08-02T15:00:30Z</time>
      </trkpt>
      <trkpt lat="46.51472" lon="10.40223">
        <ele>2012.66</ele>
        <time>2012-08-02T15:00:31Z</time>
      </trkpt>
      <trkpt lat="46.5147" lon="10.40204">
        <ele>2010.73</ele>
        <time>2012-08-02T15:00:32Z</time>
      </trkpt>
      <trkpt lat="46.51471" lon="10.40196">
        <ele>2007.37</ele>
        <time>2012-08-02T15:00:33Z</time>
      </trkpt>
      <trkpt lat="46.5147" lon="10.4018">
        <ele>2004.01</ele>
        <time>2012-08-02T15:00:34Z</time>
      </trkpt>
      <trkpt lat="46.51469" lon="10.40154">
        <ele>2002.08</ele>
        <time>2012-08-02T15:00:35Z</time>
      </trkpt>
      <trkpt lat="46.51448" lon="10.40098">
        <ele>1998.72</ele>
        <time>2012-08-02T15:00:36Z</time>
      </trkpt>
      <trkpt lat="46.51446" lon="10.40081">
        <ele>1997.76</ele>
        <time>2012-08-02T15:00:37Z</time>
      </trkpt>
      <trkpt lat="46.51406" lon="10.4001">
        <ele>1992.95</ele>
        <time>2012-08-02T15:00:38Z</time>
      </trkpt>
      <trkpt lat="46.51402" lon="10.39999">
        <ele>1992.95</ele>
        <time>2012-08-02T15:00:39Z</time>
      </trkpt>
      <trkpt lat="46.51366" lon="10.39957">
        <ele>1990.07</ele>
        <time>2012-08-02T15:00:40Z</time>
      </trkpt>
      <trkpt lat="46.51354" lon="10.3993">
        <ele>1986.22</ele>
        <time>2012-08-02T15:00:41Z</time>
      </trkpt>
      <trkpt lat="46.51341" lon="10.39905">
        <ele>1983.34</ele>
        <time>2012-08-02T15:00:42Z</time>
      </trkpt>
      <trkpt lat="46.51326" lon="10.3988">
        <ele>1981.41</ele>
        <time>2012-08-02T15:00:43Z</time>
      </trkpt>
      <trkpt lat="46.51299" lon="10.39854">
        <ele>1980.45</ele>
        <time>2012-08-02T15:00:44Z</time>
      </trkpt>
      <trkpt lat="46.51278" lon="10.39833">
        <ele>1979.97</ele>
        <time>2012-08-02T15:00:45Z</time>
      </trkpt>
      <trkpt lat="46.51269" lon="10.39823">
        <ele>1976.61</ele>
        <time>2012-08-02T15:00:46Z</time>
      </trkpt>
      <trkpt lat="46.51237" lon="10.39789">
        <ele>1975.17</ele>
        <time>2012-08-02T15:00:47Z</time>
      </trkpt>
      <trkpt lat="46.51221" lon="10.39762">
        <ele>1973.72</ele>
        <time>2012-08-02T15:00:48Z</time>
      </trkpt>
      <trkpt lat="46.51194" lon="10.39711">
        <ele>1966.99</ele>
        <time>2012-08-02T15:00:50Z</time>
      </trkpt>
      <trkpt lat="46.51177" lon="10.39685">
        <ele>1964.11</ele>
        <time>2012-08-02T15:00:51Z</time>
      </trkpt>
      <trkpt lat="46.51166" lon="10.39666">
        <ele>1963.63</ele>
        <time>2012-08-02T15:00:52Z</time>
      </trkpt>
      <trkpt lat="46.51151" lon="10.39648">
        <ele>1963.63</ele>
        <time>2012-08-02T15:00:53Z</time>
      </trkpt>
      <trkpt lat="46.51134" lon="10.39632">
        <ele>1961.23</ele>
        <time>2012-08-02T15:00:54Z</time>
      </trkpt>
      <trkpt lat="46.51118" lon="10.39615">
        <ele>1958.34</ele>
        <time>2012-08-02T15:00:55Z</time>
      </trkpt>
      <trkpt lat="46.51107" lon="10.39604">
        <ele>1956.9</ele>
        <time>2012-08-02T15:00:56Z</time>
      </trkpt>
      <trkpt lat="46.51095" lon="10.3959">
        <ele>1954.02</ele>
        <time>2012-08-02T15:00:57Z</time>
      </trkpt>
      <trkpt lat="46.51038" lon="10.39485">
        <ele>1948.73</ele>
        <time>2012-08-02T15:01:03Z</time>
      </trkpt>
      <trkpt lat="46.51024" lon="10.39439">
        <ele>1945.36</ele>
        <time>2012-08-02T15:01:05Z</time>
      </trkpt>
      <trkpt lat="46.51004" lon="10.39345">
        <ele>1944.88</ele>
        <time>2012-08-02T15:01:08Z</time>
      </trkpt>
      <trkpt lat="46.50999" lon="10.39315">
        <ele>1942.96</ele>
        <time>2012-08-02T15:01:09Z</time>
      </trkpt>
      <trkpt lat="46.50996" lon="10.39285">
        <ele>1940.56</ele>
        <time>2012-08-02T15:01:10Z</time>
      </trkpt>
      <trkpt lat="46.5099" lon="10.39233">
        <ele>1936.23</ele>
        <time>2012-08-02T15:01:12Z</time>
      </trkpt>
      <trkpt lat="46.50983" lon="10.39209">
        <ele>1933.35</ele>
        <time>2012-08-02T15:01:13Z</time>
      </trkpt>
      <trkpt lat="46.50978" lon="10.39187">
        <ele>1930.46</ele>
        <time>2012-08-02T15:01:14Z</time>
      </trkpt>
      <trkpt lat="46.50976" lon="10.39164">
        <ele>1929.02</ele>
        <time>2012-08-02T15:01:15Z</time>
      </trkpt>
      <trkpt lat="46.5097" lon="10.39141">
        <ele>1927.58</ele>
        <time>2012-08-02T15:01:16Z</time>
      </trkpt>
      <trkpt lat="46.50962" lon="10.39119">
        <ele>1927.1</ele>
        <time>2012-08-02T15:01:17Z</time>
      </trkpt>
      <trkpt lat="46.50954" lon="10.39097">
        <ele>1924.22</ele>
        <time>2012-08-02T15:01:18Z</time>
      </trkpt>
      <trkpt lat="46.50939" lon="10.39053">
        <ele>1919.89</ele>
        <time>2012-08-02T15:01:20Z</time>
      </trkpt>
      <trkpt lat="46.50942" lon="10.39059">
        <ele>1917.97</ele>
        <time>2012-08-02T15:01:21Z</time>
      </trkpt>
      <trkpt lat="46.50945" lon="10.39053">
        <ele>1916.04</ele>
        <time>2012-08-02T15:01:26Z</time>
      </trkpt>
      <trkpt lat="46.50957" lon="10.38869">
        <ele>1914.12</ele>
        <time>2012-08-02T15:01:31Z</time>
      </trkpt>
      <trkpt lat="46.50961" lon="10.38812">
        <ele>1910.28</ele>
        <time>2012-08-02T15:01:33Z</time>
      </trkpt>
      <trkpt lat="46.50955" lon="10.3876">
        <ele>1905.47</ele>
        <time>2012-08-02T15:01:35Z</time>
      </trkpt>
      <trkpt lat="46.50948" lon="10.38722">
        <ele>1901.14</ele>
        <time>2012-08-02T15:01:37Z</time>
      </trkpt>
      <trkpt lat="46.50945" lon="10.38685">
        <ele>1897.78</ele>
        <time>2012-08-02T15:01:39Z</time>
      </trkpt>
      <trkpt lat="46.50939" lon="10.38626">
        <ele>1893.45</ele>
        <time>2012-08-02T15:01:42Z</time>
      </trkpt>
      <trkpt lat="46.5092" lon="10.38628">
        <ele>1893.45</ele>
        <time>2012-08-02T15:01:43Z</time>
      </trkpt>
      <trkpt lat="46.5092" lon="10.38627">
        <ele>1890.09</ele>
        <time>2012-08-02T15:01:45Z</time>
      </trkpt>
      <trkpt lat="46.50958" lon="10.38545">
        <ele>1889.13</ele>
        <time>2012-08-02T15:01:46Z</time>
      </trkpt>
      <trkpt lat="46.50963" lon="10.38528">
        <ele>1889.61</ele>
        <time>2012-08-02T15:01:47Z</time>
      </trkpt>
      <trkpt lat="46.50955" lon="10.38501">
        <ele>1888.17</ele>
        <time>2012-08-02T15:01:48Z</time>
      </trkpt>
      <trkpt lat="46.50949" lon="10.38475">
        <ele>1887.21</ele>
        <time>2012-08-02T15:01:49Z</time>
      </trkpt>
      <trkpt lat="46.50944" lon="10.38452">
        <ele>1886.24</ele>
        <time>2012-08-02T15:01:50Z</time>
      </trkpt>
      <trkpt lat="46.5094" lon="10.3843">
        <ele>1884.32</ele>
        <time>2012-08-02T15:01:51Z</time>
      </trkpt>
      <trkpt lat="46.50934" lon="10.3841">
        <ele>1882.4</ele>
        <time>2012-08-02T15:01:52Z</time>
      </trkpt>
      <trkpt lat="46.50927" lon="10.38391">
        <ele>1879.51</ele>
        <time>2012-08-02T15:01:53Z</time>
      </trkpt>
      <trkpt lat="46.50909" lon="10.38354">
        <ele>1876.63</ele>
        <time>2012-08-02T15:01:56Z</time>
      </trkpt>
      <trkpt lat="46.50911" lon="10.38347">
        <ele>1875.19</ele>
        <time>2012-08-02T15:02:01Z</time>
      </trkpt>
      <trkpt lat="46.50911" lon="10.38345">
        <ele>1871.82</ele>
        <time>2012-08-02T15:02:04Z</time>
      </trkpt>
      <trkpt lat="46.50946" lon="10.3814">
        <ele>1868.94</ele>
        <time>2012-08-02T15:02:06Z</time>
      </trkpt>
      <trkpt lat="46.50956" lon="10.38085">
        <ele>1863.65</ele>
        <time>2012-08-02T15:02:09Z</time>
      </trkpt>
      <trkpt lat="46.5096" lon="10.38054">
        <ele>1862.21</ele>
        <time>2012-08-02T15:02:11Z</time>
      </trkpt>
      <trkpt lat="46.50963" lon="10.38019">
        <ele>1858.37</ele>
        <time>2012-08-02T15:02:13Z</time>
      </trkpt>
      <trkpt lat="46.50962" lon="10.37975">
        <ele>1856.44</ele>
        <time>2012-08-02T15:02:15Z</time>
      </trkpt>
      <trkpt lat="46.50963" lon="10.37961">
        <ele>1853.08</ele>
        <time>2012-08-02T15:02:17Z</time>
      </trkpt>
      <trkpt lat="46.50963" lon="10.37952">
        <ele>1850.19</ele>
        <time>2012-08-02T15:02:23Z</time>
      </trkpt>
      <trkpt lat="46.50963" lon="10.37951">
        <ele>1846.83</ele>
        <time>2012-08-02T15:02:28Z</time>
      </trkpt>
      <trkpt lat="46.50963" lon="10.37946">
        <ele>1845.39</ele>
        <time>2012-08-02T15:02:29Z</time>
      </trkpt>
      <trkpt lat="46.50964" lon="10.37952">
        <ele>1842.98</ele>
        <time>2012-08-02T15:02:30Z</time>
      </trkpt>
      <trkpt lat="46.50965" lon="10.37945">
        <ele>1841.54</ele>
        <time>2012-08-02T15:02:31Z</time>
      </trkpt>
      <trkpt lat="46.50965" lon="10.37947">
        <ele>1839.62</ele>
        <time>2012-08-02T15:02:32Z</time>
      </trkpt>
      <trkpt lat="46.50983" lon="10.37608">
        <ele>1837.7</ele>
        <time>2012-08-02T15:02:33Z</time>
      </trkpt>
      <trkpt lat="46.50982" lon="10.37577">
        <ele>1835.77</ele>
        <time>2012-08-02T15:02:35Z</time>
      </trkpt>
      <trkpt lat="46.50963" lon="10.37528">
        <ele>1832.41</ele>
        <time>2012-08-02T15:02:38Z</time>
      </trkpt>
      <trkpt lat="46.50959" lon="10.37519">
        <ele>1830.49</ele>
        <time>2012-08-02T15:02:39Z</time>
      </trkpt>
      <trkpt lat="46.50952" lon="10.3751">
        <ele>1829.53</ele>
        <time>2012-08-02T15:02:40Z</time>
      </trkpt>
      <trkpt lat="46.50949" lon="10.37505">
        <ele>1828.56</ele>
        <time>2012-08-02T15:02:41Z</time>
      </trkpt>
      <trkpt lat="46.50953" lon="10.37497">
        <ele>1827.12</ele>
        <time>2012-08-02T15:02:43Z</time>
      </trkpt>
      <trkpt lat="46.50956" lon="10.37496">
        <ele>1827.12</ele>
        <time>2012-08-02T15:02:44Z</time>
      </trkpt>
      <trkpt lat="46.50959" lon="10.37497">
        <ele>1827.12</ele>
        <time>2012-08-02T15:02:45Z</time>
      </trkpt>
      <trkpt lat="46.5096" lon="10.375">
        <ele>1828.08</ele>
        <time>2012-08-02T15:02:46Z</time>
      </trkpt>
      <trkpt lat="46.5096" lon="10.37499">
        <ele>1826.64</ele>
        <time>2012-08-02T15:02:47Z</time>
      </trkpt>
      <trkpt lat="46.50964" lon="10.37501">
        <ele>1825.2</ele>
        <time>2012-08-02T15:02:49Z</time>
      </trkpt>
      <trkpt lat="46.50966" lon="10.37505">
        <ele>1824.72</ele>
        <time>2012-08-02T15:02:50Z</time>
      </trkpt>
      <trkpt lat="46.50967" lon="10.37521">
        <ele>1822.32</ele>
        <time>2012-08-02T15:02:51Z</time>
      </trkpt>
      <trkpt lat="46.50972" lon="10.3754">
        <ele>1821.35</ele>
        <time>2012-08-02T15:02:52Z</time>
      </trkpt>
      <trkpt lat="46.50979" lon="10.37556">
        <ele>1820.87</ele>
        <time>2012-08-02T15:02:53Z</time>
      </trkpt>
      <trkpt lat="46.50985" lon="10.37564">
        <ele>1819.43</ele>
        <time>2012-08-02T15:02:54Z</time>
      </trkpt>
      <trkpt lat="46.50994" lon="10.3757">
        <ele>1819.91</ele>
        <time>2012-08-02T15:02:55Z</time>
      </trkpt>
      <trkpt lat="46.50999" lon="10.37569">
        <ele>1819.43</ele>
        <time>2012-08-02T15:02:56Z</time>
      </trkpt>
      <trkpt lat="46.51009" lon="10.37572">
        <ele>1819.43</ele>
        <time>2012-08-02T15:02:58Z</time>
      </trkpt>
      <trkpt lat="46.51017" lon="10.37571">
        <ele>1817.03</ele>
        <time>2012-08-02T15:03:00Z</time>
      </trkpt>
      <trkpt lat="46.51016" lon="10.37567">
        <ele>1815.59</ele>
        <time>2012-08-02T15:03:01Z</time>
      </trkpt>
      <trkpt lat="46.51017" lon="10.37569">
        <ele>1814.15</ele>
        <time>2012-08-02T15:03:02Z</time>
      </trkpt>
      <trkpt lat="46.51011" lon="10.37557">
        <ele>1812.7</ele>
        <time>2012-08-02T15:03:03Z</time>
      </trkpt>
      <trkpt lat="46.51009" lon="10.37548">
        <ele>1812.22</ele>
        <time>2012-08-02T15:03:04Z</time>
      </trkpt>
      <trkpt lat="46.51011" lon="10.37543">
        <ele>1811.74</ele>
        <time>2012-08-02T15:03:05Z</time>
      </trkpt>
      <trkpt lat="46.51014" lon="10.37542">
        <ele>1812.7</ele>
        <time>2012-08-02T15:03:06Z</time>
      </trkpt>
      <trkpt lat="46.51015" lon="10.37544">
        <ele>1812.7</ele>
        <time>2012-08-02T15:03:07Z</time>
      </trkpt>
      <trkpt lat="46.51017" lon="10.37548">
        <ele>1812.7</ele>
        <time>2012-08-02T15:03:08Z</time>
      </trkpt>
      <trkpt lat="46.51019" lon="10.37554">
        <ele>1812.22</ele>
        <time>2012-08-02T15:03:09Z</time>
      </trkpt>
      <trkpt lat="46.5102" lon="10.37561">
        <ele>1811.74</ele>
        <time>2012-08-02T15:03:10Z</time>
      </trkpt>
      <trkpt lat="46.51023" lon="10.37582">
        <ele>1808.38</ele>
        <time>2012-08-02T15:03:12Z</time>
      </trkpt>
      <trkpt lat="46.51027" lon="10.37596">
        <ele>1806.94</ele>
        <time>2012-08-02T15:03:13Z</time>
      </trkpt>
      <trkpt lat="46.51031" lon="10.37607">
        <ele>1805.97</ele>
        <time>2012-08-02T15:03:14Z</time>
      </trkpt>
      <trkpt lat="46.51037" lon="10.37612">
        <ele>1805.01</ele>
        <time>2012-08-02T15:03:15Z</time>
      </trkpt>
      <trkpt lat="46.51042" lon="10.37615">
        <ele>1805.01</ele>
        <time>2012-08-02T15:03:16Z</time>
      </trkpt>
      <trkpt lat="46.51054" lon="10.37616">
        <ele>1805.01</ele>
        <time>2012-08-02T15:03:18Z</time>
      </trkpt>
      <trkpt lat="46.51057" lon="10.37615">
        <ele>1804.53</ele>
        <time>2012-08-02T15:03:19Z</time>
      </trkpt>
      <trkpt lat="46.51061" lon="10.37616">
        <ele>1804.05</ele>
        <time>2012-08-02T15:03:20Z</time>
      </trkpt>
      <trkpt lat="46.51067" lon="10.37614">
        <ele>1803.09</ele>
        <time>2012-08-02T15:03:21Z</time>
      </trkpt>
      <trkpt lat="46.51082" lon="10.37609">
        <ele>1801.65</ele>
        <time>2012-08-02T15:03:23Z</time>
      </trkpt>
      <trkpt lat="46.51086" lon="10.3761">
        <ele>1801.17</ele>
        <time>2012-08-02T15:03:24Z</time>
      </trkpt>
      <trkpt lat="46.51007" lon="10.37486">
        <ele>1798.28</ele>
        <time>2012-08-02T15:03:26Z</time>
      </trkpt>
      <trkpt lat="46.5099" lon="10.37447">
        <ele>1793.48</ele>
        <time>2012-08-02T15:03:28Z</time>
      </trkpt>
      <trkpt lat="46.50982" lon="10.37427">
        <ele>1791.55</ele>
        <time>2012-08-02T15:03:29Z</time>
      </trkpt>
      <trkpt lat="46.50976" lon="10.37406">
        <ele>1791.55</ele>
        <time>2012-08-02T15:03:30Z</time>
      </trkpt>
      <trkpt lat="46.50973" lon="10.37385">
        <ele>1789.63</ele>
        <time>2012-08-02T15:03:31Z</time>
      </trkpt>
      <trkpt lat="46.5097" lon="10.37363">
        <ele>1788.67</ele>
        <time>2012-08-02T15:03:32Z</time>
      </trkpt>
      <trkpt lat="46.50966" lon="10.37321">
        <ele>1784.34</ele>
        <time>2012-08-02T15:03:34Z</time>
      </trkpt>
      <trkpt lat="46.50965" lon="10.373">
        <ele>1782.9</ele>
        <time>2012-08-02T15:03:35Z</time>
      </trkpt>
      <trkpt lat="46.50965" lon="10.37263">
        <ele>1779.54</ele>
        <time>2012-08-02T15:03:37Z</time>
      </trkpt>
      <trkpt lat="46.50963" lon="10.37249">
        <ele>1779.06</ele>
        <time>2012-08-02T15:03:38Z</time>
      </trkpt>
      <trkpt lat="46.5096" lon="10.37238">
        <ele>1777.61</ele>
        <time>2012-08-02T15:03:39Z</time>
      </trkpt>
      <trkpt lat="46.50956" lon="10.37229">
        <ele>1776.65</ele>
        <time>2012-08-02T15:03:40Z</time>
      </trkpt>
      <trkpt lat="46.50951" lon="10.37223">
        <ele>1775.21</ele>
        <time>2012-08-02T15:03:41Z</time>
      </trkpt>
      <trkpt lat="46.50947" lon="10.37217">
        <ele>1774.73</ele>
        <time>2012-08-02T15:03:42Z</time>
      </trkpt>
      <trkpt lat="46.50943" lon="10.37215">
        <ele>1774.25</ele>
        <time>2012-08-02T15:03:43Z</time>
      </trkpt>
      <trkpt lat="46.5094" lon="10.37213">
        <ele>1773.29</ele>
        <time>2012-08-02T15:03:44Z</time>
      </trkpt>
      <trkpt lat="46.50933" lon="10.37205">
        <ele>1772.81</ele>
        <time>2012-08-02T15:03:53Z</time>
      </trkpt>
      <trkpt lat="46.50933" lon="10.37204">
        <ele>1771.85</ele>
        <time>2012-08-02T15:04:14Z</time>
      </trkpt>
      <trkpt lat="46.50933" lon="10.37208">
        <ele>1770.89</ele>
        <time>2012-08-02T15:04:47Z</time>
      </trkpt>
      <trkpt lat="46.50932" lon="10.37205">
        <ele>1769.92</ele>
        <time>2012-08-02T15:05:01Z</time>
      </trkpt>
      <trkpt lat="46.50932" lon="10.37202">
        <ele>1770.41</ele>
        <time>2012-08-02T15:05:02Z</time>
      </trkpt>
      <trkpt lat="46.5093" lon="10.37196">
        <ele>1770.41</ele>
        <time>2012-08-02T15:05:03Z</time>
      </trkpt>
      <trkpt lat="46.50895" lon="10.37145">
        <ele>1768.96</ele>
        <time>2012-08-02T15:05:08Z</time>
      </trkpt>
      <trkpt lat="46.50883" lon="10.37136">
        <ele>1768.48</ele>
        <time>2012-08-02T15:05:09Z</time>
      </trkpt>
      <trkpt lat="46.50869" lon="10.37129">
        <ele>1767.04</ele>
        <time>2012-08-02T15:05:10Z</time>
      </trkpt>
      <trkpt lat="46.50829" lon="10.37114">
        <ele>1763.2</ele>
        <time>2012-08-02T15:05:13Z</time>
      </trkpt>
      <trkpt lat="46.50823" lon="10.37107">
        <ele>1758.87</ele>
        <time>2012-08-02T15:05:15Z</time>
      </trkpt>
      <trkpt lat="46.50815" lon="10.37104">
        <ele>1755.02</ele>
        <time>2012-08-02T15:05:22Z</time>
      </trkpt>
      <trkpt lat="46.50813" lon="10.37103">
        <ele>1753.58</ele>
        <time>2012-08-02T15:05:24Z</time>
      </trkpt>
      <trkpt lat="46.50812" lon="10.371">
        <ele>1753.58</ele>
        <time>2012-08-02T15:05:26Z</time>
      </trkpt>
      <trkpt lat="46.5074" lon="10.36922">
        <ele>1751.66</ele>
        <time>2012-08-02T15:05:28Z</time>
      </trkpt>
      <trkpt lat="46.50745" lon="10.36877">
        <ele>1749.26</ele>
        <time>2012-08-02T15:05:30Z</time>
      </trkpt>
      <trkpt lat="46.50745" lon="10.36854">
        <ele>1747.33</ele>
        <time>2012-08-02T15:05:31Z</time>
      </trkpt>
      <trkpt lat="46.5075" lon="10.36828">
        <ele>1745.89</ele>
        <time>2012-08-02T15:05:32Z</time>
      </trkpt>
      <trkpt lat="46.50757" lon="10.36786">
        <ele>1741.08</ele>
        <time>2012-08-02T15:05:34Z</time>
      </trkpt>
      <trkpt lat="46.50757" lon="10.36768">
        <ele>1740.12</ele>
        <time>2012-08-02T15:05:35Z</time>
      </trkpt>
      <trkpt lat="46.50753" lon="10.36749">
        <ele>1739.16</ele>
        <time>2012-08-02T15:05:36Z</time>
      </trkpt>
      <trkpt lat="46.50746" lon="10.36729">
        <ele>1739.16</ele>
        <time>2012-08-02T15:05:37Z</time>
      </trkpt>
      <trkpt lat="46.50721" lon="10.36668">
        <ele>1734.36</ele>
        <time>2012-08-02T15:05:40Z</time>
      </trkpt>
      <trkpt lat="46.50706" lon="10.36628">
        <ele>1731.47</ele>
        <time>2012-08-02T15:05:42Z</time>
      </trkpt>
      <trkpt lat="46.50698" lon="10.3661">
        <ele>1729.07</ele>
        <time>2012-08-02T15:05:43Z</time>
      </trkpt>
      <trkpt lat="46.50689" lon="10.36597">
        <ele>1726.67</ele>
        <time>2012-08-02T15:05:44Z</time>
      </trkpt>
      <trkpt lat="46.5068" lon="10.36586">
        <ele>1724.74</ele>
        <time>2012-08-02T15:05:45Z</time>
      </trkpt>
      <trkpt lat="46.50674" lon="10.36579">
        <ele>1723.3</ele>
        <time>2012-08-02T15:05:46Z</time>
      </trkpt>
      <trkpt lat="46.50672" lon="10.36572">
        <ele>1722.34</ele>
        <time>2012-08-02T15:05:47Z</time>
      </trkpt>
      <trkpt lat="46.50673" lon="10.36567">
        <ele>1721.38</ele>
        <time>2012-08-02T15:05:48Z</time>
      </trkpt>
      <trkpt lat="46.50675" lon="10.36561">
        <ele>1721.38</ele>
        <time>2012-08-02T15:05:49Z</time>
      </trkpt>
      <trkpt lat="46.50677" lon="10.3656">
        <ele>1721.86</ele>
        <time>2012-08-02T15:05:52Z</time>
      </trkpt>
      <trkpt lat="46.50691" lon="10.36568">
        <ele>1719.94</ele>
        <time>2012-08-02T15:05:55Z</time>
      </trkpt>
      <trkpt lat="46.50698" lon="10.36574">
        <ele>1718.49</ele>
        <time>2012-08-02T15:05:56Z</time>
      </trkpt>
      <trkpt lat="46.50704" lon="10.36582">
        <ele>1716.09</ele>
        <time>2012-08-02T15:05:57Z</time>
      </trkpt>
      <trkpt lat="46.50714" lon="10.36599">
        <ele>1714.65</ele>
        <time>2012-08-02T15:05:58Z</time>
      </trkpt>
      <trkpt lat="46.50725" lon="10.36616">
        <ele>1713.69</ele>
        <time>2012-08-02T15:05:59Z</time>
      </trkpt>
      <trkpt lat="46.50735" lon="10.36626">
        <ele>1712.73</ele>
        <time>2012-08-02T15:06:00Z</time>
      </trkpt>
      <trkpt lat="46.50745" lon="10.36631">
        <ele>1713.21</ele>
        <time>2012-08-02T15:06:01Z</time>
      </trkpt>
      <trkpt lat="46.50751" lon="10.36633">
        <ele>1712.73</ele>
        <time>2012-08-02T15:06:02Z</time>
      </trkpt>
      <trkpt lat="46.50753" lon="10.36633">
        <ele>1712.73</ele>
        <time>2012-08-02T15:06:03Z</time>
      </trkpt>
      <trkpt lat="46.50751" lon="10.36632">
        <ele>1712.73</ele>
        <time>2012-08-02T15:06:05Z</time>
      </trkpt>
      <trkpt lat="46.50749" lon="10.36632">
        <ele>1712.25</ele>
        <time>2012-08-02T15:06:06Z</time>
      </trkpt>
      <trkpt lat="46.50747" lon="10.36629">
        <ele>1710.8</ele>
        <time>2012-08-02T15:06:07Z</time>
      </trkpt>
      <trkpt lat="46.50704" lon="10.36566">
        <ele>1709.84</ele>
        <time>2012-08-02T15:06:09Z</time>
      </trkpt>
      <trkpt lat="46.50682" lon="10.36518">
        <ele>1706</ele>
        <time>2012-08-02T15:06:11Z</time>
      </trkpt>
      <trkpt lat="46.5067" lon="10.36496">
        <ele>1702.15</ele>
        <time>2012-08-02T15:06:12Z</time>
      </trkpt>
      <trkpt lat="46.5065" lon="10.3646">
        <ele>1699.27</ele>
        <time>2012-08-02T15:06:14Z</time>
      </trkpt>
      <trkpt lat="46.50632" lon="10.36432">
        <ele>1696.86</ele>
        <time>2012-08-02T15:06:15Z</time>
      </trkpt>
      <trkpt lat="46.50623" lon="10.36407">
        <ele>1696.86</ele>
        <time>2012-08-02T15:06:16Z</time>
      </trkpt>
      <trkpt lat="46.50605" lon="10.36353">
        <ele>1691.58</ele>
        <time>2012-08-02T15:06:18Z</time>
      </trkpt>
      <trkpt lat="46.50588" lon="10.363">
        <ele>1686.77</ele>
        <time>2012-08-02T15:06:20Z</time>
      </trkpt>
      <trkpt lat="46.50574" lon="10.36255">
        <ele>1682.93</ele>
        <time>2012-08-02T15:06:22Z</time>
      </trkpt>
      <trkpt lat="46.5056" lon="10.36211">
        <ele>1679.08</ele>
        <time>2012-08-02T15:06:24Z</time>
      </trkpt>
      <trkpt lat="46.50529" lon="10.36148">
        <ele>1676.2</ele>
        <time>2012-08-02T15:06:27Z</time>
      </trkpt>
      <trkpt lat="46.50506" lon="10.36105">
        <ele>1671.87</ele>
        <time>2012-08-02T15:06:29Z</time>
      </trkpt>
      <trkpt lat="46.50485" lon="10.36069">
        <ele>1667.54</ele>
        <time>2012-08-02T15:06:31Z</time>
      </trkpt>
      <trkpt lat="46.50476" lon="10.36053">
        <ele>1665.62</ele>
        <time>2012-08-02T15:06:32Z</time>
      </trkpt>
      <trkpt lat="46.50463" lon="10.36035">
        <ele>1662.26</ele>
        <time>2012-08-02T15:06:34Z</time>
      </trkpt>
      <trkpt lat="46.50453" lon="10.36018">
        <ele>1660.81</ele>
        <time>2012-08-02T15:06:38Z</time>
      </trkpt>
      <trkpt lat="46.50456" lon="10.36015">
        <ele>1660.33</ele>
        <time>2012-08-02T15:06:39Z</time>
      </trkpt>
      <trkpt lat="46.50461" lon="10.36015">
        <ele>1660.33</ele>
        <time>2012-08-02T15:06:40Z</time>
      </trkpt>
      <trkpt lat="46.50467" lon="10.3602">
        <ele>1661.78</ele>
        <time>2012-08-02T15:06:41Z</time>
      </trkpt>
      <trkpt lat="46.50475" lon="10.36029">
        <ele>1663.22</ele>
        <time>2012-08-02T15:06:42Z</time>
      </trkpt>
      <trkpt lat="46.5051" lon="10.36065">
        <ele>1657.45</ele>
        <time>2012-08-02T15:06:45Z</time>
      </trkpt>
      <trkpt lat="46.50534" lon="10.36094">
        <ele>1652.64</ele>
        <time>2012-08-02T15:06:47Z</time>
      </trkpt>
      <trkpt lat="46.50549" lon="10.36116">
        <ele>1648.32</ele>
        <time>2012-08-02T15:06:49Z</time>
      </trkpt>
      <trkpt lat="46.50555" lon="10.36123">
        <ele>1646.88</ele>
        <time>2012-08-02T15:06:50Z</time>
      </trkpt>
      <trkpt lat="46.50561" lon="10.36125">
        <ele>1646.4</ele>
        <time>2012-08-02T15:06:51Z</time>
      </trkpt>
      <trkpt lat="46.50567" lon="10.36124">
        <ele>1646.4</ele>
        <time>2012-08-02T15:06:52Z</time>
      </trkpt>
      <trkpt lat="46.50571" lon="10.36123">
        <ele>1645.91</ele>
        <time>2012-08-02T15:06:53Z</time>
      </trkpt>
      <trkpt lat="46.50572" lon="10.36124">
        <ele>1646.4</ele>
        <time>2012-08-02T15:06:54Z</time>
      </trkpt>
      <trkpt lat="46.50572" lon="10.36127">
        <ele>1646.88</ele>
        <time>2012-08-02T15:06:55Z</time>
      </trkpt>
      <trkpt lat="46.5057" lon="10.36128">
        <ele>1647.36</ele>
        <time>2012-08-02T15:06:56Z</time>
      </trkpt>
      <trkpt lat="46.50569" lon="10.36129">
        <ele>1646.88</ele>
        <time>2012-08-02T15:06:57Z</time>
      </trkpt>
      <trkpt lat="46.50564" lon="10.36125">
        <ele>1646.4</ele>
        <time>2012-08-02T15:06:58Z</time>
      </trkpt>
      <trkpt lat="46.50541" lon="10.36101">
        <ele>1647.36</ele>
        <time>2012-08-02T15:07:02Z</time>
      </trkpt>
      <trkpt lat="46.50536" lon="10.36093">
        <ele>1648.32</ele>
        <time>2012-08-02T15:07:03Z</time>
      </trkpt>
      <trkpt lat="46.50407" lon="10.35865">
        <ele>1646.4</ele>
        <time>2012-08-02T15:07:07Z</time>
      </trkpt>
      <trkpt lat="46.50378" lon="10.35805">
        <ele>1642.55</ele>
        <time>2012-08-02T15:07:10Z</time>
      </trkpt>
      <trkpt lat="46.50359" lon="10.35767">
        <ele>1640.15</ele>
        <time>2012-08-02T15:07:12Z</time>
      </trkpt>
      <trkpt lat="46.50334" lon="10.35713">
        <ele>1638.22</ele>
        <time>2012-08-02T15:07:15Z</time>
      </trkpt>
      <trkpt lat="46.50328" lon="10.35694">
        <ele>1637.74</ele>
        <time>2012-08-02T15:07:16Z</time>
      </trkpt>
      <trkpt lat="46.50321" lon="10.35662">
        <ele>1636.3</ele>
        <time>2012-08-02T15:07:18Z</time>
      </trkpt>
      <trkpt lat="46.50314" lon="10.3565">
        <ele>1635.34</ele>
        <time>2012-08-02T15:07:19Z</time>
      </trkpt>
      <trkpt lat="46.50302" lon="10.35641">
        <ele>1635.82</ele>
        <time>2012-08-02T15:07:20Z</time>
      </trkpt>
      <trkpt lat="46.50289" lon="10.35635">
        <ele>1634.38</ele>
        <time>2012-08-02T15:07:21Z</time>
      </trkpt>
      <trkpt lat="46.50276" lon="10.35631">
        <ele>1633.42</ele>
        <time>2012-08-02T15:07:22Z</time>
      </trkpt>
      <trkpt lat="46.50264" lon="10.35631">
        <ele>1632.46</ele>
        <time>2012-08-02T15:07:23Z</time>
      </trkpt>
      <trkpt lat="46.50252" lon="10.35635">
        <ele>1632.94</ele>
        <time>2012-08-02T15:07:24Z</time>
      </trkpt>
      <trkpt lat="46.5024" lon="10.35643">
        <ele>1631.98</ele>
        <time>2012-08-02T15:07:25Z</time>
      </trkpt>
      <trkpt lat="46.50211" lon="10.35664">
        <ele>1631.49</ele>
        <time>2012-08-02T15:07:27Z</time>
      </trkpt>
      <trkpt lat="46.50194" lon="10.3567">
        <ele>1631.49</ele>
        <time>2012-08-02T15:07:28Z</time>
      </trkpt>
      <trkpt lat="46.50175" lon="10.35674">
        <ele>1630.53</ele>
        <time>2012-08-02T15:07:29Z</time>
      </trkpt>
      <trkpt lat="46.50155" lon="10.35674">
        <ele>1629.09</ele>
        <time>2012-08-02T15:07:30Z</time>
      </trkpt>
      <trkpt lat="46.50135" lon="10.35673">
        <ele>1628.61</ele>
        <time>2012-08-02T15:07:31Z</time>
      </trkpt>
      <trkpt lat="46.50115" lon="10.35669">
        <ele>1626.69</ele>
        <time>2012-08-02T15:07:32Z</time>
      </trkpt>
      <trkpt lat="46.5006" lon="10.35662">
        <ele>1624.28</ele>
        <time>2012-08-02T15:07:35Z</time>
      </trkpt>
      <trkpt lat="46.50042" lon="10.35664">
        <ele>1623.8</ele>
        <time>2012-08-02T15:07:36Z</time>
      </trkpt>
      <trkpt lat="46.50025" lon="10.35669">
        <ele>1623.8</ele>
        <time>2012-08-02T15:07:37Z</time>
      </trkpt>
      <trkpt lat="46.49978" lon="10.3569">
        <ele>1620.92</ele>
        <time>2012-08-02T15:07:40Z</time>
      </trkpt>
      <trkpt lat="46.49964" lon="10.35703">
        <ele>1621.4</ele>
        <time>2012-08-02T15:07:41Z</time>
      </trkpt>
      <trkpt lat="46.4995" lon="10.35718">
        <ele>1620.92</ele>
        <time>2012-08-02T15:07:42Z</time>
      </trkpt>
      <trkpt lat="46.49912" lon="10.3576">
        <ele>1618.04</ele>
        <time>2012-08-02T15:07:45Z</time>
      </trkpt>
      <trkpt lat="46.49896" lon="10.35767">
        <ele>1617.07</ele>
        <time>2012-08-02T15:07:46Z</time>
      </trkpt>
      <trkpt lat="46.49878" lon="10.35769">
        <ele>1618.04</ele>
        <time>2012-08-02T15:07:47Z</time>
      </trkpt>
      <trkpt lat="46.49837" lon="10.3577">
        <ele>1614.19</ele>
        <time>2012-08-02T15:07:49Z</time>
      </trkpt>
      <trkpt lat="46.49774" lon="10.35779">
        <ele>1608.9</ele>
        <time>2012-08-02T15:07:52Z</time>
      </trkpt>
      <trkpt lat="46.49754" lon="10.35781">
        <ele>1606.5</ele>
        <time>2012-08-02T15:07:53Z</time>
      </trkpt>
      <trkpt lat="46.49736" lon="10.3578">
        <ele>1602.17</ele>
        <time>2012-08-02T15:07:54Z</time>
      </trkpt>
      <trkpt lat="46.49708" lon="10.35776">
        <ele>1598.33</ele>
        <time>2012-08-02T15:07:56Z</time>
      </trkpt>
      <trkpt lat="46.49695" lon="10.35776">
        <ele>1597.85</ele>
        <time>2012-08-02T15:07:57Z</time>
      </trkpt>
      <trkpt lat="46.49684" lon="10.3578">
        <ele>1596.89</ele>
        <time>2012-08-02T15:07:58Z</time>
      </trkpt>
      <trkpt lat="46.49674" lon="10.3579">
        <ele>1595.45</ele>
        <time>2012-08-02T15:07:59Z</time>
      </trkpt>
      <trkpt lat="46.49665" lon="10.35803">
        <ele>1593.52</ele>
        <time>2012-08-02T15:08:00Z</time>
      </trkpt>
      <trkpt lat="46.49655" lon="10.35811">
        <ele>1591.6</ele>
        <time>2012-08-02T15:08:01Z</time>
      </trkpt>
      <trkpt lat="46.49644" lon="10.35812">
        <ele>1591.12</ele>
        <time>2012-08-02T15:08:02Z</time>
      </trkpt>
      <trkpt lat="46.49631" lon="10.35807">
        <ele>1590.16</ele>
        <time>2012-08-02T15:08:03Z</time>
      </trkpt>
      <trkpt lat="46.49618" lon="10.35803">
        <ele>1587.75</ele>
        <time>2012-08-02T15:08:04Z</time>
      </trkpt>
      <trkpt lat="46.49607" lon="10.35802">
        <ele>1588.24</ele>
        <time>2012-08-02T15:08:05Z</time>
      </trkpt>
      <trkpt lat="46.49595" lon="10.35809">
        <ele>1588.24</ele>
        <time>2012-08-02T15:08:06Z</time>
      </trkpt>
      <trkpt lat="46.49584" lon="10.3582">
        <ele>1586.79</ele>
        <time>2012-08-02T15:08:07Z</time>
      </trkpt>
      <trkpt lat="46.49573" lon="10.35834">
        <ele>1585.35</ele>
        <time>2012-08-02T15:08:08Z</time>
      </trkpt>
      <trkpt lat="46.49549" lon="10.35858">
        <ele>1582.47</ele>
        <time>2012-08-02T15:08:10Z</time>
      </trkpt>
      <trkpt lat="46.49535" lon="10.35862">
        <ele>1580.54</ele>
        <time>2012-08-02T15:08:11Z</time>
      </trkpt>
      <trkpt lat="46.49521" lon="10.35864">
        <ele>1579.58</ele>
        <time>2012-08-02T15:08:12Z</time>
      </trkpt>
      <trkpt lat="46.49509" lon="10.35868">
        <ele>1579.1</ele>
        <time>2012-08-02T15:08:13Z</time>
      </trkpt>
      <trkpt lat="46.49497" lon="10.35878">
        <ele>1578.62</ele>
        <time>2012-08-02T15:08:14Z</time>
      </trkpt>
      <trkpt lat="46.49485" lon="10.35892">
        <ele>1577.66</ele>
        <time>2012-08-02T15:08:15Z</time>
      </trkpt>
      <trkpt lat="46.49472" lon="10.35909">
        <ele>1576.7</ele>
        <time>2012-08-02T15:08:16Z</time>
      </trkpt>
      <trkpt lat="46.49442" lon="10.35943">
        <ele>1572.37</ele>
        <time>2012-08-02T15:08:18Z</time>
      </trkpt>
      <trkpt lat="46.49409" lon="10.35972">
        <ele>1568.53</ele>
        <time>2012-08-02T15:08:20Z</time>
      </trkpt>
      <trkpt lat="46.49378" lon="10.35995">
        <ele>1564.2</ele>
        <time>2012-08-02T15:08:22Z</time>
      </trkpt>
      <trkpt lat="46.4935" lon="10.36014">
        <ele>1559.88</ele>
        <time>2012-08-02T15:08:24Z</time>
      </trkpt>
      <trkpt lat="46.49328" lon="10.36032">
        <ele>1556.03</ele>
        <time>2012-08-02T15:08:26Z</time>
      </trkpt>
      <trkpt lat="46.49319" lon="10.36042">
        <ele>1555.07</ele>
        <time>2012-08-02T15:08:27Z</time>
      </trkpt>
      <trkpt lat="46.49313" lon="10.36055">
        <ele>1554.11</ele>
        <time>2012-08-02T15:08:28Z</time>
      </trkpt>
      <trkpt lat="46.49311" lon="10.36069">
        <ele>1552.67</ele>
        <time>2012-08-02T15:08:29Z</time>
      </trkpt>
      <trkpt lat="46.49312" lon="10.36085">
        <ele>1552.19</ele>
        <time>2012-08-02T15:08:30Z</time>
      </trkpt>
      <trkpt lat="46.49315" lon="10.36102">
        <ele>1550.26</ele>
        <time>2012-08-02T15:08:31Z</time>
      </trkpt>
      <trkpt lat="46.49316" lon="10.36118">
        <ele>1549.3</ele>
        <time>2012-08-02T15:08:32Z</time>
      </trkpt>
      <trkpt lat="46.49311" lon="10.36133">
        <ele>1547.86</ele>
        <time>2012-08-02T15:08:33Z</time>
      </trkpt>
      <trkpt lat="46.49303" lon="10.36147">
        <ele>1547.86</ele>
        <time>2012-08-02T15:08:34Z</time>
      </trkpt>
      <trkpt lat="46.49295" lon="10.36161">
        <ele>1545.94</ele>
        <time>2012-08-02T15:08:35Z</time>
      </trkpt>
      <trkpt lat="46.49271" lon="10.36199">
        <ele>1541.61</ele>
        <time>2012-08-02T15:08:38Z</time>
      </trkpt>
      <trkpt lat="46.49248" lon="10.36231">
        <ele>1537.77</ele>
        <time>2012-08-02T15:08:41Z</time>
      </trkpt>
      <trkpt lat="46.49239" lon="10.36234">
        <ele>1536.32</ele>
        <time>2012-08-02T15:08:42Z</time>
      </trkpt>
      <trkpt lat="46.4923" lon="10.36233">
        <ele>1535.84</ele>
        <time>2012-08-02T15:08:43Z</time>
      </trkpt>
      <trkpt lat="46.4922" lon="10.3623">
        <ele>1534.4</ele>
        <time>2012-08-02T15:08:44Z</time>
      </trkpt>
      <trkpt lat="46.49211" lon="10.36227">
        <ele>1533.92</ele>
        <time>2012-08-02T15:08:45Z</time>
      </trkpt>
      <trkpt lat="46.49202" lon="10.36226">
        <ele>1533.44</ele>
        <time>2012-08-02T15:08:46Z</time>
      </trkpt>
      <trkpt lat="46.49192" lon="10.36228">
        <ele>1532.48</ele>
        <time>2012-08-02T15:08:47Z</time>
      </trkpt>
      <trkpt lat="46.49183" lon="10.36231">
        <ele>1531.04</ele>
        <time>2012-08-02T15:08:48Z</time>
      </trkpt>
      <trkpt lat="46.49175" lon="10.36242">
        <ele>1530.56</ele>
        <time>2012-08-02T15:08:49Z</time>
      </trkpt>
      <trkpt lat="46.49168" lon="10.36256">
        <ele>1529.11</ele>
        <time>2012-08-02T15:08:50Z</time>
      </trkpt>
      <trkpt lat="46.49161" lon="10.3627">
        <ele>1528.63</ele>
        <time>2012-08-02T15:08:51Z</time>
      </trkpt>
      <trkpt lat="46.49147" lon="10.36295">
        <ele>1525.75</ele>
        <time>2012-08-02T15:08:53Z</time>
      </trkpt>
      <trkpt lat="46.49141" lon="10.36307">
        <ele>1525.27</ele>
        <time>2012-08-02T15:08:54Z</time>
      </trkpt>
      <trkpt lat="46.49129" lon="10.36333">
        <ele>1523.35</ele>
        <time>2012-08-02T15:08:56Z</time>
      </trkpt>
      <trkpt lat="46.49122" lon="10.36347">
        <ele>1522.87</ele>
        <time>2012-08-02T15:08:57Z</time>
      </trkpt>
      <trkpt lat="46.49114" lon="10.3636">
        <ele>1521.42</ele>
        <time>2012-08-02T15:08:58Z</time>
      </trkpt>
      <trkpt lat="46.49081" lon="10.364">
        <ele>1519.02</ele>
        <time>2012-08-02T15:09:02Z</time>
      </trkpt>
      <trkpt lat="46.4907" lon="10.36406">
        <ele>1519.5</ele>
        <time>2012-08-02T15:09:03Z</time>
      </trkpt>
      <trkpt lat="46.49033" lon="10.36422">
        <ele>1516.14</ele>
        <time>2012-08-02T15:09:06Z</time>
      </trkpt>
      <trkpt lat="46.4898" lon="10.3644">
        <ele>1511.81</ele>
        <time>2012-08-02T15:09:10Z</time>
      </trkpt>
      <trkpt lat="46.48942" lon="10.36446">
        <ele>1508.45</ele>
        <time>2012-08-02T15:09:13Z</time>
      </trkpt>
      <trkpt lat="46.48929" lon="10.36448">
        <ele>1508.45</ele>
        <time>2012-08-02T15:09:14Z</time>
      </trkpt>
      <trkpt lat="46.48916" lon="10.36453">
        <ele>1507.48</ele>
        <time>2012-08-02T15:09:15Z</time>
      </trkpt>
      <trkpt lat="46.4889" lon="10.36466">
        <ele>1504.12</ele>
        <time>2012-08-02T15:09:17Z</time>
      </trkpt>
      <trkpt lat="46.48877" lon="10.36471">
        <ele>1503.16</ele>
        <time>2012-08-02T15:09:18Z</time>
      </trkpt>
      <trkpt lat="46.48864" lon="10.36472">
        <ele>1501.72</ele>
        <time>2012-08-02T15:09:19Z</time>
      </trkpt>
      <trkpt lat="46.48851" lon="10.36472">
        <ele>1500.76</ele>
        <time>2012-08-02T15:09:20Z</time>
      </trkpt>
      <trkpt lat="46.48815" lon="10.36468">
        <ele>1497.87</ele>
        <time>2012-08-02T15:09:23Z</time>
      </trkpt>
      <trkpt lat="46.48802" lon="10.36472">
        <ele>1497.39</ele>
        <time>2012-08-02T15:09:24Z</time>
      </trkpt>
      <trkpt lat="46.48789" lon="10.36478">
        <ele>1496.43</ele>
        <time>2012-08-02T15:09:25Z</time>
      </trkpt>
      <trkpt lat="46.48763" lon="10.36494">
        <ele>1493.55</ele>
        <time>2012-08-02T15:09:27Z</time>
      </trkpt>
      <trkpt lat="46.48724" lon="10.36519">
        <ele>1489.22</ele>
        <time>2012-08-02T15:09:30Z</time>
      </trkpt>
      <trkpt lat="46.48699" lon="10.36538">
        <ele>1485.37</ele>
        <time>2012-08-02T15:09:32Z</time>
      </trkpt>
      <trkpt lat="46.48661" lon="10.36572">
        <ele>1481.05</ele>
        <time>2012-08-02T15:09:35Z</time>
      </trkpt>
      <trkpt lat="46.48625" lon="10.36605">
        <ele>1476.72</ele>
        <time>2012-08-02T15:09:38Z</time>
      </trkpt>
      <trkpt lat="46.48603" lon="10.36624">
        <ele>1474.32</ele>
        <time>2012-08-02T15:09:40Z</time>
      </trkpt>
      <trkpt lat="46.48592" lon="10.36628">
        <ele>1472.88</ele>
        <time>2012-08-02T15:09:41Z</time>
      </trkpt>
      <trkpt lat="46.48582" lon="10.36628">
        <ele>1472.88</ele>
        <time>2012-08-02T15:09:42Z</time>
      </trkpt>
      <trkpt lat="46.48571" lon="10.36622">
        <ele>1471.92</ele>
        <time>2012-08-02T15:09:43Z</time>
      </trkpt>
      <trkpt lat="46.4856" lon="10.36613">
        <ele>1471.92</ele>
        <time>2012-08-02T15:09:44Z</time>
      </trkpt>
      <trkpt lat="46.48537" lon="10.36592">
        <ele>1469.03</ele>
        <time>2012-08-02T15:09:46Z</time>
      </trkpt>
      <trkpt lat="46.48523" lon="10.36584">
        <ele>1468.07</ele>
        <time>2012-08-02T15:09:47Z</time>
      </trkpt>
      <trkpt lat="46.48509" lon="10.36578">
        <ele>1467.11</ele>
        <time>2012-08-02T15:09:48Z</time>
      </trkpt>
      <trkpt lat="46.48482" lon="10.36569">
        <ele>1463.26</ele>
        <time>2012-08-02T15:09:50Z</time>
      </trkpt>
      <trkpt lat="46.48444" lon="10.36557">
        <ele>1459.42</ele>
        <time>2012-08-02T15:09:53Z</time>
      </trkpt>
      <trkpt lat="46.48433" lon="10.36556">
        <ele>1458.94</ele>
        <time>2012-08-02T15:09:54Z</time>
      </trkpt>
      <trkpt lat="46.48422" lon="10.3656">
        <ele>1457.5</ele>
        <time>2012-08-02T15:09:55Z</time>
      </trkpt>
      <trkpt lat="46.48411" lon="10.36567">
        <ele>1455.57</ele>
        <time>2012-08-02T15:09:56Z</time>
      </trkpt>
      <trkpt lat="46.48402" lon="10.36578">
        <ele>1455.09</ele>
        <time>2012-08-02T15:09:57Z</time>
      </trkpt>
      <trkpt lat="46.48393" lon="10.36593">
        <ele>1454.13</ele>
        <time>2012-08-02T15:09:58Z</time>
      </trkpt>
      <trkpt lat="46.48386" lon="10.3661">
        <ele>1452.69</ele>
        <time>2012-08-02T15:09:59Z</time>
      </trkpt>
      <trkpt lat="46.48379" lon="10.36626">
        <ele>1451.25</ele>
        <time>2012-08-02T15:10:00Z</time>
      </trkpt>
      <trkpt lat="46.4837" lon="10.3664">
        <ele>1449.81</ele>
        <time>2012-08-02T15:10:01Z</time>
      </trkpt>
      <trkpt lat="46.48361" lon="10.36654">
        <ele>1448.84</ele>
        <time>2012-08-02T15:10:02Z</time>
      </trkpt>
      <trkpt lat="46.48351" lon="10.36665">
        <ele>1447.4</ele>
        <time>2012-08-02T15:10:03Z</time>
      </trkpt>
      <trkpt lat="46.48339" lon="10.36673">
        <ele>1445.96</ele>
        <time>2012-08-02T15:10:04Z</time>
      </trkpt>
      <trkpt lat="46.48326" lon="10.36678">
        <ele>1444.52</ele>
        <time>2012-08-02T15:10:05Z</time>
      </trkpt>
      <trkpt lat="46.48306" lon="10.36687">
        <ele>1441.15</ele>
        <time>2012-08-02T15:10:07Z</time>
      </trkpt>
      <trkpt lat="46.48298" lon="10.36693">
        <ele>1440.67</ele>
        <time>2012-08-02T15:10:08Z</time>
      </trkpt>
      <trkpt lat="46.48272" lon="10.36712">
        <ele>1437.79</ele>
        <time>2012-08-02T15:10:12Z</time>
      </trkpt>
      <trkpt lat="46.48259" lon="10.36724">
        <ele>1436.83</ele>
        <time>2012-08-02T15:10:14Z</time>
      </trkpt>
      <trkpt lat="46.48253" lon="10.36733">
        <ele>1436.35</ele>
        <time>2012-08-02T15:10:15Z</time>
      </trkpt>
      <trkpt lat="46.48226" lon="10.36783">
        <ele>1433.46</ele>
        <time>2012-08-02T15:10:19Z</time>
      </trkpt>
      <trkpt lat="46.48216" lon="10.36795">
        <ele>1432.98</ele>
        <time>2012-08-02T15:10:20Z</time>
      </trkpt>
      <trkpt lat="46.48205" lon="10.36807">
        <ele>1432.02</ele>
        <time>2012-08-02T15:10:21Z</time>
      </trkpt>
      <trkpt lat="46.48158" lon="10.36838">
        <ele>1427.7</ele>
        <time>2012-08-02T15:10:25Z</time>
      </trkpt>
      <trkpt lat="46.48144" lon="10.3684">
        <ele>1426.25</ele>
        <time>2012-08-02T15:10:26Z</time>
      </trkpt>
      <trkpt lat="46.48131" lon="10.36839">
        <ele>1425.29</ele>
        <time>2012-08-02T15:10:27Z</time>
      </trkpt>
      <trkpt lat="46.48092" lon="10.3683">
        <ele>1421.45</ele>
        <time>2012-08-02T15:10:30Z</time>
      </trkpt>
      <trkpt lat="46.48079" lon="10.36829">
        <ele>1420.49</ele>
        <time>2012-08-02T15:10:31Z</time>
      </trkpt>
      <trkpt lat="46.48066" lon="10.3683">
        <ele>1419.52</ele>
        <time>2012-08-02T15:10:32Z</time>
      </trkpt>
      <trkpt lat="46.48039" lon="10.36836">
        <ele>1417.12</ele>
        <time>2012-08-02T15:10:34Z</time>
      </trkpt>
      <trkpt lat="46.48026" lon="10.36837">
        <ele>1416.16</ele>
        <time>2012-08-02T15:10:35Z</time>
      </trkpt>
      <trkpt lat="46.48" lon="10.36835">
        <ele>1413.28</ele>
        <time>2012-08-02T15:10:37Z</time>
      </trkpt>
      <trkpt lat="46.47987" lon="10.3684">
        <ele>1413.28</ele>
        <time>2012-08-02T15:10:38Z</time>
      </trkpt>
      <trkpt lat="46.47975" lon="10.36849">
        <ele>1411.83</ele>
        <time>2012-08-02T15:10:39Z</time>
      </trkpt>
      <trkpt lat="46.47926" lon="10.3689">
        <ele>1407.99</ele>
        <time>2012-08-02T15:10:43Z</time>
      </trkpt>
      <trkpt lat="46.47889" lon="10.36918">
        <ele>1404.14</ele>
        <time>2012-08-02T15:10:46Z</time>
      </trkpt>
      <trkpt lat="46.47854" lon="10.36944">
        <ele>1399.82</ele>
        <time>2012-08-02T15:10:49Z</time>
      </trkpt>
      <trkpt lat="46.47842" lon="10.36951">
        <ele>1398.37</ele>
        <time>2012-08-02T15:10:50Z</time>
      </trkpt>
      <trkpt lat="46.47829" lon="10.36954">
        <ele>1396.45</ele>
        <time>2012-08-02T15:10:51Z</time>
      </trkpt>
      <trkpt lat="46.47817" lon="10.36952">
        <ele>1395.49</ele>
        <time>2012-08-02T15:10:52Z</time>
      </trkpt>
      <trkpt lat="46.47805" lon="10.36944">
        <ele>1395.01</ele>
        <time>2012-08-02T15:10:53Z</time>
      </trkpt>
      <trkpt lat="46.47795" lon="10.36931">
        <ele>1394.05</ele>
        <time>2012-08-02T15:10:54Z</time>
      </trkpt>
      <trkpt lat="46.47787" lon="10.36916">
        <ele>1392.61</ele>
        <time>2012-08-02T15:10:55Z</time>
      </trkpt>
      <trkpt lat="46.47779" lon="10.36904">
        <ele>1391.65</ele>
        <time>2012-08-02T15:10:56Z</time>
      </trkpt>
      <trkpt lat="46.47769" lon="10.36894">
        <ele>1391.17</ele>
        <time>2012-08-02T15:10:57Z</time>
      </trkpt>
      <trkpt lat="46.47756" lon="10.36888">
        <ele>1391.17</ele>
        <time>2012-08-02T15:10:58Z</time>
      </trkpt>
      <trkpt lat="46.47742" lon="10.36884">
        <ele>1389.72</ele>
        <time>2012-08-02T15:10:59Z</time>
      </trkpt>
      <trkpt lat="46.47701" lon="10.36872">
        <ele>1385.88</ele>
        <time>2012-08-02T15:11:02Z</time>
      </trkpt>
      <trkpt lat="46.47666" lon="10.36865">
        <ele>1382.51</ele>
        <time>2012-08-02T15:11:05Z</time>
      </trkpt>
      <trkpt lat="46.47647" lon="10.36862">
        <ele>1379.63</ele>
        <time>2012-08-02T15:11:07Z</time>
      </trkpt>
      <trkpt lat="46.47641" lon="10.36858">
        <ele>1378.67</ele>
        <time>2012-08-02T15:11:08Z</time>
      </trkpt>
      <trkpt lat="46.47638" lon="10.36851">
        <ele>1377.71</ele>
        <time>2012-08-02T15:11:09Z</time>
      </trkpt>
      <trkpt lat="46.47639" lon="10.36843">
        <ele>1377.71</ele>
        <time>2012-08-02T15:11:10Z</time>
      </trkpt>
      <trkpt lat="46.47645" lon="10.36835">
        <ele>1377.23</ele>
        <time>2012-08-02T15:11:11Z</time>
      </trkpt>
      <trkpt lat="46.47655" lon="10.36828">
        <ele>1377.23</ele>
        <time>2012-08-02T15:11:12Z</time>
      </trkpt>
      <trkpt lat="46.47684" lon="10.36807">
        <ele>1375.78</ele>
        <time>2012-08-02T15:11:15Z</time>
      </trkpt>
      <trkpt lat="46.47715" lon="10.36786">
        <ele>1372.42</ele>
        <time>2012-08-02T15:11:18Z</time>
      </trkpt>
      <trkpt lat="46.47743" lon="10.36773">
        <ele>1370.5</ele>
        <time>2012-08-02T15:11:21Z</time>
      </trkpt>
      <trkpt lat="46.47766" lon="10.36764">
        <ele>1369.05</ele>
        <time>2012-08-02T15:11:24Z</time>
      </trkpt>
      <trkpt lat="46.47771" lon="10.36758">
        <ele>1368.57</ele>
        <time>2012-08-02T15:11:25Z</time>
      </trkpt>
      <trkpt lat="46.47772" lon="10.3675">
        <ele>1368.09</ele>
        <time>2012-08-02T15:11:26Z</time>
      </trkpt>
      <trkpt lat="46.47769" lon="10.36742">
        <ele>1368.09</ele>
        <time>2012-08-02T15:11:27Z</time>
      </trkpt>
      <trkpt lat="46.47761" lon="10.36736">
        <ele>1368.57</ele>
        <time>2012-08-02T15:11:28Z</time>
      </trkpt>
      <trkpt lat="46.4775" lon="10.36732">
        <ele>1369.05</ele>
        <time>2012-08-02T15:11:29Z</time>
      </trkpt>
      <trkpt lat="46.47736" lon="10.3673">
        <ele>1368.57</ele>
        <time>2012-08-02T15:11:30Z</time>
      </trkpt>
      <trkpt lat="46.4767" lon="10.36718">
        <ele>1365.21</ele>
        <time>2012-08-02T15:11:34Z</time>
      </trkpt>
      <trkpt lat="46.47636" lon="10.36712">
        <ele>1364.25</ele>
        <time>2012-08-02T15:11:36Z</time>
      </trkpt>
      <trkpt lat="46.47601" lon="10.36707">
        <ele>1360.88</ele>
        <time>2012-08-02T15:11:38Z</time>
      </trkpt>
      <trkpt lat="46.47551" lon="10.36698">
        <ele>1357.52</ele>
        <time>2012-08-02T15:11:41Z</time>
      </trkpt>
      <trkpt lat="46.4752" lon="10.36693">
        <ele>1355.6</ele>
        <time>2012-08-02T15:11:43Z</time>
      </trkpt>
      <trkpt lat="46.47474" lon="10.36688">
        <ele>1352.71</ele>
        <time>2012-08-02T15:11:46Z</time>
      </trkpt>
      <trkpt lat="46.4741" lon="10.36695">
        <ele>1349.83</ele>
        <time>2012-08-02T15:11:50Z</time>
      </trkpt>
      <trkpt lat="46.4735" lon="10.36726">
        <ele>1345.5</ele>
        <time>2012-08-02T15:11:54Z</time>
      </trkpt>
      <trkpt lat="46.47337" lon="10.36737">
        <ele>1344.06</ele>
        <time>2012-08-02T15:11:55Z</time>
      </trkpt>
      <trkpt lat="46.47301" lon="10.36772">
        <ele>1340.7</ele>
        <time>2012-08-02T15:11:58Z</time>
      </trkpt>
      <trkpt lat="46.47273" lon="10.36802">
        <ele>1336.37</ele>
        <time>2012-08-02T15:12:01Z</time>
      </trkpt>
      <trkpt lat="46.47265" lon="10.36809">
        <ele>1335.41</ele>
        <time>2012-08-02T15:12:02Z</time>
      </trkpt>
      <trkpt lat="46.47257" lon="10.36813">
        <ele>1334.45</ele>
        <time>2012-08-02T15:12:03Z</time>
      </trkpt>
      <trkpt lat="46.47249" lon="10.36812">
        <ele>1333.49</ele>
        <time>2012-08-02T15:12:04Z</time>
      </trkpt>
      <trkpt lat="46.47242" lon="10.36806">
        <ele>1333.01</ele>
        <time>2012-08-02T15:12:05Z</time>
      </trkpt>
      <trkpt lat="46.47238" lon="10.36795">
        <ele>1332.52</ele>
        <time>2012-08-02T15:12:06Z</time>
      </trkpt>
      <trkpt lat="46.47237" lon="10.36781">
        <ele>1332.04</ele>
        <time>2012-08-02T15:12:07Z</time>
      </trkpt>
      <trkpt lat="46.47241" lon="10.36767">
        <ele>1331.56</ele>
        <time>2012-08-02T15:12:08Z</time>
      </trkpt>
      <trkpt lat="46.47247" lon="10.36753">
        <ele>1331.56</ele>
        <time>2012-08-02T15:12:09Z</time>
      </trkpt>
      <trkpt lat="46.47268" lon="10.36699">
        <ele>1328.2</ele>
        <time>2012-08-02T15:12:13Z</time>
      </trkpt>
      <trkpt lat="46.47289" lon="10.36644">
        <ele>1324.83</ele>
        <time>2012-08-02T15:12:17Z</time>
      </trkpt>
      <trkpt lat="46.47296" lon="10.36619">
        <ele>1323.39</ele>
        <time>2012-08-02T15:12:19Z</time>
      </trkpt>
      <trkpt lat="46.47296" lon="10.36607">
        <ele>1322.91</ele>
        <time>2012-08-02T15:12:20Z</time>
      </trkpt>
      <trkpt lat="46.47294" lon="10.36597">
        <ele>1321.47</ele>
        <time>2012-08-02T15:12:21Z</time>
      </trkpt>
      <trkpt lat="46.47288" lon="10.3659">
        <ele>1321.47</ele>
        <time>2012-08-02T15:12:22Z</time>
      </trkpt>
      <trkpt lat="46.4728" lon="10.36587">
        <ele>1321.47</ele>
        <time>2012-08-02T15:12:23Z</time>
      </trkpt>
      <trkpt lat="46.4727" lon="10.36588">
        <ele>1320.99</ele>
        <time>2012-08-02T15:12:24Z</time>
      </trkpt>
      <trkpt lat="46.4726" lon="10.36593">
        <ele>1320.51</ele>
        <time>2012-08-02T15:12:25Z</time>
      </trkpt>
      <trkpt lat="46.47249" lon="10.36598">
        <ele>1320.03</ele>
        <time>2012-08-02T15:12:26Z</time>
      </trkpt>
      <trkpt lat="46.4721" lon="10.36618">
        <ele>1316.66</ele>
        <time>2012-08-02T15:12:30Z</time>
      </trkpt>
      <trkpt lat="46.4718" lon="10.36634">
        <ele>1313.3</ele>
        <time>2012-08-02T15:12:33Z</time>
      </trkpt>
      <trkpt lat="46.47143" lon="10.36657">
        <ele>1309.93</ele>
        <time>2012-08-02T15:12:37Z</time>
      </trkpt>
      <trkpt lat="46.47133" lon="10.36665">
        <ele>1309.45</ele>
        <time>2012-08-02T15:12:38Z</time>
      </trkpt>
      <trkpt lat="46.47113" lon="10.36686">
        <ele>1308.49</ele>
        <time>2012-08-02T15:12:40Z</time>
      </trkpt>
      <trkpt lat="46.47077" lon="10.36736">
        <ele>1305.13</ele>
        <time>2012-08-02T15:12:44Z</time>
      </trkpt>
      <trkpt lat="46.47041" lon="10.36787">
        <ele>1302.72</ele>
        <time>2012-08-02T15:12:48Z</time>
      </trkpt>
      <trkpt lat="46.47023" lon="10.36812">
        <ele>1301.28</ele>
        <time>2012-08-02T15:12:50Z</time>
      </trkpt>
      <trkpt lat="46.47005" lon="10.36837">
        <ele>1299.84</ele>
        <time>2012-08-02T15:12:52Z</time>
      </trkpt>
      <trkpt lat="46.46975" lon="10.36888">
        <ele>1296.48</ele>
        <time>2012-08-02T15:12:56Z</time>
      </trkpt>
      <trkpt lat="46.4697" lon="10.36904">
        <ele>1296.48</ele>
        <time>2012-08-02T15:12:57Z</time>
      </trkpt>
      <trkpt lat="46.46967" lon="10.36922">
        <ele>1295.99</ele>
        <time>2012-08-02T15:12:58Z</time>
      </trkpt>
      <trkpt lat="46.46962" lon="10.36979">
        <ele>1294.55</ele>
        <time>2012-08-02T15:13:01Z</time>
      </trkpt>
      <trkpt lat="46.46957" lon="10.37032">
        <ele>1292.63</ele>
        <time>2012-08-02T15:13:04Z</time>
      </trkpt>
      <trkpt lat="46.46954" lon="10.37049">
        <ele>1291.67</ele>
        <time>2012-08-02T15:13:05Z</time>
      </trkpt>
      <trkpt lat="46.46949" lon="10.37066">
        <ele>1291.67</ele>
        <time>2012-08-02T15:13:06Z</time>
      </trkpt>
      <trkpt lat="46.46937" lon="10.37099">
        <ele>1290.23</ele>
        <time>2012-08-02T15:13:08Z</time>
      </trkpt>
      <trkpt lat="46.46929" lon="10.37112">
        <ele>1289.75</ele>
        <time>2012-08-02T15:13:09Z</time>
      </trkpt>
      <trkpt lat="46.46921" lon="10.37124">
        <ele>1288.78</ele>
        <time>2012-08-02T15:13:10Z</time>
      </trkpt>
      <trkpt lat="46.46912" lon="10.37134">
        <ele>1287.82</ele>
        <time>2012-08-02T15:13:11Z</time>
      </trkpt>
      <trkpt lat="46.46903" lon="10.37143">
        <ele>1286.86</ele>
        <time>2012-08-02T15:13:12Z</time>
      </trkpt>
      <trkpt lat="46.46869" lon="10.37173">
        <ele>1284.46</ele>
        <time>2012-08-02T15:13:16Z</time>
      </trkpt>
      <trkpt lat="46.4686" lon="10.37177">
        <ele>1283.98</ele>
        <time>2012-08-02T15:13:17Z</time>
      </trkpt>
      <trkpt lat="46.46823" lon="10.37182">
        <ele>1281.09</ele>
        <time>2012-08-02T15:13:21Z</time>
      </trkpt>
      <trkpt lat="46.46814" lon="10.37181">
        <ele>1280.13</ele>
        <time>2012-08-02T15:13:22Z</time>
      </trkpt>
      <trkpt lat="46.46805" lon="10.37178">
        <ele>1279.65</ele>
        <time>2012-08-02T15:13:23Z</time>
      </trkpt>
      <trkpt lat="46.46797" lon="10.37174">
        <ele>1279.17</ele>
        <time>2012-08-02T15:13:24Z</time>
      </trkpt>
      <trkpt lat="46.46773" lon="10.37161">
        <ele>1278.21</ele>
        <time>2012-08-02T15:13:27Z</time>
      </trkpt>
      <trkpt lat="46.46711" lon="10.37123">
        <ele>1274.85</ele>
        <time>2012-08-02T15:13:34Z</time>
      </trkpt>
      <trkpt lat="46.46683" lon="10.37101">
        <ele>1272.92</ele>
        <time>2012-08-02T15:13:38Z</time>
      </trkpt>
      <trkpt lat="46.46656" lon="10.37075">
        <ele>1270.52</ele>
        <time>2012-08-02T15:13:43Z</time>
      </trkpt>
      <trkpt lat="46.46636" lon="10.37051">
        <ele>1269.56</ele>
        <time>2012-08-02T15:13:47Z</time>
      </trkpt>
      <trkpt lat="46.4663" lon="10.37044">
        <ele>1269.56</ele>
        <time>2012-08-02T15:13:48Z</time>
      </trkpt>
      <trkpt lat="46.46624" lon="10.37036">
        <ele>1269.08</ele>
        <time>2012-08-02T15:13:49Z</time>
      </trkpt>
      <trkpt lat="46.46618" lon="10.37028">
        <ele>1268.6</ele>
        <time>2012-08-02T15:13:50Z</time>
      </trkpt>
      <trkpt lat="46.46612" lon="10.37019">
        <ele>1268.6</ele>
        <time>2012-08-02T15:13:51Z</time>
      </trkpt>
      <trkpt lat="46.46606" lon="10.37008">
        <ele>1268.12</ele>
        <time>2012-08-02T15:13:52Z</time>
      </trkpt>
      <trkpt lat="46.46535" lon="10.36871">
        <ele>1265.23</ele>
        <time>2012-08-02T15:14:03Z</time>
      </trkpt>
      <trkpt lat="46.46495" lon="10.36789">
        <ele>1263.79</ele>
        <time>2012-08-02T15:14:09Z</time>
      </trkpt>
      <trkpt lat="46.46438" lon="10.36674">
        <ele>1260.91</ele>
        <time>2012-08-02T15:14:18Z</time>
      </trkpt>
      <trkpt lat="46.46379" lon="10.36554">
        <ele>1258.5</ele>
        <time>2012-08-02T15:14:29Z</time>
      </trkpt>
      <trkpt lat="46.46284" lon="10.36361">
        <ele>1255.14</ele>
        <time>2012-08-02T15:14:44Z</time>
      </trkpt>
      <trkpt lat="46.4627" lon="10.36335">
        <ele>1254.66</ele>
        <time>2012-08-02T15:14:46Z</time>
      </trkpt>
      <trkpt lat="46.46226" lon="10.36246">
        <ele>1251.29</ele>
        <time>2012-08-02T15:14:53Z</time>
      </trkpt>
      <trkpt lat="46.4622" lon="10.36233">
        <ele>1251.29</ele>
        <time>2012-08-02T15:14:54Z</time>
      </trkpt>
      <trkpt lat="46.46151" lon="10.36095">
        <ele>1248.41</ele>
        <time>2012-08-02T15:15:05Z</time>
      </trkpt>
      <trkpt lat="46.4614" lon="10.36072">
        <ele>1246.97</ele>
        <time>2012-08-02T15:15:07Z</time>
      </trkpt>
      <trkpt lat="46.46073" lon="10.35951">
        <ele>1245.04</ele>
        <time>2012-08-02T15:15:18Z</time>
      </trkpt>
      <trkpt lat="46.4604" lon="10.3592">
        <ele>1243.6</ele>
        <time>2012-08-02T15:15:22Z</time>
      </trkpt>
      <trkpt lat="46.45961" lon="10.35898">
        <ele>1241.2</ele>
        <time>2012-08-02T15:15:32Z</time>
      </trkpt>
      <trkpt lat="46.45933" lon="10.35894">
        <ele>1240.24</ele>
        <time>2012-08-02T15:15:38Z</time>
      </trkpt>
      <trkpt lat="46.45931" lon="10.35889">
        <ele>1240.24</ele>
        <time>2012-08-02T15:15:39Z</time>
      </trkpt>
      <trkpt lat="46.45929" lon="10.35883">
        <ele>1239.76</ele>
        <time>2012-08-02T15:15:40Z</time>
      </trkpt>
      <trkpt lat="46.4591" lon="10.35808">
        <ele>1238.32</ele>
        <time>2012-08-02T15:15:49Z</time>
      </trkpt>
      <trkpt lat="46.45904" lon="10.35791">
        <ele>1238.8</ele>
        <time>2012-08-02T15:15:51Z</time>
      </trkpt>
      <trkpt lat="46.45899" lon="10.35782">
        <ele>1239.28</ele>
        <time>2012-08-02T15:15:52Z</time>
      </trkpt>
      <trkpt lat="46.45893" lon="10.35774">
        <ele>1239.76</ele>
        <time>2012-08-02T15:15:53Z</time>
      </trkpt>
      <trkpt lat="46.45885" lon="10.35767">
        <ele>1239.28</ele>
        <time>2012-08-02T15:15:54Z</time>
      </trkpt>
      <trkpt lat="46.45878" lon="10.35763">
        <ele>1239.28</ele>
        <time>2012-08-02T15:15:55Z</time>
      </trkpt>
      <trkpt lat="46.45871" lon="10.3576">
        <ele>1238.8</ele>
        <time>2012-08-02T15:15:56Z</time>
      </trkpt>
      <trkpt lat="46.45846" lon="10.35751">
        <ele>1238.8</ele>
        <time>2012-08-02T15:16:01Z</time>
      </trkpt>
      <trkpt lat="46.45822" lon="10.35743">
        <ele>1240.24</ele>
        <time>2012-08-02T15:16:05Z</time>
      </trkpt>
      <trkpt lat="46.45769" lon="10.35739">
        <ele>1239.76</ele>
        <time>2012-08-02T15:16:11Z</time>
      </trkpt>
      <trkpt lat="46.45709" lon="10.35739">
        <ele>1240.24</ele>
        <time>2012-08-02T15:16:17Z</time>
      </trkpt>
      <trkpt lat="46.45667" lon="10.35743">
        <ele>1238.8</ele>
        <time>2012-08-02T15:16:21Z</time>
      </trkpt>
      <trkpt lat="46.45657" lon="10.35743">
        <ele>1238.32</ele>
        <time>2012-08-02T15:16:22Z</time>
      </trkpt>
      <trkpt lat="46.45626" lon="10.35739">
        <ele>1236.39</ele>
        <time>2012-08-02T15:16:25Z</time>
      </trkpt>
      <trkpt lat="46.45499" lon="10.35712">
        <ele>1233.03</ele>
        <time>2012-08-02T15:16:37Z</time>
      </trkpt>
      <trkpt lat="46.45469" lon="10.35707">
        <ele>1229.66</ele>
        <time>2012-08-02T15:16:41Z</time>
      </trkpt>
      <trkpt lat="46.45466" lon="10.35706">
        <ele>1229.66</ele>
        <time>2012-08-02T15:16:42Z</time>
      </trkpt>
      <trkpt lat="46.45457" lon="10.35704">
        <ele>1230.14</ele>
        <time>2012-08-02T15:16:45Z</time>
      </trkpt>
      <trkpt lat="46.45451" lon="10.35701">
        <ele>1230.14</ele>
        <time>2012-08-02T15:16:46Z</time>
      </trkpt>
      <trkpt lat="46.45444" lon="10.35698">
        <ele>1229.66</ele>
        <time>2012-08-02T15:16:47Z</time>
      </trkpt>
      <trkpt lat="46.45388" lon="10.35681">
        <ele>1231.11</ele>
        <time>2012-08-02T15:16:52Z</time>
      </trkpt>
      <trkpt lat="46.45374" lon="10.35681">
        <ele>1231.59</ele>
        <time>2012-08-02T15:16:53Z</time>
      </trkpt>
      <trkpt lat="46.45318" lon="10.35685">
        <ele>1230.14</ele>
        <time>2012-08-02T15:16:57Z</time>
      </trkpt>
      <trkpt lat="46.45275" lon="10.35689">
        <ele>1227.26</ele>
        <time>2012-08-02T15:17:01Z</time>
      </trkpt>
      <trkpt lat="46.4526" lon="10.35691">
        <ele>1225.34</ele>
        <time>2012-08-02T15:17:04Z</time>
      </trkpt>
      <trkpt lat="46.45252" lon="10.35699">
        <ele>1225.34</ele>
        <time>2012-08-02T15:17:07Z</time>
      </trkpt>
      <trkpt lat="46.45249" lon="10.35703">
        <ele>1225.34</ele>
        <time>2012-08-02T15:17:08Z</time>
      </trkpt>
      <trkpt lat="46.45247" lon="10.35705">
        <ele>1224.86</ele>
        <time>2012-08-02T15:17:09Z</time>
      </trkpt>
      <trkpt lat="46.45243" lon="10.35708">
        <ele>1224.86</ele>
        <time>2012-08-02T15:17:10Z</time>
      </trkpt>
      <trkpt lat="46.45237" lon="10.35711">
        <ele>1225.82</ele>
        <time>2012-08-02T15:17:11Z</time>
      </trkpt>
      <trkpt lat="46.4523" lon="10.35715">
        <ele>1225.82</ele>
        <time>2012-08-02T15:17:12Z</time>
      </trkpt>
      <trkpt lat="46.45213" lon="10.35721">
        <ele>1225.82</ele>
        <time>2012-08-02T15:17:14Z</time>
      </trkpt>
      <trkpt lat="46.45205" lon="10.35723">
        <ele>1225.34</ele>
        <time>2012-08-02T15:17:15Z</time>
      </trkpt>
      <trkpt lat="46.45179" lon="10.35733">
        <ele>1225.34</ele>
        <time>2012-08-02T15:17:19Z</time>
      </trkpt>
      <trkpt lat="46.4513" lon="10.35746">
        <ele>1225.82</ele>
        <time>2012-08-02T15:17:24Z</time>
      </trkpt>
      <trkpt lat="46.45042" lon="10.35767">
        <ele>1222.93</ele>
        <time>2012-08-02T15:17:33Z</time>
      </trkpt>
      <trkpt lat="46.44983" lon="10.35764">
        <ele>1221.97</ele>
        <time>2012-08-02T15:17:41Z</time>
      </trkpt>
      <trkpt lat="46.44884" lon="10.35755">
        <ele>1221.49</ele>
        <time>2012-08-02T15:17:51Z</time>
      </trkpt>
      <trkpt lat="46.44875" lon="10.35752">
        <ele>1221.49</ele>
        <time>2012-08-02T15:17:52Z</time>
      </trkpt>
      <trkpt lat="46.44868" lon="10.35748">
        <ele>1220.53</ele>
        <time>2012-08-02T15:17:53Z</time>
      </trkpt>
      <trkpt lat="46.44842" lon="10.35735">
        <ele>1219.09</ele>
        <time>2012-08-02T15:17:57Z</time>
      </trkpt>
      <trkpt lat="46.44819" lon="10.35727">
        <ele>1217.17</ele>
        <time>2012-08-02T15:18:02Z</time>
      </trkpt>
      <trkpt lat="46.44818" lon="10.35729">
        <ele>1217.17</ele>
        <time>2012-08-02T15:18:03Z</time>
      </trkpt>
      <trkpt lat="46.44818" lon="10.35731">
        <ele>1217.65</ele>
        <time>2012-08-02T15:18:04Z</time>
      </trkpt>
      <trkpt lat="46.44819" lon="10.35732">
        <ele>1217.65</ele>
        <time>2012-08-02T15:18:05Z</time>
      </trkpt>
      <trkpt lat="46.44822" lon="10.35732">
        <ele>1217.17</ele>
        <time>2012-08-02T15:18:06Z</time>
      </trkpt>
      <trkpt lat="46.44825" lon="10.35731">
        <ele>1217.65</ele>
        <time>2012-08-02T15:18:07Z</time>
      </trkpt>
      <trkpt lat="46.44829" lon="10.35732">
        <ele>1217.17</ele>
        <time>2012-08-02T15:18:08Z</time>
      </trkpt>
      <trkpt lat="46.44833" lon="10.35733">
        <ele>1217.65</ele>
        <time>2012-08-02T15:18:09Z</time>
      </trkpt>
      <trkpt lat="46.44842" lon="10.35736">
        <ele>1217.17</ele>
        <time>2012-08-02T15:18:16Z</time>
      </trkpt>
      <trkpt lat="46.44843" lon="10.35736">
        <ele>1210.44</ele>
        <time>2012-08-02T15:18:21Z</time>
      </trkpt>
      <trkpt lat="46.44843" lon="10.35736">
        <ele>1218.13</ele>
        <time>2012-08-02T15:18:22Z</time>
      </trkpt>
      <trkpt lat="46.44853" lon="10.35743">
        <ele>1216.69</ele>
        <time>2012-08-02T15:18:49Z</time>
      </trkpt>
      <trkpt lat="46.44898" lon="10.35757">
        <ele>1217.17</ele>
        <time>2012-08-02T15:18:56Z</time>
      </trkpt>
      <trkpt lat="46.44959" lon="10.3576">
        <ele>1219.09</ele>
        <time>2012-08-02T15:19:02Z</time>
      </trkpt>
      <trkpt lat="46.44969" lon="10.35762">
        <ele>1218.61</ele>
        <time>2012-08-02T15:19:03Z</time>
      </trkpt>
      <trkpt lat="46.44984" lon="10.35768">
        <ele>1218.13</ele>
        <time>2012-08-02T15:19:05Z</time>
      </trkpt>
      <trkpt lat="46.44991" lon="10.35769">
        <ele>1217.65</ele>
        <time>2012-08-02T15:19:06Z</time>
      </trkpt>
      <trkpt lat="46.45035" lon="10.35773">
        <ele>1218.13</ele>
        <time>2012-08-02T15:19:13Z</time>
      </trkpt>
      <trkpt lat="46.45095" lon="10.35766">
        <ele>1219.09</ele>
        <time>2012-08-02T15:19:21Z</time>
      </trkpt>
      <trkpt lat="46.45103" lon="10.35763">
        <ele>1219.09</ele>
        <time>2012-08-02T15:19:22Z</time>
      </trkpt>
      <trkpt lat="46.4515" lon="10.35743">
        <ele>1219.57</ele>
        <time>2012-08-02T15:19:28Z</time>
      </trkpt>
      <trkpt lat="46.45181" lon="10.35736">
        <ele>1220.05</ele>
        <time>2012-08-02T15:19:32Z</time>
      </trkpt>
      <trkpt lat="46.45252" lon="10.35709">
        <ele>1220.05</ele>
        <time>2012-08-02T15:19:42Z</time>
      </trkpt>
      <trkpt lat="46.45255" lon="10.35706">
        <ele>1220.05</ele>
        <time>2012-08-02T15:19:43Z</time>
      </trkpt>
      <trkpt lat="46.45257" lon="10.35703">
        <ele>1219.57</ele>
        <time>2012-08-02T15:19:44Z</time>
      </trkpt>
      <trkpt lat="46.4525" lon="10.35693">
        <ele>1219.57</ele>
        <time>2012-08-02T15:19:48Z</time>
      </trkpt>
      <trkpt lat="46.45244" lon="10.3569">
        <ele>1220.53</ele>
        <time>2012-08-02T15:19:49Z</time>
      </trkpt>
      <trkpt lat="46.45237" lon="10.35687">
        <ele>1221.01</ele>
        <time>2012-08-02T15:19:50Z</time>
      </trkpt>
      <trkpt lat="46.45204" lon="10.35676">
        <ele>1221.01</ele>
        <time>2012-08-02T15:19:54Z</time>
      </trkpt>
      <trkpt lat="46.45196" lon="10.35675">
        <ele>1221.97</ele>
        <time>2012-08-02T15:19:55Z</time>
      </trkpt>
      <trkpt lat="46.45187" lon="10.35674">
        <ele>1222.45</ele>
        <time>2012-08-02T15:19:56Z</time>
      </trkpt>
      <trkpt lat="46.45178" lon="10.35675">
        <ele>1223.42</ele>
        <time>2012-08-02T15:19:57Z</time>
      </trkpt>
      <trkpt lat="46.4517" lon="10.35676">
        <ele>1223.9</ele>
        <time>2012-08-02T15:19:58Z</time>
      </trkpt>
      <trkpt lat="46.45162" lon="10.35676">
        <ele>1224.86</ele>
        <time>2012-08-02T15:19:59Z</time>
      </trkpt>
      <trkpt lat="46.45155" lon="10.35673">
        <ele>1224.86</ele>
        <time>2012-08-02T15:20:00Z</time>
      </trkpt>
      <trkpt lat="46.45148" lon="10.35669">
        <ele>1225.82</ele>
        <time>2012-08-02T15:20:01Z</time>
      </trkpt>
      <trkpt lat="46.45141" lon="10.35663">
        <ele>1226.78</ele>
        <time>2012-08-02T15:20:02Z</time>
      </trkpt>
      <trkpt lat="46.45133" lon="10.35655">
        <ele>1227.74</ele>
        <time>2012-08-02T15:20:03Z</time>
      </trkpt>
      <trkpt lat="46.45106" lon="10.35636">
        <ele>1230.14</ele>
        <time>2012-08-02T15:20:06Z</time>
      </trkpt>
      <trkpt lat="46.45096" lon="10.35632">
        <ele>1231.11</ele>
        <time>2012-08-02T15:20:07Z</time>
      </trkpt>
      <trkpt lat="46.45086" lon="10.35628">
        <ele>1231.59</ele>
        <time>2012-08-02T15:20:08Z</time>
      </trkpt>
      <trkpt lat="46.45066" lon="10.35622">
        <ele>1232.55</ele>
        <time>2012-08-02T15:20:10Z</time>
      </trkpt>
      <trkpt lat="46.45048" lon="10.35619">
        <ele>1233.51</ele>
        <time>2012-08-02T15:20:12Z</time>
      </trkpt>
      <trkpt lat="46.45039" lon="10.35619">
        <ele>1233.99</ele>
        <time>2012-08-02T15:20:13Z</time>
      </trkpt>
      <trkpt lat="46.45031" lon="10.35621">
        <ele>1234.47</ele>
        <time>2012-08-02T15:20:14Z</time>
      </trkpt>
      <trkpt lat="46.45025" lon="10.35623">
        <ele>1234.47</ele>
        <time>2012-08-02T15:20:15Z</time>
      </trkpt>
      <trkpt lat="46.45019" lon="10.35625">
        <ele>1234.95</ele>
        <time>2012-08-02T15:20:16Z</time>
      </trkpt>
      <trkpt lat="46.44981" lon="10.35639">
        <ele>1236.87</ele>
        <time>2012-08-02T15:20:24Z</time>
      </trkpt>
      <trkpt lat="46.44976" lon="10.35641">
        <ele>1237.83</ele>
        <time>2012-08-02T15:20:25Z</time>
      </trkpt>
      <trkpt lat="46.4497" lon="10.35642">
        <ele>1237.83</ele>
        <time>2012-08-02T15:20:26Z</time>
      </trkpt>
      <trkpt lat="46.44963" lon="10.35642">
        <ele>1238.32</ele>
        <time>2012-08-02T15:20:27Z</time>
      </trkpt>
      <trkpt lat="46.44955" lon="10.35642">
        <ele>1238.8</ele>
        <time>2012-08-02T15:20:28Z</time>
      </trkpt>
      <trkpt lat="46.44903" lon="10.35635">
        <ele>1241.2</ele>
        <time>2012-08-02T15:20:33Z</time>
      </trkpt>
      <trkpt lat="46.44892" lon="10.35637">
        <ele>1242.16</ele>
        <time>2012-08-02T15:20:34Z</time>
      </trkpt>
      <trkpt lat="46.4487" lon="10.35643">
        <ele>1242.64</ele>
        <time>2012-08-02T15:20:36Z</time>
      </trkpt>
      <trkpt lat="46.44858" lon="10.35644">
        <ele>1243.12</ele>
        <time>2012-08-02T15:20:37Z</time>
      </trkpt>
      <trkpt lat="46.44795" lon="10.35647">
        <ele>1245.53</ele>
        <time>2012-08-02T15:20:42Z</time>
      </trkpt>
      <trkpt lat="46.44761" lon="10.35642">
        <ele>1246.97</ele>
        <time>2012-08-02T15:20:45Z</time>
      </trkpt>
      <trkpt lat="46.44751" lon="10.35642">
        <ele>1247.93</ele>
        <time>2012-08-02T15:20:46Z</time>
      </trkpt>
      <trkpt lat="46.44742" lon="10.35643">
        <ele>1247.45</ele>
        <time>2012-08-02T15:20:47Z</time>
      </trkpt>
      <trkpt lat="46.44715" lon="10.35649">
        <ele>1249.37</ele>
        <time>2012-08-02T15:20:50Z</time>
      </trkpt>
      <trkpt lat="46.44684" lon="10.35649">
        <ele>1251.29</ele>
        <time>2012-08-02T15:20:53Z</time>
      </trkpt>
      <trkpt lat="46.44674" lon="10.35651">
        <ele>1251.77</ele>
        <time>2012-08-02T15:20:54Z</time>
      </trkpt>
      <trkpt lat="46.4458" lon="10.35655">
        <ele>1249.37</ele>
        <time>2012-08-02T15:21:03Z</time>
      </trkpt>
      <trkpt lat="46.44569" lon="10.35656">
        <ele>1247.93</ele>
        <time>2012-08-02T15:21:04Z</time>
      </trkpt>
      <trkpt lat="46.44559" lon="10.35658">
        <ele>1248.41</ele>
        <time>2012-08-02T15:21:05Z</time>
      </trkpt>
      <trkpt lat="46.44549" lon="10.35663">
        <ele>1247.45</ele>
        <time>2012-08-02T15:21:06Z</time>
      </trkpt>
      <trkpt lat="46.44539" lon="10.35669">
        <ele>1247.45</ele>
        <time>2012-08-02T15:21:07Z</time>
      </trkpt>
      <trkpt lat="46.4453" lon="10.35675">
        <ele>1246.01</ele>
        <time>2012-08-02T15:21:08Z</time>
      </trkpt>
      <trkpt lat="46.44522" lon="10.35683">
        <ele>1245.53</ele>
        <time>2012-08-02T15:21:09Z</time>
      </trkpt>
      <trkpt lat="46.44513" lon="10.3569">
        <ele>1245.04</ele>
        <time>2012-08-02T15:21:10Z</time>
      </trkpt>
      <trkpt lat="46.44506" lon="10.35695">
        <ele>1243.6</ele>
        <time>2012-08-02T15:21:11Z</time>
      </trkpt>
      <trkpt lat="46.44499" lon="10.35698">
        <ele>1243.12</ele>
        <time>2012-08-02T15:21:12Z</time>
      </trkpt>
      <trkpt lat="46.44493" lon="10.35699">
        <ele>1242.64</ele>
        <time>2012-08-02T15:21:13Z</time>
      </trkpt>
      <trkpt lat="46.44487" lon="10.35698">
        <ele>1242.16</ele>
        <time>2012-08-02T15:21:14Z</time>
      </trkpt>
      <trkpt lat="46.4448" lon="10.35695">
        <ele>1242.16</ele>
        <time>2012-08-02T15:21:15Z</time>
      </trkpt>
      <trkpt lat="46.44473" lon="10.35691">
        <ele>1241.68</ele>
        <time>2012-08-02T15:21:16Z</time>
      </trkpt>
      <trkpt lat="46.44466" lon="10.35687">
        <ele>1241.2</ele>
        <time>2012-08-02T15:21:17Z</time>
      </trkpt>
      <trkpt lat="46.4441" lon="10.35655">
        <ele>1237.83</ele>
        <time>2012-08-02T15:21:23Z</time>
      </trkpt>
      <trkpt lat="46.444" lon="10.35651">
        <ele>1236.87</ele>
        <time>2012-08-02T15:21:24Z</time>
      </trkpt>
      <trkpt lat="46.4439" lon="10.35649">
        <ele>1235.91</ele>
        <time>2012-08-02T15:21:25Z</time>
      </trkpt>
      <trkpt lat="46.4438" lon="10.35649">
        <ele>1235.91</ele>
        <time>2012-08-02T15:21:26Z</time>
      </trkpt>
      <trkpt lat="46.4437" lon="10.3565">
        <ele>1233.99</ele>
        <time>2012-08-02T15:21:27Z</time>
      </trkpt>
      <trkpt lat="46.44361" lon="10.35651">
        <ele>1233.51</ele>
        <time>2012-08-02T15:21:28Z</time>
      </trkpt>
      <trkpt lat="46.44352" lon="10.3565">
        <ele>1232.55</ele>
        <time>2012-08-02T15:21:29Z</time>
      </trkpt>
      <trkpt lat="46.44343" lon="10.35647">
        <ele>1231.59</ele>
        <time>2012-08-02T15:21:30Z</time>
      </trkpt>
      <trkpt lat="46.44333" lon="10.35643">
        <ele>1231.11</ele>
        <time>2012-08-02T15:21:31Z</time>
      </trkpt>
      <trkpt lat="46.44324" lon="10.3564">
        <ele>1229.66</ele>
        <time>2012-08-02T15:21:32Z</time>
      </trkpt>
      <trkpt lat="46.44313" lon="10.35638">
        <ele>1229.18</ele>
        <time>2012-08-02T15:21:33Z</time>
      </trkpt>
      <trkpt lat="46.44303" lon="10.35638">
        <ele>1227.74</ele>
        <time>2012-08-02T15:21:34Z</time>
      </trkpt>
      <trkpt lat="46.44294" lon="10.35642">
        <ele>1227.26</ele>
        <time>2012-08-02T15:21:35Z</time>
      </trkpt>
      <trkpt lat="46.44285" lon="10.35647">
        <ele>1225.34</ele>
        <time>2012-08-02T15:21:36Z</time>
      </trkpt>
      <trkpt lat="46.44277" lon="10.35654">
        <ele>1224.38</ele>
        <time>2012-08-02T15:21:37Z</time>
      </trkpt>
      <trkpt lat="46.4427" lon="10.3566">
        <ele>1223.42</ele>
        <time>2012-08-02T15:21:38Z</time>
      </trkpt>
      <trkpt lat="46.44263" lon="10.35665">
        <ele>1222.93</ele>
        <time>2012-08-02T15:21:39Z</time>
      </trkpt>
      <trkpt lat="46.44255" lon="10.35669">
        <ele>1221.97</ele>
        <time>2012-08-02T15:21:40Z</time>
      </trkpt>
      <trkpt lat="46.44239" lon="10.35671">
        <ele>1221.49</ele>
        <time>2012-08-02T15:21:42Z</time>
      </trkpt>
      <trkpt lat="46.44203" lon="10.35668">
        <ele>1218.13</ele>
        <time>2012-08-02T15:21:46Z</time>
      </trkpt>
      <trkpt lat="46.44165" lon="10.35665">
        <ele>1217.17</ele>
        <time>2012-08-02T15:21:50Z</time>
      </trkpt>
      <trkpt lat="46.44078" lon="10.35656">
        <ele>1214.28</ele>
        <time>2012-08-02T15:21:59Z</time>
      </trkpt>
      <trkpt lat="46.4407" lon="10.35653">
        <ele>1213.8</ele>
        <time>2012-08-02T15:22:00Z</time>
      </trkpt>
      <trkpt lat="46.44063" lon="10.35648">
        <ele>1214.28</ele>
        <time>2012-08-02T15:22:01Z</time>
      </trkpt>
      <trkpt lat="46.44056" lon="10.3564">
        <ele>1213.8</ele>
        <time>2012-08-02T15:22:02Z</time>
      </trkpt>
      <trkpt lat="46.4405" lon="10.35632">
        <ele>1213.8</ele>
        <time>2012-08-02T15:22:03Z</time>
      </trkpt>
      <trkpt lat="46.44008" lon="10.35579">
        <ele>1211.4</ele>
        <time>2012-08-02T15:22:10Z</time>
      </trkpt>
      <trkpt lat="46.44" lon="10.35573">
        <ele>1210.92</ele>
        <time>2012-08-02T15:22:11Z</time>
      </trkpt>
      <trkpt lat="46.43991" lon="10.35568">
        <ele>1210.44</ele>
        <time>2012-08-02T15:22:12Z</time>
      </trkpt>
      <trkpt lat="46.43982" lon="10.35566">
        <ele>1210.44</ele>
        <time>2012-08-02T15:22:13Z</time>
      </trkpt>
      <trkpt lat="46.43972" lon="10.35566">
        <ele>1210.44</ele>
        <time>2012-08-02T15:22:14Z</time>
      </trkpt>
      <trkpt lat="46.43962" lon="10.35568">
        <ele>1209.96</ele>
        <time>2012-08-02T15:22:15Z</time>
      </trkpt>
      <trkpt lat="46.43953" lon="10.35573">
        <ele>1209</ele>
        <time>2012-08-02T15:22:16Z</time>
      </trkpt>
      <trkpt lat="46.43944" lon="10.35579">
        <ele>1208.51</ele>
        <time>2012-08-02T15:22:17Z</time>
      </trkpt>
      <trkpt lat="46.43936" lon="10.35586">
        <ele>1208.03</ele>
        <time>2012-08-02T15:22:18Z</time>
      </trkpt>
      <trkpt lat="46.43929" lon="10.35595">
        <ele>1208.03</ele>
        <time>2012-08-02T15:22:19Z</time>
      </trkpt>
      <trkpt lat="46.43923" lon="10.35603">
        <ele>1207.07</ele>
        <time>2012-08-02T15:22:20Z</time>
      </trkpt>
      <trkpt lat="46.43918" lon="10.35611">
        <ele>1206.59</ele>
        <time>2012-08-02T15:22:21Z</time>
      </trkpt>
      <trkpt lat="46.43911" lon="10.35626">
        <ele>1204.67</ele>
        <time>2012-08-02T15:22:23Z</time>
      </trkpt>
      <trkpt lat="46.43909" lon="10.35631">
        <ele>1204.67</ele>
        <time>2012-08-02T15:22:24Z</time>
      </trkpt>
      <trkpt lat="46.43908" lon="10.35634">
        <ele>1204.19</ele>
        <time>2012-08-02T15:22:25Z</time>
      </trkpt>
      <trkpt lat="46.43908" lon="10.35636">
        <ele>1203.71</ele>
        <time>2012-08-02T15:22:26Z</time>
      </trkpt>
      <trkpt lat="46.43908" lon="10.3564">
        <ele>1203.71</ele>
        <time>2012-08-02T15:22:27Z</time>
      </trkpt>
      <trkpt lat="46.43908" lon="10.35646">
        <ele>1203.71</ele>
        <time>2012-08-02T15:22:28Z</time>
      </trkpt>
      <trkpt lat="46.43908" lon="10.35656">
        <ele>1203.71</ele>
        <time>2012-08-02T15:22:29Z</time>
      </trkpt>
      <trkpt lat="46.4391" lon="10.35669">
        <ele>1204.19</ele>
        <time>2012-08-02T15:22:30Z</time>
      </trkpt>
      <trkpt lat="46.43924" lon="10.35757">
        <ele>1205.15</ele>
        <time>2012-08-02T15:22:36Z</time>
      </trkpt>
      <trkpt lat="46.4393" lon="10.35771">
        <ele>1205.15</ele>
        <time>2012-08-02T15:22:37Z</time>
      </trkpt>
      <trkpt lat="46.43937" lon="10.35781">
        <ele>1206.11</ele>
        <time>2012-08-02T15:22:38Z</time>
      </trkpt>
      <trkpt lat="46.43944" lon="10.3579">
        <ele>1206.11</ele>
        <time>2012-08-02T15:22:39Z</time>
      </trkpt>
      <trkpt lat="46.43951" lon="10.35797">
        <ele>1206.11</ele>
        <time>2012-08-02T15:22:40Z</time>
      </trkpt>
      <trkpt lat="46.43958" lon="10.35803">
        <ele>1205.63</ele>
        <time>2012-08-02T15:22:41Z</time>
      </trkpt>
      <trkpt lat="46.43965" lon="10.35808">
        <ele>1206.11</ele>
        <time>2012-08-02T15:22:42Z</time>
      </trkpt>
      <trkpt lat="46.43972" lon="10.35812">
        <ele>1206.11</ele>
        <time>2012-08-02T15:22:43Z</time>
      </trkpt>
      <trkpt lat="46.43978" lon="10.35815">
        <ele>1206.11</ele>
        <time>2012-08-02T15:22:44Z</time>
      </trkpt>
      <trkpt lat="46.43982" lon="10.35818">
        <ele>1206.11</ele>
        <time>2012-08-02T15:22:45Z</time>
      </trkpt>
      <trkpt lat="46.43984" lon="10.35822">
        <ele>1206.11</ele>
        <time>2012-08-02T15:22:46Z</time>
      </trkpt>
      <trkpt lat="46.43984" lon="10.35826">
        <ele>1206.59</ele>
        <time>2012-08-02T15:22:47Z</time>
      </trkpt>
      <trkpt lat="46.43983" lon="10.35828">
        <ele>1206.59</ele>
        <time>2012-08-02T15:22:48Z</time>
      </trkpt>
      <trkpt lat="46.43981" lon="10.35829">
        <ele>1206.59</ele>
        <time>2012-08-02T15:22:49Z</time>
      </trkpt>
      <trkpt lat="46.43977" lon="10.35828">
        <ele>1207.55</ele>
        <time>2012-08-02T15:22:50Z</time>
      </trkpt>
      <trkpt lat="46.43971" lon="10.35827">
        <ele>1208.51</ele>
        <time>2012-08-02T15:22:51Z</time>
      </trkpt>
      <trkpt lat="46.43965" lon="10.35826">
        <ele>1209.96</ele>
        <time>2012-08-02T15:22:52Z</time>
      </trkpt>
      <trkpt lat="46.43928" lon="10.35818">
        <ele>1212.36</ele>
        <time>2012-08-02T15:22:55Z</time>
      </trkpt>
      <trkpt lat="46.43911" lon="10.35814">
        <ele>1211.4</ele>
        <time>2012-08-02T15:22:56Z</time>
      </trkpt>
      <trkpt lat="46.43894" lon="10.35812">
        <ele>1211.4</ele>
        <time>2012-08-02T15:22:57Z</time>
      </trkpt>
      <trkpt lat="46.43875" lon="10.35813">
        <ele>1211.88</ele>
        <time>2012-08-02T15:22:58Z</time>
      </trkpt>
      <trkpt lat="46.43858" lon="10.35817">
        <ele>1210.92</ele>
        <time>2012-08-02T15:22:59Z</time>
      </trkpt>
      <trkpt lat="46.43841" lon="10.35823">
        <ele>1209.96</ele>
        <time>2012-08-02T15:23:00Z</time>
      </trkpt>
      <trkpt lat="46.43826" lon="10.35831">
        <ele>1210.44</ele>
        <time>2012-08-02T15:23:01Z</time>
      </trkpt>
      <trkpt lat="46.43812" lon="10.35841">
        <ele>1209.48</ele>
        <time>2012-08-02T15:23:02Z</time>
      </trkpt>
      <trkpt lat="46.43693" lon="10.35943">
        <ele>1209</ele>
        <time>2012-08-02T15:23:11Z</time>
      </trkpt>
      <trkpt lat="46.4366" lon="10.35973">
        <ele>1206.11</ele>
        <time>2012-08-02T15:23:14Z</time>
      </trkpt>
      <trkpt lat="46.43647" lon="10.35982">
        <ele>1205.63</ele>
        <time>2012-08-02T15:23:15Z</time>
      </trkpt>
      <trkpt lat="46.43577" lon="10.36022">
        <ele>1203.23</ele>
        <time>2012-08-02T15:23:20Z</time>
      </trkpt>
      <trkpt lat="46.43564" lon="10.36026">
        <ele>1201.79</ele>
        <time>2012-08-02T15:23:21Z</time>
      </trkpt>
      <trkpt lat="46.43527" lon="10.36033">
        <ele>1198.9</ele>
        <time>2012-08-02T15:23:24Z</time>
      </trkpt>
      <trkpt lat="46.43513" lon="10.36034">
        <ele>1197.94</ele>
        <time>2012-08-02T15:23:25Z</time>
      </trkpt>
      <trkpt lat="46.43507" lon="10.36034">
        <ele>1197.46</ele>
        <time>2012-08-02T15:23:26Z</time>
      </trkpt>
      <trkpt lat="46.435" lon="10.36032">
        <ele>1196.5</ele>
        <time>2012-08-02T15:23:27Z</time>
      </trkpt>
      <trkpt lat="46.43495" lon="10.36029">
        <ele>1195.54</ele>
        <time>2012-08-02T15:23:28Z</time>
      </trkpt>
      <trkpt lat="46.43492" lon="10.36026">
        <ele>1195.54</ele>
        <time>2012-08-02T15:23:29Z</time>
      </trkpt>
      <trkpt lat="46.43489" lon="10.36023">
        <ele>1194.58</ele>
        <time>2012-08-02T15:23:30Z</time>
      </trkpt>
      <trkpt lat="46.43486" lon="10.36023">
        <ele>1195.06</ele>
        <time>2012-08-02T15:23:31Z</time>
      </trkpt>
      <trkpt lat="46.43484" lon="10.36025">
        <ele>1194.58</ele>
        <time>2012-08-02T15:23:32Z</time>
      </trkpt>
      <trkpt lat="46.43481" lon="10.36028">
        <ele>1194.09</ele>
        <time>2012-08-02T15:23:41Z</time>
      </trkpt>
      <trkpt lat="46.43483" lon="10.36029">
        <ele>1194.09</ele>
        <time>2012-08-02T15:24:02Z</time>
      </trkpt>
      <trkpt lat="46.43483" lon="10.36028">
        <ele>1190.73</ele>
        <time>2012-08-02T15:24:14Z</time>
      </trkpt>
      <trkpt lat="46.43483" lon="10.36028">
        <ele>1194.58</ele>
        <time>2012-08-02T15:24:15Z</time>
      </trkpt>
      <trkpt lat="46.43484" lon="10.36027">
        <ele>1194.09</ele>
        <time>2012-08-02T15:24:44Z</time>
      </trkpt>
      <trkpt lat="46.43488" lon="10.36026">
        <ele>1193.61</ele>
        <time>2012-08-02T15:25:22Z</time>
      </trkpt>
      <trkpt lat="46.4349" lon="10.36025">
        <ele>1192.65</ele>
        <time>2012-08-02T15:25:55Z</time>
      </trkpt>
      <trkpt lat="46.43489" lon="10.36025">
        <ele>1191.69</ele>
        <time>2012-08-02T15:26:28Z</time>
      </trkpt>
      <trkpt lat="46.43489" lon="10.36025">
        <ele>1191.21</ele>
        <time>2012-08-02T15:26:56Z</time>
      </trkpt>
      <trkpt lat="46.43489" lon="10.36023">
        <ele>1190.25</ele>
        <time>2012-08-02T15:27:31Z</time>
      </trkpt>
      <trkpt lat="46.43497" lon="10.36027">
        <ele>1246.01</ele>
        <time>2012-08-02T15:31:00Z</time>
      </trkpt>
      <trkpt lat="46.43491" lon="10.36027">
        <ele>1242.64</ele>
        <time>2012-08-02T15:31:05Z</time>
      </trkpt>
      <trkpt lat="46.43491" lon="10.36027">
        <ele>1246.01</ele>
        <time>2012-08-02T15:31:06Z</time>
      </trkpt>
      <trkpt lat="46.43492" lon="10.36028">
        <ele>1244.08</ele>
        <time>2012-08-02T15:31:07Z</time>
      </trkpt>
      <trkpt lat="46.43493" lon="10.36029">
        <ele>1240.24</ele>
        <time>2012-08-02T15:31:08Z</time>
      </trkpt>
      <trkpt lat="46.43494" lon="10.36031">
        <ele>1239.76</ele>
        <time>2012-08-02T15:31:09Z</time>
      </trkpt>
      <trkpt lat="46.43494" lon="10.36031">
        <ele>1252.74</ele>
        <time>2012-08-02T15:31:10Z</time>
      </trkpt>
      <trkpt lat="46.43494" lon="10.36031">
        <ele>1246.49</ele>
        <time>2012-08-02T15:31:11Z</time>
      </trkpt>
      <trkpt lat="46.43494" lon="10.36031">
        <ele>1243.12</ele>
        <time>2012-08-02T15:31:12Z</time>
      </trkpt>
      <trkpt lat="46.43495" lon="10.36032">
        <ele>1239.28</ele>
        <time>2012-08-02T15:31:13Z</time>
      </trkpt>
      <trkpt lat="46.43494" lon="10.36035">
        <ele>1230.14</ele>
        <time>2012-08-02T15:31:16Z</time>
      </trkpt>
      <trkpt lat="46.43496" lon="10.36033">
        <ele>1228.7</ele>
        <time>2012-08-02T15:31:17Z</time>
      </trkpt>
      <trkpt lat="46.43527" lon="10.36027">
        <ele>1225.34</ele>
        <time>2012-08-02T15:31:21Z</time>
      </trkpt>
      <trkpt lat="46.43552" lon="10.36022">
        <ele>1221.49</ele>
        <time>2012-08-02T15:31:23Z</time>
      </trkpt>
      <trkpt lat="46.43575" lon="10.36015">
        <ele>1217.65</ele>
        <time>2012-08-02T15:31:25Z</time>
      </trkpt>
      <trkpt lat="46.43598" lon="10.36007">
        <ele>1213.32</ele>
        <time>2012-08-02T15:31:27Z</time>
      </trkpt>
      <trkpt lat="46.43633" lon="10.35988">
        <ele>1209.96</ele>
        <time>2012-08-02T15:31:30Z</time>
      </trkpt>
      <trkpt lat="46.43656" lon="10.35973">
        <ele>1206.11</ele>
        <time>2012-08-02T15:31:32Z</time>
      </trkpt>
      <trkpt lat="46.4369" lon="10.35945">
        <ele>1202.75</ele>
        <time>2012-08-02T15:31:35Z</time>
      </trkpt>
      <trkpt lat="46.43725" lon="10.35911">
        <ele>1198.42</ele>
        <time>2012-08-02T15:31:38Z</time>
      </trkpt>
      <trkpt lat="46.43762" lon="10.35878">
        <ele>1195.54</ele>
        <time>2012-08-02T15:31:41Z</time>
      </trkpt>
      <trkpt lat="46.43802" lon="10.35844">
        <ele>1191.69</ele>
        <time>2012-08-02T15:31:44Z</time>
      </trkpt>
      <trkpt lat="46.43829" lon="10.35824">
        <ele>1188.33</ele>
        <time>2012-08-02T15:31:46Z</time>
      </trkpt>
      <trkpt lat="46.43842" lon="10.35815">
        <ele>1186.88</ele>
        <time>2012-08-02T15:31:47Z</time>
      </trkpt>
      <trkpt lat="46.43857" lon="10.35808">
        <ele>1185.92</ele>
        <time>2012-08-02T15:31:48Z</time>
      </trkpt>
      <trkpt lat="46.43871" lon="10.35803">
        <ele>1184.96</ele>
        <time>2012-08-02T15:31:49Z</time>
      </trkpt>
      <trkpt lat="46.43886" lon="10.35801">
        <ele>1184.48</ele>
        <time>2012-08-02T15:31:50Z</time>
      </trkpt>
      <trkpt lat="46.43901" lon="10.35801">
        <ele>1183.52</ele>
        <time>2012-08-02T15:31:51Z</time>
      </trkpt>
      <trkpt lat="46.43915" lon="10.35804">
        <ele>1182.56</ele>
        <time>2012-08-02T15:31:52Z</time>
      </trkpt>
      <trkpt lat="46.43929" lon="10.35808">
        <ele>1182.08</ele>
        <time>2012-08-02T15:31:53Z</time>
      </trkpt>
      <trkpt lat="46.43942" lon="10.35814">
        <ele>1180.64</ele>
        <time>2012-08-02T15:31:54Z</time>
      </trkpt>
      <trkpt lat="46.43978" lon="10.35833">
        <ele>1176.79</ele>
        <time>2012-08-02T15:31:57Z</time>
      </trkpt>
      <trkpt lat="46.44017" lon="10.35854">
        <ele>1173.43</ele>
        <time>2012-08-02T15:32:01Z</time>
      </trkpt>
      <trkpt lat="46.44071" lon="10.35881">
        <ele>1170.06</ele>
        <time>2012-08-02T15:32:06Z</time>
      </trkpt>
      <trkpt lat="46.44119" lon="10.35905">
        <ele>1166.7</ele>
        <time>2012-08-02T15:32:10Z</time>
      </trkpt>
      <trkpt lat="46.44171" lon="10.35934">
        <ele>1163.33</ele>
        <time>2012-08-02T15:32:15Z</time>
      </trkpt>
      <trkpt lat="46.4427" lon="10.35986">
        <ele>1159.97</ele>
        <time>2012-08-02T15:32:25Z</time>
      </trkpt>
      <trkpt lat="46.44357" lon="10.36032">
        <ele>1156.12</ele>
        <time>2012-08-02T15:32:34Z</time>
      </trkpt>
      <trkpt lat="46.44364" lon="10.36035">
        <ele>1156.12</ele>
        <time>2012-08-02T15:32:35Z</time>
      </trkpt>
      <trkpt lat="46.444" lon="10.36053">
        <ele>1154.2</ele>
        <time>2012-08-02T15:32:43Z</time>
      </trkpt>
      <trkpt lat="46.44402" lon="10.36052">
        <ele>1154.68</ele>
        <time>2012-08-02T15:32:44Z</time>
      </trkpt>
      <trkpt lat="46.44393" lon="10.36044">
        <ele>1154.68</ele>
        <time>2012-08-02T15:32:49Z</time>
      </trkpt>
      <trkpt lat="46.44345" lon="10.36077">
        <ele>1254.66</ele>
        <time>2012-08-02T15:47:01Z</time>
      </trkpt>
      <trkpt lat="46.44361" lon="10.36087">
        <ele>1251.29</ele>
        <time>2012-08-02T15:47:06Z</time>
      </trkpt>
      <trkpt lat="46.44364" lon="10.36089">
        <ele>1247.93</ele>
        <time>2012-08-02T15:47:07Z</time>
      </trkpt>
      <trkpt lat="46.44366" lon="10.36091">
        <ele>1244.08</ele>
        <time>2012-08-02T15:47:08Z</time>
      </trkpt>
      <trkpt lat="46.44369" lon="10.36091">
        <ele>1240.24</ele>
        <time>2012-08-02T15:47:09Z</time>
      </trkpt>
      <trkpt lat="46.44371" lon="10.36092">
        <ele>1240.24</ele>
        <time>2012-08-02T15:47:10Z</time>
      </trkpt>
      <trkpt lat="46.44377" lon="10.36085">
        <ele>1235.43</ele>
        <time>2012-08-02T15:47:12Z</time>
      </trkpt>
      <trkpt lat="46.4438" lon="10.36079">
        <ele>1230.62</ele>
        <time>2012-08-02T15:47:14Z</time>
      </trkpt>
      <trkpt lat="46.44382" lon="10.36077">
        <ele>1227.26</ele>
        <time>2012-08-02T15:47:15Z</time>
      </trkpt>
      <trkpt lat="46.44385" lon="10.36073">
        <ele>1222.93</ele>
        <time>2012-08-02T15:47:17Z</time>
      </trkpt>
      <trkpt lat="46.44403" lon="10.36066">
        <ele>1219.09</ele>
        <time>2012-08-02T15:47:42Z</time>
      </trkpt>
      <trkpt lat="46.44402" lon="10.36068">
        <ele>1214.28</ele>
        <time>2012-08-02T15:47:44Z</time>
      </trkpt>
      <trkpt lat="46.44401" lon="10.3607">
        <ele>1210.44</ele>
        <time>2012-08-02T15:47:46Z</time>
      </trkpt>
      <trkpt lat="46.44399" lon="10.36071">
        <ele>1207.07</ele>
        <time>2012-08-02T15:47:48Z</time>
      </trkpt>
      <trkpt lat="46.44398" lon="10.36073">
        <ele>1203.71</ele>
        <time>2012-08-02T15:47:50Z</time>
      </trkpt>
      <trkpt lat="46.44397" lon="10.36075">
        <ele>1200.34</ele>
        <time>2012-08-02T15:47:52Z</time>
      </trkpt>
      <trkpt lat="46.44396" lon="10.36077">
        <ele>1197.46</ele>
        <time>2012-08-02T15:47:54Z</time>
      </trkpt>
      <trkpt lat="46.44394" lon="10.36079">
        <ele>1193.13</ele>
        <time>2012-08-02T15:47:57Z</time>
      </trkpt>
      <trkpt lat="46.44392" lon="10.36082">
        <ele>1189.29</ele>
        <time>2012-08-02T15:48:00Z</time>
      </trkpt>
      <trkpt lat="46.4439" lon="10.36085">
        <ele>1185.44</ele>
        <time>2012-08-02T15:48:03Z</time>
      </trkpt>
      <trkpt lat="46.44388" lon="10.36088">
        <ele>1181.6</ele>
        <time>2012-08-02T15:48:07Z</time>
      </trkpt>
      <trkpt lat="46.44379" lon="10.36067">
        <ele>1254.66</ele>
        <time>2012-08-02T16:55:49Z</time>
      </trkpt>
      <trkpt lat="46.44379" lon="10.36067">
        <ele>1254.18</ele>
        <time>2012-08-02T16:55:50Z</time>
      </trkpt>
      <trkpt lat="46.44371" lon="10.36063">
        <ele>1254.66</ele>
        <time>2012-08-02T16:56:12Z</time>
      </trkpt>
      <trkpt lat="46.44372" lon="10.36061">
        <ele>1253.22</ele>
        <time>2012-08-02T16:56:17Z</time>
      </trkpt>
    </trkseg>
  </trk>
</gpx>